<?xml version='1.0' encoding='UTF-8'?><gpx version="1.1" creator="JPX - https://github.com/jenetics/jpx" xmlns="http://www.topografix.com/GPX/1/1"><trk><trkseg><trkpt lat="43.9661294" lon="12.7631953"><ele>1.9999999999999998</ele><time>2026-04-25T07:11:55.16Z</time></trkpt><trkpt lat="43.9661139" lon="12.7632827"><ele>2.0</ele><time>2026-04-25T07:15:00.207Z</time></trkpt><trkpt lat="43.966122" lon="12.7633828"><ele>2.0</ele><time>2026-04-25T07:15:12.202Z</time></trkpt><trkpt lat="43.9661283" lon="12.7632533"><ele>2.0</ele><time>2026-04-25T07:15:45.937Z</time></trkpt><trkpt lat="43.9661417" lon="12.7631517"><ele>1.9999999999999998</ele><time>2026-04-25T07:15:47.937Z</time></trkpt><trkpt lat="43.966155" lon="12.7630433"><ele>2.0</ele><time>2026-04-25T07:15:49.937Z</time></trkpt><trkpt lat="43.9661667" lon="12.76294"><ele>1.9999999999999998</ele><time>2026-04-25T07:15:51.937Z</time></trkpt><trkpt lat="43.9661733" lon="12.762835"><ele>2.0</ele><time>2026-04-25T07:15:53.937Z</time></trkpt><trkpt lat="43.9661883" lon="12.762715"><ele>2.0</ele><time>2026-04-25T07:15:55.937Z</time></trkpt><trkpt lat="43.9662017" lon="12.7625817"><ele>2.0</ele><time>2026-04-25T07:15:57.936Z</time></trkpt><trkpt lat="43.9661883" lon="12.7624467"><ele>1.9999999999999998</ele><time>2026-04-25T07:15:59.937Z</time></trkpt><trkpt lat="43.96616" lon="12.7623517"><ele>2.0</ele><time>2026-04-25T07:16:01.937Z</time></trkpt><trkpt lat="43.96613" lon="12.762265"><ele>2.2</ele><time>2026-04-25T07:16:03.937Z</time></trkpt><trkpt lat="43.9660817" lon="12.762165"><ele>2.4000000000000004</ele><time>2026-04-25T07:16:05.936Z</time></trkpt><trkpt lat="43.9660317" lon="12.7620467"><ele>2.5999999999999996</ele><time>2026-04-25T07:16:07.937Z</time></trkpt><trkpt lat="43.9660083" lon="12.761915"><ele>2.8</ele><time>2026-04-25T07:16:09.937Z</time></trkpt><trkpt lat="43.966005" lon="12.7617783"><ele>3.0</ele><time>2026-04-25T07:16:11.937Z</time></trkpt><trkpt lat="43.965995" lon="12.7616383"><ele>3.666666666666667</ele><time>2026-04-25T07:16:13.938Z</time></trkpt><trkpt lat="43.965975" lon="12.7615433"><ele>4.333333333333334</ele><time>2026-04-25T07:16:15.937Z</time></trkpt><trkpt lat="43.9659083" lon="12.761615"><ele>5.0</ele><time>2026-04-25T07:16:24.938Z</time></trkpt><trkpt lat="43.9658767" lon="12.76174"><ele>5.666666666666667</ele><time>2026-04-25T07:16:26.938Z</time></trkpt><trkpt lat="43.9658317" lon="12.7619"><ele>6.333333333333334</ele><time>2026-04-25T07:16:28.938Z</time></trkpt><trkpt lat="43.9658033" lon="12.7619917"><ele>7.0</ele><time>2026-04-25T07:16:29.938Z</time></trkpt><trkpt lat="43.9657717" lon="12.7620883"><ele>8.666666666666668</ele><time>2026-04-25T07:16:30.938Z</time></trkpt><trkpt lat="43.9657417" lon="12.7621917"><ele>10.333333333333334</ele><time>2026-04-25T07:16:31.938Z</time></trkpt><trkpt lat="43.9657083" lon="12.7622967"><ele>12.0</ele><time>2026-04-25T07:16:32.938Z</time></trkpt><trkpt lat="43.9656767" lon="12.7624033"><ele>13.666666666666668</ele><time>2026-04-25T07:16:33.938Z</time></trkpt><trkpt lat="43.965645" lon="12.762515"><ele>15.333333333333334</ele><time>2026-04-25T07:16:34.938Z</time></trkpt><trkpt lat="43.9656183" lon="12.7626217"><ele>17.0</ele><time>2026-04-25T07:16:35.938Z</time></trkpt><trkpt lat="43.9655917" lon="12.7627167"><ele>17.0</ele><time>2026-04-25T07:16:36.938Z</time></trkpt><trkpt lat="43.965565" lon="12.7628033"><ele>17.0</ele><time>2026-04-25T07:16:37.937Z</time></trkpt><trkpt lat="43.9655067" lon="12.76292"><ele>17.0</ele><time>2026-04-25T07:16:39.938Z</time></trkpt><trkpt lat="43.9654267" lon="12.7629183"><ele>17.0</ele><time>2026-04-25T07:16:41.937Z</time></trkpt><trkpt lat="43.9653183" lon="12.7628483"><ele>17.0</ele><time>2026-04-25T07:16:43.937Z</time></trkpt><trkpt lat="43.9652183" lon="12.7627983"><ele>17.0</ele><time>2026-04-25T07:16:45.938Z</time></trkpt><trkpt lat="43.9651783" lon="12.7626983"><ele>17.0</ele><time>2026-04-25T07:17:03.938Z</time></trkpt><trkpt lat="43.965225" lon="12.7625367"><ele>17.0</ele><time>2026-04-25T07:17:05.938Z</time></trkpt><trkpt lat="43.9652533" lon="12.7624433"><ele>17.0</ele><time>2026-04-25T07:17:06.938Z</time></trkpt><trkpt lat="43.9652867" lon="12.7623417"><ele>17.0</ele><time>2026-04-25T07:17:07.937Z</time></trkpt><trkpt lat="43.9653183" lon="12.7622317"><ele>17.0</ele><time>2026-04-25T07:17:08.938Z</time></trkpt><trkpt lat="43.96535" lon="12.7621183"><ele>17.0</ele><time>2026-04-25T07:17:09.938Z</time></trkpt><trkpt lat="43.965385" lon="12.7620017"><ele>17.0</ele><time>2026-04-25T07:17:10.938Z</time></trkpt><trkpt lat="43.96542" lon="12.7618817"><ele>17.0</ele><time>2026-04-25T07:17:11.938Z</time></trkpt><trkpt lat="43.9654533" lon="12.761755"><ele>17.0</ele><time>2026-04-25T07:17:12.938Z</time></trkpt><trkpt lat="43.9654867" lon="12.7616233"><ele>17.0</ele><time>2026-04-25T07:17:13.937Z</time></trkpt><trkpt lat="43.9655233" lon="12.7614917"><ele>17.4</ele><time>2026-04-25T07:17:14.938Z</time></trkpt><trkpt lat="43.9655583" lon="12.761355"><ele>17.799999999999997</ele><time>2026-04-25T07:17:15.937Z</time></trkpt><trkpt lat="43.9655917" lon="12.761215"><ele>18.2</ele><time>2026-04-25T07:17:16.938Z</time></trkpt><trkpt lat="43.96563" lon="12.7610783"><ele>18.599999999999998</ele><time>2026-04-25T07:17:17.937Z</time></trkpt><trkpt lat="43.965665" lon="12.76094"><ele>19.0</ele><time>2026-04-25T07:17:18.937Z</time></trkpt><trkpt lat="43.9657" lon="12.7608"><ele>19.2</ele><time>2026-04-25T07:17:19.938Z</time></trkpt><trkpt lat="43.9657333" lon="12.7606583"><ele>19.4</ele><time>2026-04-25T07:17:20.938Z</time></trkpt><trkpt lat="43.965765" lon="12.760515"><ele>19.6</ele><time>2026-04-25T07:17:21.938Z</time></trkpt><trkpt lat="43.9658" lon="12.76038"><ele>19.8</ele><time>2026-04-25T07:17:22.938Z</time></trkpt><trkpt lat="43.9658367" lon="12.7602467"><ele>20.0</ele><time>2026-04-25T07:17:23.938Z</time></trkpt><trkpt lat="43.9658733" lon="12.7601117"><ele>17.0</ele><time>2026-04-25T07:17:24.937Z</time></trkpt><trkpt lat="43.9659133" lon="12.759975"><ele>14.0</ele><time>2026-04-25T07:17:25.938Z</time></trkpt><trkpt lat="43.96595" lon="12.7598333"><ele>11.0</ele><time>2026-04-25T07:17:26.938Z</time></trkpt><trkpt lat="43.9659883" lon="12.7596867"><ele>8.0</ele><time>2026-04-25T07:17:27.938Z</time></trkpt><trkpt lat="43.9660267" lon="12.7595367"><ele>5.0</ele><time>2026-04-25T07:17:28.938Z</time></trkpt><trkpt lat="43.966065" lon="12.759385"><ele>5.6</ele><time>2026-04-25T07:17:29.938Z</time></trkpt><trkpt lat="43.9661017" lon="12.7592367"><ele>6.2</ele><time>2026-04-25T07:17:30.938Z</time></trkpt><trkpt lat="43.9661367" lon="12.7590983"><ele>6.800000000000001</ele><time>2026-04-25T07:17:31.938Z</time></trkpt><trkpt lat="43.96617" lon="12.7589717"><ele>7.4</ele><time>2026-04-25T07:17:32.938Z</time></trkpt><trkpt lat="43.9661983" lon="12.75886"><ele>8.0</ele><time>2026-04-25T07:17:33.938Z</time></trkpt><trkpt lat="43.9662217" lon="12.7587617"><ele>7.999999999999999</ele><time>2026-04-25T07:17:34.938Z</time></trkpt><trkpt lat="43.9662417" lon="12.7586717"><ele>8.0</ele><time>2026-04-25T07:17:35.938Z</time></trkpt><trkpt lat="43.9662683" lon="12.75858"><ele>8.0</ele><time>2026-04-25T07:17:36.938Z</time></trkpt><trkpt lat="43.9662967" lon="12.7584833"><ele>8.0</ele><time>2026-04-25T07:17:37.937Z</time></trkpt><trkpt lat="43.9663283" lon="12.7583767"><ele>7.999999999999999</ele><time>2026-04-25T07:17:38.938Z</time></trkpt><trkpt lat="43.96636" lon="12.7582633"><ele>8.0</ele><time>2026-04-25T07:17:39.937Z</time></trkpt><trkpt lat="43.96639" lon="12.7581417"><ele>8.200000000000001</ele><time>2026-04-25T07:17:40.937Z</time></trkpt><trkpt lat="43.9664217" lon="12.7580167"><ele>8.4</ele><time>2026-04-25T07:17:41.938Z</time></trkpt><trkpt lat="43.9664533" lon="12.7578867"><ele>8.600000000000001</ele><time>2026-04-25T07:17:42.937Z</time></trkpt><trkpt lat="43.9664867" lon="12.7577567"><ele>8.8</ele><time>2026-04-25T07:17:43.938Z</time></trkpt><trkpt lat="43.9665217" lon="12.75762"><ele>9.0</ele><time>2026-04-25T07:17:44.938Z</time></trkpt><trkpt lat="43.9665533" lon="12.7574817"><ele>9.0</ele><time>2026-04-25T07:17:45.938Z</time></trkpt><trkpt lat="43.966585" lon="12.7573433"><ele>9.0</ele><time>2026-04-25T07:17:46.938Z</time></trkpt><trkpt lat="43.9666133" lon="12.75721"><ele>9.0</ele><time>2026-04-25T07:17:47.937Z</time></trkpt><trkpt lat="43.96664" lon="12.757085"><ele>9.0</ele><time>2026-04-25T07:17:48.938Z</time></trkpt><trkpt lat="43.9666683" lon="12.7569667"><ele>9.0</ele><time>2026-04-25T07:17:49.938Z</time></trkpt><trkpt lat="43.9666933" lon="12.7568567"><ele>8.166666666666666</ele><time>2026-04-25T07:17:50.938Z</time></trkpt><trkpt lat="43.9667183" lon="12.7567533"><ele>7.333333333333333</ele><time>2026-04-25T07:17:51.938Z</time></trkpt><trkpt lat="43.9667433" lon="12.7566533"><ele>6.5</ele><time>2026-04-25T07:17:52.938Z</time></trkpt><trkpt lat="43.96677" lon="12.7565533"><ele>5.666666666666666</ele><time>2026-04-25T07:17:53.938Z</time></trkpt><trkpt lat="43.9667933" lon="12.7564517"><ele>4.833333333333333</ele><time>2026-04-25T07:17:54.938Z</time></trkpt><trkpt lat="43.96681" lon="12.7563483"><ele>4.0</ele><time>2026-04-25T07:17:55.938Z</time></trkpt><trkpt lat="43.9668117" lon="12.7562483"><ele>3.9999999999999996</ele><time>2026-04-25T07:17:56.938Z</time></trkpt><trkpt lat="43.966785" lon="12.7561567"><ele>4.0</ele><time>2026-04-25T07:17:57.938Z</time></trkpt><trkpt lat="43.9667317" lon="12.7561033"><ele>4.0</ele><time>2026-04-25T07:17:58.937Z</time></trkpt><trkpt lat="43.9666683" lon="12.756045"><ele>4.0</ele><time>2026-04-25T07:17:59.937Z</time></trkpt><trkpt lat="43.9666017" lon="12.7559833"><ele>3.9999999999999996</ele><time>2026-04-25T07:18:00.937Z</time></trkpt><trkpt lat="43.9665367" lon="12.7559233"><ele>4.0</ele><time>2026-04-25T07:18:01.936Z</time></trkpt><trkpt lat="43.96647" lon="12.755865"><ele>4.5</ele><time>2026-04-25T07:18:02.937Z</time></trkpt><trkpt lat="43.9664" lon="12.7558133"><ele>5.0</ele><time>2026-04-25T07:18:03.937Z</time></trkpt><trkpt lat="43.9663267" lon="12.7557533"><ele>5.5</ele><time>2026-04-25T07:18:04.937Z</time></trkpt><trkpt lat="43.9662533" lon="12.7556867"><ele>6.0</ele><time>2026-04-25T07:18:05.937Z</time></trkpt><trkpt lat="43.966175" lon="12.7556217"><ele>6.500000000000001</ele><time>2026-04-25T07:18:06.937Z</time></trkpt><trkpt lat="43.9660933" lon="12.7555517"><ele>7.0</ele><time>2026-04-25T07:18:07.937Z</time></trkpt><trkpt lat="43.966005" lon="12.7554783"><ele>7.0</ele><time>2026-04-25T07:18:08.936Z</time></trkpt><trkpt lat="43.9659167" lon="12.7554083"><ele>6.999999999999999</ele><time>2026-04-25T07:18:09.937Z</time></trkpt><trkpt lat="43.9658317" lon="12.7553417"><ele>6.999999999999999</ele><time>2026-04-25T07:18:10.937Z</time></trkpt><trkpt lat="43.9657433" lon="12.7552833"><ele>7.0</ele><time>2026-04-25T07:18:11.936Z</time></trkpt><trkpt lat="43.9656583" lon="12.7552133"><ele>7.0</ele><time>2026-04-25T07:18:12.937Z</time></trkpt><trkpt lat="43.9655733" lon="12.7551383"><ele>7.199999999999999</ele><time>2026-04-25T07:18:13.937Z</time></trkpt><trkpt lat="43.96549" lon="12.7550617"><ele>7.3999999999999995</ele><time>2026-04-25T07:18:14.936Z</time></trkpt><trkpt lat="43.9654083" lon="12.754985"><ele>7.6000000000000005</ele><time>2026-04-25T07:18:15.937Z</time></trkpt><trkpt lat="43.9653267" lon="12.7549"><ele>7.800000000000001</ele><time>2026-04-25T07:18:16.937Z</time></trkpt><trkpt lat="43.9652483" lon="12.75481"><ele>8.0</ele><time>2026-04-25T07:18:17.937Z</time></trkpt><trkpt lat="43.9651733" lon="12.7547183"><ele>8.0</ele><time>2026-04-25T07:18:18.937Z</time></trkpt><trkpt lat="43.9651" lon="12.754625"><ele>8.0</ele><time>2026-04-25T07:18:19.936Z</time></trkpt><trkpt lat="43.965025" lon="12.754525"><ele>8.0</ele><time>2026-04-25T07:18:20.937Z</time></trkpt><trkpt lat="43.96495" lon="12.754425"><ele>8.0</ele><time>2026-04-25T07:18:21.937Z</time></trkpt><trkpt lat="43.9648667" lon="12.7543367"><ele>8.0</ele><time>2026-04-25T07:18:22.937Z</time></trkpt><trkpt lat="43.9647867" lon="12.7542433"><ele>7.0</ele><time>2026-04-25T07:18:23.937Z</time></trkpt><trkpt lat="43.9647" lon="12.7541533"><ele>6.000000000000001</ele><time>2026-04-25T07:18:24.937Z</time></trkpt><trkpt lat="43.9646117" lon="12.754065"><ele>5.0</ele><time>2026-04-25T07:18:25.937Z</time></trkpt><trkpt lat="43.96452" lon="12.75399"><ele>4.0</ele><time>2026-04-25T07:18:26.936Z</time></trkpt><trkpt lat="43.964435" lon="12.7539067"><ele>3.0</ele><time>2026-04-25T07:18:27.937Z</time></trkpt><trkpt lat="43.964355" lon="12.7538167"><ele>3.0</ele><time>2026-04-25T07:18:28.936Z</time></trkpt><trkpt lat="43.96427" lon="12.7537267"><ele>3.0</ele><time>2026-04-25T07:18:29.936Z</time></trkpt><trkpt lat="43.96418" lon="12.753645"><ele>3.0</ele><time>2026-04-25T07:18:30.937Z</time></trkpt><trkpt lat="43.964095" lon="12.7535667"><ele>3.0</ele><time>2026-04-25T07:18:31.937Z</time></trkpt><trkpt lat="43.964015" lon="12.7534933"><ele>3.0</ele><time>2026-04-25T07:18:32.937Z</time></trkpt><trkpt lat="43.9639383" lon="12.7534217"><ele>4.0</ele><time>2026-04-25T07:18:33.937Z</time></trkpt><trkpt lat="43.96386" lon="12.7533433"><ele>5.0</ele><time>2026-04-25T07:18:34.937Z</time></trkpt><trkpt lat="43.9637783" lon="12.753265"><ele>6.000000000000001</ele><time>2026-04-25T07:18:35.937Z</time></trkpt><trkpt lat="43.9636983" lon="12.75319"><ele>7.0</ele><time>2026-04-25T07:18:36.937Z</time></trkpt><trkpt lat="43.963625" lon="12.7531183"><ele>8.0</ele><time>2026-04-25T07:18:37.937Z</time></trkpt><trkpt lat="43.963555" lon="12.753065"><ele>8.0</ele><time>2026-04-25T07:18:38.936Z</time></trkpt><trkpt lat="43.96349" lon="12.7530017"><ele>8.0</ele><time>2026-04-25T07:18:39.937Z</time></trkpt><trkpt lat="43.9634233" lon="12.7529333"><ele>8.0</ele><time>2026-04-25T07:18:40.937Z</time></trkpt><trkpt lat="43.9633433" lon="12.7528733"><ele>8.0</ele><time>2026-04-25T07:18:41.937Z</time></trkpt><trkpt lat="43.9632583" lon="12.752805"><ele>8.0</ele><time>2026-04-25T07:18:42.937Z</time></trkpt><trkpt lat="43.9631717" lon="12.752735"><ele>8.200000000000001</ele><time>2026-04-25T07:18:43.936Z</time></trkpt><trkpt lat="43.963085" lon="12.752665"><ele>8.4</ele><time>2026-04-25T07:18:44.937Z</time></trkpt><trkpt lat="43.9629967" lon="12.7525867"><ele>8.600000000000001</ele><time>2026-04-25T07:18:45.937Z</time></trkpt><trkpt lat="43.9629117" lon="12.752505"><ele>8.8</ele><time>2026-04-25T07:18:46.937Z</time></trkpt><trkpt lat="43.9628183" lon="12.7524317"><ele>9.0</ele><time>2026-04-25T07:18:47.937Z</time></trkpt><trkpt lat="43.9627283" lon="12.7523517"><ele>9.0</ele><time>2026-04-25T07:18:48.937Z</time></trkpt><trkpt lat="43.962635" lon="12.7522733"><ele>9.0</ele><time>2026-04-25T07:18:49.936Z</time></trkpt><trkpt lat="43.9625417" lon="12.7522"><ele>9.0</ele><time>2026-04-25T07:18:50.937Z</time></trkpt><trkpt lat="43.9624583" lon="12.7521217"><ele>9.0</ele><time>2026-04-25T07:18:51.936Z</time></trkpt><trkpt lat="43.9623717" lon="12.7520467"><ele>9.0</ele><time>2026-04-25T07:18:52.936Z</time></trkpt><trkpt lat="43.9622867" lon="12.7519683"><ele>9.0</ele><time>2026-04-25T07:18:53.937Z</time></trkpt><trkpt lat="43.9621983" lon="12.7518917"><ele>9.0</ele><time>2026-04-25T07:18:54.937Z</time></trkpt><trkpt lat="43.962115" lon="12.751815"><ele>9.0</ele><time>2026-04-25T07:18:55.936Z</time></trkpt><trkpt lat="43.9620317" lon="12.7517367"><ele>9.0</ele><time>2026-04-25T07:18:56.937Z</time></trkpt><trkpt lat="43.961945" lon="12.751665"><ele>9.0</ele><time>2026-04-25T07:18:57.937Z</time></trkpt><trkpt lat="43.96186" lon="12.7515917"><ele>9.0</ele><time>2026-04-25T07:18:58.937Z</time></trkpt><trkpt lat="43.9617767" lon="12.751515"><ele>9.0</ele><time>2026-04-25T07:18:59.937Z</time></trkpt><trkpt lat="43.96169" lon="12.7514433"><ele>9.0</ele><time>2026-04-25T07:19:00.937Z</time></trkpt><trkpt lat="43.961605" lon="12.751365"><ele>9.0</ele><time>2026-04-25T07:19:01.937Z</time></trkpt><trkpt lat="43.96152" lon="12.7512867"><ele>9.0</ele><time>2026-04-25T07:19:02.937Z</time></trkpt><trkpt lat="43.9614367" lon="12.7512067"><ele>9.0</ele><time>2026-04-25T07:19:03.937Z</time></trkpt><trkpt lat="43.961355" lon="12.7511317"><ele>9.0</ele><time>2026-04-25T07:19:04.937Z</time></trkpt><trkpt lat="43.9612783" lon="12.7510633"><ele>9.0</ele><time>2026-04-25T07:19:05.937Z</time></trkpt><trkpt lat="43.9612067" lon="12.75099"><ele>9.0</ele><time>2026-04-25T07:19:06.936Z</time></trkpt><trkpt lat="43.9611267" lon="12.7509267"><ele>9.0</ele><time>2026-04-25T07:19:07.936Z</time></trkpt><trkpt lat="43.9610333" lon="12.750895"><ele>9.0</ele><time>2026-04-25T07:19:08.937Z</time></trkpt><trkpt lat="43.96093" lon="12.7508917"><ele>9.0</ele><time>2026-04-25T07:19:09.937Z</time></trkpt><trkpt lat="43.9608267" lon="12.7508817"><ele>9.0</ele><time>2026-04-25T07:19:10.936Z</time></trkpt><trkpt lat="43.960725" lon="12.750855"><ele>9.0</ele><time>2026-04-25T07:19:11.937Z</time></trkpt><trkpt lat="43.9606217" lon="12.75083"><ele>9.0</ele><time>2026-04-25T07:19:12.937Z</time></trkpt><trkpt lat="43.9605167" lon="12.7507983"><ele>9.0</ele><time>2026-04-25T07:19:13.937Z</time></trkpt><trkpt lat="43.9604183" lon="12.7507483"><ele>9.0</ele><time>2026-04-25T07:19:14.937Z</time></trkpt><trkpt lat="43.9603317" lon="12.75069"><ele>9.0</ele><time>2026-04-25T07:19:15.937Z</time></trkpt><trkpt lat="43.960255" lon="12.7506417"><ele>9.0</ele><time>2026-04-25T07:19:16.937Z</time></trkpt><trkpt lat="43.9601967" lon="12.7505917"><ele>9.0</ele><time>2026-04-25T07:19:17.937Z</time></trkpt><trkpt lat="43.9601317" lon="12.7504683"><ele>9.0</ele><time>2026-04-25T07:19:19.936Z</time></trkpt><trkpt lat="43.9601333" lon="12.7503783"><ele>9.0</ele><time>2026-04-25T07:19:20.937Z</time></trkpt><trkpt lat="43.9601467" lon="12.750275"><ele>9.0</ele><time>2026-04-25T07:19:21.937Z</time></trkpt><trkpt lat="43.9601633" lon="12.7501483"><ele>9.0</ele><time>2026-04-25T07:19:22.937Z</time></trkpt><trkpt lat="43.9601867" lon="12.75001"><ele>9.0</ele><time>2026-04-25T07:19:23.937Z</time></trkpt><trkpt lat="43.9602117" lon="12.74987"><ele>9.0</ele><time>2026-04-25T07:19:24.936Z</time></trkpt><trkpt lat="43.9602283" lon="12.7497333"><ele>9.4</ele><time>2026-04-25T07:19:25.937Z</time></trkpt><trkpt lat="43.9602483" lon="12.7496"><ele>9.8</ele><time>2026-04-25T07:19:26.936Z</time></trkpt><trkpt lat="43.9602717" lon="12.7494667"><ele>10.200000000000001</ele><time>2026-04-25T07:19:27.937Z</time></trkpt><trkpt lat="43.960295" lon="12.7493333"><ele>10.600000000000001</ele><time>2026-04-25T07:19:28.937Z</time></trkpt><trkpt lat="43.960325" lon="12.7492067"><ele>11.0</ele><time>2026-04-25T07:19:29.936Z</time></trkpt><trkpt lat="43.9603583" lon="12.7490867"><ele>11.0</ele><time>2026-04-25T07:19:30.937Z</time></trkpt><trkpt lat="43.960385" lon="12.748965"><ele>11.0</ele><time>2026-04-25T07:19:31.937Z</time></trkpt><trkpt lat="43.9604183" lon="12.7488517"><ele>11.0</ele><time>2026-04-25T07:19:32.937Z</time></trkpt><trkpt lat="43.9604533" lon="12.7487317"><ele>11.0</ele><time>2026-04-25T07:19:33.937Z</time></trkpt><trkpt lat="43.9604967" lon="12.7486083"><ele>11.0</ele><time>2026-04-25T07:19:34.937Z</time></trkpt><trkpt lat="43.9605433" lon="12.748485"><ele>11.0</ele><time>2026-04-25T07:19:35.936Z</time></trkpt><trkpt lat="43.9605933" lon="12.7483567"><ele>11.0</ele><time>2026-04-25T07:19:36.937Z</time></trkpt><trkpt lat="43.9606417" lon="12.7482183"><ele>11.0</ele><time>2026-04-25T07:19:37.937Z</time></trkpt><trkpt lat="43.9606867" lon="12.7480717"><ele>11.0</ele><time>2026-04-25T07:19:38.937Z</time></trkpt><trkpt lat="43.9607333" lon="12.7479283"><ele>11.0</ele><time>2026-04-25T07:19:39.937Z</time></trkpt><trkpt lat="43.9607833" lon="12.7477833"><ele>11.0</ele><time>2026-04-25T07:19:40.937Z</time></trkpt><trkpt lat="43.9608383" lon="12.74764"><ele>11.0</ele><time>2026-04-25T07:19:41.937Z</time></trkpt><trkpt lat="43.9608917" lon="12.747495"><ele>11.0</ele><time>2026-04-25T07:19:42.937Z</time></trkpt><trkpt lat="43.960945" lon="12.7473533"><ele>11.0</ele><time>2026-04-25T07:19:43.936Z</time></trkpt><trkpt lat="43.960995" lon="12.747215"><ele>11.0</ele><time>2026-04-25T07:19:44.937Z</time></trkpt><trkpt lat="43.9610433" lon="12.7470783"><ele>11.0</ele><time>2026-04-25T07:19:45.937Z</time></trkpt><trkpt lat="43.9610883" lon="12.74695"><ele>11.0</ele><time>2026-04-25T07:19:46.937Z</time></trkpt><trkpt lat="43.96114" lon="12.7468317"><ele>11.0</ele><time>2026-04-25T07:19:47.937Z</time></trkpt><trkpt lat="43.9611833" lon="12.7467133"><ele>11.0</ele><time>2026-04-25T07:19:48.937Z</time></trkpt><trkpt lat="43.9612267" lon="12.746605"><ele>11.0</ele><time>2026-04-25T07:19:49.937Z</time></trkpt><trkpt lat="43.961265" lon="12.7464883"><ele>11.0</ele><time>2026-04-25T07:19:50.937Z</time></trkpt><trkpt lat="43.9613067" lon="12.7463733"><ele>11.0</ele><time>2026-04-25T07:19:51.936Z</time></trkpt><trkpt lat="43.9613517" lon="12.7462667"><ele>11.0</ele><time>2026-04-25T07:19:52.937Z</time></trkpt><trkpt lat="43.961395" lon="12.7461617"><ele>11.0</ele><time>2026-04-25T07:19:53.936Z</time></trkpt><trkpt lat="43.9614367" lon="12.7460483"><ele>11.166666666666666</ele><time>2026-04-25T07:19:54.936Z</time></trkpt><trkpt lat="43.9614783" lon="12.74593"><ele>11.333333333333332</ele><time>2026-04-25T07:19:55.937Z</time></trkpt><trkpt lat="43.96152" lon="12.7458183"><ele>11.5</ele><time>2026-04-25T07:19:56.937Z</time></trkpt><trkpt lat="43.961555" lon="12.74571"><ele>11.666666666666666</ele><time>2026-04-25T07:19:57.937Z</time></trkpt><trkpt lat="43.9615967" lon="12.7456083"><ele>11.833333333333334</ele><time>2026-04-25T07:19:58.937Z</time></trkpt><trkpt lat="43.96164" lon="12.7455033"><ele>12.0</ele><time>2026-04-25T07:19:59.936Z</time></trkpt><trkpt lat="43.96168" lon="12.74539"><ele>11.666666666666666</ele><time>2026-04-25T07:20:00.936Z</time></trkpt><trkpt lat="43.9617167" lon="12.7452717"><ele>11.333333333333334</ele><time>2026-04-25T07:20:01.937Z</time></trkpt><trkpt lat="43.96176" lon="12.74516"><ele>11.0</ele><time>2026-04-25T07:20:02.937Z</time></trkpt><trkpt lat="43.9617967" lon="12.745045"><ele>10.666666666666668</ele><time>2026-04-25T07:20:03.937Z</time></trkpt><trkpt lat="43.96184" lon="12.7449417"><ele>10.333333333333334</ele><time>2026-04-25T07:20:04.937Z</time></trkpt><trkpt lat="43.9618867" lon="12.74485"><ele>10.0</ele><time>2026-04-25T07:20:05.936Z</time></trkpt><trkpt lat="43.9619267" lon="12.7447683"><ele>10.0</ele><time>2026-04-25T07:20:06.937Z</time></trkpt><trkpt lat="43.9619633" lon="12.7446917"><ele>10.0</ele><time>2026-04-25T07:20:07.937Z</time></trkpt><trkpt lat="43.962" lon="12.74461"><ele>10.0</ele><time>2026-04-25T07:20:08.936Z</time></trkpt><trkpt lat="43.9620333" lon="12.744515"><ele>10.0</ele><time>2026-04-25T07:20:09.937Z</time></trkpt><trkpt lat="43.9620783" lon="12.74442"><ele>10.0</ele><time>2026-04-25T07:20:10.936Z</time></trkpt><trkpt lat="43.9621267" lon="12.7443217"><ele>10.0</ele><time>2026-04-25T07:20:11.936Z</time></trkpt><trkpt lat="43.9621817" lon="12.74422"><ele>10.4</ele><time>2026-04-25T07:20:12.936Z</time></trkpt><trkpt lat="43.9622383" lon="12.7441167"><ele>10.8</ele><time>2026-04-25T07:20:13.937Z</time></trkpt><trkpt lat="43.962295" lon="12.74401"><ele>11.2</ele><time>2026-04-25T07:20:14.937Z</time></trkpt><trkpt lat="43.9623517" lon="12.7439067"><ele>11.6</ele><time>2026-04-25T07:20:15.937Z</time></trkpt><trkpt lat="43.9624017" lon="12.7438"><ele>12.0</ele><time>2026-04-25T07:20:16.936Z</time></trkpt><trkpt lat="43.96245" lon="12.7437017"><ele>12.0</ele><time>2026-04-25T07:20:17.937Z</time></trkpt><trkpt lat="43.9625017" lon="12.7436167"><ele>12.0</ele><time>2026-04-25T07:20:18.937Z</time></trkpt><trkpt lat="43.962555" lon="12.7435417"><ele>12.0</ele><time>2026-04-25T07:20:19.937Z</time></trkpt><trkpt lat="43.9625883" lon="12.7434567"><ele>12.0</ele><time>2026-04-25T07:20:20.937Z</time></trkpt><trkpt lat="43.9625933" lon="12.7433517"><ele>12.0</ele><time>2026-04-25T07:20:21.936Z</time></trkpt><trkpt lat="43.96258" lon="12.74323"><ele>12.0</ele><time>2026-04-25T07:20:22.937Z</time></trkpt><trkpt lat="43.9625933" lon="12.7431067"><ele>11.8</ele><time>2026-04-25T07:20:23.937Z</time></trkpt><trkpt lat="43.9626183" lon="12.74298"><ele>11.6</ele><time>2026-04-25T07:20:24.937Z</time></trkpt><trkpt lat="43.9626433" lon="12.7428417"><ele>11.4</ele><time>2026-04-25T07:20:25.937Z</time></trkpt><trkpt lat="43.96267" lon="12.742695"><ele>11.200000000000001</ele><time>2026-04-25T07:20:26.937Z</time></trkpt><trkpt lat="43.962695" lon="12.7425467"><ele>11.0</ele><time>2026-04-25T07:20:27.937Z</time></trkpt><trkpt lat="43.962725" lon="12.7423983"><ele>11.0</ele><time>2026-04-25T07:20:28.936Z</time></trkpt><trkpt lat="43.96275" lon="12.7422483"><ele>11.0</ele><time>2026-04-25T07:20:29.937Z</time></trkpt><trkpt lat="43.9627767" lon="12.7420933"><ele>11.0</ele><time>2026-04-25T07:20:30.937Z</time></trkpt><trkpt lat="43.9628033" lon="12.7419367"><ele>11.0</ele><time>2026-04-25T07:20:31.937Z</time></trkpt><trkpt lat="43.9628283" lon="12.7417733"><ele>10.5</ele><time>2026-04-25T07:20:32.936Z</time></trkpt><trkpt lat="43.9628517" lon="12.7416133"><ele>10.0</ele><time>2026-04-25T07:20:33.937Z</time></trkpt><trkpt lat="43.9628767" lon="12.7414567"><ele>9.5</ele><time>2026-04-25T07:20:34.936Z</time></trkpt><trkpt lat="43.9628967" lon="12.741305"><ele>9.0</ele><time>2026-04-25T07:20:35.937Z</time></trkpt><trkpt lat="43.962915" lon="12.7411483"><ele>8.25</ele><time>2026-04-25T07:20:36.937Z</time></trkpt><trkpt lat="43.96294" lon="12.740985"><ele>7.5</ele><time>2026-04-25T07:20:37.937Z</time></trkpt><trkpt lat="43.9629667" lon="12.7408183"><ele>6.75</ele><time>2026-04-25T07:20:38.937Z</time></trkpt><trkpt lat="43.9629917" lon="12.7406517"><ele>6.0</ele><time>2026-04-25T07:20:39.936Z</time></trkpt><trkpt lat="43.96302" lon="12.7404867"><ele>6.0</ele><time>2026-04-25T07:20:40.937Z</time></trkpt><trkpt lat="43.9630467" lon="12.7403183"><ele>6.0</ele><time>2026-04-25T07:20:41.937Z</time></trkpt><trkpt lat="43.96307" lon="12.7401483"><ele>6.0</ele><time>2026-04-25T07:20:42.937Z</time></trkpt><trkpt lat="43.9631" lon="12.7399833"><ele>6.0</ele><time>2026-04-25T07:20:43.937Z</time></trkpt><trkpt lat="43.9631183" lon="12.739815"><ele>6.0</ele><time>2026-04-25T07:20:44.937Z</time></trkpt><trkpt lat="43.9631383" lon="12.73965"><ele>6.0</ele><time>2026-04-25T07:20:45.937Z</time></trkpt><trkpt lat="43.9631667" lon="12.7394867"><ele>6.0</ele><time>2026-04-25T07:20:46.937Z</time></trkpt><trkpt lat="43.9631883" lon="12.739325"><ele>6.0</ele><time>2026-04-25T07:20:47.937Z</time></trkpt><trkpt lat="43.96321" lon="12.7391717"><ele>6.0</ele><time>2026-04-25T07:20:48.937Z</time></trkpt><trkpt lat="43.963235" lon="12.7390217"><ele>6.0</ele><time>2026-04-25T07:20:49.937Z</time></trkpt><trkpt lat="43.9632667" lon="12.7388833"><ele>6.0</ele><time>2026-04-25T07:20:50.937Z</time></trkpt><trkpt lat="43.963295" lon="12.7387567"><ele>6.0</ele><time>2026-04-25T07:20:51.937Z</time></trkpt><trkpt lat="43.96334" lon="12.7386583"><ele>6.0</ele><time>2026-04-25T07:20:52.937Z</time></trkpt><trkpt lat="43.9634" lon="12.738585"><ele>6.0</ele><time>2026-04-25T07:20:53.937Z</time></trkpt><trkpt lat="43.9634483" lon="12.738515"><ele>6.0</ele><time>2026-04-25T07:20:54.936Z</time></trkpt><trkpt lat="43.9634683" lon="12.7384267"><ele>6.0</ele><time>2026-04-25T07:20:55.937Z</time></trkpt><trkpt lat="43.9634667" lon="12.7383233"><ele>6.0</ele><time>2026-04-25T07:20:56.937Z</time></trkpt><trkpt lat="43.9634533" lon="12.7382033"><ele>6.0</ele><time>2026-04-25T07:20:57.937Z</time></trkpt><trkpt lat="43.9634433" lon="12.73807"><ele>6.0</ele><time>2026-04-25T07:20:58.937Z</time></trkpt><trkpt lat="43.9634383" lon="12.737925"><ele>6.0</ele><time>2026-04-25T07:20:59.937Z</time></trkpt><trkpt lat="43.963435" lon="12.7377783"><ele>6.0</ele><time>2026-04-25T07:21:00.937Z</time></trkpt><trkpt lat="43.963425" lon="12.73764"><ele>6.0</ele><time>2026-04-25T07:21:01.937Z</time></trkpt><trkpt lat="43.9633933" lon="12.7375083"><ele>6.0</ele><time>2026-04-25T07:21:02.937Z</time></trkpt><trkpt lat="43.9633433" lon="12.7373917"><ele>6.0</ele><time>2026-04-25T07:21:03.937Z</time></trkpt><trkpt lat="43.9632683" lon="12.7372917"><ele>5.8</ele><time>2026-04-25T07:21:04.937Z</time></trkpt><trkpt lat="43.96321" lon="12.73717"><ele>5.6</ele><time>2026-04-25T07:21:05.937Z</time></trkpt><trkpt lat="43.9631683" lon="12.7370317"><ele>5.4</ele><time>2026-04-25T07:21:06.937Z</time></trkpt><trkpt lat="43.963135" lon="12.73688"><ele>5.2</ele><time>2026-04-25T07:21:07.937Z</time></trkpt><trkpt lat="43.963115" lon="12.7367217"><ele>5.0</ele><time>2026-04-25T07:21:08.937Z</time></trkpt><trkpt lat="43.9631183" lon="12.7365567"><ele>4.75</ele><time>2026-04-25T07:21:09.937Z</time></trkpt><trkpt lat="43.9631333" lon="12.7363883"><ele>4.5</ele><time>2026-04-25T07:21:10.937Z</time></trkpt><trkpt lat="43.9631617" lon="12.7362217"><ele>4.25</ele><time>2026-04-25T07:21:11.937Z</time></trkpt><trkpt lat="43.9632067" lon="12.73606"><ele>4.0</ele><time>2026-04-25T07:21:12.937Z</time></trkpt><trkpt lat="43.963245" lon="12.7358983"><ele>4.0</ele><time>2026-04-25T07:21:13.937Z</time></trkpt><trkpt lat="43.9632767" lon="12.7357333"><ele>4.0</ele><time>2026-04-25T07:21:14.937Z</time></trkpt><trkpt lat="43.963305" lon="12.7355717"><ele>4.0</ele><time>2026-04-25T07:21:15.937Z</time></trkpt><trkpt lat="43.9633317" lon="12.735415"><ele>4.0</ele><time>2026-04-25T07:21:16.937Z</time></trkpt><trkpt lat="43.9633467" lon="12.73526"><ele>4.2</ele><time>2026-04-25T07:21:17.936Z</time></trkpt><trkpt lat="43.9633517" lon="12.7351067"><ele>4.4</ele><time>2026-04-25T07:21:18.937Z</time></trkpt><trkpt lat="43.963345" lon="12.7349633"><ele>4.6</ele><time>2026-04-25T07:21:19.937Z</time></trkpt><trkpt lat="43.9633317" lon="12.73483"><ele>4.8</ele><time>2026-04-25T07:21:20.937Z</time></trkpt><trkpt lat="43.9633217" lon="12.7347017"><ele>5.0</ele><time>2026-04-25T07:21:21.937Z</time></trkpt><trkpt lat="43.9633117" lon="12.734575"><ele>5.0</ele><time>2026-04-25T07:21:22.936Z</time></trkpt><trkpt lat="43.9633033" lon="12.7344583"><ele>5.0</ele><time>2026-04-25T07:21:23.937Z</time></trkpt><trkpt lat="43.9632917" lon="12.7343533"><ele>5.0</ele><time>2026-04-25T07:21:24.937Z</time></trkpt><trkpt lat="43.9633033" lon="12.73426"><ele>5.0</ele><time>2026-04-25T07:21:25.937Z</time></trkpt><trkpt lat="43.9632833" lon="12.7341083"><ele>5.0</ele><time>2026-04-25T07:21:27.937Z</time></trkpt><trkpt lat="43.9632" lon="12.7340533"><ele>5.0</ele><time>2026-04-25T07:21:29.937Z</time></trkpt><trkpt lat="43.9630717" lon="12.7340983"><ele>5.0</ele><time>2026-04-25T07:21:31.936Z</time></trkpt><trkpt lat="43.9630017" lon="12.7341083"><ele>5.0</ele><time>2026-04-25T07:21:32.936Z</time></trkpt><trkpt lat="43.962925" lon="12.7341117"><ele>5.0</ele><time>2026-04-25T07:21:33.937Z</time></trkpt><trkpt lat="43.9628483" lon="12.73409"><ele>5.0</ele><time>2026-04-25T07:21:34.937Z</time></trkpt><trkpt lat="43.9627717" lon="12.7340767"><ele>5.0</ele><time>2026-04-25T07:21:35.937Z</time></trkpt><trkpt lat="43.9626883" lon="12.734065"><ele>5.0</ele><time>2026-04-25T07:21:36.937Z</time></trkpt><trkpt lat="43.9625933" lon="12.7340583"><ele>5.6</ele><time>2026-04-25T07:21:37.936Z</time></trkpt><trkpt lat="43.9624933" lon="12.7340517"><ele>6.2</ele><time>2026-04-25T07:21:38.937Z</time></trkpt><trkpt lat="43.9623917" lon="12.734025"><ele>6.800000000000001</ele><time>2026-04-25T07:21:39.937Z</time></trkpt><trkpt lat="43.962285" lon="12.7340033"><ele>7.4</ele><time>2026-04-25T07:21:40.936Z</time></trkpt><trkpt lat="43.9621783" lon="12.7339967"><ele>8.0</ele><time>2026-04-25T07:21:41.937Z</time></trkpt><trkpt lat="43.962065" lon="12.7339933"><ele>8.0</ele><time>2026-04-25T07:21:42.937Z</time></trkpt><trkpt lat="43.9619483" lon="12.73399"><ele>8.0</ele><time>2026-04-25T07:21:43.937Z</time></trkpt><trkpt lat="43.9618317" lon="12.7339867"><ele>8.0</ele><time>2026-04-25T07:21:44.937Z</time></trkpt><trkpt lat="43.961715" lon="12.7339867"><ele>8.0</ele><time>2026-04-25T07:21:45.937Z</time></trkpt><trkpt lat="43.9616067" lon="12.7339867"><ele>8.4</ele><time>2026-04-25T07:21:46.937Z</time></trkpt><trkpt lat="43.9615" lon="12.7339683"><ele>8.8</ele><time>2026-04-25T07:21:47.937Z</time></trkpt><trkpt lat="43.9613967" lon="12.7339533"><ele>9.2</ele><time>2026-04-25T07:21:48.936Z</time></trkpt><trkpt lat="43.9612933" lon="12.7339333"><ele>9.6</ele><time>2026-04-25T07:21:49.937Z</time></trkpt><trkpt lat="43.96119" lon="12.7339217"><ele>10.0</ele><time>2026-04-25T07:21:50.937Z</time></trkpt><trkpt lat="43.9610867" lon="12.7339167"><ele>10.0</ele><time>2026-04-25T07:21:51.936Z</time></trkpt><trkpt lat="43.9609733" lon="12.7339067"><ele>10.0</ele><time>2026-04-25T07:21:52.937Z</time></trkpt><trkpt lat="43.96085" lon="12.733885"><ele>10.0</ele><time>2026-04-25T07:21:53.937Z</time></trkpt><trkpt lat="43.9607283" lon="12.7338667"><ele>10.0</ele><time>2026-04-25T07:21:54.937Z</time></trkpt><trkpt lat="43.9606017" lon="12.7338583"><ele>10.5</ele><time>2026-04-25T07:21:55.937Z</time></trkpt><trkpt lat="43.9604733" lon="12.7338433"><ele>11.0</ele><time>2026-04-25T07:21:56.936Z</time></trkpt><trkpt lat="43.9603433" lon="12.7338183"><ele>11.5</ele><time>2026-04-25T07:21:57.937Z</time></trkpt><trkpt lat="43.9602167" lon="12.7337883"><ele>12.0</ele><time>2026-04-25T07:21:58.937Z</time></trkpt><trkpt lat="43.9600933" lon="12.73375"><ele>12.0</ele><time>2026-04-25T07:21:59.937Z</time></trkpt><trkpt lat="43.9599667" lon="12.7337117"><ele>12.0</ele><time>2026-04-25T07:22:00.936Z</time></trkpt><trkpt lat="43.9598483" lon="12.7336583"><ele>12.0</ele><time>2026-04-25T07:22:01.937Z</time></trkpt><trkpt lat="43.95973" lon="12.7336117"><ele>12.0</ele><time>2026-04-25T07:22:02.937Z</time></trkpt><trkpt lat="43.9596067" lon="12.73355"><ele>12.0</ele><time>2026-04-25T07:22:03.936Z</time></trkpt><trkpt lat="43.9594883" lon="12.73348"><ele>12.0</ele><time>2026-04-25T07:22:04.936Z</time></trkpt><trkpt lat="43.959365" lon="12.733405"><ele>12.0</ele><time>2026-04-25T07:22:05.937Z</time></trkpt><trkpt lat="43.9592483" lon="12.733325"><ele>12.0</ele><time>2026-04-25T07:22:06.937Z</time></trkpt><trkpt lat="43.9591317" lon="12.733245"><ele>12.0</ele><time>2026-04-25T07:22:07.936Z</time></trkpt><trkpt lat="43.9590217" lon="12.7331617"><ele>12.0</ele><time>2026-04-25T07:22:08.937Z</time></trkpt><trkpt lat="43.9589167" lon="12.7330633"><ele>12.0</ele><time>2026-04-25T07:22:09.937Z</time></trkpt><trkpt lat="43.95881" lon="12.7329667"><ele>12.0</ele><time>2026-04-25T07:22:10.937Z</time></trkpt><trkpt lat="43.958705" lon="12.732855"><ele>12.0</ele><time>2026-04-25T07:22:11.937Z</time></trkpt><trkpt lat="43.958605" lon="12.732745"><ele>12.0</ele><time>2026-04-25T07:22:12.937Z</time></trkpt><trkpt lat="43.95851" lon="12.7326317"><ele>12.0</ele><time>2026-04-25T07:22:13.937Z</time></trkpt><trkpt lat="43.9584217" lon="12.73251"><ele>12.0</ele><time>2026-04-25T07:22:14.936Z</time></trkpt><trkpt lat="43.9583333" lon="12.73238"><ele>12.25</ele><time>2026-04-25T07:22:15.937Z</time></trkpt><trkpt lat="43.9582433" lon="12.7322533"><ele>12.5</ele><time>2026-04-25T07:22:16.937Z</time></trkpt><trkpt lat="43.9581683" lon="12.7321167"><ele>12.75</ele><time>2026-04-25T07:22:17.937Z</time></trkpt><trkpt lat="43.9580917" lon="12.731975"><ele>13.0</ele><time>2026-04-25T07:22:18.936Z</time></trkpt><trkpt lat="43.9580183" lon="12.73183"><ele>13.2</ele><time>2026-04-25T07:22:19.937Z</time></trkpt><trkpt lat="43.957955" lon="12.7316883"><ele>13.4</ele><time>2026-04-25T07:22:20.937Z</time></trkpt><trkpt lat="43.95789" lon="12.7315517"><ele>13.599999999999998</ele><time>2026-04-25T07:22:21.937Z</time></trkpt><trkpt lat="43.9578267" lon="12.7314267"><ele>13.799999999999999</ele><time>2026-04-25T07:22:22.937Z</time></trkpt><trkpt lat="43.9577683" lon="12.7313117"><ele>14.0</ele><time>2026-04-25T07:22:23.937Z</time></trkpt><trkpt lat="43.957715" lon="12.7311983"><ele>14.000000000000002</ele><time>2026-04-25T07:22:24.937Z</time></trkpt><trkpt lat="43.957665" lon="12.7310983"><ele>14.0</ele><time>2026-04-25T07:22:25.936Z</time></trkpt><trkpt lat="43.95762" lon="12.7310017"><ele>14.0</ele><time>2026-04-25T07:22:26.937Z</time></trkpt><trkpt lat="43.9575817" lon="12.7309233"><ele>14.0</ele><time>2026-04-25T07:22:27.937Z</time></trkpt><trkpt lat="43.9575567" lon="12.730835"><ele>14.000000000000002</ele><time>2026-04-25T07:22:28.937Z</time></trkpt><trkpt lat="43.957525" lon="12.73074"><ele>14.0</ele><time>2026-04-25T07:22:29.937Z</time></trkpt><trkpt lat="43.957475" lon="12.7306633"><ele>13.833333333333334</ele><time>2026-04-25T07:22:30.937Z</time></trkpt><trkpt lat="43.9574133" lon="12.7305967"><ele>13.666666666666668</ele><time>2026-04-25T07:22:31.937Z</time></trkpt><trkpt lat="43.957355" lon="12.73052"><ele>13.5</ele><time>2026-04-25T07:22:32.936Z</time></trkpt><trkpt lat="43.9573083" lon="12.7304367"><ele>13.333333333333332</ele><time>2026-04-25T07:22:33.936Z</time></trkpt><trkpt lat="43.9572683" lon="12.7303567"><ele>13.166666666666666</ele><time>2026-04-25T07:22:34.936Z</time></trkpt><trkpt lat="43.9572367" lon="12.73028"><ele>13.0</ele><time>2026-04-25T07:22:35.937Z</time></trkpt><trkpt lat="43.95722" lon="12.730155"><ele>13.4</ele><time>2026-04-25T07:22:37.937Z</time></trkpt><trkpt lat="43.957215" lon="12.73002"><ele>13.8</ele><time>2026-04-25T07:22:39.937Z</time></trkpt><trkpt lat="43.95714" lon="12.7299033"><ele>14.2</ele><time>2026-04-25T07:22:41.937Z</time></trkpt><trkpt lat="43.9570683" lon="12.7298483"><ele>14.6</ele><time>2026-04-25T07:22:42.937Z</time></trkpt><trkpt lat="43.9569967" lon="12.7297717"><ele>15.0</ele><time>2026-04-25T07:22:43.937Z</time></trkpt><trkpt lat="43.9569383" lon="12.7296633"><ele>15.0</ele><time>2026-04-25T07:22:44.936Z</time></trkpt><trkpt lat="43.9568833" lon="12.7295367"><ele>15.0</ele><time>2026-04-25T07:22:45.937Z</time></trkpt><trkpt lat="43.956825" lon="12.7294067"><ele>15.0</ele><time>2026-04-25T07:22:46.936Z</time></trkpt><trkpt lat="43.95676" lon="12.72927"><ele>15.0</ele><time>2026-04-25T07:22:47.937Z</time></trkpt><trkpt lat="43.956685" lon="12.7291333"><ele>15.5</ele><time>2026-04-25T07:22:48.937Z</time></trkpt><trkpt lat="43.9566117" lon="12.7289933"><ele>16.0</ele><time>2026-04-25T07:22:49.938Z</time></trkpt><trkpt lat="43.9565367" lon="12.7288517"><ele>16.5</ele><time>2026-04-25T07:22:50.938Z</time></trkpt><trkpt lat="43.9564567" lon="12.72872"><ele>17.0</ele><time>2026-04-25T07:22:51.938Z</time></trkpt><trkpt lat="43.9563783" lon="12.7285867"><ele>16.5</ele><time>2026-04-25T07:22:52.937Z</time></trkpt><trkpt lat="43.9562967" lon="12.7284567"><ele>16.0</ele><time>2026-04-25T07:22:53.938Z</time></trkpt><trkpt lat="43.95621" lon="12.7283367"><ele>15.5</ele><time>2026-04-25T07:22:54.937Z</time></trkpt><trkpt lat="43.9561217" lon="12.7282217"><ele>15.0</ele><time>2026-04-25T07:22:55.938Z</time></trkpt><trkpt lat="43.9560383" lon="12.7280983"><ele>15.0</ele><time>2026-04-25T07:22:56.937Z</time></trkpt><trkpt lat="43.955955" lon="12.7279717"><ele>15.0</ele><time>2026-04-25T07:22:57.938Z</time></trkpt><trkpt lat="43.95587" lon="12.7278483"><ele>15.0</ele><time>2026-04-25T07:22:58.938Z</time></trkpt><trkpt lat="43.9557817" lon="12.72773"><ele>15.0</ele><time>2026-04-25T07:22:59.938Z</time></trkpt><trkpt lat="43.955695" lon="12.7276083"><ele>15.25</ele><time>2026-04-25T07:23:00.938Z</time></trkpt><trkpt lat="43.9556067" lon="12.72749"><ele>15.5</ele><time>2026-04-25T07:23:01.938Z</time></trkpt><trkpt lat="43.955515" lon="12.7273717"><ele>15.75</ele><time>2026-04-25T07:23:02.938Z</time></trkpt><trkpt lat="43.9554217" lon="12.727255"><ele>16.0</ele><time>2026-04-25T07:23:03.938Z</time></trkpt><trkpt lat="43.9553267" lon="12.7271417"><ele>16.0</ele><time>2026-04-25T07:23:04.937Z</time></trkpt><trkpt lat="43.9552333" lon="12.72703"><ele>16.0</ele><time>2026-04-25T07:23:05.938Z</time></trkpt><trkpt lat="43.9551333" lon="12.7269233"><ele>16.0</ele><time>2026-04-25T07:23:06.937Z</time></trkpt><trkpt lat="43.9550317" lon="12.726825"><ele>16.0</ele><time>2026-04-25T07:23:07.937Z</time></trkpt><trkpt lat="43.9549267" lon="12.7267317"><ele>16.0</ele><time>2026-04-25T07:23:08.938Z</time></trkpt><trkpt lat="43.9548183" lon="12.7266483"><ele>16.0</ele><time>2026-04-25T07:23:09.937Z</time></trkpt><trkpt lat="43.95471" lon="12.72657"><ele>16.0</ele><time>2026-04-25T07:23:10.938Z</time></trkpt><trkpt lat="43.9546033" lon="12.7264933"><ele>16.0</ele><time>2026-04-25T07:23:11.938Z</time></trkpt><trkpt lat="43.9545067" lon="12.7264183"><ele>16.0</ele><time>2026-04-25T07:23:12.938Z</time></trkpt><trkpt lat="43.9544217" lon="12.7263483"><ele>16.0</ele><time>2026-04-25T07:23:13.938Z</time></trkpt><trkpt lat="43.954355" lon="12.72628"><ele>16.0</ele><time>2026-04-25T07:23:14.938Z</time></trkpt><trkpt lat="43.9543267" lon="12.7262"><ele>16.0</ele><time>2026-04-25T07:23:15.938Z</time></trkpt><trkpt lat="43.9543267" lon="12.7260633"><ele>16.0</ele><time>2026-04-25T07:23:17.938Z</time></trkpt><trkpt lat="43.9543033" lon="12.72589"><ele>15.833333333333332</ele><time>2026-04-25T07:23:19.938Z</time></trkpt><trkpt lat="43.9542633" lon="12.72581"><ele>15.666666666666666</ele><time>2026-04-25T07:23:20.938Z</time></trkpt><trkpt lat="43.9542" lon="12.7257617"><ele>15.5</ele><time>2026-04-25T07:23:21.938Z</time></trkpt><trkpt lat="43.9541283" lon="12.72574"><ele>15.333333333333332</ele><time>2026-04-25T07:23:22.938Z</time></trkpt><trkpt lat="43.9540533" lon="12.7257483"><ele>15.166666666666666</ele><time>2026-04-25T07:23:23.937Z</time></trkpt><trkpt lat="43.9539683" lon="12.7258"><ele>15.0</ele><time>2026-04-25T07:23:24.938Z</time></trkpt><trkpt lat="43.953875" lon="12.7258217"><ele>15.75</ele><time>2026-04-25T07:23:25.938Z</time></trkpt><trkpt lat="43.95377" lon="12.72581"><ele>16.5</ele><time>2026-04-25T07:23:26.937Z</time></trkpt><trkpt lat="43.9536583" lon="12.7257667"><ele>17.25</ele><time>2026-04-25T07:23:27.938Z</time></trkpt><trkpt lat="43.9535417" lon="12.72571"><ele>18.0</ele><time>2026-04-25T07:23:28.938Z</time></trkpt><trkpt lat="43.95342" lon="12.7256533"><ele>18.5</ele><time>2026-04-25T07:23:29.937Z</time></trkpt><trkpt lat="43.953295" lon="12.7256017"><ele>19.0</ele><time>2026-04-25T07:23:30.937Z</time></trkpt><trkpt lat="43.9531667" lon="12.725555"><ele>19.5</ele><time>2026-04-25T07:23:31.938Z</time></trkpt><trkpt lat="43.95304" lon="12.7255117"><ele>20.0</ele><time>2026-04-25T07:23:32.938Z</time></trkpt><trkpt lat="43.952915" lon="12.7254733"><ele>20.0</ele><time>2026-04-25T07:23:33.938Z</time></trkpt><trkpt lat="43.952795" lon="12.72543"><ele>20.0</ele><time>2026-04-25T07:23:34.937Z</time></trkpt><trkpt lat="43.9526767" lon="12.7253817"><ele>20.0</ele><time>2026-04-25T07:23:35.938Z</time></trkpt><trkpt lat="43.9525617" lon="12.7253367"><ele>20.0</ele><time>2026-04-25T07:23:36.937Z</time></trkpt><trkpt lat="43.9524533" lon="12.7252933"><ele>19.75</ele><time>2026-04-25T07:23:37.938Z</time></trkpt><trkpt lat="43.952345" lon="12.7252467"><ele>19.5</ele><time>2026-04-25T07:23:38.937Z</time></trkpt><trkpt lat="43.952235" lon="12.7251983"><ele>19.25</ele><time>2026-04-25T07:23:39.938Z</time></trkpt><trkpt lat="43.9521233" lon="12.7251617"><ele>19.0</ele><time>2026-04-25T07:23:40.937Z</time></trkpt><trkpt lat="43.9520117" lon="12.725115"><ele>18.75</ele><time>2026-04-25T07:23:41.938Z</time></trkpt><trkpt lat="43.9518983" lon="12.7250667"><ele>18.5</ele><time>2026-04-25T07:23:42.937Z</time></trkpt><trkpt lat="43.9517833" lon="12.7250233"><ele>18.25</ele><time>2026-04-25T07:23:43.938Z</time></trkpt><trkpt lat="43.9516667" lon="12.7249817"><ele>18.0</ele><time>2026-04-25T07:23:44.938Z</time></trkpt><trkpt lat="43.9515467" lon="12.72493"><ele>18.75</ele><time>2026-04-25T07:23:45.937Z</time></trkpt><trkpt lat="43.9514267" lon="12.7248767"><ele>19.5</ele><time>2026-04-25T07:23:46.938Z</time></trkpt><trkpt lat="43.951305" lon="12.7248267"><ele>20.25</ele><time>2026-04-25T07:23:47.938Z</time></trkpt><trkpt lat="43.951185" lon="12.7247767"><ele>21.0</ele><time>2026-04-25T07:23:48.937Z</time></trkpt><trkpt lat="43.9510617" lon="12.724735"><ele>21.0</ele><time>2026-04-25T07:23:49.938Z</time></trkpt><trkpt lat="43.9509467" lon="12.724695"><ele>21.0</ele><time>2026-04-25T07:23:50.938Z</time></trkpt><trkpt lat="43.950835" lon="12.7246567"><ele>21.0</ele><time>2026-04-25T07:23:51.938Z</time></trkpt><trkpt lat="43.9507333" lon="12.7246167"><ele>21.0</ele><time>2026-04-25T07:23:52.938Z</time></trkpt><trkpt lat="43.9506467" lon="12.7245817"><ele>21.0</ele><time>2026-04-25T07:23:53.938Z</time></trkpt><trkpt lat="43.950575" lon="12.7245417"><ele>20.666666666666668</ele><time>2026-04-25T07:23:54.937Z</time></trkpt><trkpt lat="43.9505167" lon="12.7244733"><ele>20.333333333333332</ele><time>2026-04-25T07:23:55.938Z</time></trkpt><trkpt lat="43.9504633" lon="12.7243833"><ele>20.0</ele><time>2026-04-25T07:23:56.938Z</time></trkpt><trkpt lat="43.9504083" lon="12.72428"><ele>19.666666666666664</ele><time>2026-04-25T07:23:57.938Z</time></trkpt><trkpt lat="43.9503367" lon="12.7242"><ele>19.333333333333332</ele><time>2026-04-25T07:23:58.938Z</time></trkpt><trkpt lat="43.9502367" lon="12.7241633"><ele>19.0</ele><time>2026-04-25T07:23:59.937Z</time></trkpt><trkpt lat="43.9501183" lon="12.724155"><ele>19.25</ele><time>2026-04-25T07:24:00.937Z</time></trkpt><trkpt lat="43.9500017" lon="12.7241117"><ele>19.5</ele><time>2026-04-25T07:24:01.938Z</time></trkpt><trkpt lat="43.9498967" lon="12.724015"><ele>19.75</ele><time>2026-04-25T07:24:02.938Z</time></trkpt><trkpt lat="43.9497933" lon="12.7238967"><ele>20.0</ele><time>2026-04-25T07:24:03.938Z</time></trkpt><trkpt lat="43.9496917" lon="12.7237683"><ele>20.0</ele><time>2026-04-25T07:24:04.938Z</time></trkpt><trkpt lat="43.94959" lon="12.7236383"><ele>20.0</ele><time>2026-04-25T07:24:05.938Z</time></trkpt><trkpt lat="43.9494867" lon="12.72351"><ele>20.0</ele><time>2026-04-25T07:24:06.938Z</time></trkpt><trkpt lat="43.9493817" lon="12.7233817"><ele>20.0</ele><time>2026-04-25T07:24:07.938Z</time></trkpt><trkpt lat="43.94928" lon="12.72325"><ele>20.5</ele><time>2026-04-25T07:24:08.938Z</time></trkpt><trkpt lat="43.9491783" lon="12.723125"><ele>21.0</ele><time>2026-04-25T07:24:09.938Z</time></trkpt><trkpt lat="43.9490767" lon="12.7230017"><ele>21.5</ele><time>2026-04-25T07:24:10.937Z</time></trkpt><trkpt lat="43.948975" lon="12.7228733"><ele>22.0</ele><time>2026-04-25T07:24:11.938Z</time></trkpt><trkpt lat="43.9488717" lon="12.7227433"><ele>21.5</ele><time>2026-04-25T07:24:12.938Z</time></trkpt><trkpt lat="43.948765" lon="12.7226117"><ele>21.0</ele><time>2026-04-25T07:24:13.938Z</time></trkpt><trkpt lat="43.9486583" lon="12.72248"><ele>20.5</ele><time>2026-04-25T07:24:14.938Z</time></trkpt><trkpt lat="43.9485533" lon="12.7223517"><ele>20.0</ele><time>2026-04-25T07:24:15.937Z</time></trkpt><trkpt lat="43.9484517" lon="12.7222283"><ele>20.25</ele><time>2026-04-25T07:24:16.938Z</time></trkpt><trkpt lat="43.94835" lon="12.722105"><ele>20.5</ele><time>2026-04-25T07:24:17.937Z</time></trkpt><trkpt lat="43.9482533" lon="12.7219817"><ele>20.75</ele><time>2026-04-25T07:24:18.937Z</time></trkpt><trkpt lat="43.9481633" lon="12.72186"><ele>21.0</ele><time>2026-04-25T07:24:19.937Z</time></trkpt><trkpt lat="43.9480817" lon="12.7217567"><ele>21.333333333333332</ele><time>2026-04-25T07:24:20.938Z</time></trkpt><trkpt lat="43.948015" lon="12.7216717"><ele>21.666666666666668</ele><time>2026-04-25T07:24:21.938Z</time></trkpt><trkpt lat="43.9479717" lon="12.7215983"><ele>22.0</ele><time>2026-04-25T07:24:22.938Z</time></trkpt><trkpt lat="43.9479233" lon="12.7214633"><ele>22.333333333333336</ele><time>2026-04-25T07:24:24.937Z</time></trkpt><trkpt lat="43.9478933" lon="12.721385"><ele>22.666666666666668</ele><time>2026-04-25T07:24:25.937Z</time></trkpt><trkpt lat="43.94786" lon="12.7213033"><ele>23.0</ele><time>2026-04-25T07:24:26.938Z</time></trkpt><trkpt lat="43.9478183" lon="12.72123"><ele>23.0</ele><time>2026-04-25T07:24:27.938Z</time></trkpt><trkpt lat="43.9477567" lon="12.7211833"><ele>23.0</ele><time>2026-04-25T07:24:28.938Z</time></trkpt><trkpt lat="43.947675" lon="12.72116"><ele>23.0</ele><time>2026-04-25T07:24:29.938Z</time></trkpt><trkpt lat="43.947585" lon="12.721125"><ele>23.0</ele><time>2026-04-25T07:24:30.938Z</time></trkpt><trkpt lat="43.9474917" lon="12.7210567"><ele>23.0</ele><time>2026-04-25T07:24:31.937Z</time></trkpt><trkpt lat="43.9473917" lon="12.72096"><ele>23.25</ele><time>2026-04-25T07:24:32.938Z</time></trkpt><trkpt lat="43.94729" lon="12.7208483"><ele>23.5</ele><time>2026-04-25T07:24:33.938Z</time></trkpt><trkpt lat="43.9471867" lon="12.720735"><ele>23.75</ele><time>2026-04-25T07:24:34.938Z</time></trkpt><trkpt lat="43.9470767" lon="12.7206333"><ele>24.0</ele><time>2026-04-25T07:24:35.938Z</time></trkpt><trkpt lat="43.9469667" lon="12.7205317"><ele>24.0</ele><time>2026-04-25T07:24:36.938Z</time></trkpt><trkpt lat="43.94686" lon="12.720425"><ele>24.0</ele><time>2026-04-25T07:24:37.937Z</time></trkpt><trkpt lat="43.9467533" lon="12.7203217"><ele>24.0</ele><time>2026-04-25T07:24:38.937Z</time></trkpt><trkpt lat="43.9466433" lon="12.7202183"><ele>24.0</ele><time>2026-04-25T07:24:39.937Z</time></trkpt><trkpt lat="43.9465333" lon="12.7201133"><ele>24.0</ele><time>2026-04-25T07:24:40.938Z</time></trkpt><trkpt lat="43.9464217" lon="12.720005"><ele>24.0</ele><time>2026-04-25T07:24:41.938Z</time></trkpt><trkpt lat="43.9463033" lon="12.7198983"><ele>24.0</ele><time>2026-04-25T07:24:42.938Z</time></trkpt><trkpt lat="43.946185" lon="12.7197917"><ele>24.0</ele><time>2026-04-25T07:24:43.938Z</time></trkpt><trkpt lat="43.946075" lon="12.719675"><ele>24.0</ele><time>2026-04-25T07:24:44.938Z</time></trkpt><trkpt lat="43.9459617" lon="12.7195567"><ele>24.0</ele><time>2026-04-25T07:24:45.937Z</time></trkpt><trkpt lat="43.945845" lon="12.7194367"><ele>24.0</ele><time>2026-04-25T07:24:46.938Z</time></trkpt><trkpt lat="43.9457317" lon="12.7193167"><ele>24.0</ele><time>2026-04-25T07:24:47.937Z</time></trkpt><trkpt lat="43.9456217" lon="12.7192033"><ele>24.5</ele><time>2026-04-25T07:24:48.938Z</time></trkpt><trkpt lat="43.9455133" lon="12.7190917"><ele>25.0</ele><time>2026-04-25T07:24:49.938Z</time></trkpt><trkpt lat="43.9454" lon="12.7189817"><ele>25.5</ele><time>2026-04-25T07:24:50.938Z</time></trkpt><trkpt lat="43.945285" lon="12.7188733"><ele>26.0</ele><time>2026-04-25T07:24:51.938Z</time></trkpt><trkpt lat="43.9451733" lon="12.7187583"><ele>26.0</ele><time>2026-04-25T07:24:52.938Z</time></trkpt><trkpt lat="43.9450583" lon="12.7186433"><ele>26.0</ele><time>2026-04-25T07:24:53.938Z</time></trkpt><trkpt lat="43.9449433" lon="12.7185333"><ele>26.0</ele><time>2026-04-25T07:24:54.938Z</time></trkpt><trkpt lat="43.9448267" lon="12.7184183"><ele>26.0</ele><time>2026-04-25T07:24:55.938Z</time></trkpt><trkpt lat="43.944715" lon="12.7182917"><ele>25.75</ele><time>2026-04-25T07:24:56.938Z</time></trkpt><trkpt lat="43.9446133" lon="12.7181567"><ele>25.5</ele><time>2026-04-25T07:24:57.938Z</time></trkpt><trkpt lat="43.94452" lon="12.718015"><ele>25.25</ele><time>2026-04-25T07:24:58.938Z</time></trkpt><trkpt lat="43.94444" lon="12.7178633"><ele>25.0</ele><time>2026-04-25T07:24:59.937Z</time></trkpt><trkpt lat="43.9443617" lon="12.7177117"><ele>25.0</ele><time>2026-04-25T07:25:00.937Z</time></trkpt><trkpt lat="43.9442933" lon="12.7175517"><ele>25.0</ele><time>2026-04-25T07:25:01.938Z</time></trkpt><trkpt lat="43.944235" lon="12.7173833"><ele>25.0</ele><time>2026-04-25T07:25:02.937Z</time></trkpt><trkpt lat="43.9441817" lon="12.7172017"><ele>25.0</ele><time>2026-04-25T07:25:03.938Z</time></trkpt><trkpt lat="43.94413" lon="12.7170133"><ele>24.75</ele><time>2026-04-25T07:25:04.938Z</time></trkpt><trkpt lat="43.94409" lon="12.7168183"><ele>24.5</ele><time>2026-04-25T07:25:05.938Z</time></trkpt><trkpt lat="43.9440617" lon="12.7166233"><ele>24.25</ele><time>2026-04-25T07:25:06.938Z</time></trkpt><trkpt lat="43.94405" lon="12.716425"><ele>24.0</ele><time>2026-04-25T07:25:07.937Z</time></trkpt><trkpt lat="43.94405" lon="12.71622"><ele>24.333333333333336</ele><time>2026-04-25T07:25:08.938Z</time></trkpt><trkpt lat="43.9440517" lon="12.7160117"><ele>24.666666666666668</ele><time>2026-04-25T07:25:09.938Z</time></trkpt><trkpt lat="43.9440533" lon="12.7158033"><ele>25.0</ele><time>2026-04-25T07:25:10.937Z</time></trkpt><trkpt lat="43.944055" lon="12.7155933"><ele>25.0</ele><time>2026-04-25T07:25:11.938Z</time></trkpt><trkpt lat="43.944055" lon="12.7153817"><ele>25.0</ele><time>2026-04-25T07:25:12.937Z</time></trkpt><trkpt lat="43.9440583" lon="12.7151683"><ele>25.0</ele><time>2026-04-25T07:25:13.938Z</time></trkpt><trkpt lat="43.9440583" lon="12.7149533"><ele>25.0</ele><time>2026-04-25T07:25:14.937Z</time></trkpt><trkpt lat="43.944065" lon="12.714735"><ele>25.0</ele><time>2026-04-25T07:25:15.938Z</time></trkpt><trkpt lat="43.944065" lon="12.714515"><ele>25.0</ele><time>2026-04-25T07:25:16.938Z</time></trkpt><trkpt lat="43.9440667" lon="12.7142933"><ele>24.666666666666668</ele><time>2026-04-25T07:25:17.938Z</time></trkpt><trkpt lat="43.9440617" lon="12.7140717"><ele>24.333333333333336</ele><time>2026-04-25T07:25:18.938Z</time></trkpt><trkpt lat="43.944045" lon="12.7138483"><ele>24.0</ele><time>2026-04-25T07:25:19.938Z</time></trkpt><trkpt lat="43.94403" lon="12.7136283"><ele>24.333333333333336</ele><time>2026-04-25T07:25:20.938Z</time></trkpt><trkpt lat="43.9440083" lon="12.7134067"><ele>24.666666666666668</ele><time>2026-04-25T07:25:21.938Z</time></trkpt><trkpt lat="43.9439833" lon="12.7131833"><ele>25.0</ele><time>2026-04-25T07:25:22.938Z</time></trkpt><trkpt lat="43.943955" lon="12.71296"><ele>25.333333333333336</ele><time>2026-04-25T07:25:23.938Z</time></trkpt><trkpt lat="43.9439217" lon="12.7127383"><ele>25.666666666666664</ele><time>2026-04-25T07:25:24.938Z</time></trkpt><trkpt lat="43.943885" lon="12.7125167"><ele>26.0</ele><time>2026-04-25T07:25:25.938Z</time></trkpt><trkpt lat="43.9438417" lon="12.7122967"><ele>26.0</ele><time>2026-04-25T07:25:26.937Z</time></trkpt><trkpt lat="43.9437983" lon="12.7120767"><ele>26.0</ele><time>2026-04-25T07:25:27.938Z</time></trkpt><trkpt lat="43.9437517" lon="12.7118617"><ele>26.0</ele><time>2026-04-25T07:25:28.938Z</time></trkpt><trkpt lat="43.9437" lon="12.7116533"><ele>25.666666666666664</ele><time>2026-04-25T07:25:29.938Z</time></trkpt><trkpt lat="43.9436433" lon="12.711445"><ele>25.333333333333336</ele><time>2026-04-25T07:25:30.937Z</time></trkpt><trkpt lat="43.9435767" lon="12.7112433"><ele>25.0</ele><time>2026-04-25T07:25:31.938Z</time></trkpt><trkpt lat="43.9435133" lon="12.7110417"><ele>24.666666666666668</ele><time>2026-04-25T07:25:32.938Z</time></trkpt><trkpt lat="43.9434483" lon="12.71084"><ele>24.333333333333336</ele><time>2026-04-25T07:25:33.938Z</time></trkpt><trkpt lat="43.943375" lon="12.7106433"><ele>24.0</ele><time>2026-04-25T07:25:34.938Z</time></trkpt><trkpt lat="43.943295" lon="12.7104467"><ele>24.0</ele><time>2026-04-25T07:25:35.937Z</time></trkpt><trkpt lat="43.9432183" lon="12.7102467"><ele>24.0</ele><time>2026-04-25T07:25:36.938Z</time></trkpt><trkpt lat="43.9431417" lon="12.7100483"><ele>24.0</ele><time>2026-04-25T07:25:37.938Z</time></trkpt><trkpt lat="43.943065" lon="12.709855"><ele>24.666666666666664</ele><time>2026-04-25T07:25:38.938Z</time></trkpt><trkpt lat="43.94299" lon="12.7096617"><ele>25.333333333333332</ele><time>2026-04-25T07:25:39.938Z</time></trkpt><trkpt lat="43.9429133" lon="12.7094717"><ele>26.0</ele><time>2026-04-25T07:25:40.938Z</time></trkpt><trkpt lat="43.9428367" lon="12.7092817"><ele>26.333333333333332</ele><time>2026-04-25T07:25:41.937Z</time></trkpt><trkpt lat="43.942765" lon="12.7090933"><ele>26.666666666666664</ele><time>2026-04-25T07:25:42.938Z</time></trkpt><trkpt lat="43.942695" lon="12.708905"><ele>27.0</ele><time>2026-04-25T07:25:43.937Z</time></trkpt><trkpt lat="43.9426233" lon="12.7087167"><ele>27.333333333333336</ele><time>2026-04-25T07:25:44.937Z</time></trkpt><trkpt lat="43.9425483" lon="12.7085333"><ele>27.666666666666668</ele><time>2026-04-25T07:25:45.937Z</time></trkpt><trkpt lat="43.9424717" lon="12.7083517"><ele>28.0</ele><time>2026-04-25T07:25:46.937Z</time></trkpt><trkpt lat="43.942395" lon="12.7081683"><ele>28.0</ele><time>2026-04-25T07:25:47.937Z</time></trkpt><trkpt lat="43.942325" lon="12.7079817"><ele>28.0</ele><time>2026-04-25T07:25:48.936Z</time></trkpt><trkpt lat="43.9422517" lon="12.7077917"><ele>28.0</ele><time>2026-04-25T07:25:49.936Z</time></trkpt><trkpt lat="43.9421767" lon="12.7076017"><ele>28.333333333333336</ele><time>2026-04-25T07:25:50.937Z</time></trkpt><trkpt lat="43.9421" lon="12.70741"><ele>28.666666666666664</ele><time>2026-04-25T07:25:51.936Z</time></trkpt><trkpt lat="43.9420183" lon="12.7072217"><ele>29.0</ele><time>2026-04-25T07:25:52.937Z</time></trkpt><trkpt lat="43.94194" lon="12.70703"><ele>29.0</ele><time>2026-04-25T07:25:53.937Z</time></trkpt><trkpt lat="43.9418617" lon="12.7068417"><ele>29.0</ele><time>2026-04-25T07:25:54.937Z</time></trkpt><trkpt lat="43.9417883" lon="12.706645"><ele>29.0</ele><time>2026-04-25T07:25:55.937Z</time></trkpt><trkpt lat="43.9417117" lon="12.7064517"><ele>28.666666666666664</ele><time>2026-04-25T07:25:56.937Z</time></trkpt><trkpt lat="43.9416317" lon="12.70626"><ele>28.333333333333336</ele><time>2026-04-25T07:25:57.936Z</time></trkpt><trkpt lat="43.9415583" lon="12.7060667"><ele>28.0</ele><time>2026-04-25T07:25:58.936Z</time></trkpt><trkpt lat="43.9414833" lon="12.7058767"><ele>28.0</ele><time>2026-04-25T07:25:59.937Z</time></trkpt><trkpt lat="43.9414083" lon="12.705695"><ele>28.0</ele><time>2026-04-25T07:26:00.937Z</time></trkpt><trkpt lat="43.9413367" lon="12.7055083"><ele>28.0</ele><time>2026-04-25T07:26:01.936Z</time></trkpt><trkpt lat="43.9412667" lon="12.7053233"><ele>28.5</ele><time>2026-04-25T07:26:02.937Z</time></trkpt><trkpt lat="43.9411917" lon="12.7051417"><ele>29.0</ele><time>2026-04-25T07:26:03.937Z</time></trkpt><trkpt lat="43.94112" lon="12.70496"><ele>29.5</ele><time>2026-04-25T07:26:04.936Z</time></trkpt><trkpt lat="43.9410517" lon="12.7047783"><ele>30.0</ele><time>2026-04-25T07:26:05.936Z</time></trkpt><trkpt lat="43.9409867" lon="12.704595"><ele>30.0</ele><time>2026-04-25T07:26:06.937Z</time></trkpt><trkpt lat="43.9409183" lon="12.7044167"><ele>30.0</ele><time>2026-04-25T07:26:07.937Z</time></trkpt><trkpt lat="43.940845" lon="12.70424"><ele>30.0</ele><time>2026-04-25T07:26:08.937Z</time></trkpt><trkpt lat="43.94077" lon="12.7040667"><ele>30.0</ele><time>2026-04-25T07:26:09.937Z</time></trkpt><trkpt lat="43.9406967" lon="12.70389"><ele>30.75</ele><time>2026-04-25T07:26:10.937Z</time></trkpt><trkpt lat="43.9406317" lon="12.70371"><ele>31.5</ele><time>2026-04-25T07:26:11.937Z</time></trkpt><trkpt lat="43.9405733" lon="12.703525"><ele>32.25</ele><time>2026-04-25T07:26:12.937Z</time></trkpt><trkpt lat="43.94053" lon="12.7033333"><ele>33.0</ele><time>2026-04-25T07:26:13.937Z</time></trkpt><trkpt lat="43.9404967" lon="12.7031383"><ele>33.0</ele><time>2026-04-25T07:26:14.937Z</time></trkpt><trkpt lat="43.9404617" lon="12.702945"><ele>33.0</ele><time>2026-04-25T07:26:15.937Z</time></trkpt><trkpt lat="43.94043" lon="12.702755"><ele>33.0</ele><time>2026-04-25T07:26:16.937Z</time></trkpt><trkpt lat="43.9404017" lon="12.7025683"><ele>33.0</ele><time>2026-04-25T07:26:17.937Z</time></trkpt><trkpt lat="43.9403767" lon="12.7023883"><ele>33.0</ele><time>2026-04-25T07:26:18.937Z</time></trkpt><trkpt lat="43.9403367" lon="12.7022267"><ele>33.0</ele><time>2026-04-25T07:26:19.937Z</time></trkpt><trkpt lat="43.940285" lon="12.7020817"><ele>33.0</ele><time>2026-04-25T07:26:20.937Z</time></trkpt><trkpt lat="43.9402017" lon="12.7019717"><ele>33.0</ele><time>2026-04-25T07:26:21.937Z</time></trkpt><trkpt lat="43.9401083" lon="12.7018917"><ele>33.199999999999996</ele><time>2026-04-25T07:26:22.937Z</time></trkpt><trkpt lat="43.94001" lon="12.7018483"><ele>33.4</ele><time>2026-04-25T07:26:23.937Z</time></trkpt><trkpt lat="43.939915" lon="12.7018633"><ele>33.599999999999994</ele><time>2026-04-25T07:26:24.936Z</time></trkpt><trkpt lat="43.9398317" lon="12.701935"><ele>33.8</ele><time>2026-04-25T07:26:25.937Z</time></trkpt><trkpt lat="43.9397717" lon="12.7020433"><ele>34.0</ele><time>2026-04-25T07:26:26.937Z</time></trkpt><trkpt lat="43.9397317" lon="12.7021817"><ele>34.0</ele><time>2026-04-25T07:26:27.936Z</time></trkpt><trkpt lat="43.9397067" lon="12.7023417"><ele>34.0</ele><time>2026-04-25T07:26:28.937Z</time></trkpt><trkpt lat="43.9396683" lon="12.7025"><ele>34.0</ele><time>2026-04-25T07:26:29.937Z</time></trkpt><trkpt lat="43.9395983" lon="12.702635"><ele>34.0</ele><time>2026-04-25T07:26:30.937Z</time></trkpt><trkpt lat="43.9395017" lon="12.7027467"><ele>33.75</ele><time>2026-04-25T07:26:31.937Z</time></trkpt><trkpt lat="43.9393967" lon="12.7028383"><ele>33.5</ele><time>2026-04-25T07:26:32.937Z</time></trkpt><trkpt lat="43.939285" lon="12.7029217"><ele>33.25</ele><time>2026-04-25T07:26:33.937Z</time></trkpt><trkpt lat="43.9391717" lon="12.7030067"><ele>33.0</ele><time>2026-04-25T07:26:34.937Z</time></trkpt><trkpt lat="43.939055" lon="12.7030967"><ele>32.75</ele><time>2026-04-25T07:26:35.937Z</time></trkpt><trkpt lat="43.9389367" lon="12.7031933"><ele>32.5</ele><time>2026-04-25T07:26:36.936Z</time></trkpt><trkpt lat="43.93882" lon="12.7032967"><ele>32.25</ele><time>2026-04-25T07:26:37.937Z</time></trkpt><trkpt lat="43.9387033" lon="12.7034"><ele>32.0</ele><time>2026-04-25T07:26:38.937Z</time></trkpt><trkpt lat="43.9385867" lon="12.7034983"><ele>32.25</ele><time>2026-04-25T07:26:39.936Z</time></trkpt><trkpt lat="43.9384767" lon="12.70359"><ele>32.5</ele><time>2026-04-25T07:26:40.937Z</time></trkpt><trkpt lat="43.938375" lon="12.7036833"><ele>32.75</ele><time>2026-04-25T07:26:41.936Z</time></trkpt><trkpt lat="43.9382733" lon="12.703765"><ele>33.0</ele><time>2026-04-25T07:26:42.937Z</time></trkpt><trkpt lat="43.938175" lon="12.7038267"><ele>33.166666666666664</ele><time>2026-04-25T07:26:43.937Z</time></trkpt><trkpt lat="43.93809" lon="12.7038783"><ele>33.333333333333336</ele><time>2026-04-25T07:26:44.937Z</time></trkpt><trkpt lat="43.9380167" lon="12.7039283"><ele>33.5</ele><time>2026-04-25T07:26:45.936Z</time></trkpt><trkpt lat="43.9379533" lon="12.7039767"><ele>33.66666666666667</ele><time>2026-04-25T07:26:46.936Z</time></trkpt><trkpt lat="43.9378967" lon="12.70404"><ele>33.833333333333336</ele><time>2026-04-25T07:26:47.936Z</time></trkpt><trkpt lat="43.9378533" lon="12.7041067"><ele>34.0</ele><time>2026-04-25T07:26:48.937Z</time></trkpt><trkpt lat="43.93778" lon="12.7042283"><ele>34.0</ele><time>2026-04-25T07:26:50.937Z</time></trkpt><trkpt lat="43.93768" lon="12.7043117"><ele>34.0</ele><time>2026-04-25T07:26:52.937Z</time></trkpt><trkpt lat="43.9376183" lon="12.7042867"><ele>34.0</ele><time>2026-04-25T07:26:53.937Z</time></trkpt><trkpt lat="43.9375267" lon="12.7041867"><ele>34.0</ele><time>2026-04-25T07:26:55.937Z</time></trkpt><trkpt lat="43.9374567" lon="12.7040417"><ele>34.0</ele><time>2026-04-25T07:26:57.936Z</time></trkpt><trkpt lat="43.93739" lon="12.70395"><ele>34.0</ele><time>2026-04-25T07:26:58.937Z</time></trkpt><trkpt lat="43.937305" lon="12.7038567"><ele>34.0</ele><time>2026-04-25T07:26:59.937Z</time></trkpt><trkpt lat="43.9372117" lon="12.703765"><ele>34.0</ele><time>2026-04-25T07:27:00.937Z</time></trkpt><trkpt lat="43.93713" lon="12.7036533"><ele>34.0</ele><time>2026-04-25T07:27:01.936Z</time></trkpt><trkpt lat="43.9370517" lon="12.7035267"><ele>34.0</ele><time>2026-04-25T07:27:02.937Z</time></trkpt><trkpt lat="43.9369683" lon="12.7033967"><ele>34.0</ele><time>2026-04-25T07:27:03.937Z</time></trkpt><trkpt lat="43.9368867" lon="12.70327"><ele>34.0</ele><time>2026-04-25T07:27:04.936Z</time></trkpt><trkpt lat="43.9368117" lon="12.7031483"><ele>34.0</ele><time>2026-04-25T07:27:05.937Z</time></trkpt><trkpt lat="43.936735" lon="12.7030317"><ele>34.2</ele><time>2026-04-25T07:27:06.937Z</time></trkpt><trkpt lat="43.93666" lon="12.7029167"><ele>34.4</ele><time>2026-04-25T07:27:07.937Z</time></trkpt><trkpt lat="43.936585" lon="12.7028067"><ele>34.6</ele><time>2026-04-25T07:27:08.937Z</time></trkpt><trkpt lat="43.936515" lon="12.7027033"><ele>34.8</ele><time>2026-04-25T07:27:09.937Z</time></trkpt><trkpt lat="43.9364483" lon="12.7026083"><ele>35.0</ele><time>2026-04-25T07:27:10.936Z</time></trkpt><trkpt lat="43.9363833" lon="12.7025233"><ele>35.33333333333333</ele><time>2026-04-25T07:27:11.937Z</time></trkpt><trkpt lat="43.93632" lon="12.7024483"><ele>35.666666666666664</ele><time>2026-04-25T07:27:12.937Z</time></trkpt><trkpt lat="43.9362583" lon="12.7023767"><ele>36.0</ele><time>2026-04-25T07:27:13.937Z</time></trkpt><trkpt lat="43.9362083" lon="12.7022967"><ele>36.333333333333336</ele><time>2026-04-25T07:27:14.936Z</time></trkpt><trkpt lat="43.93616" lon="12.7022083"><ele>36.66666666666667</ele><time>2026-04-25T07:27:15.936Z</time></trkpt><trkpt lat="43.9361033" lon="12.7021217"><ele>37.0</ele><time>2026-04-25T07:27:16.937Z</time></trkpt><trkpt lat="43.93604" lon="12.7020267"><ele>37.0</ele><time>2026-04-25T07:27:17.937Z</time></trkpt><trkpt lat="43.9359783" lon="12.70192"><ele>37.0</ele><time>2026-04-25T07:27:18.937Z</time></trkpt><trkpt lat="43.9359183" lon="12.7018"><ele>37.0</ele><time>2026-04-25T07:27:19.937Z</time></trkpt><trkpt lat="43.9358617" lon="12.7016667"><ele>37.0</ele><time>2026-04-25T07:27:20.937Z</time></trkpt><trkpt lat="43.93581" lon="12.7015217"><ele>37.0</ele><time>2026-04-25T07:27:21.937Z</time></trkpt><trkpt lat="43.93577" lon="12.7013683"><ele>36.75</ele><time>2026-04-25T07:27:22.936Z</time></trkpt><trkpt lat="43.93574" lon="12.7012083"><ele>36.5</ele><time>2026-04-25T07:27:23.937Z</time></trkpt><trkpt lat="43.9357133" lon="12.7010433"><ele>36.25</ele><time>2026-04-25T07:27:24.937Z</time></trkpt><trkpt lat="43.9356883" lon="12.700875"><ele>36.0</ele><time>2026-04-25T07:27:25.937Z</time></trkpt><trkpt lat="43.9356617" lon="12.700705"><ele>36.25</ele><time>2026-04-25T07:27:26.937Z</time></trkpt><trkpt lat="43.9356333" lon="12.7005383"><ele>36.5</ele><time>2026-04-25T07:27:27.936Z</time></trkpt><trkpt lat="43.9356" lon="12.7003733"><ele>36.75</ele><time>2026-04-25T07:27:28.937Z</time></trkpt><trkpt lat="43.9355633" lon="12.7002117"><ele>37.0</ele><time>2026-04-25T07:27:29.937Z</time></trkpt><trkpt lat="43.9355167" lon="12.700055"><ele>37.0</ele><time>2026-04-25T07:27:30.937Z</time></trkpt><trkpt lat="43.9354633" lon="12.6999"><ele>37.0</ele><time>2026-04-25T07:27:31.937Z</time></trkpt><trkpt lat="43.935405" lon="12.69975"><ele>37.0</ele><time>2026-04-25T07:27:32.937Z</time></trkpt><trkpt lat="43.93534" lon="12.699605"><ele>37.0</ele><time>2026-04-25T07:27:33.937Z</time></trkpt><trkpt lat="43.9352783" lon="12.6994617"><ele>37.25</ele><time>2026-04-25T07:27:34.936Z</time></trkpt><trkpt lat="43.93521" lon="12.699325"><ele>37.5</ele><time>2026-04-25T07:27:35.937Z</time></trkpt><trkpt lat="43.9351383" lon="12.6991933"><ele>37.75</ele><time>2026-04-25T07:27:36.937Z</time></trkpt><trkpt lat="43.9350617" lon="12.6990717"><ele>38.0</ele><time>2026-04-25T07:27:37.937Z</time></trkpt><trkpt lat="43.9349833" lon="12.6989533"><ele>38.0</ele><time>2026-04-25T07:27:38.937Z</time></trkpt><trkpt lat="43.9349033" lon="12.69884"><ele>38.0</ele><time>2026-04-25T07:27:39.937Z</time></trkpt><trkpt lat="43.93482" lon="12.69874"><ele>38.0</ele><time>2026-04-25T07:27:40.937Z</time></trkpt><trkpt lat="43.9347367" lon="12.6986417"><ele>38.0</ele><time>2026-04-25T07:27:41.936Z</time></trkpt><trkpt lat="43.9346533" lon="12.698545"><ele>38.0</ele><time>2026-04-25T07:27:42.937Z</time></trkpt><trkpt lat="43.9345717" lon="12.6984533"><ele>38.0</ele><time>2026-04-25T07:27:43.937Z</time></trkpt><trkpt lat="43.93449" lon="12.69837"><ele>38.0</ele><time>2026-04-25T07:27:44.937Z</time></trkpt><trkpt lat="43.9344133" lon="12.6982967"><ele>38.0</ele><time>2026-04-25T07:27:45.937Z</time></trkpt><trkpt lat="43.9343433" lon="12.6982133"><ele>38.0</ele><time>2026-04-25T07:27:46.937Z</time></trkpt><trkpt lat="43.9342783" lon="12.6981183"><ele>38.0</ele><time>2026-04-25T07:27:47.937Z</time></trkpt><trkpt lat="43.9342133" lon="12.698015"><ele>38.0</ele><time>2026-04-25T07:27:48.937Z</time></trkpt><trkpt lat="43.9341333" lon="12.69792"><ele>38.0</ele><time>2026-04-25T07:27:49.937Z</time></trkpt><trkpt lat="43.93404" lon="12.6978283"><ele>38.0</ele><time>2026-04-25T07:27:50.937Z</time></trkpt><trkpt lat="43.933955" lon="12.6977167"><ele>38.0</ele><time>2026-04-25T07:27:51.937Z</time></trkpt><trkpt lat="43.9338767" lon="12.6975883"><ele>38.0</ele><time>2026-04-25T07:27:52.937Z</time></trkpt><trkpt lat="43.9337917" lon="12.69747"><ele>38.0</ele><time>2026-04-25T07:27:53.937Z</time></trkpt><trkpt lat="43.9337033" lon="12.697355"><ele>38.0</ele><time>2026-04-25T07:27:54.937Z</time></trkpt><trkpt lat="43.9336167" lon="12.6972383"><ele>38.0</ele><time>2026-04-25T07:27:55.936Z</time></trkpt><trkpt lat="43.9335267" lon="12.6971267"><ele>38.0</ele><time>2026-04-25T07:27:56.937Z</time></trkpt><trkpt lat="43.9334333" lon="12.6970217"><ele>38.0</ele><time>2026-04-25T07:27:57.937Z</time></trkpt><trkpt lat="43.9333417" lon="12.6969167"><ele>38.0</ele><time>2026-04-25T07:27:58.936Z</time></trkpt><trkpt lat="43.9332483" lon="12.6968117"><ele>38.0</ele><time>2026-04-25T07:27:59.936Z</time></trkpt><trkpt lat="43.9331567" lon="12.6966967"><ele>38.5</ele><time>2026-04-25T07:28:00.937Z</time></trkpt><trkpt lat="43.9330617" lon="12.69658"><ele>39.0</ele><time>2026-04-25T07:28:01.937Z</time></trkpt><trkpt lat="43.9329633" lon="12.6964583"><ele>39.5</ele><time>2026-04-25T07:28:02.937Z</time></trkpt><trkpt lat="43.9328683" lon="12.6963283"><ele>40.0</ele><time>2026-04-25T07:28:03.937Z</time></trkpt><trkpt lat="43.9327733" lon="12.69619"><ele>40.0</ele><time>2026-04-25T07:28:04.937Z</time></trkpt><trkpt lat="43.93268" lon="12.6960467"><ele>40.0</ele><time>2026-04-25T07:28:05.936Z</time></trkpt><trkpt lat="43.9325883" lon="12.6959"><ele>40.0</ele><time>2026-04-25T07:28:06.937Z</time></trkpt><trkpt lat="43.9325" lon="12.6957517"><ele>40.0</ele><time>2026-04-25T07:28:07.937Z</time></trkpt><trkpt lat="43.9324117" lon="12.6956"><ele>40.0</ele><time>2026-04-25T07:28:08.936Z</time></trkpt><trkpt lat="43.9323233" lon="12.69545"><ele>40.0</ele><time>2026-04-25T07:28:09.936Z</time></trkpt><trkpt lat="43.9322367" lon="12.695295"><ele>40.0</ele><time>2026-04-25T07:28:10.937Z</time></trkpt><trkpt lat="43.9321483" lon="12.6951417"><ele>40.0</ele><time>2026-04-25T07:28:11.937Z</time></trkpt><trkpt lat="43.9320583" lon="12.6949867"><ele>40.25</ele><time>2026-04-25T07:28:12.937Z</time></trkpt><trkpt lat="43.93197" lon="12.6948333"><ele>40.5</ele><time>2026-04-25T07:28:13.936Z</time></trkpt><trkpt lat="43.9318833" lon="12.6946817"><ele>40.75</ele><time>2026-04-25T07:28:14.937Z</time></trkpt><trkpt lat="43.9317983" lon="12.6945333"><ele>41.0</ele><time>2026-04-25T07:28:15.937Z</time></trkpt><trkpt lat="43.9317133" lon="12.6943817"><ele>41.25</ele><time>2026-04-25T07:28:16.936Z</time></trkpt><trkpt lat="43.93163" lon="12.694235"><ele>41.5</ele><time>2026-04-25T07:28:17.937Z</time></trkpt><trkpt lat="43.93155" lon="12.6940867"><ele>41.75</ele><time>2026-04-25T07:28:18.937Z</time></trkpt><trkpt lat="43.9314667" lon="12.6939467"><ele>42.0</ele><time>2026-04-25T07:28:19.937Z</time></trkpt><trkpt lat="43.9313867" lon="12.69381"><ele>42.0</ele><time>2026-04-25T07:28:20.937Z</time></trkpt><trkpt lat="43.9313033" lon="12.693675"><ele>42.0</ele><time>2026-04-25T07:28:21.937Z</time></trkpt><trkpt lat="43.9312267" lon="12.6935367"><ele>42.0</ele><time>2026-04-25T07:28:22.937Z</time></trkpt><trkpt lat="43.9311467" lon="12.6933967"><ele>42.0</ele><time>2026-04-25T07:28:23.937Z</time></trkpt><trkpt lat="43.9310617" lon="12.6932583"><ele>42.0</ele><time>2026-04-25T07:28:24.937Z</time></trkpt><trkpt lat="43.9309733" lon="12.6931133"><ele>42.0</ele><time>2026-04-25T07:28:25.937Z</time></trkpt><trkpt lat="43.9308867" lon="12.6929633"><ele>42.0</ele><time>2026-04-25T07:28:26.937Z</time></trkpt><trkpt lat="43.930795" lon="12.692815"><ele>42.0</ele><time>2026-04-25T07:28:27.937Z</time></trkpt><trkpt lat="43.9307033" lon="12.6926683"><ele>42.0</ele><time>2026-04-25T07:28:28.936Z</time></trkpt><trkpt lat="43.9306133" lon="12.6925167"><ele>42.0</ele><time>2026-04-25T07:28:29.937Z</time></trkpt><trkpt lat="43.93053" lon="12.692365"><ele>42.0</ele><time>2026-04-25T07:28:30.937Z</time></trkpt><trkpt lat="43.93045" lon="12.6922167"><ele>42.0</ele><time>2026-04-25T07:28:31.936Z</time></trkpt><trkpt lat="43.9303633" lon="12.6920717"><ele>42.25</ele><time>2026-04-25T07:28:32.937Z</time></trkpt><trkpt lat="43.9302783" lon="12.69192"><ele>42.5</ele><time>2026-04-25T07:28:33.937Z</time></trkpt><trkpt lat="43.9301933" lon="12.6917717"><ele>42.75</ele><time>2026-04-25T07:28:34.937Z</time></trkpt><trkpt lat="43.93011" lon="12.691625"><ele>43.0</ele><time>2026-04-25T07:28:35.936Z</time></trkpt><trkpt lat="43.93003" lon="12.6914817"><ele>43.2</ele><time>2026-04-25T07:28:36.937Z</time></trkpt><trkpt lat="43.92995" lon="12.6913517"><ele>43.4</ele><time>2026-04-25T07:28:37.937Z</time></trkpt><trkpt lat="43.9298767" lon="12.6912283"><ele>43.6</ele><time>2026-04-25T07:28:38.937Z</time></trkpt><trkpt lat="43.929815" lon="12.6911167"><ele>43.800000000000004</ele><time>2026-04-25T07:28:39.937Z</time></trkpt><trkpt lat="43.92976" lon="12.69102"><ele>44.0</ele><time>2026-04-25T07:28:40.937Z</time></trkpt><trkpt lat="43.9297167" lon="12.690925"><ele>44.0</ele><time>2026-04-25T07:28:41.937Z</time></trkpt><trkpt lat="43.9296833" lon="12.6908317"><ele>44.0</ele><time>2026-04-25T07:28:42.937Z</time></trkpt><trkpt lat="43.9296733" lon="12.6907283"><ele>44.0</ele><time>2026-04-25T07:28:43.937Z</time></trkpt><trkpt lat="43.92967" lon="12.6906267"><ele>44.0</ele><time>2026-04-25T07:28:44.937Z</time></trkpt><trkpt lat="43.9296533" lon="12.6905333"><ele>44.0</ele><time>2026-04-25T07:28:45.937Z</time></trkpt><trkpt lat="43.9295983" lon="12.6904683"><ele>44.0</ele><time>2026-04-25T07:28:46.937Z</time></trkpt><trkpt lat="43.9295217" lon="12.6904217"><ele>44.0</ele><time>2026-04-25T07:28:47.937Z</time></trkpt><trkpt lat="43.9294417" lon="12.6903683"><ele>44.0</ele><time>2026-04-25T07:28:48.937Z</time></trkpt><trkpt lat="43.9293717" lon="12.6902867"><ele>44.0</ele><time>2026-04-25T07:28:49.937Z</time></trkpt><trkpt lat="43.92931" lon="12.6901783"><ele>44.0</ele><time>2026-04-25T07:28:50.938Z</time></trkpt><trkpt lat="43.92924" lon="12.6900633"><ele>44.0</ele><time>2026-04-25T07:28:51.938Z</time></trkpt><trkpt lat="43.9291633" lon="12.689945"><ele>44.0</ele><time>2026-04-25T07:28:52.938Z</time></trkpt><trkpt lat="43.92908" lon="12.6898217"><ele>44.5</ele><time>2026-04-25T07:28:53.938Z</time></trkpt><trkpt lat="43.92899" lon="12.6897033"><ele>45.0</ele><time>2026-04-25T07:28:54.938Z</time></trkpt><trkpt lat="43.92889" lon="12.6895883"><ele>45.5</ele><time>2026-04-25T07:28:55.938Z</time></trkpt><trkpt lat="43.9287883" lon="12.6894717"><ele>46.0</ele><time>2026-04-25T07:28:56.937Z</time></trkpt><trkpt lat="43.9286833" lon="12.6893533"><ele>46.0</ele><time>2026-04-25T07:28:57.938Z</time></trkpt><trkpt lat="43.9285767" lon="12.6892367"><ele>46.0</ele><time>2026-04-25T07:28:58.938Z</time></trkpt><trkpt lat="43.9284767" lon="12.6891167"><ele>46.0</ele><time>2026-04-25T07:28:59.938Z</time></trkpt><trkpt lat="43.9283783" lon="12.6890017"><ele>46.0</ele><time>2026-04-25T07:29:00.937Z</time></trkpt><trkpt lat="43.9282833" lon="12.68889"><ele>46.199999999999996</ele><time>2026-04-25T07:29:01.937Z</time></trkpt><trkpt lat="43.9281917" lon="12.6887867"><ele>46.4</ele><time>2026-04-25T07:29:02.938Z</time></trkpt><trkpt lat="43.9281083" lon="12.6886967"><ele>46.6</ele><time>2026-04-25T07:29:03.937Z</time></trkpt><trkpt lat="43.9280317" lon="12.6886117"><ele>46.8</ele><time>2026-04-25T07:29:04.938Z</time></trkpt><trkpt lat="43.9279583" lon="12.6885317"><ele>47.0</ele><time>2026-04-25T07:29:05.938Z</time></trkpt><trkpt lat="43.9278933" lon="12.6884567"><ele>47.0</ele><time>2026-04-25T07:29:06.937Z</time></trkpt><trkpt lat="43.9278283" lon="12.6883833"><ele>47.0</ele><time>2026-04-25T07:29:07.937Z</time></trkpt><trkpt lat="43.9277633" lon="12.688305"><ele>47.0</ele><time>2026-04-25T07:29:08.937Z</time></trkpt><trkpt lat="43.9277033" lon="12.6882183"><ele>47.0</ele><time>2026-04-25T07:29:09.937Z</time></trkpt><trkpt lat="43.9276417" lon="12.6881367"><ele>47.0</ele><time>2026-04-25T07:29:10.938Z</time></trkpt><trkpt lat="43.9275817" lon="12.6880483"><ele>47.0</ele><time>2026-04-25T07:29:11.938Z</time></trkpt><trkpt lat="43.9275267" lon="12.6879467"><ele>47.0</ele><time>2026-04-25T07:29:12.937Z</time></trkpt><trkpt lat="43.927475" lon="12.6878417"><ele>47.0</ele><time>2026-04-25T07:29:13.938Z</time></trkpt><trkpt lat="43.92742" lon="12.6877367"><ele>47.0</ele><time>2026-04-25T07:29:14.938Z</time></trkpt><trkpt lat="43.9273683" lon="12.6876283"><ele>47.0</ele><time>2026-04-25T07:29:15.938Z</time></trkpt><trkpt lat="43.9273117" lon="12.6875183"><ele>47.0</ele><time>2026-04-25T07:29:16.938Z</time></trkpt><trkpt lat="43.927255" lon="12.6874117"><ele>47.400000000000006</ele><time>2026-04-25T07:29:17.938Z</time></trkpt><trkpt lat="43.9271967" lon="12.6873083"><ele>47.800000000000004</ele><time>2026-04-25T07:29:18.938Z</time></trkpt><trkpt lat="43.9271433" lon="12.6871983"><ele>48.2</ele><time>2026-04-25T07:29:19.937Z</time></trkpt><trkpt lat="43.9270883" lon="12.6870867"><ele>48.6</ele><time>2026-04-25T07:29:20.937Z</time></trkpt><trkpt lat="43.9270367" lon="12.686975"><ele>49.0</ele><time>2026-04-25T07:29:21.938Z</time></trkpt><trkpt lat="43.9269883" lon="12.6868633"><ele>49.0</ele><time>2026-04-25T07:29:22.938Z</time></trkpt><trkpt lat="43.92694" lon="12.6867567"><ele>49.0</ele><time>2026-04-25T07:29:23.938Z</time></trkpt><trkpt lat="43.9268883" lon="12.68666"><ele>49.0</ele><time>2026-04-25T07:29:24.937Z</time></trkpt><trkpt lat="43.9268267" lon="12.6865667"><ele>49.0</ele><time>2026-04-25T07:29:25.938Z</time></trkpt><trkpt lat="43.9267633" lon="12.6864633"><ele>49.0</ele><time>2026-04-25T07:29:26.938Z</time></trkpt><trkpt lat="43.9266917" lon="12.68636"><ele>49.0</ele><time>2026-04-25T07:29:27.938Z</time></trkpt><trkpt lat="43.926615" lon="12.6862517"><ele>49.0</ele><time>2026-04-25T07:29:28.938Z</time></trkpt><trkpt lat="43.9265333" lon="12.6861467"><ele>49.0</ele><time>2026-04-25T07:29:29.938Z</time></trkpt><trkpt lat="43.9264467" lon="12.6860417"><ele>49.0</ele><time>2026-04-25T07:29:30.938Z</time></trkpt><trkpt lat="43.92636" lon="12.6859467"><ele>49.0</ele><time>2026-04-25T07:29:31.938Z</time></trkpt><trkpt lat="43.9262733" lon="12.68585"><ele>49.25</ele><time>2026-04-25T07:29:32.937Z</time></trkpt><trkpt lat="43.92618" lon="12.6857533"><ele>49.5</ele><time>2026-04-25T07:29:33.938Z</time></trkpt><trkpt lat="43.9260833" lon="12.6856533"><ele>49.75</ele><time>2026-04-25T07:29:34.938Z</time></trkpt><trkpt lat="43.9259817" lon="12.6855483"><ele>50.0</ele><time>2026-04-25T07:29:35.938Z</time></trkpt><trkpt lat="43.9258783" lon="12.6854383"><ele>50.0</ele><time>2026-04-25T07:29:36.938Z</time></trkpt><trkpt lat="43.925775" lon="12.6853217"><ele>50.0</ele><time>2026-04-25T07:29:37.938Z</time></trkpt><trkpt lat="43.925665" lon="12.6852083"><ele>50.0</ele><time>2026-04-25T07:29:38.938Z</time></trkpt><trkpt lat="43.925555" lon="12.6850883"><ele>50.0</ele><time>2026-04-25T07:29:39.937Z</time></trkpt><trkpt lat="43.92544" lon="12.68497"><ele>50.0</ele><time>2026-04-25T07:29:40.937Z</time></trkpt><trkpt lat="43.9253267" lon="12.6848483"><ele>50.0</ele><time>2026-04-25T07:29:41.938Z</time></trkpt><trkpt lat="43.925215" lon="12.6847267"><ele>50.0</ele><time>2026-04-25T07:29:42.938Z</time></trkpt><trkpt lat="43.9251083" lon="12.6846"><ele>50.0</ele><time>2026-04-25T07:29:43.937Z</time></trkpt><trkpt lat="43.9250067" lon="12.68447"><ele>50.5</ele><time>2026-04-25T07:29:44.938Z</time></trkpt><trkpt lat="43.9249083" lon="12.68433"><ele>51.0</ele><time>2026-04-25T07:29:45.938Z</time></trkpt><trkpt lat="43.9248183" lon="12.68418"><ele>51.5</ele><time>2026-04-25T07:29:46.938Z</time></trkpt><trkpt lat="43.9247367" lon="12.68402"><ele>52.0</ele><time>2026-04-25T07:29:47.938Z</time></trkpt><trkpt lat="43.92466" lon="12.6838533"><ele>52.0</ele><time>2026-04-25T07:29:48.938Z</time></trkpt><trkpt lat="43.9245867" lon="12.6836867"><ele>52.0</ele><time>2026-04-25T07:29:49.938Z</time></trkpt><trkpt lat="43.9245133" lon="12.68352"><ele>52.0</ele><time>2026-04-25T07:29:50.938Z</time></trkpt><trkpt lat="43.9244433" lon="12.683355"><ele>52.0</ele><time>2026-04-25T07:29:51.938Z</time></trkpt><trkpt lat="43.9243733" lon="12.6831917"><ele>52.0</ele><time>2026-04-25T07:29:52.938Z</time></trkpt><trkpt lat="43.9243" lon="12.6830317"><ele>52.0</ele><time>2026-04-25T07:29:53.938Z</time></trkpt><trkpt lat="43.9242283" lon="12.6828717"><ele>52.0</ele><time>2026-04-25T07:29:54.938Z</time></trkpt><trkpt lat="43.9241583" lon="12.682705"><ele>52.0</ele><time>2026-04-25T07:29:55.938Z</time></trkpt><trkpt lat="43.9240883" lon="12.682535"><ele>52.0</ele><time>2026-04-25T07:29:56.937Z</time></trkpt><trkpt lat="43.9240183" lon="12.6823683"><ele>52.0</ele><time>2026-04-25T07:29:57.938Z</time></trkpt><trkpt lat="43.9239483" lon="12.6822017"><ele>52.0</ele><time>2026-04-25T07:29:58.938Z</time></trkpt><trkpt lat="43.9238783" lon="12.6820317"><ele>52.0</ele><time>2026-04-25T07:29:59.938Z</time></trkpt><trkpt lat="43.92381" lon="12.68186"><ele>51.75</ele><time>2026-04-25T07:30:00.938Z</time></trkpt><trkpt lat="43.9237383" lon="12.681685"><ele>51.5</ele><time>2026-04-25T07:30:01.937Z</time></trkpt><trkpt lat="43.9236667" lon="12.6815117"><ele>51.25</ele><time>2026-04-25T07:30:02.938Z</time></trkpt><trkpt lat="43.9235983" lon="12.68133"><ele>51.0</ele><time>2026-04-25T07:30:03.938Z</time></trkpt><trkpt lat="43.9235267" lon="12.6811517"><ele>51.5</ele><time>2026-04-25T07:30:04.938Z</time></trkpt><trkpt lat="43.9234633" lon="12.680975"><ele>52.0</ele><time>2026-04-25T07:30:05.937Z</time></trkpt><trkpt lat="43.9234133" lon="12.6808"><ele>52.5</ele><time>2026-04-25T07:30:06.938Z</time></trkpt><trkpt lat="43.9233617" lon="12.680635"><ele>53.0</ele><time>2026-04-25T07:30:07.938Z</time></trkpt><trkpt lat="43.9233133" lon="12.6804667"><ele>53.25</ele><time>2026-04-25T07:30:08.938Z</time></trkpt><trkpt lat="43.92327" lon="12.68029"><ele>53.5</ele><time>2026-04-25T07:30:09.938Z</time></trkpt><trkpt lat="43.9232267" lon="12.6801167"><ele>53.75</ele><time>2026-04-25T07:30:10.938Z</time></trkpt><trkpt lat="43.92319" lon="12.67994"><ele>54.0</ele><time>2026-04-25T07:30:11.938Z</time></trkpt><trkpt lat="43.9231483" lon="12.6797617"><ele>54.5</ele><time>2026-04-25T07:30:12.938Z</time></trkpt><trkpt lat="43.92311" lon="12.6795817"><ele>55.0</ele><time>2026-04-25T07:30:13.937Z</time></trkpt><trkpt lat="43.923065" lon="12.6794033"><ele>55.5</ele><time>2026-04-25T07:30:14.938Z</time></trkpt><trkpt lat="43.9230233" lon="12.6792217"><ele>56.0</ele><time>2026-04-25T07:30:15.938Z</time></trkpt><trkpt lat="43.92298" lon="12.6790383"><ele>56.0</ele><time>2026-04-25T07:30:16.938Z</time></trkpt><trkpt lat="43.9229333" lon="12.678855"><ele>56.0</ele><time>2026-04-25T07:30:17.938Z</time></trkpt><trkpt lat="43.9228917" lon="12.6786683"><ele>56.0</ele><time>2026-04-25T07:30:18.938Z</time></trkpt><trkpt lat="43.9228483" lon="12.6784833"><ele>56.0</ele><time>2026-04-25T07:30:19.938Z</time></trkpt><trkpt lat="43.9228033" lon="12.6783"><ele>56.0</ele><time>2026-04-25T07:30:20.938Z</time></trkpt><trkpt lat="43.9227567" lon="12.67812"><ele>56.0</ele><time>2026-04-25T07:30:21.938Z</time></trkpt><trkpt lat="43.922715" lon="12.67794"><ele>56.0</ele><time>2026-04-25T07:30:22.938Z</time></trkpt><trkpt lat="43.9226717" lon="12.6777667"><ele>56.0</ele><time>2026-04-25T07:30:23.938Z</time></trkpt><trkpt lat="43.92263" lon="12.6776"><ele>56.0</ele><time>2026-04-25T07:30:24.937Z</time></trkpt><trkpt lat="43.9225917" lon="12.67744"><ele>55.99999999999999</ele><time>2026-04-25T07:30:25.938Z</time></trkpt><trkpt lat="43.922555" lon="12.67729"><ele>55.99999999999999</ele><time>2026-04-25T07:30:26.938Z</time></trkpt><trkpt lat="43.922515" lon="12.67715"><ele>56.0</ele><time>2026-04-25T07:30:27.938Z</time></trkpt><trkpt lat="43.92248" lon="12.67702"><ele>56.0</ele><time>2026-04-25T07:30:28.937Z</time></trkpt><trkpt lat="43.9224483" lon="12.6769067"><ele>56.0</ele><time>2026-04-25T07:30:29.938Z</time></trkpt><trkpt lat="43.922425" lon="12.67681"><ele>55.99999999999999</ele><time>2026-04-25T07:30:30.937Z</time></trkpt><trkpt lat="43.9223783" lon="12.6766583"><ele>55.99999999999999</ele><time>2026-04-25T07:30:32.938Z</time></trkpt><trkpt lat="43.9223383" lon="12.6764783"><ele>56.0</ele><time>2026-04-25T07:30:34.938Z</time></trkpt><trkpt lat="43.9223183" lon="12.67636"><ele>56.0</ele><time>2026-04-25T07:30:35.938Z</time></trkpt><trkpt lat="43.9222967" lon="12.6762317"><ele>55.75</ele><time>2026-04-25T07:30:36.938Z</time></trkpt><trkpt lat="43.9222683" lon="12.6760917"><ele>55.5</ele><time>2026-04-25T07:30:37.938Z</time></trkpt><trkpt lat="43.9222417" lon="12.675945"><ele>55.25</ele><time>2026-04-25T07:30:38.938Z</time></trkpt><trkpt lat="43.9222183" lon="12.6757883"><ele>55.0</ele><time>2026-04-25T07:30:39.938Z</time></trkpt><trkpt lat="43.922195" lon="12.6756233"><ele>55.0</ele><time>2026-04-25T07:30:40.938Z</time></trkpt><trkpt lat="43.92217" lon="12.6754517"><ele>55.0</ele><time>2026-04-25T07:30:41.938Z</time></trkpt><trkpt lat="43.9221467" lon="12.67528"><ele>55.0</ele><time>2026-04-25T07:30:42.938Z</time></trkpt><trkpt lat="43.9221217" lon="12.6751033"><ele>55.0</ele><time>2026-04-25T07:30:43.938Z</time></trkpt><trkpt lat="43.922095" lon="12.67492"><ele>55.0</ele><time>2026-04-25T07:30:44.938Z</time></trkpt><trkpt lat="43.9220717" lon="12.674735"><ele>55.0</ele><time>2026-04-25T07:30:45.938Z</time></trkpt><trkpt lat="43.922045" lon="12.674545"><ele>55.0</ele><time>2026-04-25T07:30:46.938Z</time></trkpt><trkpt lat="43.9220183" lon="12.6743567"><ele>55.0</ele><time>2026-04-25T07:30:47.938Z</time></trkpt><trkpt lat="43.921995" lon="12.6741683"><ele>55.25</ele><time>2026-04-25T07:30:48.938Z</time></trkpt><trkpt lat="43.921975" lon="12.6739767"><ele>55.5</ele><time>2026-04-25T07:30:49.938Z</time></trkpt><trkpt lat="43.9219533" lon="12.6737867"><ele>55.75</ele><time>2026-04-25T07:30:50.937Z</time></trkpt><trkpt lat="43.9219317" lon="12.6735967"><ele>56.0</ele><time>2026-04-25T07:30:51.937Z</time></trkpt><trkpt lat="43.92191" lon="12.6734083"><ele>56.0</ele><time>2026-04-25T07:30:52.938Z</time></trkpt><trkpt lat="43.921885" lon="12.6732233"><ele>56.0</ele><time>2026-04-25T07:30:53.938Z</time></trkpt><trkpt lat="43.92186" lon="12.67304"><ele>56.0</ele><time>2026-04-25T07:30:54.937Z</time></trkpt><trkpt lat="43.9218383" lon="12.6728583"><ele>56.0</ele><time>2026-04-25T07:30:55.937Z</time></trkpt><trkpt lat="43.921815" lon="12.67268"><ele>56.5</ele><time>2026-04-25T07:30:56.937Z</time></trkpt><trkpt lat="43.9217933" lon="12.67251"><ele>57.0</ele><time>2026-04-25T07:30:57.938Z</time></trkpt><trkpt lat="43.9217717" lon="12.67235"><ele>57.5</ele><time>2026-04-25T07:30:58.937Z</time></trkpt><trkpt lat="43.9217567" lon="12.6722"><ele>58.0</ele><time>2026-04-25T07:30:59.938Z</time></trkpt><trkpt lat="43.9217533" lon="12.6720583"><ele>57.8</ele><time>2026-04-25T07:31:00.938Z</time></trkpt><trkpt lat="43.92177" lon="12.6719233"><ele>57.599999999999994</ele><time>2026-04-25T07:31:01.937Z</time></trkpt><trkpt lat="43.9217783" lon="12.6717983"><ele>57.400000000000006</ele><time>2026-04-25T07:31:02.937Z</time></trkpt><trkpt lat="43.9217483" lon="12.6716767"><ele>57.2</ele><time>2026-04-25T07:31:03.937Z</time></trkpt><trkpt lat="43.9216917" lon="12.6715567"><ele>57.0</ele><time>2026-04-25T07:31:04.938Z</time></trkpt><trkpt lat="43.9216417" lon="12.6714233"><ele>57.6</ele><time>2026-04-25T07:31:05.938Z</time></trkpt><trkpt lat="43.9216133" lon="12.67128"><ele>58.2</ele><time>2026-04-25T07:31:06.938Z</time></trkpt><trkpt lat="43.9215967" lon="12.6711367"><ele>58.8</ele><time>2026-04-25T07:31:07.938Z</time></trkpt><trkpt lat="43.92158" lon="12.671005"><ele>59.4</ele><time>2026-04-25T07:31:08.937Z</time></trkpt><trkpt lat="43.9215633" lon="12.6708733"><ele>60.0</ele><time>2026-04-25T07:31:09.938Z</time></trkpt><trkpt lat="43.92155" lon="12.6707383"><ele>60.0</ele><time>2026-04-25T07:31:10.937Z</time></trkpt><trkpt lat="43.9215317" lon="12.6706017"><ele>60.0</ele><time>2026-04-25T07:31:11.938Z</time></trkpt><trkpt lat="43.921515" lon="12.6704633"><ele>60.0</ele><time>2026-04-25T07:31:12.938Z</time></trkpt><trkpt lat="43.9214933" lon="12.6703267"><ele>60.0</ele><time>2026-04-25T07:31:13.938Z</time></trkpt><trkpt lat="43.9214717" lon="12.670185"><ele>60.0</ele><time>2026-04-25T07:31:14.937Z</time></trkpt><trkpt lat="43.921455" lon="12.67004"><ele>60.2</ele><time>2026-04-25T07:31:15.937Z</time></trkpt><trkpt lat="43.9214367" lon="12.6698917"><ele>60.4</ele><time>2026-04-25T07:31:16.937Z</time></trkpt><trkpt lat="43.9214183" lon="12.6697417"><ele>60.599999999999994</ele><time>2026-04-25T07:31:17.937Z</time></trkpt><trkpt lat="43.9214033" lon="12.6695933"><ele>60.8</ele><time>2026-04-25T07:31:18.938Z</time></trkpt><trkpt lat="43.9213867" lon="12.6694417"><ele>61.0</ele><time>2026-04-25T07:31:19.938Z</time></trkpt><trkpt lat="43.9213633" lon="12.66929"><ele>60.199999999999996</ele><time>2026-04-25T07:31:20.938Z</time></trkpt><trkpt lat="43.921335" lon="12.6691417"><ele>59.39999999999999</ele><time>2026-04-25T07:31:21.938Z</time></trkpt><trkpt lat="43.92131" lon="12.668995"><ele>58.6</ele><time>2026-04-25T07:31:22.938Z</time></trkpt><trkpt lat="43.9212933" lon="12.66885"><ele>57.8</ele><time>2026-04-25T07:31:23.938Z</time></trkpt><trkpt lat="43.921275" lon="12.6687067"><ele>57.0</ele><time>2026-04-25T07:31:24.938Z</time></trkpt><trkpt lat="43.921255" lon="12.6685617"><ele>57.0</ele><time>2026-04-25T07:31:25.937Z</time></trkpt><trkpt lat="43.921235" lon="12.6684133"><ele>57.0</ele><time>2026-04-25T07:31:26.938Z</time></trkpt><trkpt lat="43.9212183" lon="12.6682583"><ele>57.0</ele><time>2026-04-25T07:31:27.937Z</time></trkpt><trkpt lat="43.9212" lon="12.6681033"><ele>57.0</ele><time>2026-04-25T07:31:28.938Z</time></trkpt><trkpt lat="43.9211783" lon="12.6679433"><ele>57.0</ele><time>2026-04-25T07:31:29.938Z</time></trkpt><trkpt lat="43.9211583" lon="12.6677833"><ele>57.0</ele><time>2026-04-25T07:31:30.938Z</time></trkpt><trkpt lat="43.9211367" lon="12.6676233"><ele>57.0</ele><time>2026-04-25T07:31:31.938Z</time></trkpt><trkpt lat="43.9211167" lon="12.66746"><ele>57.0</ele><time>2026-04-25T07:31:32.938Z</time></trkpt><trkpt lat="43.9210933" lon="12.6672967"><ele>57.0</ele><time>2026-04-25T07:31:33.938Z</time></trkpt><trkpt lat="43.92107" lon="12.667135"><ele>57.0</ele><time>2026-04-25T07:31:34.937Z</time></trkpt><trkpt lat="43.9210433" lon="12.6669733"><ele>57.0</ele><time>2026-04-25T07:31:35.937Z</time></trkpt><trkpt lat="43.921005" lon="12.666815"><ele>57.0</ele><time>2026-04-25T07:31:36.937Z</time></trkpt><trkpt lat="43.920955" lon="12.6666617"><ele>57.0</ele><time>2026-04-25T07:31:37.937Z</time></trkpt><trkpt lat="43.9209" lon="12.66651"><ele>57.0</ele><time>2026-04-25T07:31:38.937Z</time></trkpt><trkpt lat="43.9208417" lon="12.6663617"><ele>57.0</ele><time>2026-04-25T07:31:39.937Z</time></trkpt><trkpt lat="43.9207817" lon="12.66622"><ele>57.0</ele><time>2026-04-25T07:31:40.937Z</time></trkpt><trkpt lat="43.9207233" lon="12.6660833"><ele>58.2</ele><time>2026-04-25T07:31:41.937Z</time></trkpt><trkpt lat="43.920665" lon="12.6659533"><ele>59.400000000000006</ele><time>2026-04-25T07:31:42.936Z</time></trkpt><trkpt lat="43.92061" lon="12.6658317"><ele>60.599999999999994</ele><time>2026-04-25T07:31:43.937Z</time></trkpt><trkpt lat="43.92056" lon="12.6657133"><ele>61.8</ele><time>2026-04-25T07:31:44.937Z</time></trkpt><trkpt lat="43.9205117" lon="12.6655967"><ele>63.0</ele><time>2026-04-25T07:31:45.936Z</time></trkpt><trkpt lat="43.9204633" lon="12.6654817"><ele>63.0</ele><time>2026-04-25T07:31:46.936Z</time></trkpt><trkpt lat="43.92041" lon="12.6653717"><ele>63.0</ele><time>2026-04-25T07:31:47.937Z</time></trkpt><trkpt lat="43.920365" lon="12.66526"><ele>63.0</ele><time>2026-04-25T07:31:48.937Z</time></trkpt><trkpt lat="43.920315" lon="12.66515"><ele>63.0</ele><time>2026-04-25T07:31:49.936Z</time></trkpt><trkpt lat="43.9202617" lon="12.6650333"><ele>63.0</ele><time>2026-04-25T07:31:50.937Z</time></trkpt><trkpt lat="43.9202067" lon="12.6649083"><ele>63.25</ele><time>2026-04-25T07:31:51.937Z</time></trkpt><trkpt lat="43.9201533" lon="12.6647733"><ele>63.5</ele><time>2026-04-25T07:31:52.936Z</time></trkpt><trkpt lat="43.9201" lon="12.6646267"><ele>63.75</ele><time>2026-04-25T07:31:53.937Z</time></trkpt><trkpt lat="43.9200483" lon="12.6644717"><ele>64.0</ele><time>2026-04-25T07:31:54.937Z</time></trkpt><trkpt lat="43.9200017" lon="12.6643117"><ele>64.5</ele><time>2026-04-25T07:31:55.936Z</time></trkpt><trkpt lat="43.9199617" lon="12.6641483"><ele>65.0</ele><time>2026-04-25T07:31:56.937Z</time></trkpt><trkpt lat="43.9199233" lon="12.663985"><ele>65.5</ele><time>2026-04-25T07:31:57.937Z</time></trkpt><trkpt lat="43.91989" lon="12.66382"><ele>66.0</ele><time>2026-04-25T07:31:58.937Z</time></trkpt><trkpt lat="43.9198483" lon="12.6636617"><ele>65.75</ele><time>2026-04-25T07:31:59.936Z</time></trkpt><trkpt lat="43.9198017" lon="12.6635117"><ele>65.5</ele><time>2026-04-25T07:32:00.936Z</time></trkpt><trkpt lat="43.919765" lon="12.6633633"><ele>65.25</ele><time>2026-04-25T07:32:01.937Z</time></trkpt><trkpt lat="43.9197267" lon="12.663215"><ele>65.0</ele><time>2026-04-25T07:32:02.937Z</time></trkpt><trkpt lat="43.919685" lon="12.6630617"><ele>65.0</ele><time>2026-04-25T07:32:03.937Z</time></trkpt><trkpt lat="43.9196417" lon="12.6629033"><ele>65.0</ele><time>2026-04-25T07:32:04.936Z</time></trkpt><trkpt lat="43.9196033" lon="12.66274"><ele>65.0</ele><time>2026-04-25T07:32:05.937Z</time></trkpt><trkpt lat="43.919565" lon="12.662575"><ele>65.0</ele><time>2026-04-25T07:32:06.937Z</time></trkpt><trkpt lat="43.9195183" lon="12.6624167"><ele>65.25</ele><time>2026-04-25T07:32:07.936Z</time></trkpt><trkpt lat="43.9194633" lon="12.6622667"><ele>65.5</ele><time>2026-04-25T07:32:08.937Z</time></trkpt><trkpt lat="43.9193983" lon="12.66213"><ele>65.75</ele><time>2026-04-25T07:32:09.936Z</time></trkpt><trkpt lat="43.9193267" lon="12.6620033"><ele>66.0</ele><time>2026-04-25T07:32:10.936Z</time></trkpt><trkpt lat="43.9192533" lon="12.6618733"><ele>66.5</ele><time>2026-04-25T07:32:11.936Z</time></trkpt><trkpt lat="43.9191833" lon="12.6617383"><ele>67.0</ele><time>2026-04-25T07:32:12.937Z</time></trkpt><trkpt lat="43.9191133" lon="12.66161"><ele>67.5</ele><time>2026-04-25T07:32:13.937Z</time></trkpt><trkpt lat="43.91905" lon="12.6614867"><ele>68.0</ele><time>2026-04-25T07:32:14.936Z</time></trkpt><trkpt lat="43.918985" lon="12.6613717"><ele>68.0</ele><time>2026-04-25T07:32:15.936Z</time></trkpt><trkpt lat="43.91892" lon="12.6612617"><ele>68.0</ele><time>2026-04-25T07:32:16.937Z</time></trkpt><trkpt lat="43.918855" lon="12.6611483"><ele>68.0</ele><time>2026-04-25T07:32:17.936Z</time></trkpt><trkpt lat="43.91879" lon="12.66103"><ele>68.0</ele><time>2026-04-25T07:32:18.937Z</time></trkpt><trkpt lat="43.9187217" lon="12.6609083"><ele>68.0</ele><time>2026-04-25T07:32:19.937Z</time></trkpt><trkpt lat="43.9186517" lon="12.6607867"><ele>68.4</ele><time>2026-04-25T07:32:20.937Z</time></trkpt><trkpt lat="43.9185867" lon="12.660665"><ele>68.8</ele><time>2026-04-25T07:32:21.937Z</time></trkpt><trkpt lat="43.9185233" lon="12.660545"><ele>69.2</ele><time>2026-04-25T07:32:22.936Z</time></trkpt><trkpt lat="43.91846" lon="12.6604283"><ele>69.6</ele><time>2026-04-25T07:32:23.937Z</time></trkpt><trkpt lat="43.9183933" lon="12.6603117"><ele>70.0</ele><time>2026-04-25T07:32:24.936Z</time></trkpt><trkpt lat="43.9183267" lon="12.6601933"><ele>70.0</ele><time>2026-04-25T07:32:25.936Z</time></trkpt><trkpt lat="43.91826" lon="12.6600717"><ele>70.0</ele><time>2026-04-25T07:32:26.937Z</time></trkpt><trkpt lat="43.9181933" lon="12.6599517"><ele>70.0</ele><time>2026-04-25T07:32:27.936Z</time></trkpt><trkpt lat="43.9181267" lon="12.6598317"><ele>70.0</ele><time>2026-04-25T07:32:28.937Z</time></trkpt><trkpt lat="43.91806" lon="12.6597183"><ele>70.0</ele><time>2026-04-25T07:32:29.937Z</time></trkpt><trkpt lat="43.9179967" lon="12.6596133"><ele>70.0</ele><time>2026-04-25T07:32:30.937Z</time></trkpt><trkpt lat="43.9179383" lon="12.6595133"><ele>70.0</ele><time>2026-04-25T07:32:31.937Z</time></trkpt><trkpt lat="43.917885" lon="12.65941"><ele>70.0</ele><time>2026-04-25T07:32:32.936Z</time></trkpt><trkpt lat="43.9178333" lon="12.65932"><ele>70.0</ele><time>2026-04-25T07:32:33.936Z</time></trkpt><trkpt lat="43.9177833" lon="12.6592517"><ele>70.0</ele><time>2026-04-25T07:32:34.936Z</time></trkpt><trkpt lat="43.9176983" lon="12.6591467"><ele>70.0</ele><time>2026-04-25T07:32:36.937Z</time></trkpt><trkpt lat="43.917645" lon="12.6590117"><ele>70.0</ele><time>2026-04-25T07:32:38.937Z</time></trkpt><trkpt lat="43.91756" lon="12.6588867"><ele>70.0</ele><time>2026-04-25T07:32:40.937Z</time></trkpt><trkpt lat="43.9175167" lon="12.6588117"><ele>70.0</ele><time>2026-04-25T07:32:41.936Z</time></trkpt><trkpt lat="43.9174833" lon="12.6587317"><ele>70.0</ele><time>2026-04-25T07:32:42.937Z</time></trkpt><trkpt lat="43.9174433" lon="12.65865"><ele>70.0</ele><time>2026-04-25T07:32:44.936Z</time></trkpt><trkpt lat="43.9173833" lon="12.65855"><ele>70.33333333333333</ele><time>2026-04-25T07:32:48.936Z</time></trkpt><trkpt lat="43.9173217" lon="12.6584183"><ele>70.66666666666666</ele><time>2026-04-25T07:32:50.937Z</time></trkpt><trkpt lat="43.9172833" lon="12.6583383"><ele>71.0</ele><time>2026-04-25T07:32:51.936Z</time></trkpt><trkpt lat="43.9172367" lon="12.658245"><ele>71.33333333333333</ele><time>2026-04-25T07:32:52.937Z</time></trkpt><trkpt lat="43.91718" lon="12.65815"><ele>71.66666666666667</ele><time>2026-04-25T07:32:53.936Z</time></trkpt><trkpt lat="43.9171217" lon="12.6580517"><ele>72.0</ele><time>2026-04-25T07:32:54.937Z</time></trkpt><trkpt lat="43.9170583" lon="12.6579433"><ele>72.0</ele><time>2026-04-25T07:32:55.937Z</time></trkpt><trkpt lat="43.91699" lon="12.6578233"><ele>72.0</ele><time>2026-04-25T07:32:56.937Z</time></trkpt><trkpt lat="43.91692" lon="12.6577033"><ele>72.0</ele><time>2026-04-25T07:32:57.937Z</time></trkpt><trkpt lat="43.9168517" lon="12.6575833"><ele>72.0</ele><time>2026-04-25T07:32:58.937Z</time></trkpt><trkpt lat="43.916785" lon="12.6574633"><ele>72.0</ele><time>2026-04-25T07:32:59.937Z</time></trkpt><trkpt lat="43.91672" lon="12.6573483"><ele>72.4</ele><time>2026-04-25T07:33:00.937Z</time></trkpt><trkpt lat="43.9166567" lon="12.657235"><ele>72.80000000000001</ele><time>2026-04-25T07:33:01.936Z</time></trkpt><trkpt lat="43.9165967" lon="12.6571333"><ele>73.2</ele><time>2026-04-25T07:33:02.936Z</time></trkpt><trkpt lat="43.9165417" lon="12.6570233"><ele>73.60000000000001</ele><time>2026-04-25T07:33:03.937Z</time></trkpt><trkpt lat="43.9164883" lon="12.6569067"><ele>74.0</ele><time>2026-04-25T07:33:04.937Z</time></trkpt><trkpt lat="43.91642" lon="12.6568"><ele>74.0</ele><time>2026-04-25T07:33:05.937Z</time></trkpt><trkpt lat="43.9163517" lon="12.6566917"><ele>74.0</ele><time>2026-04-25T07:33:06.937Z</time></trkpt><trkpt lat="43.9162867" lon="12.6565733"><ele>74.0</ele><time>2026-04-25T07:33:07.936Z</time></trkpt><trkpt lat="43.9162217" lon="12.6564467"><ele>74.0</ele><time>2026-04-25T07:33:08.937Z</time></trkpt><trkpt lat="43.9161567" lon="12.6563133"><ele>74.0</ele><time>2026-04-25T07:33:09.936Z</time></trkpt><trkpt lat="43.91609" lon="12.6561783"><ele>74.2</ele><time>2026-04-25T07:33:10.937Z</time></trkpt><trkpt lat="43.9160233" lon="12.6560467"><ele>74.4</ele><time>2026-04-25T07:33:11.937Z</time></trkpt><trkpt lat="43.9159667" lon="12.6559167"><ele>74.6</ele><time>2026-04-25T07:33:12.937Z</time></trkpt><trkpt lat="43.9159183" lon="12.6557917"><ele>74.8</ele><time>2026-04-25T07:33:13.937Z</time></trkpt><trkpt lat="43.9158783" lon="12.6556717"><ele>75.0</ele><time>2026-04-25T07:33:14.937Z</time></trkpt><trkpt lat="43.915855" lon="12.6555467"><ele>75.0</ele><time>2026-04-25T07:33:15.937Z</time></trkpt><trkpt lat="43.9158267" lon="12.6554167"><ele>75.0</ele><time>2026-04-25T07:33:16.937Z</time></trkpt><trkpt lat="43.9157933" lon="12.6552867"><ele>75.0</ele><time>2026-04-25T07:33:17.937Z</time></trkpt><trkpt lat="43.915765" lon="12.6551533"><ele>75.0</ele><time>2026-04-25T07:33:18.936Z</time></trkpt><trkpt lat="43.9157417" lon="12.6550233"><ele>75.0</ele><time>2026-04-25T07:33:19.937Z</time></trkpt><trkpt lat="43.9157133" lon="12.654895"><ele>75.16666666666667</ele><time>2026-04-25T07:33:20.937Z</time></trkpt><trkpt lat="43.91569" lon="12.6547767"><ele>75.33333333333333</ele><time>2026-04-25T07:33:21.937Z</time></trkpt><trkpt lat="43.9156683" lon="12.6546617"><ele>75.5</ele><time>2026-04-25T07:33:22.937Z</time></trkpt><trkpt lat="43.9156467" lon="12.6545517"><ele>75.66666666666666</ele><time>2026-04-25T07:33:23.936Z</time></trkpt><trkpt lat="43.91563" lon="12.6544383"><ele>75.83333333333333</ele><time>2026-04-25T07:33:24.937Z</time></trkpt><trkpt lat="43.91561" lon="12.6543217"><ele>76.0</ele><time>2026-04-25T07:33:25.936Z</time></trkpt><trkpt lat="43.9155883" lon="12.6542033"><ele>76.2</ele><time>2026-04-25T07:33:26.937Z</time></trkpt><trkpt lat="43.9155583" lon="12.6540767"><ele>76.39999999999999</ele><time>2026-04-25T07:33:27.937Z</time></trkpt><trkpt lat="43.91553" lon="12.6539417"><ele>76.6</ele><time>2026-04-25T07:33:28.937Z</time></trkpt><trkpt lat="43.915505" lon="12.6537917"><ele>76.8</ele><time>2026-04-25T07:33:29.937Z</time></trkpt><trkpt lat="43.9154767" lon="12.6536333"><ele>77.0</ele><time>2026-04-25T07:33:30.937Z</time></trkpt><trkpt lat="43.9154467" lon="12.6534733"><ele>77.0</ele><time>2026-04-25T07:33:31.937Z</time></trkpt><trkpt lat="43.9154167" lon="12.6533117"><ele>77.0</ele><time>2026-04-25T07:33:32.937Z</time></trkpt><trkpt lat="43.915385" lon="12.6531483"><ele>77.0</ele><time>2026-04-25T07:33:33.936Z</time></trkpt><trkpt lat="43.9153533" lon="12.6529867"><ele>77.0</ele><time>2026-04-25T07:33:34.936Z</time></trkpt><trkpt lat="43.9153267" lon="12.65283"><ele>77.2</ele><time>2026-04-25T07:33:35.937Z</time></trkpt><trkpt lat="43.9153" lon="12.6526867"><ele>77.4</ele><time>2026-04-25T07:33:36.936Z</time></trkpt><trkpt lat="43.915275" lon="12.65256"><ele>77.6</ele><time>2026-04-25T07:33:37.937Z</time></trkpt><trkpt lat="43.9152517" lon="12.65245"><ele>77.8</ele><time>2026-04-25T07:33:38.937Z</time></trkpt><trkpt lat="43.9152333" lon="12.65236"><ele>78.0</ele><time>2026-04-25T07:33:39.937Z</time></trkpt><trkpt lat="43.9152183" lon="12.6522133"><ele>78.0</ele><time>2026-04-25T07:33:41.936Z</time></trkpt><trkpt lat="43.9151817" lon="12.65208"><ele>78.0</ele><time>2026-04-25T07:33:43.937Z</time></trkpt><trkpt lat="43.9151267" lon="12.65194"><ele>78.0</ele><time>2026-04-25T07:33:45.937Z</time></trkpt><trkpt lat="43.9150583" lon="12.6518017"><ele>78.0</ele><time>2026-04-25T07:33:47.937Z</time></trkpt><trkpt lat="43.9149883" lon="12.6517833"><ele>78.0</ele><time>2026-04-25T07:33:48.937Z</time></trkpt><trkpt lat="43.9149133" lon="12.6517617"><ele>77.83333333333333</ele><time>2026-04-25T07:33:49.937Z</time></trkpt><trkpt lat="43.9148417" lon="12.6517217"><ele>77.66666666666667</ele><time>2026-04-25T07:33:50.937Z</time></trkpt><trkpt lat="43.9147717" lon="12.65166"><ele>77.5</ele><time>2026-04-25T07:33:51.937Z</time></trkpt><trkpt lat="43.9147" lon="12.6515967"><ele>77.33333333333334</ele><time>2026-04-25T07:33:52.937Z</time></trkpt><trkpt lat="43.914635" lon="12.6515267"><ele>77.16666666666667</ele><time>2026-04-25T07:33:53.936Z</time></trkpt><trkpt lat="43.9145767" lon="12.6514533"><ele>77.0</ele><time>2026-04-25T07:33:54.937Z</time></trkpt><trkpt lat="43.914515" lon="12.6513883"><ele>77.0</ele><time>2026-04-25T07:33:55.937Z</time></trkpt><trkpt lat="43.9144467" lon="12.6513317"><ele>77.0</ele><time>2026-04-25T07:33:56.936Z</time></trkpt><trkpt lat="43.91438" lon="12.6512633"><ele>77.0</ele><time>2026-04-25T07:33:57.937Z</time></trkpt><trkpt lat="43.9143117" lon="12.6511917"><ele>77.0</ele><time>2026-04-25T07:33:58.937Z</time></trkpt><trkpt lat="43.91424" lon="12.6511183"><ele>77.0</ele><time>2026-04-25T07:33:59.937Z</time></trkpt><trkpt lat="43.9141633" lon="12.6510383"><ele>77.0</ele><time>2026-04-25T07:34:00.937Z</time></trkpt><trkpt lat="43.9140833" lon="12.6509533"><ele>77.6</ele><time>2026-04-25T07:34:01.937Z</time></trkpt><trkpt lat="43.9140017" lon="12.65087"><ele>78.2</ele><time>2026-04-25T07:34:02.937Z</time></trkpt><trkpt lat="43.9139233" lon="12.65078"><ele>78.8</ele><time>2026-04-25T07:34:03.936Z</time></trkpt><trkpt lat="43.9138383" lon="12.650695"><ele>79.4</ele><time>2026-04-25T07:34:04.937Z</time></trkpt><trkpt lat="43.913755" lon="12.6506083"><ele>80.0</ele><time>2026-04-25T07:34:05.937Z</time></trkpt><trkpt lat="43.9136717" lon="12.6505167"><ele>80.0</ele><time>2026-04-25T07:34:06.936Z</time></trkpt><trkpt lat="43.91359" lon="12.6504333"><ele>80.0</ele><time>2026-04-25T07:34:07.937Z</time></trkpt><trkpt lat="43.9135117" lon="12.6503583"><ele>80.0</ele><time>2026-04-25T07:34:08.937Z</time></trkpt><trkpt lat="43.9134383" lon="12.6502817"><ele>80.0</ele><time>2026-04-25T07:34:09.937Z</time></trkpt><trkpt lat="43.913365" lon="12.6502033"><ele>80.0</ele><time>2026-04-25T07:34:10.937Z</time></trkpt><trkpt lat="43.9132933" lon="12.6501267"><ele>80.33333333333334</ele><time>2026-04-25T07:34:11.937Z</time></trkpt><trkpt lat="43.913225" lon="12.6500517"><ele>80.66666666666667</ele><time>2026-04-25T07:34:12.937Z</time></trkpt><trkpt lat="43.9131633" lon="12.64998"><ele>81.0</ele><time>2026-04-25T07:34:13.937Z</time></trkpt><trkpt lat="43.91311" lon="12.6499217"><ele>81.33333333333333</ele><time>2026-04-25T07:34:14.937Z</time></trkpt><trkpt lat="43.9130367" lon="12.64985"><ele>81.66666666666666</ele><time>2026-04-25T07:34:16.936Z</time></trkpt><trkpt lat="43.91297" lon="12.6498267"><ele>82.0</ele><time>2026-04-25T07:34:18.937Z</time></trkpt><trkpt lat="43.9128983" lon="12.6499367"><ele>82.0</ele><time>2026-04-25T07:34:20.937Z</time></trkpt><trkpt lat="43.9128633" lon="12.6500167"><ele>82.0</ele><time>2026-04-25T07:34:21.937Z</time></trkpt><trkpt lat="43.9128233" lon="12.6500967"><ele>82.0</ele><time>2026-04-25T07:34:22.937Z</time></trkpt><trkpt lat="43.91278" lon="12.650185"><ele>82.0</ele><time>2026-04-25T07:34:23.937Z</time></trkpt><trkpt lat="43.91273" lon="12.6502783"><ele>82.0</ele><time>2026-04-25T07:34:24.937Z</time></trkpt><trkpt lat="43.9126767" lon="12.6503783"><ele>82.0</ele><time>2026-04-25T07:34:25.937Z</time></trkpt><trkpt lat="43.912625" lon="12.6504733"><ele>82.0</ele><time>2026-04-25T07:34:26.937Z</time></trkpt><trkpt lat="43.912575" lon="12.65056"><ele>82.0</ele><time>2026-04-25T07:34:27.936Z</time></trkpt><trkpt lat="43.91252" lon="12.6506433"><ele>82.0</ele><time>2026-04-25T07:34:28.937Z</time></trkpt><trkpt lat="43.9124667" lon="12.6507333"><ele>82.0</ele><time>2026-04-25T07:34:29.937Z</time></trkpt><trkpt lat="43.9124033" lon="12.6508267"><ele>82.0</ele><time>2026-04-25T07:34:30.937Z</time></trkpt><trkpt lat="43.9123333" lon="12.6509183"><ele>82.0</ele><time>2026-04-25T07:34:31.936Z</time></trkpt><trkpt lat="43.912255" lon="12.6510067"><ele>82.5</ele><time>2026-04-25T07:34:32.937Z</time></trkpt><trkpt lat="43.91217" lon="12.6510983"><ele>83.0</ele><time>2026-04-25T07:34:33.937Z</time></trkpt><trkpt lat="43.912085" lon="12.6511967"><ele>83.5</ele><time>2026-04-25T07:34:34.937Z</time></trkpt><trkpt lat="43.911995" lon="12.6512917"><ele>84.0</ele><time>2026-04-25T07:34:35.937Z</time></trkpt><trkpt lat="43.9118983" lon="12.6513917"><ele>84.0</ele><time>2026-04-25T07:34:36.937Z</time></trkpt><trkpt lat="43.9117983" lon="12.65149"><ele>84.0</ele><time>2026-04-25T07:34:37.937Z</time></trkpt><trkpt lat="43.911695" lon="12.651595"><ele>84.0</ele><time>2026-04-25T07:34:38.937Z</time></trkpt><trkpt lat="43.9115917" lon="12.6517033"><ele>84.0</ele><time>2026-04-25T07:34:39.937Z</time></trkpt><trkpt lat="43.91149" lon="12.65181"><ele>85.25</ele><time>2026-04-25T07:34:40.937Z</time></trkpt><trkpt lat="43.9113933" lon="12.6519183"><ele>86.5</ele><time>2026-04-25T07:34:41.937Z</time></trkpt><trkpt lat="43.911305" lon="12.6520333"><ele>87.75</ele><time>2026-04-25T07:34:42.937Z</time></trkpt><trkpt lat="43.9112233" lon="12.6521667"><ele>89.0</ele><time>2026-04-25T07:34:43.937Z</time></trkpt><trkpt lat="43.911155" lon="12.6523067"><ele>89.25</ele><time>2026-04-25T07:34:44.936Z</time></trkpt><trkpt lat="43.9111017" lon="12.6524583"><ele>89.5</ele><time>2026-04-25T07:34:45.937Z</time></trkpt><trkpt lat="43.9110633" lon="12.6526267"><ele>89.75</ele><time>2026-04-25T07:34:46.937Z</time></trkpt><trkpt lat="43.911025" lon="12.652795"><ele>90.0</ele><time>2026-04-25T07:34:47.937Z</time></trkpt><trkpt lat="43.9109733" lon="12.6529633"><ele>90.25</ele><time>2026-04-25T07:34:48.937Z</time></trkpt><trkpt lat="43.9109167" lon="12.653125"><ele>90.5</ele><time>2026-04-25T07:34:49.937Z</time></trkpt><trkpt lat="43.9108517" lon="12.653285"><ele>90.75</ele><time>2026-04-25T07:34:50.937Z</time></trkpt><trkpt lat="43.9107833" lon="12.6534417"><ele>91.0</ele><time>2026-04-25T07:34:51.937Z</time></trkpt><trkpt lat="43.9107083" lon="12.6535817"><ele>93.0</ele><time>2026-04-25T07:34:52.937Z</time></trkpt><trkpt lat="43.9106417" lon="12.6537083"><ele>95.0</ele><time>2026-04-25T07:34:53.937Z</time></trkpt><trkpt lat="43.9105767" lon="12.6538217"><ele>97.0</ele><time>2026-04-25T07:34:54.937Z</time></trkpt><trkpt lat="43.9105267" lon="12.653935"><ele>99.0</ele><time>2026-04-25T07:34:55.937Z</time></trkpt><trkpt lat="43.91049" lon="12.6540533"><ele>101.0</ele><time>2026-04-25T07:34:56.937Z</time></trkpt><trkpt lat="43.910455" lon="12.6541783"><ele>101.0</ele><time>2026-04-25T07:34:57.937Z</time></trkpt><trkpt lat="43.910425" lon="12.6543183"><ele>101.0</ele><time>2026-04-25T07:34:58.937Z</time></trkpt><trkpt lat="43.9103917" lon="12.6544717"><ele>101.0</ele><time>2026-04-25T07:34:59.937Z</time></trkpt><trkpt lat="43.910355" lon="12.6546317"><ele>101.0</ele><time>2026-04-25T07:35:00.937Z</time></trkpt><trkpt lat="43.9103217" lon="12.6547967"><ele>100.25</ele><time>2026-04-25T07:35:01.938Z</time></trkpt><trkpt lat="43.9102833" lon="12.654965"><ele>99.5</ele><time>2026-04-25T07:35:02.938Z</time></trkpt><trkpt lat="43.9102483" lon="12.6551383"><ele>98.75</ele><time>2026-04-25T07:35:03.938Z</time></trkpt><trkpt lat="43.9102117" lon="12.6553133"><ele>98.0</ele><time>2026-04-25T07:35:04.938Z</time></trkpt><trkpt lat="43.9101733" lon="12.65549"><ele>96.5</ele><time>2026-04-25T07:35:05.938Z</time></trkpt><trkpt lat="43.910145" lon="12.6556717"><ele>95.0</ele><time>2026-04-25T07:35:06.937Z</time></trkpt><trkpt lat="43.9101417" lon="12.6558583"><ele>93.5</ele><time>2026-04-25T07:35:07.938Z</time></trkpt><trkpt lat="43.9101683" lon="12.65604"><ele>92.0</ele><time>2026-04-25T07:35:08.938Z</time></trkpt><trkpt lat="43.910225" lon="12.656215"><ele>90.25</ele><time>2026-04-25T07:35:09.938Z</time></trkpt><trkpt lat="43.910295" lon="12.6563833"><ele>88.5</ele><time>2026-04-25T07:35:10.938Z</time></trkpt><trkpt lat="43.910355" lon="12.6565533"><ele>86.75</ele><time>2026-04-25T07:35:11.937Z</time></trkpt><trkpt lat="43.9104033" lon="12.6567283"><ele>85.0</ele><time>2026-04-25T07:35:12.938Z</time></trkpt><trkpt lat="43.9104467" lon="12.65691"><ele>84.0</ele><time>2026-04-25T07:35:13.938Z</time></trkpt><trkpt lat="43.9104867" lon="12.6571"><ele>83.0</ele><time>2026-04-25T07:35:14.938Z</time></trkpt><trkpt lat="43.91052" lon="12.6572917"><ele>82.0</ele><time>2026-04-25T07:35:15.938Z</time></trkpt><trkpt lat="43.9105467" lon="12.65748"><ele>81.0</ele><time>2026-04-25T07:35:16.938Z</time></trkpt><trkpt lat="43.910555" lon="12.6576683"><ele>79.75</ele><time>2026-04-25T07:35:17.938Z</time></trkpt><trkpt lat="43.9105533" lon="12.6578583"><ele>78.5</ele><time>2026-04-25T07:35:18.938Z</time></trkpt><trkpt lat="43.9105533" lon="12.65804"><ele>77.25</ele><time>2026-04-25T07:35:19.938Z</time></trkpt><trkpt lat="43.9105567" lon="12.6582033"><ele>76.0</ele><time>2026-04-25T07:35:20.938Z</time></trkpt><trkpt lat="43.9105483" lon="12.658345"><ele>76.0</ele><time>2026-04-25T07:35:21.937Z</time></trkpt><trkpt lat="43.9105333" lon="12.658455"><ele>76.0</ele><time>2026-04-25T07:35:22.938Z</time></trkpt><trkpt lat="43.9104733" lon="12.65858"><ele>76.0</ele><time>2026-04-25T07:35:24.937Z</time></trkpt><trkpt lat="43.9103667" lon="12.658555"><ele>76.0</ele><time>2026-04-25T07:35:26.937Z</time></trkpt><trkpt lat="43.9102917" lon="12.658485"><ele>76.0</ele><time>2026-04-25T07:35:27.938Z</time></trkpt><trkpt lat="43.9102167" lon="12.6584017"><ele>76.0</ele><time>2026-04-25T07:35:28.938Z</time></trkpt><trkpt lat="43.9101367" lon="12.6583117"><ele>76.0</ele><time>2026-04-25T07:35:29.938Z</time></trkpt><trkpt lat="43.9100517" lon="12.658215"><ele>76.0</ele><time>2026-04-25T07:35:30.937Z</time></trkpt><trkpt lat="43.90996" lon="12.658115"><ele>76.0</ele><time>2026-04-25T07:35:31.937Z</time></trkpt><trkpt lat="43.9098667" lon="12.658015"><ele>76.0</ele><time>2026-04-25T07:35:32.937Z</time></trkpt><trkpt lat="43.9097783" lon="12.6579283"><ele>75.83333333333333</ele><time>2026-04-25T07:35:33.937Z</time></trkpt><trkpt lat="43.9097" lon="12.6578517"><ele>75.66666666666666</ele><time>2026-04-25T07:35:34.938Z</time></trkpt><trkpt lat="43.9096383" lon="12.657785"><ele>75.5</ele><time>2026-04-25T07:35:35.938Z</time></trkpt><trkpt lat="43.9095833" lon="12.6577267"><ele>75.33333333333333</ele><time>2026-04-25T07:35:36.937Z</time></trkpt><trkpt lat="43.9095183" lon="12.6576183"><ele>75.16666666666667</ele><time>2026-04-25T07:35:38.937Z</time></trkpt><trkpt lat="43.9094417" lon="12.65761"><ele>75.0</ele><time>2026-04-25T07:35:41.937Z</time></trkpt><trkpt lat="43.9094733" lon="12.657695"><ele>75.0</ele><time>2026-04-25T07:35:43.938Z</time></trkpt><trkpt lat="43.909525" lon="12.657745"><ele>75.0</ele><time>2026-04-25T07:35:44.938Z</time></trkpt><trkpt lat="43.90959" lon="12.657805"><ele>75.0</ele><time>2026-04-25T07:35:45.937Z</time></trkpt><trkpt lat="43.9096633" lon="12.65788"><ele>75.0</ele><time>2026-04-25T07:35:46.938Z</time></trkpt><trkpt lat="43.9097433" lon="12.6579683"><ele>75.0</ele><time>2026-04-25T07:35:47.937Z</time></trkpt><trkpt lat="43.90983" lon="12.6580667"><ele>75.0</ele><time>2026-04-25T07:35:48.938Z</time></trkpt><trkpt lat="43.90992" lon="12.6581683"><ele>75.25</ele><time>2026-04-25T07:35:49.938Z</time></trkpt><trkpt lat="43.9100083" lon="12.6582717"><ele>75.5</ele><time>2026-04-25T07:35:50.938Z</time></trkpt><trkpt lat="43.9100933" lon="12.6583717"><ele>75.75</ele><time>2026-04-25T07:35:51.937Z</time></trkpt><trkpt lat="43.9101783" lon="12.658475"><ele>76.0</ele><time>2026-04-25T07:35:52.938Z</time></trkpt><trkpt lat="43.9102583" lon="12.6585817"><ele>75.39999999999999</ele><time>2026-04-25T07:35:53.938Z</time></trkpt><trkpt lat="43.9103317" lon="12.658695"><ele>74.8</ele><time>2026-04-25T07:35:54.938Z</time></trkpt><trkpt lat="43.91039" lon="12.658815"><ele>74.19999999999999</ele><time>2026-04-25T07:35:55.938Z</time></trkpt><trkpt lat="43.9104317" lon="12.658945"><ele>73.6</ele><time>2026-04-25T07:35:56.938Z</time></trkpt><trkpt lat="43.91045" lon="12.6590867"><ele>73.0</ele><time>2026-04-25T07:35:57.938Z</time></trkpt><trkpt lat="43.91046" lon="12.659225"><ele>73.0</ele><time>2026-04-25T07:35:58.937Z</time></trkpt><trkpt lat="43.910465" lon="12.65936"><ele>73.0</ele><time>2026-04-25T07:35:59.937Z</time></trkpt><trkpt lat="43.910465" lon="12.65948"><ele>73.0</ele><time>2026-04-25T07:36:00.938Z</time></trkpt><trkpt lat="43.9104567" lon="12.65957"><ele>73.0</ele><time>2026-04-25T07:36:01.938Z</time></trkpt><trkpt lat="43.9104" lon="12.6596383"><ele>73.0</ele><time>2026-04-25T07:36:03.938Z</time></trkpt><trkpt lat="43.9103283" lon="12.659565"><ele>73.0</ele><time>2026-04-25T07:36:05.937Z</time></trkpt><trkpt lat="43.9102917" lon="12.6594867"><ele>73.0</ele><time>2026-04-25T07:36:06.937Z</time></trkpt><trkpt lat="43.9102517" lon="12.6593833"><ele>73.0</ele><time>2026-04-25T07:36:07.938Z</time></trkpt><trkpt lat="43.9102033" lon="12.659265"><ele>73.0</ele><time>2026-04-25T07:36:08.938Z</time></trkpt><trkpt lat="43.9101467" lon="12.6591367"><ele>73.0</ele><time>2026-04-25T07:36:09.937Z</time></trkpt><trkpt lat="43.9100833" lon="12.6590083"><ele>73.0</ele><time>2026-04-25T07:36:10.938Z</time></trkpt><trkpt lat="43.9100083" lon="12.658875"><ele>72.75</ele><time>2026-04-25T07:36:11.938Z</time></trkpt><trkpt lat="43.9099333" lon="12.65874"><ele>72.5</ele><time>2026-04-25T07:36:12.938Z</time></trkpt><trkpt lat="43.909855" lon="12.658595"><ele>72.25</ele><time>2026-04-25T07:36:13.938Z</time></trkpt><trkpt lat="43.909775" lon="12.6584483"><ele>72.0</ele><time>2026-04-25T07:36:14.938Z</time></trkpt><trkpt lat="43.9096883" lon="12.6583067"><ele>72.0</ele><time>2026-04-25T07:36:15.938Z</time></trkpt><trkpt lat="43.909595" lon="12.658165"><ele>72.0</ele><time>2026-04-25T07:36:16.938Z</time></trkpt><trkpt lat="43.9095017" lon="12.6580283"><ele>72.0</ele><time>2026-04-25T07:36:17.938Z</time></trkpt><trkpt lat="43.9094067" lon="12.6578967"><ele>72.0</ele><time>2026-04-25T07:36:18.938Z</time></trkpt><trkpt lat="43.909315" lon="12.6577683"><ele>71.8</ele><time>2026-04-25T07:36:19.938Z</time></trkpt><trkpt lat="43.9092267" lon="12.6576467"><ele>71.6</ele><time>2026-04-25T07:36:20.938Z</time></trkpt><trkpt lat="43.90914" lon="12.65754"><ele>71.39999999999999</ele><time>2026-04-25T07:36:21.938Z</time></trkpt><trkpt lat="43.9090617" lon="12.6574583"><ele>71.2</ele><time>2026-04-25T07:36:22.937Z</time></trkpt><trkpt lat="43.9089917" lon="12.6574033"><ele>71.0</ele><time>2026-04-25T07:36:23.938Z</time></trkpt><trkpt lat="43.9089333" lon="12.6573633"><ele>71.0</ele><time>2026-04-25T07:36:24.938Z</time></trkpt><trkpt lat="43.9088433" lon="12.6573117"><ele>71.0</ele><time>2026-04-25T07:36:26.938Z</time></trkpt><trkpt lat="43.9087367" lon="12.6572467"><ele>71.0</ele><time>2026-04-25T07:36:28.938Z</time></trkpt><trkpt lat="43.9086667" lon="12.6571983"><ele>71.0</ele><time>2026-04-25T07:36:29.938Z</time></trkpt><trkpt lat="43.90859" lon="12.6571517"><ele>71.0</ele><time>2026-04-25T07:36:30.938Z</time></trkpt><trkpt lat="43.9085033" lon="12.6571017"><ele>71.39999999999999</ele><time>2026-04-25T07:36:31.937Z</time></trkpt><trkpt lat="43.9084" lon="12.6570717"><ele>71.8</ele><time>2026-04-25T07:36:32.938Z</time></trkpt><trkpt lat="43.908305" lon="12.657025"><ele>72.19999999999999</ele><time>2026-04-25T07:36:33.937Z</time></trkpt><trkpt lat="43.908215" lon="12.65697"><ele>72.6</ele><time>2026-04-25T07:36:34.938Z</time></trkpt><trkpt lat="43.9081217" lon="12.6569333"><ele>73.0</ele><time>2026-04-25T07:36:35.938Z</time></trkpt><trkpt lat="43.9080433" lon="12.6568867"><ele>73.0</ele><time>2026-04-25T07:36:36.938Z</time></trkpt><trkpt lat="43.907975" lon="12.6568417"><ele>73.0</ele><time>2026-04-25T07:36:37.937Z</time></trkpt><trkpt lat="43.907915" lon="12.65679"><ele>73.0</ele><time>2026-04-25T07:36:38.938Z</time></trkpt><trkpt lat="43.9078567" lon="12.656745"><ele>73.0</ele><time>2026-04-25T07:36:39.938Z</time></trkpt><trkpt lat="43.9077983" lon="12.65671"><ele>73.0</ele><time>2026-04-25T07:36:40.937Z</time></trkpt><trkpt lat="43.90769" lon="12.6566617"><ele>73.0</ele><time>2026-04-25T07:36:42.938Z</time></trkpt><trkpt lat="43.9075767" lon="12.656635"><ele>72.66666666666666</ele><time>2026-04-25T07:36:44.938Z</time></trkpt><trkpt lat="43.90751" lon="12.6566217"><ele>72.33333333333333</ele><time>2026-04-25T07:36:45.937Z</time></trkpt><trkpt lat="43.9074333" lon="12.6566183"><ele>72.0</ele><time>2026-04-25T07:36:46.937Z</time></trkpt><trkpt lat="43.9073533" lon="12.6566167"><ele>71.66666666666667</ele><time>2026-04-25T07:36:47.938Z</time></trkpt><trkpt lat="43.90727" lon="12.6566217"><ele>71.33333333333334</ele><time>2026-04-25T07:36:48.938Z</time></trkpt><trkpt lat="43.90718" lon="12.6566267"><ele>71.0</ele><time>2026-04-25T07:36:49.938Z</time></trkpt><trkpt lat="43.907085" lon="12.656635"><ele>71.0</ele><time>2026-04-25T07:36:50.937Z</time></trkpt><trkpt lat="43.9069817" lon="12.6566533"><ele>71.0</ele><time>2026-04-25T07:36:51.937Z</time></trkpt><trkpt lat="43.9068733" lon="12.6566817"><ele>71.0</ele><time>2026-04-25T07:36:52.938Z</time></trkpt><trkpt lat="43.9067667" lon="12.65672"><ele>71.0</ele><time>2026-04-25T07:36:53.938Z</time></trkpt><trkpt lat="43.9066733" lon="12.6567617"><ele>71.0</ele><time>2026-04-25T07:36:54.938Z</time></trkpt><trkpt lat="43.9066" lon="12.6567917"><ele>70.5</ele><time>2026-04-25T07:36:55.938Z</time></trkpt><trkpt lat="43.90651" lon="12.6568133"><ele>70.0</ele><time>2026-04-25T07:36:57.938Z</time></trkpt><trkpt lat="43.9064" lon="12.6567767"><ele>69.5</ele><time>2026-04-25T07:36:59.938Z</time></trkpt><trkpt lat="43.9063433" lon="12.65673"><ele>69.0</ele><time>2026-04-25T07:37:00.937Z</time></trkpt><trkpt lat="43.9062933" lon="12.6566667"><ele>68.5</ele><time>2026-04-25T07:37:01.938Z</time></trkpt><trkpt lat="43.9062517" lon="12.65659"><ele>68.0</ele><time>2026-04-25T07:37:02.938Z</time></trkpt><trkpt lat="43.906215" lon="12.6565"><ele>68.0</ele><time>2026-04-25T07:37:03.937Z</time></trkpt><trkpt lat="43.9061833" lon="12.6563967"><ele>68.0</ele><time>2026-04-25T07:37:04.938Z</time></trkpt><trkpt lat="43.90615" lon="12.65629"><ele>68.0</ele><time>2026-04-25T07:37:05.938Z</time></trkpt><trkpt lat="43.90612" lon="12.6561833"><ele>68.0</ele><time>2026-04-25T07:37:06.938Z</time></trkpt><trkpt lat="43.9060917" lon="12.6560717"><ele>68.0</ele><time>2026-04-25T07:37:07.938Z</time></trkpt><trkpt lat="43.90606" lon="12.6559517"><ele>68.0</ele><time>2026-04-25T07:37:08.938Z</time></trkpt><trkpt lat="43.9060233" lon="12.6558217"><ele>68.0</ele><time>2026-04-25T07:37:09.938Z</time></trkpt><trkpt lat="43.9059783" lon="12.6557033"><ele>68.0</ele><time>2026-04-25T07:37:10.938Z</time></trkpt><trkpt lat="43.905935" lon="12.6555983"><ele>68.0</ele><time>2026-04-25T07:37:11.938Z</time></trkpt><trkpt lat="43.90588" lon="12.6555167"><ele>68.0</ele><time>2026-04-25T07:37:12.938Z</time></trkpt><trkpt lat="43.9058133" lon="12.6554517"><ele>68.0</ele><time>2026-04-25T07:37:13.938Z</time></trkpt><trkpt lat="43.9057317" lon="12.6554033"><ele>68.0</ele><time>2026-04-25T07:37:14.937Z</time></trkpt><trkpt lat="43.905655" lon="12.65537"><ele>68.0</ele><time>2026-04-25T07:37:15.937Z</time></trkpt><trkpt lat="43.9055833" lon="12.6553433"><ele>68.0</ele><time>2026-04-25T07:37:16.938Z</time></trkpt><trkpt lat="43.90551" lon="12.65533"><ele>68.0</ele><time>2026-04-25T07:37:17.938Z</time></trkpt><trkpt lat="43.9054233" lon="12.655305"><ele>68.0</ele><time>2026-04-25T07:37:18.938Z</time></trkpt><trkpt lat="43.90532" lon="12.6552817"><ele>68.0</ele><time>2026-04-25T07:37:19.938Z</time></trkpt><trkpt lat="43.9052117" lon="12.6552567"><ele>68.4</ele><time>2026-04-25T07:37:20.938Z</time></trkpt><trkpt lat="43.9051067" lon="12.6552333"><ele>68.8</ele><time>2026-04-25T07:37:21.937Z</time></trkpt><trkpt lat="43.905005" lon="12.655205"><ele>69.2</ele><time>2026-04-25T07:37:22.938Z</time></trkpt><trkpt lat="43.9048983" lon="12.6551683"><ele>69.6</ele><time>2026-04-25T07:37:23.937Z</time></trkpt><trkpt lat="43.9047933" lon="12.6551167"><ele>70.0</ele><time>2026-04-25T07:37:24.938Z</time></trkpt><trkpt lat="43.90469" lon="12.6550567"><ele>70.0</ele><time>2026-04-25T07:37:25.938Z</time></trkpt><trkpt lat="43.9045883" lon="12.6549933"><ele>70.0</ele><time>2026-04-25T07:37:26.938Z</time></trkpt><trkpt lat="43.9044883" lon="12.6549333"><ele>70.0</ele><time>2026-04-25T07:37:27.938Z</time></trkpt><trkpt lat="43.9043917" lon="12.6548767"><ele>70.0</ele><time>2026-04-25T07:37:28.938Z</time></trkpt><trkpt lat="43.90431" lon="12.6548417"><ele>70.0</ele><time>2026-04-25T07:37:29.938Z</time></trkpt><trkpt lat="43.9042167" lon="12.6547983"><ele>70.6</ele><time>2026-04-25T07:37:31.938Z</time></trkpt><trkpt lat="43.904165" lon="12.6546783"><ele>71.2</ele><time>2026-04-25T07:37:34.937Z</time></trkpt><trkpt lat="43.904105" lon="12.6545217"><ele>71.8</ele><time>2026-04-25T07:37:36.938Z</time></trkpt><trkpt lat="43.9040567" lon="12.65442"><ele>72.4</ele><time>2026-04-25T07:37:37.938Z</time></trkpt><trkpt lat="43.9040033" lon="12.654305"><ele>73.0</ele><time>2026-04-25T07:37:38.938Z</time></trkpt><trkpt lat="43.903945" lon="12.6541733"><ele>73.4</ele><time>2026-04-25T07:37:39.937Z</time></trkpt><trkpt lat="43.903885" lon="12.6540333"><ele>73.8</ele><time>2026-04-25T07:37:40.937Z</time></trkpt><trkpt lat="43.903825" lon="12.6539"><ele>74.2</ele><time>2026-04-25T07:37:41.938Z</time></trkpt><trkpt lat="43.9037617" lon="12.6537717"><ele>74.6</ele><time>2026-04-25T07:37:42.938Z</time></trkpt><trkpt lat="43.9036967" lon="12.65366"><ele>75.0</ele><time>2026-04-25T07:37:43.938Z</time></trkpt><trkpt lat="43.9036217" lon="12.6535683"><ele>75.25</ele><time>2026-04-25T07:37:44.938Z</time></trkpt><trkpt lat="43.9035283" lon="12.6535"><ele>75.5</ele><time>2026-04-25T07:37:45.938Z</time></trkpt><trkpt lat="43.903425" lon="12.653445"><ele>75.75</ele><time>2026-04-25T07:37:46.938Z</time></trkpt><trkpt lat="43.9033133" lon="12.65339"><ele>76.0</ele><time>2026-04-25T07:37:47.938Z</time></trkpt><trkpt lat="43.9032067" lon="12.6533233"><ele>78.0</ele><time>2026-04-25T07:37:48.938Z</time></trkpt><trkpt lat="43.9031033" lon="12.6532633"><ele>80.0</ele><time>2026-04-25T07:37:49.938Z</time></trkpt><trkpt lat="43.9029983" lon="12.65322"><ele>82.0</ele><time>2026-04-25T07:37:50.938Z</time></trkpt><trkpt lat="43.9028833" lon="12.6531933"><ele>84.0</ele><time>2026-04-25T07:37:51.937Z</time></trkpt><trkpt lat="43.9027583" lon="12.6531767"><ele>84.0</ele><time>2026-04-25T07:37:52.937Z</time></trkpt><trkpt lat="43.902625" lon="12.6531633"><ele>84.0</ele><time>2026-04-25T07:37:53.936Z</time></trkpt><trkpt lat="43.9024867" lon="12.6531583"><ele>84.0</ele><time>2026-04-25T07:37:54.937Z</time></trkpt><trkpt lat="43.902345" lon="12.6531567"><ele>84.0</ele><time>2026-04-25T07:37:55.936Z</time></trkpt><trkpt lat="43.9022033" lon="12.653155"><ele>84.5</ele><time>2026-04-25T07:37:56.937Z</time></trkpt><trkpt lat="43.9020633" lon="12.65315"><ele>85.0</ele><time>2026-04-25T07:37:57.937Z</time></trkpt><trkpt lat="43.9019333" lon="12.6531433"><ele>85.5</ele><time>2026-04-25T07:37:58.937Z</time></trkpt><trkpt lat="43.90181" lon="12.6531367"><ele>86.0</ele><time>2026-04-25T07:37:59.937Z</time></trkpt><trkpt lat="43.9016967" lon="12.653125"><ele>86.4</ele><time>2026-04-25T07:38:00.936Z</time></trkpt><trkpt lat="43.9015883" lon="12.6531133"><ele>86.8</ele><time>2026-04-25T07:38:01.937Z</time></trkpt><trkpt lat="43.9014833" lon="12.65311"><ele>87.2</ele><time>2026-04-25T07:38:02.937Z</time></trkpt><trkpt lat="43.9013967" lon="12.6530967"><ele>87.60000000000001</ele><time>2026-04-25T07:38:03.937Z</time></trkpt><trkpt lat="43.9013033" lon="12.65306"><ele>88.0</ele><time>2026-04-25T07:38:05.937Z</time></trkpt><trkpt lat="43.901235" lon="12.6530633"><ele>88.0</ele><time>2026-04-25T07:38:07.936Z</time></trkpt><trkpt lat="43.9011617" lon="12.65319"><ele>88.0</ele><time>2026-04-25T07:38:09.937Z</time></trkpt><trkpt lat="43.9011033" lon="12.6532667"><ele>88.0</ele><time>2026-04-25T07:38:10.937Z</time></trkpt><trkpt lat="43.90102" lon="12.653305"><ele>88.0</ele><time>2026-04-25T07:38:11.937Z</time></trkpt><trkpt lat="43.9009217" lon="12.65331"><ele>88.0</ele><time>2026-04-25T07:38:12.937Z</time></trkpt><trkpt lat="43.900815" lon="12.6532967"><ele>87.25</ele><time>2026-04-25T07:38:13.936Z</time></trkpt><trkpt lat="43.900705" lon="12.6532717"><ele>86.5</ele><time>2026-04-25T07:38:14.937Z</time></trkpt><trkpt lat="43.90059" lon="12.6532483"><ele>85.75</ele><time>2026-04-25T07:38:15.937Z</time></trkpt><trkpt lat="43.90047" lon="12.6532367"><ele>85.0</ele><time>2026-04-25T07:38:16.937Z</time></trkpt><trkpt lat="43.9003467" lon="12.6532267"><ele>85.0</ele><time>2026-04-25T07:38:17.937Z</time></trkpt><trkpt lat="43.9002167" lon="12.6532133"><ele>85.0</ele><time>2026-04-25T07:38:18.937Z</time></trkpt><trkpt lat="43.900085" lon="12.6532183"><ele>85.0</ele><time>2026-04-25T07:38:19.937Z</time></trkpt><trkpt lat="43.8999567" lon="12.6532383"><ele>85.0</ele><time>2026-04-25T07:38:20.936Z</time></trkpt><trkpt lat="43.89983" lon="12.6532617"><ele>84.2</ele><time>2026-04-25T07:38:21.937Z</time></trkpt><trkpt lat="43.899705" lon="12.65329"><ele>83.4</ele><time>2026-04-25T07:38:22.937Z</time></trkpt><trkpt lat="43.8995883" lon="12.6533233"><ele>82.6</ele><time>2026-04-25T07:38:23.937Z</time></trkpt><trkpt lat="43.8994867" lon="12.6533467"><ele>81.8</ele><time>2026-04-25T07:38:24.936Z</time></trkpt><trkpt lat="43.8994117" lon="12.6533667"><ele>81.0</ele><time>2026-04-25T07:38:25.937Z</time></trkpt><trkpt lat="43.8993217" lon="12.6534067"><ele>81.0</ele><time>2026-04-25T07:38:27.937Z</time></trkpt><trkpt lat="43.8992567" lon="12.6534283"><ele>81.0</ele><time>2026-04-25T07:38:29.937Z</time></trkpt><trkpt lat="43.8991883" lon="12.6534733"><ele>81.0</ele><time>2026-04-25T07:38:31.937Z</time></trkpt><trkpt lat="43.899095" lon="12.6536117"><ele>81.0</ele><time>2026-04-25T07:38:33.936Z</time></trkpt><trkpt lat="43.8990333" lon="12.6537067"><ele>81.0</ele><time>2026-04-25T07:38:34.936Z</time></trkpt><trkpt lat="43.8989633" lon="12.653805"><ele>79.6</ele><time>2026-04-25T07:38:35.937Z</time></trkpt><trkpt lat="43.8988917" lon="12.6539033"><ele>78.19999999999999</ele><time>2026-04-25T07:38:36.937Z</time></trkpt><trkpt lat="43.89882" lon="12.6539967"><ele>76.80000000000001</ele><time>2026-04-25T07:38:37.937Z</time></trkpt><trkpt lat="43.8987533" lon="12.654085"><ele>75.4</ele><time>2026-04-25T07:38:38.937Z</time></trkpt><trkpt lat="43.8986867" lon="12.6541567"><ele>74.0</ele><time>2026-04-25T07:38:39.937Z</time></trkpt><trkpt lat="43.8986133" lon="12.6542"><ele>74.0</ele><time>2026-04-25T07:38:40.937Z</time></trkpt><trkpt lat="43.8985383" lon="12.6542067"><ele>74.0</ele><time>2026-04-25T07:38:41.937Z</time></trkpt><trkpt lat="43.89847" lon="12.6541817"><ele>74.0</ele><time>2026-04-25T07:38:42.937Z</time></trkpt><trkpt lat="43.8984167" lon="12.6541267"><ele>74.0</ele><time>2026-04-25T07:38:43.937Z</time></trkpt><trkpt lat="43.898375" lon="12.6540567"><ele>74.0</ele><time>2026-04-25T07:38:44.937Z</time></trkpt><trkpt lat="43.89834" lon="12.65397"><ele>74.0</ele><time>2026-04-25T07:38:45.937Z</time></trkpt><trkpt lat="43.8983083" lon="12.65387"><ele>74.0</ele><time>2026-04-25T07:38:46.936Z</time></trkpt><trkpt lat="43.8982717" lon="12.6537583"><ele>74.0</ele><time>2026-04-25T07:38:47.937Z</time></trkpt><trkpt lat="43.89823" lon="12.653645"><ele>74.0</ele><time>2026-04-25T07:38:48.937Z</time></trkpt><trkpt lat="43.8981917" lon="12.6535267"><ele>74.0</ele><time>2026-04-25T07:38:49.937Z</time></trkpt><trkpt lat="43.8981567" lon="12.6534033"><ele>74.0</ele><time>2026-04-25T07:38:50.937Z</time></trkpt><trkpt lat="43.898125" lon="12.653275"><ele>74.0</ele><time>2026-04-25T07:38:51.936Z</time></trkpt><trkpt lat="43.898085" lon="12.6531467"><ele>74.0</ele><time>2026-04-25T07:38:52.937Z</time></trkpt><trkpt lat="43.898035" lon="12.65303"><ele>74.0</ele><time>2026-04-25T07:38:53.936Z</time></trkpt><trkpt lat="43.89797" lon="12.65293"><ele>74.0</ele><time>2026-04-25T07:38:54.937Z</time></trkpt><trkpt lat="43.8978967" lon="12.6528533"><ele>74.0</ele><time>2026-04-25T07:38:55.937Z</time></trkpt><trkpt lat="43.8978167" lon="12.6527917"><ele>74.0</ele><time>2026-04-25T07:38:56.936Z</time></trkpt><trkpt lat="43.8977317" lon="12.6527333"><ele>74.0</ele><time>2026-04-25T07:38:57.936Z</time></trkpt><trkpt lat="43.8976417" lon="12.6526683"><ele>74.0</ele><time>2026-04-25T07:38:58.937Z</time></trkpt><trkpt lat="43.8975583" lon="12.6526"><ele>74.0</ele><time>2026-04-25T07:38:59.936Z</time></trkpt><trkpt lat="43.8974817" lon="12.6525267"><ele>74.0</ele><time>2026-04-25T07:39:00.936Z</time></trkpt><trkpt lat="43.89741" lon="12.6524483"><ele>74.0</ele><time>2026-04-25T07:39:01.936Z</time></trkpt><trkpt lat="43.897345" lon="12.6523683"><ele>74.14285714285714</ele><time>2026-04-25T07:39:02.937Z</time></trkpt><trkpt lat="43.8972883" lon="12.65229"><ele>74.28571428571428</ele><time>2026-04-25T07:39:03.937Z</time></trkpt><trkpt lat="43.89725" lon="12.6522083"><ele>74.42857142857142</ele><time>2026-04-25T07:39:04.937Z</time></trkpt><trkpt lat="43.8972283" lon="12.6521183"><ele>74.57142857142857</ele><time>2026-04-25T07:39:05.937Z</time></trkpt><trkpt lat="43.897225" lon="12.6520217"><ele>74.71428571428571</ele><time>2026-04-25T07:39:06.937Z</time></trkpt><trkpt lat="43.89724" lon="12.651925"><ele>74.85714285714285</ele><time>2026-04-25T07:39:07.936Z</time></trkpt><trkpt lat="43.8972683" lon="12.6518367"><ele>75.0</ele><time>2026-04-25T07:39:08.937Z</time></trkpt><trkpt lat="43.897305" lon="12.6517533"><ele>75.0</ele><time>2026-04-25T07:39:09.937Z</time></trkpt><trkpt lat="43.897345" lon="12.651665"><ele>75.0</ele><time>2026-04-25T07:39:10.937Z</time></trkpt><trkpt lat="43.8973767" lon="12.651575"><ele>75.0</ele><time>2026-04-25T07:39:11.937Z</time></trkpt><trkpt lat="43.897395" lon="12.6514767"><ele>75.0</ele><time>2026-04-25T07:39:12.937Z</time></trkpt><trkpt lat="43.8974033" lon="12.6513733"><ele>75.0</ele><time>2026-04-25T07:39:13.937Z</time></trkpt><trkpt lat="43.897395" lon="12.6512783"><ele>75.0</ele><time>2026-04-25T07:39:14.936Z</time></trkpt><trkpt lat="43.8973633" lon="12.6511217"><ele>75.2</ele><time>2026-04-25T07:39:16.937Z</time></trkpt><trkpt lat="43.8973167" lon="12.651015"><ele>75.4</ele><time>2026-04-25T07:39:18.937Z</time></trkpt><trkpt lat="43.89726" lon="12.65094"><ele>75.6</ele><time>2026-04-25T07:39:20.937Z</time></trkpt><trkpt lat="43.8971717" lon="12.6508583"><ele>75.8</ele><time>2026-04-25T07:39:22.937Z</time></trkpt><trkpt lat="43.897075" lon="12.6507667"><ele>76.0</ele><time>2026-04-25T07:39:24.937Z</time></trkpt><trkpt lat="43.8970083" lon="12.65064"><ele>76.0</ele><time>2026-04-25T07:39:26.937Z</time></trkpt><trkpt lat="43.8969983" lon="12.6504833"><ele>76.0</ele><time>2026-04-25T07:39:28.937Z</time></trkpt><trkpt lat="43.8970083" lon="12.6503217"><ele>76.0</ele><time>2026-04-25T07:39:30.937Z</time></trkpt><trkpt lat="43.8970283" lon="12.6501667"><ele>76.0</ele><time>2026-04-25T07:39:32.937Z</time></trkpt><trkpt lat="43.89706" lon="12.6500017"><ele>75.8</ele><time>2026-04-25T07:39:34.937Z</time></trkpt><trkpt lat="43.897115" lon="12.64987"><ele>75.6</ele><time>2026-04-25T07:39:36.936Z</time></trkpt><trkpt lat="43.8972267" lon="12.6497767"><ele>75.4</ele><time>2026-04-25T07:39:38.937Z</time></trkpt><trkpt lat="43.897295" lon="12.64974"><ele>75.2</ele><time>2026-04-25T07:39:39.937Z</time></trkpt><trkpt lat="43.8973617" lon="12.649705"><ele>75.0</ele><time>2026-04-25T07:39:40.937Z</time></trkpt><trkpt lat="43.8974317" lon="12.649655"><ele>75.0</ele><time>2026-04-25T07:39:41.936Z</time></trkpt><trkpt lat="43.8974917" lon="12.6495817"><ele>75.0</ele><time>2026-04-25T07:39:42.937Z</time></trkpt><trkpt lat="43.8975433" lon="12.6494933"><ele>75.0</ele><time>2026-04-25T07:39:43.937Z</time></trkpt><trkpt lat="43.8975733" lon="12.649395"><ele>75.0</ele><time>2026-04-25T07:39:44.937Z</time></trkpt><trkpt lat="43.89758" lon="12.6492917"><ele>75.0</ele><time>2026-04-25T07:39:45.937Z</time></trkpt><trkpt lat="43.89756" lon="12.6491833"><ele>75.0</ele><time>2026-04-25T07:39:46.937Z</time></trkpt><trkpt lat="43.8975217" lon="12.6490683"><ele>76.75</ele><time>2026-04-25T07:39:47.937Z</time></trkpt><trkpt lat="43.897465" lon="12.6489483"><ele>78.5</ele><time>2026-04-25T07:39:48.937Z</time></trkpt><trkpt lat="43.8973983" lon="12.6488283"><ele>80.25</ele><time>2026-04-25T07:39:49.937Z</time></trkpt><trkpt lat="43.897315" lon="12.6487083"><ele>82.0</ele><time>2026-04-25T07:39:50.936Z</time></trkpt><trkpt lat="43.897215" lon="12.6485933"><ele>83.0</ele><time>2026-04-25T07:39:51.936Z</time></trkpt><trkpt lat="43.8971067" lon="12.6484833"><ele>84.0</ele><time>2026-04-25T07:39:52.937Z</time></trkpt><trkpt lat="43.8969967" lon="12.6483817"><ele>85.0</ele><time>2026-04-25T07:39:53.937Z</time></trkpt><trkpt lat="43.896895" lon="12.6482867"><ele>86.0</ele><time>2026-04-25T07:39:54.936Z</time></trkpt><trkpt lat="43.896795" lon="12.648205"><ele>85.0</ele><time>2026-04-25T07:39:55.937Z</time></trkpt><trkpt lat="43.8966883" lon="12.64814"><ele>84.0</ele><time>2026-04-25T07:39:56.937Z</time></trkpt><trkpt lat="43.8965683" lon="12.6480767"><ele>83.0</ele><time>2026-04-25T07:39:57.937Z</time></trkpt><trkpt lat="43.8964533" lon="12.6480017"><ele>82.0</ele><time>2026-04-25T07:39:58.937Z</time></trkpt><trkpt lat="43.8963467" lon="12.6479167"><ele>82.0</ele><time>2026-04-25T07:39:59.936Z</time></trkpt><trkpt lat="43.8962417" lon="12.6478317"><ele>82.0</ele><time>2026-04-25T07:40:00.936Z</time></trkpt><trkpt lat="43.8961367" lon="12.6477533"><ele>82.0</ele><time>2026-04-25T07:40:01.936Z</time></trkpt><trkpt lat="43.8960233" lon="12.6476783"><ele>82.0</ele><time>2026-04-25T07:40:02.937Z</time></trkpt><trkpt lat="43.895905" lon="12.6476083"><ele>82.25</ele><time>2026-04-25T07:40:03.936Z</time></trkpt><trkpt lat="43.8957833" lon="12.6475467"><ele>82.5</ele><time>2026-04-25T07:40:04.937Z</time></trkpt><trkpt lat="43.8956617" lon="12.6474883"><ele>82.75</ele><time>2026-04-25T07:40:05.937Z</time></trkpt><trkpt lat="43.895545" lon="12.6474317"><ele>83.0</ele><time>2026-04-25T07:40:06.937Z</time></trkpt><trkpt lat="43.89543" lon="12.6473667"><ele>83.0</ele><time>2026-04-25T07:40:07.937Z</time></trkpt><trkpt lat="43.8953167" lon="12.6473133"><ele>83.0</ele><time>2026-04-25T07:40:08.936Z</time></trkpt><trkpt lat="43.8952033" lon="12.6472667"><ele>83.0</ele><time>2026-04-25T07:40:09.937Z</time></trkpt><trkpt lat="43.8950817" lon="12.6472433"><ele>83.0</ele><time>2026-04-25T07:40:10.937Z</time></trkpt><trkpt lat="43.89495" lon="12.6472267"><ele>82.75</ele><time>2026-04-25T07:40:11.937Z</time></trkpt><trkpt lat="43.8948117" lon="12.64722"><ele>82.5</ele><time>2026-04-25T07:40:12.937Z</time></trkpt><trkpt lat="43.894675" lon="12.6472083"><ele>82.25</ele><time>2026-04-25T07:40:13.937Z</time></trkpt><trkpt lat="43.8945367" lon="12.647215"><ele>82.0</ele><time>2026-04-25T07:40:14.936Z</time></trkpt><trkpt lat="43.8944" lon="12.647215"><ele>82.0</ele><time>2026-04-25T07:40:15.937Z</time></trkpt><trkpt lat="43.8942683" lon="12.6472117"><ele>82.0</ele><time>2026-04-25T07:40:16.936Z</time></trkpt><trkpt lat="43.894135" lon="12.64721"><ele>82.0</ele><time>2026-04-25T07:40:17.937Z</time></trkpt><trkpt lat="43.8940017" lon="12.6471983"><ele>82.0</ele><time>2026-04-25T07:40:18.937Z</time></trkpt><trkpt lat="43.893875" lon="12.6471683"><ele>82.5</ele><time>2026-04-25T07:40:19.937Z</time></trkpt><trkpt lat="43.8937567" lon="12.6471283"><ele>83.0</ele><time>2026-04-25T07:40:20.936Z</time></trkpt><trkpt lat="43.89364" lon="12.6470717"><ele>83.5</ele><time>2026-04-25T07:40:21.937Z</time></trkpt><trkpt lat="43.89352" lon="12.6469967"><ele>84.0</ele><time>2026-04-25T07:40:22.937Z</time></trkpt><trkpt lat="43.893405" lon="12.6469183"><ele>84.0</ele><time>2026-04-25T07:40:23.937Z</time></trkpt><trkpt lat="43.8932867" lon="12.64684"><ele>84.0</ele><time>2026-04-25T07:40:24.937Z</time></trkpt><trkpt lat="43.8931683" lon="12.646765"><ele>84.0</ele><time>2026-04-25T07:40:25.937Z</time></trkpt><trkpt lat="43.8930517" lon="12.646695"><ele>84.0</ele><time>2026-04-25T07:40:26.936Z</time></trkpt><trkpt lat="43.89294" lon="12.64663"><ele>84.0</ele><time>2026-04-25T07:40:27.937Z</time></trkpt><trkpt lat="43.89283" lon="12.6465617"><ele>84.0</ele><time>2026-04-25T07:40:28.936Z</time></trkpt><trkpt lat="43.8927133" lon="12.6464933"><ele>84.0</ele><time>2026-04-25T07:40:29.936Z</time></trkpt><trkpt lat="43.8925967" lon="12.6464283"><ele>84.0</ele><time>2026-04-25T07:40:30.937Z</time></trkpt><trkpt lat="43.89248" lon="12.6463683"><ele>84.0</ele><time>2026-04-25T07:40:31.937Z</time></trkpt><trkpt lat="43.8923617" lon="12.6463"><ele>84.0</ele><time>2026-04-25T07:40:32.937Z</time></trkpt><trkpt lat="43.89224" lon="12.6462333"><ele>84.0</ele><time>2026-04-25T07:40:33.937Z</time></trkpt><trkpt lat="43.89212" lon="12.6461667"><ele>84.0</ele><time>2026-04-25T07:40:34.937Z</time></trkpt><trkpt lat="43.892005" lon="12.6460983"><ele>84.0</ele><time>2026-04-25T07:40:35.937Z</time></trkpt><trkpt lat="43.8918833" lon="12.646035"><ele>84.0</ele><time>2026-04-25T07:40:36.937Z</time></trkpt><trkpt lat="43.891755" lon="12.6459733"><ele>84.0</ele><time>2026-04-25T07:40:37.936Z</time></trkpt><trkpt lat="43.8916233" lon="12.6459183"><ele>84.0</ele><time>2026-04-25T07:40:38.937Z</time></trkpt><trkpt lat="43.891485" lon="12.6458683"><ele>83.75</ele><time>2026-04-25T07:40:39.937Z</time></trkpt><trkpt lat="43.891345" lon="12.6458233"><ele>83.5</ele><time>2026-04-25T07:40:40.937Z</time></trkpt><trkpt lat="43.8912033" lon="12.6457767"><ele>83.25</ele><time>2026-04-25T07:40:41.937Z</time></trkpt><trkpt lat="43.891065" lon="12.64573"><ele>83.0</ele><time>2026-04-25T07:40:42.936Z</time></trkpt><trkpt lat="43.8909283" lon="12.6456867"><ele>83.5</ele><time>2026-04-25T07:40:43.937Z</time></trkpt><trkpt lat="43.8907917" lon="12.64564"><ele>84.0</ele><time>2026-04-25T07:40:44.936Z</time></trkpt><trkpt lat="43.8906617" lon="12.6455883"><ele>84.5</ele><time>2026-04-25T07:40:45.937Z</time></trkpt><trkpt lat="43.89053" lon="12.64554"><ele>85.0</ele><time>2026-04-25T07:40:46.937Z</time></trkpt><trkpt lat="43.8903983" lon="12.645495"><ele>85.0</ele><time>2026-04-25T07:40:47.938Z</time></trkpt><trkpt lat="43.8902683" lon="12.6454583"><ele>85.0</ele><time>2026-04-25T07:40:48.938Z</time></trkpt><trkpt lat="43.8901367" lon="12.6454333"><ele>85.0</ele><time>2026-04-25T07:40:49.938Z</time></trkpt><trkpt lat="43.8900133" lon="12.6454183"><ele>85.0</ele><time>2026-04-25T07:40:50.938Z</time></trkpt><trkpt lat="43.889895" lon="12.645415"><ele>86.75</ele><time>2026-04-25T07:40:51.937Z</time></trkpt><trkpt lat="43.8897817" lon="12.64543"><ele>88.5</ele><time>2026-04-25T07:40:52.938Z</time></trkpt><trkpt lat="43.889665" lon="12.64546"><ele>90.25</ele><time>2026-04-25T07:40:53.938Z</time></trkpt><trkpt lat="43.8895433" lon="12.6454983"><ele>92.0</ele><time>2026-04-25T07:40:54.937Z</time></trkpt><trkpt lat="43.8894183" lon="12.6455383"><ele>92.0</ele><time>2026-04-25T07:40:55.938Z</time></trkpt><trkpt lat="43.8892917" lon="12.645585"><ele>92.0</ele><time>2026-04-25T07:40:56.938Z</time></trkpt><trkpt lat="43.8891683" lon="12.6456217"><ele>92.0</ele><time>2026-04-25T07:40:57.938Z</time></trkpt><trkpt lat="43.8890533" lon="12.6456483"><ele>92.0</ele><time>2026-04-25T07:40:58.938Z</time></trkpt><trkpt lat="43.8889467" lon="12.645655"><ele>93.5</ele><time>2026-04-25T07:40:59.938Z</time></trkpt><trkpt lat="43.8888383" lon="12.6456283"><ele>95.0</ele><time>2026-04-25T07:41:00.937Z</time></trkpt><trkpt lat="43.8887167" lon="12.6455667"><ele>96.5</ele><time>2026-04-25T07:41:01.937Z</time></trkpt><trkpt lat="43.8885783" lon="12.6454933"><ele>98.0</ele><time>2026-04-25T07:41:02.937Z</time></trkpt><trkpt lat="43.8884317" lon="12.64542"><ele>99.66666666666666</ele><time>2026-04-25T07:41:03.938Z</time></trkpt><trkpt lat="43.888285" lon="12.645345"><ele>101.33333333333334</ele><time>2026-04-25T07:41:04.938Z</time></trkpt><trkpt lat="43.8881417" lon="12.6452717"><ele>103.0</ele><time>2026-04-25T07:41:05.938Z</time></trkpt><trkpt lat="43.88801" lon="12.6452"><ele>101.2</ele><time>2026-04-25T07:41:06.938Z</time></trkpt><trkpt lat="43.8878933" lon="12.6451283"><ele>99.4</ele><time>2026-04-25T07:41:07.937Z</time></trkpt><trkpt lat="43.8877917" lon="12.6450567"><ele>97.60000000000001</ele><time>2026-04-25T07:41:08.938Z</time></trkpt><trkpt lat="43.8877017" lon="12.644985"><ele>95.80000000000001</ele><time>2026-04-25T07:41:09.938Z</time></trkpt><trkpt lat="43.8876217" lon="12.6449317"><ele>94.0</ele><time>2026-04-25T07:41:10.937Z</time></trkpt><trkpt lat="43.88754" lon="12.6449083"><ele>94.0</ele><time>2026-04-25T07:41:11.938Z</time></trkpt><trkpt lat="43.8874583" lon="12.64491"><ele>94.0</ele><time>2026-04-25T07:41:12.938Z</time></trkpt><trkpt lat="43.8873617" lon="12.6449317"><ele>94.0</ele><time>2026-04-25T07:41:13.938Z</time></trkpt><trkpt lat="43.887255" lon="12.6449583"><ele>94.0</ele><time>2026-04-25T07:41:14.938Z</time></trkpt><trkpt lat="43.8871383" lon="12.64498"><ele>94.0</ele><time>2026-04-25T07:41:15.938Z</time></trkpt><trkpt lat="43.887015" lon="12.6449883"><ele>94.0</ele><time>2026-04-25T07:41:16.938Z</time></trkpt><trkpt lat="43.886885" lon="12.6449683"><ele>94.0</ele><time>2026-04-25T07:41:17.938Z</time></trkpt><trkpt lat="43.88675" lon="12.6449317"><ele>94.0</ele><time>2026-04-25T07:41:18.937Z</time></trkpt><trkpt lat="43.8866167" lon="12.64489"><ele>94.0</ele><time>2026-04-25T07:41:19.938Z</time></trkpt><trkpt lat="43.8864817" lon="12.6448517"><ele>97.25</ele><time>2026-04-25T07:41:20.938Z</time></trkpt><trkpt lat="43.88635" lon="12.6448017"><ele>100.5</ele><time>2026-04-25T07:41:21.937Z</time></trkpt><trkpt lat="43.8862233" lon="12.6447417"><ele>103.75</ele><time>2026-04-25T07:41:22.938Z</time></trkpt><trkpt lat="43.8861033" lon="12.6446667"><ele>107.0</ele><time>2026-04-25T07:41:23.937Z</time></trkpt><trkpt lat="43.885995" lon="12.6445767"><ele>105.5</ele><time>2026-04-25T07:41:24.938Z</time></trkpt><trkpt lat="43.8858967" lon="12.6444683"><ele>104.0</ele><time>2026-04-25T07:41:25.938Z</time></trkpt><trkpt lat="43.8858067" lon="12.6443583"><ele>102.5</ele><time>2026-04-25T07:41:26.938Z</time></trkpt><trkpt lat="43.885725" lon="12.6442567"><ele>101.0</ele><time>2026-04-25T07:41:27.938Z</time></trkpt><trkpt lat="43.8856533" lon="12.64415"><ele>101.0</ele><time>2026-04-25T07:41:28.938Z</time></trkpt><trkpt lat="43.885585" lon="12.644025"><ele>101.0</ele><time>2026-04-25T07:41:29.938Z</time></trkpt><trkpt lat="43.88552" lon="12.6438833"><ele>101.0</ele><time>2026-04-25T07:41:30.937Z</time></trkpt><trkpt lat="43.8854517" lon="12.6437417"><ele>101.0</ele><time>2026-04-25T07:41:31.938Z</time></trkpt><trkpt lat="43.885395" lon="12.6435983"><ele>100.5</ele><time>2026-04-25T07:41:32.937Z</time></trkpt><trkpt lat="43.8853283" lon="12.6434583"><ele>100.0</ele><time>2026-04-25T07:41:33.938Z</time></trkpt><trkpt lat="43.8852467" lon="12.6433267"><ele>99.5</ele><time>2026-04-25T07:41:34.937Z</time></trkpt><trkpt lat="43.885155" lon="12.643205"><ele>99.0</ele><time>2026-04-25T07:41:35.937Z</time></trkpt><trkpt lat="43.8850717" lon="12.64309"><ele>99.0</ele><time>2026-04-25T07:41:36.938Z</time></trkpt><trkpt lat="43.8849883" lon="12.6429883"><ele>99.0</ele><time>2026-04-25T07:41:37.938Z</time></trkpt><trkpt lat="43.884895" lon="12.6429183"><ele>99.0</ele><time>2026-04-25T07:41:38.938Z</time></trkpt><trkpt lat="43.8847917" lon="12.6428817"><ele>99.0</ele><time>2026-04-25T07:41:39.938Z</time></trkpt><trkpt lat="43.884675" lon="12.6428617"><ele>99.0</ele><time>2026-04-25T07:41:40.938Z</time></trkpt><trkpt lat="43.8845533" lon="12.6428517"><ele>99.0</ele><time>2026-04-25T07:41:41.938Z</time></trkpt><trkpt lat="43.8844283" lon="12.6428467"><ele>99.0</ele><time>2026-04-25T07:41:42.938Z</time></trkpt><trkpt lat="43.8843" lon="12.642845"><ele>99.0</ele><time>2026-04-25T07:41:43.938Z</time></trkpt><trkpt lat="43.88417" lon="12.64284"><ele>99.0</ele><time>2026-04-25T07:41:44.938Z</time></trkpt><trkpt lat="43.88405" lon="12.6428367"><ele>99.80000000000001</ele><time>2026-04-25T07:41:45.937Z</time></trkpt><trkpt lat="43.88394" lon="12.64283"><ele>100.60000000000001</ele><time>2026-04-25T07:41:46.937Z</time></trkpt><trkpt lat="43.8838333" lon="12.6428183"><ele>101.4</ele><time>2026-04-25T07:41:47.938Z</time></trkpt><trkpt lat="43.8837217" lon="12.64281"><ele>102.2</ele><time>2026-04-25T07:41:48.938Z</time></trkpt><trkpt lat="43.883605" lon="12.6428183"><ele>103.0</ele><time>2026-04-25T07:41:49.938Z</time></trkpt><trkpt lat="43.8834867" lon="12.6428283"><ele>105.5</ele><time>2026-04-25T07:41:50.938Z</time></trkpt><trkpt lat="43.88336" lon="12.6428483"><ele>108.0</ele><time>2026-04-25T07:41:51.937Z</time></trkpt><trkpt lat="43.8832333" lon="12.6428733"><ele>110.5</ele><time>2026-04-25T07:41:52.937Z</time></trkpt><trkpt lat="43.8831017" lon="12.642895"><ele>113.0</ele><time>2026-04-25T07:41:53.938Z</time></trkpt><trkpt lat="43.882965" lon="12.6429133"><ele>113.0</ele><time>2026-04-25T07:41:54.938Z</time></trkpt><trkpt lat="43.88282" lon="12.642935"><ele>113.0</ele><time>2026-04-25T07:41:55.937Z</time></trkpt><trkpt lat="43.8826783" lon="12.6429533"><ele>113.0</ele><time>2026-04-25T07:41:56.937Z</time></trkpt><trkpt lat="43.88253" lon="12.6429633"><ele>113.0</ele><time>2026-04-25T07:41:57.937Z</time></trkpt><trkpt lat="43.88237" lon="12.6429433"><ele>114.33333333333333</ele><time>2026-04-25T07:41:58.937Z</time></trkpt><trkpt lat="43.882205" lon="12.64292"><ele>115.66666666666666</ele><time>2026-04-25T07:41:59.938Z</time></trkpt><trkpt lat="43.8820417" lon="12.642905"><ele>117.0</ele><time>2026-04-25T07:42:00.937Z</time></trkpt><trkpt lat="43.8818783" lon="12.6428967"><ele>118.0</ele><time>2026-04-25T07:42:01.938Z</time></trkpt><trkpt lat="43.8817317" lon="12.6428817"><ele>119.0</ele><time>2026-04-25T07:42:02.937Z</time></trkpt><trkpt lat="43.881605" lon="12.6428683"><ele>120.0</ele><time>2026-04-25T07:42:03.938Z</time></trkpt><trkpt lat="43.88149" lon="12.6428533"><ele>121.0</ele><time>2026-04-25T07:42:04.938Z</time></trkpt><trkpt lat="43.8813783" lon="12.642845"><ele>121.0</ele><time>2026-04-25T07:42:05.937Z</time></trkpt><trkpt lat="43.8812583" lon="12.6428483"><ele>121.0</ele><time>2026-04-25T07:42:06.938Z</time></trkpt><trkpt lat="43.8811217" lon="12.642865"><ele>121.0</ele><time>2026-04-25T07:42:07.938Z</time></trkpt><trkpt lat="43.8809817" lon="12.6428917"><ele>121.0</ele><time>2026-04-25T07:42:08.938Z</time></trkpt><trkpt lat="43.8808383" lon="12.642935"><ele>119.0</ele><time>2026-04-25T07:42:09.938Z</time></trkpt><trkpt lat="43.8806967" lon="12.642985"><ele>117.0</ele><time>2026-04-25T07:42:10.938Z</time></trkpt><trkpt lat="43.8805467" lon="12.643035"><ele>115.0</ele><time>2026-04-25T07:42:11.938Z</time></trkpt><trkpt lat="43.8803983" lon="12.6430867"><ele>115.0</ele><time>2026-04-25T07:42:12.938Z</time></trkpt><trkpt lat="43.8802567" lon="12.64314"><ele>115.0</ele><time>2026-04-25T07:42:13.938Z</time></trkpt><trkpt lat="43.880115" lon="12.6431833"><ele>115.0</ele><time>2026-04-25T07:42:14.938Z</time></trkpt><trkpt lat="43.8799733" lon="12.643205"><ele>115.0</ele><time>2026-04-25T07:42:15.938Z</time></trkpt><trkpt lat="43.8798233" lon="12.643215"><ele>112.33333333333334</ele><time>2026-04-25T07:42:16.938Z</time></trkpt><trkpt lat="43.879665" lon="12.6432233"><ele>109.66666666666666</ele><time>2026-04-25T07:42:17.938Z</time></trkpt><trkpt lat="43.879495" lon="12.643245"><ele>107.0</ele><time>2026-04-25T07:42:18.938Z</time></trkpt><trkpt lat="43.8793267" lon="12.6432783"><ele>106.66666666666666</ele><time>2026-04-25T07:42:19.938Z</time></trkpt><trkpt lat="43.879165" lon="12.64331"><ele>106.33333333333334</ele><time>2026-04-25T07:42:20.938Z</time></trkpt><trkpt lat="43.879015" lon="12.6433383"><ele>106.0</ele><time>2026-04-25T07:42:21.938Z</time></trkpt><trkpt lat="43.8788717" lon="12.6433667"><ele>106.0</ele><time>2026-04-25T07:42:22.938Z</time></trkpt><trkpt lat="43.8787417" lon="12.6434"><ele>106.0</ele><time>2026-04-25T07:42:23.938Z</time></trkpt><trkpt lat="43.8786183" lon="12.6434483"><ele>106.0</ele><time>2026-04-25T07:42:24.938Z</time></trkpt><trkpt lat="43.878505" lon="12.6435117"><ele>106.0</ele><time>2026-04-25T07:42:25.938Z</time></trkpt><trkpt lat="43.8784" lon="12.6435983"><ele>111.75</ele><time>2026-04-25T07:42:26.938Z</time></trkpt><trkpt lat="43.8783017" lon="12.6437083"><ele>117.5</ele><time>2026-04-25T07:42:27.938Z</time></trkpt><trkpt lat="43.8782133" lon="12.6438183"><ele>123.25</ele><time>2026-04-25T07:42:28.938Z</time></trkpt><trkpt lat="43.87812" lon="12.643915"><ele>129.0</ele><time>2026-04-25T07:42:29.938Z</time></trkpt><trkpt lat="43.8780167" lon="12.64398"><ele>129.0</ele><time>2026-04-25T07:42:30.938Z</time></trkpt><trkpt lat="43.8779067" lon="12.644015"><ele>129.0</ele><time>2026-04-25T07:42:31.937Z</time></trkpt><trkpt lat="43.877785" lon="12.6440083"><ele>129.0</ele><time>2026-04-25T07:42:32.937Z</time></trkpt><trkpt lat="43.87765" lon="12.6439817"><ele>129.0</ele><time>2026-04-25T07:42:33.938Z</time></trkpt><trkpt lat="43.87752" lon="12.6439367"><ele>125.0</ele><time>2026-04-25T07:42:34.938Z</time></trkpt><trkpt lat="43.877395" lon="12.6438733"><ele>121.0</ele><time>2026-04-25T07:42:35.938Z</time></trkpt><trkpt lat="43.877275" lon="12.6438117"><ele>117.0</ele><time>2026-04-25T07:42:36.938Z</time></trkpt><trkpt lat="43.8771783" lon="12.6437367"><ele>113.0</ele><time>2026-04-25T07:42:37.938Z</time></trkpt><trkpt lat="43.877105" lon="12.6436583"><ele>112.33333333333333</ele><time>2026-04-25T07:42:38.937Z</time></trkpt><trkpt lat="43.877055" lon="12.64356"><ele>111.66666666666666</ele><time>2026-04-25T07:42:39.938Z</time></trkpt><trkpt lat="43.8770217" lon="12.6434533"><ele>111.0</ele><time>2026-04-25T07:42:40.938Z</time></trkpt><trkpt lat="43.87699" lon="12.6433583"><ele>110.33333333333334</ele><time>2026-04-25T07:42:41.937Z</time></trkpt><trkpt lat="43.8769367" lon="12.64324"><ele>109.66666666666667</ele><time>2026-04-25T07:42:43.938Z</time></trkpt><trkpt lat="43.8768683" lon="12.6431683"><ele>109.0</ele><time>2026-04-25T07:42:46.937Z</time></trkpt><trkpt lat="43.8767883" lon="12.6430817"><ele>110.16666666666667</ele><time>2026-04-25T07:42:48.938Z</time></trkpt><trkpt lat="43.8767333" lon="12.643025"><ele>111.33333333333334</ele><time>2026-04-25T07:42:49.937Z</time></trkpt><trkpt lat="43.87668" lon="12.64297"><ele>112.5</ele><time>2026-04-25T07:42:50.937Z</time></trkpt><trkpt lat="43.8765933" lon="12.6428567"><ele>113.66666666666666</ele><time>2026-04-25T07:42:52.938Z</time></trkpt><trkpt lat="43.876535" lon="12.6427783"><ele>114.83333333333333</ele><time>2026-04-25T07:42:54.937Z</time></trkpt><trkpt lat="43.8766083" lon="12.6428633"><ele>116.0</ele><time>2026-04-25T07:43:06.937Z</time></trkpt><trkpt lat="43.8766683" lon="12.6429183"><ele>116.66666666666666</ele><time>2026-04-25T07:43:07.937Z</time></trkpt><trkpt lat="43.8767283" lon="12.6429833"><ele>117.33333333333333</ele><time>2026-04-25T07:43:08.937Z</time></trkpt><trkpt lat="43.87679" lon="12.6430517"><ele>118.0</ele><time>2026-04-25T07:43:09.936Z</time></trkpt><trkpt lat="43.8768533" lon="12.64312"><ele>118.66666666666666</ele><time>2026-04-25T07:43:10.937Z</time></trkpt><trkpt lat="43.8769083" lon="12.6431717"><ele>119.33333333333333</ele><time>2026-04-25T07:43:11.937Z</time></trkpt><trkpt lat="43.87698" lon="12.6432017"><ele>120.0</ele><time>2026-04-25T07:43:13.936Z</time></trkpt><trkpt lat="43.876955" lon="12.6430683"><ele>119.2</ele><time>2026-04-25T07:43:16.937Z</time></trkpt><trkpt lat="43.8769" lon="12.64298"><ele>118.4</ele><time>2026-04-25T07:43:17.937Z</time></trkpt><trkpt lat="43.8768483" lon="12.6428783"><ele>117.6</ele><time>2026-04-25T07:43:18.936Z</time></trkpt><trkpt lat="43.8768083" lon="12.6427533"><ele>116.8</ele><time>2026-04-25T07:43:19.936Z</time></trkpt><trkpt lat="43.876775" lon="12.6426"><ele>116.0</ele><time>2026-04-25T07:43:20.937Z</time></trkpt><trkpt lat="43.876745" lon="12.6424267"><ele>116.0</ele><time>2026-04-25T07:43:21.937Z</time></trkpt><trkpt lat="43.8767083" lon="12.6422517"><ele>116.0</ele><time>2026-04-25T07:43:22.936Z</time></trkpt><trkpt lat="43.8766583" lon="12.642085"><ele>116.0</ele><time>2026-04-25T07:43:23.937Z</time></trkpt><trkpt lat="43.876605" lon="12.6419333"><ele>116.0</ele><time>2026-04-25T07:43:24.937Z</time></trkpt><trkpt lat="43.8765383" lon="12.6417917"><ele>115.0</ele><time>2026-04-25T07:43:25.937Z</time></trkpt><trkpt lat="43.8764433" lon="12.641655"><ele>114.0</ele><time>2026-04-25T07:43:26.937Z</time></trkpt><trkpt lat="43.8763383" lon="12.6415233"><ele>113.0</ele><time>2026-04-25T07:43:27.936Z</time></trkpt><trkpt lat="43.8762317" lon="12.6414017"><ele>112.0</ele><time>2026-04-25T07:43:28.937Z</time></trkpt><trkpt lat="43.876135" lon="12.6412767"><ele>112.0</ele><time>2026-04-25T07:43:29.937Z</time></trkpt><trkpt lat="43.8760517" lon="12.6411433"><ele>112.0</ele><time>2026-04-25T07:43:30.937Z</time></trkpt><trkpt lat="43.8759817" lon="12.6409933"><ele>112.0</ele><time>2026-04-25T07:43:31.937Z</time></trkpt><trkpt lat="43.875915" lon="12.6408433"><ele>112.0</ele><time>2026-04-25T07:43:32.937Z</time></trkpt><trkpt lat="43.8758467" lon="12.640685"><ele>112.0</ele><time>2026-04-25T07:43:33.937Z</time></trkpt><trkpt lat="43.8757783" lon="12.640525"><ele>112.0</ele><time>2026-04-25T07:43:34.937Z</time></trkpt><trkpt lat="43.8757117" lon="12.64036"><ele>112.0</ele><time>2026-04-25T07:43:35.937Z</time></trkpt><trkpt lat="43.8756367" lon="12.640185"><ele>112.0</ele><time>2026-04-25T07:43:36.937Z</time></trkpt><trkpt lat="43.8755533" lon="12.640015"><ele>112.0</ele><time>2026-04-25T07:43:37.936Z</time></trkpt><trkpt lat="43.87546" lon="12.63985"><ele>112.0</ele><time>2026-04-25T07:43:38.937Z</time></trkpt><trkpt lat="43.8753567" lon="12.6396783"><ele>112.0</ele><time>2026-04-25T07:43:39.937Z</time></trkpt><trkpt lat="43.875255" lon="12.63952"><ele>114.0</ele><time>2026-04-25T07:43:40.937Z</time></trkpt><trkpt lat="43.8751517" lon="12.6393633"><ele>116.0</ele><time>2026-04-25T07:43:41.937Z</time></trkpt><trkpt lat="43.8750433" lon="12.639205"><ele>118.0</ele><time>2026-04-25T07:43:42.936Z</time></trkpt><trkpt lat="43.874935" lon="12.6390533"><ele>118.0</ele><time>2026-04-25T07:43:43.937Z</time></trkpt><trkpt lat="43.8748333" lon="12.6389167"><ele>118.0</ele><time>2026-04-25T07:43:44.936Z</time></trkpt><trkpt lat="43.8747317" lon="12.638805"><ele>118.0</ele><time>2026-04-25T07:43:45.937Z</time></trkpt><trkpt lat="43.8746217" lon="12.6387133"><ele>118.0</ele><time>2026-04-25T07:43:46.937Z</time></trkpt><trkpt lat="43.8744967" lon="12.63863"><ele>117.75</ele><time>2026-04-25T07:43:47.937Z</time></trkpt><trkpt lat="43.8743633" lon="12.6385433"><ele>117.5</ele><time>2026-04-25T07:43:48.936Z</time></trkpt><trkpt lat="43.87424" lon="12.6384383"><ele>117.25</ele><time>2026-04-25T07:43:49.936Z</time></trkpt><trkpt lat="43.87411" lon="12.6383217"><ele>117.0</ele><time>2026-04-25T07:43:50.937Z</time></trkpt><trkpt lat="43.8739833" lon="12.63821"><ele>117.0</ele><time>2026-04-25T07:43:51.937Z</time></trkpt><trkpt lat="43.8738667" lon="12.6381"><ele>117.0</ele><time>2026-04-25T07:43:52.937Z</time></trkpt><trkpt lat="43.8737583" lon="12.6379783"><ele>117.0</ele><time>2026-04-25T07:43:53.937Z</time></trkpt><trkpt lat="43.873655" lon="12.6378417"><ele>117.0</ele><time>2026-04-25T07:43:54.937Z</time></trkpt><trkpt lat="43.873555" lon="12.6376967"><ele>117.75</ele><time>2026-04-25T07:43:55.937Z</time></trkpt><trkpt lat="43.87346" lon="12.6375567"><ele>118.5</ele><time>2026-04-25T07:43:56.937Z</time></trkpt><trkpt lat="43.8733633" lon="12.637405"><ele>119.25</ele><time>2026-04-25T07:43:57.937Z</time></trkpt><trkpt lat="43.87326" lon="12.6372333"><ele>120.0</ele><time>2026-04-25T07:43:58.937Z</time></trkpt><trkpt lat="43.8731583" lon="12.6370683"><ele>119.33333333333334</ele><time>2026-04-25T07:43:59.937Z</time></trkpt><trkpt lat="43.8730533" lon="12.636895"><ele>118.66666666666667</ele><time>2026-04-25T07:44:00.936Z</time></trkpt><trkpt lat="43.8729567" lon="12.636715"><ele>118.0</ele><time>2026-04-25T07:44:01.937Z</time></trkpt><trkpt lat="43.87287" lon="12.6365367"><ele>118.0</ele><time>2026-04-25T07:44:02.937Z</time></trkpt><trkpt lat="43.8727867" lon="12.6363617"><ele>118.0</ele><time>2026-04-25T07:44:03.937Z</time></trkpt><trkpt lat="43.87271" lon="12.6361917"><ele>118.0</ele><time>2026-04-25T07:44:04.936Z</time></trkpt><trkpt lat="43.8726417" lon="12.6360217"><ele>118.0</ele><time>2026-04-25T07:44:05.936Z</time></trkpt><trkpt lat="43.8725717" lon="12.635845"><ele>118.0</ele><time>2026-04-25T07:44:06.937Z</time></trkpt><trkpt lat="43.8725033" lon="12.635665"><ele>118.0</ele><time>2026-04-25T07:44:07.937Z</time></trkpt><trkpt lat="43.8724317" lon="12.6354867"><ele>118.0</ele><time>2026-04-25T07:44:08.937Z</time></trkpt><trkpt lat="43.8723567" lon="12.6353017"><ele>118.0</ele><time>2026-04-25T07:44:09.936Z</time></trkpt><trkpt lat="43.8722767" lon="12.63513"><ele>118.0</ele><time>2026-04-25T07:44:10.936Z</time></trkpt><trkpt lat="43.87219" lon="12.63499"><ele>118.0</ele><time>2026-04-25T07:44:11.937Z</time></trkpt><trkpt lat="43.8720933" lon="12.63488"><ele>118.0</ele><time>2026-04-25T07:44:12.937Z</time></trkpt><trkpt lat="43.87198" lon="12.6347933"><ele>118.0</ele><time>2026-04-25T07:44:13.936Z</time></trkpt><trkpt lat="43.87187" lon="12.6347083"><ele>118.2</ele><time>2026-04-25T07:44:14.937Z</time></trkpt><trkpt lat="43.8717683" lon="12.63463"><ele>118.4</ele><time>2026-04-25T07:44:15.937Z</time></trkpt><trkpt lat="43.8716833" lon="12.6345567"><ele>118.60000000000001</ele><time>2026-04-25T07:44:16.937Z</time></trkpt><trkpt lat="43.8716017" lon="12.634475"><ele>118.80000000000001</ele><time>2026-04-25T07:44:17.937Z</time></trkpt><trkpt lat="43.8715167" lon="12.634375"><ele>119.0</ele><time>2026-04-25T07:44:18.937Z</time></trkpt><trkpt lat="43.87143" lon="12.634265"><ele>119.5</ele><time>2026-04-25T07:44:19.937Z</time></trkpt><trkpt lat="43.8713433" lon="12.6341483"><ele>120.0</ele><time>2026-04-25T07:44:20.937Z</time></trkpt><trkpt lat="43.8712483" lon="12.634025"><ele>120.5</ele><time>2026-04-25T07:44:21.936Z</time></trkpt><trkpt lat="43.8711433" lon="12.6339067"><ele>121.0</ele><time>2026-04-25T07:44:22.937Z</time></trkpt><trkpt lat="43.871035" lon="12.633795"><ele>120.5</ele><time>2026-04-25T07:44:23.937Z</time></trkpt><trkpt lat="43.870935" lon="12.6336833"><ele>120.0</ele><time>2026-04-25T07:44:24.937Z</time></trkpt><trkpt lat="43.87084" lon="12.6335767"><ele>119.5</ele><time>2026-04-25T07:44:25.937Z</time></trkpt><trkpt lat="43.8707567" lon="12.6334717"><ele>119.0</ele><time>2026-04-25T07:44:26.936Z</time></trkpt><trkpt lat="43.87068" lon="12.633355"><ele>120.25</ele><time>2026-04-25T07:44:27.937Z</time></trkpt><trkpt lat="43.8706083" lon="12.633225"><ele>121.5</ele><time>2026-04-25T07:44:28.936Z</time></trkpt><trkpt lat="43.8705433" lon="12.6330783"><ele>122.75</ele><time>2026-04-25T07:44:29.937Z</time></trkpt><trkpt lat="43.8704833" lon="12.6329167"><ele>124.0</ele><time>2026-04-25T07:44:30.937Z</time></trkpt><trkpt lat="43.8704283" lon="12.632745"><ele>125.0</ele><time>2026-04-25T07:44:31.937Z</time></trkpt><trkpt lat="43.8703717" lon="12.63257"><ele>126.0</ele><time>2026-04-25T07:44:32.936Z</time></trkpt><trkpt lat="43.870315" lon="12.632395"><ele>127.0</ele><time>2026-04-25T07:44:33.937Z</time></trkpt><trkpt lat="43.8702483" lon="12.6322267"><ele>128.0</ele><time>2026-04-25T07:44:34.937Z</time></trkpt><trkpt lat="43.8701883" lon="12.6320517"><ele>129.66666666666666</ele><time>2026-04-25T07:44:35.937Z</time></trkpt><trkpt lat="43.8701283" lon="12.6318667"><ele>131.33333333333334</ele><time>2026-04-25T07:44:36.936Z</time></trkpt><trkpt lat="43.870065" lon="12.631675"><ele>133.0</ele><time>2026-04-25T07:44:37.937Z</time></trkpt><trkpt lat="43.87" lon="12.631475"><ele>131.33333333333334</ele><time>2026-04-25T07:44:38.937Z</time></trkpt><trkpt lat="43.869935" lon="12.6312733"><ele>129.66666666666666</ele><time>2026-04-25T07:44:39.936Z</time></trkpt><trkpt lat="43.8698667" lon="12.6310683"><ele>128.0</ele><time>2026-04-25T07:44:40.936Z</time></trkpt><trkpt lat="43.869805" lon="12.630875"><ele>128.0</ele><time>2026-04-25T07:44:41.937Z</time></trkpt><trkpt lat="43.8697483" lon="12.6306833"><ele>128.0</ele><time>2026-04-25T07:44:42.937Z</time></trkpt><trkpt lat="43.8696917" lon="12.6304967"><ele>128.0</ele><time>2026-04-25T07:44:43.937Z</time></trkpt><trkpt lat="43.8696367" lon="12.630315"><ele>128.0</ele><time>2026-04-25T07:44:44.937Z</time></trkpt><trkpt lat="43.869575" lon="12.6301417"><ele>128.75</ele><time>2026-04-25T07:44:45.936Z</time></trkpt><trkpt lat="43.8695" lon="12.629975"><ele>129.5</ele><time>2026-04-25T07:44:46.937Z</time></trkpt><trkpt lat="43.8694267" lon="12.6298167"><ele>130.25</ele><time>2026-04-25T07:44:47.937Z</time></trkpt><trkpt lat="43.869355" lon="12.6296683"><ele>131.0</ele><time>2026-04-25T07:44:48.936Z</time></trkpt><trkpt lat="43.86929" lon="12.629535"><ele>130.16666666666666</ele><time>2026-04-25T07:44:49.936Z</time></trkpt><trkpt lat="43.8692333" lon="12.6294183"><ele>129.33333333333331</ele><time>2026-04-25T07:44:50.936Z</time></trkpt><trkpt lat="43.8691833" lon="12.6293183"><ele>128.5</ele><time>2026-04-25T07:44:51.936Z</time></trkpt><trkpt lat="43.869135" lon="12.6292333"><ele>127.66666666666666</ele><time>2026-04-25T07:44:52.937Z</time></trkpt><trkpt lat="43.8690883" lon="12.6291733"><ele>126.83333333333333</ele><time>2026-04-25T07:44:53.937Z</time></trkpt><trkpt lat="43.8689733" lon="12.6291333"><ele>126.0</ele><time>2026-04-25T07:44:55.936Z</time></trkpt><trkpt lat="43.8689017" lon="12.62915"><ele>126.0</ele><time>2026-04-25T07:44:56.937Z</time></trkpt><trkpt lat="43.8688183" lon="12.6291867"><ele>126.0</ele><time>2026-04-25T07:44:57.937Z</time></trkpt><trkpt lat="43.8687183" lon="12.6292317"><ele>126.0</ele><time>2026-04-25T07:44:58.937Z</time></trkpt><trkpt lat="43.8686167" lon="12.6292733"><ele>126.0</ele><time>2026-04-25T07:44:59.936Z</time></trkpt><trkpt lat="43.86852" lon="12.6293133"><ele>126.0</ele><time>2026-04-25T07:45:00.937Z</time></trkpt><trkpt lat="43.8684233" lon="12.6293483"><ele>126.4</ele><time>2026-04-25T07:45:01.937Z</time></trkpt><trkpt lat="43.8683167" lon="12.6293717"><ele>126.8</ele><time>2026-04-25T07:45:02.937Z</time></trkpt><trkpt lat="43.8682083" lon="12.6293817"><ele>127.20000000000002</ele><time>2026-04-25T07:45:03.937Z</time></trkpt><trkpt lat="43.868115" lon="12.6293783"><ele>127.60000000000001</ele><time>2026-04-25T07:45:04.937Z</time></trkpt><trkpt lat="43.86804" lon="12.6293733"><ele>128.0</ele><time>2026-04-25T07:45:05.937Z</time></trkpt><trkpt lat="43.8679483" lon="12.6293717"><ele>127.99999999999999</ele><time>2026-04-25T07:45:07.937Z</time></trkpt><trkpt lat="43.86798" lon="12.6294633"><ele>128.0</ele><time>2026-04-25T07:45:13.938Z</time></trkpt><trkpt lat="43.8680433" lon="12.6294933"><ele>128.0</ele><time>2026-04-25T07:45:14.938Z</time></trkpt><trkpt lat="43.8681" lon="12.6295317"><ele>128.0</ele><time>2026-04-25T07:45:15.938Z</time></trkpt><trkpt lat="43.8681883" lon="12.6296317"><ele>127.99999999999999</ele><time>2026-04-25T07:45:17.937Z</time></trkpt><trkpt lat="43.8682233" lon="12.6297433"><ele>128.0</ele><time>2026-04-25T07:45:19.938Z</time></trkpt><trkpt lat="43.8681817" lon="12.6298433"><ele>127.83333333333333</ele><time>2026-04-25T07:45:21.937Z</time></trkpt><trkpt lat="43.86808" lon="12.629945"><ele>127.66666666666666</ele><time>2026-04-25T07:45:23.937Z</time></trkpt><trkpt lat="43.8680083" lon="12.6300167"><ele>127.5</ele><time>2026-04-25T07:45:24.937Z</time></trkpt><trkpt lat="43.86795" lon="12.630105"><ele>127.33333333333334</ele><time>2026-04-25T07:45:25.938Z</time></trkpt><trkpt lat="43.8679083" lon="12.63019"><ele>127.16666666666667</ele><time>2026-04-25T07:45:26.938Z</time></trkpt><trkpt lat="43.86789" lon="12.6302783"><ele>127.0</ele><time>2026-04-25T07:45:27.938Z</time></trkpt><trkpt lat="43.8679033" lon="12.6303817"><ele>128.33333333333334</ele><time>2026-04-25T07:45:28.937Z</time></trkpt><trkpt lat="43.867925" lon="12.6304917"><ele>129.66666666666669</ele><time>2026-04-25T07:45:29.938Z</time></trkpt><trkpt lat="43.8679417" lon="12.6306017"><ele>131.0</ele><time>2026-04-25T07:45:30.938Z</time></trkpt><trkpt lat="43.8679467" lon="12.63071"><ele>132.33333333333334</ele><time>2026-04-25T07:45:31.938Z</time></trkpt><trkpt lat="43.8679333" lon="12.6308117"><ele>133.66666666666666</ele><time>2026-04-25T07:45:32.938Z</time></trkpt><trkpt lat="43.86791" lon="12.6309133"><ele>135.0</ele><time>2026-04-25T07:45:33.938Z</time></trkpt><trkpt lat="43.8678783" lon="12.63101"><ele>135.0</ele><time>2026-04-25T07:45:34.937Z</time></trkpt><trkpt lat="43.8678433" lon="12.6311017"><ele>135.0</ele><time>2026-04-25T07:45:35.937Z</time></trkpt><trkpt lat="43.867805" lon="12.6312017"><ele>135.0</ele><time>2026-04-25T07:45:36.938Z</time></trkpt><trkpt lat="43.8677683" lon="12.6313067"><ele>135.0</ele><time>2026-04-25T07:45:37.937Z</time></trkpt><trkpt lat="43.86773" lon="12.631405"><ele>135.0</ele><time>2026-04-25T07:45:38.937Z</time></trkpt><trkpt lat="43.8676983" lon="12.6315033"><ele>135.0</ele><time>2026-04-25T07:45:39.938Z</time></trkpt><trkpt lat="43.86767" lon="12.6316"><ele>137.33333333333334</ele><time>2026-04-25T07:45:40.937Z</time></trkpt><trkpt lat="43.8676367" lon="12.6316983"><ele>139.66666666666666</ele><time>2026-04-25T07:45:41.938Z</time></trkpt><trkpt lat="43.867595" lon="12.6318017"><ele>142.0</ele><time>2026-04-25T07:45:42.938Z</time></trkpt><trkpt lat="43.8675533" lon="12.6319017"><ele>144.33333333333331</ele><time>2026-04-25T07:45:43.938Z</time></trkpt><trkpt lat="43.8675133" lon="12.63201"><ele>146.66666666666666</ele><time>2026-04-25T07:45:44.938Z</time></trkpt><trkpt lat="43.8674683" lon="12.632115"><ele>149.0</ele><time>2026-04-25T07:45:45.937Z</time></trkpt><trkpt lat="43.86742" lon="12.632215"><ele>154.5</ele><time>2026-04-25T07:45:46.937Z</time></trkpt><trkpt lat="43.86737" lon="12.6323117"><ele>160.0</ele><time>2026-04-25T07:45:47.937Z</time></trkpt><trkpt lat="43.8673183" lon="12.6323983"><ele>165.5</ele><time>2026-04-25T07:45:48.938Z</time></trkpt><trkpt lat="43.8672683" lon="12.6324833"><ele>171.0</ele><time>2026-04-25T07:45:49.938Z</time></trkpt><trkpt lat="43.867215" lon="12.6325717"><ele>176.5</ele><time>2026-04-25T07:45:50.938Z</time></trkpt><trkpt lat="43.8671633" lon="12.63267"><ele>182.0</ele><time>2026-04-25T07:45:51.938Z</time></trkpt><trkpt lat="43.867115" lon="12.632775"><ele>182.66666666666666</ele><time>2026-04-25T07:45:52.938Z</time></trkpt><trkpt lat="43.8670683" lon="12.63288"><ele>183.33333333333331</ele><time>2026-04-25T07:45:53.938Z</time></trkpt><trkpt lat="43.8670267" lon="12.6329783"><ele>184.0</ele><time>2026-04-25T07:45:54.938Z</time></trkpt><trkpt lat="43.86698" lon="12.6330683"><ele>184.66666666666666</ele><time>2026-04-25T07:45:55.937Z</time></trkpt><trkpt lat="43.8669283" lon="12.633145"><ele>185.33333333333334</ele><time>2026-04-25T07:45:56.938Z</time></trkpt><trkpt lat="43.8668767" lon="12.6332033"><ele>186.0</ele><time>2026-04-25T07:45:57.938Z</time></trkpt><trkpt lat="43.8668233" lon="12.63325"><ele>188.16666666666666</ele><time>2026-04-25T07:45:58.938Z</time></trkpt><trkpt lat="43.8667633" lon="12.6332917"><ele>190.33333333333331</ele><time>2026-04-25T07:45:59.938Z</time></trkpt><trkpt lat="43.8666933" lon="12.6333367"><ele>192.5</ele><time>2026-04-25T07:46:00.938Z</time></trkpt><trkpt lat="43.8666117" lon="12.6333967"><ele>194.66666666666666</ele><time>2026-04-25T07:46:01.938Z</time></trkpt><trkpt lat="43.86653" lon="12.633465"><ele>196.83333333333331</ele><time>2026-04-25T07:46:02.938Z</time></trkpt><trkpt lat="43.8664517" lon="12.6335317"><ele>199.0</ele><time>2026-04-25T07:46:03.938Z</time></trkpt><trkpt lat="43.86638" lon="12.6335967"><ele>197.99999999999997</ele><time>2026-04-25T07:46:04.938Z</time></trkpt><trkpt lat="43.86631" lon="12.6336567"><ele>197.0</ele><time>2026-04-25T07:46:05.938Z</time></trkpt><trkpt lat="43.866235" lon="12.633715"><ele>196.0</ele><time>2026-04-25T07:46:06.938Z</time></trkpt><trkpt lat="43.866155" lon="12.6337717"><ele>195.0</ele><time>2026-04-25T07:46:07.938Z</time></trkpt><trkpt lat="43.86608" lon="12.6338233"><ele>193.99999999999997</ele><time>2026-04-25T07:46:08.938Z</time></trkpt><trkpt lat="43.866" lon="12.6338733"><ele>193.0</ele><time>2026-04-25T07:46:09.938Z</time></trkpt><trkpt lat="43.8659117" lon="12.63393"><ele>197.0</ele><time>2026-04-25T07:46:10.938Z</time></trkpt><trkpt lat="43.8658117" lon="12.63399"><ele>201.0</ele><time>2026-04-25T07:46:11.938Z</time></trkpt><trkpt lat="43.865715" lon="12.6340633"><ele>205.0</ele><time>2026-04-25T07:46:12.938Z</time></trkpt><trkpt lat="43.86562" lon="12.6341467"><ele>209.0</ele><time>2026-04-25T07:46:13.938Z</time></trkpt><trkpt lat="43.8655217" lon="12.6342383"><ele>209.0</ele><time>2026-04-25T07:46:14.938Z</time></trkpt><trkpt lat="43.8654317" lon="12.634325"><ele>209.0</ele><time>2026-04-25T07:46:15.938Z</time></trkpt><trkpt lat="43.8653483" lon="12.63441"><ele>209.0</ele><time>2026-04-25T07:46:16.937Z</time></trkpt><trkpt lat="43.865275" lon="12.63449"><ele>209.0</ele><time>2026-04-25T07:46:17.938Z</time></trkpt><trkpt lat="43.8652117" lon="12.6345667"><ele>209.0</ele><time>2026-04-25T07:46:18.938Z</time></trkpt><trkpt lat="43.86515" lon="12.6346417"><ele>209.50000000000003</ele><time>2026-04-25T07:46:19.938Z</time></trkpt><trkpt lat="43.8650933" lon="12.634715"><ele>210.0</ele><time>2026-04-25T07:46:20.937Z</time></trkpt><trkpt lat="43.8650383" lon="12.6347883"><ele>210.5</ele><time>2026-04-25T07:46:21.937Z</time></trkpt><trkpt lat="43.8649833" lon="12.6348583"><ele>211.0</ele><time>2026-04-25T07:46:22.938Z</time></trkpt><trkpt lat="43.8649283" lon="12.6349317"><ele>211.50000000000003</ele><time>2026-04-25T07:46:23.937Z</time></trkpt><trkpt lat="43.8648717" lon="12.6350033"><ele>212.0</ele><time>2026-04-25T07:46:24.938Z</time></trkpt><trkpt lat="43.86481" lon="12.6350833"><ele>212.0</ele><time>2026-04-25T07:46:25.938Z</time></trkpt><trkpt lat="43.8647467" lon="12.635175"><ele>212.0</ele><time>2026-04-25T07:46:26.938Z</time></trkpt><trkpt lat="43.8646767" lon="12.635275"><ele>212.0</ele><time>2026-04-25T07:46:27.938Z</time></trkpt><trkpt lat="43.8646067" lon="12.6353733"><ele>212.0</ele><time>2026-04-25T07:46:28.938Z</time></trkpt><trkpt lat="43.864535" lon="12.6354783"><ele>212.0</ele><time>2026-04-25T07:46:29.938Z</time></trkpt><trkpt lat="43.8644617" lon="12.635585"><ele>211.39999999999998</ele><time>2026-04-25T07:46:30.938Z</time></trkpt><trkpt lat="43.8643917" lon="12.6356917"><ele>210.79999999999998</ele><time>2026-04-25T07:46:31.938Z</time></trkpt><trkpt lat="43.8643217" lon="12.6358033"><ele>210.2</ele><time>2026-04-25T07:46:32.938Z</time></trkpt><trkpt lat="43.86425" lon="12.6359133"><ele>209.6</ele><time>2026-04-25T07:46:33.937Z</time></trkpt><trkpt lat="43.864185" lon="12.6360217"><ele>209.0</ele><time>2026-04-25T07:46:34.938Z</time></trkpt><trkpt lat="43.8641217" lon="12.6361317"><ele>211.0</ele><time>2026-04-25T07:46:35.938Z</time></trkpt><trkpt lat="43.8640633" lon="12.6362367"><ele>213.0</ele><time>2026-04-25T07:46:36.938Z</time></trkpt><trkpt lat="43.8640067" lon="12.6363317"><ele>214.99999999999997</ele><time>2026-04-25T07:46:37.938Z</time></trkpt><trkpt lat="43.8639517" lon="12.6364333"><ele>217.0</ele><time>2026-04-25T07:46:38.937Z</time></trkpt><trkpt lat="43.8638933" lon="12.63654"><ele>219.0</ele><time>2026-04-25T07:46:39.937Z</time></trkpt><trkpt lat="43.86383" lon="12.6366433"><ele>219.0</ele><time>2026-04-25T07:46:40.938Z</time></trkpt><trkpt lat="43.8637633" lon="12.63673"><ele>219.0</ele><time>2026-04-25T07:46:41.938Z</time></trkpt><trkpt lat="43.8636933" lon="12.6368017"><ele>219.0</ele><time>2026-04-25T07:46:42.938Z</time></trkpt><trkpt lat="43.8636267" lon="12.6368667"><ele>219.0</ele><time>2026-04-25T07:46:43.938Z</time></trkpt><trkpt lat="43.86356" lon="12.6369267"><ele>219.0</ele><time>2026-04-25T07:46:44.938Z</time></trkpt><trkpt lat="43.8634967" lon="12.63698"><ele>219.0</ele><time>2026-04-25T07:46:45.938Z</time></trkpt><trkpt lat="43.8634367" lon="12.6370267"><ele>221.0</ele><time>2026-04-25T07:46:46.937Z</time></trkpt><trkpt lat="43.8633333" lon="12.6371167"><ele>222.99999999999997</ele><time>2026-04-25T07:46:48.937Z</time></trkpt><trkpt lat="43.8632325" lon="12.6371978"><ele>224.99999999999997</ele><time>2026-04-25T07:46:50.936Z</time></trkpt><trkpt lat="43.8631345" lon="12.6373004"><ele>227.0</ele><time>2026-04-25T07:46:52.937Z</time></trkpt><trkpt lat="43.8630897" lon="12.6373682"><ele>229.0</ele><time>2026-04-25T07:46:53.937Z</time></trkpt><trkpt lat="43.8630189" lon="12.6374915"><ele>229.0</ele><time>2026-04-25T07:46:55.937Z</time></trkpt><trkpt lat="43.8629684" lon="12.6376159"><ele>228.99999999999997</ele><time>2026-04-25T07:46:57.937Z</time></trkpt><trkpt lat="43.862918" lon="12.6377445"><ele>228.99999999999997</ele><time>2026-04-25T07:46:59.937Z</time></trkpt><trkpt lat="43.8628356" lon="12.6378765"><ele>229.0</ele><time>2026-04-25T07:47:01.937Z</time></trkpt><trkpt lat="43.862784" lon="12.6379388"><ele>229.0</ele><time>2026-04-25T07:47:02.937Z</time></trkpt><trkpt lat="43.8627321" lon="12.6379921"><ele>229.66666666666666</ele><time>2026-04-25T07:47:03.936Z</time></trkpt><trkpt lat="43.8626783" lon="12.6380496"><ele>230.33333333333331</ele><time>2026-04-25T07:47:04.937Z</time></trkpt><trkpt lat="43.8626206" lon="12.6381122"><ele>231.0</ele><time>2026-04-25T07:47:05.937Z</time></trkpt><trkpt lat="43.8625681" lon="12.6381746"><ele>231.66666666666669</ele><time>2026-04-25T07:47:06.936Z</time></trkpt><trkpt lat="43.8625177" lon="12.6382362"><ele>232.33333333333334</ele><time>2026-04-25T07:47:07.937Z</time></trkpt><trkpt lat="43.8624297" lon="12.6383655"><ele>233.0</ele><time>2026-04-25T07:47:09.937Z</time></trkpt><trkpt lat="43.862396" lon="12.638449"><ele>234.66666666666669</ele><time>2026-04-25T07:47:10.937Z</time></trkpt><trkpt lat="43.8623684" lon="12.6385439"><ele>236.33333333333334</ele><time>2026-04-25T07:47:11.937Z</time></trkpt><trkpt lat="43.8623401" lon="12.6386424"><ele>238.0</ele><time>2026-04-25T07:47:12.937Z</time></trkpt><trkpt lat="43.8622999" lon="12.6387464"><ele>239.66666666666669</ele><time>2026-04-25T07:47:13.937Z</time></trkpt><trkpt lat="43.8622526" lon="12.6388458"><ele>241.33333333333334</ele><time>2026-04-25T07:47:14.937Z</time></trkpt><trkpt lat="43.8622003" lon="12.6389403"><ele>243.0</ele><time>2026-04-25T07:47:15.937Z</time></trkpt><trkpt lat="43.8621414" lon="12.6390297"><ele>244.16666666666666</ele><time>2026-04-25T07:47:16.936Z</time></trkpt><trkpt lat="43.8620798" lon="12.6391092"><ele>245.33333333333331</ele><time>2026-04-25T07:47:17.937Z</time></trkpt><trkpt lat="43.8620142" lon="12.6391887"><ele>246.5</ele><time>2026-04-25T07:47:18.937Z</time></trkpt><trkpt lat="43.8619486" lon="12.6392669"><ele>247.66666666666666</ele><time>2026-04-25T07:47:19.937Z</time></trkpt><trkpt lat="43.8618852" lon="12.6393428"><ele>248.83333333333331</ele><time>2026-04-25T07:47:20.937Z</time></trkpt><trkpt lat="43.8618198" lon="12.6394229"><ele>250.0</ele><time>2026-04-25T07:47:21.937Z</time></trkpt><trkpt lat="43.8617478" lon="12.6395178"><ele>252.49999999999997</ele><time>2026-04-25T07:47:22.937Z</time></trkpt><trkpt lat="43.8616826" lon="12.6396113"><ele>255.0</ele><time>2026-04-25T07:47:23.937Z</time></trkpt><trkpt lat="43.8616289" lon="12.6396994"><ele>257.5</ele><time>2026-04-25T07:47:24.937Z</time></trkpt><trkpt lat="43.8615808" lon="12.6397903"><ele>260.0</ele><time>2026-04-25T07:47:25.937Z</time></trkpt><trkpt lat="43.8615384" lon="12.639881"><ele>262.5</ele><time>2026-04-25T07:47:26.937Z</time></trkpt><trkpt lat="43.8614939" lon="12.6399789"><ele>265.0</ele><time>2026-04-25T07:47:27.937Z</time></trkpt><trkpt lat="43.8614464" lon="12.6400799"><ele>265.0</ele><time>2026-04-25T07:47:28.937Z</time></trkpt><trkpt lat="43.8613914" lon="12.6401781"><ele>265.0</ele><time>2026-04-25T07:47:29.937Z</time></trkpt><trkpt lat="43.8613299" lon="12.6402568"><ele>265.0</ele><time>2026-04-25T07:47:30.937Z</time></trkpt><trkpt lat="43.8612607" lon="12.6403127"><ele>265.0</ele><time>2026-04-25T07:47:31.937Z</time></trkpt><trkpt lat="43.8611846" lon="12.6403498"><ele>265.0</ele><time>2026-04-25T07:47:32.937Z</time></trkpt><trkpt lat="43.8611076" lon="12.6403783"><ele>265.0</ele><time>2026-04-25T07:47:33.937Z</time></trkpt><trkpt lat="43.8610261" lon="12.640403"><ele>266.8333333333333</ele><time>2026-04-25T07:47:34.937Z</time></trkpt><trkpt lat="43.8609427" lon="12.6404228"><ele>268.66666666666663</ele><time>2026-04-25T07:47:35.937Z</time></trkpt><trkpt lat="43.8608561" lon="12.6404374"><ele>270.5</ele><time>2026-04-25T07:47:36.936Z</time></trkpt><trkpt lat="43.8607663" lon="12.6404443"><ele>272.3333333333333</ele><time>2026-04-25T07:47:37.937Z</time></trkpt><trkpt lat="43.8606766" lon="12.6404574"><ele>274.1666666666667</ele><time>2026-04-25T07:47:38.937Z</time></trkpt><trkpt lat="43.8605981" lon="12.6404732"><ele>276.0</ele><time>2026-04-25T07:47:39.937Z</time></trkpt><trkpt lat="43.8605287" lon="12.6404861"><ele>276.0</ele><time>2026-04-25T07:47:40.937Z</time></trkpt><trkpt lat="43.8604622" lon="12.6405044"><ele>276.0</ele><time>2026-04-25T07:47:41.937Z</time></trkpt><trkpt lat="43.8603965" lon="12.6405303"><ele>276.0</ele><time>2026-04-25T07:47:42.937Z</time></trkpt><trkpt lat="43.8603218" lon="12.6405654"><ele>276.0</ele><time>2026-04-25T07:47:43.937Z</time></trkpt><trkpt lat="43.8602447" lon="12.6406078"><ele>276.0</ele><time>2026-04-25T07:47:44.937Z</time></trkpt><trkpt lat="43.860163" lon="12.6406478"><ele>276.0</ele><time>2026-04-25T07:47:45.936Z</time></trkpt><trkpt lat="43.8600776" lon="12.6406633"><ele>278.7142857142857</ele><time>2026-04-25T07:47:46.936Z</time></trkpt><trkpt lat="43.8599979" lon="12.640659"><ele>281.42857142857144</ele><time>2026-04-25T07:47:47.937Z</time></trkpt><trkpt lat="43.8599221" lon="12.6406488"><ele>284.14285714285717</ele><time>2026-04-25T07:47:48.937Z</time></trkpt><trkpt lat="43.8598481" lon="12.6406309"><ele>286.8571428571429</ele><time>2026-04-25T07:47:49.937Z</time></trkpt><trkpt lat="43.8597858" lon="12.6406001"><ele>289.57142857142856</ele><time>2026-04-25T07:47:50.937Z</time></trkpt><trkpt lat="43.8597201" lon="12.6405301"><ele>292.28571428571433</ele><time>2026-04-25T07:47:52.937Z</time></trkpt><trkpt lat="43.859762" lon="12.640455"><ele>295.0</ele><time>2026-04-25T07:47:58.937Z</time></trkpt><trkpt lat="43.859811" lon="12.6403966"><ele>295.4</ele><time>2026-04-25T07:48:02.169Z</time></trkpt><trkpt lat="43.8598136" lon="12.6402618"><ele>295.8</ele><time>2026-04-25T07:48:04.172Z</time></trkpt><trkpt lat="43.8597728" lon="12.6401406"><ele>296.2</ele><time>2026-04-25T07:48:05.936Z</time></trkpt><trkpt lat="43.859657" lon="12.6400599"><ele>296.6</ele><time>2026-04-25T07:48:07.936Z</time></trkpt><trkpt lat="43.8595734" lon="12.6400436"><ele>297.0</ele><time>2026-04-25T07:48:08.937Z</time></trkpt><trkpt lat="43.8594937" lon="12.6400339"><ele>297.0</ele><time>2026-04-25T07:48:09.937Z</time></trkpt><trkpt lat="43.8594195" lon="12.6400232"><ele>297.0</ele><time>2026-04-25T07:48:10.937Z</time></trkpt><trkpt lat="43.8593448" lon="12.6400106"><ele>297.0</ele><time>2026-04-25T07:48:11.936Z</time></trkpt><trkpt lat="43.8592379" lon="12.6400118"><ele>297.0</ele><time>2026-04-25T07:48:13.937Z</time></trkpt><trkpt lat="43.8591827" lon="12.640059"><ele>297.0</ele><time>2026-04-25T07:48:15.937Z</time></trkpt><trkpt lat="43.8591389" lon="12.6401824"><ele>297.0</ele><time>2026-04-25T07:48:18.937Z</time></trkpt><trkpt lat="43.8590782" lon="12.6402962"><ele>300.4</ele><time>2026-04-25T07:48:20.937Z</time></trkpt><trkpt lat="43.8590136" lon="12.6404557"><ele>303.79999999999995</ele><time>2026-04-25T07:48:22.937Z</time></trkpt><trkpt lat="43.8589732" lon="12.640565"><ele>307.2</ele><time>2026-04-25T07:48:23.937Z</time></trkpt><trkpt lat="43.8589255" lon="12.6406736"><ele>310.59999999999997</ele><time>2026-04-25T07:48:24.937Z</time></trkpt><trkpt lat="43.8588658" lon="12.6407725"><ele>314.0</ele><time>2026-04-25T07:48:25.937Z</time></trkpt><trkpt lat="43.8587888" lon="12.640856"><ele>314.0</ele><time>2026-04-25T07:48:26.937Z</time></trkpt><trkpt lat="43.8586937" lon="12.6409288"><ele>314.0</ele><time>2026-04-25T07:48:27.937Z</time></trkpt><trkpt lat="43.858589" lon="12.6409949"><ele>314.0</ele><time>2026-04-25T07:48:28.937Z</time></trkpt><trkpt lat="43.8584807" lon="12.6410704"><ele>314.0</ele><time>2026-04-25T07:48:29.937Z</time></trkpt><trkpt lat="43.8583817" lon="12.6411638"><ele>317.6</ele><time>2026-04-25T07:48:30.937Z</time></trkpt><trkpt lat="43.8583105" lon="12.6412547"><ele>321.2</ele><time>2026-04-25T07:48:31.937Z</time></trkpt><trkpt lat="43.8582583" lon="12.6413532"><ele>324.8</ele><time>2026-04-25T07:48:32.937Z</time></trkpt><trkpt lat="43.858207" lon="12.64147"><ele>328.40000000000003</ele><time>2026-04-25T07:48:33.937Z</time></trkpt><trkpt lat="43.858157" lon="12.6415951"><ele>332.0</ele><time>2026-04-25T07:48:34.936Z</time></trkpt><trkpt lat="43.858116" lon="12.6417304"><ele>332.0</ele><time>2026-04-25T07:48:35.937Z</time></trkpt><trkpt lat="43.8580705" lon="12.6418869"><ele>332.0</ele><time>2026-04-25T07:48:36.937Z</time></trkpt><trkpt lat="43.8580129" lon="12.6420858"><ele>332.0</ele><time>2026-04-25T07:48:37.937Z</time></trkpt><trkpt lat="43.8579517" lon="12.6423029"><ele>332.0</ele><time>2026-04-25T07:48:38.937Z</time></trkpt><trkpt lat="43.8578999" lon="12.6425043"><ele>332.0</ele><time>2026-04-25T07:48:39.936Z</time></trkpt><trkpt lat="43.8578553" lon="12.6426888"><ele>332.0</ele><time>2026-04-25T07:48:40.937Z</time></trkpt><trkpt lat="43.8578067" lon="12.642867"><ele>332.0</ele><time>2026-04-25T07:48:41.937Z</time></trkpt><trkpt lat="43.8577539" lon="12.6430421"><ele>332.0</ele><time>2026-04-25T07:48:42.937Z</time></trkpt><trkpt lat="43.8577015" lon="12.6432184"><ele>331.0</ele><time>2026-04-25T07:48:43.937Z</time></trkpt><trkpt lat="43.8576519" lon="12.6433884"><ele>330.0</ele><time>2026-04-25T07:48:44.937Z</time></trkpt><trkpt lat="43.8576142" lon="12.6435663"><ele>329.0</ele><time>2026-04-25T07:48:45.936Z</time></trkpt><trkpt lat="43.8575818" lon="12.6437518"><ele>328.0</ele><time>2026-04-25T07:48:46.937Z</time></trkpt><trkpt lat="43.8575524" lon="12.6439399"><ele>334.0</ele><time>2026-04-25T07:48:47.937Z</time></trkpt><trkpt lat="43.8575196" lon="12.6441196"><ele>340.0</ele><time>2026-04-25T07:48:48.937Z</time></trkpt><trkpt lat="43.857479" lon="12.6442799"><ele>346.0</ele><time>2026-04-25T07:48:49.936Z</time></trkpt><trkpt lat="43.8574272" lon="12.6444203"><ele>352.0</ele><time>2026-04-25T07:48:50.937Z</time></trkpt><trkpt lat="43.8573714" lon="12.64453"><ele>352.16666666666663</ele><time>2026-04-25T07:48:51.937Z</time></trkpt><trkpt lat="43.8573203" lon="12.6446075"><ele>352.3333333333333</ele><time>2026-04-25T07:48:52.936Z</time></trkpt><trkpt lat="43.8572742" lon="12.6447071"><ele>352.5</ele><time>2026-04-25T07:48:54.937Z</time></trkpt><trkpt lat="43.8572991" lon="12.6448394"><ele>352.6666666666667</ele><time>2026-04-25T07:48:56.937Z</time></trkpt><trkpt lat="43.8573263" lon="12.6449358"><ele>352.83333333333337</ele><time>2026-04-25T07:48:57.937Z</time></trkpt><trkpt lat="43.8573563" lon="12.6450519"><ele>353.0</ele><time>2026-04-25T07:48:58.937Z</time></trkpt><trkpt lat="43.8573802" lon="12.6451812"><ele>353.4</ele><time>2026-04-25T07:48:59.937Z</time></trkpt><trkpt lat="43.8574001" lon="12.6453156"><ele>353.79999999999995</ele><time>2026-04-25T07:49:00.937Z</time></trkpt><trkpt lat="43.8574256" lon="12.6454587"><ele>354.2</ele><time>2026-04-25T07:49:01.937Z</time></trkpt><trkpt lat="43.8574513" lon="12.6456017"><ele>354.6</ele><time>2026-04-25T07:49:02.937Z</time></trkpt><trkpt lat="43.8574679" lon="12.6457456"><ele>355.0</ele><time>2026-04-25T07:49:03.936Z</time></trkpt><trkpt lat="43.8574766" lon="12.6458906"><ele>355.0</ele><time>2026-04-25T07:49:04.937Z</time></trkpt><trkpt lat="43.8574794" lon="12.6460331"><ele>355.0</ele><time>2026-04-25T07:49:05.936Z</time></trkpt><trkpt lat="43.8574764" lon="12.6461722"><ele>355.0</ele><time>2026-04-25T07:49:06.937Z</time></trkpt><trkpt lat="43.8574725" lon="12.6462986"><ele>355.0</ele><time>2026-04-25T07:49:07.936Z</time></trkpt><trkpt lat="43.8574593" lon="12.6464004"><ele>355.0</ele><time>2026-04-25T07:49:08.936Z</time></trkpt><trkpt lat="43.8574083" lon="12.6465032"><ele>354.5</ele><time>2026-04-25T07:49:10.937Z</time></trkpt><trkpt lat="43.8573134" lon="12.6465098"><ele>354.0</ele><time>2026-04-25T07:49:12.937Z</time></trkpt><trkpt lat="43.8572384" lon="12.6464962"><ele>353.5</ele><time>2026-04-25T07:49:13.936Z</time></trkpt><trkpt lat="43.8571694" lon="12.6464953"><ele>353.0</ele><time>2026-04-25T07:49:14.937Z</time></trkpt><trkpt lat="43.8570862" lon="12.6464862"><ele>352.5</ele><time>2026-04-25T07:49:16.937Z</time></trkpt><trkpt lat="43.8571028" lon="12.6463931"><ele>352.0</ele><time>2026-04-25T07:49:18.937Z</time></trkpt><trkpt lat="43.8571601" lon="12.6462228"><ele>352.6</ele><time>2026-04-25T07:49:20.936Z</time></trkpt><trkpt lat="43.8571678" lon="12.6460938"><ele>353.20000000000005</ele><time>2026-04-25T07:49:21.937Z</time></trkpt><trkpt lat="43.8571557" lon="12.6459589"><ele>353.8</ele><time>2026-04-25T07:49:22.937Z</time></trkpt><trkpt lat="43.8571337" lon="12.6458192"><ele>354.4</ele><time>2026-04-25T07:49:23.937Z</time></trkpt><trkpt lat="43.8571015" lon="12.6456713"><ele>355.0</ele><time>2026-04-25T07:49:24.937Z</time></trkpt><trkpt lat="43.8570596" lon="12.6455216"><ele>355.0</ele><time>2026-04-25T07:49:25.937Z</time></trkpt><trkpt lat="43.8570113" lon="12.6453726"><ele>355.0</ele><time>2026-04-25T07:49:26.938Z</time></trkpt><trkpt lat="43.8569664" lon="12.6452208"><ele>355.0</ele><time>2026-04-25T07:49:27.938Z</time></trkpt><trkpt lat="43.8569287" lon="12.6450611"><ele>355.0</ele><time>2026-04-25T07:49:28.938Z</time></trkpt><trkpt lat="43.8568843" lon="12.6449062"><ele>354.5</ele><time>2026-04-25T07:49:29.938Z</time></trkpt><trkpt lat="43.8568232" lon="12.6447725"><ele>354.0</ele><time>2026-04-25T07:49:30.938Z</time></trkpt><trkpt lat="43.8567383" lon="12.6446758"><ele>353.5</ele><time>2026-04-25T07:49:31.938Z</time></trkpt><trkpt lat="43.8566346" lon="12.6446027"><ele>353.0</ele><time>2026-04-25T07:49:32.938Z</time></trkpt><trkpt lat="43.8565255" lon="12.6445263"><ele>353.75</ele><time>2026-04-25T07:49:33.938Z</time></trkpt><trkpt lat="43.8564237" lon="12.6444269"><ele>354.5</ele><time>2026-04-25T07:49:34.938Z</time></trkpt><trkpt lat="43.8563334" lon="12.6443066"><ele>355.25</ele><time>2026-04-25T07:49:35.938Z</time></trkpt><trkpt lat="43.8562614" lon="12.6441677"><ele>356.0</ele><time>2026-04-25T07:49:36.938Z</time></trkpt><trkpt lat="43.856184" lon="12.6440417"><ele>356.0</ele><time>2026-04-25T07:49:37.937Z</time></trkpt><trkpt lat="43.8560934" lon="12.6439383"><ele>356.0</ele><time>2026-04-25T07:49:38.938Z</time></trkpt><trkpt lat="43.8559855" lon="12.6438754"><ele>356.0</ele><time>2026-04-25T07:49:39.938Z</time></trkpt><trkpt lat="43.8558619" lon="12.6438498"><ele>356.0</ele><time>2026-04-25T07:49:40.938Z</time></trkpt><trkpt lat="43.8557425" lon="12.6438143"><ele>354.6</ele><time>2026-04-25T07:49:41.938Z</time></trkpt><trkpt lat="43.8556318" lon="12.6437632"><ele>353.20000000000005</ele><time>2026-04-25T07:49:42.938Z</time></trkpt><trkpt lat="43.8555346" lon="12.6436953"><ele>351.79999999999995</ele><time>2026-04-25T07:49:43.938Z</time></trkpt><trkpt lat="43.8554646" lon="12.6436058"><ele>350.4</ele><time>2026-04-25T07:49:44.937Z</time></trkpt><trkpt lat="43.8554179" lon="12.6434905"><ele>349.0</ele><time>2026-04-25T07:49:45.938Z</time></trkpt><trkpt lat="43.8553955" lon="12.6433477"><ele>349.0</ele><time>2026-04-25T07:49:46.938Z</time></trkpt><trkpt lat="43.8553929" lon="12.643178"><ele>349.0</ele><time>2026-04-25T07:49:47.938Z</time></trkpt><trkpt lat="43.8553813" lon="12.6430043"><ele>349.0</ele><time>2026-04-25T07:49:48.938Z</time></trkpt><trkpt lat="43.8553511" lon="12.6428329"><ele>349.0</ele><time>2026-04-25T07:49:49.938Z</time></trkpt><trkpt lat="43.8553033" lon="12.6426701"><ele>351.25</ele><time>2026-04-25T07:49:50.938Z</time></trkpt><trkpt lat="43.8552484" lon="12.6425129"><ele>353.5</ele><time>2026-04-25T07:49:51.937Z</time></trkpt><trkpt lat="43.8551903" lon="12.6423642"><ele>355.75</ele><time>2026-04-25T07:49:52.938Z</time></trkpt><trkpt lat="43.8551214" lon="12.6422277"><ele>358.0</ele><time>2026-04-25T07:49:53.938Z</time></trkpt><trkpt lat="43.8550464" lon="12.6420876"><ele>354.25</ele><time>2026-04-25T07:49:54.938Z</time></trkpt><trkpt lat="43.8549746" lon="12.6419398"><ele>350.5</ele><time>2026-04-25T07:49:55.937Z</time></trkpt><trkpt lat="43.8548905" lon="12.6418097"><ele>346.75</ele><time>2026-04-25T07:49:56.938Z</time></trkpt><trkpt lat="43.854791" lon="12.6417084"><ele>343.0</ele><time>2026-04-25T07:49:57.937Z</time></trkpt><trkpt lat="43.8546856" lon="12.6416326"><ele>343.0</ele><time>2026-04-25T07:49:58.938Z</time></trkpt><trkpt lat="43.8545971" lon="12.6415399"><ele>343.0</ele><time>2026-04-25T07:49:59.938Z</time></trkpt><trkpt lat="43.8545369" lon="12.6414183"><ele>343.0</ele><time>2026-04-25T07:50:00.938Z</time></trkpt><trkpt lat="43.8545069" lon="12.6412702"><ele>343.0</ele><time>2026-04-25T07:50:01.938Z</time></trkpt><trkpt lat="43.8544961" lon="12.6411053"><ele>343.0</ele><time>2026-04-25T07:50:02.937Z</time></trkpt><trkpt lat="43.8544918" lon="12.6409378"><ele>346.0</ele><time>2026-04-25T07:50:03.938Z</time></trkpt><trkpt lat="43.8545155" lon="12.6407607"><ele>349.0</ele><time>2026-04-25T07:50:04.938Z</time></trkpt><trkpt lat="43.854535" lon="12.6405889"><ele>352.0</ele><time>2026-04-25T07:50:05.938Z</time></trkpt><trkpt lat="43.8545245" lon="12.6404274"><ele>355.0</ele><time>2026-04-25T07:50:06.938Z</time></trkpt><trkpt lat="43.8544726" lon="12.6402798"><ele>355.5</ele><time>2026-04-25T07:50:07.938Z</time></trkpt><trkpt lat="43.854391" lon="12.6401493"><ele>356.0</ele><time>2026-04-25T07:50:08.938Z</time></trkpt><trkpt lat="43.8543063" lon="12.6400246"><ele>356.5</ele><time>2026-04-25T07:50:09.938Z</time></trkpt><trkpt lat="43.8542189" lon="12.6398976"><ele>357.0</ele><time>2026-04-25T07:50:10.938Z</time></trkpt><trkpt lat="43.8541281" lon="12.6397633"><ele>352.0</ele><time>2026-04-25T07:50:11.937Z</time></trkpt><trkpt lat="43.8540456" lon="12.6396146"><ele>347.0</ele><time>2026-04-25T07:50:12.938Z</time></trkpt><trkpt lat="43.8539743" lon="12.6394535"><ele>342.0</ele><time>2026-04-25T07:50:13.938Z</time></trkpt><trkpt lat="43.8539104" lon="12.639285"><ele>337.0</ele><time>2026-04-25T07:50:14.938Z</time></trkpt><trkpt lat="43.8538397" lon="12.6391282"><ele>337.0</ele><time>2026-04-25T07:50:15.938Z</time></trkpt><trkpt lat="43.8537718" lon="12.6389796"><ele>337.0</ele><time>2026-04-25T07:50:16.937Z</time></trkpt><trkpt lat="43.8537118" lon="12.6388351"><ele>337.0</ele><time>2026-04-25T07:50:17.938Z</time></trkpt><trkpt lat="43.8536648" lon="12.6386954"><ele>337.0</ele><time>2026-04-25T07:50:18.937Z</time></trkpt><trkpt lat="43.8536463" lon="12.6385657"><ele>334.6</ele><time>2026-04-25T07:50:19.938Z</time></trkpt><trkpt lat="43.8536655" lon="12.6384492"><ele>332.20000000000005</ele><time>2026-04-25T07:50:20.938Z</time></trkpt><trkpt lat="43.8537213" lon="12.6383505"><ele>329.8</ele><time>2026-04-25T07:50:21.938Z</time></trkpt><trkpt lat="43.8537949" lon="12.6382722"><ele>327.4</ele><time>2026-04-25T07:50:22.938Z</time></trkpt><trkpt lat="43.8539008" lon="12.6382426"><ele>325.0</ele><time>2026-04-25T07:50:23.938Z</time></trkpt><trkpt lat="43.8540323" lon="12.6382686"><ele>325.0</ele><time>2026-04-25T07:50:24.937Z</time></trkpt><trkpt lat="43.8541678" lon="12.6383299"><ele>325.0</ele><time>2026-04-25T07:50:25.937Z</time></trkpt><trkpt lat="43.8542979" lon="12.6383967"><ele>325.0</ele><time>2026-04-25T07:50:26.937Z</time></trkpt><trkpt lat="43.8544238" lon="12.638449"><ele>325.0</ele><time>2026-04-25T07:50:27.938Z</time></trkpt><trkpt lat="43.8545413" lon="12.6384705"><ele>326.8</ele><time>2026-04-25T07:50:28.938Z</time></trkpt><trkpt lat="43.8546466" lon="12.6384399"><ele>328.6</ele><time>2026-04-25T07:50:29.938Z</time></trkpt><trkpt lat="43.8547379" lon="12.638361"><ele>330.4</ele><time>2026-04-25T07:50:30.937Z</time></trkpt><trkpt lat="43.8548128" lon="12.6382506"><ele>332.2</ele><time>2026-04-25T07:50:31.938Z</time></trkpt><trkpt lat="43.8548583" lon="12.6380933"><ele>334.0</ele><time>2026-04-25T07:50:32.938Z</time></trkpt><trkpt lat="43.8549" lon="12.6379367"><ele>334.75</ele><time>2026-04-25T07:50:33.938Z</time></trkpt><trkpt lat="43.8549433" lon="12.6377717"><ele>335.5</ele><time>2026-04-25T07:50:34.937Z</time></trkpt><trkpt lat="43.8550033" lon="12.637615"><ele>336.25</ele><time>2026-04-25T07:50:35.938Z</time></trkpt><trkpt lat="43.8550667" lon="12.637455"><ele>337.0</ele><time>2026-04-25T07:50:36.938Z</time></trkpt><trkpt lat="43.8551217" lon="12.63729"><ele>337.0</ele><time>2026-04-25T07:50:37.937Z</time></trkpt><trkpt lat="43.8551883" lon="12.6371383"><ele>337.0</ele><time>2026-04-25T07:50:38.938Z</time></trkpt><trkpt lat="43.8552533" lon="12.6369867"><ele>337.0</ele><time>2026-04-25T07:50:39.938Z</time></trkpt><trkpt lat="43.8552683" lon="12.6368217"><ele>337.0</ele><time>2026-04-25T07:50:40.938Z</time></trkpt><trkpt lat="43.8552567" lon="12.6366533"><ele>335.5</ele><time>2026-04-25T07:50:41.938Z</time></trkpt><trkpt lat="43.85524" lon="12.6364833"><ele>334.0</ele><time>2026-04-25T07:50:42.938Z</time></trkpt><trkpt lat="43.8551967" lon="12.6363217"><ele>332.5</ele><time>2026-04-25T07:50:43.937Z</time></trkpt><trkpt lat="43.8551317" lon="12.636175"><ele>331.0</ele><time>2026-04-25T07:50:44.938Z</time></trkpt><trkpt lat="43.8550533" lon="12.6360367"><ele>326.0</ele><time>2026-04-25T07:50:45.937Z</time></trkpt><trkpt lat="43.8549733" lon="12.635895"><ele>321.0</ele><time>2026-04-25T07:50:46.937Z</time></trkpt><trkpt lat="43.8548983" lon="12.63575"><ele>316.0</ele><time>2026-04-25T07:50:47.938Z</time></trkpt><trkpt lat="43.8548317" lon="12.6355983"><ele>311.0</ele><time>2026-04-25T07:50:48.938Z</time></trkpt><trkpt lat="43.854775" lon="12.6354317"><ele>311.25</ele><time>2026-04-25T07:50:49.938Z</time></trkpt><trkpt lat="43.8547183" lon="12.63527"><ele>311.5</ele><time>2026-04-25T07:50:50.938Z</time></trkpt><trkpt lat="43.8546733" lon="12.6351033"><ele>311.75</ele><time>2026-04-25T07:50:51.938Z</time></trkpt><trkpt lat="43.854625" lon="12.6349367"><ele>312.0</ele><time>2026-04-25T07:50:52.937Z</time></trkpt><trkpt lat="43.8545783" lon="12.63477"><ele>312.0</ele><time>2026-04-25T07:50:53.938Z</time></trkpt><trkpt lat="43.8545383" lon="12.6346"><ele>312.0</ele><time>2026-04-25T07:50:54.938Z</time></trkpt><trkpt lat="43.8545117" lon="12.6344233"><ele>312.0</ele><time>2026-04-25T07:50:55.937Z</time></trkpt><trkpt lat="43.8544933" lon="12.6342433"><ele>312.0</ele><time>2026-04-25T07:50:56.938Z</time></trkpt><trkpt lat="43.8544767" lon="12.6340783"><ele>310.3333333333333</ele><time>2026-04-25T07:50:57.938Z</time></trkpt><trkpt lat="43.8544683" lon="12.6339317"><ele>308.6666666666667</ele><time>2026-04-25T07:50:58.937Z</time></trkpt><trkpt lat="43.854475" lon="12.6338033"><ele>307.0</ele><time>2026-04-25T07:50:59.938Z</time></trkpt><trkpt lat="43.85452" lon="12.6337083"><ele>305.33333333333337</ele><time>2026-04-25T07:51:00.938Z</time></trkpt><trkpt lat="43.85459" lon="12.63365"><ele>303.6666666666667</ele><time>2026-04-25T07:51:01.938Z</time></trkpt><trkpt lat="43.854675" lon="12.63365"><ele>302.0</ele><time>2026-04-25T07:51:02.938Z</time></trkpt><trkpt lat="43.8547433" lon="12.6336417"><ele>299.4</ele><time>2026-04-25T07:51:03.938Z</time></trkpt><trkpt lat="43.8547967" lon="12.633515"><ele>296.79999999999995</ele><time>2026-04-25T07:51:05.938Z</time></trkpt><trkpt lat="43.854695" lon="12.633385"><ele>294.2</ele><time>2026-04-25T07:51:07.938Z</time></trkpt><trkpt lat="43.85461" lon="12.633325"><ele>291.59999999999997</ele><time>2026-04-25T07:51:08.938Z</time></trkpt><trkpt lat="43.8545167" lon="12.6332583"><ele>289.0</ele><time>2026-04-25T07:51:09.938Z</time></trkpt><trkpt lat="43.8543983" lon="12.6332167"><ele>288.0</ele><time>2026-04-25T07:51:10.938Z</time></trkpt><trkpt lat="43.8542733" lon="12.6331767"><ele>287.0</ele><time>2026-04-25T07:51:11.938Z</time></trkpt><trkpt lat="43.8541517" lon="12.6331417"><ele>286.0</ele><time>2026-04-25T07:51:12.937Z</time></trkpt><trkpt lat="43.8540383" lon="12.6331183"><ele>285.0</ele><time>2026-04-25T07:51:13.936Z</time></trkpt><trkpt lat="43.8539383" lon="12.6331317"><ele>285.0</ele><time>2026-04-25T07:51:14.937Z</time></trkpt><trkpt lat="43.8538617" lon="12.6332133"><ele>285.0</ele><time>2026-04-25T07:51:15.937Z</time></trkpt><trkpt lat="43.8538083" lon="12.6333183"><ele>285.0</ele><time>2026-04-25T07:51:16.937Z</time></trkpt><trkpt lat="43.8537567" lon="12.6334133"><ele>285.0</ele><time>2026-04-25T07:51:17.937Z</time></trkpt><trkpt lat="43.8537017" lon="12.63348"><ele>285.0</ele><time>2026-04-25T07:51:18.937Z</time></trkpt><trkpt lat="43.8536083" lon="12.6333983"><ele>285.0</ele><time>2026-04-25T07:51:20.937Z</time></trkpt><trkpt lat="43.8535733" lon="12.633285"><ele>285.0</ele><time>2026-04-25T07:51:21.937Z</time></trkpt><trkpt lat="43.8535233" lon="12.6331817"><ele>285.0</ele><time>2026-04-25T07:51:22.937Z</time></trkpt><trkpt lat="43.8535" lon="12.6330267"><ele>285.0</ele><time>2026-04-25T07:51:23.937Z</time></trkpt><trkpt lat="43.853485" lon="12.6328817"><ele>285.0</ele><time>2026-04-25T07:51:24.937Z</time></trkpt><trkpt lat="43.853475" lon="12.6327567"><ele>283.3333333333333</ele><time>2026-04-25T07:51:25.937Z</time></trkpt><trkpt lat="43.853475" lon="12.6326617"><ele>281.6666666666667</ele><time>2026-04-25T07:51:26.937Z</time></trkpt><trkpt lat="43.8534767" lon="12.632545"><ele>280.0</ele><time>2026-04-25T07:51:28.937Z</time></trkpt><trkpt lat="43.8534067" lon="12.6325783"><ele>278.33333333333337</ele><time>2026-04-25T07:51:31.937Z</time></trkpt><trkpt lat="43.8533467" lon="12.6326933"><ele>276.6666666666667</ele><time>2026-04-25T07:51:33.937Z</time></trkpt><trkpt lat="43.8533267" lon="12.632785"><ele>275.0</ele><time>2026-04-25T07:51:34.937Z</time></trkpt><trkpt lat="43.8532867" lon="12.632865"><ele>273.83333333333337</ele><time>2026-04-25T07:51:35.936Z</time></trkpt><trkpt lat="43.85326" lon="12.6329617"><ele>272.6666666666667</ele><time>2026-04-25T07:51:36.937Z</time></trkpt><trkpt lat="43.8532233" lon="12.6330617"><ele>271.5</ele><time>2026-04-25T07:51:37.937Z</time></trkpt><trkpt lat="43.85319" lon="12.6331733"><ele>270.3333333333333</ele><time>2026-04-25T07:51:38.937Z</time></trkpt><trkpt lat="43.8531633" lon="12.6332917"><ele>269.16666666666663</ele><time>2026-04-25T07:51:39.937Z</time></trkpt><trkpt lat="43.8531717" lon="12.6334233"><ele>268.0</ele><time>2026-04-25T07:51:40.936Z</time></trkpt><trkpt lat="43.8531883" lon="12.633565"><ele>267.6</ele><time>2026-04-25T07:51:41.936Z</time></trkpt><trkpt lat="43.853185" lon="12.6337083"><ele>267.20000000000005</ele><time>2026-04-25T07:51:42.937Z</time></trkpt><trkpt lat="43.8531783" lon="12.6338533"><ele>266.8</ele><time>2026-04-25T07:51:43.937Z</time></trkpt><trkpt lat="43.8531383" lon="12.6339983"><ele>266.40000000000003</ele><time>2026-04-25T07:51:44.937Z</time></trkpt><trkpt lat="43.8530983" lon="12.6341567"><ele>266.0</ele><time>2026-04-25T07:51:45.936Z</time></trkpt><trkpt lat="43.8530667" lon="12.6343217"><ele>266.33333333333337</ele><time>2026-04-25T07:51:46.936Z</time></trkpt><trkpt lat="43.8530433" lon="12.6344717"><ele>266.6666666666667</ele><time>2026-04-25T07:51:47.936Z</time></trkpt><trkpt lat="43.853035" lon="12.6345983"><ele>267.0</ele><time>2026-04-25T07:51:48.937Z</time></trkpt><trkpt lat="43.8530367" lon="12.6346917"><ele>267.3333333333333</ele><time>2026-04-25T07:51:49.937Z</time></trkpt><trkpt lat="43.8530217" lon="12.6348067"><ele>267.66666666666663</ele><time>2026-04-25T07:51:51.937Z</time></trkpt><trkpt lat="43.8529483" lon="12.6348583"><ele>268.0</ele><time>2026-04-25T07:51:53.936Z</time></trkpt><trkpt lat="43.8528317" lon="12.634865"><ele>268.0</ele><time>2026-04-25T07:51:55.937Z</time></trkpt><trkpt lat="43.8527567" lon="12.6348533"><ele>268.0</ele><time>2026-04-25T07:51:56.936Z</time></trkpt><trkpt lat="43.85268" lon="12.6348483"><ele>268.0</ele><time>2026-04-25T07:51:57.937Z</time></trkpt><trkpt lat="43.8525967" lon="12.6348433"><ele>268.0</ele><time>2026-04-25T07:51:58.937Z</time></trkpt><trkpt lat="43.852515" lon="12.634835"><ele>268.0</ele><time>2026-04-25T07:51:59.937Z</time></trkpt><trkpt lat="43.8524317" lon="12.6348233"><ele>268.0</ele><time>2026-04-25T07:52:00.937Z</time></trkpt><trkpt lat="43.8523483" lon="12.6348133"><ele>266.16666666666663</ele><time>2026-04-25T07:52:01.937Z</time></trkpt><trkpt lat="43.85227" lon="12.63481"><ele>264.3333333333333</ele><time>2026-04-25T07:52:02.936Z</time></trkpt><trkpt lat="43.8522033" lon="12.6348067"><ele>262.5</ele><time>2026-04-25T07:52:03.937Z</time></trkpt><trkpt lat="43.8520833" lon="12.63481"><ele>260.6666666666667</ele><time>2026-04-25T07:52:05.937Z</time></trkpt><trkpt lat="43.8520183" lon="12.6348233"><ele>258.83333333333337</ele><time>2026-04-25T07:52:06.937Z</time></trkpt><trkpt lat="43.8519483" lon="12.6348383"><ele>257.0</ele><time>2026-04-25T07:52:07.936Z</time></trkpt><trkpt lat="43.8518767" lon="12.6348533"><ele>257.0</ele><time>2026-04-25T07:52:08.937Z</time></trkpt><trkpt lat="43.8517967" lon="12.6348683"><ele>257.0</ele><time>2026-04-25T07:52:09.937Z</time></trkpt><trkpt lat="43.85171" lon="12.6348817"><ele>257.0</ele><time>2026-04-25T07:52:10.937Z</time></trkpt><trkpt lat="43.85162" lon="12.6348867"><ele>257.0</ele><time>2026-04-25T07:52:11.936Z</time></trkpt><trkpt lat="43.8515283" lon="12.634885"><ele>257.0</ele><time>2026-04-25T07:52:12.937Z</time></trkpt><trkpt lat="43.8514383" lon="12.6348883"><ele>257.0</ele><time>2026-04-25T07:52:13.937Z</time></trkpt><trkpt lat="43.8513483" lon="12.634895"><ele>254.6</ele><time>2026-04-25T07:52:14.937Z</time></trkpt><trkpt lat="43.8512617" lon="12.6349017"><ele>252.2</ele><time>2026-04-25T07:52:15.937Z</time></trkpt><trkpt lat="43.8511817" lon="12.6349033"><ele>249.8</ele><time>2026-04-25T07:52:16.936Z</time></trkpt><trkpt lat="43.8511083" lon="12.6349017"><ele>247.4</ele><time>2026-04-25T07:52:17.937Z</time></trkpt><trkpt lat="43.8510017" lon="12.6348783"><ele>245.0</ele><time>2026-04-25T07:52:19.937Z</time></trkpt><trkpt lat="43.8508983" lon="12.63481"><ele>242.16666666666669</ele><time>2026-04-25T07:52:21.936Z</time></trkpt><trkpt lat="43.8508433" lon="12.6347617"><ele>239.33333333333334</ele><time>2026-04-25T07:52:22.936Z</time></trkpt><trkpt lat="43.8507517" lon="12.6346733"><ele>236.5</ele><time>2026-04-25T07:52:24.937Z</time></trkpt><trkpt lat="43.8506817" lon="12.6345767"><ele>233.66666666666669</ele><time>2026-04-25T07:52:26.937Z</time></trkpt><trkpt lat="43.85067" lon="12.6344433"><ele>230.83333333333334</ele><time>2026-04-25T07:52:28.937Z</time></trkpt><trkpt lat="43.850685" lon="12.6343483"><ele>228.0</ele><time>2026-04-25T07:52:30.937Z</time></trkpt><trkpt lat="43.8507" lon="12.634205"><ele>226.8</ele><time>2026-04-25T07:52:32.937Z</time></trkpt><trkpt lat="43.850685" lon="12.63403"><ele>225.60000000000002</ele><time>2026-04-25T07:52:34.937Z</time></trkpt><trkpt lat="43.850645" lon="12.6339417"><ele>224.39999999999998</ele><time>2026-04-25T07:52:35.937Z</time></trkpt><trkpt lat="43.8505817" lon="12.6338617"><ele>223.2</ele><time>2026-04-25T07:52:36.937Z</time></trkpt><trkpt lat="43.8505083" lon="12.6337967"><ele>222.0</ele><time>2026-04-25T07:52:37.937Z</time></trkpt><trkpt lat="43.8504333" lon="12.6337483"><ele>222.0</ele><time>2026-04-25T07:52:38.937Z</time></trkpt><trkpt lat="43.8503667" lon="12.6337217"><ele>222.0</ele><time>2026-04-25T07:52:39.937Z</time></trkpt><trkpt lat="43.85027" lon="12.63371"><ele>222.0</ele><time>2026-04-25T07:52:41.937Z</time></trkpt><trkpt lat="43.8501783" lon="12.63371"><ele>222.0</ele><time>2026-04-25T07:52:43.937Z</time></trkpt><trkpt lat="43.8500667" lon="12.6337"><ele>222.0</ele><time>2026-04-25T07:52:45.937Z</time></trkpt><trkpt lat="43.8499683" lon="12.6336733"><ele>218.39999999999998</ele><time>2026-04-25T07:52:47.937Z</time></trkpt><trkpt lat="43.849865" lon="12.6336467"><ele>214.79999999999998</ele><time>2026-04-25T07:52:49.937Z</time></trkpt><trkpt lat="43.8497417" lon="12.633635"><ele>211.2</ele><time>2026-04-25T07:52:51.936Z</time></trkpt><trkpt lat="43.8496767" lon="12.6336283"><ele>207.6</ele><time>2026-04-25T07:52:52.937Z</time></trkpt><trkpt lat="43.8496117" lon="12.6336233"><ele>204.0</ele><time>2026-04-25T07:52:53.937Z</time></trkpt><trkpt lat="43.8495" lon="12.6335883"><ele>203.33333333333334</ele><time>2026-04-25T07:52:55.937Z</time></trkpt><trkpt lat="43.8494217" lon="12.63349"><ele>202.66666666666669</ele><time>2026-04-25T07:52:57.936Z</time></trkpt><trkpt lat="43.8493783" lon="12.633415"><ele>202.0</ele><time>2026-04-25T07:52:58.937Z</time></trkpt><trkpt lat="43.8493267" lon="12.6333383"><ele>201.33333333333334</ele><time>2026-04-25T07:52:59.937Z</time></trkpt><trkpt lat="43.8492683" lon="12.6332633"><ele>200.66666666666669</ele><time>2026-04-25T07:53:00.937Z</time></trkpt><trkpt lat="43.8492083" lon="12.6332067"><ele>200.0</ele><time>2026-04-25T07:53:01.937Z</time></trkpt><trkpt lat="43.8491517" lon="12.6331617"><ele>197.83333333333334</ele><time>2026-04-25T07:53:02.936Z</time></trkpt><trkpt lat="43.8490683" lon="12.6330567"><ele>195.66666666666669</ele><time>2026-04-25T07:53:04.936Z</time></trkpt><trkpt lat="43.849025" lon="12.63298"><ele>193.5</ele><time>2026-04-25T07:53:05.937Z</time></trkpt><trkpt lat="43.84898" lon="12.632895"><ele>191.33333333333334</ele><time>2026-04-25T07:53:06.937Z</time></trkpt><trkpt lat="43.8489367" lon="12.6328083"><ele>189.16666666666669</ele><time>2026-04-25T07:53:07.937Z</time></trkpt><trkpt lat="43.8489033" lon="12.632725"><ele>187.0</ele><time>2026-04-25T07:53:08.937Z</time></trkpt><trkpt lat="43.848885" lon="12.6325517"><ele>186.5</ele><time>2026-04-25T07:53:10.937Z</time></trkpt><trkpt lat="43.8488917" lon="12.6324517"><ele>186.0</ele><time>2026-04-25T07:53:11.937Z</time></trkpt><trkpt lat="43.848905" lon="12.6323433"><ele>185.5</ele><time>2026-04-25T07:53:12.937Z</time></trkpt><trkpt lat="43.8489167" lon="12.632245"><ele>185.0</ele><time>2026-04-25T07:53:13.937Z</time></trkpt><trkpt lat="43.8489067" lon="12.632075"><ele>184.5</ele><time>2026-04-25T07:53:15.937Z</time></trkpt><trkpt lat="43.8488817" lon="12.6319767"><ele>184.0</ele><time>2026-04-25T07:53:16.937Z</time></trkpt><trkpt lat="43.8488433" lon="12.6318767"><ele>182.16666666666669</ele><time>2026-04-25T07:53:17.937Z</time></trkpt><trkpt lat="43.8488033" lon="12.631785"><ele>180.33333333333334</ele><time>2026-04-25T07:53:18.937Z</time></trkpt><trkpt lat="43.848755" lon="12.6316883"><ele>178.5</ele><time>2026-04-25T07:53:19.937Z</time></trkpt><trkpt lat="43.8487117" lon="12.6315883"><ele>176.66666666666666</ele><time>2026-04-25T07:53:20.937Z</time></trkpt><trkpt lat="43.84867" lon="12.6315"><ele>174.83333333333331</ele><time>2026-04-25T07:53:21.937Z</time></trkpt><trkpt lat="43.84863" lon="12.6314317"><ele>173.0</ele><time>2026-04-25T07:53:22.937Z</time></trkpt><trkpt lat="43.8485733" lon="12.6313867"><ele>173.0</ele><time>2026-04-25T07:53:23.937Z</time></trkpt><trkpt lat="43.8485033" lon="12.6313567"><ele>173.0</ele><time>2026-04-25T07:53:24.937Z</time></trkpt><trkpt lat="43.84843" lon="12.6313417"><ele>173.0</ele><time>2026-04-25T07:53:25.936Z</time></trkpt><trkpt lat="43.8483583" lon="12.63134"><ele>173.0</ele><time>2026-04-25T07:53:26.937Z</time></trkpt><trkpt lat="43.848275" lon="12.6313617"><ele>173.0</ele><time>2026-04-25T07:53:27.936Z</time></trkpt><trkpt lat="43.8481867" lon="12.63139"><ele>173.0</ele><time>2026-04-25T07:53:28.937Z</time></trkpt><trkpt lat="43.848095" lon="12.6314233"><ele>172.4</ele><time>2026-04-25T07:53:29.937Z</time></trkpt><trkpt lat="43.848" lon="12.63146"><ele>171.8</ele><time>2026-04-25T07:53:30.937Z</time></trkpt><trkpt lat="43.8479033" lon="12.6315033"><ele>171.2</ele><time>2026-04-25T07:53:31.936Z</time></trkpt><trkpt lat="43.847805" lon="12.6315433"><ele>170.6</ele><time>2026-04-25T07:53:32.936Z</time></trkpt><trkpt lat="43.8477083" lon="12.631565"><ele>170.0</ele><time>2026-04-25T07:53:33.937Z</time></trkpt><trkpt lat="43.847615" lon="12.6315717"><ele>167.5</ele><time>2026-04-25T07:53:34.937Z</time></trkpt><trkpt lat="43.847535" lon="12.63157"><ele>165.0</ele><time>2026-04-25T07:53:35.937Z</time></trkpt><trkpt lat="43.8474233" lon="12.6315183"><ele>162.5</ele><time>2026-04-25T07:53:37.936Z</time></trkpt><trkpt lat="43.8473133" lon="12.6314333"><ele>160.0</ele><time>2026-04-25T07:53:39.937Z</time></trkpt><trkpt lat="43.8472017" lon="12.6313467"><ele>160.0</ele><time>2026-04-25T07:53:41.937Z</time></trkpt><trkpt lat="43.8471367" lon="12.631305"><ele>160.0</ele><time>2026-04-25T07:53:42.937Z</time></trkpt><trkpt lat="43.84707" lon="12.631275"><ele>160.0</ele><time>2026-04-25T07:53:43.937Z</time></trkpt><trkpt lat="43.8470017" lon="12.6312533"><ele>160.0</ele><time>2026-04-25T07:53:44.937Z</time></trkpt><trkpt lat="43.8469333" lon="12.63124"><ele>160.0</ele><time>2026-04-25T07:53:45.937Z</time></trkpt><trkpt lat="43.8468633" lon="12.6312267"><ele>160.0</ele><time>2026-04-25T07:53:46.937Z</time></trkpt><trkpt lat="43.8467867" lon="12.6312083"><ele>160.0</ele><time>2026-04-25T07:53:47.937Z</time></trkpt><trkpt lat="43.8467067" lon="12.631185"><ele>158.5</ele><time>2026-04-25T07:53:48.937Z</time></trkpt><trkpt lat="43.8466233" lon="12.6311633"><ele>157.0</ele><time>2026-04-25T07:53:49.937Z</time></trkpt><trkpt lat="43.8465367" lon="12.631145"><ele>155.5</ele><time>2026-04-25T07:53:50.937Z</time></trkpt><trkpt lat="43.8464433" lon="12.6311233"><ele>154.0</ele><time>2026-04-25T07:53:51.937Z</time></trkpt><trkpt lat="43.846355" lon="12.6311033"><ele>152.5</ele><time>2026-04-25T07:53:52.937Z</time></trkpt><trkpt lat="43.84627" lon="12.6310933"><ele>151.0</ele><time>2026-04-25T07:53:53.937Z</time></trkpt><trkpt lat="43.8461817" lon="12.631105"><ele>151.0</ele><time>2026-04-25T07:53:54.937Z</time></trkpt><trkpt lat="43.846085" lon="12.6311317"><ele>151.0</ele><time>2026-04-25T07:53:55.937Z</time></trkpt><trkpt lat="43.8459933" lon="12.63116"><ele>151.0</ele><time>2026-04-25T07:53:56.937Z</time></trkpt><trkpt lat="43.8459083" lon="12.6311783"><ele>151.0</ele><time>2026-04-25T07:53:57.937Z</time></trkpt><trkpt lat="43.8458217" lon="12.6311883"><ele>151.0</ele><time>2026-04-25T07:53:58.936Z</time></trkpt><trkpt lat="43.8457283" lon="12.631185"><ele>149.33333333333334</ele><time>2026-04-25T07:53:59.937Z</time></trkpt><trkpt lat="43.845635" lon="12.6311767"><ele>147.66666666666669</ele><time>2026-04-25T07:54:00.937Z</time></trkpt><trkpt lat="43.8455467" lon="12.631165"><ele>146.0</ele><time>2026-04-25T07:54:01.937Z</time></trkpt><trkpt lat="43.84546" lon="12.6311583"><ele>144.33333333333334</ele><time>2026-04-25T07:54:02.937Z</time></trkpt><trkpt lat="43.8453767" lon="12.6311617"><ele>142.66666666666666</ele><time>2026-04-25T07:54:03.938Z</time></trkpt><trkpt lat="43.8453" lon="12.631185"><ele>141.0</ele><time>2026-04-25T07:54:04.938Z</time></trkpt><trkpt lat="43.8452283" lon="12.6312217"><ele>141.0</ele><time>2026-04-25T07:54:05.938Z</time></trkpt><trkpt lat="43.8451567" lon="12.6312667"><ele>141.0</ele><time>2026-04-25T07:54:06.937Z</time></trkpt><trkpt lat="43.8450817" lon="12.6313117"><ele>141.0</ele><time>2026-04-25T07:54:07.938Z</time></trkpt><trkpt lat="43.8450017" lon="12.6313583"><ele>141.0</ele><time>2026-04-25T07:54:08.938Z</time></trkpt><trkpt lat="43.8449267" lon="12.6313983"><ele>141.0</ele><time>2026-04-25T07:54:09.938Z</time></trkpt><trkpt lat="43.8448167" lon="12.6314567"><ele>141.0</ele><time>2026-04-25T07:54:11.937Z</time></trkpt><trkpt lat="43.84476" lon="12.6315133"><ele>139.5</ele><time>2026-04-25T07:54:12.938Z</time></trkpt><trkpt lat="43.8446983" lon="12.6315733"><ele>138.0</ele><time>2026-04-25T07:54:13.938Z</time></trkpt><trkpt lat="43.8446467" lon="12.6316317"><ele>136.5</ele><time>2026-04-25T07:54:14.938Z</time></trkpt><trkpt lat="43.84459" lon="12.6317867"><ele>135.0</ele><time>2026-04-25T07:54:16.938Z</time></trkpt><trkpt lat="43.8445767" lon="12.6318917"><ele>133.5</ele><time>2026-04-25T07:54:17.938Z</time></trkpt><trkpt lat="43.8445633" lon="12.6320083"><ele>132.0</ele><time>2026-04-25T07:54:18.938Z</time></trkpt><trkpt lat="43.8445383" lon="12.6321233"><ele>132.0</ele><time>2026-04-25T07:54:19.938Z</time></trkpt><trkpt lat="43.844495" lon="12.6322333"><ele>132.0</ele><time>2026-04-25T07:54:20.937Z</time></trkpt><trkpt lat="43.844445" lon="12.6323517"><ele>132.0</ele><time>2026-04-25T07:54:21.938Z</time></trkpt><trkpt lat="43.8444017" lon="12.6324767"><ele>132.0</ele><time>2026-04-25T07:54:22.938Z</time></trkpt><trkpt lat="43.8443517" lon="12.632585"><ele>132.0</ele><time>2026-04-25T07:54:23.937Z</time></trkpt><trkpt lat="43.8442883" lon="12.6326833"><ele>131.33333333333334</ele><time>2026-04-25T07:54:24.937Z</time></trkpt><trkpt lat="43.8442417" lon="12.6327933"><ele>130.66666666666666</ele><time>2026-04-25T07:54:25.938Z</time></trkpt><trkpt lat="43.8441983" lon="12.6328967"><ele>130.0</ele><time>2026-04-25T07:54:26.938Z</time></trkpt><trkpt lat="43.8441767" lon="12.633015"><ele>129.33333333333331</ele><time>2026-04-25T07:54:27.938Z</time></trkpt><trkpt lat="43.8441683" lon="12.6331333"><ele>128.66666666666666</ele><time>2026-04-25T07:54:28.938Z</time></trkpt><trkpt lat="43.8441383" lon="12.6332133"><ele>128.0</ele><time>2026-04-25T07:54:29.938Z</time></trkpt><trkpt lat="43.8440967" lon="12.63328"><ele>127.66666666666666</ele><time>2026-04-25T07:54:30.938Z</time></trkpt><trkpt lat="43.8440433" lon="12.633355"><ele>127.33333333333333</ele><time>2026-04-25T07:54:31.938Z</time></trkpt><trkpt lat="43.84397" lon="12.6334267"><ele>127.0</ele><time>2026-04-25T07:54:32.938Z</time></trkpt><trkpt lat="43.8439033" lon="12.6334883"><ele>126.66666666666666</ele><time>2026-04-25T07:54:33.937Z</time></trkpt><trkpt lat="43.8438383" lon="12.63351"><ele>126.33333333333333</ele><time>2026-04-25T07:54:34.938Z</time></trkpt><trkpt lat="43.8437667" lon="12.633505"><ele>126.0</ele><time>2026-04-25T07:54:35.938Z</time></trkpt><trkpt lat="43.84368" lon="12.6334933"><ele>126.0</ele><time>2026-04-25T07:54:36.938Z</time></trkpt><trkpt lat="43.8435967" lon="12.6334917"><ele>126.0</ele><time>2026-04-25T07:54:37.937Z</time></trkpt><trkpt lat="43.8435217" lon="12.63351"><ele>126.0</ele><time>2026-04-25T07:54:38.938Z</time></trkpt><trkpt lat="43.84344" lon="12.63355"><ele>126.0</ele><time>2026-04-25T07:54:39.937Z</time></trkpt><trkpt lat="43.8433517" lon="12.6335933"><ele>126.0</ele><time>2026-04-25T07:54:40.938Z</time></trkpt><trkpt lat="43.8432683" lon="12.6336333"><ele>126.0</ele><time>2026-04-25T07:54:41.937Z</time></trkpt><trkpt lat="43.8431917" lon="12.63366"><ele>125.83333333333333</ele><time>2026-04-25T07:54:42.938Z</time></trkpt><trkpt lat="43.84312" lon="12.6336933"><ele>125.66666666666666</ele><time>2026-04-25T07:54:43.938Z</time></trkpt><trkpt lat="43.843005" lon="12.6337833"><ele>125.5</ele><time>2026-04-25T07:54:45.938Z</time></trkpt><trkpt lat="43.8429367" lon="12.6338383"><ele>125.33333333333333</ele><time>2026-04-25T07:54:46.938Z</time></trkpt><trkpt lat="43.8428683" lon="12.633875"><ele>125.16666666666666</ele><time>2026-04-25T07:54:47.937Z</time></trkpt><trkpt lat="43.8428017" lon="12.6339033"><ele>125.0</ele><time>2026-04-25T07:54:48.938Z</time></trkpt><trkpt lat="43.842735" lon="12.6339183"><ele>124.6</ele><time>2026-04-25T07:54:49.938Z</time></trkpt><trkpt lat="43.8426233" lon="12.6338867"><ele>124.2</ele><time>2026-04-25T07:54:51.938Z</time></trkpt><trkpt lat="43.8425233" lon="12.633835"><ele>123.80000000000001</ele><time>2026-04-25T07:54:53.938Z</time></trkpt><trkpt lat="43.842415" lon="12.6338417"><ele>123.4</ele><time>2026-04-25T07:54:55.938Z</time></trkpt><trkpt lat="43.8423017" lon="12.6338883"><ele>123.0</ele><time>2026-04-25T07:54:57.938Z</time></trkpt><trkpt lat="43.8422383" lon="12.6339317"><ele>123.0</ele><time>2026-04-25T07:54:58.938Z</time></trkpt><trkpt lat="43.8421783" lon="12.6339867"><ele>123.0</ele><time>2026-04-25T07:54:59.938Z</time></trkpt><trkpt lat="43.8421383" lon="12.6340567"><ele>123.0</ele><time>2026-04-25T07:55:00.938Z</time></trkpt><trkpt lat="43.8421117" lon="12.6341467"><ele>123.0</ele><time>2026-04-25T07:55:01.937Z</time></trkpt><trkpt lat="43.8420917" lon="12.63426"><ele>123.0</ele><time>2026-04-25T07:55:02.937Z</time></trkpt><trkpt lat="43.84208" lon="12.6343883"><ele>123.0</ele><time>2026-04-25T07:55:03.938Z</time></trkpt><trkpt lat="43.842065" lon="12.6345067"><ele>123.0</ele><time>2026-04-25T07:55:04.938Z</time></trkpt><trkpt lat="43.8420317" lon="12.6346117"><ele>123.00000000000001</ele><time>2026-04-25T07:55:05.938Z</time></trkpt><trkpt lat="43.8419783" lon="12.6347033"><ele>123.00000000000001</ele><time>2026-04-25T07:55:06.938Z</time></trkpt><trkpt lat="43.84191" lon="12.63479"><ele>123.0</ele><time>2026-04-25T07:55:07.938Z</time></trkpt><trkpt lat="43.8418267" lon="12.6348767"><ele>123.0</ele><time>2026-04-25T07:55:08.938Z</time></trkpt><trkpt lat="43.841735" lon="12.6349833"><ele>123.0</ele><time>2026-04-25T07:55:09.937Z</time></trkpt><trkpt lat="43.8416433" lon="12.635115"><ele>123.0</ele><time>2026-04-25T07:55:10.938Z</time></trkpt><trkpt lat="43.841555" lon="12.6352467"><ele>123.0</ele><time>2026-04-25T07:55:11.938Z</time></trkpt><trkpt lat="43.8414733" lon="12.6353633"><ele>123.0</ele><time>2026-04-25T07:55:12.938Z</time></trkpt><trkpt lat="43.8414017" lon="12.6354733"><ele>122.60000000000001</ele><time>2026-04-25T07:55:13.938Z</time></trkpt><trkpt lat="43.8413383" lon="12.6355617"><ele>122.20000000000002</ele><time>2026-04-25T07:55:14.938Z</time></trkpt><trkpt lat="43.8412833" lon="12.6356183"><ele>121.8</ele><time>2026-04-25T07:55:15.938Z</time></trkpt><trkpt lat="43.8411833" lon="12.6356517"><ele>121.4</ele><time>2026-04-25T07:55:17.938Z</time></trkpt><trkpt lat="43.8410867" lon="12.6356483"><ele>121.0</ele><time>2026-04-25T07:55:19.938Z</time></trkpt><trkpt lat="43.8409883" lon="12.6357233"><ele>121.50000000000001</ele><time>2026-04-25T07:55:21.937Z</time></trkpt><trkpt lat="43.840925" lon="12.6357633"><ele>122.0</ele><time>2026-04-25T07:55:22.938Z</time></trkpt><trkpt lat="43.8408583" lon="12.6358317"><ele>122.5</ele><time>2026-04-25T07:55:23.937Z</time></trkpt><trkpt lat="43.8407867" lon="12.6359033"><ele>123.0</ele><time>2026-04-25T07:55:24.937Z</time></trkpt><trkpt lat="43.8407183" lon="12.63597"><ele>123.50000000000001</ele><time>2026-04-25T07:55:25.937Z</time></trkpt><trkpt lat="43.8406683" lon="12.636035"><ele>124.0</ele><time>2026-04-25T07:55:26.938Z</time></trkpt><trkpt lat="43.84056" lon="12.6360317"><ele>124.0</ele><time>2026-04-25T07:55:44.937Z</time></trkpt><trkpt lat="43.8404783" lon="12.6359417"><ele>124.0</ele><time>2026-04-25T07:55:46.937Z</time></trkpt><trkpt lat="43.8404117" lon="12.6358333"><ele>124.0</ele><time>2026-04-25T07:55:48.937Z</time></trkpt><trkpt lat="43.840345" lon="12.6357717"><ele>124.0</ele><time>2026-04-25T07:55:50.937Z</time></trkpt><trkpt lat="43.8403333" lon="12.63586"><ele>124.0</ele><time>2026-04-25T07:56:00.937Z</time></trkpt><trkpt lat="43.8404167" lon="12.6359933"><ele>124.00000000000001</ele><time>2026-04-25T07:56:02.936Z</time></trkpt><trkpt lat="43.84047" lon="12.63606"><ele>124.0</ele><time>2026-04-25T07:56:03.937Z</time></trkpt><trkpt lat="43.8405267" lon="12.6361333"><ele>124.0</ele><time>2026-04-25T07:56:04.937Z</time></trkpt><trkpt lat="43.840585" lon="12.63623"><ele>124.0</ele><time>2026-04-25T07:56:05.937Z</time></trkpt><trkpt lat="43.8406483" lon="12.6363333"><ele>124.00000000000001</ele><time>2026-04-25T07:56:06.936Z</time></trkpt><trkpt lat="43.8407133" lon="12.6364383"><ele>124.0</ele><time>2026-04-25T07:56:07.937Z</time></trkpt><trkpt lat="43.840765" lon="12.6365517"><ele>123.2</ele><time>2026-04-25T07:56:08.937Z</time></trkpt><trkpt lat="43.8407767" lon="12.6366883"><ele>122.4</ele><time>2026-04-25T07:56:09.937Z</time></trkpt><trkpt lat="43.8407567" lon="12.6368317"><ele>121.6</ele><time>2026-04-25T07:56:10.936Z</time></trkpt><trkpt lat="43.840725" lon="12.636975"><ele>120.8</ele><time>2026-04-25T07:56:11.937Z</time></trkpt><trkpt lat="43.8406967" lon="12.63713"><ele>120.0</ele><time>2026-04-25T07:56:12.936Z</time></trkpt><trkpt lat="43.8406733" lon="12.637295"><ele>120.0</ele><time>2026-04-25T07:56:13.937Z</time></trkpt><trkpt lat="43.8406483" lon="12.6374467"><ele>120.0</ele><time>2026-04-25T07:56:14.936Z</time></trkpt><trkpt lat="43.8405917" lon="12.6375833"><ele>120.0</ele><time>2026-04-25T07:56:15.937Z</time></trkpt><trkpt lat="43.8404983" lon="12.6377033"><ele>120.0</ele><time>2026-04-25T07:56:16.937Z</time></trkpt><trkpt lat="43.840405" lon="12.6378267"><ele>120.0</ele><time>2026-04-25T07:56:17.937Z</time></trkpt><trkpt lat="43.840345" lon="12.6379783"><ele>120.0</ele><time>2026-04-25T07:56:18.937Z</time></trkpt><trkpt lat="43.8403283" lon="12.6381483"><ele>120.0</ele><time>2026-04-25T07:56:19.937Z</time></trkpt><trkpt lat="43.8403433" lon="12.6383167"><ele>120.0</ele><time>2026-04-25T07:56:20.937Z</time></trkpt><trkpt lat="43.8403817" lon="12.6384917"><ele>120.0</ele><time>2026-04-25T07:56:21.936Z</time></trkpt><trkpt lat="43.8404067" lon="12.6386733"><ele>120.0</ele><time>2026-04-25T07:56:22.937Z</time></trkpt><trkpt lat="43.8404117" lon="12.63885"><ele>120.0</ele><time>2026-04-25T07:56:23.937Z</time></trkpt><trkpt lat="43.840415" lon="12.6390217"><ele>120.0</ele><time>2026-04-25T07:56:24.937Z</time></trkpt><trkpt lat="43.8404433" lon="12.6391867"><ele>120.0</ele><time>2026-04-25T07:56:25.937Z</time></trkpt><trkpt lat="43.8405" lon="12.63935"><ele>120.0</ele><time>2026-04-25T07:56:26.937Z</time></trkpt><trkpt lat="43.84059" lon="12.639505"><ele>120.0</ele><time>2026-04-25T07:56:27.937Z</time></trkpt><trkpt lat="43.8407033" lon="12.6396483"><ele>120.0</ele><time>2026-04-25T07:56:28.937Z</time></trkpt><trkpt lat="43.8408133" lon="12.6397783"><ele>120.25</ele><time>2026-04-25T07:56:29.936Z</time></trkpt><trkpt lat="43.8409067" lon="12.6399133"><ele>120.5</ele><time>2026-04-25T07:56:30.937Z</time></trkpt><trkpt lat="43.84099" lon="12.6400483"><ele>120.75</ele><time>2026-04-25T07:56:31.937Z</time></trkpt><trkpt lat="43.8410667" lon="12.6401867"><ele>121.0</ele><time>2026-04-25T07:56:32.936Z</time></trkpt><trkpt lat="43.841135" lon="12.6403267"><ele>120.25</ele><time>2026-04-25T07:56:33.937Z</time></trkpt><trkpt lat="43.8412167" lon="12.6404417"><ele>119.5</ele><time>2026-04-25T07:56:34.937Z</time></trkpt><trkpt lat="43.8413017" lon="12.6405567"><ele>118.75</ele><time>2026-04-25T07:56:35.936Z</time></trkpt><trkpt lat="43.841375" lon="12.6406967"><ele>118.0</ele><time>2026-04-25T07:56:36.937Z</time></trkpt><trkpt lat="43.841445" lon="12.6408417"><ele>118.0</ele><time>2026-04-25T07:56:37.937Z</time></trkpt><trkpt lat="43.8415033" lon="12.6409933"><ele>118.0</ele><time>2026-04-25T07:56:38.936Z</time></trkpt><trkpt lat="43.84153" lon="12.6411567"><ele>118.0</ele><time>2026-04-25T07:56:39.937Z</time></trkpt><trkpt lat="43.841525" lon="12.6413167"><ele>118.0</ele><time>2026-04-25T07:56:40.936Z</time></trkpt><trkpt lat="43.8414867" lon="12.6414683"><ele>118.4</ele><time>2026-04-25T07:56:41.937Z</time></trkpt><trkpt lat="43.8414433" lon="12.6416067"><ele>118.80000000000001</ele><time>2026-04-25T07:56:42.937Z</time></trkpt><trkpt lat="43.8413767" lon="12.6417383"><ele>119.2</ele><time>2026-04-25T07:56:43.936Z</time></trkpt><trkpt lat="43.8413267" lon="12.64187"><ele>119.6</ele><time>2026-04-25T07:56:44.937Z</time></trkpt><trkpt lat="43.841315" lon="12.6420133"><ele>120.0</ele><time>2026-04-25T07:56:45.937Z</time></trkpt><trkpt lat="43.84131" lon="12.6421717"><ele>120.25</ele><time>2026-04-25T07:56:46.937Z</time></trkpt><trkpt lat="43.841295" lon="12.6423517"><ele>120.5</ele><time>2026-04-25T07:56:47.936Z</time></trkpt><trkpt lat="43.8412617" lon="12.6425367"><ele>120.75</ele><time>2026-04-25T07:56:48.936Z</time></trkpt><trkpt lat="43.84122" lon="12.642725"><ele>121.0</ele><time>2026-04-25T07:56:49.937Z</time></trkpt><trkpt lat="43.8411717" lon="12.6429233"><ele>122.33333333333334</ele><time>2026-04-25T07:56:50.936Z</time></trkpt><trkpt lat="43.8411233" lon="12.6431283"><ele>123.66666666666666</ele><time>2026-04-25T07:56:51.937Z</time></trkpt><trkpt lat="43.841075" lon="12.6433367"><ele>125.0</ele><time>2026-04-25T07:56:52.937Z</time></trkpt><trkpt lat="43.8410233" lon="12.6435417"><ele>122.33333333333333</ele><time>2026-04-25T07:56:53.937Z</time></trkpt><trkpt lat="43.8409617" lon="12.6437433"><ele>119.66666666666666</ele><time>2026-04-25T07:56:54.937Z</time></trkpt><trkpt lat="43.8409017" lon="12.6439467"><ele>117.0</ele><time>2026-04-25T07:56:55.936Z</time></trkpt><trkpt lat="43.840845" lon="12.6441433"><ele>117.0</ele><time>2026-04-25T07:56:56.937Z</time></trkpt><trkpt lat="43.8408033" lon="12.6443267"><ele>117.0</ele><time>2026-04-25T07:56:57.937Z</time></trkpt><trkpt lat="43.8407883" lon="12.6444933"><ele>117.0</ele><time>2026-04-25T07:56:58.936Z</time></trkpt><trkpt lat="43.8407983" lon="12.64465"><ele>117.0</ele><time>2026-04-25T07:56:59.936Z</time></trkpt><trkpt lat="43.8408067" lon="12.6448017"><ele>117.25</ele><time>2026-04-25T07:57:00.937Z</time></trkpt><trkpt lat="43.84079" lon="12.6449417"><ele>117.5</ele><time>2026-04-25T07:57:01.936Z</time></trkpt><trkpt lat="43.8407533" lon="12.6450867"><ele>117.75</ele><time>2026-04-25T07:57:02.937Z</time></trkpt><trkpt lat="43.84071" lon="12.6452467"><ele>118.0</ele><time>2026-04-25T07:57:03.936Z</time></trkpt><trkpt lat="43.840665" lon="12.6454233"><ele>118.5</ele><time>2026-04-25T07:57:04.937Z</time></trkpt><trkpt lat="43.8406333" lon="12.6456017"><ele>119.0</ele><time>2026-04-25T07:57:05.937Z</time></trkpt><trkpt lat="43.84061" lon="12.6457767"><ele>119.5</ele><time>2026-04-25T07:57:06.937Z</time></trkpt><trkpt lat="43.8405567" lon="12.645935"><ele>120.0</ele><time>2026-04-25T07:57:07.937Z</time></trkpt><trkpt lat="43.8404867" lon="12.6460783"><ele>120.25</ele><time>2026-04-25T07:57:08.937Z</time></trkpt><trkpt lat="43.8403917" lon="12.6461933"><ele>120.5</ele><time>2026-04-25T07:57:09.936Z</time></trkpt><trkpt lat="43.8402733" lon="12.646285"><ele>120.75</ele><time>2026-04-25T07:57:10.936Z</time></trkpt><trkpt lat="43.8401417" lon="12.6463533"><ele>121.0</ele><time>2026-04-25T07:57:11.937Z</time></trkpt><trkpt lat="43.84001" lon="12.6464083"><ele>121.0</ele><time>2026-04-25T07:57:12.937Z</time></trkpt><trkpt lat="43.8398733" lon="12.6464583"><ele>121.0</ele><time>2026-04-25T07:57:13.937Z</time></trkpt><trkpt lat="43.839735" lon="12.6465067"><ele>121.0</ele><time>2026-04-25T07:57:14.937Z</time></trkpt><trkpt lat="43.8395967" lon="12.6465567"><ele>121.0</ele><time>2026-04-25T07:57:15.937Z</time></trkpt><trkpt lat="43.8394633" lon="12.64661"><ele>121.0</ele><time>2026-04-25T07:57:16.937Z</time></trkpt><trkpt lat="43.8393367" lon="12.6466633"><ele>121.0</ele><time>2026-04-25T07:57:17.937Z</time></trkpt><trkpt lat="43.8392117" lon="12.6467283"><ele>121.0</ele><time>2026-04-25T07:57:18.937Z</time></trkpt><trkpt lat="43.8390967" lon="12.6468033"><ele>121.0</ele><time>2026-04-25T07:57:19.936Z</time></trkpt><trkpt lat="43.839005" lon="12.6468817"><ele>120.83333333333334</ele><time>2026-04-25T07:57:20.937Z</time></trkpt><trkpt lat="43.8389333" lon="12.646955"><ele>120.66666666666667</ele><time>2026-04-25T07:57:21.937Z</time></trkpt><trkpt lat="43.83887" lon="12.6470133"><ele>120.5</ele><time>2026-04-25T07:57:22.937Z</time></trkpt><trkpt lat="43.8388033" lon="12.6470533"><ele>120.33333333333334</ele><time>2026-04-25T07:57:23.937Z</time></trkpt><trkpt lat="43.8387283" lon="12.6470567"><ele>120.16666666666667</ele><time>2026-04-25T07:57:24.937Z</time></trkpt><trkpt lat="43.8386467" lon="12.647025"><ele>120.0</ele><time>2026-04-25T07:57:25.937Z</time></trkpt><trkpt lat="43.8385683" lon="12.64694"><ele>119.83333333333333</ele><time>2026-04-25T07:57:26.937Z</time></trkpt><trkpt lat="43.8385083" lon="12.64684"><ele>119.66666666666666</ele><time>2026-04-25T07:57:27.937Z</time></trkpt><trkpt lat="43.838475" lon="12.646735"><ele>119.5</ele><time>2026-04-25T07:57:28.937Z</time></trkpt><trkpt lat="43.83847" lon="12.6466267"><ele>119.33333333333333</ele><time>2026-04-25T07:57:29.937Z</time></trkpt><trkpt lat="43.8384867" lon="12.64652"><ele>119.16666666666666</ele><time>2026-04-25T07:57:30.937Z</time></trkpt><trkpt lat="43.8384967" lon="12.646415"><ele>119.0</ele><time>2026-04-25T07:57:31.936Z</time></trkpt><trkpt lat="43.8384833" lon="12.64631"><ele>117.2</ele><time>2026-04-25T07:57:32.936Z</time></trkpt><trkpt lat="43.8384467" lon="12.6462017"><ele>115.4</ele><time>2026-04-25T07:57:33.937Z</time></trkpt><trkpt lat="43.8383933" lon="12.6460867"><ele>113.6</ele><time>2026-04-25T07:57:34.937Z</time></trkpt><trkpt lat="43.8383217" lon="12.645965"><ele>111.8</ele><time>2026-04-25T07:57:35.937Z</time></trkpt><trkpt lat="43.8382417" lon="12.645845"><ele>110.0</ele><time>2026-04-25T07:57:36.936Z</time></trkpt><trkpt lat="43.838155" lon="12.6457383"><ele>109.83333333333333</ele><time>2026-04-25T07:57:37.937Z</time></trkpt><trkpt lat="43.8380617" lon="12.6456633"><ele>109.66666666666666</ele><time>2026-04-25T07:57:38.937Z</time></trkpt><trkpt lat="43.837975" lon="12.6456283"><ele>109.5</ele><time>2026-04-25T07:57:39.937Z</time></trkpt><trkpt lat="43.837895" lon="12.645625"><ele>109.33333333333334</ele><time>2026-04-25T07:57:40.936Z</time></trkpt><trkpt lat="43.8378283" lon="12.6456617"><ele>109.16666666666667</ele><time>2026-04-25T07:57:41.937Z</time></trkpt><trkpt lat="43.8377833" lon="12.6457517"><ele>109.0</ele><time>2026-04-25T07:57:42.937Z</time></trkpt><trkpt lat="43.83773" lon="12.6458667"><ele>109.00000000000001</ele><time>2026-04-25T07:57:43.937Z</time></trkpt><trkpt lat="43.83766" lon="12.6459767"><ele>109.0</ele><time>2026-04-25T07:57:44.937Z</time></trkpt><trkpt lat="43.83758" lon="12.646045"><ele>109.0</ele><time>2026-04-25T07:57:45.937Z</time></trkpt><trkpt lat="43.8375067" lon="12.64607"><ele>109.0</ele><time>2026-04-25T07:57:46.937Z</time></trkpt><trkpt lat="43.837445" lon="12.6460183"><ele>109.00000000000001</ele><time>2026-04-25T07:57:47.937Z</time></trkpt><trkpt lat="43.8373833" lon="12.6459317"><ele>109.0</ele><time>2026-04-25T07:57:48.937Z</time></trkpt><trkpt lat="43.8373283" lon="12.6458233"><ele>109.80000000000001</ele><time>2026-04-25T07:57:49.937Z</time></trkpt><trkpt lat="43.8372783" lon="12.645695"><ele>110.60000000000001</ele><time>2026-04-25T07:57:50.937Z</time></trkpt><trkpt lat="43.8372117" lon="12.6455933"><ele>111.4</ele><time>2026-04-25T07:57:51.936Z</time></trkpt><trkpt lat="43.8371233" lon="12.645535"><ele>112.2</ele><time>2026-04-25T07:57:52.936Z</time></trkpt><trkpt lat="43.837025" lon="12.6455017"><ele>113.0</ele><time>2026-04-25T07:57:53.936Z</time></trkpt><trkpt lat="43.836925" lon="12.64549"><ele>113.0</ele><time>2026-04-25T07:57:54.937Z</time></trkpt><trkpt lat="43.836805" lon="12.645505"><ele>113.0</ele><time>2026-04-25T07:57:55.937Z</time></trkpt><trkpt lat="43.836675" lon="12.6455467"><ele>113.0</ele><time>2026-04-25T07:57:56.937Z</time></trkpt><trkpt lat="43.8365517" lon="12.6455933"><ele>113.0</ele><time>2026-04-25T07:57:57.936Z</time></trkpt><trkpt lat="43.836445" lon="12.6456417"><ele>115.80000000000001</ele><time>2026-04-25T07:57:58.937Z</time></trkpt><trkpt lat="43.8363632" lon="12.6456989"><ele>118.60000000000001</ele><time>2026-04-25T07:57:59.937Z</time></trkpt><trkpt lat="43.8363094" lon="12.6457893"><ele>121.39999999999999</ele><time>2026-04-25T07:58:00.937Z</time></trkpt><trkpt lat="43.8362721" lon="12.645912"><ele>124.19999999999999</ele><time>2026-04-25T07:58:01.936Z</time></trkpt><trkpt lat="43.8362438" lon="12.6460603"><ele>127.0</ele><time>2026-04-25T07:58:02.937Z</time></trkpt><trkpt lat="43.8362192" lon="12.6462332"><ele>127.0</ele><time>2026-04-25T07:58:03.937Z</time></trkpt><trkpt lat="43.836194" lon="12.6464191"><ele>127.0</ele><time>2026-04-25T07:58:04.936Z</time></trkpt><trkpt lat="43.8361689" lon="12.6466266"><ele>127.0</ele><time>2026-04-25T07:58:05.936Z</time></trkpt><trkpt lat="43.8361428" lon="12.6468464"><ele>127.0</ele><time>2026-04-25T07:58:06.936Z</time></trkpt><trkpt lat="43.8361181" lon="12.6470668"><ele>127.0</ele><time>2026-04-25T07:58:07.937Z</time></trkpt><trkpt lat="43.8360909" lon="12.6472806"><ele>127.0</ele><time>2026-04-25T07:58:08.937Z</time></trkpt><trkpt lat="43.8360552" lon="12.6474894"><ele>127.0</ele><time>2026-04-25T07:58:09.937Z</time></trkpt><trkpt lat="43.8360089" lon="12.6477041"><ele>132.0</ele><time>2026-04-25T07:58:10.936Z</time></trkpt><trkpt lat="43.8359507" lon="12.6479235"><ele>137.0</ele><time>2026-04-25T07:58:11.937Z</time></trkpt><trkpt lat="43.8358836" lon="12.648144"><ele>142.0</ele><time>2026-04-25T07:58:12.937Z</time></trkpt><trkpt lat="43.8358029" lon="12.6483521"><ele>142.0</ele><time>2026-04-25T07:58:13.936Z</time></trkpt><trkpt lat="43.8357195" lon="12.6485491"><ele>142.0</ele><time>2026-04-25T07:58:14.937Z</time></trkpt><trkpt lat="43.8356368" lon="12.6487427"><ele>142.0</ele><time>2026-04-25T07:58:15.937Z</time></trkpt><trkpt lat="43.8355487" lon="12.6489368"><ele>140.33333333333334</ele><time>2026-04-25T07:58:16.937Z</time></trkpt><trkpt lat="43.8354606" lon="12.6491314"><ele>138.66666666666666</ele><time>2026-04-25T07:58:17.937Z</time></trkpt><trkpt lat="43.8353772" lon="12.6493257"><ele>137.0</ele><time>2026-04-25T07:58:18.936Z</time></trkpt><trkpt lat="43.8352985" lon="12.649505"><ele>135.33333333333331</ele><time>2026-04-25T07:58:19.937Z</time></trkpt><trkpt lat="43.8352146" lon="12.6496684"><ele>133.66666666666666</ele><time>2026-04-25T07:58:20.937Z</time></trkpt><trkpt lat="43.8351128" lon="12.6498223"><ele>132.0</ele><time>2026-04-25T07:58:21.937Z</time></trkpt><trkpt lat="43.8349997" lon="12.6499722"><ele>137.0</ele><time>2026-04-25T07:58:22.936Z</time></trkpt><trkpt lat="43.8348822" lon="12.6501209"><ele>142.0</ele><time>2026-04-25T07:58:23.937Z</time></trkpt><trkpt lat="43.8347644" lon="12.6502669"><ele>147.0</ele><time>2026-04-25T07:58:24.937Z</time></trkpt><trkpt lat="43.8346491" lon="12.6504135"><ele>147.0</ele><time>2026-04-25T07:58:25.937Z</time></trkpt><trkpt lat="43.8345317" lon="12.6505637"><ele>147.0</ele><time>2026-04-25T07:58:26.936Z</time></trkpt><trkpt lat="43.834415" lon="12.6507141"><ele>147.0</ele><time>2026-04-25T07:58:27.937Z</time></trkpt><trkpt lat="43.8343053" lon="12.650861"><ele>153.0</ele><time>2026-04-25T07:58:28.937Z</time></trkpt><trkpt lat="43.8341942" lon="12.6510029"><ele>159.0</ele><time>2026-04-25T07:58:29.936Z</time></trkpt><trkpt lat="43.8340801" lon="12.651146"><ele>165.0</ele><time>2026-04-25T07:58:30.938Z</time></trkpt><trkpt lat="43.8339704" lon="12.6512934"><ele>165.0</ele><time>2026-04-25T07:58:31.938Z</time></trkpt><trkpt lat="43.8338583" lon="12.6514433"><ele>165.0</ele><time>2026-04-25T07:58:32.938Z</time></trkpt><trkpt lat="43.8337433" lon="12.6515883"><ele>165.0</ele><time>2026-04-25T07:58:33.938Z</time></trkpt><trkpt lat="43.8336283" lon="12.6517267"><ele>165.0</ele><time>2026-04-25T07:58:34.937Z</time></trkpt><trkpt lat="43.83351" lon="12.65185"><ele>165.0</ele><time>2026-04-25T07:58:35.938Z</time></trkpt><trkpt lat="43.8333917" lon="12.6519517"><ele>165.0</ele><time>2026-04-25T07:58:36.938Z</time></trkpt><trkpt lat="43.8332833" lon="12.6520233"><ele>165.0</ele><time>2026-04-25T07:58:37.938Z</time></trkpt><trkpt lat="43.8331933" lon="12.652045"><ele>165.4</ele><time>2026-04-25T07:58:38.938Z</time></trkpt><trkpt lat="43.8331167" lon="12.6520017"><ele>165.8</ele><time>2026-04-25T07:58:39.938Z</time></trkpt><trkpt lat="43.8330617" lon="12.6518983"><ele>166.2</ele><time>2026-04-25T07:58:40.937Z</time></trkpt><trkpt lat="43.8330183" lon="12.6517717"><ele>166.6</ele><time>2026-04-25T07:58:41.937Z</time></trkpt><trkpt lat="43.83299" lon="12.6516217"><ele>167.0</ele><time>2026-04-25T07:58:42.938Z</time></trkpt><trkpt lat="43.8329633" lon="12.6514683"><ele>169.75</ele><time>2026-04-25T07:58:43.937Z</time></trkpt><trkpt lat="43.83294" lon="12.651315"><ele>172.5</ele><time>2026-04-25T07:58:44.938Z</time></trkpt><trkpt lat="43.8329133" lon="12.651165"><ele>175.25</ele><time>2026-04-25T07:58:45.938Z</time></trkpt><trkpt lat="43.8328867" lon="12.651005"><ele>178.0</ele><time>2026-04-25T07:58:46.937Z</time></trkpt><trkpt lat="43.832855" lon="12.650835"><ele>180.0</ele><time>2026-04-25T07:58:47.938Z</time></trkpt><trkpt lat="43.8328167" lon="12.6506617"><ele>182.0</ele><time>2026-04-25T07:58:48.938Z</time></trkpt><trkpt lat="43.8327717" lon="12.65048"><ele>184.0</ele><time>2026-04-25T07:58:49.938Z</time></trkpt><trkpt lat="43.8327183" lon="12.6502983"><ele>186.0</ele><time>2026-04-25T07:58:50.938Z</time></trkpt><trkpt lat="43.832655" lon="12.6501133"><ele>187.66666666666666</ele><time>2026-04-25T07:58:51.938Z</time></trkpt><trkpt lat="43.8325867" lon="12.6499267"><ele>189.33333333333331</ele><time>2026-04-25T07:58:52.938Z</time></trkpt><trkpt lat="43.83251" lon="12.6497333"><ele>191.0</ele><time>2026-04-25T07:58:53.938Z</time></trkpt><trkpt lat="43.8324267" lon="12.6495417"><ele>194.0</ele><time>2026-04-25T07:58:54.937Z</time></trkpt><trkpt lat="43.83234" lon="12.649345"><ele>197.0</ele><time>2026-04-25T07:58:55.938Z</time></trkpt><trkpt lat="43.83225" lon="12.6491483"><ele>200.0</ele><time>2026-04-25T07:58:56.937Z</time></trkpt><trkpt lat="43.8321667" lon="12.64896"><ele>200.0</ele><time>2026-04-25T07:58:57.938Z</time></trkpt><trkpt lat="43.83209" lon="12.6487833"><ele>200.0</ele><time>2026-04-25T07:58:58.938Z</time></trkpt><trkpt lat="43.8320133" lon="12.6486167"><ele>200.0</ele><time>2026-04-25T07:58:59.938Z</time></trkpt><trkpt lat="43.831935" lon="12.648455"><ele>200.0</ele><time>2026-04-25T07:59:00.938Z</time></trkpt><trkpt lat="43.8318567" lon="12.6483083"><ele>199.5</ele><time>2026-04-25T07:59:01.938Z</time></trkpt><trkpt lat="43.83177" lon="12.6481767"><ele>199.0</ele><time>2026-04-25T07:59:02.938Z</time></trkpt><trkpt lat="43.8316683" lon="12.6480567"><ele>198.5</ele><time>2026-04-25T07:59:03.938Z</time></trkpt><trkpt lat="43.83155" lon="12.647935"><ele>198.0</ele><time>2026-04-25T07:59:04.937Z</time></trkpt><trkpt lat="43.8314167" lon="12.64781"><ele>198.0</ele><time>2026-04-25T07:59:05.938Z</time></trkpt><trkpt lat="43.83128" lon="12.6476883"><ele>198.0</ele><time>2026-04-25T07:59:06.938Z</time></trkpt><trkpt lat="43.8311425" lon="12.6475703"><ele>198.0</ele><time>2026-04-25T07:59:07.938Z</time></trkpt><trkpt lat="43.8309983" lon="12.6474535"><ele>199.0</ele><time>2026-04-25T07:59:08.938Z</time></trkpt><trkpt lat="43.8308463" lon="12.6473385"><ele>200.0</ele><time>2026-04-25T07:59:09.937Z</time></trkpt><trkpt lat="43.830696" lon="12.6472218"><ele>201.0</ele><time>2026-04-25T07:59:10.938Z</time></trkpt><trkpt lat="43.8305522" lon="12.6471159"><ele>201.0</ele><time>2026-04-25T07:59:11.938Z</time></trkpt><trkpt lat="43.8304097" lon="12.6470112"><ele>201.0</ele><time>2026-04-25T07:59:12.937Z</time></trkpt><trkpt lat="43.8302664" lon="12.6468921"><ele>201.0</ele><time>2026-04-25T07:59:13.938Z</time></trkpt><trkpt lat="43.8301216" lon="12.6467611"><ele>202.0</ele><time>2026-04-25T07:59:14.938Z</time></trkpt><trkpt lat="43.8299743" lon="12.6466192"><ele>203.0</ele><time>2026-04-25T07:59:15.938Z</time></trkpt><trkpt lat="43.8298209" lon="12.6464882"><ele>204.0</ele><time>2026-04-25T07:59:16.938Z</time></trkpt><trkpt lat="43.8296666" lon="12.6463596"><ele>204.0</ele><time>2026-04-25T07:59:17.938Z</time></trkpt><trkpt lat="43.829512" lon="12.6462325"><ele>204.0</ele><time>2026-04-25T07:59:18.938Z</time></trkpt><trkpt lat="43.8293663" lon="12.6461004"><ele>204.0</ele><time>2026-04-25T07:59:19.938Z</time></trkpt><trkpt lat="43.8292257" lon="12.645961"><ele>205.0</ele><time>2026-04-25T07:59:20.937Z</time></trkpt><trkpt lat="43.8290847" lon="12.6458234"><ele>206.0</ele><time>2026-04-25T07:59:21.938Z</time></trkpt><trkpt lat="43.8289434" lon="12.645688"><ele>207.0</ele><time>2026-04-25T07:59:22.938Z</time></trkpt><trkpt lat="43.8287991" lon="12.6455585"><ele>207.0</ele><time>2026-04-25T07:59:23.938Z</time></trkpt><trkpt lat="43.8286608" lon="12.6454316"><ele>207.0</ele><time>2026-04-25T07:59:24.938Z</time></trkpt><trkpt lat="43.8285334" lon="12.6453099"><ele>207.0</ele><time>2026-04-25T07:59:25.938Z</time></trkpt><trkpt lat="43.8284162" lon="12.6452014"><ele>208.75</ele><time>2026-04-25T07:59:26.937Z</time></trkpt><trkpt lat="43.8283076" lon="12.6451195"><ele>210.5</ele><time>2026-04-25T07:59:27.938Z</time></trkpt><trkpt lat="43.8282041" lon="12.645077"><ele>212.25</ele><time>2026-04-25T07:59:28.937Z</time></trkpt><trkpt lat="43.8280933" lon="12.645068"><ele>214.0</ele><time>2026-04-25T07:59:29.938Z</time></trkpt><trkpt lat="43.8279718" lon="12.6450781"><ele>214.0</ele><time>2026-04-25T07:59:30.938Z</time></trkpt><trkpt lat="43.8278373" lon="12.6450998"><ele>214.0</ele><time>2026-04-25T07:59:31.937Z</time></trkpt><trkpt lat="43.8276858" lon="12.6451201"><ele>214.0</ele><time>2026-04-25T07:59:32.937Z</time></trkpt><trkpt lat="43.827533" lon="12.645134"><ele>214.0</ele><time>2026-04-25T07:59:33.938Z</time></trkpt><trkpt lat="43.8273893" lon="12.645149"><ele>214.6</ele><time>2026-04-25T07:59:34.938Z</time></trkpt><trkpt lat="43.8272627" lon="12.6451634"><ele>215.2</ele><time>2026-04-25T07:59:35.938Z</time></trkpt><trkpt lat="43.8271664" lon="12.6451898"><ele>215.79999999999998</ele><time>2026-04-25T07:59:36.937Z</time></trkpt><trkpt lat="43.8270851" lon="12.6452459"><ele>216.39999999999998</ele><time>2026-04-25T07:59:37.938Z</time></trkpt><trkpt lat="43.8270125" lon="12.6453078"><ele>217.0</ele><time>2026-04-25T07:59:38.938Z</time></trkpt><trkpt lat="43.826949" lon="12.6453506"><ele>216.99999999999997</ele><time>2026-04-25T07:59:39.938Z</time></trkpt><trkpt lat="43.8268707" lon="12.6453498"><ele>217.0</ele><time>2026-04-25T07:59:41.938Z</time></trkpt><trkpt lat="43.8268508" lon="12.6452255"><ele>217.0</ele><time>2026-04-25T07:59:43.938Z</time></trkpt><trkpt lat="43.8268573" lon="12.6451348"><ele>217.0</ele><time>2026-04-25T07:59:44.937Z</time></trkpt><trkpt lat="43.8268666" lon="12.6450271"><ele>216.99999999999997</ele><time>2026-04-25T07:59:45.938Z</time></trkpt><trkpt lat="43.8268756" lon="12.6448992"><ele>217.0</ele><time>2026-04-25T07:59:46.938Z</time></trkpt><trkpt lat="43.8268803" lon="12.6447499"><ele>219.0</ele><time>2026-04-25T07:59:47.938Z</time></trkpt><trkpt lat="43.8268839" lon="12.6445901"><ele>221.0</ele><time>2026-04-25T07:59:48.938Z</time></trkpt><trkpt lat="43.8268805" lon="12.6444201"><ele>223.0</ele><time>2026-04-25T07:59:49.938Z</time></trkpt><trkpt lat="43.8268749" lon="12.6442408"><ele>225.0</ele><time>2026-04-25T07:59:50.938Z</time></trkpt><trkpt lat="43.8268682" lon="12.6440639"><ele>225.0</ele><time>2026-04-25T07:59:51.937Z</time></trkpt><trkpt lat="43.8268613" lon="12.6438952"><ele>225.0</ele><time>2026-04-25T07:59:52.938Z</time></trkpt><trkpt lat="43.8268549" lon="12.6437225"><ele>225.0</ele><time>2026-04-25T07:59:53.938Z</time></trkpt><trkpt lat="43.8268481" lon="12.6435401"><ele>225.0</ele><time>2026-04-25T07:59:54.938Z</time></trkpt><trkpt lat="43.8268379" lon="12.6433527"><ele>225.0</ele><time>2026-04-25T07:59:55.938Z</time></trkpt><trkpt lat="43.826822" lon="12.6431624"><ele>225.0</ele><time>2026-04-25T07:59:56.938Z</time></trkpt><trkpt lat="43.826799" lon="12.6429749"><ele>225.0</ele><time>2026-04-25T07:59:57.938Z</time></trkpt><trkpt lat="43.8267709" lon="12.6427897"><ele>225.0</ele><time>2026-04-25T07:59:58.938Z</time></trkpt><trkpt lat="43.8267377" lon="12.6426133"><ele>225.0</ele><time>2026-04-25T07:59:59.938Z</time></trkpt><trkpt lat="43.8266966" lon="12.6424592"><ele>225.0</ele><time>2026-04-25T08:00:00.938Z</time></trkpt><trkpt lat="43.8266387" lon="12.6423397"><ele>225.0</ele><time>2026-04-25T08:00:01.938Z</time></trkpt><trkpt lat="43.826566" lon="12.6422574"><ele>225.0</ele><time>2026-04-25T08:00:02.938Z</time></trkpt><trkpt lat="43.8264786" lon="12.6422121"><ele>225.0</ele><time>2026-04-25T08:00:03.938Z</time></trkpt><trkpt lat="43.8263815" lon="12.6422016"><ele>225.0</ele><time>2026-04-25T08:00:04.938Z</time></trkpt><trkpt lat="43.8262717" lon="12.6422128"><ele>225.0</ele><time>2026-04-25T08:00:05.937Z</time></trkpt><trkpt lat="43.8261589" lon="12.6422217"><ele>225.0</ele><time>2026-04-25T08:00:06.938Z</time></trkpt><trkpt lat="43.8260617" lon="12.642199"><ele>225.0</ele><time>2026-04-25T08:00:07.938Z</time></trkpt><trkpt lat="43.8259863" lon="12.6421394"><ele>225.0</ele><time>2026-04-25T08:00:08.938Z</time></trkpt><trkpt lat="43.825938" lon="12.642054"><ele>225.66666666666666</ele><time>2026-04-25T08:00:09.938Z</time></trkpt><trkpt lat="43.8259149" lon="12.641951"><ele>226.33333333333331</ele><time>2026-04-25T08:00:10.937Z</time></trkpt><trkpt lat="43.8259215" lon="12.6418395"><ele>227.0</ele><time>2026-04-25T08:00:11.938Z</time></trkpt><trkpt lat="43.8259526" lon="12.641725"><ele>227.66666666666666</ele><time>2026-04-25T08:00:12.938Z</time></trkpt><trkpt lat="43.8259893" lon="12.6416162"><ele>228.33333333333331</ele><time>2026-04-25T08:00:13.938Z</time></trkpt><trkpt lat="43.8260208" lon="12.6415157"><ele>229.0</ele><time>2026-04-25T08:00:14.938Z</time></trkpt><trkpt lat="43.8260433" lon="12.6414074"><ele>229.0</ele><time>2026-04-25T08:00:15.936Z</time></trkpt><trkpt lat="43.826056" lon="12.6412903"><ele>228.99999999999997</ele><time>2026-04-25T08:00:16.937Z</time></trkpt><trkpt lat="43.8260479" lon="12.6411649"><ele>228.99999999999997</ele><time>2026-04-25T08:00:17.936Z</time></trkpt><trkpt lat="43.8260135" lon="12.6410123"><ele>229.0</ele><time>2026-04-25T08:00:18.936Z</time></trkpt><trkpt lat="43.8259656" lon="12.6408522"><ele>229.0</ele><time>2026-04-25T08:00:19.937Z</time></trkpt><trkpt lat="43.8259099" lon="12.6406991"><ele>233.75</ele><time>2026-04-25T08:00:20.937Z</time></trkpt><trkpt lat="43.825846" lon="12.6405568"><ele>238.5</ele><time>2026-04-25T08:00:21.937Z</time></trkpt><trkpt lat="43.8257713" lon="12.6404251"><ele>243.25</ele><time>2026-04-25T08:00:22.937Z</time></trkpt><trkpt lat="43.8256908" lon="12.640307"><ele>248.0</ele><time>2026-04-25T08:00:23.937Z</time></trkpt><trkpt lat="43.8256114" lon="12.6401987"><ele>248.8</ele><time>2026-04-25T08:00:24.937Z</time></trkpt><trkpt lat="43.8255295" lon="12.6401078"><ele>249.60000000000002</ele><time>2026-04-25T08:00:25.937Z</time></trkpt><trkpt lat="43.8254373" lon="12.6400377"><ele>250.39999999999998</ele><time>2026-04-25T08:00:26.936Z</time></trkpt><trkpt lat="43.8253419" lon="12.639983"><ele>251.2</ele><time>2026-04-25T08:00:27.937Z</time></trkpt><trkpt lat="43.825246" lon="12.6399344"><ele>252.0</ele><time>2026-04-25T08:00:28.937Z</time></trkpt><trkpt lat="43.8251476" lon="12.6398745"><ele>252.75</ele><time>2026-04-25T08:00:29.937Z</time></trkpt><trkpt lat="43.8250544" lon="12.6397882"><ele>253.5</ele><time>2026-04-25T08:00:30.937Z</time></trkpt><trkpt lat="43.8249671" lon="12.6396791"><ele>254.25</ele><time>2026-04-25T08:00:31.936Z</time></trkpt><trkpt lat="43.8248851" lon="12.6395523"><ele>255.0</ele><time>2026-04-25T08:00:32.937Z</time></trkpt><trkpt lat="43.8248064" lon="12.6394066"><ele>259.0</ele><time>2026-04-25T08:00:33.937Z</time></trkpt><trkpt lat="43.8247315" lon="12.6392564"><ele>263.0</ele><time>2026-04-25T08:00:34.937Z</time></trkpt><trkpt lat="43.8246669" lon="12.6391109"><ele>267.0</ele><time>2026-04-25T08:00:35.936Z</time></trkpt><trkpt lat="43.8246043" lon="12.6389722"><ele>271.0</ele><time>2026-04-25T08:00:36.937Z</time></trkpt><trkpt lat="43.8245417" lon="12.6388321"><ele>271.0</ele><time>2026-04-25T08:00:37.936Z</time></trkpt><trkpt lat="43.8244819" lon="12.6386959"><ele>271.0</ele><time>2026-04-25T08:00:38.937Z</time></trkpt><trkpt lat="43.8244368" lon="12.6385723"><ele>271.0</ele><time>2026-04-25T08:00:39.937Z</time></trkpt><trkpt lat="43.8244125" lon="12.6384613"><ele>271.0</ele><time>2026-04-25T08:00:40.936Z</time></trkpt><trkpt lat="43.824406" lon="12.6383541"><ele>271.0</ele><time>2026-04-25T08:00:41.937Z</time></trkpt><trkpt lat="43.8244115" lon="12.6382396"><ele>273.40000000000003</ele><time>2026-04-25T08:00:42.936Z</time></trkpt><trkpt lat="43.8244228" lon="12.6381174"><ele>275.8</ele><time>2026-04-25T08:00:43.936Z</time></trkpt><trkpt lat="43.824439" lon="12.6379866"><ele>278.20000000000005</ele><time>2026-04-25T08:00:44.937Z</time></trkpt><trkpt lat="43.8244544" lon="12.6378439"><ele>280.6</ele><time>2026-04-25T08:00:45.937Z</time></trkpt><trkpt lat="43.8244666" lon="12.6376877"><ele>283.0</ele><time>2026-04-25T08:00:46.936Z</time></trkpt><trkpt lat="43.8244721" lon="12.6375196"><ele>283.5</ele><time>2026-04-25T08:00:47.937Z</time></trkpt><trkpt lat="43.8244715" lon="12.6373413"><ele>284.0</ele><time>2026-04-25T08:00:48.937Z</time></trkpt><trkpt lat="43.8244633" lon="12.637151"><ele>284.5</ele><time>2026-04-25T08:00:49.937Z</time></trkpt><trkpt lat="43.8244462" lon="12.6369555"><ele>285.0</ele><time>2026-04-25T08:00:50.937Z</time></trkpt><trkpt lat="43.8244189" lon="12.6367631"><ele>282.5</ele><time>2026-04-25T08:00:51.937Z</time></trkpt><trkpt lat="43.8243782" lon="12.6365791"><ele>280.0</ele><time>2026-04-25T08:00:52.937Z</time></trkpt><trkpt lat="43.8243312" lon="12.6364075"><ele>277.5</ele><time>2026-04-25T08:00:53.936Z</time></trkpt><trkpt lat="43.824274" lon="12.6362518"><ele>275.0</ele><time>2026-04-25T08:00:54.937Z</time></trkpt><trkpt lat="43.8242086" lon="12.6361101"><ele>275.0</ele><time>2026-04-25T08:00:55.936Z</time></trkpt><trkpt lat="43.8241355" lon="12.6359729"><ele>275.0</ele><time>2026-04-25T08:00:56.936Z</time></trkpt><trkpt lat="43.8240478" lon="12.635822"><ele>275.0</ele><time>2026-04-25T08:00:57.937Z</time></trkpt><trkpt lat="43.8239547" lon="12.6356606"><ele>275.0</ele><time>2026-04-25T08:00:58.937Z</time></trkpt><trkpt lat="43.8238635" lon="12.6354887"><ele>275.0</ele><time>2026-04-25T08:00:59.937Z</time></trkpt><trkpt lat="43.8237755" lon="12.6353092"><ele>275.0</ele><time>2026-04-25T08:01:00.937Z</time></trkpt><trkpt lat="43.8236891" lon="12.6351294"><ele>275.0</ele><time>2026-04-25T08:01:01.937Z</time></trkpt><trkpt lat="43.8236099" lon="12.6349603"><ele>275.33333333333337</ele><time>2026-04-25T08:01:02.937Z</time></trkpt><trkpt lat="43.8235332" lon="12.6347875"><ele>275.6666666666667</ele><time>2026-04-25T08:01:03.937Z</time></trkpt><trkpt lat="43.8234529" lon="12.6346077"><ele>276.0</ele><time>2026-04-25T08:01:04.937Z</time></trkpt><trkpt lat="43.8233677" lon="12.6344176"><ele>276.0</ele><time>2026-04-25T08:01:05.937Z</time></trkpt><trkpt lat="43.8232755" lon="12.634224"><ele>276.0</ele><time>2026-04-25T08:01:06.936Z</time></trkpt><trkpt lat="43.8231766" lon="12.6340324"><ele>276.0</ele><time>2026-04-25T08:01:07.937Z</time></trkpt><trkpt lat="43.8230711" lon="12.6338405"><ele>276.0</ele><time>2026-04-25T08:01:08.937Z</time></trkpt><trkpt lat="43.8229662" lon="12.6336517"><ele>276.0</ele><time>2026-04-25T08:01:09.936Z</time></trkpt><trkpt lat="43.8228616" lon="12.6334677"><ele>276.0</ele><time>2026-04-25T08:01:10.937Z</time></trkpt><trkpt lat="43.8227575" lon="12.6332813"><ele>276.0</ele><time>2026-04-25T08:01:11.936Z</time></trkpt><trkpt lat="43.822658" lon="12.6330878"><ele>276.0</ele><time>2026-04-25T08:01:12.937Z</time></trkpt><trkpt lat="43.8225584" lon="12.6328913"><ele>276.0</ele><time>2026-04-25T08:01:13.937Z</time></trkpt><trkpt lat="43.8224574" lon="12.6326927"><ele>278.0</ele><time>2026-04-25T08:01:14.936Z</time></trkpt><trkpt lat="43.8223562" lon="12.6324994"><ele>280.0</ele><time>2026-04-25T08:01:15.937Z</time></trkpt><trkpt lat="43.8222571" lon="12.6323176"><ele>282.0</ele><time>2026-04-25T08:01:16.937Z</time></trkpt><trkpt lat="43.822165" lon="12.6321451"><ele>281.6666666666667</ele><time>2026-04-25T08:01:17.937Z</time></trkpt><trkpt lat="43.8220745" lon="12.6319666"><ele>281.33333333333337</ele><time>2026-04-25T08:01:18.937Z</time></trkpt><trkpt lat="43.8219781" lon="12.6317846"><ele>281.0</ele><time>2026-04-25T08:01:19.937Z</time></trkpt><trkpt lat="43.8218837" lon="12.6315987"><ele>281.33333333333337</ele><time>2026-04-25T08:01:20.937Z</time></trkpt><trkpt lat="43.8217872" lon="12.6314157"><ele>281.6666666666667</ele><time>2026-04-25T08:01:21.936Z</time></trkpt><trkpt lat="43.8216892" lon="12.6312291"><ele>282.0</ele><time>2026-04-25T08:01:22.937Z</time></trkpt><trkpt lat="43.8215931" lon="12.6310375"><ele>286.0</ele><time>2026-04-25T08:01:23.936Z</time></trkpt><trkpt lat="43.8214933" lon="12.6308468"><ele>290.0</ele><time>2026-04-25T08:01:24.937Z</time></trkpt><trkpt lat="43.8213955" lon="12.6306574"><ele>294.0</ele><time>2026-04-25T08:01:25.937Z</time></trkpt><trkpt lat="43.821306" lon="12.6304786"><ele>293.75</ele><time>2026-04-25T08:01:26.937Z</time></trkpt><trkpt lat="43.8212276" lon="12.6303013"><ele>293.5</ele><time>2026-04-25T08:01:27.937Z</time></trkpt><trkpt lat="43.8211591" lon="12.6301198"><ele>293.25</ele><time>2026-04-25T08:01:28.937Z</time></trkpt><trkpt lat="43.8211042" lon="12.6299328"><ele>293.0</ele><time>2026-04-25T08:01:29.937Z</time></trkpt><trkpt lat="43.8210651" lon="12.6297384"><ele>293.0</ele><time>2026-04-25T08:01:30.936Z</time></trkpt><trkpt lat="43.8210379" lon="12.6295355"><ele>293.0</ele><time>2026-04-25T08:01:31.937Z</time></trkpt><trkpt lat="43.8210205" lon="12.6293297"><ele>293.0</ele><time>2026-04-25T08:01:32.937Z</time></trkpt><trkpt lat="43.8210082" lon="12.6291192"><ele>292.75</ele><time>2026-04-25T08:01:33.937Z</time></trkpt><trkpt lat="43.8210027" lon="12.62891"><ele>292.5</ele><time>2026-04-25T08:01:34.937Z</time></trkpt><trkpt lat="43.8210045" lon="12.6287033"><ele>292.25</ele><time>2026-04-25T08:01:35.937Z</time></trkpt><trkpt lat="43.8210089" lon="12.6285046"><ele>292.0</ele><time>2026-04-25T08:01:36.936Z</time></trkpt><trkpt lat="43.8210151" lon="12.6283229"><ele>292.5</ele><time>2026-04-25T08:01:37.937Z</time></trkpt><trkpt lat="43.8210179" lon="12.6281536"><ele>293.0</ele><time>2026-04-25T08:01:38.936Z</time></trkpt><trkpt lat="43.8210064" lon="12.6279886"><ele>293.5</ele><time>2026-04-25T08:01:39.937Z</time></trkpt><trkpt lat="43.8209835" lon="12.6278175"><ele>294.0</ele><time>2026-04-25T08:01:40.937Z</time></trkpt><trkpt lat="43.8209618" lon="12.6276386"><ele>299.25</ele><time>2026-04-25T08:01:41.937Z</time></trkpt><trkpt lat="43.8209486" lon="12.6274511"><ele>304.5</ele><time>2026-04-25T08:01:42.937Z</time></trkpt><trkpt lat="43.8209528" lon="12.6272659"><ele>309.75</ele><time>2026-04-25T08:01:43.937Z</time></trkpt><trkpt lat="43.8209779" lon="12.6270957"><ele>315.0</ele><time>2026-04-25T08:01:44.937Z</time></trkpt><trkpt lat="43.8210219" lon="12.6269338"><ele>315.0</ele><time>2026-04-25T08:01:45.937Z</time></trkpt><trkpt lat="43.8210702" lon="12.6267784"><ele>315.0</ele><time>2026-04-25T08:01:46.936Z</time></trkpt><trkpt lat="43.8211072" lon="12.6266263"><ele>315.0</ele><time>2026-04-25T08:01:47.937Z</time></trkpt><trkpt lat="43.8211299" lon="12.6264685"><ele>315.0</ele><time>2026-04-25T08:01:48.937Z</time></trkpt><trkpt lat="43.8211358" lon="12.6262959"><ele>317.0</ele><time>2026-04-25T08:01:49.937Z</time></trkpt><trkpt lat="43.8211378" lon="12.6261114"><ele>319.0</ele><time>2026-04-25T08:01:50.937Z</time></trkpt><trkpt lat="43.8211395" lon="12.6259289"><ele>321.0</ele><time>2026-04-25T08:01:51.937Z</time></trkpt><trkpt lat="43.821134" lon="12.6257595"><ele>323.0</ele><time>2026-04-25T08:01:52.936Z</time></trkpt><trkpt lat="43.8211229" lon="12.6256058"><ele>323.0</ele><time>2026-04-25T08:01:53.937Z</time></trkpt><trkpt lat="43.8211004" lon="12.625479"><ele>323.0</ele><time>2026-04-25T08:01:54.937Z</time></trkpt><trkpt lat="43.8210656" lon="12.6253821"><ele>323.0</ele><time>2026-04-25T08:01:55.937Z</time></trkpt><trkpt lat="43.8209878" lon="12.625311"><ele>323.0</ele><time>2026-04-25T08:01:57.937Z</time></trkpt><trkpt lat="43.8209263" lon="12.625407"><ele>323.0</ele><time>2026-04-25T08:01:59.936Z</time></trkpt><trkpt lat="43.8208987" lon="12.6255143"><ele>323.0</ele><time>2026-04-25T08:02:00.937Z</time></trkpt><trkpt lat="43.8208583" lon="12.6256537"><ele>322.5</ele><time>2026-04-25T08:02:01.937Z</time></trkpt><trkpt lat="43.8208007" lon="12.6258056"><ele>322.0</ele><time>2026-04-25T08:02:02.937Z</time></trkpt><trkpt lat="43.8207353" lon="12.62596"><ele>321.5</ele><time>2026-04-25T08:02:03.936Z</time></trkpt><trkpt lat="43.8206677" lon="12.6261188"><ele>321.0</ele><time>2026-04-25T08:02:04.937Z</time></trkpt><trkpt lat="43.8205971" lon="12.6262825"><ele>320.6666666666667</ele><time>2026-04-25T08:02:05.937Z</time></trkpt><trkpt lat="43.8205164" lon="12.6264472"><ele>320.33333333333337</ele><time>2026-04-25T08:02:06.937Z</time></trkpt><trkpt lat="43.8204285" lon="12.6266204"><ele>320.0</ele><time>2026-04-25T08:02:07.937Z</time></trkpt><trkpt lat="43.8203181" lon="12.6267814"><ele>320.0</ele><time>2026-04-25T08:02:08.937Z</time></trkpt><trkpt lat="43.8201868" lon="12.6269244"><ele>320.0</ele><time>2026-04-25T08:02:09.937Z</time></trkpt><trkpt lat="43.8200528" lon="12.6270543"><ele>320.0</ele><time>2026-04-25T08:02:10.936Z</time></trkpt><trkpt lat="43.8199168" lon="12.6271765"><ele>319.0</ele><time>2026-04-25T08:02:11.937Z</time></trkpt><trkpt lat="43.8197817" lon="12.6272988"><ele>318.0</ele><time>2026-04-25T08:02:12.937Z</time></trkpt><trkpt lat="43.8196515" lon="12.6274226"><ele>317.0</ele><time>2026-04-25T08:02:13.937Z</time></trkpt><trkpt lat="43.8195215" lon="12.6275472"><ele>317.0</ele><time>2026-04-25T08:02:14.937Z</time></trkpt><trkpt lat="43.8193954" lon="12.6276767"><ele>317.0</ele><time>2026-04-25T08:02:15.937Z</time></trkpt><trkpt lat="43.8192783" lon="12.6278094"><ele>317.0</ele><time>2026-04-25T08:02:16.937Z</time></trkpt><trkpt lat="43.8191715" lon="12.6279521"><ele>312.6666666666667</ele><time>2026-04-25T08:02:17.937Z</time></trkpt><trkpt lat="43.8190905" lon="12.6281221"><ele>308.3333333333333</ele><time>2026-04-25T08:02:18.937Z</time></trkpt><trkpt lat="43.8190259" lon="12.6283149"><ele>304.0</ele><time>2026-04-25T08:02:19.937Z</time></trkpt><trkpt lat="43.8189737" lon="12.6285314"><ele>301.66666666666663</ele><time>2026-04-25T08:02:20.936Z</time></trkpt><trkpt lat="43.8189305" lon="12.6287535"><ele>299.3333333333333</ele><time>2026-04-25T08:02:21.937Z</time></trkpt><trkpt lat="43.818876" lon="12.6289636"><ele>297.0</ele><time>2026-04-25T08:02:22.936Z</time></trkpt><trkpt lat="43.8188201" lon="12.6291618"><ele>297.0</ele><time>2026-04-25T08:02:23.936Z</time></trkpt><trkpt lat="43.8187478" lon="12.6293344"><ele>297.0</ele><time>2026-04-25T08:02:24.937Z</time></trkpt><trkpt lat="43.818641" lon="12.6294659"><ele>297.0</ele><time>2026-04-25T08:02:25.937Z</time></trkpt><trkpt lat="43.8185061" lon="12.6295511"><ele>297.0</ele><time>2026-04-25T08:02:26.936Z</time></trkpt><trkpt lat="43.8183546" lon="12.6296168"><ele>292.3333333333333</ele><time>2026-04-25T08:02:27.936Z</time></trkpt><trkpt lat="43.8181863" lon="12.6296709"><ele>287.66666666666663</ele><time>2026-04-25T08:02:28.937Z</time></trkpt><trkpt lat="43.8180067" lon="12.6297283"><ele>283.0</ele><time>2026-04-25T08:02:29.937Z</time></trkpt><trkpt lat="43.8178283" lon="12.6297967"><ele>285.66666666666663</ele><time>2026-04-25T08:02:30.937Z</time></trkpt><trkpt lat="43.8176483" lon="12.6298667"><ele>288.3333333333333</ele><time>2026-04-25T08:02:31.937Z</time></trkpt><trkpt lat="43.8174717" lon="12.629935"><ele>291.0</ele><time>2026-04-25T08:02:32.936Z</time></trkpt><trkpt lat="43.8172983" lon="12.63"><ele>291.0</ele><time>2026-04-25T08:02:33.936Z</time></trkpt><trkpt lat="43.8171317" lon="12.630065"><ele>291.0</ele><time>2026-04-25T08:02:34.936Z</time></trkpt><trkpt lat="43.8169617" lon="12.63013"><ele>291.0</ele><time>2026-04-25T08:02:35.936Z</time></trkpt><trkpt lat="43.81679" lon="12.6301917"><ele>290.3333333333333</ele><time>2026-04-25T08:02:36.936Z</time></trkpt><trkpt lat="43.8166183" lon="12.63026"><ele>289.66666666666663</ele><time>2026-04-25T08:02:37.937Z</time></trkpt><trkpt lat="43.8164467" lon="12.6303283"><ele>289.0</ele><time>2026-04-25T08:02:38.937Z</time></trkpt><trkpt lat="43.8162733" lon="12.630395"><ele>286.3333333333333</ele><time>2026-04-25T08:02:39.937Z</time></trkpt><trkpt lat="43.8161033" lon="12.63046"><ele>283.6666666666667</ele><time>2026-04-25T08:02:40.937Z</time></trkpt><trkpt lat="43.815935" lon="12.63053"><ele>281.0</ele><time>2026-04-25T08:02:41.937Z</time></trkpt><trkpt lat="43.8157683" lon="12.6306017"><ele>281.0</ele><time>2026-04-25T08:02:42.936Z</time></trkpt><trkpt lat="43.8156" lon="12.63067"><ele>281.0</ele><time>2026-04-25T08:02:43.937Z</time></trkpt><trkpt lat="43.8154317" lon="12.6307383"><ele>281.0</ele><time>2026-04-25T08:02:44.937Z</time></trkpt><trkpt lat="43.8152667" lon="12.63082"><ele>278.6666666666667</ele><time>2026-04-25T08:02:45.937Z</time></trkpt><trkpt lat="43.8151083" lon="12.630925"><ele>276.3333333333333</ele><time>2026-04-25T08:02:46.937Z</time></trkpt><trkpt lat="43.8149617" lon="12.631045"><ele>274.0</ele><time>2026-04-25T08:02:47.936Z</time></trkpt><trkpt lat="43.8148233" lon="12.631175"><ele>274.0</ele><time>2026-04-25T08:02:48.937Z</time></trkpt><trkpt lat="43.814695" lon="12.6312967"><ele>274.0</ele><time>2026-04-25T08:02:49.937Z</time></trkpt><trkpt lat="43.81457" lon="12.6313917"><ele>274.0</ele><time>2026-04-25T08:02:50.937Z</time></trkpt><trkpt lat="43.8144483" lon="12.63145"><ele>274.0</ele><time>2026-04-25T08:02:51.937Z</time></trkpt><trkpt lat="43.814335" lon="12.6314467"><ele>279.5</ele><time>2026-04-25T08:02:52.937Z</time></trkpt><trkpt lat="43.8142333" lon="12.631375"><ele>285.0</ele><time>2026-04-25T08:02:53.937Z</time></trkpt><trkpt lat="43.8141517" lon="12.6312567"><ele>290.5</ele><time>2026-04-25T08:02:54.937Z</time></trkpt><trkpt lat="43.814095" lon="12.6311083"><ele>296.0</ele><time>2026-04-25T08:02:55.937Z</time></trkpt><trkpt lat="43.8140533" lon="12.63096"><ele>296.0</ele><time>2026-04-25T08:02:56.936Z</time></trkpt><trkpt lat="43.8139967" lon="12.630875"><ele>296.0</ele><time>2026-04-25T08:02:57.937Z</time></trkpt><trkpt lat="43.8139267" lon="12.6308867"><ele>296.0</ele><time>2026-04-25T08:02:58.937Z</time></trkpt><trkpt lat="43.8138617" lon="12.6309483"><ele>296.0</ele><time>2026-04-25T08:02:59.936Z</time></trkpt><trkpt lat="43.8138017" lon="12.6310433"><ele>296.0</ele><time>2026-04-25T08:03:00.936Z</time></trkpt><trkpt lat="43.8137417" lon="12.631165"><ele>296.0</ele><time>2026-04-25T08:03:01.936Z</time></trkpt><trkpt lat="43.8136417" lon="12.6313017"><ele>296.0</ele><time>2026-04-25T08:03:02.937Z</time></trkpt><trkpt lat="43.8135217" lon="12.6314267"><ele>296.0</ele><time>2026-04-25T08:03:03.937Z</time></trkpt><trkpt lat="43.8133817" lon="12.631535"><ele>296.0</ele><time>2026-04-25T08:03:04.937Z</time></trkpt><trkpt lat="43.81323" lon="12.631605"><ele>303.0</ele><time>2026-04-25T08:03:05.937Z</time></trkpt><trkpt lat="43.813075" lon="12.6316517"><ele>310.0</ele><time>2026-04-25T08:03:06.936Z</time></trkpt><trkpt lat="43.8129183" lon="12.6317"><ele>317.0</ele><time>2026-04-25T08:03:07.937Z</time></trkpt><trkpt lat="43.8127667" lon="12.6317667"><ele>322.33333333333337</ele><time>2026-04-25T08:03:08.937Z</time></trkpt><trkpt lat="43.8126133" lon="12.6318317"><ele>327.6666666666667</ele><time>2026-04-25T08:03:09.937Z</time></trkpt><trkpt lat="43.81246" lon="12.6318867"><ele>333.0</ele><time>2026-04-25T08:03:10.937Z</time></trkpt><trkpt lat="43.8123133" lon="12.6319383"><ele>331.25</ele><time>2026-04-25T08:03:11.937Z</time></trkpt><trkpt lat="43.8121733" lon="12.6319833"><ele>329.5</ele><time>2026-04-25T08:03:12.936Z</time></trkpt><trkpt lat="43.8120333" lon="12.6320233"><ele>327.75</ele><time>2026-04-25T08:03:13.937Z</time></trkpt><trkpt lat="43.8118883" lon="12.6320483"><ele>326.0</ele><time>2026-04-25T08:03:14.937Z</time></trkpt><trkpt lat="43.8117467" lon="12.6320583"><ele>326.0</ele><time>2026-04-25T08:03:15.937Z</time></trkpt><trkpt lat="43.8116133" lon="12.6320617"><ele>326.0</ele><time>2026-04-25T08:03:16.937Z</time></trkpt><trkpt lat="43.811505" lon="12.6320733"><ele>326.0</ele><time>2026-04-25T08:03:17.937Z</time></trkpt><trkpt lat="43.8114233" lon="12.632085"><ele>326.0</ele><time>2026-04-25T08:03:18.936Z</time></trkpt><trkpt lat="43.811315" lon="12.6320833"><ele>326.0</ele><time>2026-04-25T08:03:20.938Z</time></trkpt><trkpt lat="43.8112467" lon="12.6320633"><ele>326.0</ele><time>2026-04-25T08:03:22.938Z</time></trkpt><trkpt lat="43.8111817" lon="12.63202"><ele>326.0</ele><time>2026-04-25T08:03:24.938Z</time></trkpt><trkpt lat="43.8110767" lon="12.6320483"><ele>326.0</ele><time>2026-04-25T08:03:26.937Z</time></trkpt><trkpt lat="43.8110167" lon="12.6320933"><ele>326.0</ele><time>2026-04-25T08:03:27.938Z</time></trkpt><trkpt lat="43.8109533" lon="12.6321267"><ele>326.0</ele><time>2026-04-25T08:03:28.938Z</time></trkpt><trkpt lat="43.8108833" lon="12.6321667"><ele>326.0</ele><time>2026-04-25T08:03:29.938Z</time></trkpt><trkpt lat="43.8108167" lon="12.6322033"><ele>326.5</ele><time>2026-04-25T08:03:30.938Z</time></trkpt><trkpt lat="43.8107517" lon="12.6322383"><ele>327.0</ele><time>2026-04-25T08:03:31.938Z</time></trkpt><trkpt lat="43.8106867" lon="12.63225"><ele>327.5</ele><time>2026-04-25T08:03:32.938Z</time></trkpt><trkpt lat="43.810595" lon="12.6321483"><ele>328.0</ele><time>2026-04-25T08:03:34.938Z</time></trkpt><trkpt lat="43.81058" lon="12.63205"><ele>328.5</ele><time>2026-04-25T08:03:35.938Z</time></trkpt><trkpt lat="43.8105983" lon="12.631935"><ele>329.0</ele><time>2026-04-25T08:03:36.937Z</time></trkpt><trkpt lat="43.81064" lon="12.6318183"><ele>329.0</ele><time>2026-04-25T08:03:37.938Z</time></trkpt><trkpt lat="43.8106933" lon="12.6317033"><ele>329.0</ele><time>2026-04-25T08:03:38.938Z</time></trkpt><trkpt lat="43.81075" lon="12.6315917"><ele>329.0</ele><time>2026-04-25T08:03:39.938Z</time></trkpt><trkpt lat="43.81081" lon="12.6314833"><ele>329.0</ele><time>2026-04-25T08:03:40.938Z</time></trkpt><trkpt lat="43.81087" lon="12.63138"><ele>329.0</ele><time>2026-04-25T08:03:41.938Z</time></trkpt><trkpt lat="43.810935" lon="12.63128"><ele>330.0</ele><time>2026-04-25T08:03:42.938Z</time></trkpt><trkpt lat="43.8109983" lon="12.6311833"><ele>331.0</ele><time>2026-04-25T08:03:43.938Z</time></trkpt><trkpt lat="43.8110583" lon="12.6310867"><ele>332.0</ele><time>2026-04-25T08:03:44.938Z</time></trkpt><trkpt lat="43.8111133" lon="12.63099"><ele>333.0</ele><time>2026-04-25T08:03:45.937Z</time></trkpt><trkpt lat="43.811165" lon="12.63089"><ele>334.0</ele><time>2026-04-25T08:03:46.938Z</time></trkpt><trkpt lat="43.8112133" lon="12.6307883"><ele>334.0</ele><time>2026-04-25T08:03:47.938Z</time></trkpt><trkpt lat="43.81126" lon="12.6306883"><ele>334.0</ele><time>2026-04-25T08:03:48.937Z</time></trkpt><trkpt lat="43.8113083" lon="12.63059"><ele>334.0</ele><time>2026-04-25T08:03:49.938Z</time></trkpt><trkpt lat="43.8113583" lon="12.6304933"><ele>334.0</ele><time>2026-04-25T08:03:50.938Z</time></trkpt><trkpt lat="43.8114033" lon="12.6303967"><ele>334.0</ele><time>2026-04-25T08:03:51.937Z</time></trkpt><trkpt lat="43.8114517" lon="12.6302983"><ele>334.0</ele><time>2026-04-25T08:03:52.938Z</time></trkpt><trkpt lat="43.81149" lon="12.6301967"><ele>331.8333333333333</ele><time>2026-04-25T08:03:53.937Z</time></trkpt><trkpt lat="43.8115267" lon="12.630095"><ele>329.66666666666663</ele><time>2026-04-25T08:03:54.938Z</time></trkpt><trkpt lat="43.811565" lon="12.6299883"><ele>327.5</ele><time>2026-04-25T08:03:55.938Z</time></trkpt><trkpt lat="43.811605" lon="12.6298767"><ele>325.3333333333333</ele><time>2026-04-25T08:03:56.938Z</time></trkpt><trkpt lat="43.81165" lon="12.6297633"><ele>323.1666666666667</ele><time>2026-04-25T08:03:57.938Z</time></trkpt><trkpt lat="43.811695" lon="12.6296483"><ele>321.0</ele><time>2026-04-25T08:03:58.938Z</time></trkpt><trkpt lat="43.811735" lon="12.6295317"><ele>320.40000000000003</ele><time>2026-04-25T08:03:59.938Z</time></trkpt><trkpt lat="43.8117733" lon="12.6294133"><ele>319.8</ele><time>2026-04-25T08:04:00.938Z</time></trkpt><trkpt lat="43.811815" lon="12.6292933"><ele>319.20000000000005</ele><time>2026-04-25T08:04:01.938Z</time></trkpt><trkpt lat="43.8118483" lon="12.62917"><ele>318.6</ele><time>2026-04-25T08:04:02.938Z</time></trkpt><trkpt lat="43.81189" lon="12.6290467"><ele>318.0</ele><time>2026-04-25T08:04:03.937Z</time></trkpt><trkpt lat="43.81193" lon="12.62892"><ele>318.0</ele><time>2026-04-25T08:04:04.937Z</time></trkpt><trkpt lat="43.8119667" lon="12.62879"><ele>318.0</ele><time>2026-04-25T08:04:05.938Z</time></trkpt><trkpt lat="43.8119967" lon="12.6286517"><ele>318.0</ele><time>2026-04-25T08:04:06.938Z</time></trkpt><trkpt lat="43.812035" lon="12.6285117"><ele>318.0</ele><time>2026-04-25T08:04:07.937Z</time></trkpt><trkpt lat="43.8120783" lon="12.6283667"><ele>318.0</ele><time>2026-04-25T08:04:08.937Z</time></trkpt><trkpt lat="43.812125" lon="12.6282167"><ele>315.75</ele><time>2026-04-25T08:04:09.938Z</time></trkpt><trkpt lat="43.8121833" lon="12.6280667"><ele>313.5</ele><time>2026-04-25T08:04:10.937Z</time></trkpt><trkpt lat="43.8122533" lon="12.627925"><ele>311.25</ele><time>2026-04-25T08:04:11.938Z</time></trkpt><trkpt lat="43.8123233" lon="12.627785"><ele>309.0</ele><time>2026-04-25T08:04:12.938Z</time></trkpt><trkpt lat="43.8123917" lon="12.6276467"><ele>307.2</ele><time>2026-04-25T08:04:13.938Z</time></trkpt><trkpt lat="43.8124583" lon="12.6275083"><ele>305.4</ele><time>2026-04-25T08:04:14.938Z</time></trkpt><trkpt lat="43.8125367" lon="12.6273967"><ele>303.6</ele><time>2026-04-25T08:04:15.938Z</time></trkpt><trkpt lat="43.8126167" lon="12.627315"><ele>301.8</ele><time>2026-04-25T08:04:16.938Z</time></trkpt><trkpt lat="43.81268" lon="12.627235"><ele>300.0</ele><time>2026-04-25T08:04:17.938Z</time></trkpt><trkpt lat="43.8127017" lon="12.6271483"><ele>300.0</ele><time>2026-04-25T08:04:18.938Z</time></trkpt><trkpt lat="43.81261" lon="12.627025"><ele>300.0</ele><time>2026-04-25T08:04:20.937Z</time></trkpt><trkpt lat="43.8125233" lon="12.6270233"><ele>300.0</ele><time>2026-04-25T08:04:21.937Z</time></trkpt><trkpt lat="43.8124333" lon="12.6270367"><ele>300.0</ele><time>2026-04-25T08:04:22.937Z</time></trkpt><trkpt lat="43.812305" lon="12.6270783"><ele>300.0</ele><time>2026-04-25T08:04:23.937Z</time></trkpt><trkpt lat="43.8121717" lon="12.6271183"><ele>300.0</ele><time>2026-04-25T08:04:24.938Z</time></trkpt><trkpt lat="43.8120367" lon="12.6271267"><ele>300.0</ele><time>2026-04-25T08:04:25.938Z</time></trkpt><trkpt lat="43.8119017" lon="12.6270917"><ele>300.0</ele><time>2026-04-25T08:04:26.938Z</time></trkpt><trkpt lat="43.811775" lon="12.6270117"><ele>300.0</ele><time>2026-04-25T08:04:27.938Z</time></trkpt><trkpt lat="43.81165" lon="12.626915"><ele>295.0</ele><time>2026-04-25T08:04:28.937Z</time></trkpt><trkpt lat="43.8115333" lon="12.6267967"><ele>290.0</ele><time>2026-04-25T08:04:29.937Z</time></trkpt><trkpt lat="43.811435" lon="12.626665"><ele>285.0</ele><time>2026-04-25T08:04:30.938Z</time></trkpt><trkpt lat="43.81137" lon="12.6265167"><ele>280.0</ele><time>2026-04-25T08:04:31.938Z</time></trkpt><trkpt lat="43.8113467" lon="12.6263517"><ele>280.0</ele><time>2026-04-25T08:04:32.938Z</time></trkpt><trkpt lat="43.811365" lon="12.6261733"><ele>280.0</ele><time>2026-04-25T08:04:33.938Z</time></trkpt><trkpt lat="43.8113867" lon="12.6259917"><ele>280.0</ele><time>2026-04-25T08:04:34.938Z</time></trkpt><trkpt lat="43.8113767" lon="12.6258"><ele>280.0</ele><time>2026-04-25T08:04:35.937Z</time></trkpt><trkpt lat="43.8113433" lon="12.6256017"><ele>278.5</ele><time>2026-04-25T08:04:36.938Z</time></trkpt><trkpt lat="43.8112867" lon="12.6254067"><ele>277.0</ele><time>2026-04-25T08:04:37.938Z</time></trkpt><trkpt lat="43.8112233" lon="12.6252183"><ele>275.5</ele><time>2026-04-25T08:04:38.938Z</time></trkpt><trkpt lat="43.811165" lon="12.6250317"><ele>274.0</ele><time>2026-04-25T08:04:39.938Z</time></trkpt><trkpt lat="43.8111083" lon="12.6248433"><ele>272.25</ele><time>2026-04-25T08:04:40.938Z</time></trkpt><trkpt lat="43.8110667" lon="12.6246483"><ele>270.5</ele><time>2026-04-25T08:04:41.937Z</time></trkpt><trkpt lat="43.8110233" lon="12.62446"><ele>268.75</ele><time>2026-04-25T08:04:42.938Z</time></trkpt><trkpt lat="43.8109667" lon="12.6242833"><ele>267.0</ele><time>2026-04-25T08:04:43.937Z</time></trkpt><trkpt lat="43.81088" lon="12.624125"><ele>267.0</ele><time>2026-04-25T08:04:44.938Z</time></trkpt><trkpt lat="43.8107717" lon="12.62399"><ele>267.0</ele><time>2026-04-25T08:04:45.938Z</time></trkpt><trkpt lat="43.8106517" lon="12.6238733"><ele>267.0</ele><time>2026-04-25T08:04:46.938Z</time></trkpt><trkpt lat="43.8105333" lon="12.62375"><ele>267.0</ele><time>2026-04-25T08:04:47.938Z</time></trkpt><trkpt lat="43.8104267" lon="12.6235967"><ele>264.3333333333333</ele><time>2026-04-25T08:04:48.938Z</time></trkpt><trkpt lat="43.81033" lon="12.6234283"><ele>261.66666666666663</ele><time>2026-04-25T08:04:49.938Z</time></trkpt><trkpt lat="43.810235" lon="12.6232567"><ele>259.0</ele><time>2026-04-25T08:04:50.937Z</time></trkpt><trkpt lat="43.8101433" lon="12.62308"><ele>257.3333333333333</ele><time>2026-04-25T08:04:51.937Z</time></trkpt><trkpt lat="43.8100517" lon="12.6228983"><ele>255.66666666666669</ele><time>2026-04-25T08:04:52.938Z</time></trkpt><trkpt lat="43.809965" lon="12.6227033"><ele>254.0</ele><time>2026-04-25T08:04:53.938Z</time></trkpt><trkpt lat="43.80988" lon="12.6225033"><ele>254.0</ele><time>2026-04-25T08:04:54.938Z</time></trkpt><trkpt lat="43.8097967" lon="12.6223033"><ele>254.0</ele><time>2026-04-25T08:04:55.938Z</time></trkpt><trkpt lat="43.80971" lon="12.622105"><ele>254.0</ele><time>2026-04-25T08:04:56.937Z</time></trkpt><trkpt lat="43.8096217" lon="12.6219117"><ele>251.33333333333334</ele><time>2026-04-25T08:04:57.938Z</time></trkpt><trkpt lat="43.8095283" lon="12.6217283"><ele>248.66666666666669</ele><time>2026-04-25T08:04:58.938Z</time></trkpt><trkpt lat="43.8094283" lon="12.6215583"><ele>246.0</ele><time>2026-04-25T08:04:59.937Z</time></trkpt><trkpt lat="43.80932" lon="12.6214033"><ele>244.0</ele><time>2026-04-25T08:05:00.938Z</time></trkpt><trkpt lat="43.8092017" lon="12.62126"><ele>242.0</ele><time>2026-04-25T08:05:01.938Z</time></trkpt><trkpt lat="43.8090833" lon="12.6211183"><ele>240.0</ele><time>2026-04-25T08:05:02.938Z</time></trkpt><trkpt lat="43.80897" lon="12.6209767"><ele>239.75</ele><time>2026-04-25T08:05:03.938Z</time></trkpt><trkpt lat="43.8088567" lon="12.6208517"><ele>239.5</ele><time>2026-04-25T08:05:04.938Z</time></trkpt><trkpt lat="43.808745" lon="12.620755"><ele>239.25</ele><time>2026-04-25T08:05:05.938Z</time></trkpt><trkpt lat="43.8086183" lon="12.6207083"><ele>239.0</ele><time>2026-04-25T08:05:06.938Z</time></trkpt><trkpt lat="43.8084867" lon="12.6207083"><ele>236.2</ele><time>2026-04-25T08:05:07.938Z</time></trkpt><trkpt lat="43.8083583" lon="12.6207083"><ele>233.39999999999998</ele><time>2026-04-25T08:05:08.938Z</time></trkpt><trkpt lat="43.808245" lon="12.620675"><ele>230.6</ele><time>2026-04-25T08:05:09.937Z</time></trkpt><trkpt lat="43.8081517" lon="12.620605"><ele>227.8</ele><time>2026-04-25T08:05:10.937Z</time></trkpt><trkpt lat="43.8080917" lon="12.6205"><ele>225.0</ele><time>2026-04-25T08:05:11.937Z</time></trkpt><trkpt lat="43.8080683" lon="12.62039"><ele>224.2</ele><time>2026-04-25T08:05:12.937Z</time></trkpt><trkpt lat="43.8080767" lon="12.620275"><ele>223.4</ele><time>2026-04-25T08:05:13.937Z</time></trkpt><trkpt lat="43.8081183" lon="12.62016"><ele>222.60000000000002</ele><time>2026-04-25T08:05:14.937Z</time></trkpt><trkpt lat="43.8081983" lon="12.6200583"><ele>221.8</ele><time>2026-04-25T08:05:15.937Z</time></trkpt><trkpt lat="43.8083217" lon="12.61998"><ele>221.0</ele><time>2026-04-25T08:05:16.937Z</time></trkpt><trkpt lat="43.808445" lon="12.6198983"><ele>222.5</ele><time>2026-04-25T08:05:17.937Z</time></trkpt><trkpt lat="43.8085567" lon="12.6198"><ele>224.0</ele><time>2026-04-25T08:05:18.937Z</time></trkpt><trkpt lat="43.8086517" lon="12.619675"><ele>225.5</ele><time>2026-04-25T08:05:19.937Z</time></trkpt><trkpt lat="43.8087233" lon="12.6195083"><ele>227.0</ele><time>2026-04-25T08:05:20.936Z</time></trkpt><trkpt lat="43.8087767" lon="12.619335"><ele>224.39999999999998</ele><time>2026-04-25T08:05:21.937Z</time></trkpt><trkpt lat="43.808835" lon="12.6191817"><ele>221.79999999999998</ele><time>2026-04-25T08:05:22.937Z</time></trkpt><trkpt lat="43.80889" lon="12.6190633"><ele>219.2</ele><time>2026-04-25T08:05:23.937Z</time></trkpt><trkpt lat="43.8089283" lon="12.6189683"><ele>216.6</ele><time>2026-04-25T08:05:24.937Z</time></trkpt><trkpt lat="43.8088817" lon="12.6188433"><ele>214.0</ele><time>2026-04-25T08:05:26.937Z</time></trkpt><trkpt lat="43.8088183" lon="12.6188483"><ele>214.00000000000003</ele><time>2026-04-25T08:05:27.937Z</time></trkpt><trkpt lat="43.8087417" lon="12.6188633"><ele>214.0</ele><time>2026-04-25T08:05:28.937Z</time></trkpt><trkpt lat="43.8086817" lon="12.6188317"><ele>214.0</ele><time>2026-04-25T08:05:29.937Z</time></trkpt><trkpt lat="43.8086433" lon="12.6187533"><ele>214.0</ele><time>2026-04-25T08:05:30.936Z</time></trkpt><trkpt lat="43.8086383" lon="12.6186433"><ele>214.0</ele><time>2026-04-25T08:05:31.937Z</time></trkpt><trkpt lat="43.80866" lon="12.6185283"><ele>214.00000000000003</ele><time>2026-04-25T08:05:32.937Z</time></trkpt><trkpt lat="43.8086883" lon="12.6184333"><ele>214.0</ele><time>2026-04-25T08:05:33.937Z</time></trkpt><trkpt lat="43.8087683" lon="12.618375"><ele>211.6</ele><time>2026-04-25T08:05:34.936Z</time></trkpt><trkpt lat="43.80886" lon="12.6183483"><ele>209.2</ele><time>2026-04-25T08:05:35.937Z</time></trkpt><trkpt lat="43.8089667" lon="12.6183783"><ele>206.79999999999998</ele><time>2026-04-25T08:05:36.936Z</time></trkpt><trkpt lat="43.8090733" lon="12.6184183"><ele>204.39999999999998</ele><time>2026-04-25T08:05:37.936Z</time></trkpt><trkpt lat="43.80918" lon="12.6184617"><ele>202.0</ele><time>2026-04-25T08:05:38.937Z</time></trkpt><trkpt lat="43.8092833" lon="12.6184767"><ele>199.8</ele><time>2026-04-25T08:05:39.936Z</time></trkpt><trkpt lat="43.80938" lon="12.618435"><ele>197.6</ele><time>2026-04-25T08:05:40.936Z</time></trkpt><trkpt lat="43.80946" lon="12.6183533"><ele>195.4</ele><time>2026-04-25T08:05:41.937Z</time></trkpt><trkpt lat="43.8095083" lon="12.6182467"><ele>193.20000000000002</ele><time>2026-04-25T08:05:42.936Z</time></trkpt><trkpt lat="43.8095233" lon="12.6181283"><ele>191.0</ele><time>2026-04-25T08:05:43.937Z</time></trkpt><trkpt lat="43.8095167" lon="12.61801"><ele>191.0</ele><time>2026-04-25T08:05:44.937Z</time></trkpt><trkpt lat="43.80946" lon="12.6178917"><ele>191.0</ele><time>2026-04-25T08:05:45.937Z</time></trkpt><trkpt lat="43.8093967" lon="12.6177867"><ele>191.0</ele><time>2026-04-25T08:05:46.937Z</time></trkpt><trkpt lat="43.8093117" lon="12.61771"><ele>191.0</ele><time>2026-04-25T08:05:47.937Z</time></trkpt><trkpt lat="43.8092" lon="12.61769"><ele>191.0</ele><time>2026-04-25T08:05:48.936Z</time></trkpt><trkpt lat="43.8090733" lon="12.6177"><ele>191.33333333333331</ele><time>2026-04-25T08:05:49.937Z</time></trkpt><trkpt lat="43.8089317" lon="12.6177"><ele>191.66666666666666</ele><time>2026-04-25T08:05:50.937Z</time></trkpt><trkpt lat="43.8087783" lon="12.6177067"><ele>192.0</ele><time>2026-04-25T08:05:51.937Z</time></trkpt><trkpt lat="43.80862" lon="12.617715"><ele>192.5</ele><time>2026-04-25T08:05:52.937Z</time></trkpt><trkpt lat="43.80847" lon="12.6177433"><ele>193.0</ele><time>2026-04-25T08:05:53.937Z</time></trkpt><trkpt lat="43.808335" lon="12.6178267"><ele>193.5</ele><time>2026-04-25T08:05:54.937Z</time></trkpt><trkpt lat="43.80821" lon="12.617925"><ele>194.0</ele><time>2026-04-25T08:05:55.937Z</time></trkpt><trkpt lat="43.8080783" lon="12.6180183"><ele>194.0</ele><time>2026-04-25T08:05:56.936Z</time></trkpt><trkpt lat="43.80794" lon="12.6180933"><ele>194.0</ele><time>2026-04-25T08:05:57.937Z</time></trkpt><trkpt lat="43.8077933" lon="12.6181367"><ele>194.0</ele><time>2026-04-25T08:05:58.937Z</time></trkpt><trkpt lat="43.8076383" lon="12.6181733"><ele>188.66666666666669</ele><time>2026-04-25T08:05:59.937Z</time></trkpt><trkpt lat="43.8074817" lon="12.6182217"><ele>183.33333333333334</ele><time>2026-04-25T08:06:00.937Z</time></trkpt><trkpt lat="43.80733" lon="12.6182933"><ele>178.0</ele><time>2026-04-25T08:06:01.936Z</time></trkpt><trkpt lat="43.8071833" lon="12.6183783"><ele>178.0</ele><time>2026-04-25T08:06:02.937Z</time></trkpt><trkpt lat="43.80704" lon="12.6184717"><ele>178.0</ele><time>2026-04-25T08:06:03.937Z</time></trkpt><trkpt lat="43.8068983" lon="12.6185583"><ele>178.0</ele><time>2026-04-25T08:06:04.937Z</time></trkpt><trkpt lat="43.8067517" lon="12.618655"><ele>176.66666666666669</ele><time>2026-04-25T08:06:05.937Z</time></trkpt><trkpt lat="43.80661" lon="12.6187583"><ele>175.33333333333334</ele><time>2026-04-25T08:06:06.937Z</time></trkpt><trkpt lat="43.8064667" lon="12.6188733"><ele>174.0</ele><time>2026-04-25T08:06:07.937Z</time></trkpt><trkpt lat="43.8063233" lon="12.6189983"><ele>174.0</ele><time>2026-04-25T08:06:08.937Z</time></trkpt><trkpt lat="43.8061833" lon="12.61913"><ele>174.0</ele><time>2026-04-25T08:06:09.937Z</time></trkpt><trkpt lat="43.8060517" lon="12.6192583"><ele>174.0</ele><time>2026-04-25T08:06:10.936Z</time></trkpt><trkpt lat="43.8059267" lon="12.619385"><ele>170.75</ele><time>2026-04-25T08:06:11.937Z</time></trkpt><trkpt lat="43.8058033" lon="12.6194983"><ele>167.5</ele><time>2026-04-25T08:06:12.937Z</time></trkpt><trkpt lat="43.8056817" lon="12.6195933"><ele>164.25</ele><time>2026-04-25T08:06:13.937Z</time></trkpt><trkpt lat="43.8055567" lon="12.619655"><ele>161.0</ele><time>2026-04-25T08:06:14.937Z</time></trkpt><trkpt lat="43.8054233" lon="12.61967"><ele>161.0</ele><time>2026-04-25T08:06:15.937Z</time></trkpt><trkpt lat="43.8052817" lon="12.6196517"><ele>161.0</ele><time>2026-04-25T08:06:16.937Z</time></trkpt><trkpt lat="43.805135" lon="12.6196217"><ele>161.0</ele><time>2026-04-25T08:06:17.937Z</time></trkpt><trkpt lat="43.80499" lon="12.61958"><ele>161.0</ele><time>2026-04-25T08:06:18.937Z</time></trkpt><trkpt lat="43.80485" lon="12.6195367"><ele>158.0</ele><time>2026-04-25T08:06:19.937Z</time></trkpt><trkpt lat="43.804715" lon="12.6194833"><ele>155.0</ele><time>2026-04-25T08:06:20.937Z</time></trkpt><trkpt lat="43.8045867" lon="12.6194233"><ele>152.0</ele><time>2026-04-25T08:06:21.937Z</time></trkpt><trkpt lat="43.8044683" lon="12.6193517"><ele>149.0</ele><time>2026-04-25T08:06:22.937Z</time></trkpt><trkpt lat="43.8043683" lon="12.6192617"><ele>149.0</ele><time>2026-04-25T08:06:23.936Z</time></trkpt><trkpt lat="43.8043083" lon="12.6191517"><ele>149.0</ele><time>2026-04-25T08:06:24.937Z</time></trkpt><trkpt lat="43.8042933" lon="12.61903"><ele>149.0</ele><time>2026-04-25T08:06:25.936Z</time></trkpt><trkpt lat="43.80433" lon="12.6189117"><ele>149.0</ele><time>2026-04-25T08:06:26.937Z</time></trkpt><trkpt lat="43.8043967" lon="12.618785"><ele>149.0</ele><time>2026-04-25T08:06:27.937Z</time></trkpt><trkpt lat="43.8044817" lon="12.61865"><ele>148.5</ele><time>2026-04-25T08:06:28.937Z</time></trkpt><trkpt lat="43.804575" lon="12.6185067"><ele>148.0</ele><time>2026-04-25T08:06:29.937Z</time></trkpt><trkpt lat="43.8046583" lon="12.6183517"><ele>147.5</ele><time>2026-04-25T08:06:30.936Z</time></trkpt><trkpt lat="43.8047233" lon="12.6181917"><ele>147.0</ele><time>2026-04-25T08:06:31.937Z</time></trkpt><trkpt lat="43.8047683" lon="12.6180317"><ele>147.0</ele><time>2026-04-25T08:06:32.936Z</time></trkpt><trkpt lat="43.8047783" lon="12.6178717"><ele>147.0</ele><time>2026-04-25T08:06:33.936Z</time></trkpt><trkpt lat="43.804765" lon="12.61771"><ele>147.0</ele><time>2026-04-25T08:06:34.936Z</time></trkpt><trkpt lat="43.8047417" lon="12.61755"><ele>147.0</ele><time>2026-04-25T08:06:35.937Z</time></trkpt><trkpt lat="43.80472" lon="12.6173833"><ele>146.25</ele><time>2026-04-25T08:06:36.937Z</time></trkpt><trkpt lat="43.8047" lon="12.61721"><ele>145.5</ele><time>2026-04-25T08:06:37.937Z</time></trkpt><trkpt lat="43.8046817" lon="12.6170317"><ele>144.75</ele><time>2026-04-25T08:06:38.937Z</time></trkpt><trkpt lat="43.80466" lon="12.6168533"><ele>144.0</ele><time>2026-04-25T08:06:39.937Z</time></trkpt><trkpt lat="43.80466" lon="12.6166683"><ele>143.0</ele><time>2026-04-25T08:06:40.937Z</time></trkpt><trkpt lat="43.8046583" lon="12.6164883"><ele>142.0</ele><time>2026-04-25T08:06:41.937Z</time></trkpt><trkpt lat="43.80463" lon="12.616315"><ele>141.0</ele><time>2026-04-25T08:06:42.937Z</time></trkpt><trkpt lat="43.8045783" lon="12.6161667"><ele>140.0</ele><time>2026-04-25T08:06:43.936Z</time></trkpt><trkpt lat="43.8045017" lon="12.6160617"><ele>139.4</ele><time>2026-04-25T08:06:44.937Z</time></trkpt><trkpt lat="43.804405" lon="12.6160117"><ele>138.8</ele><time>2026-04-25T08:06:45.936Z</time></trkpt><trkpt lat="43.8043117" lon="12.6160117"><ele>138.2</ele><time>2026-04-25T08:06:46.937Z</time></trkpt><trkpt lat="43.80422" lon="12.6160583"><ele>137.6</ele><time>2026-04-25T08:06:47.937Z</time></trkpt><trkpt lat="43.8041083" lon="12.616145"><ele>137.0</ele><time>2026-04-25T08:06:48.937Z</time></trkpt><trkpt lat="43.803995" lon="12.61626"><ele>137.0</ele><time>2026-04-25T08:06:49.937Z</time></trkpt><trkpt lat="43.8038783" lon="12.6163633"><ele>137.0</ele><time>2026-04-25T08:06:50.937Z</time></trkpt><trkpt lat="43.8037583" lon="12.6164517"><ele>137.0</ele><time>2026-04-25T08:06:51.937Z</time></trkpt><trkpt lat="43.80364" lon="12.6165317"><ele>137.0</ele><time>2026-04-25T08:06:52.937Z</time></trkpt><trkpt lat="43.803525" lon="12.6165983"><ele>135.79999999999998</ele><time>2026-04-25T08:06:53.937Z</time></trkpt><trkpt lat="43.8034217" lon="12.6166467"><ele>134.6</ele><time>2026-04-25T08:06:54.936Z</time></trkpt><trkpt lat="43.80333" lon="12.6167017"><ele>133.39999999999998</ele><time>2026-04-25T08:06:55.937Z</time></trkpt><trkpt lat="43.8032317" lon="12.61672"><ele>132.2</ele><time>2026-04-25T08:06:56.937Z</time></trkpt><trkpt lat="43.8031267" lon="12.6167417"><ele>131.0</ele><time>2026-04-25T08:06:57.937Z</time></trkpt><trkpt lat="43.8030183" lon="12.6167933"><ele>131.0</ele><time>2026-04-25T08:06:58.937Z</time></trkpt><trkpt lat="43.80291" lon="12.616855"><ele>131.0</ele><time>2026-04-25T08:06:59.936Z</time></trkpt><trkpt lat="43.8027967" lon="12.6169083"><ele>131.0</ele><time>2026-04-25T08:07:00.937Z</time></trkpt><trkpt lat="43.80268" lon="12.6169733"><ele>131.0</ele><time>2026-04-25T08:07:01.937Z</time></trkpt><trkpt lat="43.8025633" lon="12.6170333"><ele>131.0</ele><time>2026-04-25T08:07:02.937Z</time></trkpt><trkpt lat="43.8024483" lon="12.6170967"><ele>131.0</ele><time>2026-04-25T08:07:03.937Z</time></trkpt><trkpt lat="43.8023333" lon="12.617165"><ele>131.0</ele><time>2026-04-25T08:07:04.937Z</time></trkpt><trkpt lat="43.8022233" lon="12.6172433"><ele>131.0</ele><time>2026-04-25T08:07:05.937Z</time></trkpt><trkpt lat="43.802115" lon="12.617335"><ele>131.0</ele><time>2026-04-25T08:07:06.937Z</time></trkpt><trkpt lat="43.8020117" lon="12.61744"><ele>131.0</ele><time>2026-04-25T08:07:07.936Z</time></trkpt><trkpt lat="43.801915" lon="12.61756"><ele>131.0</ele><time>2026-04-25T08:07:08.937Z</time></trkpt><trkpt lat="43.8018267" lon="12.6176917"><ele>131.0</ele><time>2026-04-25T08:07:09.937Z</time></trkpt><trkpt lat="43.8017417" lon="12.6178267"><ele>129.75</ele><time>2026-04-25T08:07:10.937Z</time></trkpt><trkpt lat="43.801655" lon="12.6179467"><ele>128.5</ele><time>2026-04-25T08:07:11.937Z</time></trkpt><trkpt lat="43.8015683" lon="12.61806"><ele>127.25</ele><time>2026-04-25T08:07:12.937Z</time></trkpt><trkpt lat="43.8014833" lon="12.618165"><ele>126.0</ele><time>2026-04-25T08:07:13.937Z</time></trkpt><trkpt lat="43.8013917" lon="12.6182633"><ele>126.0</ele><time>2026-04-25T08:07:14.937Z</time></trkpt><trkpt lat="43.8012933" lon="12.6183517"><ele>126.0</ele><time>2026-04-25T08:07:15.937Z</time></trkpt><trkpt lat="43.8011917" lon="12.6184283"><ele>126.0</ele><time>2026-04-25T08:07:16.936Z</time></trkpt><trkpt lat="43.8010833" lon="12.618505"><ele>126.0</ele><time>2026-04-25T08:07:17.937Z</time></trkpt><trkpt lat="43.8009767" lon="12.61858"><ele>125.5</ele><time>2026-04-25T08:07:18.937Z</time></trkpt><trkpt lat="43.8008667" lon="12.6186467"><ele>125.0</ele><time>2026-04-25T08:07:19.936Z</time></trkpt><trkpt lat="43.8007517" lon="12.6187"><ele>124.5</ele><time>2026-04-25T08:07:20.937Z</time></trkpt><trkpt lat="43.8006317" lon="12.6187533"><ele>124.0</ele><time>2026-04-25T08:07:21.936Z</time></trkpt><trkpt lat="43.80051" lon="12.6187967"><ele>124.0</ele><time>2026-04-25T08:07:22.937Z</time></trkpt><trkpt lat="43.8003867" lon="12.6188283"><ele>124.0</ele><time>2026-04-25T08:07:23.937Z</time></trkpt><trkpt lat="43.800265" lon="12.6188483"><ele>124.0</ele><time>2026-04-25T08:07:24.937Z</time></trkpt><trkpt lat="43.8001467" lon="12.6188767"><ele>124.0</ele><time>2026-04-25T08:07:25.937Z</time></trkpt><trkpt lat="43.800025" lon="12.6188967"><ele>123.0</ele><time>2026-04-25T08:07:26.936Z</time></trkpt><trkpt lat="43.7999067" lon="12.6189067"><ele>122.0</ele><time>2026-04-25T08:07:27.937Z</time></trkpt><trkpt lat="43.7997867" lon="12.6189183"><ele>121.0</ele><time>2026-04-25T08:07:28.937Z</time></trkpt><trkpt lat="43.799665" lon="12.6189417"><ele>120.0</ele><time>2026-04-25T08:07:29.937Z</time></trkpt><trkpt lat="43.7995467" lon="12.6189583"><ele>120.0</ele><time>2026-04-25T08:07:30.937Z</time></trkpt><trkpt lat="43.799425" lon="12.618975"><ele>120.0</ele><time>2026-04-25T08:07:31.936Z</time></trkpt><trkpt lat="43.7993033" lon="12.61898"><ele>120.0</ele><time>2026-04-25T08:07:32.937Z</time></trkpt><trkpt lat="43.7991817" lon="12.6190017"><ele>120.0</ele><time>2026-04-25T08:07:33.937Z</time></trkpt><trkpt lat="43.7990583" lon="12.6190183"><ele>119.6</ele><time>2026-04-25T08:07:34.937Z</time></trkpt><trkpt lat="43.79894" lon="12.6190233"><ele>119.2</ele><time>2026-04-25T08:07:35.937Z</time></trkpt><trkpt lat="43.7988283" lon="12.61904"><ele>118.80000000000001</ele><time>2026-04-25T08:07:36.937Z</time></trkpt><trkpt lat="43.7987217" lon="12.619055"><ele>118.4</ele><time>2026-04-25T08:07:37.937Z</time></trkpt><trkpt lat="43.79862" lon="12.6190733"><ele>118.0</ele><time>2026-04-25T08:07:38.937Z</time></trkpt><trkpt lat="43.7985217" lon="12.619085"><ele>117.60000000000001</ele><time>2026-04-25T08:07:39.937Z</time></trkpt><trkpt lat="43.7984217" lon="12.619075"><ele>117.20000000000002</ele><time>2026-04-25T08:07:40.936Z</time></trkpt><trkpt lat="43.7983183" lon="12.61905"><ele>116.8</ele><time>2026-04-25T08:07:41.937Z</time></trkpt><trkpt lat="43.79822" lon="12.619005"><ele>116.4</ele><time>2026-04-25T08:07:42.937Z</time></trkpt><trkpt lat="43.7981183" lon="12.6189467"><ele>116.0</ele><time>2026-04-25T08:07:43.937Z</time></trkpt><trkpt lat="43.7980117" lon="12.6188917"><ele>116.0</ele><time>2026-04-25T08:07:44.937Z</time></trkpt><trkpt lat="43.7979067" lon="12.6188417"><ele>116.0</ele><time>2026-04-25T08:07:45.937Z</time></trkpt><trkpt lat="43.7978017" lon="12.61879"><ele>116.0</ele><time>2026-04-25T08:07:46.936Z</time></trkpt><trkpt lat="43.7976967" lon="12.6187433"><ele>116.0</ele><time>2026-04-25T08:07:47.937Z</time></trkpt><trkpt lat="43.79759" lon="12.6187"><ele>116.0</ele><time>2026-04-25T08:07:48.937Z</time></trkpt><trkpt lat="43.7974817" lon="12.6186733"><ele>115.25</ele><time>2026-04-25T08:07:49.937Z</time></trkpt><trkpt lat="43.7973717" lon="12.6186567"><ele>114.5</ele><time>2026-04-25T08:07:50.937Z</time></trkpt><trkpt lat="43.79726" lon="12.6186483"><ele>113.75</ele><time>2026-04-25T08:07:51.937Z</time></trkpt><trkpt lat="43.7971467" lon="12.6186467"><ele>113.0</ele><time>2026-04-25T08:07:52.936Z</time></trkpt><trkpt lat="43.7970317" lon="12.618645"><ele>113.0</ele><time>2026-04-25T08:07:53.936Z</time></trkpt><trkpt lat="43.796915" lon="12.6186433"><ele>113.0</ele><time>2026-04-25T08:07:54.937Z</time></trkpt><trkpt lat="43.7967983" lon="12.61864"><ele>113.0</ele><time>2026-04-25T08:07:55.937Z</time></trkpt><trkpt lat="43.7966783" lon="12.6186417"><ele>113.0</ele><time>2026-04-25T08:07:56.937Z</time></trkpt><trkpt lat="43.7965567" lon="12.6186433"><ele>111.75</ele><time>2026-04-25T08:07:57.937Z</time></trkpt><trkpt lat="43.796435" lon="12.6186517"><ele>110.5</ele><time>2026-04-25T08:07:58.937Z</time></trkpt><trkpt lat="43.796315" lon="12.6186567"><ele>109.25</ele><time>2026-04-25T08:07:59.937Z</time></trkpt><trkpt lat="43.7961967" lon="12.618665"><ele>108.0</ele><time>2026-04-25T08:08:00.936Z</time></trkpt><trkpt lat="43.7960767" lon="12.618665"><ele>107.75</ele><time>2026-04-25T08:08:01.937Z</time></trkpt><trkpt lat="43.7959567" lon="12.6186683"><ele>107.5</ele><time>2026-04-25T08:08:02.937Z</time></trkpt><trkpt lat="43.7958383" lon="12.6186783"><ele>107.25</ele><time>2026-04-25T08:08:03.937Z</time></trkpt><trkpt lat="43.79572" lon="12.6186833"><ele>107.0</ele><time>2026-04-25T08:08:04.938Z</time></trkpt><trkpt lat="43.7955983" lon="12.6186833"><ele>107.0</ele><time>2026-04-25T08:08:05.938Z</time></trkpt><trkpt lat="43.7954717" lon="12.61869"><ele>107.0</ele><time>2026-04-25T08:08:06.938Z</time></trkpt><trkpt lat="43.79534" lon="12.6186933"><ele>107.0</ele><time>2026-04-25T08:08:07.937Z</time></trkpt><trkpt lat="43.7952077" lon="12.6187015"><ele>107.0</ele><time>2026-04-25T08:08:08.937Z</time></trkpt><trkpt lat="43.7950792" lon="12.6187173"><ele>106.75</ele><time>2026-04-25T08:08:09.938Z</time></trkpt><trkpt lat="43.7949468" lon="12.6187293"><ele>106.5</ele><time>2026-04-25T08:08:10.937Z</time></trkpt><trkpt lat="43.7948134" lon="12.6187406"><ele>106.25</ele><time>2026-04-25T08:08:11.938Z</time></trkpt><trkpt lat="43.7946799" lon="12.618751"><ele>106.0</ele><time>2026-04-25T08:08:12.938Z</time></trkpt><trkpt lat="43.7945477" lon="12.6187558"><ele>106.0</ele><time>2026-04-25T08:08:13.938Z</time></trkpt><trkpt lat="43.7944174" lon="12.6187552"><ele>106.0</ele><time>2026-04-25T08:08:14.937Z</time></trkpt><trkpt lat="43.7942862" lon="12.6187606"><ele>106.0</ele><time>2026-04-25T08:08:15.937Z</time></trkpt><trkpt lat="43.7941559" lon="12.6187756"><ele>106.0</ele><time>2026-04-25T08:08:16.938Z</time></trkpt><trkpt lat="43.7940265" lon="12.6187892"><ele>105.75</ele><time>2026-04-25T08:08:17.938Z</time></trkpt><trkpt lat="43.7939015" lon="12.6187982"><ele>105.5</ele><time>2026-04-25T08:08:18.938Z</time></trkpt><trkpt lat="43.7937866" lon="12.6188025"><ele>105.25</ele><time>2026-04-25T08:08:19.938Z</time></trkpt><trkpt lat="43.7936745" lon="12.6187991"><ele>105.0</ele><time>2026-04-25T08:08:20.937Z</time></trkpt><trkpt lat="43.7935601" lon="12.61877"><ele>106.5</ele><time>2026-04-25T08:08:21.938Z</time></trkpt><trkpt lat="43.7934445" lon="12.6187122"><ele>108.0</ele><time>2026-04-25T08:08:22.938Z</time></trkpt><trkpt lat="43.7933264" lon="12.6186481"><ele>109.5</ele><time>2026-04-25T08:08:23.938Z</time></trkpt><trkpt lat="43.7932037" lon="12.6186076"><ele>111.0</ele><time>2026-04-25T08:08:24.938Z</time></trkpt><trkpt lat="43.7930771" lon="12.6185956"><ele>111.0</ele><time>2026-04-25T08:08:25.938Z</time></trkpt><trkpt lat="43.7929541" lon="12.6186489"><ele>111.0</ele><time>2026-04-25T08:08:26.937Z</time></trkpt><trkpt lat="43.7928367" lon="12.6187475"><ele>111.0</ele><time>2026-04-25T08:08:27.938Z</time></trkpt><trkpt lat="43.7927273" lon="12.6188472"><ele>111.0</ele><time>2026-04-25T08:08:28.937Z</time></trkpt><trkpt lat="43.7926245" lon="12.6189255"><ele>111.5</ele><time>2026-04-25T08:08:29.937Z</time></trkpt><trkpt lat="43.7925335" lon="12.6189586"><ele>112.0</ele><time>2026-04-25T08:08:30.938Z</time></trkpt><trkpt lat="43.79246" lon="12.6189321"><ele>112.5</ele><time>2026-04-25T08:08:31.938Z</time></trkpt><trkpt lat="43.7924189" lon="12.618857"><ele>113.0</ele><time>2026-04-25T08:08:32.937Z</time></trkpt><trkpt lat="43.7924376" lon="12.6187508"><ele>113.5</ele><time>2026-04-25T08:08:33.938Z</time></trkpt><trkpt lat="43.7924761" lon="12.6186568"><ele>114.0</ele><time>2026-04-25T08:08:34.937Z</time></trkpt><trkpt lat="43.7925411" lon="12.6185725"><ele>114.6</ele><time>2026-04-25T08:08:35.938Z</time></trkpt><trkpt lat="43.7926465" lon="12.6184866"><ele>115.2</ele><time>2026-04-25T08:08:36.938Z</time></trkpt><trkpt lat="43.7927227" lon="12.6183718"><ele>115.79999999999998</ele><time>2026-04-25T08:08:37.938Z</time></trkpt><trkpt lat="43.7927612" lon="12.6182377"><ele>116.39999999999999</ele><time>2026-04-25T08:08:38.937Z</time></trkpt><trkpt lat="43.7927478" lon="12.6180909"><ele>117.0</ele><time>2026-04-25T08:08:39.937Z</time></trkpt><trkpt lat="43.7927003" lon="12.6179414"><ele>119.25</ele><time>2026-04-25T08:08:40.937Z</time></trkpt><trkpt lat="43.7926427" lon="12.6177844"><ele>121.5</ele><time>2026-04-25T08:08:41.938Z</time></trkpt><trkpt lat="43.792589" lon="12.6176233"><ele>123.75</ele><time>2026-04-25T08:08:42.938Z</time></trkpt><trkpt lat="43.7925383" lon="12.6174573"><ele>126.0</ele><time>2026-04-25T08:08:43.938Z</time></trkpt><trkpt lat="43.7924972" lon="12.6172833"><ele>126.0</ele><time>2026-04-25T08:08:44.938Z</time></trkpt><trkpt lat="43.7924733" lon="12.6171051"><ele>126.0</ele><time>2026-04-25T08:08:45.938Z</time></trkpt><trkpt lat="43.7924726" lon="12.6169216"><ele>126.0</ele><time>2026-04-25T08:08:46.937Z</time></trkpt><trkpt lat="43.7924997" lon="12.6167361"><ele>126.0</ele><time>2026-04-25T08:08:47.938Z</time></trkpt><trkpt lat="43.792545" lon="12.6165614"><ele>125.75</ele><time>2026-04-25T08:08:48.938Z</time></trkpt><trkpt lat="43.7926017" lon="12.6164013"><ele>125.5</ele><time>2026-04-25T08:08:49.938Z</time></trkpt><trkpt lat="43.7926759" lon="12.6162532"><ele>125.25</ele><time>2026-04-25T08:08:50.937Z</time></trkpt><trkpt lat="43.7927816" lon="12.6161334"><ele>125.0</ele><time>2026-04-25T08:08:51.938Z</time></trkpt><trkpt lat="43.7929092" lon="12.6160447"><ele>126.0</ele><time>2026-04-25T08:08:52.938Z</time></trkpt><trkpt lat="43.7930405" lon="12.615967"><ele>127.0</ele><time>2026-04-25T08:08:53.938Z</time></trkpt><trkpt lat="43.7931644" lon="12.6158798"><ele>128.0</ele><time>2026-04-25T08:08:54.937Z</time></trkpt><trkpt lat="43.7932751" lon="12.6157658"><ele>129.0</ele><time>2026-04-25T08:08:55.938Z</time></trkpt><trkpt lat="43.7933742" lon="12.6156246"><ele>129.0</ele><time>2026-04-25T08:08:56.938Z</time></trkpt><trkpt lat="43.793465" lon="12.6154685"><ele>129.0</ele><time>2026-04-25T08:08:57.938Z</time></trkpt><trkpt lat="43.7935473" lon="12.615302"><ele>129.0</ele><time>2026-04-25T08:08:58.938Z</time></trkpt><trkpt lat="43.7936251" lon="12.6151271"><ele>129.0</ele><time>2026-04-25T08:08:59.938Z</time></trkpt><trkpt lat="43.793699" lon="12.6149423"><ele>127.33333333333334</ele><time>2026-04-25T08:09:00.937Z</time></trkpt><trkpt lat="43.7937641" lon="12.614744"><ele>125.66666666666667</ele><time>2026-04-25T08:09:01.937Z</time></trkpt><trkpt lat="43.7938205" lon="12.6145376"><ele>124.0</ele><time>2026-04-25T08:09:02.937Z</time></trkpt><trkpt lat="43.7938743" lon="12.6143283"><ele>124.0</ele><time>2026-04-25T08:09:03.938Z</time></trkpt><trkpt lat="43.7939294" lon="12.6141188"><ele>124.0</ele><time>2026-04-25T08:09:04.938Z</time></trkpt><trkpt lat="43.7939811" lon="12.6139097"><ele>124.0</ele><time>2026-04-25T08:09:05.937Z</time></trkpt><trkpt lat="43.7940354" lon="12.6137043"><ele>125.75</ele><time>2026-04-25T08:09:06.938Z</time></trkpt><trkpt lat="43.7940873" lon="12.6135064"><ele>127.5</ele><time>2026-04-25T08:09:07.938Z</time></trkpt><trkpt lat="43.7941357" lon="12.6133143"><ele>129.25</ele><time>2026-04-25T08:09:08.938Z</time></trkpt><trkpt lat="43.794183" lon="12.6131264"><ele>131.0</ele><time>2026-04-25T08:09:09.938Z</time></trkpt><trkpt lat="43.7942269" lon="12.6129448"><ele>130.75</ele><time>2026-04-25T08:09:10.937Z</time></trkpt><trkpt lat="43.7942726" lon="12.6127709"><ele>130.5</ele><time>2026-04-25T08:09:11.938Z</time></trkpt><trkpt lat="43.7943168" lon="12.6126042"><ele>130.25</ele><time>2026-04-25T08:09:12.937Z</time></trkpt><trkpt lat="43.7943669" lon="12.6124418"><ele>130.0</ele><time>2026-04-25T08:09:13.937Z</time></trkpt><trkpt lat="43.7944316" lon="12.6122835"><ele>130.0</ele><time>2026-04-25T08:09:14.938Z</time></trkpt><trkpt lat="43.7945167" lon="12.6121283"><ele>130.0</ele><time>2026-04-25T08:09:15.938Z</time></trkpt><trkpt lat="43.7946083" lon="12.6119667"><ele>130.0</ele><time>2026-04-25T08:09:16.938Z</time></trkpt><trkpt lat="43.7947067" lon="12.6118033"><ele>130.0</ele><time>2026-04-25T08:09:17.937Z</time></trkpt><trkpt lat="43.794795" lon="12.61163"><ele>130.5</ele><time>2026-04-25T08:09:18.938Z</time></trkpt><trkpt lat="43.7948883" lon="12.6114667"><ele>131.0</ele><time>2026-04-25T08:09:19.938Z</time></trkpt><trkpt lat="43.7949817" lon="12.61131"><ele>131.5</ele><time>2026-04-25T08:09:20.938Z</time></trkpt><trkpt lat="43.795085" lon="12.611165"><ele>132.0</ele><time>2026-04-25T08:09:21.938Z</time></trkpt><trkpt lat="43.7951933" lon="12.6110267"><ele>130.0</ele><time>2026-04-25T08:09:22.938Z</time></trkpt><trkpt lat="43.7953117" lon="12.6109"><ele>128.0</ele><time>2026-04-25T08:09:23.938Z</time></trkpt><trkpt lat="43.7954383" lon="12.6107883"><ele>126.0</ele><time>2026-04-25T08:09:24.937Z</time></trkpt><trkpt lat="43.795565" lon="12.6106767"><ele>126.0</ele><time>2026-04-25T08:09:25.938Z</time></trkpt><trkpt lat="43.7956833" lon="12.61056"><ele>126.0</ele><time>2026-04-25T08:09:26.937Z</time></trkpt><trkpt lat="43.7957967" lon="12.61045"><ele>126.0</ele><time>2026-04-25T08:09:27.938Z</time></trkpt><trkpt lat="43.7959033" lon="12.61034"><ele>126.0</ele><time>2026-04-25T08:09:28.938Z</time></trkpt><trkpt lat="43.7959933" lon="12.6102183"><ele>126.8</ele><time>2026-04-25T08:09:29.938Z</time></trkpt><trkpt lat="43.7960733" lon="12.6100967"><ele>127.6</ele><time>2026-04-25T08:09:30.938Z</time></trkpt><trkpt lat="43.796155" lon="12.6099967"><ele>128.4</ele><time>2026-04-25T08:09:31.938Z</time></trkpt><trkpt lat="43.796245" lon="12.609935"><ele>129.2</ele><time>2026-04-25T08:09:32.938Z</time></trkpt><trkpt lat="43.7963417" lon="12.60992"><ele>130.0</ele><time>2026-04-25T08:09:33.938Z</time></trkpt><trkpt lat="43.7964417" lon="12.6099317"><ele>130.0</ele><time>2026-04-25T08:09:34.937Z</time></trkpt><trkpt lat="43.7965367" lon="12.60994"><ele>130.0</ele><time>2026-04-25T08:09:35.937Z</time></trkpt><trkpt lat="43.7966283" lon="12.60996"><ele>130.0</ele><time>2026-04-25T08:09:36.938Z</time></trkpt><trkpt lat="43.7967167" lon="12.6099683"><ele>130.0</ele><time>2026-04-25T08:09:37.938Z</time></trkpt><trkpt lat="43.796795" lon="12.6099217"><ele>130.0</ele><time>2026-04-25T08:09:38.938Z</time></trkpt><trkpt lat="43.796875" lon="12.6098583"><ele>129.33333333333334</ele><time>2026-04-25T08:09:39.938Z</time></trkpt><trkpt lat="43.7969633" lon="12.60981"><ele>128.66666666666669</ele><time>2026-04-25T08:09:40.938Z</time></trkpt><trkpt lat="43.7970567" lon="12.609805"><ele>128.0</ele><time>2026-04-25T08:09:41.938Z</time></trkpt><trkpt lat="43.79714" lon="12.6097733"><ele>127.33333333333334</ele><time>2026-04-25T08:09:42.937Z</time></trkpt><trkpt lat="43.7972117" lon="12.6097117"><ele>126.66666666666667</ele><time>2026-04-25T08:09:43.938Z</time></trkpt><trkpt lat="43.7972783" lon="12.6096467"><ele>126.0</ele><time>2026-04-25T08:09:44.938Z</time></trkpt><trkpt lat="43.797345" lon="12.6095783"><ele>127.8</ele><time>2026-04-25T08:09:45.937Z</time></trkpt><trkpt lat="43.7974017" lon="12.6094783"><ele>129.6</ele><time>2026-04-25T08:09:46.938Z</time></trkpt><trkpt lat="43.7974617" lon="12.60937"><ele>131.4</ele><time>2026-04-25T08:09:47.938Z</time></trkpt><trkpt lat="43.797515" lon="12.6092417"><ele>133.2</ele><time>2026-04-25T08:09:48.938Z</time></trkpt><trkpt lat="43.7975583" lon="12.6090967"><ele>135.0</ele><time>2026-04-25T08:09:49.937Z</time></trkpt><trkpt lat="43.7976" lon="12.608945"><ele>135.0</ele><time>2026-04-25T08:09:50.936Z</time></trkpt><trkpt lat="43.7976433" lon="12.608785"><ele>135.0</ele><time>2026-04-25T08:09:51.936Z</time></trkpt><trkpt lat="43.7976867" lon="12.6086217"><ele>135.0</ele><time>2026-04-25T08:09:52.937Z</time></trkpt><trkpt lat="43.79774" lon="12.6084633"><ele>135.0</ele><time>2026-04-25T08:09:53.937Z</time></trkpt><trkpt lat="43.7977967" lon="12.6083067"><ele>138.75</ele><time>2026-04-25T08:09:54.937Z</time></trkpt><trkpt lat="43.797855" lon="12.6081467"><ele>142.5</ele><time>2026-04-25T08:09:55.937Z</time></trkpt><trkpt lat="43.79793" lon="12.6079867"><ele>146.25</ele><time>2026-04-25T08:09:56.937Z</time></trkpt><trkpt lat="43.7980233" lon="12.6078317"><ele>150.0</ele><time>2026-04-25T08:09:57.937Z</time></trkpt><trkpt lat="43.7981267" lon="12.6076817"><ele>150.66666666666666</ele><time>2026-04-25T08:09:58.937Z</time></trkpt><trkpt lat="43.7982383" lon="12.60754"><ele>151.33333333333331</ele><time>2026-04-25T08:09:59.937Z</time></trkpt><trkpt lat="43.7983567" lon="12.6074133"><ele>152.0</ele><time>2026-04-25T08:10:00.937Z</time></trkpt><trkpt lat="43.7984833" lon="12.6073"><ele>153.0</ele><time>2026-04-25T08:10:01.937Z</time></trkpt><trkpt lat="43.7986167" lon="12.6071917"><ele>154.0</ele><time>2026-04-25T08:10:02.937Z</time></trkpt><trkpt lat="43.7987483" lon="12.6070867"><ele>155.0</ele><time>2026-04-25T08:10:03.937Z</time></trkpt><trkpt lat="43.798875" lon="12.6069783"><ele>156.5</ele><time>2026-04-25T08:10:04.937Z</time></trkpt><trkpt lat="43.7989817" lon="12.6068533"><ele>158.0</ele><time>2026-04-25T08:10:05.936Z</time></trkpt><trkpt lat="43.7990683" lon="12.6067083"><ele>159.5</ele><time>2026-04-25T08:10:06.936Z</time></trkpt><trkpt lat="43.799135" lon="12.606545"><ele>161.0</ele><time>2026-04-25T08:10:07.937Z</time></trkpt><trkpt lat="43.79919" lon="12.6063633"><ele>161.0</ele><time>2026-04-25T08:10:08.937Z</time></trkpt><trkpt lat="43.7992483" lon="12.6061733"><ele>161.0</ele><time>2026-04-25T08:10:09.936Z</time></trkpt><trkpt lat="43.7993117" lon="12.6059717"><ele>161.0</ele><time>2026-04-25T08:10:10.937Z</time></trkpt><trkpt lat="43.7993783" lon="12.60577"><ele>161.25</ele><time>2026-04-25T08:10:11.936Z</time></trkpt><trkpt lat="43.7994433" lon="12.6055767"><ele>161.5</ele><time>2026-04-25T08:10:12.937Z</time></trkpt><trkpt lat="43.7995083" lon="12.6053983"><ele>161.75</ele><time>2026-04-25T08:10:13.937Z</time></trkpt><trkpt lat="43.7995817" lon="12.6052367"><ele>162.0</ele><time>2026-04-25T08:10:14.937Z</time></trkpt><trkpt lat="43.7996717" lon="12.6050883"><ele>162.0</ele><time>2026-04-25T08:10:15.937Z</time></trkpt><trkpt lat="43.79978" lon="12.604945"><ele>162.0</ele><time>2026-04-25T08:10:16.937Z</time></trkpt><trkpt lat="43.7998967" lon="12.6047967"><ele>162.0</ele><time>2026-04-25T08:10:17.937Z</time></trkpt><trkpt lat="43.8000217" lon="12.6046483"><ele>161.33333333333334</ele><time>2026-04-25T08:10:18.936Z</time></trkpt><trkpt lat="43.800145" lon="12.604495"><ele>160.66666666666669</ele><time>2026-04-25T08:10:19.937Z</time></trkpt><trkpt lat="43.8002667" lon="12.6043383"><ele>160.0</ele><time>2026-04-25T08:10:20.937Z</time></trkpt><trkpt lat="43.80039" lon="12.6041783"><ele>159.0</ele><time>2026-04-25T08:10:21.936Z</time></trkpt><trkpt lat="43.80051" lon="12.6040167"><ele>158.0</ele><time>2026-04-25T08:10:22.936Z</time></trkpt><trkpt lat="43.8006233" lon="12.603845"><ele>157.0</ele><time>2026-04-25T08:10:23.937Z</time></trkpt><trkpt lat="43.8007367" lon="12.6036717"><ele>158.66666666666669</ele><time>2026-04-25T08:10:24.937Z</time></trkpt><trkpt lat="43.8008383" lon="12.6034933"><ele>160.33333333333334</ele><time>2026-04-25T08:10:25.937Z</time></trkpt><trkpt lat="43.8009267" lon="12.603325"><ele>162.0</ele><time>2026-04-25T08:10:26.937Z</time></trkpt><trkpt lat="43.8010033" lon="12.6031617"><ele>162.0</ele><time>2026-04-25T08:10:27.937Z</time></trkpt><trkpt lat="43.8010717" lon="12.6030017"><ele>162.0</ele><time>2026-04-25T08:10:28.937Z</time></trkpt><trkpt lat="43.801115" lon="12.6028417"><ele>162.0</ele><time>2026-04-25T08:10:29.937Z</time></trkpt><trkpt lat="43.8011217" lon="12.6026683"><ele>162.0</ele><time>2026-04-25T08:10:30.937Z</time></trkpt><trkpt lat="43.8011017" lon="12.6024833"><ele>165.75</ele><time>2026-04-25T08:10:31.936Z</time></trkpt><trkpt lat="43.8010617" lon="12.6022933"><ele>169.5</ele><time>2026-04-25T08:10:32.937Z</time></trkpt><trkpt lat="43.8010167" lon="12.6021117"><ele>173.25</ele><time>2026-04-25T08:10:33.937Z</time></trkpt><trkpt lat="43.80099" lon="12.6019533"><ele>177.0</ele><time>2026-04-25T08:10:34.936Z</time></trkpt><trkpt lat="43.800995" lon="12.6018117"><ele>180.0</ele><time>2026-04-25T08:10:35.937Z</time></trkpt><trkpt lat="43.80103" lon="12.601695"><ele>183.0</ele><time>2026-04-25T08:10:36.937Z</time></trkpt><trkpt lat="43.8010917" lon="12.6016017"><ele>186.0</ele><time>2026-04-25T08:10:37.937Z</time></trkpt><trkpt lat="43.80117" lon="12.601525"><ele>189.0</ele><time>2026-04-25T08:10:38.937Z</time></trkpt><trkpt lat="43.80126" lon="12.60144"><ele>192.0</ele><time>2026-04-25T08:10:39.937Z</time></trkpt><trkpt lat="43.8013433" lon="12.60134"><ele>192.0</ele><time>2026-04-25T08:10:40.937Z</time></trkpt><trkpt lat="43.8014017" lon="12.6012117"><ele>192.0</ele><time>2026-04-25T08:10:41.937Z</time></trkpt><trkpt lat="43.8014433" lon="12.6010667"><ele>192.0</ele><time>2026-04-25T08:10:42.937Z</time></trkpt><trkpt lat="43.801485" lon="12.6009267"><ele>192.0</ele><time>2026-04-25T08:10:43.937Z</time></trkpt><trkpt lat="43.8015417" lon="12.600805"><ele>192.0</ele><time>2026-04-25T08:10:44.936Z</time></trkpt><trkpt lat="43.8016167" lon="12.6007067"><ele>192.39999999999998</ele><time>2026-04-25T08:10:45.937Z</time></trkpt><trkpt lat="43.801705" lon="12.6006417"><ele>192.79999999999998</ele><time>2026-04-25T08:10:46.937Z</time></trkpt><trkpt lat="43.8018017" lon="12.600595"><ele>193.2</ele><time>2026-04-25T08:10:47.937Z</time></trkpt><trkpt lat="43.8019083" lon="12.600555"><ele>193.6</ele><time>2026-04-25T08:10:48.937Z</time></trkpt><trkpt lat="43.8020217" lon="12.6005167"><ele>194.0</ele><time>2026-04-25T08:10:49.937Z</time></trkpt><trkpt lat="43.8021467" lon="12.6004733"><ele>196.0</ele><time>2026-04-25T08:10:50.937Z</time></trkpt><trkpt lat="43.802285" lon="12.6004217"><ele>198.0</ele><time>2026-04-25T08:10:51.937Z</time></trkpt><trkpt lat="43.802435" lon="12.600365"><ele>200.0</ele><time>2026-04-25T08:10:52.937Z</time></trkpt><trkpt lat="43.8025833" lon="12.600295"><ele>204.66666666666669</ele><time>2026-04-25T08:10:53.937Z</time></trkpt><trkpt lat="43.8027267" lon="12.600205"><ele>209.33333333333331</ele><time>2026-04-25T08:10:54.937Z</time></trkpt><trkpt lat="43.8028583" lon="12.6001017"><ele>214.0</ele><time>2026-04-25T08:10:55.936Z</time></trkpt><trkpt lat="43.8029783" lon="12.5999933"><ele>214.0</ele><time>2026-04-25T08:10:56.936Z</time></trkpt><trkpt lat="43.8030867" lon="12.5998917"><ele>214.0</ele><time>2026-04-25T08:10:57.936Z</time></trkpt><trkpt lat="43.8031932" lon="12.5997965"><ele>214.0</ele><time>2026-04-25T08:10:58.936Z</time></trkpt><trkpt lat="43.8033049" lon="12.5997031"><ele>214.0</ele><time>2026-04-25T08:10:59.937Z</time></trkpt><trkpt lat="43.803423" lon="12.5996023"><ele>212.0</ele><time>2026-04-25T08:11:00.937Z</time></trkpt><trkpt lat="43.8035377" lon="12.5994806"><ele>210.0</ele><time>2026-04-25T08:11:01.937Z</time></trkpt><trkpt lat="43.803644" lon="12.5993345"><ele>208.0</ele><time>2026-04-25T08:11:02.937Z</time></trkpt><trkpt lat="43.8037452" lon="12.5991693"><ele>208.0</ele><time>2026-04-25T08:11:03.937Z</time></trkpt><trkpt lat="43.80384" lon="12.5989951"><ele>208.0</ele><time>2026-04-25T08:11:04.937Z</time></trkpt><trkpt lat="43.803939" lon="12.5988148"><ele>208.0</ele><time>2026-04-25T08:11:05.937Z</time></trkpt><trkpt lat="43.80404" lon="12.5986312"><ele>207.33333333333331</ele><time>2026-04-25T08:11:06.937Z</time></trkpt><trkpt lat="43.804137" lon="12.5984486"><ele>206.66666666666669</ele><time>2026-04-25T08:11:07.936Z</time></trkpt><trkpt lat="43.8042299" lon="12.5982784"><ele>206.0</ele><time>2026-04-25T08:11:08.937Z</time></trkpt><trkpt lat="43.8043146" lon="12.5981145"><ele>202.0</ele><time>2026-04-25T08:11:09.937Z</time></trkpt><trkpt lat="43.8043854" lon="12.5979427"><ele>198.0</ele><time>2026-04-25T08:11:10.937Z</time></trkpt><trkpt lat="43.8044352" lon="12.5977523"><ele>194.0</ele><time>2026-04-25T08:11:11.936Z</time></trkpt><trkpt lat="43.8044594" lon="12.597539"><ele>190.0</ele><time>2026-04-25T08:11:12.937Z</time></trkpt><trkpt lat="43.8044732" lon="12.5973158"><ele>190.0</ele><time>2026-04-25T08:11:13.937Z</time></trkpt><trkpt lat="43.8044848" lon="12.5970906"><ele>190.0</ele><time>2026-04-25T08:11:14.937Z</time></trkpt><trkpt lat="43.8044928" lon="12.5968666"><ele>190.0</ele><time>2026-04-25T08:11:15.936Z</time></trkpt><trkpt lat="43.804487" lon="12.5966461"><ele>192.75</ele><time>2026-04-25T08:11:16.937Z</time></trkpt><trkpt lat="43.8044693" lon="12.5964399"><ele>195.5</ele><time>2026-04-25T08:11:17.936Z</time></trkpt><trkpt lat="43.8044468" lon="12.5962456"><ele>198.25</ele><time>2026-04-25T08:11:18.936Z</time></trkpt><trkpt lat="43.8044343" lon="12.5960681"><ele>201.0</ele><time>2026-04-25T08:11:19.937Z</time></trkpt><trkpt lat="43.8044396" lon="12.5959089"><ele>204.20000000000002</ele><time>2026-04-25T08:11:20.937Z</time></trkpt><trkpt lat="43.8044726" lon="12.5957739"><ele>207.4</ele><time>2026-04-25T08:11:21.937Z</time></trkpt><trkpt lat="43.804533" lon="12.5956732"><ele>210.6</ele><time>2026-04-25T08:11:22.937Z</time></trkpt><trkpt lat="43.8046128" lon="12.595601"><ele>213.8</ele><time>2026-04-25T08:11:23.937Z</time></trkpt><trkpt lat="43.8047032" lon="12.5955506"><ele>217.0</ele><time>2026-04-25T08:11:24.937Z</time></trkpt><trkpt lat="43.8047926" lon="12.5955013"><ele>217.0</ele><time>2026-04-25T08:11:25.936Z</time></trkpt><trkpt lat="43.8048667" lon="12.5954215"><ele>217.0</ele><time>2026-04-25T08:11:26.936Z</time></trkpt><trkpt lat="43.804925" lon="12.5953054"><ele>217.0</ele><time>2026-04-25T08:11:27.936Z</time></trkpt><trkpt lat="43.8049722" lon="12.5951544"><ele>217.0</ele><time>2026-04-25T08:11:28.937Z</time></trkpt><trkpt lat="43.8050088" lon="12.5949757"><ele>217.0</ele><time>2026-04-25T08:11:29.937Z</time></trkpt><trkpt lat="43.8050393" lon="12.5947761"><ele>218.0</ele><time>2026-04-25T08:11:30.936Z</time></trkpt><trkpt lat="43.8050633" lon="12.5945583"><ele>219.0</ele><time>2026-04-25T08:11:31.937Z</time></trkpt><trkpt lat="43.8050867" lon="12.5943467"><ele>220.0</ele><time>2026-04-25T08:11:32.937Z</time></trkpt><trkpt lat="43.805115" lon="12.5941367"><ele>220.0</ele><time>2026-04-25T08:11:33.936Z</time></trkpt><trkpt lat="43.80516" lon="12.5939317"><ele>220.0</ele><time>2026-04-25T08:11:34.937Z</time></trkpt><trkpt lat="43.80522" lon="12.5937433"><ele>220.0</ele><time>2026-04-25T08:11:35.937Z</time></trkpt><trkpt lat="43.80529" lon="12.5935633"><ele>219.5</ele><time>2026-04-25T08:11:36.936Z</time></trkpt><trkpt lat="43.8053617" lon="12.593385"><ele>219.0</ele><time>2026-04-25T08:11:37.937Z</time></trkpt><trkpt lat="43.8054267" lon="12.5932017"><ele>218.5</ele><time>2026-04-25T08:11:38.937Z</time></trkpt><trkpt lat="43.8054833" lon="12.593005"><ele>218.0</ele><time>2026-04-25T08:11:39.937Z</time></trkpt><trkpt lat="43.80553" lon="12.592795"><ele>219.33333333333334</ele><time>2026-04-25T08:11:40.936Z</time></trkpt><trkpt lat="43.80557" lon="12.5925733"><ele>220.66666666666669</ele><time>2026-04-25T08:11:41.937Z</time></trkpt><trkpt lat="43.80561" lon="12.5923417"><ele>222.0</ele><time>2026-04-25T08:11:42.937Z</time></trkpt><trkpt lat="43.8056433" lon="12.592105"><ele>222.33333333333331</ele><time>2026-04-25T08:11:43.937Z</time></trkpt><trkpt lat="43.8056733" lon="12.591865"><ele>222.66666666666666</ele><time>2026-04-25T08:11:44.936Z</time></trkpt><trkpt lat="43.8056967" lon="12.59162"><ele>223.0</ele><time>2026-04-25T08:11:45.937Z</time></trkpt><trkpt lat="43.805715" lon="12.5913683"><ele>222.66666666666666</ele><time>2026-04-25T08:11:46.937Z</time></trkpt><trkpt lat="43.8057267" lon="12.591115"><ele>222.33333333333331</ele><time>2026-04-25T08:11:47.937Z</time></trkpt><trkpt lat="43.805735" lon="12.59086"><ele>222.0</ele><time>2026-04-25T08:11:48.937Z</time></trkpt><trkpt lat="43.80574" lon="12.590605"><ele>222.0</ele><time>2026-04-25T08:11:49.937Z</time></trkpt><trkpt lat="43.80574" lon="12.590355"><ele>222.0</ele><time>2026-04-25T08:11:50.936Z</time></trkpt><trkpt lat="43.8057433" lon="12.5901133"><ele>222.0</ele><time>2026-04-25T08:11:51.936Z</time></trkpt><trkpt lat="43.805745" lon="12.5898717"><ele>222.33333333333331</ele><time>2026-04-25T08:11:52.937Z</time></trkpt><trkpt lat="43.8057483" lon="12.5896383"><ele>222.66666666666666</ele><time>2026-04-25T08:11:53.936Z</time></trkpt><trkpt lat="43.80575" lon="12.5894117"><ele>223.0</ele><time>2026-04-25T08:11:54.937Z</time></trkpt><trkpt lat="43.8057367" lon="12.5891917"><ele>224.33333333333331</ele><time>2026-04-25T08:11:55.937Z</time></trkpt><trkpt lat="43.8057067" lon="12.5889717"><ele>225.66666666666669</ele><time>2026-04-25T08:11:56.937Z</time></trkpt><trkpt lat="43.8056683" lon="12.58875"><ele>227.0</ele><time>2026-04-25T08:11:57.937Z</time></trkpt><trkpt lat="43.8056267" lon="12.588525"><ele>228.66666666666669</ele><time>2026-04-25T08:11:58.937Z</time></trkpt><trkpt lat="43.8055867" lon="12.5883"><ele>230.33333333333331</ele><time>2026-04-25T08:11:59.937Z</time></trkpt><trkpt lat="43.8055583" lon="12.5880817"><ele>232.0</ele><time>2026-04-25T08:12:00.937Z</time></trkpt><trkpt lat="43.80554" lon="12.587885"><ele>234.0</ele><time>2026-04-25T08:12:01.937Z</time></trkpt><trkpt lat="43.8055433" lon="12.5877167"><ele>236.0</ele><time>2026-04-25T08:12:02.937Z</time></trkpt><trkpt lat="43.8055683" lon="12.5875733"><ele>238.0</ele><time>2026-04-25T08:12:03.936Z</time></trkpt><trkpt lat="43.805605" lon="12.5874367"><ele>240.0</ele><time>2026-04-25T08:12:04.936Z</time></trkpt><trkpt lat="43.8056383" lon="12.5872983"><ele>242.0</ele><time>2026-04-25T08:12:05.937Z</time></trkpt><trkpt lat="43.8056517" lon="12.587155"><ele>242.5</ele><time>2026-04-25T08:12:06.936Z</time></trkpt><trkpt lat="43.8056417" lon="12.5870067"><ele>243.0</ele><time>2026-04-25T08:12:07.936Z</time></trkpt><trkpt lat="43.8056117" lon="12.586845"><ele>243.5</ele><time>2026-04-25T08:12:08.937Z</time></trkpt><trkpt lat="43.8055867" lon="12.5866817"><ele>244.0</ele><time>2026-04-25T08:12:09.937Z</time></trkpt><trkpt lat="43.80558" lon="12.58652"><ele>244.0</ele><time>2026-04-25T08:12:10.936Z</time></trkpt><trkpt lat="43.8056" lon="12.58636"><ele>244.0</ele><time>2026-04-25T08:12:11.937Z</time></trkpt><trkpt lat="43.8056417" lon="12.5862033"><ele>244.0</ele><time>2026-04-25T08:12:12.937Z</time></trkpt><trkpt lat="43.80569" lon="12.58604"><ele>244.0</ele><time>2026-04-25T08:12:13.937Z</time></trkpt><trkpt lat="43.805745" lon="12.5858683"><ele>243.75</ele><time>2026-04-25T08:12:14.937Z</time></trkpt><trkpt lat="43.8057983" lon="12.585695"><ele>243.5</ele><time>2026-04-25T08:12:15.937Z</time></trkpt><trkpt lat="43.8058533" lon="12.5855133"><ele>243.25</ele><time>2026-04-25T08:12:16.937Z</time></trkpt><trkpt lat="43.8059117" lon="12.5853283"><ele>243.0</ele><time>2026-04-25T08:12:17.937Z</time></trkpt><trkpt lat="43.805975" lon="12.5851417"><ele>237.75</ele><time>2026-04-25T08:12:18.937Z</time></trkpt><trkpt lat="43.806025" lon="12.5849533"><ele>232.5</ele><time>2026-04-25T08:12:19.936Z</time></trkpt><trkpt lat="43.806055" lon="12.584755"><ele>227.25</ele><time>2026-04-25T08:12:20.937Z</time></trkpt><trkpt lat="43.806065" lon="12.58456"><ele>222.0</ele><time>2026-04-25T08:12:21.937Z</time></trkpt><trkpt lat="43.8060667" lon="12.5843783"><ele>221.75</ele><time>2026-04-25T08:12:22.937Z</time></trkpt><trkpt lat="43.80606" lon="12.5841883"><ele>221.5</ele><time>2026-04-25T08:12:23.937Z</time></trkpt><trkpt lat="43.806035" lon="12.583985"><ele>221.25</ele><time>2026-04-25T08:12:24.937Z</time></trkpt><trkpt lat="43.80601" lon="12.5837733"><ele>221.0</ele><time>2026-04-25T08:12:25.937Z</time></trkpt><trkpt lat="43.8059867" lon="12.5835567"><ele>226.66666666666669</ele><time>2026-04-25T08:12:26.937Z</time></trkpt><trkpt lat="43.8059633" lon="12.5833367"><ele>232.33333333333331</ele><time>2026-04-25T08:12:27.937Z</time></trkpt><trkpt lat="43.8059283" lon="12.5831183"><ele>238.0</ele><time>2026-04-25T08:12:28.937Z</time></trkpt><trkpt lat="43.8058967" lon="12.5829"><ele>238.0</ele><time>2026-04-25T08:12:29.936Z</time></trkpt><trkpt lat="43.8058717" lon="12.5826867"><ele>238.0</ele><time>2026-04-25T08:12:30.937Z</time></trkpt><trkpt lat="43.8058483" lon="12.5824883"><ele>238.0</ele><time>2026-04-25T08:12:31.936Z</time></trkpt><trkpt lat="43.8058167" lon="12.5823067"><ele>238.0</ele><time>2026-04-25T08:12:32.937Z</time></trkpt><trkpt lat="43.8057717" lon="12.582125"><ele>236.75</ele><time>2026-04-25T08:12:33.937Z</time></trkpt><trkpt lat="43.8057233" lon="12.5819467"><ele>235.5</ele><time>2026-04-25T08:12:34.936Z</time></trkpt><trkpt lat="43.8056733" lon="12.5817683"><ele>234.25</ele><time>2026-04-25T08:12:35.937Z</time></trkpt><trkpt lat="43.8056217" lon="12.5815867"><ele>233.0</ele><time>2026-04-25T08:12:36.937Z</time></trkpt><trkpt lat="43.8055633" lon="12.5814033"><ele>233.0</ele><time>2026-04-25T08:12:37.937Z</time></trkpt><trkpt lat="43.8055117" lon="12.5812217"><ele>233.0</ele><time>2026-04-25T08:12:38.937Z</time></trkpt><trkpt lat="43.8054683" lon="12.58104"><ele>233.0</ele><time>2026-04-25T08:12:39.937Z</time></trkpt><trkpt lat="43.805435" lon="12.5808517"><ele>233.0</ele><time>2026-04-25T08:12:40.936Z</time></trkpt><trkpt lat="43.8054183" lon="12.5806617"><ele>232.0</ele><time>2026-04-25T08:12:41.936Z</time></trkpt><trkpt lat="43.8054233" lon="12.5804733"><ele>231.0</ele><time>2026-04-25T08:12:42.937Z</time></trkpt><trkpt lat="43.805445" lon="12.5802983"><ele>230.0</ele><time>2026-04-25T08:12:43.937Z</time></trkpt><trkpt lat="43.8054667" lon="12.5801483"><ele>229.0</ele><time>2026-04-25T08:12:44.938Z</time></trkpt><trkpt lat="43.8054783" lon="12.5800167"><ele>228.79999999999998</ele><time>2026-04-25T08:12:45.938Z</time></trkpt><trkpt lat="43.8054667" lon="12.5799033"><ele>228.59999999999997</ele><time>2026-04-25T08:12:46.938Z</time></trkpt><trkpt lat="43.8054333" lon="12.5797917"><ele>228.4</ele><time>2026-04-25T08:12:47.938Z</time></trkpt><trkpt lat="43.8053783" lon="12.5796683"><ele>228.2</ele><time>2026-04-25T08:12:48.938Z</time></trkpt><trkpt lat="43.805305" lon="12.57954"><ele>228.0</ele><time>2026-04-25T08:12:49.938Z</time></trkpt><trkpt lat="43.805225" lon="12.5794083"><ele>229.5</ele><time>2026-04-25T08:12:50.937Z</time></trkpt><trkpt lat="43.805155" lon="12.5792683"><ele>231.0</ele><time>2026-04-25T08:12:51.938Z</time></trkpt><trkpt lat="43.8051033" lon="12.579105"><ele>232.5</ele><time>2026-04-25T08:12:52.938Z</time></trkpt><trkpt lat="43.8050733" lon="12.5789117"><ele>234.0</ele><time>2026-04-25T08:12:53.938Z</time></trkpt><trkpt lat="43.8050583" lon="12.5786933"><ele>232.66666666666669</ele><time>2026-04-25T08:12:54.938Z</time></trkpt><trkpt lat="43.8050483" lon="12.5784717"><ele>231.33333333333334</ele><time>2026-04-25T08:12:55.938Z</time></trkpt><trkpt lat="43.8050367" lon="12.5782483"><ele>230.0</ele><time>2026-04-25T08:12:56.937Z</time></trkpt><trkpt lat="43.805015" lon="12.5780183"><ele>229.66666666666669</ele><time>2026-04-25T08:12:57.938Z</time></trkpt><trkpt lat="43.804975" lon="12.5777767"><ele>229.33333333333331</ele><time>2026-04-25T08:12:58.938Z</time></trkpt><trkpt lat="43.80493" lon="12.5775383"><ele>229.0</ele><time>2026-04-25T08:12:59.938Z</time></trkpt><trkpt lat="43.8048783" lon="12.5773133"><ele>229.0</ele><time>2026-04-25T08:13:00.938Z</time></trkpt><trkpt lat="43.80482" lon="12.57709"><ele>229.0</ele><time>2026-04-25T08:13:01.938Z</time></trkpt><trkpt lat="43.8047483" lon="12.57686"><ele>229.0</ele><time>2026-04-25T08:13:02.938Z</time></trkpt><trkpt lat="43.804695" lon="12.5766183"><ele>229.66666666666666</ele><time>2026-04-25T08:13:03.938Z</time></trkpt><trkpt lat="43.8046417" lon="12.5763767"><ele>230.33333333333331</ele><time>2026-04-25T08:13:04.938Z</time></trkpt><trkpt lat="43.8045883" lon="12.5761433"><ele>231.0</ele><time>2026-04-25T08:13:05.937Z</time></trkpt><trkpt lat="43.8045383" lon="12.57592"><ele>233.25</ele><time>2026-04-25T08:13:06.938Z</time></trkpt><trkpt lat="43.80449" lon="12.57571"><ele>235.5</ele><time>2026-04-25T08:13:07.938Z</time></trkpt><trkpt lat="43.8044433" lon="12.57552"><ele>237.75</ele><time>2026-04-25T08:13:08.937Z</time></trkpt><trkpt lat="43.8044117" lon="12.5753417"><ele>240.0</ele><time>2026-04-25T08:13:09.938Z</time></trkpt><trkpt lat="43.804405" lon="12.5751633"><ele>240.5</ele><time>2026-04-25T08:13:10.938Z</time></trkpt><trkpt lat="43.80442" lon="12.57498"><ele>241.0</ele><time>2026-04-25T08:13:11.937Z</time></trkpt><trkpt lat="43.80444" lon="12.5747883"><ele>241.5</ele><time>2026-04-25T08:13:12.938Z</time></trkpt><trkpt lat="43.8044383" lon="12.574595"><ele>242.0</ele><time>2026-04-25T08:13:13.937Z</time></trkpt><trkpt lat="43.8044033" lon="12.5744017"><ele>242.0</ele><time>2026-04-25T08:13:14.938Z</time></trkpt><trkpt lat="43.80435" lon="12.5742133"><ele>242.0</ele><time>2026-04-25T08:13:15.938Z</time></trkpt><trkpt lat="43.8043133" lon="12.574025"><ele>242.0</ele><time>2026-04-25T08:13:16.938Z</time></trkpt><trkpt lat="43.80428" lon="12.5738267"><ele>242.0</ele><time>2026-04-25T08:13:17.938Z</time></trkpt><trkpt lat="43.8042617" lon="12.57362"><ele>242.33333333333334</ele><time>2026-04-25T08:13:18.938Z</time></trkpt><trkpt lat="43.8042433" lon="12.5734083"><ele>242.66666666666669</ele><time>2026-04-25T08:13:19.938Z</time></trkpt><trkpt lat="43.8042217" lon="12.5731983"><ele>243.0</ele><time>2026-04-25T08:13:20.937Z</time></trkpt><trkpt lat="43.8042117" lon="12.572995"><ele>243.25</ele><time>2026-04-25T08:13:21.937Z</time></trkpt><trkpt lat="43.804205" lon="12.5728017"><ele>243.5</ele><time>2026-04-25T08:13:22.938Z</time></trkpt><trkpt lat="43.8042033" lon="12.5726133"><ele>243.75</ele><time>2026-04-25T08:13:23.938Z</time></trkpt><trkpt lat="43.8041667" lon="12.572445"><ele>244.0</ele><time>2026-04-25T08:13:24.938Z</time></trkpt><trkpt lat="43.8041033" lon="12.5722883"><ele>244.0</ele><time>2026-04-25T08:13:25.938Z</time></trkpt><trkpt lat="43.8040267" lon="12.5721333"><ele>244.0</ele><time>2026-04-25T08:13:26.938Z</time></trkpt><trkpt lat="43.8039783" lon="12.571965"><ele>244.0</ele><time>2026-04-25T08:13:27.938Z</time></trkpt><trkpt lat="43.803915" lon="12.5718033"><ele>244.0</ele><time>2026-04-25T08:13:28.937Z</time></trkpt><trkpt lat="43.8038467" lon="12.5716433"><ele>245.0</ele><time>2026-04-25T08:13:29.938Z</time></trkpt><trkpt lat="43.803785" lon="12.57147"><ele>246.0</ele><time>2026-04-25T08:13:30.938Z</time></trkpt><trkpt lat="43.8037417" lon="12.5712833"><ele>247.0</ele><time>2026-04-25T08:13:31.938Z</time></trkpt><trkpt lat="43.803725" lon="12.5710967"><ele>248.0</ele><time>2026-04-25T08:13:32.938Z</time></trkpt><trkpt lat="43.8037417" lon="12.5709217"><ele>248.25</ele><time>2026-04-25T08:13:33.938Z</time></trkpt><trkpt lat="43.80379" lon="12.5707633"><ele>248.5</ele><time>2026-04-25T08:13:34.938Z</time></trkpt><trkpt lat="43.8038233" lon="12.5706083"><ele>248.75</ele><time>2026-04-25T08:13:35.937Z</time></trkpt><trkpt lat="43.8038" lon="12.5704717"><ele>249.0</ele><time>2026-04-25T08:13:36.938Z</time></trkpt><trkpt lat="43.803725" lon="12.5703583"><ele>249.5</ele><time>2026-04-25T08:13:37.938Z</time></trkpt><trkpt lat="43.80362" lon="12.5702667"><ele>250.0</ele><time>2026-04-25T08:13:38.937Z</time></trkpt><trkpt lat="43.803505" lon="12.57018"><ele>250.5</ele><time>2026-04-25T08:13:39.938Z</time></trkpt><trkpt lat="43.8033917" lon="12.5700717"><ele>251.0</ele><time>2026-04-25T08:13:40.938Z</time></trkpt><trkpt lat="43.8032817" lon="12.56994"><ele>255.66666666666669</ele><time>2026-04-25T08:13:41.938Z</time></trkpt><trkpt lat="43.80317" lon="12.5697983"><ele>260.3333333333333</ele><time>2026-04-25T08:13:42.938Z</time></trkpt><trkpt lat="43.8030467" lon="12.5696617"><ele>265.0</ele><time>2026-04-25T08:13:43.937Z</time></trkpt><trkpt lat="43.8029217" lon="12.5695267"><ele>266.75</ele><time>2026-04-25T08:13:44.937Z</time></trkpt><trkpt lat="43.802795" lon="12.5693917"><ele>268.5</ele><time>2026-04-25T08:13:45.938Z</time></trkpt><trkpt lat="43.8026833" lon="12.569265"><ele>270.25</ele><time>2026-04-25T08:13:46.937Z</time></trkpt><trkpt lat="43.80258" lon="12.5691417"><ele>272.0</ele><time>2026-04-25T08:13:47.938Z</time></trkpt><trkpt lat="43.8025033" lon="12.5689833"><ele>272.33333333333337</ele><time>2026-04-25T08:13:48.938Z</time></trkpt><trkpt lat="43.8024267" lon="12.5688083"><ele>272.6666666666667</ele><time>2026-04-25T08:13:49.938Z</time></trkpt><trkpt lat="43.80235" lon="12.568625"><ele>273.0</ele><time>2026-04-25T08:13:50.938Z</time></trkpt><trkpt lat="43.8022683" lon="12.56844"><ele>273.5</ele><time>2026-04-25T08:13:51.937Z</time></trkpt><trkpt lat="43.80218" lon="12.568265"><ele>274.0</ele><time>2026-04-25T08:13:52.938Z</time></trkpt><trkpt lat="43.802095" lon="12.5681033"><ele>274.5</ele><time>2026-04-25T08:13:53.938Z</time></trkpt><trkpt lat="43.80202" lon="12.5679483"><ele>275.0</ele><time>2026-04-25T08:13:54.937Z</time></trkpt><trkpt lat="43.8019633" lon="12.567785"><ele>275.0</ele><time>2026-04-25T08:13:55.938Z</time></trkpt><trkpt lat="43.80192" lon="12.56761"><ele>275.0</ele><time>2026-04-25T08:13:56.938Z</time></trkpt><trkpt lat="43.801875" lon="12.5674317"><ele>275.0</ele><time>2026-04-25T08:13:57.937Z</time></trkpt><trkpt lat="43.8018083" lon="12.5672617"><ele>275.0</ele><time>2026-04-25T08:13:58.938Z</time></trkpt><trkpt lat="43.8017217" lon="12.5671167"><ele>277.25</ele><time>2026-04-25T08:13:59.938Z</time></trkpt><trkpt lat="43.8016183" lon="12.5669983"><ele>279.5</ele><time>2026-04-25T08:14:00.938Z</time></trkpt><trkpt lat="43.801515" lon="12.566875"><ele>281.75</ele><time>2026-04-25T08:14:01.938Z</time></trkpt><trkpt lat="43.80141" lon="12.56673"><ele>284.0</ele><time>2026-04-25T08:14:02.937Z</time></trkpt><trkpt lat="43.8013117" lon="12.5665717"><ele>284.0</ele><time>2026-04-25T08:14:03.938Z</time></trkpt><trkpt lat="43.8012133" lon="12.5664167"><ele>284.0</ele><time>2026-04-25T08:14:04.938Z</time></trkpt><trkpt lat="43.8011067" lon="12.5662783"><ele>284.0</ele><time>2026-04-25T08:14:05.938Z</time></trkpt><trkpt lat="43.800985" lon="12.5661733"><ele>284.0</ele><time>2026-04-25T08:14:06.937Z</time></trkpt><trkpt lat="43.8008417" lon="12.5661167"><ele>281.33333333333337</ele><time>2026-04-25T08:14:07.937Z</time></trkpt><trkpt lat="43.80069" lon="12.566105"><ele>278.6666666666667</ele><time>2026-04-25T08:14:08.937Z</time></trkpt><trkpt lat="43.8005317" lon="12.5661383"><ele>276.0</ele><time>2026-04-25T08:14:09.938Z</time></trkpt><trkpt lat="43.800375" lon="12.5661933"><ele>276.0</ele><time>2026-04-25T08:14:10.938Z</time></trkpt><trkpt lat="43.800225" lon="12.5662633"><ele>276.0</ele><time>2026-04-25T08:14:11.938Z</time></trkpt><trkpt lat="43.8000983" lon="12.5663333"><ele>276.0</ele><time>2026-04-25T08:14:12.938Z</time></trkpt><trkpt lat="43.8000033" lon="12.5663633"><ele>276.0</ele><time>2026-04-25T08:14:13.937Z</time></trkpt><trkpt lat="43.7999367" lon="12.5663333"><ele>278.2</ele><time>2026-04-25T08:14:14.938Z</time></trkpt><trkpt lat="43.7998867" lon="12.5661733"><ele>280.40000000000003</ele><time>2026-04-25T08:14:16.937Z</time></trkpt><trkpt lat="43.7999033" lon="12.56607"><ele>282.6</ele><time>2026-04-25T08:14:17.938Z</time></trkpt><trkpt lat="43.7999333" lon="12.5659533"><ele>284.8</ele><time>2026-04-25T08:14:18.938Z</time></trkpt><trkpt lat="43.7999617" lon="12.56582"><ele>287.0</ele><time>2026-04-25T08:14:19.938Z</time></trkpt><trkpt lat="43.799975" lon="12.5656767"><ele>287.0</ele><time>2026-04-25T08:14:20.938Z</time></trkpt><trkpt lat="43.7999617" lon="12.5655317"><ele>287.0</ele><time>2026-04-25T08:14:21.938Z</time></trkpt><trkpt lat="43.79992" lon="12.5654017"><ele>287.0</ele><time>2026-04-25T08:14:22.938Z</time></trkpt><trkpt lat="43.7998533" lon="12.5652933"><ele>287.0</ele><time>2026-04-25T08:14:23.937Z</time></trkpt><trkpt lat="43.799765" lon="12.5652"><ele>287.0</ele><time>2026-04-25T08:14:24.938Z</time></trkpt><trkpt lat="43.7996583" lon="12.56512"><ele>287.0</ele><time>2026-04-25T08:14:25.938Z</time></trkpt><trkpt lat="43.7995483" lon="12.5650567"><ele>287.0</ele><time>2026-04-25T08:14:26.938Z</time></trkpt><trkpt lat="43.7994383" lon="12.5650217"><ele>287.0</ele><time>2026-04-25T08:14:27.936Z</time></trkpt><trkpt lat="43.799325" lon="12.5650183"><ele>287.0</ele><time>2026-04-25T08:14:28.937Z</time></trkpt><trkpt lat="43.7992117" lon="12.5650483"><ele>289.75</ele><time>2026-04-25T08:14:29.936Z</time></trkpt><trkpt lat="43.7991067" lon="12.56511"><ele>292.5</ele><time>2026-04-25T08:14:30.937Z</time></trkpt><trkpt lat="43.7990133" lon="12.5652067"><ele>295.25</ele><time>2026-04-25T08:14:31.936Z</time></trkpt><trkpt lat="43.79893" lon="12.56532"><ele>298.0</ele><time>2026-04-25T08:14:32.937Z</time></trkpt><trkpt lat="43.7988467" lon="12.5654383"><ele>298.0</ele><time>2026-04-25T08:14:33.937Z</time></trkpt><trkpt lat="43.7987617" lon="12.5655567"><ele>298.0</ele><time>2026-04-25T08:14:34.936Z</time></trkpt><trkpt lat="43.7986683" lon="12.5656683"><ele>298.0</ele><time>2026-04-25T08:14:35.937Z</time></trkpt><trkpt lat="43.798575" lon="12.5657667"><ele>298.0</ele><time>2026-04-25T08:14:36.936Z</time></trkpt><trkpt lat="43.7984783" lon="12.5658317"><ele>299.6</ele><time>2026-04-25T08:14:37.936Z</time></trkpt><trkpt lat="43.7983783" lon="12.5658533"><ele>301.20000000000005</ele><time>2026-04-25T08:14:38.937Z</time></trkpt><trkpt lat="43.7982783" lon="12.5658233"><ele>302.8</ele><time>2026-04-25T08:14:39.937Z</time></trkpt><trkpt lat="43.7981767" lon="12.5657517"><ele>304.40000000000003</ele><time>2026-04-25T08:14:40.937Z</time></trkpt><trkpt lat="43.798075" lon="12.565655"><ele>306.0</ele><time>2026-04-25T08:14:41.937Z</time></trkpt><trkpt lat="43.7979767" lon="12.5655483"><ele>306.0</ele><time>2026-04-25T08:14:42.937Z</time></trkpt><trkpt lat="43.7978817" lon="12.5654333"><ele>306.0</ele><time>2026-04-25T08:14:43.937Z</time></trkpt><trkpt lat="43.7977867" lon="12.5652967"><ele>306.0</ele><time>2026-04-25T08:14:44.937Z</time></trkpt><trkpt lat="43.7976967" lon="12.565125"><ele>306.0</ele><time>2026-04-25T08:14:45.937Z</time></trkpt><trkpt lat="43.79762" lon="12.5649333"><ele>306.6666666666667</ele><time>2026-04-25T08:14:46.937Z</time></trkpt><trkpt lat="43.7975533" lon="12.5647317"><ele>307.33333333333337</ele><time>2026-04-25T08:14:47.936Z</time></trkpt><trkpt lat="43.7974917" lon="12.5645333"><ele>308.0</ele><time>2026-04-25T08:14:48.937Z</time></trkpt><trkpt lat="43.7974333" lon="12.5643467"><ele>308.0</ele><time>2026-04-25T08:14:49.937Z</time></trkpt><trkpt lat="43.7973867" lon="12.5641717"><ele>308.0</ele><time>2026-04-25T08:14:50.937Z</time></trkpt><trkpt lat="43.7973517" lon="12.5640017"><ele>308.0</ele><time>2026-04-25T08:14:51.936Z</time></trkpt><trkpt lat="43.79734" lon="12.56384"><ele>308.0</ele><time>2026-04-25T08:14:52.936Z</time></trkpt><trkpt lat="43.7973617" lon="12.5636883"><ele>308.0</ele><time>2026-04-25T08:14:53.937Z</time></trkpt><trkpt lat="43.797415" lon="12.56354"><ele>308.0</ele><time>2026-04-25T08:14:54.937Z</time></trkpt><trkpt lat="43.7974967" lon="12.56339"><ele>308.0</ele><time>2026-04-25T08:14:55.937Z</time></trkpt><trkpt lat="43.7975717" lon="12.5632233"><ele>308.0</ele><time>2026-04-25T08:14:56.937Z</time></trkpt><trkpt lat="43.7976383" lon="12.5630483"><ele>308.25</ele><time>2026-04-25T08:14:57.937Z</time></trkpt><trkpt lat="43.7976883" lon="12.562865"><ele>308.5</ele><time>2026-04-25T08:14:58.937Z</time></trkpt><trkpt lat="43.7977333" lon="12.562685"><ele>308.75</ele><time>2026-04-25T08:14:59.937Z</time></trkpt><trkpt lat="43.7977833" lon="12.5625183"><ele>309.0</ele><time>2026-04-25T08:15:00.937Z</time></trkpt><trkpt lat="43.7978317" lon="12.5623583"><ele>307.25</ele><time>2026-04-25T08:15:01.937Z</time></trkpt><trkpt lat="43.79788" lon="12.5622083"><ele>305.5</ele><time>2026-04-25T08:15:02.937Z</time></trkpt><trkpt lat="43.7979333" lon="12.5620683"><ele>303.75</ele><time>2026-04-25T08:15:03.937Z</time></trkpt><trkpt lat="43.7979867" lon="12.56193"><ele>302.0</ele><time>2026-04-25T08:15:04.936Z</time></trkpt><trkpt lat="43.7980367" lon="12.5617867"><ele>301.25</ele><time>2026-04-25T08:15:05.937Z</time></trkpt><trkpt lat="43.7980833" lon="12.5616383"><ele>300.5</ele><time>2026-04-25T08:15:06.936Z</time></trkpt><trkpt lat="43.7980967" lon="12.5614717"><ele>299.75</ele><time>2026-04-25T08:15:07.937Z</time></trkpt><trkpt lat="43.79808" lon="12.561305"><ele>299.0</ele><time>2026-04-25T08:15:08.937Z</time></trkpt><trkpt lat="43.7980383" lon="12.56115"><ele>298.25</ele><time>2026-04-25T08:15:09.937Z</time></trkpt><trkpt lat="43.7979667" lon="12.5610033"><ele>297.5</ele><time>2026-04-25T08:15:10.937Z</time></trkpt><trkpt lat="43.7978933" lon="12.5608617"><ele>296.75</ele><time>2026-04-25T08:15:11.937Z</time></trkpt><trkpt lat="43.7978333" lon="12.5607167"><ele>296.0</ele><time>2026-04-25T08:15:12.937Z</time></trkpt><trkpt lat="43.7977783" lon="12.5605767"><ele>296.0</ele><time>2026-04-25T08:15:13.937Z</time></trkpt><trkpt lat="43.79774" lon="12.560435"><ele>296.0</ele><time>2026-04-25T08:15:14.937Z</time></trkpt><trkpt lat="43.79773" lon="12.5602833"><ele>296.0</ele><time>2026-04-25T08:15:15.937Z</time></trkpt><trkpt lat="43.79774" lon="12.5601317"><ele>296.0</ele><time>2026-04-25T08:15:16.937Z</time></trkpt><trkpt lat="43.79776" lon="12.5599783"><ele>296.0</ele><time>2026-04-25T08:15:17.937Z</time></trkpt><trkpt lat="43.79777" lon="12.5598383"><ele>296.5</ele><time>2026-04-25T08:15:18.937Z</time></trkpt><trkpt lat="43.79778" lon="12.5597183"><ele>297.0</ele><time>2026-04-25T08:15:19.937Z</time></trkpt><trkpt lat="43.7977883" lon="12.5596067"><ele>297.5</ele><time>2026-04-25T08:15:20.936Z</time></trkpt><trkpt lat="43.7977867" lon="12.5594983"><ele>298.0</ele><time>2026-04-25T08:15:21.937Z</time></trkpt><trkpt lat="43.797765" lon="12.5593933"><ele>298.5</ele><time>2026-04-25T08:15:22.937Z</time></trkpt><trkpt lat="43.7977317" lon="12.5592933"><ele>299.0</ele><time>2026-04-25T08:15:23.937Z</time></trkpt><trkpt lat="43.7976817" lon="12.5592017"><ele>303.4</ele><time>2026-04-25T08:15:24.937Z</time></trkpt><trkpt lat="43.79763" lon="12.559105"><ele>307.79999999999995</ele><time>2026-04-25T08:15:25.936Z</time></trkpt><trkpt lat="43.79757" lon="12.55901"><ele>312.20000000000005</ele><time>2026-04-25T08:15:26.937Z</time></trkpt><trkpt lat="43.7975017" lon="12.5589167"><ele>316.6</ele><time>2026-04-25T08:15:27.937Z</time></trkpt><trkpt lat="43.7974374" lon="12.5588199"><ele>321.0</ele><time>2026-04-25T08:15:28.937Z</time></trkpt><trkpt lat="43.7973935" lon="12.5587046"><ele>321.6</ele><time>2026-04-25T08:15:29.937Z</time></trkpt><trkpt lat="43.7973714" lon="12.5585758"><ele>322.20000000000005</ele><time>2026-04-25T08:15:30.937Z</time></trkpt><trkpt lat="43.7973634" lon="12.5584391"><ele>322.79999999999995</ele><time>2026-04-25T08:15:31.937Z</time></trkpt><trkpt lat="43.7973631" lon="12.5582968"><ele>323.4</ele><time>2026-04-25T08:15:32.937Z</time></trkpt><trkpt lat="43.7973627" lon="12.5581501"><ele>324.0</ele><time>2026-04-25T08:15:33.937Z</time></trkpt><trkpt lat="43.7973584" lon="12.5580028"><ele>324.75</ele><time>2026-04-25T08:15:34.937Z</time></trkpt><trkpt lat="43.7973395" lon="12.5578518"><ele>325.5</ele><time>2026-04-25T08:15:35.937Z</time></trkpt><trkpt lat="43.7973054" lon="12.5576964"><ele>326.25</ele><time>2026-04-25T08:15:36.937Z</time></trkpt><trkpt lat="43.7972558" lon="12.5575362"><ele>327.0</ele><time>2026-04-25T08:15:37.937Z</time></trkpt><trkpt lat="43.797202" lon="12.5573729"><ele>327.0</ele><time>2026-04-25T08:15:38.937Z</time></trkpt><trkpt lat="43.7971426" lon="12.5572034"><ele>327.0</ele><time>2026-04-25T08:15:39.937Z</time></trkpt><trkpt lat="43.7970825" lon="12.5570334"><ele>327.0</ele><time>2026-04-25T08:15:40.937Z</time></trkpt><trkpt lat="43.7970121" lon="12.55688"><ele>327.0</ele><time>2026-04-25T08:15:41.937Z</time></trkpt><trkpt lat="43.7969301" lon="12.5567527"><ele>326.8</ele><time>2026-04-25T08:15:42.937Z</time></trkpt><trkpt lat="43.7968418" lon="12.5566542"><ele>326.6</ele><time>2026-04-25T08:15:43.936Z</time></trkpt><trkpt lat="43.7967521" lon="12.5565689"><ele>326.40000000000003</ele><time>2026-04-25T08:15:44.937Z</time></trkpt><trkpt lat="43.796663" lon="12.5564816"><ele>326.20000000000005</ele><time>2026-04-25T08:15:45.937Z</time></trkpt><trkpt lat="43.7965797" lon="12.556396"><ele>326.0</ele><time>2026-04-25T08:15:46.937Z</time></trkpt><trkpt lat="43.7964988" lon="12.5563093"><ele>327.1666666666667</ele><time>2026-04-25T08:15:47.937Z</time></trkpt><trkpt lat="43.7964261" lon="12.5562187"><ele>328.33333333333337</ele><time>2026-04-25T08:15:48.937Z</time></trkpt><trkpt lat="43.7963609" lon="12.5561335"><ele>329.5</ele><time>2026-04-25T08:15:49.937Z</time></trkpt><trkpt lat="43.7962988" lon="12.5560461"><ele>330.6666666666667</ele><time>2026-04-25T08:15:50.936Z</time></trkpt><trkpt lat="43.7962521" lon="12.5559505"><ele>331.8333333333333</ele><time>2026-04-25T08:15:51.936Z</time></trkpt><trkpt lat="43.7962295" lon="12.5558456"><ele>333.0</ele><time>2026-04-25T08:15:52.936Z</time></trkpt><trkpt lat="43.7962273" lon="12.5557251"><ele>333.0</ele><time>2026-04-25T08:15:53.937Z</time></trkpt><trkpt lat="43.7962402" lon="12.5555859"><ele>333.0</ele><time>2026-04-25T08:15:54.936Z</time></trkpt><trkpt lat="43.7962625" lon="12.5554244"><ele>333.0</ele><time>2026-04-25T08:15:55.937Z</time></trkpt><trkpt lat="43.7962913" lon="12.5552348"><ele>333.0</ele><time>2026-04-25T08:15:56.937Z</time></trkpt><trkpt lat="43.796324" lon="12.5550162"><ele>331.6666666666667</ele><time>2026-04-25T08:15:57.937Z</time></trkpt><trkpt lat="43.7963688" lon="12.5547797"><ele>330.33333333333337</ele><time>2026-04-25T08:15:58.937Z</time></trkpt><trkpt lat="43.7964214" lon="12.5545415"><ele>329.0</ele><time>2026-04-25T08:15:59.936Z</time></trkpt><trkpt lat="43.7964715" lon="12.55432"><ele>331.25</ele><time>2026-04-25T08:16:00.937Z</time></trkpt><trkpt lat="43.7965126" lon="12.5541136"><ele>333.5</ele><time>2026-04-25T08:16:01.937Z</time></trkpt><trkpt lat="43.7965344" lon="12.5539191"><ele>335.75</ele><time>2026-04-25T08:16:02.937Z</time></trkpt><trkpt lat="43.7965314" lon="12.5537294"><ele>338.0</ele><time>2026-04-25T08:16:03.936Z</time></trkpt><trkpt lat="43.7965123" lon="12.5535387"><ele>339.0</ele><time>2026-04-25T08:16:04.937Z</time></trkpt><trkpt lat="43.7964936" lon="12.5533461"><ele>340.0</ele><time>2026-04-25T08:16:05.937Z</time></trkpt><trkpt lat="43.7964889" lon="12.5531513"><ele>341.0</ele><time>2026-04-25T08:16:06.936Z</time></trkpt><trkpt lat="43.7965019" lon="12.5529547"><ele>342.0</ele><time>2026-04-25T08:16:07.937Z</time></trkpt><trkpt lat="43.7965374" lon="12.5527536"><ele>343.0</ele><time>2026-04-25T08:16:08.937Z</time></trkpt><trkpt lat="43.7965861" lon="12.5525472"><ele>344.0</ele><time>2026-04-25T08:16:09.936Z</time></trkpt><trkpt lat="43.7966406" lon="12.552333"><ele>345.0</ele><time>2026-04-25T08:16:10.936Z</time></trkpt><trkpt lat="43.7966954" lon="12.5521159"><ele>345.0</ele><time>2026-04-25T08:16:11.937Z</time></trkpt><trkpt lat="43.7967445" lon="12.5518973"><ele>345.0</ele><time>2026-04-25T08:16:12.937Z</time></trkpt><trkpt lat="43.79679" lon="12.5516799"><ele>345.0</ele><time>2026-04-25T08:16:13.937Z</time></trkpt><trkpt lat="43.7968452" lon="12.5514645"><ele>344.6666666666667</ele><time>2026-04-25T08:16:14.937Z</time></trkpt><trkpt lat="43.7969055" lon="12.5512511"><ele>344.33333333333337</ele><time>2026-04-25T08:16:15.937Z</time></trkpt><trkpt lat="43.7969653" lon="12.5510374"><ele>344.0</ele><time>2026-04-25T08:16:16.937Z</time></trkpt><trkpt lat="43.7970101" lon="12.5508153"><ele>344.0</ele><time>2026-04-25T08:16:17.937Z</time></trkpt><trkpt lat="43.7970335" lon="12.550586"><ele>344.0</ele><time>2026-04-25T08:16:18.937Z</time></trkpt><trkpt lat="43.797042" lon="12.5503625"><ele>344.0</ele><time>2026-04-25T08:16:19.937Z</time></trkpt><trkpt lat="43.7970431" lon="12.5501468"><ele>346.0</ele><time>2026-04-25T08:16:20.937Z</time></trkpt><trkpt lat="43.7970351" lon="12.5499383"><ele>348.0</ele><time>2026-04-25T08:16:21.936Z</time></trkpt><trkpt lat="43.7970275" lon="12.5497491"><ele>350.0</ele><time>2026-04-25T08:16:22.937Z</time></trkpt><trkpt lat="43.7970347" lon="12.5495833"><ele>352.0</ele><time>2026-04-25T08:16:23.937Z</time></trkpt><trkpt lat="43.7970646" lon="12.5494453"><ele>352.0</ele><time>2026-04-25T08:16:24.937Z</time></trkpt><trkpt lat="43.797109" lon="12.5493285"><ele>352.0</ele><time>2026-04-25T08:16:25.937Z</time></trkpt><trkpt lat="43.7971792" lon="12.5492343"><ele>352.0</ele><time>2026-04-25T08:16:26.937Z</time></trkpt><trkpt lat="43.797278" lon="12.5491589"><ele>352.0</ele><time>2026-04-25T08:16:27.937Z</time></trkpt><trkpt lat="43.7973978" lon="12.5490954"><ele>352.0</ele><time>2026-04-25T08:16:28.937Z</time></trkpt><trkpt lat="43.7975178" lon="12.5490081"><ele>352.0</ele><time>2026-04-25T08:16:29.937Z</time></trkpt><trkpt lat="43.7976264" lon="12.5488846"><ele>352.0</ele><time>2026-04-25T08:16:30.937Z</time></trkpt><trkpt lat="43.7977251" lon="12.5487448"><ele>352.0</ele><time>2026-04-25T08:16:31.937Z</time></trkpt><trkpt lat="43.7978061" lon="12.5485887"><ele>352.0</ele><time>2026-04-25T08:16:32.936Z</time></trkpt><trkpt lat="43.797879" lon="12.5484236"><ele>347.0</ele><time>2026-04-25T08:16:33.937Z</time></trkpt><trkpt lat="43.7979471" lon="12.5482414"><ele>342.0</ele><time>2026-04-25T08:16:34.937Z</time></trkpt><trkpt lat="43.7980167" lon="12.548045"><ele>337.0</ele><time>2026-04-25T08:16:35.937Z</time></trkpt><trkpt lat="43.79809" lon="12.5478567"><ele>336.66666666666663</ele><time>2026-04-25T08:16:36.937Z</time></trkpt><trkpt lat="43.7981567" lon="12.5476633"><ele>336.3333333333333</ele><time>2026-04-25T08:16:37.937Z</time></trkpt><trkpt lat="43.7982233" lon="12.5474667"><ele>336.0</ele><time>2026-04-25T08:16:38.936Z</time></trkpt><trkpt lat="43.798275" lon="12.5472533"><ele>336.3333333333333</ele><time>2026-04-25T08:16:39.937Z</time></trkpt><trkpt lat="43.7983067" lon="12.5470267"><ele>336.66666666666663</ele><time>2026-04-25T08:16:40.937Z</time></trkpt><trkpt lat="43.7983217" lon="12.5467967"><ele>337.0</ele><time>2026-04-25T08:16:41.937Z</time></trkpt><trkpt lat="43.79832" lon="12.5465733"><ele>337.0</ele><time>2026-04-25T08:16:42.937Z</time></trkpt><trkpt lat="43.7982983" lon="12.5463583"><ele>337.0</ele><time>2026-04-25T08:16:43.937Z</time></trkpt><trkpt lat="43.7982583" lon="12.5461533"><ele>337.0</ele><time>2026-04-25T08:16:44.937Z</time></trkpt><trkpt lat="43.79822" lon="12.5459567"><ele>338.75</ele><time>2026-04-25T08:16:45.936Z</time></trkpt><trkpt lat="43.7981967" lon="12.5457633"><ele>340.5</ele><time>2026-04-25T08:16:46.937Z</time></trkpt><trkpt lat="43.7981933" lon="12.54556"><ele>342.25</ele><time>2026-04-25T08:16:47.937Z</time></trkpt><trkpt lat="43.7981967" lon="12.5453517"><ele>344.0</ele><time>2026-04-25T08:16:48.937Z</time></trkpt><trkpt lat="43.7981867" lon="12.545145"><ele>345.75</ele><time>2026-04-25T08:16:49.937Z</time></trkpt><trkpt lat="43.798155" lon="12.5449467"><ele>347.5</ele><time>2026-04-25T08:16:50.937Z</time></trkpt><trkpt lat="43.798105" lon="12.5447517"><ele>349.25</ele><time>2026-04-25T08:16:51.936Z</time></trkpt><trkpt lat="43.798055" lon="12.544555"><ele>351.0</ele><time>2026-04-25T08:16:52.937Z</time></trkpt><trkpt lat="43.79802" lon="12.5443533"><ele>352.3333333333333</ele><time>2026-04-25T08:16:53.937Z</time></trkpt><trkpt lat="43.797995" lon="12.5441433"><ele>353.66666666666663</ele><time>2026-04-25T08:16:54.937Z</time></trkpt><trkpt lat="43.79798" lon="12.5439333"><ele>355.0</ele><time>2026-04-25T08:16:55.937Z</time></trkpt><trkpt lat="43.7979717" lon="12.5437267"><ele>352.66666666666663</ele><time>2026-04-25T08:16:56.937Z</time></trkpt><trkpt lat="43.7979533" lon="12.5435167"><ele>350.3333333333333</ele><time>2026-04-25T08:16:57.936Z</time></trkpt><trkpt lat="43.797945" lon="12.5433"><ele>348.0</ele><time>2026-04-25T08:16:58.937Z</time></trkpt><trkpt lat="43.7979467" lon="12.5430817"><ele>348.0</ele><time>2026-04-25T08:16:59.937Z</time></trkpt><trkpt lat="43.797945" lon="12.5428567"><ele>348.0</ele><time>2026-04-25T08:17:00.937Z</time></trkpt><trkpt lat="43.7979417" lon="12.5426317"><ele>348.0</ele><time>2026-04-25T08:17:01.937Z</time></trkpt><trkpt lat="43.7979333" lon="12.542405"><ele>348.0</ele><time>2026-04-25T08:17:02.936Z</time></trkpt><trkpt lat="43.79791" lon="12.5421867"><ele>348.0</ele><time>2026-04-25T08:17:03.937Z</time></trkpt><trkpt lat="43.7978617" lon="12.5419833"><ele>348.0</ele><time>2026-04-25T08:17:04.936Z</time></trkpt><trkpt lat="43.7977883" lon="12.5417967"><ele>348.5</ele><time>2026-04-25T08:17:05.937Z</time></trkpt><trkpt lat="43.7976933" lon="12.5416283"><ele>349.0</ele><time>2026-04-25T08:17:06.936Z</time></trkpt><trkpt lat="43.7976117" lon="12.5414583"><ele>349.5</ele><time>2026-04-25T08:17:07.937Z</time></trkpt><trkpt lat="43.7975467" lon="12.541275"><ele>350.0</ele><time>2026-04-25T08:17:08.937Z</time></trkpt><trkpt lat="43.7975067" lon="12.541075"><ele>354.0</ele><time>2026-04-25T08:17:09.937Z</time></trkpt><trkpt lat="43.79747" lon="12.5408683"><ele>358.0</ele><time>2026-04-25T08:17:10.937Z</time></trkpt><trkpt lat="43.7974367" lon="12.5406583"><ele>362.0</ele><time>2026-04-25T08:17:11.937Z</time></trkpt><trkpt lat="43.7974" lon="12.54045"><ele>363.6666666666667</ele><time>2026-04-25T08:17:12.937Z</time></trkpt><trkpt lat="43.79735" lon="12.54025"><ele>365.3333333333333</ele><time>2026-04-25T08:17:13.937Z</time></trkpt><trkpt lat="43.7972867" lon="12.5400567"><ele>367.0</ele><time>2026-04-25T08:17:14.937Z</time></trkpt><trkpt lat="43.7972033" lon="12.5398733"><ele>367.0</ele><time>2026-04-25T08:17:15.936Z</time></trkpt><trkpt lat="43.7971017" lon="12.5397083"><ele>367.0</ele><time>2026-04-25T08:17:16.937Z</time></trkpt><trkpt lat="43.7969883" lon="12.5395567"><ele>367.0</ele><time>2026-04-25T08:17:17.937Z</time></trkpt><trkpt lat="43.7968667" lon="12.5394267"><ele>368.5</ele><time>2026-04-25T08:17:18.937Z</time></trkpt><trkpt lat="43.7967483" lon="12.5393067"><ele>370.0</ele><time>2026-04-25T08:17:19.936Z</time></trkpt><trkpt lat="43.796635" lon="12.5391817"><ele>371.5</ele><time>2026-04-25T08:17:20.937Z</time></trkpt><trkpt lat="43.7965333" lon="12.5390383"><ele>373.0</ele><time>2026-04-25T08:17:21.937Z</time></trkpt><trkpt lat="43.7964383" lon="12.538885"><ele>373.0</ele><time>2026-04-25T08:17:22.937Z</time></trkpt><trkpt lat="43.7963433" lon="12.5387383"><ele>373.0</ele><time>2026-04-25T08:17:23.937Z</time></trkpt><trkpt lat="43.7962433" lon="12.5386133"><ele>373.0</ele><time>2026-04-25T08:17:24.937Z</time></trkpt><trkpt lat="43.7961233" lon="12.5385183"><ele>373.0</ele><time>2026-04-25T08:17:25.936Z</time></trkpt><trkpt lat="43.7959833" lon="12.5384467"><ele>373.0</ele><time>2026-04-25T08:17:26.937Z</time></trkpt><trkpt lat="43.7958283" lon="12.5384"><ele>373.0</ele><time>2026-04-25T08:17:27.937Z</time></trkpt><trkpt lat="43.7956733" lon="12.5383433"><ele>373.0</ele><time>2026-04-25T08:17:28.937Z</time></trkpt><trkpt lat="43.7955217" lon="12.5382767"><ele>373.0</ele><time>2026-04-25T08:17:29.937Z</time></trkpt><trkpt lat="43.7953767" lon="12.5382067"><ele>373.0</ele><time>2026-04-25T08:17:30.937Z</time></trkpt><trkpt lat="43.7952483" lon="12.5381417"><ele>373.0</ele><time>2026-04-25T08:17:31.936Z</time></trkpt><trkpt lat="43.7951383" lon="12.5380617"><ele>373.0</ele><time>2026-04-25T08:17:32.937Z</time></trkpt><trkpt lat="43.7950467" lon="12.53796"><ele>372.5</ele><time>2026-04-25T08:17:33.937Z</time></trkpt><trkpt lat="43.7949733" lon="12.537835"><ele>372.0</ele><time>2026-04-25T08:17:34.937Z</time></trkpt><trkpt lat="43.7949283" lon="12.5376783"><ele>371.5</ele><time>2026-04-25T08:17:35.937Z</time></trkpt><trkpt lat="43.7949033" lon="12.53749"><ele>371.0</ele><time>2026-04-25T08:17:36.937Z</time></trkpt><trkpt lat="43.7948783" lon="12.5372983"><ele>371.0</ele><time>2026-04-25T08:17:37.937Z</time></trkpt><trkpt lat="43.7948633" lon="12.5370917"><ele>371.0</ele><time>2026-04-25T08:17:38.937Z</time></trkpt><trkpt lat="43.7948417" lon="12.5368817"><ele>371.0</ele><time>2026-04-25T08:17:39.938Z</time></trkpt><trkpt lat="43.7948117" lon="12.53667"><ele>370.33333333333337</ele><time>2026-04-25T08:17:40.937Z</time></trkpt><trkpt lat="43.794785" lon="12.53646"><ele>369.6666666666667</ele><time>2026-04-25T08:17:41.938Z</time></trkpt><trkpt lat="43.79475" lon="12.5362583"><ele>369.0</ele><time>2026-04-25T08:17:42.937Z</time></trkpt><trkpt lat="43.7946983" lon="12.536065"><ele>367.75</ele><time>2026-04-25T08:17:43.937Z</time></trkpt><trkpt lat="43.7946233" lon="12.5358917"><ele>366.5</ele><time>2026-04-25T08:17:44.937Z</time></trkpt><trkpt lat="43.79453" lon="12.5357317"><ele>365.25</ele><time>2026-04-25T08:17:45.937Z</time></trkpt><trkpt lat="43.7944183" lon="12.53559"><ele>364.0</ele><time>2026-04-25T08:17:46.937Z</time></trkpt><trkpt lat="43.794295" lon="12.535465"><ele>363.3333333333333</ele><time>2026-04-25T08:17:47.938Z</time></trkpt><trkpt lat="43.7941633" lon="12.5353433"><ele>362.6666666666667</ele><time>2026-04-25T08:17:48.937Z</time></trkpt><trkpt lat="43.7940267" lon="12.5352317"><ele>362.0</ele><time>2026-04-25T08:17:49.938Z</time></trkpt><trkpt lat="43.793895" lon="12.5351233"><ele>362.0</ele><time>2026-04-25T08:17:50.937Z</time></trkpt><trkpt lat="43.7937567" lon="12.535015"><ele>362.0</ele><time>2026-04-25T08:17:51.938Z</time></trkpt><trkpt lat="43.79362" lon="12.5349067"><ele>362.0</ele><time>2026-04-25T08:17:52.938Z</time></trkpt><trkpt lat="43.7934867" lon="12.5348033"><ele>362.0</ele><time>2026-04-25T08:17:53.938Z</time></trkpt><trkpt lat="43.7933617" lon="12.5346967"><ele>362.0</ele><time>2026-04-25T08:17:54.938Z</time></trkpt><trkpt lat="43.793255" lon="12.5345917"><ele>362.0</ele><time>2026-04-25T08:17:55.938Z</time></trkpt><trkpt lat="43.793175" lon="12.53448"><ele>362.0</ele><time>2026-04-25T08:17:56.937Z</time></trkpt><trkpt lat="43.7931133" lon="12.5343367"><ele>363.0</ele><time>2026-04-25T08:17:57.938Z</time></trkpt><trkpt lat="43.79306" lon="12.53417"><ele>364.0</ele><time>2026-04-25T08:17:58.938Z</time></trkpt><trkpt lat="43.79299" lon="12.5340017"><ele>365.0</ele><time>2026-04-25T08:17:59.938Z</time></trkpt><trkpt lat="43.792895" lon="12.5338583"><ele>366.0</ele><time>2026-04-25T08:18:00.938Z</time></trkpt><trkpt lat="43.7927817" lon="12.53375"><ele>364.5</ele><time>2026-04-25T08:18:01.938Z</time></trkpt><trkpt lat="43.7926717" lon="12.5336383"><ele>363.0</ele><time>2026-04-25T08:18:02.937Z</time></trkpt><trkpt lat="43.7925567" lon="12.5335417"><ele>361.5</ele><time>2026-04-25T08:18:03.938Z</time></trkpt><trkpt lat="43.7924433" lon="12.5334517"><ele>360.0</ele><time>2026-04-25T08:18:04.938Z</time></trkpt><trkpt lat="43.79232" lon="12.5333717"><ele>360.0</ele><time>2026-04-25T08:18:05.938Z</time></trkpt><trkpt lat="43.7921867" lon="12.5333"><ele>360.0</ele><time>2026-04-25T08:18:06.938Z</time></trkpt><trkpt lat="43.79205" lon="12.5332333"><ele>360.0</ele><time>2026-04-25T08:18:07.938Z</time></trkpt><trkpt lat="43.79191" lon="12.5331783"><ele>360.0</ele><time>2026-04-25T08:18:08.937Z</time></trkpt><trkpt lat="43.791765" lon="12.5331733"><ele>359.25</ele><time>2026-04-25T08:18:09.938Z</time></trkpt><trkpt lat="43.7916267" lon="12.5331783"><ele>358.5</ele><time>2026-04-25T08:18:10.937Z</time></trkpt><trkpt lat="43.7914983" lon="12.533195"><ele>357.75</ele><time>2026-04-25T08:18:11.938Z</time></trkpt><trkpt lat="43.7913833" lon="12.5331633"><ele>357.0</ele><time>2026-04-25T08:18:12.938Z</time></trkpt><trkpt lat="43.7912833" lon="12.53309"><ele>357.0</ele><time>2026-04-25T08:18:13.937Z</time></trkpt><trkpt lat="43.7911967" lon="12.5329867"><ele>357.0</ele><time>2026-04-25T08:18:14.938Z</time></trkpt><trkpt lat="43.7911233" lon="12.5328483"><ele>357.0</ele><time>2026-04-25T08:18:15.938Z</time></trkpt><trkpt lat="43.7910517" lon="12.5326917"><ele>357.0</ele><time>2026-04-25T08:18:16.938Z</time></trkpt><trkpt lat="43.7909733" lon="12.5325333"><ele>357.5</ele><time>2026-04-25T08:18:17.938Z</time></trkpt><trkpt lat="43.790885" lon="12.53238"><ele>358.0</ele><time>2026-04-25T08:18:18.938Z</time></trkpt><trkpt lat="43.7907933" lon="12.5322167"><ele>358.5</ele><time>2026-04-25T08:18:19.938Z</time></trkpt><trkpt lat="43.7907017" lon="12.5320517"><ele>359.0</ele><time>2026-04-25T08:18:20.938Z</time></trkpt><trkpt lat="43.79061" lon="12.531895"><ele>360.75</ele><time>2026-04-25T08:18:21.938Z</time></trkpt><trkpt lat="43.7905133" lon="12.5317433"><ele>362.5</ele><time>2026-04-25T08:18:22.938Z</time></trkpt><trkpt lat="43.7904183" lon="12.5316033"><ele>364.25</ele><time>2026-04-25T08:18:23.938Z</time></trkpt><trkpt lat="43.7903283" lon="12.5314683"><ele>366.0</ele><time>2026-04-25T08:18:24.937Z</time></trkpt><trkpt lat="43.7902483" lon="12.5313383"><ele>364.8</ele><time>2026-04-25T08:18:25.938Z</time></trkpt><trkpt lat="43.790175" lon="12.531215"><ele>363.6</ele><time>2026-04-25T08:18:26.938Z</time></trkpt><trkpt lat="43.79011" lon="12.5311"><ele>362.4</ele><time>2026-04-25T08:18:27.938Z</time></trkpt><trkpt lat="43.7900517" lon="12.5309833"><ele>361.2</ele><time>2026-04-25T08:18:28.937Z</time></trkpt><trkpt lat="43.79" lon="12.530865"><ele>360.0</ele><time>2026-04-25T08:18:29.938Z</time></trkpt><trkpt lat="43.78995" lon="12.5307417"><ele>359.0</ele><time>2026-04-25T08:18:30.938Z</time></trkpt><trkpt lat="43.7898983" lon="12.530615"><ele>358.0</ele><time>2026-04-25T08:18:31.938Z</time></trkpt><trkpt lat="43.78984" lon="12.5304867"><ele>357.0</ele><time>2026-04-25T08:18:32.938Z</time></trkpt><trkpt lat="43.78978" lon="12.5303567"><ele>356.0</ele><time>2026-04-25T08:18:33.938Z</time></trkpt><trkpt lat="43.789715" lon="12.5302233"><ele>355.0</ele><time>2026-04-25T08:18:34.938Z</time></trkpt><trkpt lat="43.7896517" lon="12.5300817"><ele>356.0</ele><time>2026-04-25T08:18:35.938Z</time></trkpt><trkpt lat="43.789585" lon="12.529935"><ele>357.0</ele><time>2026-04-25T08:18:36.938Z</time></trkpt><trkpt lat="43.7895233" lon="12.5297933"><ele>358.0</ele><time>2026-04-25T08:18:37.938Z</time></trkpt><trkpt lat="43.7894583" lon="12.5296733"><ele>359.0</ele><time>2026-04-25T08:18:38.938Z</time></trkpt><trkpt lat="43.78938" lon="12.5296"><ele>360.0</ele><time>2026-04-25T08:18:39.938Z</time></trkpt><trkpt lat="43.7892883" lon="12.5295617"><ele>359.0</ele><time>2026-04-25T08:18:40.938Z</time></trkpt><trkpt lat="43.7891833" lon="12.5295417"><ele>358.0</ele><time>2026-04-25T08:18:41.938Z</time></trkpt><trkpt lat="43.7890667" lon="12.529525"><ele>357.0</ele><time>2026-04-25T08:18:42.937Z</time></trkpt><trkpt lat="43.7889433" lon="12.5295"><ele>356.0</ele><time>2026-04-25T08:18:43.937Z</time></trkpt><trkpt lat="43.788815" lon="12.5294717"><ele>356.0</ele><time>2026-04-25T08:18:44.938Z</time></trkpt><trkpt lat="43.78868" lon="12.5294483"><ele>356.0</ele><time>2026-04-25T08:18:45.938Z</time></trkpt><trkpt lat="43.7885417" lon="12.529435"><ele>356.0</ele><time>2026-04-25T08:18:46.938Z</time></trkpt><trkpt lat="43.7884083" lon="12.5294217"><ele>356.0</ele><time>2026-04-25T08:18:47.938Z</time></trkpt><trkpt lat="43.7882983" lon="12.5293867"><ele>359.5</ele><time>2026-04-25T08:18:48.938Z</time></trkpt><trkpt lat="43.788205" lon="12.5293183"><ele>363.0</ele><time>2026-04-25T08:18:49.937Z</time></trkpt><trkpt lat="43.78812" lon="12.5292217"><ele>366.5</ele><time>2026-04-25T08:18:50.938Z</time></trkpt><trkpt lat="43.7880333" lon="12.5291067"><ele>370.0</ele><time>2026-04-25T08:18:51.938Z</time></trkpt><trkpt lat="43.7879493" lon="12.5289845"><ele>370.0</ele><time>2026-04-25T08:18:52.938Z</time></trkpt><trkpt lat="43.7878654" lon="12.5288607"><ele>370.0</ele><time>2026-04-25T08:18:53.938Z</time></trkpt><trkpt lat="43.7877792" lon="12.5287367"><ele>370.0</ele><time>2026-04-25T08:18:54.938Z</time></trkpt><trkpt lat="43.7876912" lon="12.5286077"><ele>370.0</ele><time>2026-04-25T08:18:55.938Z</time></trkpt><trkpt lat="43.7876123" lon="12.5284645"><ele>372.75</ele><time>2026-04-25T08:18:56.937Z</time></trkpt><trkpt lat="43.7875485" lon="12.5283034"><ele>375.5</ele><time>2026-04-25T08:18:57.937Z</time></trkpt><trkpt lat="43.7875077" lon="12.5281325"><ele>378.25</ele><time>2026-04-25T08:18:58.937Z</time></trkpt><trkpt lat="43.7874795" lon="12.5279521"><ele>381.0</ele><time>2026-04-25T08:18:59.938Z</time></trkpt><trkpt lat="43.7874429" lon="12.5277787"><ele>382.75</ele><time>2026-04-25T08:19:00.937Z</time></trkpt><trkpt lat="43.7873879" lon="12.5276166"><ele>384.5</ele><time>2026-04-25T08:19:01.938Z</time></trkpt><trkpt lat="43.7873119" lon="12.5274651"><ele>386.25</ele><time>2026-04-25T08:19:02.938Z</time></trkpt><trkpt lat="43.7872254" lon="12.5273254"><ele>388.0</ele><time>2026-04-25T08:19:03.937Z</time></trkpt><trkpt lat="43.7871341" lon="12.5271883"><ele>385.75</ele><time>2026-04-25T08:19:04.938Z</time></trkpt><trkpt lat="43.7870432" lon="12.5270517"><ele>383.5</ele><time>2026-04-25T08:19:05.938Z</time></trkpt><trkpt lat="43.7869542" lon="12.5269227"><ele>381.25</ele><time>2026-04-25T08:19:06.938Z</time></trkpt><trkpt lat="43.7868674" lon="12.526807"><ele>379.0</ele><time>2026-04-25T08:19:07.938Z</time></trkpt><trkpt lat="43.7867805" lon="12.5267104"><ele>384.75</ele><time>2026-04-25T08:19:08.937Z</time></trkpt><trkpt lat="43.7866767" lon="12.5266497"><ele>390.5</ele><time>2026-04-25T08:19:09.938Z</time></trkpt><trkpt lat="43.7865581" lon="12.5266272"><ele>396.25</ele><time>2026-04-25T08:19:10.938Z</time></trkpt><trkpt lat="43.7864351" lon="12.5266325"><ele>402.0</ele><time>2026-04-25T08:19:11.938Z</time></trkpt><trkpt lat="43.7863157" lon="12.5266478"><ele>402.0</ele><time>2026-04-25T08:19:12.937Z</time></trkpt><trkpt lat="43.7862087" lon="12.526689"><ele>402.0</ele><time>2026-04-25T08:19:13.937Z</time></trkpt><trkpt lat="43.7861151" lon="12.5267554"><ele>402.0</ele><time>2026-04-25T08:19:14.937Z</time></trkpt><trkpt lat="43.7860404" lon="12.5268548"><ele>402.0</ele><time>2026-04-25T08:19:15.937Z</time></trkpt><trkpt lat="43.7859713" lon="12.5269812"><ele>402.0</ele><time>2026-04-25T08:19:16.937Z</time></trkpt><trkpt lat="43.7859035" lon="12.527121"><ele>405.5</ele><time>2026-04-25T08:19:17.938Z</time></trkpt><trkpt lat="43.7858327" lon="12.5272655"><ele>409.0</ele><time>2026-04-25T08:19:18.938Z</time></trkpt><trkpt lat="43.7857602" lon="12.5274192"><ele>412.5</ele><time>2026-04-25T08:19:19.938Z</time></trkpt><trkpt lat="43.7856812" lon="12.5275844"><ele>416.0</ele><time>2026-04-25T08:19:20.937Z</time></trkpt><trkpt lat="43.7855933" lon="12.52775"><ele>413.75</ele><time>2026-04-25T08:19:21.938Z</time></trkpt><trkpt lat="43.7854994" lon="12.5278946"><ele>411.5</ele><time>2026-04-25T08:19:22.938Z</time></trkpt><trkpt lat="43.7854009" lon="12.5279926"><ele>409.25</ele><time>2026-04-25T08:19:23.937Z</time></trkpt><trkpt lat="43.7852969" lon="12.528029"><ele>407.0</ele><time>2026-04-25T08:19:24.937Z</time></trkpt><trkpt lat="43.7851876" lon="12.5280275"><ele>409.75</ele><time>2026-04-25T08:19:25.937Z</time></trkpt><trkpt lat="43.7850715" lon="12.5280028"><ele>412.5</ele><time>2026-04-25T08:19:26.936Z</time></trkpt><trkpt lat="43.7849479" lon="12.5279763"><ele>415.25</ele><time>2026-04-25T08:19:27.936Z</time></trkpt><trkpt lat="43.7848239" lon="12.5279665"><ele>418.0</ele><time>2026-04-25T08:19:28.937Z</time></trkpt><trkpt lat="43.7846913" lon="12.5279807"><ele>418.0</ele><time>2026-04-25T08:19:29.937Z</time></trkpt><trkpt lat="43.7845512" lon="12.528006"><ele>418.0</ele><time>2026-04-25T08:19:30.936Z</time></trkpt><trkpt lat="43.784406" lon="12.5280125"><ele>418.0</ele><time>2026-04-25T08:19:31.937Z</time></trkpt><trkpt lat="43.7842615" lon="12.5279922"><ele>418.0</ele><time>2026-04-25T08:19:32.937Z</time></trkpt><trkpt lat="43.7841245" lon="12.5279422"><ele>419.25</ele><time>2026-04-25T08:19:33.937Z</time></trkpt><trkpt lat="43.7839996" lon="12.527863"><ele>420.5</ele><time>2026-04-25T08:19:34.937Z</time></trkpt><trkpt lat="43.7838908" lon="12.5277782"><ele>421.75</ele><time>2026-04-25T08:19:35.936Z</time></trkpt><trkpt lat="43.7837881" lon="12.5277201"><ele>423.0</ele><time>2026-04-25T08:19:36.937Z</time></trkpt><trkpt lat="43.7836857" lon="12.5277007"><ele>423.0</ele><time>2026-04-25T08:19:37.937Z</time></trkpt><trkpt lat="43.7835752" lon="12.5277297"><ele>423.0</ele><time>2026-04-25T08:19:38.937Z</time></trkpt><trkpt lat="43.7834612" lon="12.5277983"><ele>423.0</ele><time>2026-04-25T08:19:39.937Z</time></trkpt><trkpt lat="43.7833473" lon="12.5278839"><ele>423.0</ele><time>2026-04-25T08:19:40.937Z</time></trkpt><trkpt lat="43.7832307" lon="12.5279655"><ele>426.25</ele><time>2026-04-25T08:19:41.937Z</time></trkpt><trkpt lat="43.7831066" lon="12.5280214"><ele>429.5</ele><time>2026-04-25T08:19:42.936Z</time></trkpt><trkpt lat="43.7829751" lon="12.5280469"><ele>432.75</ele><time>2026-04-25T08:19:43.936Z</time></trkpt><trkpt lat="43.7828346" lon="12.5280442"><ele>436.0</ele><time>2026-04-25T08:19:44.937Z</time></trkpt><trkpt lat="43.7826881" lon="12.5280158"><ele>439.6666666666667</ele><time>2026-04-25T08:19:45.937Z</time></trkpt><trkpt lat="43.7825321" lon="12.5279968"><ele>443.33333333333337</ele><time>2026-04-25T08:19:46.937Z</time></trkpt><trkpt lat="43.7823728" lon="12.5279955"><ele>447.0</ele><time>2026-04-25T08:19:47.937Z</time></trkpt><trkpt lat="43.782211" lon="12.5280143"><ele>447.0</ele><time>2026-04-25T08:19:48.937Z</time></trkpt><trkpt lat="43.7820499" lon="12.5280461"><ele>447.0</ele><time>2026-04-25T08:19:49.936Z</time></trkpt><trkpt lat="43.781888" lon="12.5280907"><ele>447.0</ele><time>2026-04-25T08:19:50.937Z</time></trkpt><trkpt lat="43.7817288" lon="12.528145"><ele>447.0</ele><time>2026-04-25T08:19:51.937Z</time></trkpt><trkpt lat="43.781577" lon="12.5281985"><ele>447.0</ele><time>2026-04-25T08:19:52.937Z</time></trkpt><trkpt lat="43.7814262" lon="12.528253"><ele>447.0</ele><time>2026-04-25T08:19:53.937Z</time></trkpt><trkpt lat="43.7812753" lon="12.5283216"><ele>447.0</ele><time>2026-04-25T08:19:54.937Z</time></trkpt><trkpt lat="43.7811293" lon="12.5284039"><ele>447.0</ele><time>2026-04-25T08:19:55.936Z</time></trkpt><trkpt lat="43.7809856" lon="12.5284918"><ele>447.0</ele><time>2026-04-25T08:19:56.937Z</time></trkpt><trkpt lat="43.7808398" lon="12.5285784"><ele>447.25</ele><time>2026-04-25T08:19:57.936Z</time></trkpt><trkpt lat="43.7806967" lon="12.5286533"><ele>447.5</ele><time>2026-04-25T08:19:58.936Z</time></trkpt><trkpt lat="43.780565" lon="12.528725"><ele>447.75</ele><time>2026-04-25T08:19:59.937Z</time></trkpt><trkpt lat="43.7804517" lon="12.5288"><ele>448.0</ele><time>2026-04-25T08:20:00.937Z</time></trkpt><trkpt lat="43.7803583" lon="12.5288917"><ele>448.0</ele><time>2026-04-25T08:20:01.937Z</time></trkpt><trkpt lat="43.7802783" lon="12.5290017"><ele>447.99999999999994</ele><time>2026-04-25T08:20:02.937Z</time></trkpt><trkpt lat="43.7802183" lon="12.5291283"><ele>447.99999999999994</ele><time>2026-04-25T08:20:03.937Z</time></trkpt><trkpt lat="43.7801833" lon="12.52926"><ele>448.0</ele><time>2026-04-25T08:20:04.937Z</time></trkpt><trkpt lat="43.7801683" lon="12.52939"><ele>448.0</ele><time>2026-04-25T08:20:05.937Z</time></trkpt><trkpt lat="43.7801783" lon="12.52951"><ele>446.00000000000006</ele><time>2026-04-25T08:20:06.937Z</time></trkpt><trkpt lat="43.7801783" lon="12.5296167"><ele>444.0</ele><time>2026-04-25T08:20:07.937Z</time></trkpt><trkpt lat="43.7802017" lon="12.52972"><ele>442.0</ele><time>2026-04-25T08:20:08.936Z</time></trkpt><trkpt lat="43.7802417" lon="12.5298083"><ele>440.0</ele><time>2026-04-25T08:20:09.936Z</time></trkpt><trkpt lat="43.7803133" lon="12.5298667"><ele>438.00000000000006</ele><time>2026-04-25T08:20:10.937Z</time></trkpt><trkpt lat="43.7803883" lon="12.52991"><ele>436.0</ele><time>2026-04-25T08:20:11.937Z</time></trkpt><trkpt lat="43.7804867" lon="12.529905"><ele>436.0</ele><time>2026-04-25T08:20:12.936Z</time></trkpt><trkpt lat="43.780595" lon="12.5298833"><ele>436.0</ele><time>2026-04-25T08:20:13.937Z</time></trkpt><trkpt lat="43.7807117" lon="12.529855"><ele>436.0</ele><time>2026-04-25T08:20:14.937Z</time></trkpt><trkpt lat="43.780835" lon="12.5298367"><ele>436.0</ele><time>2026-04-25T08:20:15.937Z</time></trkpt><trkpt lat="43.7809533" lon="12.5298417"><ele>437.5</ele><time>2026-04-25T08:20:16.936Z</time></trkpt><trkpt lat="43.78107" lon="12.5298867"><ele>439.0</ele><time>2026-04-25T08:20:17.937Z</time></trkpt><trkpt lat="43.7811767" lon="12.52997"><ele>440.5</ele><time>2026-04-25T08:20:18.936Z</time></trkpt><trkpt lat="43.7812733" lon="12.53008"><ele>442.0</ele><time>2026-04-25T08:20:19.937Z</time></trkpt><trkpt lat="43.7813567" lon="12.5302183"><ele>442.0</ele><time>2026-04-25T08:20:20.937Z</time></trkpt><trkpt lat="43.7814283" lon="12.5303817"><ele>442.0</ele><time>2026-04-25T08:20:21.937Z</time></trkpt><trkpt lat="43.7814867" lon="12.5305617"><ele>442.0</ele><time>2026-04-25T08:20:22.936Z</time></trkpt><trkpt lat="43.7815367" lon="12.5307517"><ele>442.0</ele><time>2026-04-25T08:20:23.937Z</time></trkpt><trkpt lat="43.78158" lon="12.5309517"><ele>439.5</ele><time>2026-04-25T08:20:24.937Z</time></trkpt><trkpt lat="43.78162" lon="12.531155"><ele>437.0</ele><time>2026-04-25T08:20:25.937Z</time></trkpt><trkpt lat="43.78165" lon="12.531355"><ele>434.5</ele><time>2026-04-25T08:20:26.937Z</time></trkpt><trkpt lat="43.78167" lon="12.5315567"><ele>432.0</ele><time>2026-04-25T08:20:27.936Z</time></trkpt><trkpt lat="43.7816783" lon="12.531755"><ele>430.0</ele><time>2026-04-25T08:20:28.937Z</time></trkpt><trkpt lat="43.7816817" lon="12.5319517"><ele>428.0</ele><time>2026-04-25T08:20:29.936Z</time></trkpt><trkpt lat="43.7816883" lon="12.532145"><ele>426.0</ele><time>2026-04-25T08:20:30.937Z</time></trkpt><trkpt lat="43.7816983" lon="12.5323333"><ele>424.0</ele><time>2026-04-25T08:20:31.937Z</time></trkpt><trkpt lat="43.7817083" lon="12.5325133"><ele>423.6</ele><time>2026-04-25T08:20:32.937Z</time></trkpt><trkpt lat="43.7817217" lon="12.5326783"><ele>423.2</ele><time>2026-04-25T08:20:33.937Z</time></trkpt><trkpt lat="43.7817467" lon="12.5328283"><ele>422.8</ele><time>2026-04-25T08:20:34.937Z</time></trkpt><trkpt lat="43.7817933" lon="12.5329667"><ele>422.40000000000003</ele><time>2026-04-25T08:20:35.937Z</time></trkpt><trkpt lat="43.7818467" lon="12.5330967"><ele>422.0</ele><time>2026-04-25T08:20:36.937Z</time></trkpt><trkpt lat="43.78189" lon="12.5332317"><ele>420.25</ele><time>2026-04-25T08:20:37.937Z</time></trkpt><trkpt lat="43.7819083" lon="12.5333783"><ele>418.5</ele><time>2026-04-25T08:20:38.937Z</time></trkpt><trkpt lat="43.78189" lon="12.5335433"><ele>416.75</ele><time>2026-04-25T08:20:39.937Z</time></trkpt><trkpt lat="43.7818533" lon="12.5337083"><ele>415.0</ele><time>2026-04-25T08:20:40.937Z</time></trkpt><trkpt lat="43.7818217" lon="12.5338683"><ele>412.75</ele><time>2026-04-25T08:20:41.937Z</time></trkpt><trkpt lat="43.7818167" lon="12.53404"><ele>410.5</ele><time>2026-04-25T08:20:42.937Z</time></trkpt><trkpt lat="43.781835" lon="12.5342317"><ele>408.25</ele><time>2026-04-25T08:20:43.937Z</time></trkpt><trkpt lat="43.7818717" lon="12.5344433"><ele>406.0</ele><time>2026-04-25T08:20:44.936Z</time></trkpt><trkpt lat="43.7819133" lon="12.534655"><ele>402.0</ele><time>2026-04-25T08:20:45.936Z</time></trkpt><trkpt lat="43.7819567" lon="12.53486"><ele>398.0</ele><time>2026-04-25T08:20:46.936Z</time></trkpt><trkpt lat="43.7820017" lon="12.5350517"><ele>394.0</ele><time>2026-04-25T08:20:47.937Z</time></trkpt><trkpt lat="43.7820467" lon="12.5352233"><ele>390.0</ele><time>2026-04-25T08:20:48.937Z</time></trkpt><trkpt lat="43.7820883" lon="12.5353667"><ele>391.1666666666667</ele><time>2026-04-25T08:20:49.937Z</time></trkpt><trkpt lat="43.7821183" lon="12.5354867"><ele>392.33333333333337</ele><time>2026-04-25T08:20:50.936Z</time></trkpt><trkpt lat="43.7821217" lon="12.535585"><ele>393.5</ele><time>2026-04-25T08:20:51.937Z</time></trkpt><trkpt lat="43.78209" lon="12.5356733"><ele>394.6666666666667</ele><time>2026-04-25T08:20:52.937Z</time></trkpt><trkpt lat="43.78203" lon="12.5357533"><ele>395.83333333333337</ele><time>2026-04-25T08:20:53.937Z</time></trkpt><trkpt lat="43.7819433" lon="12.5358367"><ele>397.0</ele><time>2026-04-25T08:20:54.937Z</time></trkpt><trkpt lat="43.78184" lon="12.5359367"><ele>399.0</ele><time>2026-04-25T08:20:55.936Z</time></trkpt><trkpt lat="43.78173" lon="12.5360433"><ele>401.0</ele><time>2026-04-25T08:20:56.937Z</time></trkpt><trkpt lat="43.7816133" lon="12.5361433"><ele>403.0</ele><time>2026-04-25T08:20:57.937Z</time></trkpt><trkpt lat="43.7814917" lon="12.5362233"><ele>405.0</ele><time>2026-04-25T08:20:58.937Z</time></trkpt><trkpt lat="43.7813733" lon="12.5362817"><ele>406.75</ele><time>2026-04-25T08:20:59.937Z</time></trkpt><trkpt lat="43.7812633" lon="12.536335"><ele>408.5</ele><time>2026-04-25T08:21:00.937Z</time></trkpt><trkpt lat="43.781155" lon="12.5364"><ele>410.25</ele><time>2026-04-25T08:21:01.937Z</time></trkpt><trkpt lat="43.7810433" lon="12.536485"><ele>412.0</ele><time>2026-04-25T08:21:02.936Z</time></trkpt><trkpt lat="43.7809283" lon="12.5365817"><ele>407.25</ele><time>2026-04-25T08:21:03.937Z</time></trkpt><trkpt lat="43.780805" lon="12.53667"><ele>402.5</ele><time>2026-04-25T08:21:04.937Z</time></trkpt><trkpt lat="43.7806833" lon="12.5367467"><ele>397.75</ele><time>2026-04-25T08:21:05.937Z</time></trkpt><trkpt lat="43.7805583" lon="12.5368217"><ele>393.0</ele><time>2026-04-25T08:21:06.937Z</time></trkpt><trkpt lat="43.78043" lon="12.5369033"><ele>393.0</ele><time>2026-04-25T08:21:07.937Z</time></trkpt><trkpt lat="43.7803033" lon="12.53698"><ele>393.0</ele><time>2026-04-25T08:21:08.937Z</time></trkpt><trkpt lat="43.780175" lon="12.53704"><ele>393.0</ele><time>2026-04-25T08:21:09.936Z</time></trkpt><trkpt lat="43.780045" lon="12.537075"><ele>393.0</ele><time>2026-04-25T08:21:10.937Z</time></trkpt><trkpt lat="43.7799167" lon="12.5370767"><ele>389.25</ele><time>2026-04-25T08:21:11.936Z</time></trkpt><trkpt lat="43.7797867" lon="12.5370483"><ele>385.5</ele><time>2026-04-25T08:21:12.937Z</time></trkpt><trkpt lat="43.779665" lon="12.53701"><ele>381.75</ele><time>2026-04-25T08:21:13.937Z</time></trkpt><trkpt lat="43.7795533" lon="12.536985"><ele>378.0</ele><time>2026-04-25T08:21:14.937Z</time></trkpt><trkpt lat="43.7794467" lon="12.536985"><ele>377.59999999999997</ele><time>2026-04-25T08:21:15.937Z</time></trkpt><trkpt lat="43.7793417" lon="12.5370083"><ele>377.2</ele><time>2026-04-25T08:21:16.937Z</time></trkpt><trkpt lat="43.7792417" lon="12.537055"><ele>376.8</ele><time>2026-04-25T08:21:17.937Z</time></trkpt><trkpt lat="43.779145" lon="12.53713"><ele>376.4</ele><time>2026-04-25T08:21:18.937Z</time></trkpt><trkpt lat="43.7790517" lon="12.53721"><ele>376.0</ele><time>2026-04-25T08:21:19.937Z</time></trkpt><trkpt lat="43.7789633" lon="12.53729"><ele>376.0</ele><time>2026-04-25T08:21:20.937Z</time></trkpt><trkpt lat="43.7788767" lon="12.5373533"><ele>376.0</ele><time>2026-04-25T08:21:21.936Z</time></trkpt><trkpt lat="43.778805" lon="12.5374083"><ele>376.0</ele><time>2026-04-25T08:21:22.937Z</time></trkpt><trkpt lat="43.7787517" lon="12.53746"><ele>376.0</ele><time>2026-04-25T08:21:23.937Z</time></trkpt><trkpt lat="43.77873" lon="12.537575"><ele>376.0</ele><time>2026-04-25T08:21:25.937Z</time></trkpt><trkpt lat="43.7787883" lon="12.5377167"><ele>376.0</ele><time>2026-04-25T08:21:27.936Z</time></trkpt><trkpt lat="43.77882" lon="12.5378133"><ele>374.20000000000005</ele><time>2026-04-25T08:21:28.936Z</time></trkpt><trkpt lat="43.7788633" lon="12.5379333"><ele>372.40000000000003</ele><time>2026-04-25T08:21:29.937Z</time></trkpt><trkpt lat="43.7789183" lon="12.5380567"><ele>370.6</ele><time>2026-04-25T08:21:30.937Z</time></trkpt><trkpt lat="43.7789817" lon="12.5381833"><ele>368.8</ele><time>2026-04-25T08:21:31.937Z</time></trkpt><trkpt lat="43.7790283" lon="12.5383283"><ele>367.0</ele><time>2026-04-25T08:21:32.937Z</time></trkpt><trkpt lat="43.779055" lon="12.5384833"><ele>367.0</ele><time>2026-04-25T08:21:33.937Z</time></trkpt><trkpt lat="43.7790583" lon="12.5386433"><ele>367.0</ele><time>2026-04-25T08:21:34.937Z</time></trkpt><trkpt lat="43.77905" lon="12.5388"><ele>367.0</ele><time>2026-04-25T08:21:35.937Z</time></trkpt><trkpt lat="43.779055" lon="12.5389383"><ele>367.0</ele><time>2026-04-25T08:21:36.937Z</time></trkpt><trkpt lat="43.7790817" lon="12.5390667"><ele>367.0</ele><time>2026-04-25T08:21:37.937Z</time></trkpt><trkpt lat="43.779135" lon="12.5391867"><ele>363.75</ele><time>2026-04-25T08:21:38.937Z</time></trkpt><trkpt lat="43.7792083" lon="12.5393217"><ele>360.5</ele><time>2026-04-25T08:21:39.937Z</time></trkpt><trkpt lat="43.77929" lon="12.539465"><ele>357.25</ele><time>2026-04-25T08:21:40.937Z</time></trkpt><trkpt lat="43.779365" lon="12.5396183"><ele>354.0</ele><time>2026-04-25T08:21:41.936Z</time></trkpt><trkpt lat="43.7794283" lon="12.5397833"><ele>353.25</ele><time>2026-04-25T08:21:42.937Z</time></trkpt><trkpt lat="43.779475" lon="12.539955"><ele>352.5</ele><time>2026-04-25T08:21:43.937Z</time></trkpt><trkpt lat="43.779515" lon="12.5401233"><ele>351.75</ele><time>2026-04-25T08:21:44.937Z</time></trkpt><trkpt lat="43.7795617" lon="12.5402883"><ele>351.0</ele><time>2026-04-25T08:21:45.937Z</time></trkpt><trkpt lat="43.7796217" lon="12.5404567"><ele>349.25</ele><time>2026-04-25T08:21:46.937Z</time></trkpt><trkpt lat="43.779695" lon="12.5406233"><ele>347.5</ele><time>2026-04-25T08:21:47.936Z</time></trkpt><trkpt lat="43.7797583" lon="12.5407867"><ele>345.75</ele><time>2026-04-25T08:21:48.937Z</time></trkpt><trkpt lat="43.7798033" lon="12.5409417"><ele>344.0</ele><time>2026-04-25T08:21:49.937Z</time></trkpt><trkpt lat="43.7798267" lon="12.5410683"><ele>344.0</ele><time>2026-04-25T08:21:50.936Z</time></trkpt><trkpt lat="43.77983" lon="12.5411767"><ele>344.0</ele><time>2026-04-25T08:21:51.937Z</time></trkpt><trkpt lat="43.7798333" lon="12.54131"><ele>344.0</ele><time>2026-04-25T08:21:53.937Z</time></trkpt><trkpt lat="43.7798983" lon="12.541355"><ele>344.0</ele><time>2026-04-25T08:25:52.937Z</time></trkpt><trkpt lat="43.779965" lon="12.5414667"><ele>344.0</ele><time>2026-04-25T08:25:54.937Z</time></trkpt><trkpt lat="43.779995" lon="12.54155"><ele>344.0</ele><time>2026-04-25T08:25:55.937Z</time></trkpt><trkpt lat="43.7800283" lon="12.5416483"><ele>344.33333333333337</ele><time>2026-04-25T08:25:56.937Z</time></trkpt><trkpt lat="43.780055" lon="12.5417517"><ele>344.6666666666667</ele><time>2026-04-25T08:25:57.937Z</time></trkpt><trkpt lat="43.78007" lon="12.541865"><ele>345.0</ele><time>2026-04-25T08:25:58.937Z</time></trkpt><trkpt lat="43.7800833" lon="12.54198"><ele>345.3333333333333</ele><time>2026-04-25T08:25:59.937Z</time></trkpt><trkpt lat="43.7800783" lon="12.5420967"><ele>345.66666666666663</ele><time>2026-04-25T08:26:00.937Z</time></trkpt><trkpt lat="43.780055" lon="12.5422067"><ele>346.0</ele><time>2026-04-25T08:26:01.937Z</time></trkpt><trkpt lat="43.780005" lon="12.5423033"><ele>347.0</ele><time>2026-04-25T08:26:02.937Z</time></trkpt><trkpt lat="43.77993" lon="12.542385"><ele>348.0</ele><time>2026-04-25T08:26:03.936Z</time></trkpt><trkpt lat="43.779845" lon="12.54246"><ele>349.0</ele><time>2026-04-25T08:26:04.937Z</time></trkpt><trkpt lat="43.779755" lon="12.54253"><ele>350.0</ele><time>2026-04-25T08:26:05.936Z</time></trkpt><trkpt lat="43.77967" lon="12.5425967"><ele>351.0</ele><time>2026-04-25T08:26:06.936Z</time></trkpt><trkpt lat="43.7795883" lon="12.5426517"><ele>351.0</ele><time>2026-04-25T08:26:07.937Z</time></trkpt><trkpt lat="43.7795183" lon="12.542705"><ele>351.0</ele><time>2026-04-25T08:26:08.937Z</time></trkpt><trkpt lat="43.779455" lon="12.5427467"><ele>351.0</ele><time>2026-04-25T08:26:09.937Z</time></trkpt><trkpt lat="43.7793617" lon="12.5428117"><ele>351.0</ele><time>2026-04-25T08:26:11.936Z</time></trkpt><trkpt lat="43.7792717" lon="12.5428733"><ele>351.0</ele><time>2026-04-25T08:26:34.937Z</time></trkpt><trkpt lat="43.7791833" lon="12.542875"><ele>351.0</ele><time>2026-04-25T08:26:37.936Z</time></trkpt><trkpt lat="43.7790933" lon="12.542815"><ele>348.8571428571429</ele><time>2026-04-25T08:26:39.937Z</time></trkpt><trkpt lat="43.779045" lon="12.5427583"><ele>346.7142857142857</ele><time>2026-04-25T08:26:40.937Z</time></trkpt><trkpt lat="43.77899" lon="12.5427033"><ele>344.57142857142856</ele><time>2026-04-25T08:26:41.936Z</time></trkpt><trkpt lat="43.7789283" lon="12.542665"><ele>342.42857142857144</ele><time>2026-04-25T08:26:42.937Z</time></trkpt><trkpt lat="43.7788533" lon="12.542655"><ele>340.2857142857143</ele><time>2026-04-25T08:26:43.937Z</time></trkpt><trkpt lat="43.7787733" lon="12.54266"><ele>338.14285714285717</ele><time>2026-04-25T08:26:44.937Z</time></trkpt><trkpt lat="43.7786983" lon="12.5426633"><ele>336.0</ele><time>2026-04-25T08:26:45.937Z</time></trkpt><trkpt lat="43.7786217" lon="12.5426783"><ele>336.0</ele><time>2026-04-25T08:26:46.937Z</time></trkpt><trkpt lat="43.7785433" lon="12.542685"><ele>336.0</ele><time>2026-04-25T08:26:47.937Z</time></trkpt><trkpt lat="43.7784633" lon="12.542705"><ele>336.0</ele><time>2026-04-25T08:26:48.937Z</time></trkpt><trkpt lat="43.7783783" lon="12.542745"><ele>336.0</ele><time>2026-04-25T08:26:49.937Z</time></trkpt><trkpt lat="43.778295" lon="12.5428067"><ele>336.0</ele><time>2026-04-25T08:26:50.936Z</time></trkpt><trkpt lat="43.77821" lon="12.54288"><ele>336.0</ele><time>2026-04-25T08:26:51.937Z</time></trkpt><trkpt lat="43.7781217" lon="12.5429583"><ele>335.0</ele><time>2026-04-25T08:26:52.936Z</time></trkpt><trkpt lat="43.77803" lon="12.5430317"><ele>334.0</ele><time>2026-04-25T08:26:53.936Z</time></trkpt><trkpt lat="43.77794" lon="12.5431"><ele>333.0</ele><time>2026-04-25T08:26:54.937Z</time></trkpt><trkpt lat="43.7778517" lon="12.5431717"><ele>332.0</ele><time>2026-04-25T08:26:55.937Z</time></trkpt><trkpt lat="43.7777683" lon="12.5432433"><ele>331.0</ele><time>2026-04-25T08:26:56.937Z</time></trkpt><trkpt lat="43.7777017" lon="12.5433067"><ele>328.66666666666663</ele><time>2026-04-25T08:26:57.937Z</time></trkpt><trkpt lat="43.77765" lon="12.5433567"><ele>326.3333333333333</ele><time>2026-04-25T08:26:58.936Z</time></trkpt><trkpt lat="43.7775983" lon="12.543465"><ele>324.0</ele><time>2026-04-25T08:27:00.937Z</time></trkpt><trkpt lat="43.7776133" lon="12.543565"><ele>321.6666666666667</ele><time>2026-04-25T08:27:02.937Z</time></trkpt><trkpt lat="43.7776417" lon="12.5436683"><ele>319.33333333333337</ele><time>2026-04-25T08:27:05.937Z</time></trkpt><trkpt lat="43.7776683" lon="12.5437633"><ele>317.0</ele><time>2026-04-25T08:27:09.936Z</time></trkpt><trkpt lat="43.7776667" lon="12.5438683"><ele>317.0</ele><time>2026-04-25T08:27:12.937Z</time></trkpt><trkpt lat="43.7776067" lon="12.5439083"><ele>317.0</ele><time>2026-04-25T08:27:14.937Z</time></trkpt><trkpt lat="43.77754" lon="12.5439017"><ele>317.0</ele><time>2026-04-25T08:27:16.936Z</time></trkpt><trkpt lat="43.7774517" lon="12.5438767"><ele>317.0</ele><time>2026-04-25T08:27:19.937Z</time></trkpt><trkpt lat="43.7773767" lon="12.5438167"><ele>317.0</ele><time>2026-04-25T08:27:22.937Z</time></trkpt><trkpt lat="43.7773083" lon="12.5437783"><ele>317.0</ele><time>2026-04-25T08:27:24.936Z</time></trkpt><trkpt lat="43.7772217" lon="12.5437817"><ele>317.0</ele><time>2026-04-25T08:27:26.937Z</time></trkpt><trkpt lat="43.777125" lon="12.543825"><ele>317.0</ele><time>2026-04-25T08:27:28.937Z</time></trkpt><trkpt lat="43.7770217" lon="12.5438767"><ele>317.0</ele><time>2026-04-25T08:27:30.936Z</time></trkpt><trkpt lat="43.7769283" lon="12.54395"><ele>317.0</ele><time>2026-04-25T08:27:32.937Z</time></trkpt><trkpt lat="43.7768583" lon="12.5440467"><ele>317.0</ele><time>2026-04-25T08:27:34.937Z</time></trkpt><trkpt lat="43.7768117" lon="12.54413"><ele>314.0</ele><time>2026-04-25T08:27:36.937Z</time></trkpt><trkpt lat="43.7767683" lon="12.5442433"><ele>311.0</ele><time>2026-04-25T08:27:38.937Z</time></trkpt><trkpt lat="43.7767367" lon="12.54432"><ele>308.0</ele><time>2026-04-25T08:27:39.937Z</time></trkpt><trkpt lat="43.7767" lon="12.544405"><ele>305.0</ele><time>2026-04-25T08:27:40.936Z</time></trkpt><trkpt lat="43.7766517" lon="12.544495"><ele>302.0</ele><time>2026-04-25T08:27:41.937Z</time></trkpt><trkpt lat="43.7765867" lon="12.5445917"><ele>299.0</ele><time>2026-04-25T08:27:42.937Z</time></trkpt><trkpt lat="43.7765133" lon="12.5446933"><ele>298.59999999999997</ele><time>2026-04-25T08:27:43.937Z</time></trkpt><trkpt lat="43.776435" lon="12.5447967"><ele>298.2</ele><time>2026-04-25T08:27:44.937Z</time></trkpt><trkpt lat="43.7763567" lon="12.5448983"><ele>297.79999999999995</ele><time>2026-04-25T08:27:45.937Z</time></trkpt><trkpt lat="43.77628" lon="12.545"><ele>297.4</ele><time>2026-04-25T08:27:46.937Z</time></trkpt><trkpt lat="43.776205" lon="12.5451"><ele>297.0</ele><time>2026-04-25T08:27:47.937Z</time></trkpt><trkpt lat="43.7761283" lon="12.5451883"><ele>297.0</ele><time>2026-04-25T08:27:48.936Z</time></trkpt><trkpt lat="43.776045" lon="12.5452667"><ele>297.0</ele><time>2026-04-25T08:27:49.937Z</time></trkpt><trkpt lat="43.77596" lon="12.5453333"><ele>297.0</ele><time>2026-04-25T08:27:50.937Z</time></trkpt><trkpt lat="43.7758767" lon="12.5453933"><ele>297.0</ele><time>2026-04-25T08:27:51.936Z</time></trkpt><trkpt lat="43.7757917" lon="12.54545"><ele>297.0</ele><time>2026-04-25T08:27:52.937Z</time></trkpt><trkpt lat="43.7757083" lon="12.545505"><ele>295.1666666666667</ele><time>2026-04-25T08:27:53.936Z</time></trkpt><trkpt lat="43.7756283" lon="12.5455567"><ele>293.3333333333333</ele><time>2026-04-25T08:27:54.937Z</time></trkpt><trkpt lat="43.7755583" lon="12.5456117"><ele>291.5</ele><time>2026-04-25T08:27:55.937Z</time></trkpt><trkpt lat="43.775495" lon="12.5456733"><ele>289.66666666666663</ele><time>2026-04-25T08:27:56.937Z</time></trkpt><trkpt lat="43.7754317" lon="12.545745"><ele>287.8333333333333</ele><time>2026-04-25T08:27:57.937Z</time></trkpt><trkpt lat="43.7753733" lon="12.5458267"><ele>286.0</ele><time>2026-04-25T08:27:58.937Z</time></trkpt><trkpt lat="43.7753217" lon="12.5459167"><ele>286.0</ele><time>2026-04-25T08:27:59.937Z</time></trkpt><trkpt lat="43.7752783" lon="12.5460083"><ele>286.0</ele><time>2026-04-25T08:28:00.937Z</time></trkpt><trkpt lat="43.77524" lon="12.5461033"><ele>286.0</ele><time>2026-04-25T08:28:01.937Z</time></trkpt><trkpt lat="43.7752067" lon="12.5462"><ele>286.0</ele><time>2026-04-25T08:28:02.937Z</time></trkpt><trkpt lat="43.775165" lon="12.5463033"><ele>286.0</ele><time>2026-04-25T08:28:03.936Z</time></trkpt><trkpt lat="43.7751233" lon="12.5464083"><ele>286.0</ele><time>2026-04-25T08:28:04.937Z</time></trkpt><trkpt lat="43.7750717" lon="12.5465067"><ele>282.16666666666663</ele><time>2026-04-25T08:28:05.937Z</time></trkpt><trkpt lat="43.775015" lon="12.5466033"><ele>278.3333333333333</ele><time>2026-04-25T08:28:06.937Z</time></trkpt><trkpt lat="43.77495" lon="12.5466983"><ele>274.5</ele><time>2026-04-25T08:28:07.937Z</time></trkpt><trkpt lat="43.774885" lon="12.54679"><ele>270.6666666666667</ele><time>2026-04-25T08:28:08.937Z</time></trkpt><trkpt lat="43.7748267" lon="12.546875"><ele>266.83333333333337</ele><time>2026-04-25T08:28:09.937Z</time></trkpt><trkpt lat="43.7747817" lon="12.5469567"><ele>263.0</ele><time>2026-04-25T08:28:10.937Z</time></trkpt><trkpt lat="43.7747533" lon="12.5470383"><ele>260.2</ele><time>2026-04-25T08:28:11.937Z</time></trkpt><trkpt lat="43.7747117" lon="12.5472"><ele>257.4</ele><time>2026-04-25T08:28:13.937Z</time></trkpt><trkpt lat="43.774615" lon="12.547315"><ele>254.59999999999997</ele><time>2026-04-25T08:28:15.937Z</time></trkpt><trkpt lat="43.7745417" lon="12.5473467"><ele>251.79999999999998</ele><time>2026-04-25T08:28:16.937Z</time></trkpt><trkpt lat="43.7744617" lon="12.5473567"><ele>249.0</ele><time>2026-04-25T08:28:17.937Z</time></trkpt><trkpt lat="43.7743783" lon="12.54735"><ele>246.33333333333334</ele><time>2026-04-25T08:28:18.937Z</time></trkpt><trkpt lat="43.7742917" lon="12.5473367"><ele>243.66666666666669</ele><time>2026-04-25T08:28:19.937Z</time></trkpt><trkpt lat="43.7742117" lon="12.54731"><ele>241.0</ele><time>2026-04-25T08:28:20.937Z</time></trkpt><trkpt lat="43.7741383" lon="12.5472683"><ele>238.33333333333334</ele><time>2026-04-25T08:28:21.937Z</time></trkpt><trkpt lat="43.7740783" lon="12.5472033"><ele>235.66666666666669</ele><time>2026-04-25T08:28:22.937Z</time></trkpt><trkpt lat="43.7740283" lon="12.5471167"><ele>233.0</ele><time>2026-04-25T08:28:23.937Z</time></trkpt><trkpt lat="43.7739933" lon="12.5470217"><ele>233.00000000000003</ele><time>2026-04-25T08:28:24.937Z</time></trkpt><trkpt lat="43.7739733" lon="12.54693"><ele>233.0</ele><time>2026-04-25T08:28:25.936Z</time></trkpt><trkpt lat="43.7739667" lon="12.54684"><ele>233.0</ele><time>2026-04-25T08:28:26.936Z</time></trkpt><trkpt lat="43.773955" lon="12.5466817"><ele>233.0</ele><time>2026-04-25T08:28:28.937Z</time></trkpt><trkpt lat="43.7739017" lon="12.5466017"><ele>233.00000000000003</ele><time>2026-04-25T08:28:30.936Z</time></trkpt><trkpt lat="43.7738017" lon="12.5466333"><ele>233.0</ele><time>2026-04-25T08:28:32.936Z</time></trkpt><trkpt lat="43.7737333" lon="12.5466633"><ele>233.00000000000003</ele><time>2026-04-25T08:28:33.937Z</time></trkpt><trkpt lat="43.77366" lon="12.54669"><ele>233.0</ele><time>2026-04-25T08:28:34.937Z</time></trkpt><trkpt lat="43.7735833" lon="12.5467183"><ele>233.0</ele><time>2026-04-25T08:28:35.937Z</time></trkpt><trkpt lat="43.7735067" lon="12.546745"><ele>233.0</ele><time>2026-04-25T08:28:36.936Z</time></trkpt><trkpt lat="43.77343" lon="12.5467717"><ele>233.00000000000003</ele><time>2026-04-25T08:28:37.937Z</time></trkpt><trkpt lat="43.77336" lon="12.5468033"><ele>233.0</ele><time>2026-04-25T08:28:38.937Z</time></trkpt><trkpt lat="43.77329" lon="12.546845"><ele>229.33333333333334</ele><time>2026-04-25T08:28:39.937Z</time></trkpt><trkpt lat="43.7732217" lon="12.5469033"><ele>225.66666666666669</ele><time>2026-04-25T08:28:40.937Z</time></trkpt><trkpt lat="43.7731633" lon="12.5469817"><ele>222.0</ele><time>2026-04-25T08:28:41.937Z</time></trkpt><trkpt lat="43.7731183" lon="12.54708"><ele>218.33333333333331</ele><time>2026-04-25T08:28:42.937Z</time></trkpt><trkpt lat="43.7730867" lon="12.5471867"><ele>214.66666666666666</ele><time>2026-04-25T08:28:43.936Z</time></trkpt><trkpt lat="43.773065" lon="12.5473033"><ele>211.0</ele><time>2026-04-25T08:28:44.937Z</time></trkpt><trkpt lat="43.7730517" lon="12.547415"><ele>211.0</ele><time>2026-04-25T08:28:45.937Z</time></trkpt><trkpt lat="43.7730433" lon="12.5475217"><ele>211.0</ele><time>2026-04-25T08:28:46.937Z</time></trkpt><trkpt lat="43.7730333" lon="12.5476233"><ele>211.0</ele><time>2026-04-25T08:28:47.936Z</time></trkpt><trkpt lat="43.77301" lon="12.5477217"><ele>211.0</ele><time>2026-04-25T08:28:48.937Z</time></trkpt><trkpt lat="43.7729767" lon="12.5478083"><ele>211.0</ele><time>2026-04-25T08:28:49.936Z</time></trkpt><trkpt lat="43.7729283" lon="12.5478817"><ele>211.0</ele><time>2026-04-25T08:28:50.937Z</time></trkpt><trkpt lat="43.772875" lon="12.5479467"><ele>211.0</ele><time>2026-04-25T08:28:51.937Z</time></trkpt><trkpt lat="43.7728117" lon="12.5480067"><ele>209.49999999999997</ele><time>2026-04-25T08:28:52.937Z</time></trkpt><trkpt lat="43.77274" lon="12.5480533"><ele>208.0</ele><time>2026-04-25T08:28:53.937Z</time></trkpt><trkpt lat="43.7726567" lon="12.5480767"><ele>206.5</ele><time>2026-04-25T08:28:54.937Z</time></trkpt><trkpt lat="43.7725717" lon="12.5480783"><ele>205.0</ele><time>2026-04-25T08:28:55.937Z</time></trkpt><trkpt lat="43.7724867" lon="12.5480667"><ele>203.49999999999997</ele><time>2026-04-25T08:28:56.937Z</time></trkpt><trkpt lat="43.7724017" lon="12.5480517"><ele>202.0</ele><time>2026-04-25T08:28:57.937Z</time></trkpt><trkpt lat="43.7723183" lon="12.5480533"><ele>200.6</ele><time>2026-04-25T08:28:58.937Z</time></trkpt><trkpt lat="43.7722367" lon="12.5480833"><ele>199.2</ele><time>2026-04-25T08:28:59.936Z</time></trkpt><trkpt lat="43.772155" lon="12.5481333"><ele>197.8</ele><time>2026-04-25T08:29:00.937Z</time></trkpt><trkpt lat="43.7720767" lon="12.5482033"><ele>196.4</ele><time>2026-04-25T08:29:01.937Z</time></trkpt><trkpt lat="43.772" lon="12.5482767"><ele>195.0</ele><time>2026-04-25T08:29:02.937Z</time></trkpt><trkpt lat="43.77192" lon="12.5483567"><ele>194.0</ele><time>2026-04-25T08:29:03.936Z</time></trkpt><trkpt lat="43.7718383" lon="12.5484483"><ele>193.0</ele><time>2026-04-25T08:29:04.937Z</time></trkpt><trkpt lat="43.7717517" lon="12.5485467"><ele>192.0</ele><time>2026-04-25T08:29:05.936Z</time></trkpt><trkpt lat="43.7716583" lon="12.548645"><ele>191.0</ele><time>2026-04-25T08:29:06.937Z</time></trkpt><trkpt lat="43.77156" lon="12.5487433"><ele>190.25</ele><time>2026-04-25T08:29:07.937Z</time></trkpt><trkpt lat="43.77146" lon="12.548845"><ele>189.5</ele><time>2026-04-25T08:29:08.937Z</time></trkpt><trkpt lat="43.771365" lon="12.5489467"><ele>188.75</ele><time>2026-04-25T08:29:09.936Z</time></trkpt><trkpt lat="43.7712617" lon="12.549045"><ele>188.0</ele><time>2026-04-25T08:29:10.937Z</time></trkpt><trkpt lat="43.7711683" lon="12.5491317"><ele>188.0</ele><time>2026-04-25T08:29:11.936Z</time></trkpt><trkpt lat="43.771085" lon="12.5492033"><ele>188.0</ele><time>2026-04-25T08:29:12.937Z</time></trkpt><trkpt lat="43.7710067" lon="12.549265"><ele>188.0</ele><time>2026-04-25T08:29:13.937Z</time></trkpt><trkpt lat="43.7709333" lon="12.549295"><ele>188.0</ele><time>2026-04-25T08:29:14.937Z</time></trkpt><trkpt lat="43.7708517" lon="12.5493067"><ele>188.0</ele><time>2026-04-25T08:29:15.937Z</time></trkpt><trkpt lat="43.7707633" lon="12.5493083"><ele>188.0</ele><time>2026-04-25T08:29:16.938Z</time></trkpt><trkpt lat="43.7706633" lon="12.5493033"><ele>187.60000000000002</ele><time>2026-04-25T08:29:17.938Z</time></trkpt><trkpt lat="43.7705567" lon="12.5493083"><ele>187.20000000000002</ele><time>2026-04-25T08:29:18.938Z</time></trkpt><trkpt lat="43.7704517" lon="12.5493217"><ele>186.8</ele><time>2026-04-25T08:29:19.938Z</time></trkpt><trkpt lat="43.7703467" lon="12.5493517"><ele>186.4</ele><time>2026-04-25T08:29:20.938Z</time></trkpt><trkpt lat="43.770245" lon="12.5494133"><ele>186.0</ele><time>2026-04-25T08:29:21.938Z</time></trkpt><trkpt lat="43.7701617" lon="12.5494967"><ele>187.16666666666666</ele><time>2026-04-25T08:29:22.938Z</time></trkpt><trkpt lat="43.7700929" lon="12.549582"><ele>188.33333333333331</ele><time>2026-04-25T08:29:23.938Z</time></trkpt><trkpt lat="43.7700237" lon="12.5496451"><ele>189.5</ele><time>2026-04-25T08:29:24.938Z</time></trkpt><trkpt lat="43.7699617" lon="12.549673"><ele>190.66666666666666</ele><time>2026-04-25T08:29:25.938Z</time></trkpt><trkpt lat="43.7698659" lon="12.5495942"><ele>191.83333333333331</ele><time>2026-04-25T08:29:27.938Z</time></trkpt><trkpt lat="43.7698293" lon="12.5494947"><ele>193.0</ele><time>2026-04-25T08:29:28.938Z</time></trkpt><trkpt lat="43.7698009" lon="12.5493565"><ele>193.0</ele><time>2026-04-25T08:29:29.937Z</time></trkpt><trkpt lat="43.7697739" lon="12.5491909"><ele>193.0</ele><time>2026-04-25T08:29:30.938Z</time></trkpt><trkpt lat="43.7697382" lon="12.5490279"><ele>193.0</ele><time>2026-04-25T08:29:31.938Z</time></trkpt><trkpt lat="43.7696887" lon="12.5488875"><ele>193.0</ele><time>2026-04-25T08:29:32.938Z</time></trkpt><trkpt lat="43.769619" lon="12.548765"><ele>197.60000000000002</ele><time>2026-04-25T08:29:33.938Z</time></trkpt><trkpt lat="43.76953" lon="12.5486644"><ele>202.20000000000002</ele><time>2026-04-25T08:29:34.937Z</time></trkpt><trkpt lat="43.7694277" lon="12.5485958"><ele>206.8</ele><time>2026-04-25T08:29:35.938Z</time></trkpt><trkpt lat="43.7693199" lon="12.5485579"><ele>211.4</ele><time>2026-04-25T08:29:36.938Z</time></trkpt><trkpt lat="43.7692163" lon="12.5485373"><ele>216.0</ele><time>2026-04-25T08:29:37.938Z</time></trkpt><trkpt lat="43.76912" lon="12.5485242"><ele>216.0</ele><time>2026-04-25T08:29:38.938Z</time></trkpt><trkpt lat="43.7690324" lon="12.5485103"><ele>216.0</ele><time>2026-04-25T08:29:39.938Z</time></trkpt><trkpt lat="43.7689522" lon="12.5484846"><ele>216.0</ele><time>2026-04-25T08:29:40.938Z</time></trkpt><trkpt lat="43.7688726" lon="12.5484594"><ele>216.0</ele><time>2026-04-25T08:29:41.937Z</time></trkpt><trkpt lat="43.7687975" lon="12.5484246"><ele>216.0</ele><time>2026-04-25T08:29:42.938Z</time></trkpt><trkpt lat="43.7687272" lon="12.5483832"><ele>216.0</ele><time>2026-04-25T08:29:43.938Z</time></trkpt><trkpt lat="43.7686593" lon="12.5483377"><ele>216.0</ele><time>2026-04-25T08:29:44.938Z</time></trkpt><trkpt lat="43.7685945" lon="12.5482832"><ele>216.0</ele><time>2026-04-25T08:29:45.937Z</time></trkpt><trkpt lat="43.7685329" lon="12.5482206"><ele>216.0</ele><time>2026-04-25T08:29:46.938Z</time></trkpt><trkpt lat="43.7684683" lon="12.5481653"><ele>216.0</ele><time>2026-04-25T08:29:47.938Z</time></trkpt><trkpt lat="43.7684025" lon="12.5481185"><ele>216.0</ele><time>2026-04-25T08:29:48.937Z</time></trkpt><trkpt lat="43.7683328" lon="12.5480734"><ele>216.0</ele><time>2026-04-25T08:29:49.937Z</time></trkpt><trkpt lat="43.7682622" lon="12.5480268"><ele>214.20000000000002</ele><time>2026-04-25T08:29:50.938Z</time></trkpt><trkpt lat="43.7681908" lon="12.547983"><ele>212.40000000000003</ele><time>2026-04-25T08:29:51.938Z</time></trkpt><trkpt lat="43.7681115" lon="12.5479401"><ele>210.6</ele><time>2026-04-25T08:29:52.938Z</time></trkpt><trkpt lat="43.768021" lon="12.5478966"><ele>208.8</ele><time>2026-04-25T08:29:53.938Z</time></trkpt><trkpt lat="43.7679286" lon="12.5478463"><ele>207.0</ele><time>2026-04-25T08:29:54.938Z</time></trkpt><trkpt lat="43.7678436" lon="12.5477914"><ele>207.83333333333334</ele><time>2026-04-25T08:29:55.937Z</time></trkpt><trkpt lat="43.7677783" lon="12.547725"><ele>208.66666666666669</ele><time>2026-04-25T08:29:56.938Z</time></trkpt><trkpt lat="43.767725" lon="12.54766"><ele>209.5</ele><time>2026-04-25T08:29:57.938Z</time></trkpt><trkpt lat="43.7676733" lon="12.5476083"><ele>210.33333333333334</ele><time>2026-04-25T08:29:58.938Z</time></trkpt><trkpt lat="43.7675483" lon="12.54756"><ele>211.16666666666669</ele><time>2026-04-25T08:30:00.937Z</time></trkpt><trkpt lat="43.767465" lon="12.5475333"><ele>212.0</ele><time>2026-04-25T08:30:01.938Z</time></trkpt><trkpt lat="43.76737" lon="12.5474883"><ele>212.0</ele><time>2026-04-25T08:30:02.938Z</time></trkpt><trkpt lat="43.7672683" lon="12.5474383"><ele>212.0</ele><time>2026-04-25T08:30:03.938Z</time></trkpt><trkpt lat="43.7671633" lon="12.547405"><ele>212.0</ele><time>2026-04-25T08:30:04.938Z</time></trkpt><trkpt lat="43.7670583" lon="12.5473883"><ele>212.0</ele><time>2026-04-25T08:30:05.937Z</time></trkpt><trkpt lat="43.7669567" lon="12.547395"><ele>212.0</ele><time>2026-04-25T08:30:06.937Z</time></trkpt><trkpt lat="43.766865" lon="12.5474167"><ele>210.2</ele><time>2026-04-25T08:30:07.938Z</time></trkpt><trkpt lat="43.7667817" lon="12.5474483"><ele>208.39999999999998</ele><time>2026-04-25T08:30:08.938Z</time></trkpt><trkpt lat="43.7667033" lon="12.547485"><ele>206.60000000000002</ele><time>2026-04-25T08:30:09.937Z</time></trkpt><trkpt lat="43.7666183" lon="12.5475167"><ele>204.8</ele><time>2026-04-25T08:30:10.938Z</time></trkpt><trkpt lat="43.76652" lon="12.54755"><ele>203.0</ele><time>2026-04-25T08:30:11.938Z</time></trkpt><trkpt lat="43.76641" lon="12.547595"><ele>203.0</ele><time>2026-04-25T08:30:12.937Z</time></trkpt><trkpt lat="43.7663" lon="12.547655"><ele>203.0</ele><time>2026-04-25T08:30:13.937Z</time></trkpt><trkpt lat="43.766185" lon="12.5477283"><ele>203.0</ele><time>2026-04-25T08:30:14.938Z</time></trkpt><trkpt lat="43.766065" lon="12.5478117"><ele>203.0</ele><time>2026-04-25T08:30:15.937Z</time></trkpt><trkpt lat="43.76595" lon="12.547905"><ele>199.0</ele><time>2026-04-25T08:30:16.938Z</time></trkpt><trkpt lat="43.7658433" lon="12.547995"><ele>195.0</ele><time>2026-04-25T08:30:17.937Z</time></trkpt><trkpt lat="43.7657383" lon="12.5480683"><ele>191.0</ele><time>2026-04-25T08:30:18.937Z</time></trkpt><trkpt lat="43.7656283" lon="12.5481133"><ele>187.0</ele><time>2026-04-25T08:30:19.938Z</time></trkpt><trkpt lat="43.7655083" lon="12.5481317"><ele>187.0</ele><time>2026-04-25T08:30:20.938Z</time></trkpt><trkpt lat="43.76538" lon="12.548145"><ele>187.0</ele><time>2026-04-25T08:30:21.938Z</time></trkpt><trkpt lat="43.765245" lon="12.5481583"><ele>187.0</ele><time>2026-04-25T08:30:22.938Z</time></trkpt><trkpt lat="43.7651067" lon="12.5481733"><ele>187.0</ele><time>2026-04-25T08:30:23.938Z</time></trkpt><trkpt lat="43.764965" lon="12.5481983"><ele>187.5</ele><time>2026-04-25T08:30:24.937Z</time></trkpt><trkpt lat="43.76483" lon="12.5482167"><ele>188.0</ele><time>2026-04-25T08:30:25.938Z</time></trkpt><trkpt lat="43.7647" lon="12.5482117"><ele>188.5</ele><time>2026-04-25T08:30:26.938Z</time></trkpt><trkpt lat="43.7645717" lon="12.5481867"><ele>189.0</ele><time>2026-04-25T08:30:27.938Z</time></trkpt><trkpt lat="43.7644417" lon="12.5481283"><ele>188.5</ele><time>2026-04-25T08:30:28.938Z</time></trkpt><trkpt lat="43.76431" lon="12.548045"><ele>188.0</ele><time>2026-04-25T08:30:29.938Z</time></trkpt><trkpt lat="43.7641783" lon="12.54795"><ele>187.5</ele><time>2026-04-25T08:30:30.938Z</time></trkpt><trkpt lat="43.7640467" lon="12.54785"><ele>187.0</ele><time>2026-04-25T08:30:31.938Z</time></trkpt><trkpt lat="43.7639183" lon="12.5477517"><ele>187.0</ele><time>2026-04-25T08:30:32.937Z</time></trkpt><trkpt lat="43.7637883" lon="12.5476533"><ele>187.0</ele><time>2026-04-25T08:30:33.937Z</time></trkpt><trkpt lat="43.7636517" lon="12.547555"><ele>187.0</ele><time>2026-04-25T08:30:34.938Z</time></trkpt><trkpt lat="43.7635133" lon="12.5474717"><ele>188.66666666666669</ele><time>2026-04-25T08:30:35.938Z</time></trkpt><trkpt lat="43.76337" lon="12.5474033"><ele>190.33333333333334</ele><time>2026-04-25T08:30:36.937Z</time></trkpt><trkpt lat="43.7632283" lon="12.5473417"><ele>192.0</ele><time>2026-04-25T08:30:37.938Z</time></trkpt><trkpt lat="43.7630867" lon="12.547275"><ele>192.0</ele><time>2026-04-25T08:30:38.937Z</time></trkpt><trkpt lat="43.7629517" lon="12.5471883"><ele>192.0</ele><time>2026-04-25T08:30:39.938Z</time></trkpt><trkpt lat="43.7628267" lon="12.5470783"><ele>192.0</ele><time>2026-04-25T08:30:40.938Z</time></trkpt><trkpt lat="43.7627083" lon="12.5469617"><ele>192.0</ele><time>2026-04-25T08:30:41.937Z</time></trkpt><trkpt lat="43.76259" lon="12.5468533"><ele>194.6</ele><time>2026-04-25T08:30:42.937Z</time></trkpt><trkpt lat="43.7624767" lon="12.54678"><ele>197.2</ele><time>2026-04-25T08:30:43.938Z</time></trkpt><trkpt lat="43.7623767" lon="12.546735"><ele>199.8</ele><time>2026-04-25T08:30:44.938Z</time></trkpt><trkpt lat="43.76229" lon="12.5467033"><ele>202.4</ele><time>2026-04-25T08:30:45.938Z</time></trkpt><trkpt lat="43.7622183" lon="12.54668"><ele>205.0</ele><time>2026-04-25T08:30:46.938Z</time></trkpt><trkpt lat="43.762185" lon="12.5466"><ele>205.0</ele><time>2026-04-25T08:30:47.938Z</time></trkpt><trkpt lat="43.762165" lon="12.5465017"><ele>205.0</ele><time>2026-04-25T08:30:48.937Z</time></trkpt><trkpt lat="43.76216" lon="12.5463717"><ele>205.0</ele><time>2026-04-25T08:30:49.938Z</time></trkpt><trkpt lat="43.7621583" lon="12.5462183"><ele>205.0</ele><time>2026-04-25T08:30:50.938Z</time></trkpt><trkpt lat="43.7621367" lon="12.5460533"><ele>205.0</ele><time>2026-04-25T08:30:51.938Z</time></trkpt><trkpt lat="43.7620917" lon="12.5458867"><ele>204.75</ele><time>2026-04-25T08:30:52.938Z</time></trkpt><trkpt lat="43.76203" lon="12.5457183"><ele>204.5</ele><time>2026-04-25T08:30:53.938Z</time></trkpt><trkpt lat="43.76194" lon="12.5455483"><ele>204.25</ele><time>2026-04-25T08:30:54.938Z</time></trkpt><trkpt lat="43.7618433" lon="12.5453733"><ele>204.0</ele><time>2026-04-25T08:30:55.938Z</time></trkpt><trkpt lat="43.7617517" lon="12.54519"><ele>204.0</ele><time>2026-04-25T08:30:56.938Z</time></trkpt><trkpt lat="43.7616617" lon="12.545005"><ele>204.0</ele><time>2026-04-25T08:30:57.937Z</time></trkpt><trkpt lat="43.76157" lon="12.54482"><ele>204.0</ele><time>2026-04-25T08:30:58.937Z</time></trkpt><trkpt lat="43.761475" lon="12.54463"><ele>203.33333333333331</ele><time>2026-04-25T08:30:59.938Z</time></trkpt><trkpt lat="43.7613817" lon="12.5444417"><ele>202.66666666666666</ele><time>2026-04-25T08:31:00.938Z</time></trkpt><trkpt lat="43.7612883" lon="12.5442583"><ele>202.0</ele><time>2026-04-25T08:31:01.938Z</time></trkpt><trkpt lat="43.7611917" lon="12.544075"><ele>202.0</ele><time>2026-04-25T08:31:02.937Z</time></trkpt><trkpt lat="43.761095" lon="12.5438917"><ele>202.0</ele><time>2026-04-25T08:31:03.937Z</time></trkpt><trkpt lat="43.7610017" lon="12.5437133"><ele>202.0</ele><time>2026-04-25T08:31:04.938Z</time></trkpt><trkpt lat="43.7609083" lon="12.5435367"><ele>202.33333333333331</ele><time>2026-04-25T08:31:05.937Z</time></trkpt><trkpt lat="43.7608117" lon="12.54337"><ele>202.66666666666669</ele><time>2026-04-25T08:31:06.938Z</time></trkpt><trkpt lat="43.7607117" lon="12.5432033"><ele>203.0</ele><time>2026-04-25T08:31:07.937Z</time></trkpt><trkpt lat="43.7606133" lon="12.543035"><ele>201.0</ele><time>2026-04-25T08:31:08.938Z</time></trkpt><trkpt lat="43.7605233" lon="12.54287"><ele>199.0</ele><time>2026-04-25T08:31:09.938Z</time></trkpt><trkpt lat="43.7604283" lon="12.5427183"><ele>197.0</ele><time>2026-04-25T08:31:10.938Z</time></trkpt><trkpt lat="43.7603233" lon="12.54258"><ele>195.0</ele><time>2026-04-25T08:31:11.938Z</time></trkpt><trkpt lat="43.7602" lon="12.54245"><ele>199.33333333333331</ele><time>2026-04-25T08:31:12.938Z</time></trkpt><trkpt lat="43.7600633" lon="12.5423233"><ele>203.66666666666666</ele><time>2026-04-25T08:31:13.938Z</time></trkpt><trkpt lat="43.7599217" lon="12.5421917"><ele>208.0</ele><time>2026-04-25T08:31:14.937Z</time></trkpt><trkpt lat="43.7597783" lon="12.5420567"><ele>210.33333333333331</ele><time>2026-04-25T08:31:15.938Z</time></trkpt><trkpt lat="43.7596317" lon="12.54192"><ele>212.66666666666669</ele><time>2026-04-25T08:31:16.938Z</time></trkpt><trkpt lat="43.7594817" lon="12.541785"><ele>215.0</ele><time>2026-04-25T08:31:17.938Z</time></trkpt><trkpt lat="43.7593317" lon="12.54165"><ele>215.0</ele><time>2026-04-25T08:31:18.938Z</time></trkpt><trkpt lat="43.7591717" lon="12.5415183"><ele>215.0</ele><time>2026-04-25T08:31:19.938Z</time></trkpt><trkpt lat="43.759015" lon="12.54139"><ele>215.0</ele><time>2026-04-25T08:31:20.937Z</time></trkpt><trkpt lat="43.7588533" lon="12.54126"><ele>215.66666666666669</ele><time>2026-04-25T08:31:21.938Z</time></trkpt><trkpt lat="43.7587017" lon="12.5411317"><ele>216.33333333333331</ele><time>2026-04-25T08:31:22.938Z</time></trkpt><trkpt lat="43.75856" lon="12.541005"><ele>217.0</ele><time>2026-04-25T08:31:23.937Z</time></trkpt><trkpt lat="43.7584317" lon="12.5408683"><ele>217.0</ele><time>2026-04-25T08:31:24.937Z</time></trkpt><trkpt lat="43.75832" lon="12.5407233"><ele>217.0</ele><time>2026-04-25T08:31:25.937Z</time></trkpt><trkpt lat="43.7582267" lon="12.5405633"><ele>217.0</ele><time>2026-04-25T08:31:26.937Z</time></trkpt><trkpt lat="43.758145" lon="12.540385"><ele>213.0</ele><time>2026-04-25T08:31:27.937Z</time></trkpt><trkpt lat="43.758075" lon="12.54019"><ele>209.0</ele><time>2026-04-25T08:31:28.936Z</time></trkpt><trkpt lat="43.7580167" lon="12.539995"><ele>205.0</ele><time>2026-04-25T08:31:29.937Z</time></trkpt><trkpt lat="43.7579633" lon="12.5398067"><ele>205.0</ele><time>2026-04-25T08:31:30.937Z</time></trkpt><trkpt lat="43.7579117" lon="12.539625"><ele>205.0</ele><time>2026-04-25T08:31:31.937Z</time></trkpt><trkpt lat="43.7578633" lon="12.53944"><ele>205.0</ele><time>2026-04-25T08:31:32.936Z</time></trkpt><trkpt lat="43.75782" lon="12.5392433"><ele>205.0</ele><time>2026-04-25T08:31:33.937Z</time></trkpt><trkpt lat="43.7577883" lon="12.5390417"><ele>204.0</ele><time>2026-04-25T08:31:34.937Z</time></trkpt><trkpt lat="43.7577617" lon="12.5388333"><ele>203.0</ele><time>2026-04-25T08:31:35.937Z</time></trkpt><trkpt lat="43.7577383" lon="12.5386267"><ele>202.0</ele><time>2026-04-25T08:31:36.937Z</time></trkpt><trkpt lat="43.7577183" lon="12.5384333"><ele>201.0</ele><time>2026-04-25T08:31:37.937Z</time></trkpt><trkpt lat="43.7576917" lon="12.5382517"><ele>201.0</ele><time>2026-04-25T08:31:38.936Z</time></trkpt><trkpt lat="43.7576517" lon="12.5380783"><ele>201.0</ele><time>2026-04-25T08:31:39.937Z</time></trkpt><trkpt lat="43.7575933" lon="12.5379267"><ele>201.0</ele><time>2026-04-25T08:31:40.937Z</time></trkpt><trkpt lat="43.757505" lon="12.5378"><ele>201.0</ele><time>2026-04-25T08:31:41.936Z</time></trkpt><trkpt lat="43.7574033" lon="12.5376767"><ele>201.75</ele><time>2026-04-25T08:31:42.937Z</time></trkpt><trkpt lat="43.75729" lon="12.5375533"><ele>202.5</ele><time>2026-04-25T08:31:43.937Z</time></trkpt><trkpt lat="43.7571733" lon="12.537445"><ele>203.25</ele><time>2026-04-25T08:31:44.937Z</time></trkpt><trkpt lat="43.7570467" lon="12.5373617"><ele>204.0</ele><time>2026-04-25T08:31:45.936Z</time></trkpt><trkpt lat="43.7569017" lon="12.5373183"><ele>203.66666666666669</ele><time>2026-04-25T08:31:46.937Z</time></trkpt><trkpt lat="43.75675" lon="12.537295"><ele>203.33333333333334</ele><time>2026-04-25T08:31:47.937Z</time></trkpt><trkpt lat="43.7565883" lon="12.53728"><ele>203.0</ele><time>2026-04-25T08:31:48.937Z</time></trkpt><trkpt lat="43.7564117" lon="12.5372633"><ele>203.0</ele><time>2026-04-25T08:31:49.937Z</time></trkpt><trkpt lat="43.756235" lon="12.53725"><ele>203.0</ele><time>2026-04-25T08:31:50.936Z</time></trkpt><trkpt lat="43.7560717" lon="12.5372333"><ele>203.0</ele><time>2026-04-25T08:31:51.937Z</time></trkpt><trkpt lat="43.755925" lon="12.5372117"><ele>202.75</ele><time>2026-04-25T08:31:52.937Z</time></trkpt><trkpt lat="43.7558017" lon="12.5371717"><ele>202.5</ele><time>2026-04-25T08:31:53.937Z</time></trkpt><trkpt lat="43.7556867" lon="12.5371067"><ele>202.25</ele><time>2026-04-25T08:31:54.936Z</time></trkpt><trkpt lat="43.7555733" lon="12.5370133"><ele>202.0</ele><time>2026-04-25T08:31:55.937Z</time></trkpt><trkpt lat="43.7554583" lon="12.5368983"><ele>202.75</ele><time>2026-04-25T08:31:56.936Z</time></trkpt><trkpt lat="43.7553483" lon="12.5367733"><ele>203.5</ele><time>2026-04-25T08:31:57.937Z</time></trkpt><trkpt lat="43.7552517" lon="12.53664"><ele>204.25</ele><time>2026-04-25T08:31:58.936Z</time></trkpt><trkpt lat="43.7551617" lon="12.5365067"><ele>205.0</ele><time>2026-04-25T08:31:59.937Z</time></trkpt><trkpt lat="43.755065" lon="12.5363833"><ele>205.0</ele><time>2026-04-25T08:32:00.937Z</time></trkpt><trkpt lat="43.7549483" lon="12.5362767"><ele>205.0</ele><time>2026-04-25T08:32:01.936Z</time></trkpt><trkpt lat="43.7548117" lon="12.536185"><ele>205.0</ele><time>2026-04-25T08:32:02.937Z</time></trkpt><trkpt lat="43.754665" lon="12.5361083"><ele>205.0</ele><time>2026-04-25T08:32:03.937Z</time></trkpt><trkpt lat="43.75452" lon="12.5360483"><ele>208.0</ele><time>2026-04-25T08:32:04.936Z</time></trkpt><trkpt lat="43.7543733" lon="12.5360033"><ele>211.0</ele><time>2026-04-25T08:32:05.937Z</time></trkpt><trkpt lat="43.7542217" lon="12.5359917"><ele>214.0</ele><time>2026-04-25T08:32:06.937Z</time></trkpt><trkpt lat="43.75407" lon="12.535995"><ele>214.0</ele><time>2026-04-25T08:32:07.936Z</time></trkpt><trkpt lat="43.7539233" lon="12.5360083"><ele>214.0</ele><time>2026-04-25T08:32:08.936Z</time></trkpt><trkpt lat="43.7537783" lon="12.5360217"><ele>214.0</ele><time>2026-04-25T08:32:09.936Z</time></trkpt><trkpt lat="43.75364" lon="12.5360133"><ele>214.0</ele><time>2026-04-25T08:32:10.937Z</time></trkpt><trkpt lat="43.7535117" lon="12.53598"><ele>212.5</ele><time>2026-04-25T08:32:11.936Z</time></trkpt><trkpt lat="43.7533917" lon="12.5359083"><ele>211.0</ele><time>2026-04-25T08:32:12.936Z</time></trkpt><trkpt lat="43.7532733" lon="12.535805"><ele>209.5</ele><time>2026-04-25T08:32:13.937Z</time></trkpt><trkpt lat="43.7531567" lon="12.5356767"><ele>208.0</ele><time>2026-04-25T08:32:14.937Z</time></trkpt><trkpt lat="43.75305" lon="12.53554"><ele>208.0</ele><time>2026-04-25T08:32:15.937Z</time></trkpt><trkpt lat="43.75295" lon="12.5353933"><ele>208.0</ele><time>2026-04-25T08:32:16.936Z</time></trkpt><trkpt lat="43.75287" lon="12.5352183"><ele>208.0</ele><time>2026-04-25T08:32:17.937Z</time></trkpt><trkpt lat="43.752805" lon="12.53502"><ele>207.0</ele><time>2026-04-25T08:32:18.936Z</time></trkpt><trkpt lat="43.7527433" lon="12.5348133"><ele>206.0</ele><time>2026-04-25T08:32:19.937Z</time></trkpt><trkpt lat="43.7526767" lon="12.534605"><ele>205.0</ele><time>2026-04-25T08:32:20.937Z</time></trkpt><trkpt lat="43.7526" lon="12.5343917"><ele>205.0</ele><time>2026-04-25T08:32:21.937Z</time></trkpt><trkpt lat="43.7525217" lon="12.5341733"><ele>205.0</ele><time>2026-04-25T08:32:22.937Z</time></trkpt><trkpt lat="43.752445" lon="12.5339567"><ele>205.0</ele><time>2026-04-25T08:32:23.937Z</time></trkpt><trkpt lat="43.75237" lon="12.5337617"><ele>206.75</ele><time>2026-04-25T08:32:24.937Z</time></trkpt><trkpt lat="43.7523067" lon="12.5335883"><ele>208.5</ele><time>2026-04-25T08:32:25.937Z</time></trkpt><trkpt lat="43.7522567" lon="12.5334267"><ele>210.25</ele><time>2026-04-25T08:32:26.937Z</time></trkpt><trkpt lat="43.75223" lon="12.5332633"><ele>212.0</ele><time>2026-04-25T08:32:27.937Z</time></trkpt><trkpt lat="43.7522367" lon="12.5331033"><ele>212.0</ele><time>2026-04-25T08:32:28.937Z</time></trkpt><trkpt lat="43.7522667" lon="12.5329617"><ele>212.0</ele><time>2026-04-25T08:32:29.937Z</time></trkpt><trkpt lat="43.7523083" lon="12.5328217"><ele>212.0</ele><time>2026-04-25T08:32:30.937Z</time></trkpt><trkpt lat="43.7523433" lon="12.532685"><ele>212.0</ele><time>2026-04-25T08:32:31.937Z</time></trkpt><trkpt lat="43.7523433" lon="12.532555"><ele>212.0</ele><time>2026-04-25T08:32:32.937Z</time></trkpt><trkpt lat="43.7523117" lon="12.5324333"><ele>214.25</ele><time>2026-04-25T08:32:33.937Z</time></trkpt><trkpt lat="43.7522567" lon="12.5323233"><ele>216.5</ele><time>2026-04-25T08:32:34.937Z</time></trkpt><trkpt lat="43.75219" lon="12.5322133"><ele>218.75</ele><time>2026-04-25T08:32:35.937Z</time></trkpt><trkpt lat="43.75211" lon="12.5320967"><ele>221.0</ele><time>2026-04-25T08:32:36.937Z</time></trkpt><trkpt lat="43.7520133" lon="12.53196"><ele>221.66666666666669</ele><time>2026-04-25T08:32:37.937Z</time></trkpt><trkpt lat="43.751905" lon="12.5318083"><ele>222.33333333333331</ele><time>2026-04-25T08:32:38.937Z</time></trkpt><trkpt lat="43.7517883" lon="12.531645"><ele>223.0</ele><time>2026-04-25T08:32:39.937Z</time></trkpt><trkpt lat="43.75167" lon="12.5314833"><ele>223.0</ele><time>2026-04-25T08:32:40.937Z</time></trkpt><trkpt lat="43.75154" lon="12.5313183"><ele>223.0</ele><time>2026-04-25T08:32:41.937Z</time></trkpt><trkpt lat="43.751405" lon="12.5311567"><ele>223.0</ele><time>2026-04-25T08:32:42.937Z</time></trkpt><trkpt lat="43.7512667" lon="12.531005"><ele>223.33333333333331</ele><time>2026-04-25T08:32:43.937Z</time></trkpt><trkpt lat="43.751125" lon="12.5308617"><ele>223.66666666666669</ele><time>2026-04-25T08:32:44.936Z</time></trkpt><trkpt lat="43.7509867" lon="12.5307167"><ele>224.0</ele><time>2026-04-25T08:32:45.937Z</time></trkpt><trkpt lat="43.7508417" lon="12.5305717"><ele>224.0</ele><time>2026-04-25T08:32:46.937Z</time></trkpt><trkpt lat="43.7506967" lon="12.5304283"><ele>224.0</ele><time>2026-04-25T08:32:47.937Z</time></trkpt><trkpt lat="43.7505467" lon="12.5302817"><ele>224.0</ele><time>2026-04-25T08:32:48.937Z</time></trkpt><trkpt lat="43.7503983" lon="12.530135"><ele>225.33333333333334</ele><time>2026-04-25T08:32:49.936Z</time></trkpt><trkpt lat="43.7502567" lon="12.5299917"><ele>226.66666666666669</ele><time>2026-04-25T08:32:50.936Z</time></trkpt><trkpt lat="43.75011" lon="12.529845"><ele>228.0</ele><time>2026-04-25T08:32:51.937Z</time></trkpt><trkpt lat="43.74996" lon="12.5296883"><ele>232.0</ele><time>2026-04-25T08:32:52.937Z</time></trkpt><trkpt lat="43.749815" lon="12.529525"><ele>236.0</ele><time>2026-04-25T08:32:53.936Z</time></trkpt><trkpt lat="43.7496767" lon="12.5293717"><ele>240.0</ele><time>2026-04-25T08:32:54.937Z</time></trkpt><trkpt lat="43.74955" lon="12.5292367"><ele>240.0</ele><time>2026-04-25T08:32:55.936Z</time></trkpt><trkpt lat="43.749425" lon="12.52912"><ele>240.0</ele><time>2026-04-25T08:32:56.937Z</time></trkpt><trkpt lat="43.7492867" lon="12.5290283"><ele>240.0</ele><time>2026-04-25T08:32:57.937Z</time></trkpt><trkpt lat="43.7491333" lon="12.5289533"><ele>239.33333333333331</ele><time>2026-04-25T08:32:58.937Z</time></trkpt><trkpt lat="43.7489717" lon="12.528885"><ele>238.66666666666666</ele><time>2026-04-25T08:32:59.936Z</time></trkpt><trkpt lat="43.7488067" lon="12.528835"><ele>238.0</ele><time>2026-04-25T08:33:00.937Z</time></trkpt><trkpt lat="43.7486567" lon="12.5288017"><ele>236.0</ele><time>2026-04-25T08:33:01.937Z</time></trkpt><trkpt lat="43.7485167" lon="12.5287833"><ele>234.0</ele><time>2026-04-25T08:33:02.937Z</time></trkpt><trkpt lat="43.7483867" lon="12.5287533"><ele>232.0</ele><time>2026-04-25T08:33:03.937Z</time></trkpt><trkpt lat="43.7482633" lon="12.5286967"><ele>230.0</ele><time>2026-04-25T08:33:04.937Z</time></trkpt><trkpt lat="43.7481383" lon="12.52861"><ele>233.25</ele><time>2026-04-25T08:33:05.936Z</time></trkpt><trkpt lat="43.7480183" lon="12.5285117"><ele>236.5</ele><time>2026-04-25T08:33:06.937Z</time></trkpt><trkpt lat="43.7478967" lon="12.5284133"><ele>239.75</ele><time>2026-04-25T08:33:07.936Z</time></trkpt><trkpt lat="43.747765" lon="12.528325"><ele>243.0</ele><time>2026-04-25T08:33:08.937Z</time></trkpt><trkpt lat="43.7476167" lon="12.528265"><ele>243.0</ele><time>2026-04-25T08:33:09.936Z</time></trkpt><trkpt lat="43.747455" lon="12.5282283"><ele>243.0</ele><time>2026-04-25T08:33:10.937Z</time></trkpt><trkpt lat="43.747285" lon="12.5281983"><ele>243.0</ele><time>2026-04-25T08:33:11.937Z</time></trkpt><trkpt lat="43.747115" lon="12.52816"><ele>243.0</ele><time>2026-04-25T08:33:12.936Z</time></trkpt><trkpt lat="43.746955" lon="12.5281067"><ele>243.0</ele><time>2026-04-25T08:33:13.937Z</time></trkpt><trkpt lat="43.7468033" lon="12.5280367"><ele>243.0</ele><time>2026-04-25T08:33:14.937Z</time></trkpt><trkpt lat="43.7466667" lon="12.5279517"><ele>247.0</ele><time>2026-04-25T08:33:15.937Z</time></trkpt><trkpt lat="43.7465417" lon="12.5278483"><ele>251.0</ele><time>2026-04-25T08:33:16.936Z</time></trkpt><trkpt lat="43.7464283" lon="12.5277233"><ele>255.0</ele><time>2026-04-25T08:33:17.937Z</time></trkpt><trkpt lat="43.7463167" lon="12.5276"><ele>259.0</ele><time>2026-04-25T08:33:18.936Z</time></trkpt><trkpt lat="43.7461967" lon="12.5275017"><ele>259.0</ele><time>2026-04-25T08:33:19.937Z</time></trkpt><trkpt lat="43.74607" lon="12.5274383"><ele>259.0</ele><time>2026-04-25T08:33:20.937Z</time></trkpt><trkpt lat="43.7459483" lon="12.5274033"><ele>259.0</ele><time>2026-04-25T08:33:21.937Z</time></trkpt><trkpt lat="43.7458383" lon="12.5273683"><ele>259.0</ele><time>2026-04-25T08:33:22.937Z</time></trkpt><trkpt lat="43.74574" lon="12.5273067"><ele>257.8</ele><time>2026-04-25T08:33:23.937Z</time></trkpt><trkpt lat="43.7456583" lon="12.5272167"><ele>256.59999999999997</ele><time>2026-04-25T08:33:24.936Z</time></trkpt><trkpt lat="43.74561" lon="12.5271033"><ele>255.4</ele><time>2026-04-25T08:33:25.937Z</time></trkpt><trkpt lat="43.7455867" lon="12.52697"><ele>254.2</ele><time>2026-04-25T08:33:26.937Z</time></trkpt><trkpt lat="43.74559" lon="12.5268217"><ele>253.0</ele><time>2026-04-25T08:33:27.937Z</time></trkpt><trkpt lat="43.7456117" lon="12.52666"><ele>253.0</ele><time>2026-04-25T08:33:28.937Z</time></trkpt><trkpt lat="43.74564" lon="12.5265017"><ele>253.0</ele><time>2026-04-25T08:33:29.937Z</time></trkpt><trkpt lat="43.74566" lon="12.52636"><ele>253.0</ele><time>2026-04-25T08:33:30.937Z</time></trkpt><trkpt lat="43.74566" lon="12.5262417"><ele>253.0</ele><time>2026-04-25T08:33:31.937Z</time></trkpt><trkpt lat="43.74564" lon="12.5261417"><ele>253.0</ele><time>2026-04-25T08:33:32.937Z</time></trkpt><trkpt lat="43.74552" lon="12.5260617"><ele>253.0</ele><time>2026-04-25T08:33:34.937Z</time></trkpt><trkpt lat="43.745435" lon="12.5261067"><ele>253.0</ele><time>2026-04-25T08:33:35.937Z</time></trkpt><trkpt lat="43.7453583" lon="12.52624"><ele>253.0</ele><time>2026-04-25T08:33:36.937Z</time></trkpt><trkpt lat="43.7452833" lon="12.52638"><ele>253.0</ele><time>2026-04-25T08:33:37.937Z</time></trkpt><trkpt lat="43.7452167" lon="12.52649"><ele>253.0</ele><time>2026-04-25T08:33:38.937Z</time></trkpt><trkpt lat="43.7451483" lon="12.5265517"><ele>253.99999999999997</ele><time>2026-04-25T08:33:39.937Z</time></trkpt><trkpt lat="43.745085" lon="12.5265617"><ele>255.0</ele><time>2026-04-25T08:33:40.936Z</time></trkpt><trkpt lat="43.7450283" lon="12.52652"><ele>256.0</ele><time>2026-04-25T08:33:41.936Z</time></trkpt><trkpt lat="43.7449833" lon="12.52644"><ele>257.0</ele><time>2026-04-25T08:33:42.936Z</time></trkpt><trkpt lat="43.744945" lon="12.5263283"><ele>258.0</ele><time>2026-04-25T08:33:43.936Z</time></trkpt><trkpt lat="43.7449067" lon="12.52619"><ele>259.0</ele><time>2026-04-25T08:33:44.936Z</time></trkpt><trkpt lat="43.7448517" lon="12.526055"><ele>259.0</ele><time>2026-04-25T08:33:45.937Z</time></trkpt><trkpt lat="43.7447717" lon="12.525935"><ele>259.0</ele><time>2026-04-25T08:33:46.936Z</time></trkpt><trkpt lat="43.7446683" lon="12.5258417"><ele>259.0</ele><time>2026-04-25T08:33:47.937Z</time></trkpt><trkpt lat="43.744545" lon="12.5257667"><ele>259.0</ele><time>2026-04-25T08:33:48.937Z</time></trkpt><trkpt lat="43.7444067" lon="12.525695"><ele>253.75</ele><time>2026-04-25T08:33:49.937Z</time></trkpt><trkpt lat="43.7442667" lon="12.5256333"><ele>248.5</ele><time>2026-04-25T08:33:50.936Z</time></trkpt><trkpt lat="43.7441317" lon="12.5255817"><ele>243.25</ele><time>2026-04-25T08:33:51.937Z</time></trkpt><trkpt lat="43.7439967" lon="12.52551"><ele>238.0</ele><time>2026-04-25T08:33:52.937Z</time></trkpt><trkpt lat="43.7438617" lon="12.52542"><ele>242.66666666666666</ele><time>2026-04-25T08:33:53.937Z</time></trkpt><trkpt lat="43.7437183" lon="12.5253267"><ele>247.33333333333331</ele><time>2026-04-25T08:33:54.937Z</time></trkpt><trkpt lat="43.743565" lon="12.5252467"><ele>252.0</ele><time>2026-04-25T08:33:55.936Z</time></trkpt><trkpt lat="43.7434033" lon="12.5251733"><ele>252.0</ele><time>2026-04-25T08:33:56.937Z</time></trkpt><trkpt lat="43.7432433" lon="12.5251167"><ele>252.0</ele><time>2026-04-25T08:33:57.937Z</time></trkpt><trkpt lat="43.74308" lon="12.5250933"><ele>252.0</ele><time>2026-04-25T08:33:58.937Z</time></trkpt><trkpt lat="43.7429183" lon="12.52509"><ele>252.0</ele><time>2026-04-25T08:33:59.937Z</time></trkpt><trkpt lat="43.742765" lon="12.5250917"><ele>252.0</ele><time>2026-04-25T08:34:00.936Z</time></trkpt><trkpt lat="43.7426183" lon="12.5250983"><ele>252.0</ele><time>2026-04-25T08:34:01.937Z</time></trkpt><trkpt lat="43.7424833" lon="12.5250917"><ele>252.0</ele><time>2026-04-25T08:34:02.936Z</time></trkpt><trkpt lat="43.7423517" lon="12.5250683"><ele>249.25</ele><time>2026-04-25T08:34:03.937Z</time></trkpt><trkpt lat="43.7422183" lon="12.5250267"><ele>246.5</ele><time>2026-04-25T08:34:04.936Z</time></trkpt><trkpt lat="43.7420833" lon="12.524975"><ele>243.75</ele><time>2026-04-25T08:34:05.937Z</time></trkpt><trkpt lat="43.7419517" lon="12.5249267"><ele>241.0</ele><time>2026-04-25T08:34:06.937Z</time></trkpt><trkpt lat="43.7418217" lon="12.5249"><ele>238.25</ele><time>2026-04-25T08:34:07.936Z</time></trkpt><trkpt lat="43.741695" lon="12.5249"><ele>235.5</ele><time>2026-04-25T08:34:08.937Z</time></trkpt><trkpt lat="43.7415717" lon="12.5249217"><ele>232.75</ele><time>2026-04-25T08:34:09.937Z</time></trkpt><trkpt lat="43.7414583" lon="12.5249333"><ele>230.0</ele><time>2026-04-25T08:34:10.937Z</time></trkpt><trkpt lat="43.741355" lon="12.5249067"><ele>230.0</ele><time>2026-04-25T08:34:11.937Z</time></trkpt><trkpt lat="43.7412683" lon="12.5248283"><ele>230.0</ele><time>2026-04-25T08:34:12.937Z</time></trkpt><trkpt lat="43.7411967" lon="12.52471"><ele>230.0</ele><time>2026-04-25T08:34:13.936Z</time></trkpt><trkpt lat="43.7411417" lon="12.52458"><ele>230.0</ele><time>2026-04-25T08:34:14.937Z</time></trkpt><trkpt lat="43.7410883" lon="12.524465"><ele>230.0</ele><time>2026-04-25T08:34:15.936Z</time></trkpt><trkpt lat="43.7410167" lon="12.5244"><ele>231.4</ele><time>2026-04-25T08:34:16.937Z</time></trkpt><trkpt lat="43.7409283" lon="12.5243917"><ele>232.8</ele><time>2026-04-25T08:34:17.937Z</time></trkpt><trkpt lat="43.7408283" lon="12.5244167"><ele>234.2</ele><time>2026-04-25T08:34:18.936Z</time></trkpt><trkpt lat="43.7407267" lon="12.5244333"><ele>235.6</ele><time>2026-04-25T08:34:19.937Z</time></trkpt><trkpt lat="43.7406233" lon="12.5244033"><ele>237.0</ele><time>2026-04-25T08:34:20.937Z</time></trkpt><trkpt lat="43.740515" lon="12.524325"><ele>237.0</ele><time>2026-04-25T08:34:21.937Z</time></trkpt><trkpt lat="43.7403967" lon="12.5242133"><ele>237.0</ele><time>2026-04-25T08:34:22.936Z</time></trkpt><trkpt lat="43.7402617" lon="12.5240883"><ele>237.0</ele><time>2026-04-25T08:34:23.937Z</time></trkpt><trkpt lat="43.7401067" lon="12.5239717"><ele>234.66666666666669</ele><time>2026-04-25T08:34:24.937Z</time></trkpt><trkpt lat="43.7399433" lon="12.52388"><ele>232.33333333333334</ele><time>2026-04-25T08:34:25.936Z</time></trkpt><trkpt lat="43.7397883" lon="12.5238133"><ele>230.0</ele><time>2026-04-25T08:34:26.937Z</time></trkpt><trkpt lat="43.739655" lon="12.52376"><ele>230.2</ele><time>2026-04-25T08:34:27.937Z</time></trkpt><trkpt lat="43.7395433" lon="12.5237117"><ele>230.4</ele><time>2026-04-25T08:34:28.937Z</time></trkpt><trkpt lat="43.739445" lon="12.5236917"><ele>230.60000000000002</ele><time>2026-04-25T08:34:29.937Z</time></trkpt><trkpt lat="43.73936" lon="12.5237083"><ele>230.8</ele><time>2026-04-25T08:34:30.937Z</time></trkpt><trkpt lat="43.7392817" lon="12.5237633"><ele>231.0</ele><time>2026-04-25T08:34:31.936Z</time></trkpt><trkpt lat="43.7391917" lon="12.52385"><ele>231.0</ele><time>2026-04-25T08:34:32.937Z</time></trkpt><trkpt lat="43.7390917" lon="12.52392"><ele>231.00000000000003</ele><time>2026-04-25T08:34:33.937Z</time></trkpt><trkpt lat="43.7389817" lon="12.5239517"><ele>231.00000000000003</ele><time>2026-04-25T08:34:34.937Z</time></trkpt><trkpt lat="43.7388767" lon="12.523935"><ele>231.0</ele><time>2026-04-25T08:34:35.937Z</time></trkpt><trkpt lat="43.7387817" lon="12.5238683"><ele>231.0</ele><time>2026-04-25T08:34:36.937Z</time></trkpt><trkpt lat="43.73868" lon="12.5237667"><ele>233.25</ele><time>2026-04-25T08:34:37.937Z</time></trkpt><trkpt lat="43.738575" lon="12.5236433"><ele>235.5</ele><time>2026-04-25T08:34:38.937Z</time></trkpt><trkpt lat="43.7384717" lon="12.5235167"><ele>237.75</ele><time>2026-04-25T08:34:39.937Z</time></trkpt><trkpt lat="43.7383817" lon="12.5233833"><ele>240.0</ele><time>2026-04-25T08:34:40.937Z</time></trkpt><trkpt lat="43.7383117" lon="12.52324"><ele>240.0</ele><time>2026-04-25T08:34:41.937Z</time></trkpt><trkpt lat="43.7382633" lon="12.523085"><ele>240.0</ele><time>2026-04-25T08:34:42.937Z</time></trkpt><trkpt lat="43.7382367" lon="12.522925"><ele>240.0</ele><time>2026-04-25T08:34:43.936Z</time></trkpt><trkpt lat="43.7382133" lon="12.5227717"><ele>240.0</ele><time>2026-04-25T08:34:44.937Z</time></trkpt><trkpt lat="43.73817" lon="12.52264"><ele>243.75</ele><time>2026-04-25T08:34:45.937Z</time></trkpt><trkpt lat="43.7381" lon="12.5225383"><ele>247.5</ele><time>2026-04-25T08:34:46.936Z</time></trkpt><trkpt lat="43.738005" lon="12.5224633"><ele>251.25</ele><time>2026-04-25T08:34:47.937Z</time></trkpt><trkpt lat="43.7378933" lon="12.5224167"><ele>255.0</ele><time>2026-04-25T08:34:48.937Z</time></trkpt><trkpt lat="43.7377633" lon="12.5224033"><ele>252.5</ele><time>2026-04-25T08:34:49.937Z</time></trkpt><trkpt lat="43.7376333" lon="12.522415"><ele>250.0</ele><time>2026-04-25T08:34:50.936Z</time></trkpt><trkpt lat="43.7375083" lon="12.5224317"><ele>247.5</ele><time>2026-04-25T08:34:51.936Z</time></trkpt><trkpt lat="43.737385" lon="12.5224417"><ele>245.0</ele><time>2026-04-25T08:34:52.936Z</time></trkpt><trkpt lat="43.7372683" lon="12.52242"><ele>245.0</ele><time>2026-04-25T08:34:53.937Z</time></trkpt><trkpt lat="43.7371733" lon="12.5223533"><ele>245.0</ele><time>2026-04-25T08:34:54.937Z</time></trkpt><trkpt lat="43.7370933" lon="12.522245"><ele>245.0</ele><time>2026-04-25T08:34:55.937Z</time></trkpt><trkpt lat="43.7370117" lon="12.522115"><ele>245.0</ele><time>2026-04-25T08:34:56.937Z</time></trkpt><trkpt lat="43.73693" lon="12.5219467"><ele>244.25</ele><time>2026-04-25T08:34:57.936Z</time></trkpt><trkpt lat="43.73681" lon="12.521835"><ele>243.5</ele><time>2026-04-25T08:34:58.937Z</time></trkpt><trkpt lat="43.7366717" lon="12.5217483"><ele>242.75</ele><time>2026-04-25T08:34:59.937Z</time></trkpt><trkpt lat="43.7365383" lon="12.5216583"><ele>242.0</ele><time>2026-04-25T08:35:00.937Z</time></trkpt><trkpt lat="43.7364167" lon="12.52157"><ele>242.0</ele><time>2026-04-25T08:35:01.937Z</time></trkpt><trkpt lat="43.736315" lon="12.5214833"><ele>242.0</ele><time>2026-04-25T08:35:02.937Z</time></trkpt><trkpt lat="43.73624" lon="12.5213967"><ele>242.0</ele><time>2026-04-25T08:35:03.937Z</time></trkpt><trkpt lat="43.7361917" lon="12.5212983"><ele>242.0</ele><time>2026-04-25T08:35:04.937Z</time></trkpt><trkpt lat="43.7361783" lon="12.5211933"><ele>242.0</ele><time>2026-04-25T08:35:05.937Z</time></trkpt><trkpt lat="43.73619" lon="12.5210767"><ele>241.0</ele><time>2026-04-25T08:35:06.937Z</time></trkpt><trkpt lat="43.7362067" lon="12.52095"><ele>240.0</ele><time>2026-04-25T08:35:07.937Z</time></trkpt><trkpt lat="43.7361967" lon="12.5208033"><ele>239.0</ele><time>2026-04-25T08:35:08.937Z</time></trkpt><trkpt lat="43.7361567" lon="12.520655"><ele>238.0</ele><time>2026-04-25T08:35:09.937Z</time></trkpt><trkpt lat="43.73609" lon="12.52052"><ele>237.0</ele><time>2026-04-25T08:35:10.937Z</time></trkpt><trkpt lat="43.7360033" lon="12.52041"><ele>241.5</ele><time>2026-04-25T08:35:11.937Z</time></trkpt><trkpt lat="43.7358967" lon="12.5203317"><ele>246.0</ele><time>2026-04-25T08:35:12.937Z</time></trkpt><trkpt lat="43.7357767" lon="12.520265"><ele>250.5</ele><time>2026-04-25T08:35:13.936Z</time></trkpt><trkpt lat="43.73566" lon="12.5202033"><ele>255.0</ele><time>2026-04-25T08:35:14.937Z</time></trkpt><trkpt lat="43.7355417" lon="12.5201617"><ele>255.0</ele><time>2026-04-25T08:35:15.937Z</time></trkpt><trkpt lat="43.7354217" lon="12.5201583"><ele>255.0</ele><time>2026-04-25T08:35:16.937Z</time></trkpt><trkpt lat="43.7353067" lon="12.5201983"><ele>255.0</ele><time>2026-04-25T08:35:17.936Z</time></trkpt><trkpt lat="43.7352067" lon="12.5202683"><ele>255.0</ele><time>2026-04-25T08:35:18.937Z</time></trkpt><trkpt lat="43.73512" lon="12.5203617"><ele>250.75</ele><time>2026-04-25T08:35:19.936Z</time></trkpt><trkpt lat="43.7350417" lon="12.5204883"><ele>246.5</ele><time>2026-04-25T08:35:20.936Z</time></trkpt><trkpt lat="43.7349817" lon="12.5206333"><ele>242.25</ele><time>2026-04-25T08:35:21.936Z</time></trkpt><trkpt lat="43.734925" lon="12.5207817"><ele>238.0</ele><time>2026-04-25T08:35:22.936Z</time></trkpt><trkpt lat="43.7348533" lon="12.5209217"><ele>238.0</ele><time>2026-04-25T08:35:23.937Z</time></trkpt><trkpt lat="43.73476" lon="12.5210283"><ele>238.0</ele><time>2026-04-25T08:35:24.936Z</time></trkpt><trkpt lat="43.7346383" lon="12.52109"><ele>238.0</ele><time>2026-04-25T08:35:25.937Z</time></trkpt><trkpt lat="43.7345233" lon="12.5211367"><ele>238.0</ele><time>2026-04-25T08:35:26.937Z</time></trkpt><trkpt lat="43.73439" lon="12.521155"><ele>237.25</ele><time>2026-04-25T08:35:27.936Z</time></trkpt><trkpt lat="43.7342583" lon="12.52117"><ele>236.5</ele><time>2026-04-25T08:35:28.937Z</time></trkpt><trkpt lat="43.7341217" lon="12.5211633"><ele>235.75</ele><time>2026-04-25T08:35:29.936Z</time></trkpt><trkpt lat="43.7339783" lon="12.5211517"><ele>235.0</ele><time>2026-04-25T08:35:30.937Z</time></trkpt><trkpt lat="43.7338467" lon="12.5211583"><ele>235.0</ele><time>2026-04-25T08:35:31.937Z</time></trkpt><trkpt lat="43.733715" lon="12.5211567"><ele>235.0</ele><time>2026-04-25T08:35:32.937Z</time></trkpt><trkpt lat="43.7335867" lon="12.5211017"><ele>235.0</ele><time>2026-04-25T08:35:33.937Z</time></trkpt><trkpt lat="43.733455" lon="12.521025"><ele>235.0</ele><time>2026-04-25T08:35:34.937Z</time></trkpt><trkpt lat="43.73332" lon="12.5209367"><ele>236.33333333333331</ele><time>2026-04-25T08:35:35.937Z</time></trkpt><trkpt lat="43.7331867" lon="12.5208417"><ele>237.66666666666669</ele><time>2026-04-25T08:35:36.937Z</time></trkpt><trkpt lat="43.7330517" lon="12.52075"><ele>239.0</ele><time>2026-04-25T08:35:37.937Z</time></trkpt><trkpt lat="43.7329133" lon="12.5206433"><ele>239.0</ele><time>2026-04-25T08:35:38.937Z</time></trkpt><trkpt lat="43.73278" lon="12.520505"><ele>239.0</ele><time>2026-04-25T08:35:39.937Z</time></trkpt><trkpt lat="43.732655" lon="12.5203533"><ele>239.0</ele><time>2026-04-25T08:35:40.937Z</time></trkpt><trkpt lat="43.73253" lon="12.5202"><ele>241.75</ele><time>2026-04-25T08:35:41.937Z</time></trkpt><trkpt lat="43.7324167" lon="12.5200433"><ele>244.5</ele><time>2026-04-25T08:35:42.937Z</time></trkpt><trkpt lat="43.73232" lon="12.5199"><ele>247.25</ele><time>2026-04-25T08:35:43.937Z</time></trkpt><trkpt lat="43.7322167" lon="12.51978"><ele>250.0</ele><time>2026-04-25T08:35:44.936Z</time></trkpt><trkpt lat="43.7321033" lon="12.51968"><ele>250.0</ele><time>2026-04-25T08:35:45.936Z</time></trkpt><trkpt lat="43.7319767" lon="12.5196317"><ele>250.0</ele><time>2026-04-25T08:35:46.937Z</time></trkpt><trkpt lat="43.7318533" lon="12.51961"><ele>250.0</ele><time>2026-04-25T08:35:47.937Z</time></trkpt><trkpt lat="43.7317617" lon="12.5195467"><ele>250.0</ele><time>2026-04-25T08:35:48.936Z</time></trkpt><trkpt lat="43.731705" lon="12.5194367"><ele>248.8</ele><time>2026-04-25T08:35:49.937Z</time></trkpt><trkpt lat="43.7316717" lon="12.5193017"><ele>247.6</ele><time>2026-04-25T08:35:50.937Z</time></trkpt><trkpt lat="43.7316533" lon="12.51915"><ele>246.39999999999998</ele><time>2026-04-25T08:35:51.938Z</time></trkpt><trkpt lat="43.731635" lon="12.5190067"><ele>245.2</ele><time>2026-04-25T08:35:52.937Z</time></trkpt><trkpt lat="43.731605" lon="12.5188817"><ele>244.0</ele><time>2026-04-25T08:35:53.937Z</time></trkpt><trkpt lat="43.7315467" lon="12.5187883"><ele>244.0</ele><time>2026-04-25T08:35:54.938Z</time></trkpt><trkpt lat="43.7314733" lon="12.518735"><ele>243.99999999999997</ele><time>2026-04-25T08:35:55.938Z</time></trkpt><trkpt lat="43.7313967" lon="12.5186933"><ele>243.99999999999997</ele><time>2026-04-25T08:35:56.938Z</time></trkpt><trkpt lat="43.7313067" lon="12.5186983"><ele>244.0</ele><time>2026-04-25T08:35:57.938Z</time></trkpt><trkpt lat="43.731205" lon="12.5187467"><ele>244.0</ele><time>2026-04-25T08:35:58.938Z</time></trkpt><trkpt lat="43.731095" lon="12.51882"><ele>244.0</ele><time>2026-04-25T08:35:59.938Z</time></trkpt><trkpt lat="43.7309833" lon="12.5189033"><ele>243.99999999999997</ele><time>2026-04-25T08:36:00.938Z</time></trkpt><trkpt lat="43.730875" lon="12.5189583"><ele>243.99999999999997</ele><time>2026-04-25T08:36:01.938Z</time></trkpt><trkpt lat="43.7307817" lon="12.5189583"><ele>244.0</ele><time>2026-04-25T08:36:02.938Z</time></trkpt><trkpt lat="43.7307033" lon="12.51891"><ele>244.0</ele><time>2026-04-25T08:36:03.938Z</time></trkpt><trkpt lat="43.7306383" lon="12.5188217"><ele>245.79999999999998</ele><time>2026-04-25T08:36:04.938Z</time></trkpt><trkpt lat="43.7305833" lon="12.5186967"><ele>247.59999999999997</ele><time>2026-04-25T08:36:05.938Z</time></trkpt><trkpt lat="43.7305283" lon="12.5185467"><ele>249.4</ele><time>2026-04-25T08:36:06.938Z</time></trkpt><trkpt lat="43.730475" lon="12.5183983"><ele>251.2</ele><time>2026-04-25T08:36:07.937Z</time></trkpt><trkpt lat="43.7304267" lon="12.518285"><ele>253.0</ele><time>2026-04-25T08:36:08.938Z</time></trkpt><trkpt lat="43.730385" lon="12.518215"><ele>252.99999999999997</ele><time>2026-04-25T08:36:09.938Z</time></trkpt><trkpt lat="43.7303183" lon="12.518195"><ele>253.0</ele><time>2026-04-25T08:36:11.937Z</time></trkpt><trkpt lat="43.7302533" lon="12.5182667"><ele>253.0</ele><time>2026-04-25T08:36:16.938Z</time></trkpt><trkpt lat="43.7301783" lon="12.5183533"><ele>253.0</ele><time>2026-04-25T08:36:18.938Z</time></trkpt><trkpt lat="43.7300783" lon="12.5183267"><ele>252.99999999999997</ele><time>2026-04-25T08:36:20.938Z</time></trkpt><trkpt lat="43.7300283" lon="12.518265"><ele>253.0</ele><time>2026-04-25T08:36:21.937Z</time></trkpt><trkpt lat="43.7299783" lon="12.5181933"><ele>251.99999999999997</ele><time>2026-04-25T08:36:22.938Z</time></trkpt><trkpt lat="43.7299233" lon="12.5181233"><ele>251.0</ele><time>2026-04-25T08:36:23.938Z</time></trkpt><trkpt lat="43.7298667" lon="12.5180617"><ele>250.0</ele><time>2026-04-25T08:36:24.938Z</time></trkpt><trkpt lat="43.7298017" lon="12.5180117"><ele>249.0</ele><time>2026-04-25T08:36:25.938Z</time></trkpt><trkpt lat="43.7297317" lon="12.517965"><ele>247.99999999999997</ele><time>2026-04-25T08:36:26.938Z</time></trkpt><trkpt lat="43.7296517" lon="12.5179167"><ele>247.0</ele><time>2026-04-25T08:36:27.938Z</time></trkpt><trkpt lat="43.7295617" lon="12.5178733"><ele>247.0</ele><time>2026-04-25T08:36:28.938Z</time></trkpt><trkpt lat="43.7294633" lon="12.5178383"><ele>247.0</ele><time>2026-04-25T08:36:29.937Z</time></trkpt><trkpt lat="43.7293633" lon="12.5178267"><ele>247.0</ele><time>2026-04-25T08:36:30.938Z</time></trkpt><trkpt lat="43.72927" lon="12.5178383"><ele>247.0</ele><time>2026-04-25T08:36:31.938Z</time></trkpt><trkpt lat="43.7291933" lon="12.5178767"><ele>247.0</ele><time>2026-04-25T08:36:32.938Z</time></trkpt><trkpt lat="43.729135" lon="12.5179383"><ele>247.0</ele><time>2026-04-25T08:36:33.938Z</time></trkpt><trkpt lat="43.7290883" lon="12.51802"><ele>247.0</ele><time>2026-04-25T08:36:34.938Z</time></trkpt><trkpt lat="43.729045" lon="12.518125"><ele>247.0</ele><time>2026-04-25T08:36:35.938Z</time></trkpt><trkpt lat="43.729005" lon="12.5182517"><ele>247.0</ele><time>2026-04-25T08:36:36.938Z</time></trkpt><trkpt lat="43.7289717" lon="12.5183833"><ele>247.0</ele><time>2026-04-25T08:36:37.938Z</time></trkpt><trkpt lat="43.72894" lon="12.5185167"><ele>247.0</ele><time>2026-04-25T08:36:38.937Z</time></trkpt><trkpt lat="43.7289083" lon="12.518655"><ele>247.0</ele><time>2026-04-25T08:36:39.938Z</time></trkpt><trkpt lat="43.7288733" lon="12.5188"><ele>247.0</ele><time>2026-04-25T08:36:40.937Z</time></trkpt><trkpt lat="43.728835" lon="12.5189567"><ele>247.0</ele><time>2026-04-25T08:36:41.938Z</time></trkpt><trkpt lat="43.7287967" lon="12.5191133"><ele>247.39999999999998</ele><time>2026-04-25T08:36:42.938Z</time></trkpt><trkpt lat="43.7287533" lon="12.51925"><ele>247.79999999999998</ele><time>2026-04-25T08:36:43.938Z</time></trkpt><trkpt lat="43.72869" lon="12.5193583"><ele>248.2</ele><time>2026-04-25T08:36:44.937Z</time></trkpt><trkpt lat="43.728605" lon="12.519435"><ele>248.6</ele><time>2026-04-25T08:36:45.938Z</time></trkpt><trkpt lat="43.7285033" lon="12.51947"><ele>249.0</ele><time>2026-04-25T08:36:46.938Z</time></trkpt><trkpt lat="43.7284" lon="12.5194633"><ele>249.6</ele><time>2026-04-25T08:36:47.938Z</time></trkpt><trkpt lat="43.7282967" lon="12.51943"><ele>250.2</ele><time>2026-04-25T08:36:48.938Z</time></trkpt><trkpt lat="43.7282017" lon="12.51939"><ele>250.79999999999998</ele><time>2026-04-25T08:36:49.938Z</time></trkpt><trkpt lat="43.7281117" lon="12.5193467"><ele>251.39999999999998</ele><time>2026-04-25T08:36:50.938Z</time></trkpt><trkpt lat="43.7280017" lon="12.5192983"><ele>252.0</ele><time>2026-04-25T08:36:51.938Z</time></trkpt><trkpt lat="43.72788" lon="12.5192433"><ele>252.0</ele><time>2026-04-25T08:36:52.938Z</time></trkpt><trkpt lat="43.72776" lon="12.51918"><ele>252.0</ele><time>2026-04-25T08:36:53.937Z</time></trkpt><trkpt lat="43.7276483" lon="12.519115"><ele>252.0</ele><time>2026-04-25T08:36:54.938Z</time></trkpt><trkpt lat="43.7275533" lon="12.5190483"><ele>252.0</ele><time>2026-04-25T08:36:55.938Z</time></trkpt><trkpt lat="43.7274867" lon="12.5189633"><ele>252.0</ele><time>2026-04-25T08:36:56.938Z</time></trkpt><trkpt lat="43.7274517" lon="12.51886"><ele>252.0</ele><time>2026-04-25T08:36:57.938Z</time></trkpt><trkpt lat="43.7274483" lon="12.5187367"><ele>252.0</ele><time>2026-04-25T08:36:58.937Z</time></trkpt><trkpt lat="43.72751" lon="12.5186317"><ele>252.0</ele><time>2026-04-25T08:36:59.938Z</time></trkpt><trkpt lat="43.7275883" lon="12.51853"><ele>252.0</ele><time>2026-04-25T08:37:00.938Z</time></trkpt><trkpt lat="43.7276767" lon="12.5184117"><ele>252.0</ele><time>2026-04-25T08:37:01.938Z</time></trkpt><trkpt lat="43.7277517" lon="12.518265"><ele>251.25</ele><time>2026-04-25T08:37:02.937Z</time></trkpt><trkpt lat="43.7278083" lon="12.518085"><ele>250.5</ele><time>2026-04-25T08:37:03.937Z</time></trkpt><trkpt lat="43.72787" lon="12.51791"><ele>249.75</ele><time>2026-04-25T08:37:04.938Z</time></trkpt><trkpt lat="43.7279217" lon="12.5177417"><ele>249.0</ele><time>2026-04-25T08:37:05.937Z</time></trkpt><trkpt lat="43.7279333" lon="12.5175583"><ele>248.5</ele><time>2026-04-25T08:37:06.938Z</time></trkpt><trkpt lat="43.7279317" lon="12.5173817"><ele>248.0</ele><time>2026-04-25T08:37:07.937Z</time></trkpt><trkpt lat="43.7278967" lon="12.5172183"><ele>247.5</ele><time>2026-04-25T08:37:08.937Z</time></trkpt><trkpt lat="43.727855" lon="12.5170667"><ele>247.0</ele><time>2026-04-25T08:37:09.936Z</time></trkpt><trkpt lat="43.7278017" lon="12.516935"><ele>247.39999999999998</ele><time>2026-04-25T08:37:10.936Z</time></trkpt><trkpt lat="43.7277167" lon="12.5168333"><ele>247.79999999999998</ele><time>2026-04-25T08:37:11.937Z</time></trkpt><trkpt lat="43.7276283" lon="12.51676"><ele>248.2</ele><time>2026-04-25T08:37:12.937Z</time></trkpt><trkpt lat="43.72753" lon="12.5167317"><ele>248.6</ele><time>2026-04-25T08:37:13.937Z</time></trkpt><trkpt lat="43.7274367" lon="12.516735"><ele>249.0</ele><time>2026-04-25T08:37:14.936Z</time></trkpt><trkpt lat="43.7273467" lon="12.5168"><ele>249.0</ele><time>2026-04-25T08:37:15.937Z</time></trkpt><trkpt lat="43.72726" lon="12.5168767"><ele>248.99999999999997</ele><time>2026-04-25T08:37:16.937Z</time></trkpt><trkpt lat="43.7271717" lon="12.51693"><ele>248.99999999999997</ele><time>2026-04-25T08:37:17.937Z</time></trkpt><trkpt lat="43.7270717" lon="12.5169583"><ele>249.0</ele><time>2026-04-25T08:37:18.936Z</time></trkpt><trkpt lat="43.7269633" lon="12.5169467"><ele>249.0</ele><time>2026-04-25T08:37:19.937Z</time></trkpt><trkpt lat="43.72685" lon="12.516875"><ele>252.25</ele><time>2026-04-25T08:37:20.936Z</time></trkpt><trkpt lat="43.726745" lon="12.51677"><ele>255.5</ele><time>2026-04-25T08:37:21.937Z</time></trkpt><trkpt lat="43.726645" lon="12.5166283"><ele>258.75</ele><time>2026-04-25T08:37:22.937Z</time></trkpt><trkpt lat="43.72654" lon="12.516465"><ele>262.0</ele><time>2026-04-25T08:37:23.936Z</time></trkpt><trkpt lat="43.7264367" lon="12.51629"><ele>259.5</ele><time>2026-04-25T08:37:24.937Z</time></trkpt><trkpt lat="43.7263517" lon="12.5161067"><ele>257.0</ele><time>2026-04-25T08:37:25.937Z</time></trkpt><trkpt lat="43.7262883" lon="12.5159217"><ele>254.5</ele><time>2026-04-25T08:37:26.937Z</time></trkpt><trkpt lat="43.7262283" lon="12.5157467"><ele>252.0</ele><time>2026-04-25T08:37:27.936Z</time></trkpt><trkpt lat="43.72619" lon="12.51557"><ele>252.0</ele><time>2026-04-25T08:37:28.937Z</time></trkpt><trkpt lat="43.7261183" lon="12.515425"><ele>252.0</ele><time>2026-04-25T08:37:29.937Z</time></trkpt><trkpt lat="43.726035" lon="12.5152983"><ele>252.0</ele><time>2026-04-25T08:37:30.937Z</time></trkpt><trkpt lat="43.7259317" lon="12.5152017"><ele>252.0</ele><time>2026-04-25T08:37:31.937Z</time></trkpt><trkpt lat="43.7258183" lon="12.5151383"><ele>253.39999999999998</ele><time>2026-04-25T08:37:32.936Z</time></trkpt><trkpt lat="43.7257283" lon="12.5150633"><ele>254.79999999999998</ele><time>2026-04-25T08:37:33.937Z</time></trkpt><trkpt lat="43.7256817" lon="12.5149483"><ele>256.2</ele><time>2026-04-25T08:37:34.936Z</time></trkpt><trkpt lat="43.7256833" lon="12.5148233"><ele>257.59999999999997</ele><time>2026-04-25T08:37:35.937Z</time></trkpt><trkpt lat="43.725715" lon="12.5147033"><ele>259.0</ele><time>2026-04-25T08:37:36.937Z</time></trkpt><trkpt lat="43.7257833" lon="12.51461"><ele>258.66666666666663</ele><time>2026-04-25T08:37:37.936Z</time></trkpt><trkpt lat="43.7258667" lon="12.51455"><ele>258.3333333333333</ele><time>2026-04-25T08:37:38.937Z</time></trkpt><trkpt lat="43.7259467" lon="12.5145"><ele>258.0</ele><time>2026-04-25T08:37:39.937Z</time></trkpt><trkpt lat="43.7260017" lon="12.51442"><ele>257.6666666666667</ele><time>2026-04-25T08:37:40.937Z</time></trkpt><trkpt lat="43.7260183" lon="12.5143183"><ele>257.33333333333337</ele><time>2026-04-25T08:37:41.937Z</time></trkpt><trkpt lat="43.7260017" lon="12.51421"><ele>257.0</ele><time>2026-04-25T08:37:42.936Z</time></trkpt><trkpt lat="43.7259567" lon="12.5140933"><ele>257.0</ele><time>2026-04-25T08:37:43.936Z</time></trkpt><trkpt lat="43.7258983" lon="12.513955"><ele>257.0</ele><time>2026-04-25T08:37:44.936Z</time></trkpt><trkpt lat="43.7258433" lon="12.5137917"><ele>257.0</ele><time>2026-04-25T08:37:45.937Z</time></trkpt><trkpt lat="43.7258067" lon="12.513615"><ele>257.0</ele><time>2026-04-25T08:37:46.936Z</time></trkpt><trkpt lat="43.7257933" lon="12.513445"><ele>257.4</ele><time>2026-04-25T08:37:47.936Z</time></trkpt><trkpt lat="43.7257867" lon="12.5132867"><ele>257.79999999999995</ele><time>2026-04-25T08:37:48.937Z</time></trkpt><trkpt lat="43.72577" lon="12.51314"><ele>258.2</ele><time>2026-04-25T08:37:49.937Z</time></trkpt><trkpt lat="43.7257283" lon="12.5130217"><ele>258.59999999999997</ele><time>2026-04-25T08:37:50.937Z</time></trkpt><trkpt lat="43.7256583" lon="12.5129417"><ele>259.0</ele><time>2026-04-25T08:37:51.937Z</time></trkpt><trkpt lat="43.7255667" lon="12.5128883"><ele>259.5</ele><time>2026-04-25T08:37:52.937Z</time></trkpt><trkpt lat="43.7254633" lon="12.5128367"><ele>260.0</ele><time>2026-04-25T08:37:53.937Z</time></trkpt><trkpt lat="43.7253617" lon="12.5127617"><ele>260.5</ele><time>2026-04-25T08:37:54.937Z</time></trkpt><trkpt lat="43.7252733" lon="12.5126533"><ele>261.0</ele><time>2026-04-25T08:37:55.937Z</time></trkpt><trkpt lat="43.7252083" lon="12.5125183"><ele>261.5</ele><time>2026-04-25T08:37:56.937Z</time></trkpt><trkpt lat="43.72517" lon="12.5123633"><ele>262.0</ele><time>2026-04-25T08:37:57.937Z</time></trkpt><trkpt lat="43.7251583" lon="12.5121867"><ele>262.5</ele><time>2026-04-25T08:37:58.937Z</time></trkpt><trkpt lat="43.725155" lon="12.5120017"><ele>263.0</ele><time>2026-04-25T08:37:59.936Z</time></trkpt><trkpt lat="43.7251417" lon="12.511815"><ele>263.0</ele><time>2026-04-25T08:38:00.937Z</time></trkpt><trkpt lat="43.7250883" lon="12.511615"><ele>263.0</ele><time>2026-04-25T08:38:01.937Z</time></trkpt><trkpt lat="43.7250217" lon="12.5114083"><ele>263.0</ele><time>2026-04-25T08:38:02.936Z</time></trkpt><trkpt lat="43.7249617" lon="12.5112017"><ele>262.5</ele><time>2026-04-25T08:38:03.937Z</time></trkpt><trkpt lat="43.7248983" lon="12.5110017"><ele>262.0</ele><time>2026-04-25T08:38:04.937Z</time></trkpt><trkpt lat="43.7248383" lon="12.5108133"><ele>261.5</ele><time>2026-04-25T08:38:05.937Z</time></trkpt><trkpt lat="43.7247883" lon="12.5106483"><ele>261.0</ele><time>2026-04-25T08:38:06.937Z</time></trkpt><trkpt lat="43.724765" lon="12.5105117"><ele>261.8333333333333</ele><time>2026-04-25T08:38:07.937Z</time></trkpt><trkpt lat="43.7247783" lon="12.5103933"><ele>262.6666666666667</ele><time>2026-04-25T08:38:08.937Z</time></trkpt><trkpt lat="43.7248017" lon="12.51029"><ele>263.5</ele><time>2026-04-25T08:38:09.937Z</time></trkpt><trkpt lat="43.72481" lon="12.51019"><ele>264.33333333333337</ele><time>2026-04-25T08:38:10.937Z</time></trkpt><trkpt lat="43.7247917" lon="12.5100933"><ele>265.1666666666667</ele><time>2026-04-25T08:38:11.937Z</time></trkpt><trkpt lat="43.7247567" lon="12.5100017"><ele>266.0</ele><time>2026-04-25T08:38:12.937Z</time></trkpt><trkpt lat="43.7246917" lon="12.5099117"><ele>266.0</ele><time>2026-04-25T08:38:13.937Z</time></trkpt><trkpt lat="43.7246017" lon="12.5098117"><ele>266.0</ele><time>2026-04-25T08:38:14.936Z</time></trkpt><trkpt lat="43.7245067" lon="12.5097067"><ele>266.0</ele><time>2026-04-25T08:38:15.937Z</time></trkpt><trkpt lat="43.7244133" lon="12.5095883"><ele>266.0</ele><time>2026-04-25T08:38:16.937Z</time></trkpt><trkpt lat="43.7243283" lon="12.509455"><ele>266.5</ele><time>2026-04-25T08:38:17.937Z</time></trkpt><trkpt lat="43.7242467" lon="12.5093067"><ele>267.0</ele><time>2026-04-25T08:38:18.937Z</time></trkpt><trkpt lat="43.7241683" lon="12.5091533"><ele>267.5</ele><time>2026-04-25T08:38:19.937Z</time></trkpt><trkpt lat="43.72409" lon="12.5090133"><ele>268.0</ele><time>2026-04-25T08:38:20.937Z</time></trkpt><trkpt lat="43.7240133" lon="12.5088867"><ele>268.0</ele><time>2026-04-25T08:38:21.937Z</time></trkpt><trkpt lat="43.7239383" lon="12.50875"><ele>268.0</ele><time>2026-04-25T08:38:22.936Z</time></trkpt><trkpt lat="43.7238717" lon="12.508595"><ele>268.0</ele><time>2026-04-25T08:38:23.937Z</time></trkpt><trkpt lat="43.7238083" lon="12.5084217"><ele>268.0</ele><time>2026-04-25T08:38:24.937Z</time></trkpt><trkpt lat="43.7237433" lon="12.5082317"><ele>269.0</ele><time>2026-04-25T08:38:25.937Z</time></trkpt><trkpt lat="43.723675" lon="12.5080333"><ele>270.0</ele><time>2026-04-25T08:38:26.937Z</time></trkpt><trkpt lat="43.7236133" lon="12.50784"><ele>271.0</ele><time>2026-04-25T08:38:27.937Z</time></trkpt><trkpt lat="43.7235583" lon="12.5076567"><ele>271.0</ele><time>2026-04-25T08:38:28.937Z</time></trkpt><trkpt lat="43.7235033" lon="12.5074883"><ele>271.0</ele><time>2026-04-25T08:38:29.937Z</time></trkpt><trkpt lat="43.7234367" lon="12.5073317"><ele>271.0</ele><time>2026-04-25T08:38:30.936Z</time></trkpt><trkpt lat="43.723345" lon="12.507185"><ele>271.0</ele><time>2026-04-25T08:38:31.937Z</time></trkpt><trkpt lat="43.7232383" lon="12.50705"><ele>271.0</ele><time>2026-04-25T08:38:32.937Z</time></trkpt><trkpt lat="43.7231383" lon="12.506925"><ele>271.0</ele><time>2026-04-25T08:38:33.937Z</time></trkpt><trkpt lat="43.723045" lon="12.5068033"><ele>271.0</ele><time>2026-04-25T08:38:34.937Z</time></trkpt><trkpt lat="43.7229517" lon="12.50668"><ele>271.0</ele><time>2026-04-25T08:38:35.937Z</time></trkpt><trkpt lat="43.72286" lon="12.506545"><ele>271.0</ele><time>2026-04-25T08:38:36.937Z</time></trkpt><trkpt lat="43.7227717" lon="12.50641"><ele>271.0</ele><time>2026-04-25T08:38:37.937Z</time></trkpt><trkpt lat="43.7226883" lon="12.5062667"><ele>271.0</ele><time>2026-04-25T08:38:38.936Z</time></trkpt><trkpt lat="43.722615" lon="12.50612"><ele>271.0</ele><time>2026-04-25T08:38:39.936Z</time></trkpt><trkpt lat="43.7225567" lon="12.5059667"><ele>271.2</ele><time>2026-04-25T08:38:40.936Z</time></trkpt><trkpt lat="43.7225133" lon="12.5058117"><ele>271.40000000000003</ele><time>2026-04-25T08:38:41.937Z</time></trkpt><trkpt lat="43.7224833" lon="12.5056633"><ele>271.6</ele><time>2026-04-25T08:38:42.937Z</time></trkpt><trkpt lat="43.722445" lon="12.505535"><ele>271.8</ele><time>2026-04-25T08:38:43.937Z</time></trkpt><trkpt lat="43.7223833" lon="12.50543"><ele>272.0</ele><time>2026-04-25T08:38:44.936Z</time></trkpt><trkpt lat="43.7223" lon="12.5053517"><ele>273.75</ele><time>2026-04-25T08:38:45.937Z</time></trkpt><trkpt lat="43.7222" lon="12.5052967"><ele>275.5</ele><time>2026-04-25T08:38:46.937Z</time></trkpt><trkpt lat="43.7220883" lon="12.505265"><ele>277.25</ele><time>2026-04-25T08:38:47.937Z</time></trkpt><trkpt lat="43.7219683" lon="12.505255"><ele>279.0</ele><time>2026-04-25T08:38:48.937Z</time></trkpt><trkpt lat="43.72185" lon="12.50526"><ele>279.0</ele><time>2026-04-25T08:38:49.936Z</time></trkpt><trkpt lat="43.721735" lon="12.505275"><ele>279.0</ele><time>2026-04-25T08:38:50.936Z</time></trkpt><trkpt lat="43.7216183" lon="12.50528"><ele>279.0</ele><time>2026-04-25T08:38:51.937Z</time></trkpt><trkpt lat="43.721515" lon="12.5052517"><ele>279.0</ele><time>2026-04-25T08:38:52.937Z</time></trkpt><trkpt lat="43.7214317" lon="12.505185"><ele>279.0</ele><time>2026-04-25T08:38:53.937Z</time></trkpt><trkpt lat="43.7213633" lon="12.5050867"><ele>279.0</ele><time>2026-04-25T08:38:54.937Z</time></trkpt><trkpt lat="43.7212967" lon="12.50497"><ele>279.0</ele><time>2026-04-25T08:38:55.937Z</time></trkpt><trkpt lat="43.721235" lon="12.5048467"><ele>279.0</ele><time>2026-04-25T08:38:56.936Z</time></trkpt><trkpt lat="43.72118" lon="12.5047183"><ele>279.0</ele><time>2026-04-25T08:38:57.936Z</time></trkpt><trkpt lat="43.72113" lon="12.5045783"><ele>279.0</ele><time>2026-04-25T08:38:58.937Z</time></trkpt><trkpt lat="43.7210883" lon="12.5044283"><ele>277.59999999999997</ele><time>2026-04-25T08:38:59.936Z</time></trkpt><trkpt lat="43.7210533" lon="12.50428"><ele>276.2</ele><time>2026-04-25T08:39:00.937Z</time></trkpt><trkpt lat="43.721025" lon="12.5041383"><ele>274.79999999999995</ele><time>2026-04-25T08:39:01.937Z</time></trkpt><trkpt lat="43.7209983" lon="12.5040033"><ele>273.4</ele><time>2026-04-25T08:39:02.937Z</time></trkpt><trkpt lat="43.72098" lon="12.5038767"><ele>272.0</ele><time>2026-04-25T08:39:03.937Z</time></trkpt><trkpt lat="43.7209683" lon="12.5037617"><ele>273.1666666666667</ele><time>2026-04-25T08:39:04.937Z</time></trkpt><trkpt lat="43.7209533" lon="12.5036583"><ele>274.33333333333337</ele><time>2026-04-25T08:39:05.937Z</time></trkpt><trkpt lat="43.72093" lon="12.5035733"><ele>275.5</ele><time>2026-04-25T08:39:06.937Z</time></trkpt><trkpt lat="43.7208617" lon="12.5034533"><ele>276.6666666666667</ele><time>2026-04-25T08:39:08.937Z</time></trkpt><trkpt lat="43.72076" lon="12.5033717"><ele>277.8333333333333</ele><time>2026-04-25T08:39:10.937Z</time></trkpt><trkpt lat="43.7206917" lon="12.5033317"><ele>279.0</ele><time>2026-04-25T08:39:11.937Z</time></trkpt><trkpt lat="43.7206133" lon="12.5033"><ele>279.0</ele><time>2026-04-25T08:39:12.936Z</time></trkpt><trkpt lat="43.7205283" lon="12.5032583"><ele>279.0</ele><time>2026-04-25T08:39:13.937Z</time></trkpt><trkpt lat="43.720435" lon="12.5032117"><ele>279.0</ele><time>2026-04-25T08:39:14.937Z</time></trkpt><trkpt lat="43.7203433" lon="12.503145"><ele>279.0</ele><time>2026-04-25T08:39:15.937Z</time></trkpt><trkpt lat="43.7202533" lon="12.503055"><ele>279.0</ele><time>2026-04-25T08:39:16.937Z</time></trkpt><trkpt lat="43.7201683" lon="12.502945"><ele>280.75</ele><time>2026-04-25T08:39:17.936Z</time></trkpt><trkpt lat="43.7200717" lon="12.5028483"><ele>282.5</ele><time>2026-04-25T08:39:18.937Z</time></trkpt><trkpt lat="43.7199533" lon="12.50276"><ele>284.25</ele><time>2026-04-25T08:39:19.937Z</time></trkpt><trkpt lat="43.7198117" lon="12.5026883"><ele>286.0</ele><time>2026-04-25T08:39:20.937Z</time></trkpt><trkpt lat="43.7196567" lon="12.5026283"><ele>286.0</ele><time>2026-04-25T08:39:21.937Z</time></trkpt><trkpt lat="43.719505" lon="12.50256"><ele>286.0</ele><time>2026-04-25T08:39:22.937Z</time></trkpt><trkpt lat="43.7193533" lon="12.5024933"><ele>286.0</ele><time>2026-04-25T08:39:23.937Z</time></trkpt><trkpt lat="43.7192067" lon="12.502435"><ele>285.0</ele><time>2026-04-25T08:39:24.937Z</time></trkpt><trkpt lat="43.7190767" lon="12.5023817"><ele>284.0</ele><time>2026-04-25T08:39:25.937Z</time></trkpt><trkpt lat="43.718965" lon="12.5023033"><ele>283.0</ele><time>2026-04-25T08:39:26.937Z</time></trkpt><trkpt lat="43.7188833" lon="12.5021867"><ele>282.0</ele><time>2026-04-25T08:39:27.937Z</time></trkpt><trkpt lat="43.7188267" lon="12.5020533"><ele>282.0</ele><time>2026-04-25T08:39:28.937Z</time></trkpt><trkpt lat="43.718795" lon="12.5019017"><ele>282.0</ele><time>2026-04-25T08:39:29.937Z</time></trkpt><trkpt lat="43.7187783" lon="12.5017467"><ele>282.0</ele><time>2026-04-25T08:39:30.936Z</time></trkpt><trkpt lat="43.7187583" lon="12.5015983"><ele>282.0</ele><time>2026-04-25T08:39:31.937Z</time></trkpt><trkpt lat="43.718715" lon="12.5014733"><ele>282.0</ele><time>2026-04-25T08:39:32.937Z</time></trkpt><trkpt lat="43.7186483" lon="12.5013733"><ele>281.75</ele><time>2026-04-25T08:39:33.937Z</time></trkpt><trkpt lat="43.7185583" lon="12.5012983"><ele>281.5</ele><time>2026-04-25T08:39:34.937Z</time></trkpt><trkpt lat="43.7184433" lon="12.501235"><ele>281.25</ele><time>2026-04-25T08:39:35.937Z</time></trkpt><trkpt lat="43.71832" lon="12.501165"><ele>281.0</ele><time>2026-04-25T08:39:36.937Z</time></trkpt><trkpt lat="43.7182017" lon="12.501085"><ele>281.0</ele><time>2026-04-25T08:39:37.937Z</time></trkpt><trkpt lat="43.71809" lon="12.5009883"><ele>281.0</ele><time>2026-04-25T08:39:38.937Z</time></trkpt><trkpt lat="43.7179883" lon="12.5008817"><ele>281.0</ele><time>2026-04-25T08:39:39.937Z</time></trkpt><trkpt lat="43.7178967" lon="12.5007867"><ele>281.0</ele><time>2026-04-25T08:39:40.937Z</time></trkpt><trkpt lat="43.7177967" lon="12.5007133"><ele>280.75</ele><time>2026-04-25T08:39:41.937Z</time></trkpt><trkpt lat="43.7176783" lon="12.5006683"><ele>280.5</ele><time>2026-04-25T08:39:42.937Z</time></trkpt><trkpt lat="43.7175483" lon="12.5006267"><ele>280.25</ele><time>2026-04-25T08:39:43.936Z</time></trkpt><trkpt lat="43.7174133" lon="12.5005667"><ele>280.0</ele><time>2026-04-25T08:39:44.936Z</time></trkpt><trkpt lat="43.71728" lon="12.5004817"><ele>282.66666666666663</ele><time>2026-04-25T08:39:45.937Z</time></trkpt><trkpt lat="43.7171467" lon="12.5003733"><ele>285.3333333333333</ele><time>2026-04-25T08:39:46.937Z</time></trkpt><trkpt lat="43.71702" lon="12.500245"><ele>288.0</ele><time>2026-04-25T08:39:47.937Z</time></trkpt><trkpt lat="43.716895" lon="12.5001017"><ele>288.0</ele><time>2026-04-25T08:39:48.937Z</time></trkpt><trkpt lat="43.7167733" lon="12.499955"><ele>288.0</ele><time>2026-04-25T08:39:49.937Z</time></trkpt><trkpt lat="43.716655" lon="12.4998217"><ele>288.0</ele><time>2026-04-25T08:39:50.937Z</time></trkpt><trkpt lat="43.716535" lon="12.499715"><ele>288.0</ele><time>2026-04-25T08:39:51.937Z</time></trkpt><trkpt lat="43.7164033" lon="12.4996383"><ele>288.0</ele><time>2026-04-25T08:39:52.937Z</time></trkpt><trkpt lat="43.716265" lon="12.4995917"><ele>288.0</ele><time>2026-04-25T08:39:53.937Z</time></trkpt><trkpt lat="43.716135" lon="12.4995667"><ele>288.0</ele><time>2026-04-25T08:39:54.937Z</time></trkpt><trkpt lat="43.7160267" lon="12.4995633"><ele>287.1666666666667</ele><time>2026-04-25T08:39:55.936Z</time></trkpt><trkpt lat="43.7159383" lon="12.499575"><ele>286.3333333333333</ele><time>2026-04-25T08:39:56.937Z</time></trkpt><trkpt lat="43.7158567" lon="12.4995983"><ele>285.5</ele><time>2026-04-25T08:39:57.937Z</time></trkpt><trkpt lat="43.7157817" lon="12.4996"><ele>284.66666666666663</ele><time>2026-04-25T08:39:58.937Z</time></trkpt><trkpt lat="43.7157" lon="12.4995733"><ele>283.8333333333333</ele><time>2026-04-25T08:39:59.937Z</time></trkpt><trkpt lat="43.7156133" lon="12.499515"><ele>283.0</ele><time>2026-04-25T08:40:00.936Z</time></trkpt><trkpt lat="43.7155233" lon="12.49944"><ele>284.0</ele><time>2026-04-25T08:40:01.937Z</time></trkpt><trkpt lat="43.7154383" lon="12.4993517"><ele>285.0</ele><time>2026-04-25T08:40:02.937Z</time></trkpt><trkpt lat="43.7153567" lon="12.4992517"><ele>286.0</ele><time>2026-04-25T08:40:03.937Z</time></trkpt><trkpt lat="43.7152783" lon="12.4991333"><ele>287.0</ele><time>2026-04-25T08:40:04.937Z</time></trkpt><trkpt lat="43.7152" lon="12.499005"><ele>287.0</ele><time>2026-04-25T08:40:05.936Z</time></trkpt><trkpt lat="43.7151133" lon="12.49888"><ele>287.0</ele><time>2026-04-25T08:40:06.937Z</time></trkpt><trkpt lat="43.715025" lon="12.4987617"><ele>287.0</ele><time>2026-04-25T08:40:07.936Z</time></trkpt><trkpt lat="43.7149317" lon="12.4986467"><ele>287.0</ele><time>2026-04-25T08:40:08.937Z</time></trkpt><trkpt lat="43.714845" lon="12.49853"><ele>289.0</ele><time>2026-04-25T08:40:09.937Z</time></trkpt><trkpt lat="43.7147583" lon="12.4983983"><ele>291.0</ele><time>2026-04-25T08:40:10.937Z</time></trkpt><trkpt lat="43.7146917" lon="12.49823"><ele>293.0</ele><time>2026-04-25T08:40:11.937Z</time></trkpt><trkpt lat="43.7146017" lon="12.49808"><ele>295.0</ele><time>2026-04-25T08:40:12.937Z</time></trkpt><trkpt lat="43.7145" lon="12.4979517"><ele>296.6</ele><time>2026-04-25T08:40:13.937Z</time></trkpt><trkpt lat="43.7144183" lon="12.4978217"><ele>298.2</ele><time>2026-04-25T08:40:14.936Z</time></trkpt><trkpt lat="43.7143583" lon="12.4976917"><ele>299.8</ele><time>2026-04-25T08:40:15.937Z</time></trkpt><trkpt lat="43.7143" lon="12.4975717"><ele>301.4</ele><time>2026-04-25T08:40:16.937Z</time></trkpt><trkpt lat="43.714225" lon="12.497475"><ele>303.0</ele><time>2026-04-25T08:40:17.937Z</time></trkpt><trkpt lat="43.7141483" lon="12.4973867"><ele>300.2</ele><time>2026-04-25T08:40:18.937Z</time></trkpt><trkpt lat="43.7140783" lon="12.49729"><ele>297.4</ele><time>2026-04-25T08:40:19.937Z</time></trkpt><trkpt lat="43.7140167" lon="12.49719"><ele>294.59999999999997</ele><time>2026-04-25T08:40:20.937Z</time></trkpt><trkpt lat="43.7139533" lon="12.4971033"><ele>291.8</ele><time>2026-04-25T08:40:21.937Z</time></trkpt><trkpt lat="43.7138867" lon="12.4970233"><ele>289.0</ele><time>2026-04-25T08:40:22.936Z</time></trkpt><trkpt lat="43.71382" lon="12.4969367"><ele>289.0</ele><time>2026-04-25T08:40:23.937Z</time></trkpt><trkpt lat="43.7137517" lon="12.4968433"><ele>289.0</ele><time>2026-04-25T08:40:24.937Z</time></trkpt><trkpt lat="43.713675" lon="12.4967567"><ele>289.0</ele><time>2026-04-25T08:40:25.937Z</time></trkpt><trkpt lat="43.713585" lon="12.4966833"><ele>289.0</ele><time>2026-04-25T08:40:26.937Z</time></trkpt><trkpt lat="43.7134833" lon="12.496635"><ele>289.0</ele><time>2026-04-25T08:40:27.937Z</time></trkpt><trkpt lat="43.713375" lon="12.49661"><ele>288.75</ele><time>2026-04-25T08:40:28.936Z</time></trkpt><trkpt lat="43.7132583" lon="12.496595"><ele>288.5</ele><time>2026-04-25T08:40:29.937Z</time></trkpt><trkpt lat="43.71313" lon="12.4965783"><ele>288.25</ele><time>2026-04-25T08:40:30.936Z</time></trkpt><trkpt lat="43.7130033" lon="12.49655"><ele>288.0</ele><time>2026-04-25T08:40:31.937Z</time></trkpt><trkpt lat="43.712875" lon="12.496505"><ele>288.0</ele><time>2026-04-25T08:40:32.937Z</time></trkpt><trkpt lat="43.7127467" lon="12.496445"><ele>288.0</ele><time>2026-04-25T08:40:33.937Z</time></trkpt><trkpt lat="43.7126233" lon="12.4963767"><ele>288.0</ele><time>2026-04-25T08:40:34.937Z</time></trkpt><trkpt lat="43.71251" lon="12.4963133"><ele>288.0</ele><time>2026-04-25T08:40:35.937Z</time></trkpt><trkpt lat="43.7124033" lon="12.4962733"><ele>288.4</ele><time>2026-04-25T08:40:36.937Z</time></trkpt><trkpt lat="43.7123033" lon="12.4962683"><ele>288.8</ele><time>2026-04-25T08:40:37.937Z</time></trkpt><trkpt lat="43.71221" lon="12.4963033"><ele>289.2</ele><time>2026-04-25T08:40:38.937Z</time></trkpt><trkpt lat="43.7121183" lon="12.496365"><ele>289.6</ele><time>2026-04-25T08:40:39.937Z</time></trkpt><trkpt lat="43.7120233" lon="12.4964283"><ele>290.0</ele><time>2026-04-25T08:40:40.937Z</time></trkpt><trkpt lat="43.7119267" lon="12.496465"><ele>290.6</ele><time>2026-04-25T08:40:41.937Z</time></trkpt><trkpt lat="43.711825" lon="12.4964683"><ele>291.2</ele><time>2026-04-25T08:40:42.936Z</time></trkpt><trkpt lat="43.7117183" lon="12.4964467"><ele>291.8</ele><time>2026-04-25T08:40:43.937Z</time></trkpt><trkpt lat="43.711615" lon="12.4963983"><ele>292.4</ele><time>2026-04-25T08:40:44.937Z</time></trkpt><trkpt lat="43.7115267" lon="12.4963233"><ele>293.0</ele><time>2026-04-25T08:40:45.937Z</time></trkpt><trkpt lat="43.7114483" lon="12.4962167"><ele>293.0</ele><time>2026-04-25T08:40:46.937Z</time></trkpt><trkpt lat="43.711375" lon="12.4960883"><ele>293.0</ele><time>2026-04-25T08:40:47.937Z</time></trkpt><trkpt lat="43.7113" lon="12.4959383"><ele>293.0</ele><time>2026-04-25T08:40:48.937Z</time></trkpt><trkpt lat="43.71123" lon="12.4957817"><ele>293.0</ele><time>2026-04-25T08:40:49.937Z</time></trkpt><trkpt lat="43.7111567" lon="12.4956183"><ele>293.0</ele><time>2026-04-25T08:40:50.936Z</time></trkpt><trkpt lat="43.7110733" lon="12.495455"><ele>293.0</ele><time>2026-04-25T08:40:51.936Z</time></trkpt><trkpt lat="43.7109683" lon="12.4952933"><ele>293.0</ele><time>2026-04-25T08:40:52.937Z</time></trkpt><trkpt lat="43.7108583" lon="12.49514"><ele>293.0</ele><time>2026-04-25T08:40:53.936Z</time></trkpt><trkpt lat="43.7107533" lon="12.4949917"><ele>293.0</ele><time>2026-04-25T08:40:54.937Z</time></trkpt><trkpt lat="43.7106517" lon="12.4948417"><ele>293.0</ele><time>2026-04-25T08:40:55.937Z</time></trkpt><trkpt lat="43.7105483" lon="12.49469"><ele>293.0</ele><time>2026-04-25T08:40:56.937Z</time></trkpt><trkpt lat="43.7104533" lon="12.49454"><ele>293.5</ele><time>2026-04-25T08:40:57.937Z</time></trkpt><trkpt lat="43.7103717" lon="12.4943867"><ele>294.0</ele><time>2026-04-25T08:40:58.937Z</time></trkpt><trkpt lat="43.7102967" lon="12.49422"><ele>294.5</ele><time>2026-04-25T08:40:59.937Z</time></trkpt><trkpt lat="43.7102183" lon="12.49405"><ele>295.0</ele><time>2026-04-25T08:41:00.937Z</time></trkpt><trkpt lat="43.7101317" lon="12.4938917"><ele>295.0</ele><time>2026-04-25T08:41:01.937Z</time></trkpt><trkpt lat="43.7100317" lon="12.4937567"><ele>295.0</ele><time>2026-04-25T08:41:02.937Z</time></trkpt><trkpt lat="43.7099233" lon="12.49366"><ele>295.0</ele><time>2026-04-25T08:41:03.936Z</time></trkpt><trkpt lat="43.7098083" lon="12.4935983"><ele>295.0</ele><time>2026-04-25T08:41:04.937Z</time></trkpt><trkpt lat="43.7096983" lon="12.4935667"><ele>294.8</ele><time>2026-04-25T08:41:05.937Z</time></trkpt><trkpt lat="43.7095933" lon="12.4935333"><ele>294.6</ele><time>2026-04-25T08:41:06.936Z</time></trkpt><trkpt lat="43.7094967" lon="12.4934783"><ele>294.4</ele><time>2026-04-25T08:41:07.937Z</time></trkpt><trkpt lat="43.7094167" lon="12.4934017"><ele>294.2</ele><time>2026-04-25T08:41:08.937Z</time></trkpt><trkpt lat="43.7093483" lon="12.4933017"><ele>294.0</ele><time>2026-04-25T08:41:09.936Z</time></trkpt><trkpt lat="43.709285" lon="12.4931883"><ele>294.0</ele><time>2026-04-25T08:41:10.937Z</time></trkpt><trkpt lat="43.709225" lon="12.4930767"><ele>294.0</ele><time>2026-04-25T08:41:11.937Z</time></trkpt><trkpt lat="43.709165" lon="12.49299"><ele>294.0</ele><time>2026-04-25T08:41:12.937Z</time></trkpt><trkpt lat="43.7091033" lon="12.4929317"><ele>294.0</ele><time>2026-04-25T08:41:13.936Z</time></trkpt><trkpt lat="43.7090333" lon="12.492905"><ele>294.0</ele><time>2026-04-25T08:41:14.937Z</time></trkpt><trkpt lat="43.7089567" lon="12.49291"><ele>294.0</ele><time>2026-04-25T08:41:15.936Z</time></trkpt><trkpt lat="43.7088667" lon="12.4929367"><ele>294.0</ele><time>2026-04-25T08:41:16.937Z</time></trkpt><trkpt lat="43.708765" lon="12.4929717"><ele>294.0</ele><time>2026-04-25T08:41:17.937Z</time></trkpt><trkpt lat="43.7086567" lon="12.4930117"><ele>294.0</ele><time>2026-04-25T08:41:18.936Z</time></trkpt><trkpt lat="43.70854" lon="12.4930633"><ele>294.0</ele><time>2026-04-25T08:41:19.937Z</time></trkpt><trkpt lat="43.70842" lon="12.4931117"><ele>296.0</ele><time>2026-04-25T08:41:20.937Z</time></trkpt><trkpt lat="43.708295" lon="12.4931583"><ele>298.0</ele><time>2026-04-25T08:41:21.937Z</time></trkpt><trkpt lat="43.708165" lon="12.4932"><ele>300.0</ele><time>2026-04-25T08:41:22.936Z</time></trkpt><trkpt lat="43.7080317" lon="12.4932467"><ele>302.0</ele><time>2026-04-25T08:41:23.937Z</time></trkpt><trkpt lat="43.7078967" lon="12.493305"><ele>302.0</ele><time>2026-04-25T08:41:24.937Z</time></trkpt><trkpt lat="43.70776" lon="12.4933783"><ele>302.0</ele><time>2026-04-25T08:41:25.937Z</time></trkpt><trkpt lat="43.707625" lon="12.4934633"><ele>302.0</ele><time>2026-04-25T08:41:26.937Z</time></trkpt><trkpt lat="43.7074933" lon="12.493565"><ele>302.0</ele><time>2026-04-25T08:41:27.937Z</time></trkpt><trkpt lat="43.7073667" lon="12.4936833"><ele>303.33333333333337</ele><time>2026-04-25T08:41:28.937Z</time></trkpt><trkpt lat="43.707245" lon="12.4938067"><ele>304.6666666666667</ele><time>2026-04-25T08:41:29.937Z</time></trkpt><trkpt lat="43.7071283" lon="12.49394"><ele>306.0</ele><time>2026-04-25T08:41:30.937Z</time></trkpt><trkpt lat="43.7070233" lon="12.494085"><ele>306.0</ele><time>2026-04-25T08:41:31.936Z</time></trkpt><trkpt lat="43.7069267" lon="12.4942333"><ele>306.0</ele><time>2026-04-25T08:41:32.937Z</time></trkpt><trkpt lat="43.7068233" lon="12.49436"><ele>306.0</ele><time>2026-04-25T08:41:33.936Z</time></trkpt><trkpt lat="43.7067183" lon="12.49447"><ele>306.0</ele><time>2026-04-25T08:41:34.938Z</time></trkpt><trkpt lat="43.7066117" lon="12.4945433"><ele>308.8</ele><time>2026-04-25T08:41:35.937Z</time></trkpt><trkpt lat="43.706505" lon="12.494565"><ele>311.6</ele><time>2026-04-25T08:41:36.938Z</time></trkpt><trkpt lat="43.7064067" lon="12.49452"><ele>314.4</ele><time>2026-04-25T08:41:37.937Z</time></trkpt><trkpt lat="43.7063317" lon="12.494425"><ele>317.2</ele><time>2026-04-25T08:41:38.938Z</time></trkpt><trkpt lat="43.7062867" lon="12.4943033"><ele>320.0</ele><time>2026-04-25T08:41:39.938Z</time></trkpt><trkpt lat="43.7062683" lon="12.4941533"><ele>320.0</ele><time>2026-04-25T08:41:40.938Z</time></trkpt><trkpt lat="43.7062733" lon="12.493985"><ele>320.0</ele><time>2026-04-25T08:41:41.938Z</time></trkpt><trkpt lat="43.7062833" lon="12.4938117"><ele>320.0</ele><time>2026-04-25T08:41:42.938Z</time></trkpt><trkpt lat="43.7062783" lon="12.4936417"><ele>320.0</ele><time>2026-04-25T08:41:43.938Z</time></trkpt><trkpt lat="43.7062433" lon="12.49349"><ele>320.4</ele><time>2026-04-25T08:41:44.938Z</time></trkpt><trkpt lat="43.706175" lon="12.4933683"><ele>320.8</ele><time>2026-04-25T08:41:45.938Z</time></trkpt><trkpt lat="43.706085" lon="12.4933"><ele>321.20000000000005</ele><time>2026-04-25T08:41:46.938Z</time></trkpt><trkpt lat="43.705985" lon="12.49329"><ele>321.6</ele><time>2026-04-25T08:41:47.938Z</time></trkpt><trkpt lat="43.7058833" lon="12.4933367"><ele>322.0</ele><time>2026-04-25T08:41:48.938Z</time></trkpt><trkpt lat="43.7057833" lon="12.4934267"><ele>323.75</ele><time>2026-04-25T08:41:49.937Z</time></trkpt><trkpt lat="43.7056833" lon="12.4935467"><ele>325.5</ele><time>2026-04-25T08:41:50.938Z</time></trkpt><trkpt lat="43.7055817" lon="12.4936867"><ele>327.25</ele><time>2026-04-25T08:41:51.937Z</time></trkpt><trkpt lat="43.70548" lon="12.4938317"><ele>329.0</ele><time>2026-04-25T08:41:52.938Z</time></trkpt><trkpt lat="43.7053817" lon="12.493975"><ele>329.0</ele><time>2026-04-25T08:41:53.937Z</time></trkpt><trkpt lat="43.705285" lon="12.4941267"><ele>329.0</ele><time>2026-04-25T08:41:54.937Z</time></trkpt><trkpt lat="43.7051867" lon="12.49429"><ele>329.0</ele><time>2026-04-25T08:41:55.938Z</time></trkpt><trkpt lat="43.7050933" lon="12.4944583"><ele>331.6666666666667</ele><time>2026-04-25T08:41:56.938Z</time></trkpt><trkpt lat="43.7050017" lon="12.49463"><ele>334.3333333333333</ele><time>2026-04-25T08:41:57.938Z</time></trkpt><trkpt lat="43.7049017" lon="12.494795"><ele>337.0</ele><time>2026-04-25T08:41:58.938Z</time></trkpt><trkpt lat="43.7048017" lon="12.4949467"><ele>337.0</ele><time>2026-04-25T08:41:59.938Z</time></trkpt><trkpt lat="43.7046933" lon="12.4950567"><ele>337.0</ele><time>2026-04-25T08:42:00.938Z</time></trkpt><trkpt lat="43.7045817" lon="12.4951183"><ele>337.0</ele><time>2026-04-25T08:42:01.937Z</time></trkpt><trkpt lat="43.7044717" lon="12.4951417"><ele>337.0</ele><time>2026-04-25T08:42:02.938Z</time></trkpt><trkpt lat="43.704365" lon="12.4951183"><ele>339.20000000000005</ele><time>2026-04-25T08:42:03.938Z</time></trkpt><trkpt lat="43.70428" lon="12.4950467"><ele>341.4</ele><time>2026-04-25T08:42:04.938Z</time></trkpt><trkpt lat="43.704215" lon="12.4949433"><ele>343.6</ele><time>2026-04-25T08:42:05.937Z</time></trkpt><trkpt lat="43.704175" lon="12.494815"><ele>345.79999999999995</ele><time>2026-04-25T08:42:06.937Z</time></trkpt><trkpt lat="43.7041667" lon="12.494675"><ele>348.0</ele><time>2026-04-25T08:42:07.938Z</time></trkpt><trkpt lat="43.7041917" lon="12.4945317"><ele>346.75</ele><time>2026-04-25T08:42:08.937Z</time></trkpt><trkpt lat="43.70425" lon="12.494395"><ele>345.5</ele><time>2026-04-25T08:42:09.938Z</time></trkpt><trkpt lat="43.7043333" lon="12.49426"><ele>344.25</ele><time>2026-04-25T08:42:10.938Z</time></trkpt><trkpt lat="43.7044233" lon="12.494125"><ele>343.0</ele><time>2026-04-25T08:42:11.938Z</time></trkpt><trkpt lat="43.70451" lon="12.4939917"><ele>343.0</ele><time>2026-04-25T08:42:12.938Z</time></trkpt><trkpt lat="43.70459" lon="12.49385"><ele>343.0</ele><time>2026-04-25T08:42:13.938Z</time></trkpt><trkpt lat="43.7046617" lon="12.4936933"><ele>343.0</ele><time>2026-04-25T08:42:14.938Z</time></trkpt><trkpt lat="43.704715" lon="12.4935133"><ele>343.0</ele><time>2026-04-25T08:42:15.937Z</time></trkpt><trkpt lat="43.7047567" lon="12.49332"><ele>345.0</ele><time>2026-04-25T08:42:16.938Z</time></trkpt><trkpt lat="43.704795" lon="12.4931217"><ele>347.0</ele><time>2026-04-25T08:42:17.938Z</time></trkpt><trkpt lat="43.7048367" lon="12.4929233"><ele>349.0</ele><time>2026-04-25T08:42:18.937Z</time></trkpt><trkpt lat="43.7048833" lon="12.4927317"><ele>351.0</ele><time>2026-04-25T08:42:19.938Z</time></trkpt><trkpt lat="43.7049417" lon="12.4925483"><ele>354.25</ele><time>2026-04-25T08:42:20.938Z</time></trkpt><trkpt lat="43.7049967" lon="12.492375"><ele>357.5</ele><time>2026-04-25T08:42:21.938Z</time></trkpt><trkpt lat="43.7050367" lon="12.4922083"><ele>360.75</ele><time>2026-04-25T08:42:22.938Z</time></trkpt><trkpt lat="43.7050517" lon="12.492045"><ele>364.0</ele><time>2026-04-25T08:42:23.937Z</time></trkpt><trkpt lat="43.7050317" lon="12.4918817"><ele>364.75</ele><time>2026-04-25T08:42:24.938Z</time></trkpt><trkpt lat="43.7049867" lon="12.4917233"><ele>365.5</ele><time>2026-04-25T08:42:25.938Z</time></trkpt><trkpt lat="43.7049233" lon="12.4915867"><ele>366.25</ele><time>2026-04-25T08:42:26.938Z</time></trkpt><trkpt lat="43.7048433" lon="12.491475"><ele>367.0</ele><time>2026-04-25T08:42:27.938Z</time></trkpt><trkpt lat="43.70475" lon="12.491405"><ele>367.0</ele><time>2026-04-25T08:42:28.937Z</time></trkpt><trkpt lat="43.704645" lon="12.4913867"><ele>367.0</ele><time>2026-04-25T08:42:29.938Z</time></trkpt><trkpt lat="43.7045383" lon="12.4914083"><ele>367.0</ele><time>2026-04-25T08:42:30.938Z</time></trkpt><trkpt lat="43.7044367" lon="12.49146"><ele>367.0</ele><time>2026-04-25T08:42:31.938Z</time></trkpt><trkpt lat="43.7043367" lon="12.491535"><ele>367.0</ele><time>2026-04-25T08:42:32.938Z</time></trkpt><trkpt lat="43.7042367" lon="12.4916267"><ele>369.25</ele><time>2026-04-25T08:42:33.937Z</time></trkpt><trkpt lat="43.7041383" lon="12.4917183"><ele>371.5</ele><time>2026-04-25T08:42:34.937Z</time></trkpt><trkpt lat="43.704035" lon="12.49181"><ele>373.75</ele><time>2026-04-25T08:42:35.938Z</time></trkpt><trkpt lat="43.703935" lon="12.4918967"><ele>376.0</ele><time>2026-04-25T08:42:36.937Z</time></trkpt><trkpt lat="43.7038333" lon="12.4919833"><ele>376.0</ele><time>2026-04-25T08:42:37.938Z</time></trkpt><trkpt lat="43.7037333" lon="12.49207"><ele>376.0</ele><time>2026-04-25T08:42:38.937Z</time></trkpt><trkpt lat="43.7036267" lon="12.4921567"><ele>376.0</ele><time>2026-04-25T08:42:39.937Z</time></trkpt><trkpt lat="43.7035183" lon="12.4922467"><ele>376.0</ele><time>2026-04-25T08:42:40.936Z</time></trkpt><trkpt lat="43.7034033" lon="12.4923417"><ele>377.5</ele><time>2026-04-25T08:42:41.937Z</time></trkpt><trkpt lat="43.7032867" lon="12.492435"><ele>379.0</ele><time>2026-04-25T08:42:42.937Z</time></trkpt><trkpt lat="43.703165" lon="12.4925133"><ele>380.5</ele><time>2026-04-25T08:42:43.937Z</time></trkpt><trkpt lat="43.7030383" lon="12.4925683"><ele>382.0</ele><time>2026-04-25T08:42:44.937Z</time></trkpt><trkpt lat="43.7029067" lon="12.4926017"><ele>382.0</ele><time>2026-04-25T08:42:45.936Z</time></trkpt><trkpt lat="43.70277" lon="12.49262"><ele>382.0</ele><time>2026-04-25T08:42:46.936Z</time></trkpt><trkpt lat="43.702625" lon="12.49263"><ele>382.0</ele><time>2026-04-25T08:42:47.937Z</time></trkpt><trkpt lat="43.7024767" lon="12.4926333"><ele>382.0</ele><time>2026-04-25T08:42:48.937Z</time></trkpt><trkpt lat="43.7023233" lon="12.492635"><ele>384.0</ele><time>2026-04-25T08:42:49.937Z</time></trkpt><trkpt lat="43.70217" lon="12.4926383"><ele>386.0</ele><time>2026-04-25T08:42:50.937Z</time></trkpt><trkpt lat="43.702025" lon="12.49264"><ele>388.0</ele><time>2026-04-25T08:42:51.937Z</time></trkpt><trkpt lat="43.70189" lon="12.4926283"><ele>390.0</ele><time>2026-04-25T08:42:52.936Z</time></trkpt><trkpt lat="43.7017567" lon="12.4925933"><ele>392.0</ele><time>2026-04-25T08:42:53.937Z</time></trkpt><trkpt lat="43.7016317" lon="12.492525"><ele>394.0</ele><time>2026-04-25T08:42:54.937Z</time></trkpt><trkpt lat="43.7015183" lon="12.4924267"><ele>396.0</ele><time>2026-04-25T08:42:55.937Z</time></trkpt><trkpt lat="43.7014183" lon="12.4922967"><ele>398.0</ele><time>2026-04-25T08:42:56.936Z</time></trkpt><trkpt lat="43.701335" lon="12.4921433"><ele>399.5</ele><time>2026-04-25T08:42:57.937Z</time></trkpt><trkpt lat="43.70126" lon="12.4919767"><ele>401.0</ele><time>2026-04-25T08:42:58.937Z</time></trkpt><trkpt lat="43.7011917" lon="12.4918133"><ele>402.5</ele><time>2026-04-25T08:42:59.937Z</time></trkpt><trkpt lat="43.7011183" lon="12.491675"><ele>404.0</ele><time>2026-04-25T08:43:00.937Z</time></trkpt><trkpt lat="43.7010383" lon="12.491565"><ele>405.79999999999995</ele><time>2026-04-25T08:43:01.937Z</time></trkpt><trkpt lat="43.70095" lon="12.4914883"><ele>407.59999999999997</ele><time>2026-04-25T08:43:02.936Z</time></trkpt><trkpt lat="43.7008517" lon="12.4914583"><ele>409.4</ele><time>2026-04-25T08:43:03.936Z</time></trkpt><trkpt lat="43.700745" lon="12.49148"><ele>411.2</ele><time>2026-04-25T08:43:04.937Z</time></trkpt><trkpt lat="43.70064" lon="12.491555"><ele>413.0</ele><time>2026-04-25T08:43:05.937Z</time></trkpt><trkpt lat="43.700535" lon="12.4916617"><ele>413.0</ele><time>2026-04-25T08:43:06.937Z</time></trkpt><trkpt lat="43.700435" lon="12.491795"><ele>413.0</ele><time>2026-04-25T08:43:07.937Z</time></trkpt><trkpt lat="43.7003417" lon="12.4919567"><ele>413.0</ele><time>2026-04-25T08:43:08.937Z</time></trkpt><trkpt lat="43.70026" lon="12.4921433"><ele>413.0</ele><time>2026-04-25T08:43:09.937Z</time></trkpt><trkpt lat="43.7001817" lon="12.4923467"><ele>413.66666666666663</ele><time>2026-04-25T08:43:10.937Z</time></trkpt><trkpt lat="43.7001067" lon="12.4925567"><ele>414.33333333333337</ele><time>2026-04-25T08:43:11.936Z</time></trkpt><trkpt lat="43.700035" lon="12.4927683"><ele>415.0</ele><time>2026-04-25T08:43:12.936Z</time></trkpt><trkpt lat="43.6999567" lon="12.4929817"><ele>415.0</ele><time>2026-04-25T08:43:13.936Z</time></trkpt><trkpt lat="43.6998733" lon="12.4931983"><ele>415.0</ele><time>2026-04-25T08:43:14.937Z</time></trkpt><trkpt lat="43.699785" lon="12.4934117"><ele>415.0</ele><time>2026-04-25T08:43:15.937Z</time></trkpt><trkpt lat="43.6996917" lon="12.4936217"><ele>413.33333333333337</ele><time>2026-04-25T08:43:16.937Z</time></trkpt><trkpt lat="43.6995933" lon="12.4938267"><ele>411.66666666666663</ele><time>2026-04-25T08:43:17.937Z</time></trkpt><trkpt lat="43.6994917" lon="12.494025"><ele>410.0</ele><time>2026-04-25T08:43:18.937Z</time></trkpt><trkpt lat="43.6993883" lon="12.4942167"><ele>415.0</ele><time>2026-04-25T08:43:19.936Z</time></trkpt><trkpt lat="43.69928" lon="12.494405"><ele>420.0</ele><time>2026-04-25T08:43:20.937Z</time></trkpt><trkpt lat="43.699175" lon="12.4945883"><ele>425.0</ele><time>2026-04-25T08:43:21.936Z</time></trkpt><trkpt lat="43.6990817" lon="12.4947883"><ele>425.0</ele><time>2026-04-25T08:43:22.937Z</time></trkpt><trkpt lat="43.6990117" lon="12.4950067"><ele>425.0</ele><time>2026-04-25T08:43:23.937Z</time></trkpt><trkpt lat="43.698955" lon="12.4952383"><ele>425.0</ele><time>2026-04-25T08:43:24.936Z</time></trkpt><trkpt lat="43.6989083" lon="12.4954683"><ele>423.66666666666663</ele><time>2026-04-25T08:43:25.936Z</time></trkpt><trkpt lat="43.6988633" lon="12.4956983"><ele>422.33333333333337</ele><time>2026-04-25T08:43:26.937Z</time></trkpt><trkpt lat="43.6988167" lon="12.4959233"><ele>421.0</ele><time>2026-04-25T08:43:27.937Z</time></trkpt><trkpt lat="43.6987733" lon="12.4961517"><ele>420.6666666666667</ele><time>2026-04-25T08:43:28.936Z</time></trkpt><trkpt lat="43.6987183" lon="12.4963783"><ele>420.33333333333337</ele><time>2026-04-25T08:43:29.937Z</time></trkpt><trkpt lat="43.6986533" lon="12.4965983"><ele>420.0</ele><time>2026-04-25T08:43:30.937Z</time></trkpt><trkpt lat="43.69858" lon="12.4968117"><ele>425.33333333333337</ele><time>2026-04-25T08:43:31.936Z</time></trkpt><trkpt lat="43.6984933" lon="12.4970083"><ele>430.6666666666667</ele><time>2026-04-25T08:43:32.937Z</time></trkpt><trkpt lat="43.6984" lon="12.4971933"><ele>436.0</ele><time>2026-04-25T08:43:33.937Z</time></trkpt><trkpt lat="43.6983" lon="12.4973667"><ele>436.0</ele><time>2026-04-25T08:43:34.937Z</time></trkpt><trkpt lat="43.6982033" lon="12.497525"><ele>436.0</ele><time>2026-04-25T08:43:35.937Z</time></trkpt><trkpt lat="43.6981167" lon="12.4976817"><ele>436.0</ele><time>2026-04-25T08:43:36.937Z</time></trkpt><trkpt lat="43.69801" lon="12.4978133"><ele>436.0</ele><time>2026-04-25T08:43:37.937Z</time></trkpt><trkpt lat="43.697885" lon="12.4979283"><ele>438.6666666666667</ele><time>2026-04-25T08:43:38.937Z</time></trkpt><trkpt lat="43.697745" lon="12.4980183"><ele>441.33333333333337</ele><time>2026-04-25T08:43:39.937Z</time></trkpt><trkpt lat="43.6976" lon="12.4980967"><ele>444.0</ele><time>2026-04-25T08:43:40.937Z</time></trkpt><trkpt lat="43.6974567" lon="12.49818"><ele>444.0</ele><time>2026-04-25T08:43:41.937Z</time></trkpt><trkpt lat="43.6973117" lon="12.4982667"><ele>444.0</ele><time>2026-04-25T08:43:42.937Z</time></trkpt><trkpt lat="43.6971767" lon="12.498345"><ele>444.0</ele><time>2026-04-25T08:43:43.937Z</time></trkpt><trkpt lat="43.6970517" lon="12.4984267"><ele>444.0</ele><time>2026-04-25T08:43:44.937Z</time></trkpt><trkpt lat="43.696945" lon="12.4985217"><ele>447.5</ele><time>2026-04-25T08:43:45.936Z</time></trkpt><trkpt lat="43.6968583" lon="12.49864"><ele>451.0</ele><time>2026-04-25T08:43:46.937Z</time></trkpt><trkpt lat="43.6967883" lon="12.49878"><ele>454.5</ele><time>2026-04-25T08:43:47.937Z</time></trkpt><trkpt lat="43.6967283" lon="12.4989317"><ele>458.0</ele><time>2026-04-25T08:43:48.937Z</time></trkpt><trkpt lat="43.6966717" lon="12.4990833"><ele>457.99999999999994</ele><time>2026-04-25T08:43:49.936Z</time></trkpt><trkpt lat="43.696615" lon="12.4992133"><ele>458.0</ele><time>2026-04-25T08:43:50.937Z</time></trkpt><trkpt lat="43.6965417" lon="12.4992983"><ele>458.0</ele><time>2026-04-25T08:43:51.936Z</time></trkpt><trkpt lat="43.6964617" lon="12.4993367"><ele>458.0</ele><time>2026-04-25T08:43:52.937Z</time></trkpt><trkpt lat="43.6963883" lon="12.499315"><ele>457.99999999999994</ele><time>2026-04-25T08:43:53.936Z</time></trkpt><trkpt lat="43.69633" lon="12.49927"><ele>458.0</ele><time>2026-04-25T08:43:54.937Z</time></trkpt><trkpt lat="43.69625" lon="12.499215"><ele>457.99999999999994</ele><time>2026-04-25T08:43:56.937Z</time></trkpt><trkpt lat="43.696175" lon="12.4992683"><ele>458.0</ele><time>2026-04-25T08:43:58.937Z</time></trkpt><trkpt lat="43.69614" lon="12.4993467"><ele>458.0</ele><time>2026-04-25T08:43:59.937Z</time></trkpt><trkpt lat="43.6961033" lon="12.4994417"><ele>458.0</ele><time>2026-04-25T08:44:00.937Z</time></trkpt><trkpt lat="43.6960517" lon="12.4995467"><ele>457.99999999999994</ele><time>2026-04-25T08:44:01.936Z</time></trkpt><trkpt lat="43.695995" lon="12.4996617"><ele>458.0</ele><time>2026-04-25T08:44:02.937Z</time></trkpt><trkpt lat="43.6959383" lon="12.4997917"><ele>458.25</ele><time>2026-04-25T08:44:03.937Z</time></trkpt><trkpt lat="43.6958917" lon="12.49993"><ele>458.5</ele><time>2026-04-25T08:44:04.937Z</time></trkpt><trkpt lat="43.6958633" lon="12.5000817"><ele>458.75</ele><time>2026-04-25T08:44:05.937Z</time></trkpt><trkpt lat="43.6958467" lon="12.50024"><ele>459.0</ele><time>2026-04-25T08:44:06.937Z</time></trkpt><trkpt lat="43.69582" lon="12.500395"><ele>459.75</ele><time>2026-04-25T08:44:07.936Z</time></trkpt><trkpt lat="43.6957733" lon="12.5005417"><ele>460.5</ele><time>2026-04-25T08:44:08.937Z</time></trkpt><trkpt lat="43.6957167" lon="12.5006783"><ele>461.25</ele><time>2026-04-25T08:44:09.937Z</time></trkpt><trkpt lat="43.6956533" lon="12.5008083"><ele>462.0</ele><time>2026-04-25T08:44:10.936Z</time></trkpt><trkpt lat="43.69558" lon="12.5009233"><ele>462.0</ele><time>2026-04-25T08:44:11.936Z</time></trkpt><trkpt lat="43.6954867" lon="12.5010167"><ele>462.0</ele><time>2026-04-25T08:44:12.936Z</time></trkpt><trkpt lat="43.6953883" lon="12.50109"><ele>462.0</ele><time>2026-04-25T08:44:13.937Z</time></trkpt><trkpt lat="43.6952833" lon="12.5011517"><ele>462.0</ele><time>2026-04-25T08:44:14.937Z</time></trkpt><trkpt lat="43.695175" lon="12.5012083"><ele>461.5</ele><time>2026-04-25T08:44:15.937Z</time></trkpt><trkpt lat="43.6950633" lon="12.5012683"><ele>461.0</ele><time>2026-04-25T08:44:16.937Z</time></trkpt><trkpt lat="43.69495" lon="12.50133"><ele>460.5</ele><time>2026-04-25T08:44:17.937Z</time></trkpt><trkpt lat="43.6948367" lon="12.5013933"><ele>460.0</ele><time>2026-04-25T08:44:18.937Z</time></trkpt><trkpt lat="43.6947267" lon="12.501455"><ele>460.0</ele><time>2026-04-25T08:44:19.937Z</time></trkpt><trkpt lat="43.69462" lon="12.5015133"><ele>460.0</ele><time>2026-04-25T08:44:20.936Z</time></trkpt><trkpt lat="43.694525" lon="12.50158"><ele>460.0</ele><time>2026-04-25T08:44:21.937Z</time></trkpt><trkpt lat="43.6944433" lon="12.5016667"><ele>460.0</ele><time>2026-04-25T08:44:22.937Z</time></trkpt><trkpt lat="43.6943833" lon="12.5017883"><ele>460.0</ele><time>2026-04-25T08:44:23.936Z</time></trkpt><trkpt lat="43.6943533" lon="12.5019333"><ele>461.0</ele><time>2026-04-25T08:44:24.937Z</time></trkpt><trkpt lat="43.6943517" lon="12.5020883"><ele>462.0</ele><time>2026-04-25T08:44:25.937Z</time></trkpt><trkpt lat="43.6943783" lon="12.502245"><ele>463.0</ele><time>2026-04-25T08:44:26.936Z</time></trkpt><trkpt lat="43.6944217" lon="12.5024017"><ele>464.0</ele><time>2026-04-25T08:44:27.936Z</time></trkpt><trkpt lat="43.6944617" lon="12.5025583"><ele>464.0</ele><time>2026-04-25T08:44:28.937Z</time></trkpt><trkpt lat="43.69449" lon="12.502725"><ele>464.0</ele><time>2026-04-25T08:44:29.937Z</time></trkpt><trkpt lat="43.6944967" lon="12.5028983"><ele>464.0</ele><time>2026-04-25T08:44:30.937Z</time></trkpt><trkpt lat="43.6944633" lon="12.50307"><ele>464.0</ele><time>2026-04-25T08:44:31.937Z</time></trkpt><trkpt lat="43.6944133" lon="12.503235"><ele>459.25</ele><time>2026-04-25T08:44:32.937Z</time></trkpt><trkpt lat="43.6943517" lon="12.5033967"><ele>454.5</ele><time>2026-04-25T08:44:33.937Z</time></trkpt><trkpt lat="43.69429" lon="12.5035683"><ele>449.75</ele><time>2026-04-25T08:44:34.937Z</time></trkpt><trkpt lat="43.69422" lon="12.5037383"><ele>445.0</ele><time>2026-04-25T08:44:35.937Z</time></trkpt><trkpt lat="43.694145" lon="12.5039083"><ele>445.0</ele><time>2026-04-25T08:44:36.937Z</time></trkpt><trkpt lat="43.6940733" lon="12.5040767"><ele>445.0</ele><time>2026-04-25T08:44:37.937Z</time></trkpt><trkpt lat="43.694" lon="12.5042467"><ele>445.0</ele><time>2026-04-25T08:44:38.937Z</time></trkpt><trkpt lat="43.6939267" lon="12.50441"><ele>445.0</ele><time>2026-04-25T08:44:39.937Z</time></trkpt><trkpt lat="43.6938433" lon="12.5045617"><ele>447.5</ele><time>2026-04-25T08:44:40.937Z</time></trkpt><trkpt lat="43.6937467" lon="12.5046817"><ele>450.0</ele><time>2026-04-25T08:44:41.937Z</time></trkpt><trkpt lat="43.693645" lon="12.50477"><ele>452.5</ele><time>2026-04-25T08:44:42.937Z</time></trkpt><trkpt lat="43.6935317" lon="12.5048333"><ele>455.0</ele><time>2026-04-25T08:44:43.937Z</time></trkpt><trkpt lat="43.6934117" lon="12.504875"><ele>450.0</ele><time>2026-04-25T08:44:44.937Z</time></trkpt><trkpt lat="43.693285" lon="12.504905"><ele>445.0</ele><time>2026-04-25T08:44:45.937Z</time></trkpt><trkpt lat="43.6931617" lon="12.5049283"><ele>440.0</ele><time>2026-04-25T08:44:46.937Z</time></trkpt><trkpt lat="43.6930417" lon="12.5049533"><ele>435.0</ele><time>2026-04-25T08:44:47.937Z</time></trkpt><trkpt lat="43.692925" lon="12.504985"><ele>435.0</ele><time>2026-04-25T08:44:48.936Z</time></trkpt><trkpt lat="43.6928083" lon="12.5050283"><ele>435.0</ele><time>2026-04-25T08:44:49.936Z</time></trkpt><trkpt lat="43.6926933" lon="12.5050817"><ele>435.0</ele><time>2026-04-25T08:44:50.937Z</time></trkpt><trkpt lat="43.6925733" lon="12.505165"><ele>435.0</ele><time>2026-04-25T08:44:51.936Z</time></trkpt><trkpt lat="43.6924467" lon="12.5052567"><ele>434.33333333333337</ele><time>2026-04-25T08:44:52.936Z</time></trkpt><trkpt lat="43.6923133" lon="12.505345"><ele>433.6666666666667</ele><time>2026-04-25T08:44:53.936Z</time></trkpt><trkpt lat="43.6921733" lon="12.5054317"><ele>433.0</ele><time>2026-04-25T08:44:54.937Z</time></trkpt><trkpt lat="43.692035" lon="12.5055217"><ele>429.75</ele><time>2026-04-25T08:44:55.937Z</time></trkpt><trkpt lat="43.691895" lon="12.505595"><ele>426.5</ele><time>2026-04-25T08:44:56.937Z</time></trkpt><trkpt lat="43.6917583" lon="12.5056583"><ele>423.25</ele><time>2026-04-25T08:44:57.937Z</time></trkpt><trkpt lat="43.6916267" lon="12.505695"><ele>420.0</ele><time>2026-04-25T08:44:58.937Z</time></trkpt><trkpt lat="43.6914983" lon="12.5056867"><ele>420.0</ele><time>2026-04-25T08:44:59.937Z</time></trkpt><trkpt lat="43.6913817" lon="12.5056433"><ele>420.0</ele><time>2026-04-25T08:45:00.937Z</time></trkpt><trkpt lat="43.6912717" lon="12.5055783"><ele>420.0</ele><time>2026-04-25T08:45:01.936Z</time></trkpt><trkpt lat="43.6911817" lon="12.505475"><ele>420.0</ele><time>2026-04-25T08:45:02.937Z</time></trkpt><trkpt lat="43.6911083" lon="12.5053483"><ele>416.75</ele><time>2026-04-25T08:45:03.937Z</time></trkpt><trkpt lat="43.691045" lon="12.5052117"><ele>413.5</ele><time>2026-04-25T08:45:04.936Z</time></trkpt><trkpt lat="43.690985" lon="12.50507"><ele>410.25</ele><time>2026-04-25T08:45:05.936Z</time></trkpt><trkpt lat="43.6909267" lon="12.50493"><ele>407.0</ele><time>2026-04-25T08:45:06.936Z</time></trkpt><trkpt lat="43.6908667" lon="12.5048083"><ele>407.0</ele><time>2026-04-25T08:45:07.937Z</time></trkpt><trkpt lat="43.6908017" lon="12.5047117"><ele>407.0</ele><time>2026-04-25T08:45:08.936Z</time></trkpt><trkpt lat="43.69072" lon="12.5046433"><ele>407.0</ele><time>2026-04-25T08:45:09.937Z</time></trkpt><trkpt lat="43.69061" lon="12.5046133"><ele>407.0</ele><time>2026-04-25T08:45:10.937Z</time></trkpt><trkpt lat="43.6904733" lon="12.5046017"><ele>407.0</ele><time>2026-04-25T08:45:11.937Z</time></trkpt><trkpt lat="43.69032" lon="12.5045867"><ele>402.0</ele><time>2026-04-25T08:45:12.936Z</time></trkpt><trkpt lat="43.6901717" lon="12.5045583"><ele>397.0</ele><time>2026-04-25T08:45:13.936Z</time></trkpt><trkpt lat="43.690035" lon="12.504495"><ele>392.0</ele><time>2026-04-25T08:45:14.937Z</time></trkpt><trkpt lat="43.68991" lon="12.5044217"><ele>387.0</ele><time>2026-04-25T08:45:15.936Z</time></trkpt><trkpt lat="43.68978" lon="12.504365"><ele>387.0</ele><time>2026-04-25T08:45:16.936Z</time></trkpt><trkpt lat="43.68965" lon="12.5043567"><ele>387.0</ele><time>2026-04-25T08:45:17.937Z</time></trkpt><trkpt lat="43.6895333" lon="12.5044067"><ele>387.0</ele><time>2026-04-25T08:45:18.936Z</time></trkpt><trkpt lat="43.6894417" lon="12.5044967"><ele>387.0</ele><time>2026-04-25T08:45:19.937Z</time></trkpt><trkpt lat="43.6893817" lon="12.5046317"><ele>388.5</ele><time>2026-04-25T08:45:20.936Z</time></trkpt><trkpt lat="43.6893567" lon="12.5047833"><ele>390.0</ele><time>2026-04-25T08:45:21.937Z</time></trkpt><trkpt lat="43.6893883" lon="12.5049467"><ele>391.5</ele><time>2026-04-25T08:45:22.937Z</time></trkpt><trkpt lat="43.68946" lon="12.5050967"><ele>393.0</ele><time>2026-04-25T08:45:23.937Z</time></trkpt><trkpt lat="43.6895383" lon="12.50524"><ele>393.0</ele><time>2026-04-25T08:45:24.937Z</time></trkpt><trkpt lat="43.68963" lon="12.5053767"><ele>393.0</ele><time>2026-04-25T08:45:25.937Z</time></trkpt><trkpt lat="43.68971" lon="12.5055217"><ele>393.0</ele><time>2026-04-25T08:45:26.937Z</time></trkpt><trkpt lat="43.6897633" lon="12.505695"><ele>393.0</ele><time>2026-04-25T08:45:27.937Z</time></trkpt><trkpt lat="43.6897917" lon="12.5058783"><ele>390.75</ele><time>2026-04-25T08:45:28.937Z</time></trkpt><trkpt lat="43.68978" lon="12.5060667"><ele>388.5</ele><time>2026-04-25T08:45:29.937Z</time></trkpt><trkpt lat="43.6897317" lon="12.5062517"><ele>386.25</ele><time>2026-04-25T08:45:30.937Z</time></trkpt><trkpt lat="43.689655" lon="12.50642"><ele>384.0</ele><time>2026-04-25T08:45:31.936Z</time></trkpt><trkpt lat="43.689555" lon="12.50658"><ele>384.0</ele><time>2026-04-25T08:45:32.937Z</time></trkpt><trkpt lat="43.68946" lon="12.5067483"><ele>384.0</ele><time>2026-04-25T08:45:33.936Z</time></trkpt><trkpt lat="43.6893683" lon="12.5069183"><ele>384.0</ele><time>2026-04-25T08:45:34.937Z</time></trkpt><trkpt lat="43.689275" lon="12.5070817"><ele>380.0</ele><time>2026-04-25T08:45:35.937Z</time></trkpt><trkpt lat="43.689165" lon="12.50721"><ele>376.0</ele><time>2026-04-25T08:45:36.936Z</time></trkpt><trkpt lat="43.6890367" lon="12.5072983"><ele>372.0</ele><time>2026-04-25T08:45:37.937Z</time></trkpt><trkpt lat="43.68889" lon="12.5073483"><ele>368.0</ele><time>2026-04-25T08:45:38.937Z</time></trkpt><trkpt lat="43.6887433" lon="12.5073967"><ele>368.0</ele><time>2026-04-25T08:45:39.937Z</time></trkpt><trkpt lat="43.6885967" lon="12.5074383"><ele>368.0</ele><time>2026-04-25T08:45:40.937Z</time></trkpt><trkpt lat="43.6884517" lon="12.5074733"><ele>368.0</ele><time>2026-04-25T08:45:41.937Z</time></trkpt><trkpt lat="43.6883067" lon="12.5074933"><ele>368.0</ele><time>2026-04-25T08:45:42.937Z</time></trkpt><trkpt lat="43.6881583" lon="12.5074767"><ele>364.5</ele><time>2026-04-25T08:45:43.937Z</time></trkpt><trkpt lat="43.688015" lon="12.5074717"><ele>361.0</ele><time>2026-04-25T08:45:44.936Z</time></trkpt><trkpt lat="43.6878783" lon="12.5075217"><ele>357.5</ele><time>2026-04-25T08:45:45.937Z</time></trkpt><trkpt lat="43.68774" lon="12.5076133"><ele>354.0</ele><time>2026-04-25T08:45:46.936Z</time></trkpt><trkpt lat="43.687615" lon="12.507715"><ele>351.0</ele><time>2026-04-25T08:45:47.937Z</time></trkpt><trkpt lat="43.6875067" lon="12.5078333"><ele>348.0</ele><time>2026-04-25T08:45:48.937Z</time></trkpt><trkpt lat="43.6874167" lon="12.5079517"><ele>345.0</ele><time>2026-04-25T08:45:49.937Z</time></trkpt><trkpt lat="43.687365" lon="12.50809"><ele>342.0</ele><time>2026-04-25T08:45:50.937Z</time></trkpt><trkpt lat="43.6873733" lon="12.50825"><ele>342.0</ele><time>2026-04-25T08:45:51.936Z</time></trkpt><trkpt lat="43.68741" lon="12.508415"><ele>342.0</ele><time>2026-04-25T08:45:52.937Z</time></trkpt><trkpt lat="43.6874517" lon="12.5085783"><ele>342.0</ele><time>2026-04-25T08:45:53.936Z</time></trkpt><trkpt lat="43.6874667" lon="12.5087367"><ele>342.0</ele><time>2026-04-25T08:45:54.937Z</time></trkpt><trkpt lat="43.6874183" lon="12.5088667"><ele>341.6</ele><time>2026-04-25T08:45:55.937Z</time></trkpt><trkpt lat="43.6873317" lon="12.5089383"><ele>341.20000000000005</ele><time>2026-04-25T08:45:56.937Z</time></trkpt><trkpt lat="43.687235" lon="12.5089783"><ele>340.8</ele><time>2026-04-25T08:45:57.937Z</time></trkpt><trkpt lat="43.6871183" lon="12.5089967"><ele>340.4</ele><time>2026-04-25T08:45:58.937Z</time></trkpt><trkpt lat="43.686995" lon="12.509025"><ele>340.0</ele><time>2026-04-25T08:45:59.937Z</time></trkpt><trkpt lat="43.6868783" lon="12.5090833"><ele>336.25</ele><time>2026-04-25T08:46:00.936Z</time></trkpt><trkpt lat="43.6867733" lon="12.5091867"><ele>332.5</ele><time>2026-04-25T08:46:01.936Z</time></trkpt><trkpt lat="43.686685" lon="12.5093317"><ele>328.75</ele><time>2026-04-25T08:46:02.937Z</time></trkpt><trkpt lat="43.6866083" lon="12.509505"><ele>325.0</ele><time>2026-04-25T08:46:03.937Z</time></trkpt><trkpt lat="43.6865333" lon="12.5096933"><ele>325.0</ele><time>2026-04-25T08:46:04.937Z</time></trkpt><trkpt lat="43.6864583" lon="12.509885"><ele>325.0</ele><time>2026-04-25T08:46:05.936Z</time></trkpt><trkpt lat="43.6863817" lon="12.510075"><ele>325.0</ele><time>2026-04-25T08:46:06.937Z</time></trkpt><trkpt lat="43.6862983" lon="12.5102667"><ele>325.66666666666663</ele><time>2026-04-25T08:46:07.937Z</time></trkpt><trkpt lat="43.6862067" lon="12.510455"><ele>326.3333333333333</ele><time>2026-04-25T08:46:08.937Z</time></trkpt><trkpt lat="43.68611" lon="12.5106417"><ele>327.0</ele><time>2026-04-25T08:46:09.937Z</time></trkpt><trkpt lat="43.6860117" lon="12.5108233"><ele>320.3333333333333</ele><time>2026-04-25T08:46:10.937Z</time></trkpt><trkpt lat="43.6859083" lon="12.511"><ele>313.66666666666663</ele><time>2026-04-25T08:46:11.937Z</time></trkpt><trkpt lat="43.68581" lon="12.5111733"><ele>307.0</ele><time>2026-04-25T08:46:12.937Z</time></trkpt><trkpt lat="43.6857133" lon="12.5113433"><ele>307.0</ele><time>2026-04-25T08:46:13.936Z</time></trkpt><trkpt lat="43.68562" lon="12.5115167"><ele>307.0</ele><time>2026-04-25T08:46:14.937Z</time></trkpt><trkpt lat="43.6855383" lon="12.5116933"><ele>307.0</ele><time>2026-04-25T08:46:15.937Z</time></trkpt><trkpt lat="43.6854883" lon="12.5118817"><ele>304.66666666666663</ele><time>2026-04-25T08:46:16.937Z</time></trkpt><trkpt lat="43.6854767" lon="12.512085"><ele>302.3333333333333</ele><time>2026-04-25T08:46:17.937Z</time></trkpt><trkpt lat="43.6854933" lon="12.5123017"><ele>300.0</ele><time>2026-04-25T08:46:18.937Z</time></trkpt><trkpt lat="43.68552" lon="12.5125183"><ele>300.0</ele><time>2026-04-25T08:46:19.937Z</time></trkpt><trkpt lat="43.6855433" lon="12.5127317"><ele>300.0</ele><time>2026-04-25T08:46:20.937Z</time></trkpt><trkpt lat="43.6855583" lon="12.51293"><ele>300.0</ele><time>2026-04-25T08:46:21.936Z</time></trkpt><trkpt lat="43.68556" lon="12.5130933"><ele>300.0</ele><time>2026-04-25T08:46:22.937Z</time></trkpt><trkpt lat="43.6855283" lon="12.5132167"><ele>298.0</ele><time>2026-04-25T08:46:23.937Z</time></trkpt><trkpt lat="43.68546" lon="12.5132883"><ele>296.0</ele><time>2026-04-25T08:46:24.937Z</time></trkpt><trkpt lat="43.6853683" lon="12.5133033"><ele>294.0</ele><time>2026-04-25T08:46:25.937Z</time></trkpt><trkpt lat="43.6852383" lon="12.5132733"><ele>292.0</ele><time>2026-04-25T08:46:26.936Z</time></trkpt><trkpt lat="43.68509" lon="12.5132417"><ele>289.66666666666663</ele><time>2026-04-25T08:46:27.936Z</time></trkpt><trkpt lat="43.6849367" lon="12.5132233"><ele>287.3333333333333</ele><time>2026-04-25T08:46:28.936Z</time></trkpt><trkpt lat="43.684785" lon="12.5132217"><ele>285.0</ele><time>2026-04-25T08:46:29.937Z</time></trkpt><trkpt lat="43.6846417" lon="12.51325"><ele>285.0</ele><time>2026-04-25T08:46:30.937Z</time></trkpt><trkpt lat="43.6845133" lon="12.5133383"><ele>285.0</ele><time>2026-04-25T08:46:31.937Z</time></trkpt><trkpt lat="43.6844017" lon="12.5134817"><ele>285.0</ele><time>2026-04-25T08:46:32.937Z</time></trkpt><trkpt lat="43.6843" lon="12.5136583"><ele>285.3333333333333</ele><time>2026-04-25T08:46:33.937Z</time></trkpt><trkpt lat="43.6841983" lon="12.5138417"><ele>285.66666666666663</ele><time>2026-04-25T08:46:34.936Z</time></trkpt><trkpt lat="43.6840967" lon="12.5140283"><ele>286.0</ele><time>2026-04-25T08:46:35.936Z</time></trkpt><trkpt lat="43.68399" lon="12.514215"><ele>286.0</ele><time>2026-04-25T08:46:36.937Z</time></trkpt><trkpt lat="43.6838783" lon="12.5143967"><ele>286.0</ele><time>2026-04-25T08:46:37.937Z</time></trkpt><trkpt lat="43.6837717" lon="12.5145817"><ele>286.0</ele><time>2026-04-25T08:46:38.937Z</time></trkpt><trkpt lat="43.6836633" lon="12.5147683"><ele>284.3333333333333</ele><time>2026-04-25T08:46:39.936Z</time></trkpt><trkpt lat="43.68357" lon="12.5149683"><ele>282.6666666666667</ele><time>2026-04-25T08:46:40.936Z</time></trkpt><trkpt lat="43.683495" lon="12.5151767"><ele>281.0</ele><time>2026-04-25T08:46:41.937Z</time></trkpt><trkpt lat="43.683435" lon="12.51539"><ele>282.0</ele><time>2026-04-25T08:46:42.937Z</time></trkpt><trkpt lat="43.6833867" lon="12.515605"><ele>283.0</ele><time>2026-04-25T08:46:43.937Z</time></trkpt><trkpt lat="43.68334" lon="12.5158133"><ele>284.0</ele><time>2026-04-25T08:46:44.936Z</time></trkpt><trkpt lat="43.6832967" lon="12.51602"><ele>284.0</ele><time>2026-04-25T08:46:45.937Z</time></trkpt><trkpt lat="43.6832433" lon="12.5162183"><ele>284.0</ele><time>2026-04-25T08:46:46.936Z</time></trkpt><trkpt lat="43.68317" lon="12.5164083"><ele>284.0</ele><time>2026-04-25T08:46:47.937Z</time></trkpt><trkpt lat="43.6830783" lon="12.5165783"><ele>286.6666666666667</ele><time>2026-04-25T08:46:48.936Z</time></trkpt><trkpt lat="43.68297" lon="12.5167333"><ele>289.3333333333333</ele><time>2026-04-25T08:46:49.937Z</time></trkpt><trkpt lat="43.68287" lon="12.51689"><ele>292.0</ele><time>2026-04-25T08:46:50.937Z</time></trkpt><trkpt lat="43.68278" lon="12.5170617"><ele>287.66666666666663</ele><time>2026-04-25T08:46:51.937Z</time></trkpt><trkpt lat="43.6827" lon="12.517245"><ele>283.3333333333333</ele><time>2026-04-25T08:46:52.936Z</time></trkpt><trkpt lat="43.6826267" lon="12.5174383"><ele>279.0</ele><time>2026-04-25T08:46:53.936Z</time></trkpt><trkpt lat="43.6825617" lon="12.517635"><ele>279.0</ele><time>2026-04-25T08:46:54.937Z</time></trkpt><trkpt lat="43.6824933" lon="12.5178283"><ele>279.0</ele><time>2026-04-25T08:46:55.937Z</time></trkpt><trkpt lat="43.6824183" lon="12.51802"><ele>279.0</ele><time>2026-04-25T08:46:56.937Z</time></trkpt><trkpt lat="43.6823383" lon="12.5182083"><ele>283.3333333333333</ele><time>2026-04-25T08:46:57.937Z</time></trkpt><trkpt lat="43.6822517" lon="12.5183933"><ele>287.66666666666663</ele><time>2026-04-25T08:46:58.937Z</time></trkpt><trkpt lat="43.6821617" lon="12.5185683"><ele>292.0</ele><time>2026-04-25T08:46:59.936Z</time></trkpt><trkpt lat="43.6820683" lon="12.518735"><ele>291.0</ele><time>2026-04-25T08:47:00.936Z</time></trkpt><trkpt lat="43.681965" lon="12.5188983"><ele>290.0</ele><time>2026-04-25T08:47:01.936Z</time></trkpt><trkpt lat="43.6818567" lon="12.51906"><ele>289.0</ele><time>2026-04-25T08:47:02.937Z</time></trkpt><trkpt lat="43.68175" lon="12.519225"><ele>289.0</ele><time>2026-04-25T08:47:03.937Z</time></trkpt><trkpt lat="43.681645" lon="12.5194"><ele>289.0</ele><time>2026-04-25T08:47:04.937Z</time></trkpt><trkpt lat="43.681545" lon="12.5195817"><ele>289.0</ele><time>2026-04-25T08:47:05.936Z</time></trkpt><trkpt lat="43.6814517" lon="12.5197717"><ele>291.0</ele><time>2026-04-25T08:47:06.936Z</time></trkpt><trkpt lat="43.68136" lon="12.5199583"><ele>293.0</ele><time>2026-04-25T08:47:07.937Z</time></trkpt><trkpt lat="43.6812533" lon="12.52012"><ele>295.0</ele><time>2026-04-25T08:47:08.937Z</time></trkpt><trkpt lat="43.681125" lon="12.52025"><ele>296.3333333333333</ele><time>2026-04-25T08:47:09.937Z</time></trkpt><trkpt lat="43.6809817" lon="12.5203517"><ele>297.6666666666667</ele><time>2026-04-25T08:47:10.937Z</time></trkpt><trkpt lat="43.68083" lon="12.5204333"><ele>299.0</ele><time>2026-04-25T08:47:11.937Z</time></trkpt><trkpt lat="43.6806733" lon="12.5205033"><ele>299.0</ele><time>2026-04-25T08:47:12.937Z</time></trkpt><trkpt lat="43.6805133" lon="12.5205717"><ele>299.0</ele><time>2026-04-25T08:47:13.937Z</time></trkpt><trkpt lat="43.68035" lon="12.520625"><ele>299.0</ele><time>2026-04-25T08:47:14.937Z</time></trkpt><trkpt lat="43.6801833" lon="12.5206667"><ele>297.0</ele><time>2026-04-25T08:47:15.937Z</time></trkpt><trkpt lat="43.680015" lon="12.5207117"><ele>295.0</ele><time>2026-04-25T08:47:16.937Z</time></trkpt><trkpt lat="43.6798533" lon="12.5207517"><ele>293.0</ele><time>2026-04-25T08:47:17.936Z</time></trkpt><trkpt lat="43.6797" lon="12.5207917"><ele>293.0</ele><time>2026-04-25T08:47:18.937Z</time></trkpt><trkpt lat="43.6795617" lon="12.5208233"><ele>293.0</ele><time>2026-04-25T08:47:19.937Z</time></trkpt><trkpt lat="43.6794367" lon="12.52083"><ele>293.0</ele><time>2026-04-25T08:47:20.936Z</time></trkpt><trkpt lat="43.6793283" lon="12.5208133"><ele>293.0</ele><time>2026-04-25T08:47:21.937Z</time></trkpt><trkpt lat="43.679235" lon="12.52076"><ele>291.4</ele><time>2026-04-25T08:47:22.937Z</time></trkpt><trkpt lat="43.6791567" lon="12.520765"><ele>289.8</ele><time>2026-04-25T08:47:23.938Z</time></trkpt><trkpt lat="43.6791" lon="12.5208383"><ele>288.2</ele><time>2026-04-25T08:47:24.938Z</time></trkpt><trkpt lat="43.6790567" lon="12.5209633"><ele>286.6</ele><time>2026-04-25T08:47:25.938Z</time></trkpt><trkpt lat="43.6789967" lon="12.5210867"><ele>285.0</ele><time>2026-04-25T08:47:26.938Z</time></trkpt><trkpt lat="43.678905" lon="12.5211733"><ele>286.0</ele><time>2026-04-25T08:47:27.938Z</time></trkpt><trkpt lat="43.678795" lon="12.5212567"><ele>287.0</ele><time>2026-04-25T08:47:28.937Z</time></trkpt><trkpt lat="43.6786767" lon="12.5213367"><ele>288.0</ele><time>2026-04-25T08:47:29.937Z</time></trkpt><trkpt lat="43.6785517" lon="12.52142"><ele>289.0</ele><time>2026-04-25T08:47:30.938Z</time></trkpt><trkpt lat="43.6784183" lon="12.5215033"><ele>289.0</ele><time>2026-04-25T08:47:31.938Z</time></trkpt><trkpt lat="43.67828" lon="12.5215883"><ele>289.0</ele><time>2026-04-25T08:47:32.937Z</time></trkpt><trkpt lat="43.67814" lon="12.5216783"><ele>289.0</ele><time>2026-04-25T08:47:33.938Z</time></trkpt><trkpt lat="43.6780017" lon="12.5217767"><ele>289.0</ele><time>2026-04-25T08:47:34.938Z</time></trkpt><trkpt lat="43.6778617" lon="12.52188"><ele>289.0</ele><time>2026-04-25T08:47:35.938Z</time></trkpt><trkpt lat="43.6777167" lon="12.5219783"><ele>289.0</ele><time>2026-04-25T08:47:36.938Z</time></trkpt><trkpt lat="43.677575" lon="12.5220717"><ele>290.3333333333333</ele><time>2026-04-25T08:47:37.938Z</time></trkpt><trkpt lat="43.6774433" lon="12.5221933"><ele>291.6666666666667</ele><time>2026-04-25T08:47:38.938Z</time></trkpt><trkpt lat="43.6773167" lon="12.5223217"><ele>293.0</ele><time>2026-04-25T08:47:39.938Z</time></trkpt><trkpt lat="43.6771883" lon="12.522445"><ele>293.0</ele><time>2026-04-25T08:47:40.938Z</time></trkpt><trkpt lat="43.6770633" lon="12.5225767"><ele>293.0</ele><time>2026-04-25T08:47:41.938Z</time></trkpt><trkpt lat="43.6769367" lon="12.5227067"><ele>293.0</ele><time>2026-04-25T08:47:42.938Z</time></trkpt><trkpt lat="43.67681" lon="12.5228383"><ele>293.0</ele><time>2026-04-25T08:47:43.937Z</time></trkpt><trkpt lat="43.6766883" lon="12.52298"><ele>293.0</ele><time>2026-04-25T08:47:44.938Z</time></trkpt><trkpt lat="43.67657" lon="12.5231267"><ele>293.0</ele><time>2026-04-25T08:47:45.938Z</time></trkpt><trkpt lat="43.6764533" lon="12.523275"><ele>293.0</ele><time>2026-04-25T08:47:46.937Z</time></trkpt><trkpt lat="43.6763383" lon="12.5234283"><ele>293.0</ele><time>2026-04-25T08:47:47.937Z</time></trkpt><trkpt lat="43.6762217" lon="12.52358"><ele>293.0</ele><time>2026-04-25T08:47:48.938Z</time></trkpt><trkpt lat="43.6761033" lon="12.5237283"><ele>292.0</ele><time>2026-04-25T08:47:49.938Z</time></trkpt><trkpt lat="43.6759883" lon="12.5238683"><ele>291.0</ele><time>2026-04-25T08:47:50.937Z</time></trkpt><trkpt lat="43.6758767" lon="12.5239917"><ele>290.0</ele><time>2026-04-25T08:47:51.938Z</time></trkpt><trkpt lat="43.6757733" lon="12.5241033"><ele>289.0</ele><time>2026-04-25T08:47:52.938Z</time></trkpt><trkpt lat="43.6756767" lon="12.5241983"><ele>289.0</ele><time>2026-04-25T08:47:53.937Z</time></trkpt><trkpt lat="43.67559" lon="12.5242617"><ele>289.0</ele><time>2026-04-25T08:47:54.938Z</time></trkpt><trkpt lat="43.6755133" lon="12.524285"><ele>289.0</ele><time>2026-04-25T08:47:55.938Z</time></trkpt><trkpt lat="43.6754483" lon="12.5242583"><ele>289.0</ele><time>2026-04-25T08:47:56.938Z</time></trkpt><trkpt lat="43.6753967" lon="12.5241883"><ele>289.0</ele><time>2026-04-25T08:47:57.938Z</time></trkpt><trkpt lat="43.67535" lon="12.5240983"><ele>289.0</ele><time>2026-04-25T08:47:58.938Z</time></trkpt><trkpt lat="43.67529" lon="12.5240233"><ele>288.2</ele><time>2026-04-25T08:47:59.938Z</time></trkpt><trkpt lat="43.6752167" lon="12.5239767"><ele>287.4</ele><time>2026-04-25T08:48:00.938Z</time></trkpt><trkpt lat="43.6751317" lon="12.5240067"><ele>286.6</ele><time>2026-04-25T08:48:01.937Z</time></trkpt><trkpt lat="43.6750483" lon="12.5240733"><ele>285.8</ele><time>2026-04-25T08:48:02.937Z</time></trkpt><trkpt lat="43.6749667" lon="12.5241767"><ele>285.0</ele><time>2026-04-25T08:48:03.937Z</time></trkpt><trkpt lat="43.6748617" lon="12.5242133"><ele>285.0</ele><time>2026-04-25T08:48:04.937Z</time></trkpt><trkpt lat="43.6747417" lon="12.5241767"><ele>285.0</ele><time>2026-04-25T08:48:05.937Z</time></trkpt><trkpt lat="43.6746167" lon="12.5241133"><ele>285.0</ele><time>2026-04-25T08:48:06.937Z</time></trkpt><trkpt lat="43.674485" lon="12.524055"><ele>285.0</ele><time>2026-04-25T08:48:07.938Z</time></trkpt><trkpt lat="43.6743517" lon="12.5239917"><ele>284.75</ele><time>2026-04-25T08:48:08.938Z</time></trkpt><trkpt lat="43.674215" lon="12.5239333"><ele>284.5</ele><time>2026-04-25T08:48:09.938Z</time></trkpt><trkpt lat="43.674075" lon="12.5238733"><ele>284.25</ele><time>2026-04-25T08:48:10.938Z</time></trkpt><trkpt lat="43.6739383" lon="12.5238017"><ele>284.0</ele><time>2026-04-25T08:48:11.937Z</time></trkpt><trkpt lat="43.6737983" lon="12.52373"><ele>283.33333333333337</ele><time>2026-04-25T08:48:12.938Z</time></trkpt><trkpt lat="43.6736567" lon="12.52366"><ele>282.6666666666667</ele><time>2026-04-25T08:48:13.937Z</time></trkpt><trkpt lat="43.6735133" lon="12.5235883"><ele>282.0</ele><time>2026-04-25T08:48:14.938Z</time></trkpt><trkpt lat="43.6733683" lon="12.5235217"><ele>281.25</ele><time>2026-04-25T08:48:15.938Z</time></trkpt><trkpt lat="43.673225" lon="12.523455"><ele>280.5</ele><time>2026-04-25T08:48:16.938Z</time></trkpt><trkpt lat="43.6730867" lon="12.52339"><ele>279.75</ele><time>2026-04-25T08:48:17.938Z</time></trkpt><trkpt lat="43.672955" lon="12.523325"><ele>279.0</ele><time>2026-04-25T08:48:18.938Z</time></trkpt><trkpt lat="43.6728267" lon="12.5232717"><ele>278.75</ele><time>2026-04-25T08:48:19.938Z</time></trkpt><trkpt lat="43.672705" lon="12.5232167"><ele>278.5</ele><time>2026-04-25T08:48:20.937Z</time></trkpt><trkpt lat="43.67259" lon="12.5231583"><ele>278.25</ele><time>2026-04-25T08:48:21.938Z</time></trkpt><trkpt lat="43.6724783" lon="12.5231033"><ele>278.0</ele><time>2026-04-25T08:48:22.937Z</time></trkpt><trkpt lat="43.6723717" lon="12.5230533"><ele>278.0</ele><time>2026-04-25T08:48:23.937Z</time></trkpt><trkpt lat="43.6722717" lon="12.5230067"><ele>278.0</ele><time>2026-04-25T08:48:24.937Z</time></trkpt><trkpt lat="43.6721867" lon="12.5229417"><ele>278.0</ele><time>2026-04-25T08:48:25.937Z</time></trkpt><trkpt lat="43.6721367" lon="12.5228433"><ele>278.0</ele><time>2026-04-25T08:48:26.936Z</time></trkpt><trkpt lat="43.672105" lon="12.5227233"><ele>278.0</ele><time>2026-04-25T08:48:27.936Z</time></trkpt><trkpt lat="43.67206" lon="12.5226183"><ele>278.0</ele><time>2026-04-25T08:48:28.937Z</time></trkpt><trkpt lat="43.6719767" lon="12.52256"><ele>278.0</ele><time>2026-04-25T08:48:29.937Z</time></trkpt><trkpt lat="43.6718717" lon="12.5225317"><ele>278.0</ele><time>2026-04-25T08:48:30.937Z</time></trkpt><trkpt lat="43.6717633" lon="12.522485"><ele>278.0</ele><time>2026-04-25T08:48:31.937Z</time></trkpt><trkpt lat="43.67166" lon="12.5223967"><ele>278.0</ele><time>2026-04-25T08:48:32.937Z</time></trkpt><trkpt lat="43.6715633" lon="12.5222817"><ele>277.75</ele><time>2026-04-25T08:48:33.936Z</time></trkpt><trkpt lat="43.6714817" lon="12.5221433"><ele>277.5</ele><time>2026-04-25T08:48:34.936Z</time></trkpt><trkpt lat="43.6714117" lon="12.5219833"><ele>277.25</ele><time>2026-04-25T08:48:35.937Z</time></trkpt><trkpt lat="43.671355" lon="12.5218083"><ele>277.0</ele><time>2026-04-25T08:48:36.937Z</time></trkpt><trkpt lat="43.6712983" lon="12.5216317"><ele>276.75</ele><time>2026-04-25T08:48:37.937Z</time></trkpt><trkpt lat="43.6712483" lon="12.5214533"><ele>276.5</ele><time>2026-04-25T08:48:38.937Z</time></trkpt><trkpt lat="43.6712033" lon="12.5212733"><ele>276.25</ele><time>2026-04-25T08:48:39.937Z</time></trkpt><trkpt lat="43.6711767" lon="12.5210817"><ele>276.0</ele><time>2026-04-25T08:48:40.937Z</time></trkpt><trkpt lat="43.6711617" lon="12.5208867"><ele>275.5</ele><time>2026-04-25T08:48:41.937Z</time></trkpt><trkpt lat="43.67116" lon="12.5206933"><ele>275.0</ele><time>2026-04-25T08:48:42.936Z</time></trkpt><trkpt lat="43.6711583" lon="12.520495"><ele>274.5</ele><time>2026-04-25T08:48:43.937Z</time></trkpt><trkpt lat="43.671175" lon="12.5203"><ele>274.0</ele><time>2026-04-25T08:48:44.936Z</time></trkpt><trkpt lat="43.67119" lon="12.520105"><ele>272.5</ele><time>2026-04-25T08:48:45.936Z</time></trkpt><trkpt lat="43.6712083" lon="12.51991"><ele>271.0</ele><time>2026-04-25T08:48:46.937Z</time></trkpt><trkpt lat="43.67123" lon="12.5197167"><ele>269.5</ele><time>2026-04-25T08:48:47.937Z</time></trkpt><trkpt lat="43.671245" lon="12.519525"><ele>268.0</ele><time>2026-04-25T08:48:48.937Z</time></trkpt><trkpt lat="43.6712583" lon="12.5193383"><ele>268.0</ele><time>2026-04-25T08:48:49.937Z</time></trkpt><trkpt lat="43.6712717" lon="12.5191633"><ele>268.0</ele><time>2026-04-25T08:48:50.937Z</time></trkpt><trkpt lat="43.671285" lon="12.51899"><ele>268.0</ele><time>2026-04-25T08:48:51.937Z</time></trkpt><trkpt lat="43.6712983" lon="12.5188283"><ele>268.0</ele><time>2026-04-25T08:48:52.937Z</time></trkpt><trkpt lat="43.6713067" lon="12.5186767"><ele>270.0</ele><time>2026-04-25T08:48:53.936Z</time></trkpt><trkpt lat="43.6713133" lon="12.5185317"><ele>272.0</ele><time>2026-04-25T08:48:54.937Z</time></trkpt><trkpt lat="43.6713183" lon="12.5183917"><ele>274.0</ele><time>2026-04-25T08:48:55.937Z</time></trkpt><trkpt lat="43.671345" lon="12.518255"><ele>276.0</ele><time>2026-04-25T08:48:56.937Z</time></trkpt><trkpt lat="43.671375" lon="12.5181083"><ele>278.0</ele><time>2026-04-25T08:48:57.936Z</time></trkpt><trkpt lat="43.6714083" lon="12.5179583"><ele>278.75</ele><time>2026-04-25T08:48:58.937Z</time></trkpt><trkpt lat="43.6714567" lon="12.5178117"><ele>279.5</ele><time>2026-04-25T08:48:59.937Z</time></trkpt><trkpt lat="43.6715117" lon="12.5176567"><ele>280.25</ele><time>2026-04-25T08:49:00.937Z</time></trkpt><trkpt lat="43.67157" lon="12.5175"><ele>281.0</ele><time>2026-04-25T08:49:01.936Z</time></trkpt><trkpt lat="43.6716433" lon="12.5173533"><ele>281.0</ele><time>2026-04-25T08:49:02.937Z</time></trkpt><trkpt lat="43.6717317" lon="12.5172117"><ele>281.0</ele><time>2026-04-25T08:49:03.937Z</time></trkpt><trkpt lat="43.67183" lon="12.51708"><ele>281.0</ele><time>2026-04-25T08:49:04.937Z</time></trkpt><trkpt lat="43.6719333" lon="12.5169567"><ele>281.0</ele><time>2026-04-25T08:49:05.937Z</time></trkpt><trkpt lat="43.67204" lon="12.5168333"><ele>282.0</ele><time>2026-04-25T08:49:06.937Z</time></trkpt><trkpt lat="43.67215" lon="12.5167083"><ele>283.0</ele><time>2026-04-25T08:49:07.937Z</time></trkpt><trkpt lat="43.6722633" lon="12.5165833"><ele>284.0</ele><time>2026-04-25T08:49:08.937Z</time></trkpt><trkpt lat="43.672375" lon="12.5164533"><ele>285.0</ele><time>2026-04-25T08:49:09.936Z</time></trkpt><trkpt lat="43.6724833" lon="12.5163233"><ele>285.75</ele><time>2026-04-25T08:49:10.937Z</time></trkpt><trkpt lat="43.6725867" lon="12.5162017"><ele>286.5</ele><time>2026-04-25T08:49:11.937Z</time></trkpt><trkpt lat="43.6726883" lon="12.5160933"><ele>287.25</ele><time>2026-04-25T08:49:12.937Z</time></trkpt><trkpt lat="43.6727817" lon="12.5159833"><ele>288.0</ele><time>2026-04-25T08:49:13.937Z</time></trkpt><trkpt lat="43.672875" lon="12.5158833"><ele>288.5</ele><time>2026-04-25T08:49:14.937Z</time></trkpt><trkpt lat="43.6729667" lon="12.5157833"><ele>289.0</ele><time>2026-04-25T08:49:15.937Z</time></trkpt><trkpt lat="43.67306" lon="12.5156867"><ele>289.5</ele><time>2026-04-25T08:49:16.937Z</time></trkpt><trkpt lat="43.6731483" lon="12.515585"><ele>290.0</ele><time>2026-04-25T08:49:17.937Z</time></trkpt><trkpt lat="43.6732417" lon="12.51548"><ele>290.75</ele><time>2026-04-25T08:49:18.936Z</time></trkpt><trkpt lat="43.673335" lon="12.5153783"><ele>291.5</ele><time>2026-04-25T08:49:19.937Z</time></trkpt><trkpt lat="43.673425" lon="12.5152767"><ele>292.25</ele><time>2026-04-25T08:49:20.937Z</time></trkpt><trkpt lat="43.6735083" lon="12.5151767"><ele>293.0</ele><time>2026-04-25T08:49:21.937Z</time></trkpt><trkpt lat="43.6735933" lon="12.5150917"><ele>292.8</ele><time>2026-04-25T08:49:22.936Z</time></trkpt><trkpt lat="43.673675" lon="12.515015"><ele>292.6</ele><time>2026-04-25T08:49:23.937Z</time></trkpt><trkpt lat="43.67375" lon="12.5149383"><ele>292.4</ele><time>2026-04-25T08:49:24.937Z</time></trkpt><trkpt lat="43.67382" lon="12.5148933"><ele>292.2</ele><time>2026-04-25T08:49:25.937Z</time></trkpt><trkpt lat="43.6739067" lon="12.5148417"><ele>292.0</ele><time>2026-04-25T08:49:27.937Z</time></trkpt><trkpt lat="43.6738133" lon="12.5148533"><ele>292.0</ele><time>2026-04-25T08:49:33.937Z</time></trkpt><trkpt lat="43.673755" lon="12.5149167"><ele>292.0</ele><time>2026-04-25T08:49:34.936Z</time></trkpt><trkpt lat="43.6736833" lon="12.514985"><ele>292.0</ele><time>2026-04-25T08:49:35.937Z</time></trkpt><trkpt lat="43.6736017" lon="12.5150583"><ele>292.0</ele><time>2026-04-25T08:49:36.937Z</time></trkpt><trkpt lat="43.6735167" lon="12.5151433"><ele>292.0</ele><time>2026-04-25T08:49:37.937Z</time></trkpt><trkpt lat="43.67343" lon="12.5152333"><ele>292.25</ele><time>2026-04-25T08:49:38.937Z</time></trkpt><trkpt lat="43.67334" lon="12.51533"><ele>292.5</ele><time>2026-04-25T08:49:39.936Z</time></trkpt><trkpt lat="43.6732517" lon="12.515425"><ele>292.75</ele><time>2026-04-25T08:49:40.937Z</time></trkpt><trkpt lat="43.6731617" lon="12.515525"><ele>293.0</ele><time>2026-04-25T08:49:41.937Z</time></trkpt><trkpt lat="43.673075" lon="12.5156267"><ele>292.4</ele><time>2026-04-25T08:49:42.937Z</time></trkpt><trkpt lat="43.6729967" lon="12.5157283"><ele>291.8</ele><time>2026-04-25T08:49:43.936Z</time></trkpt><trkpt lat="43.6729317" lon="12.5158333"><ele>291.2</ele><time>2026-04-25T08:49:44.937Z</time></trkpt><trkpt lat="43.6728783" lon="12.5159333"><ele>290.6</ele><time>2026-04-25T08:49:45.937Z</time></trkpt><trkpt lat="43.6728383" lon="12.51602"><ele>290.0</ele><time>2026-04-25T08:49:46.937Z</time></trkpt><trkpt lat="43.6727733" lon="12.5161333"><ele>290.0</ele><time>2026-04-25T08:49:48.937Z</time></trkpt><trkpt lat="43.6727333" lon="12.5162133"><ele>290.0</ele><time>2026-04-25T08:59:04.937Z</time></trkpt><trkpt lat="43.67267" lon="12.516215"><ele>290.0</ele><time>2026-04-25T08:59:07.937Z</time></trkpt><trkpt lat="43.6727433" lon="12.51611"><ele>290.0</ele><time>2026-04-25T08:59:10.936Z</time></trkpt><trkpt lat="43.6728333" lon="12.51602"><ele>290.0</ele><time>2026-04-25T08:59:12.937Z</time></trkpt><trkpt lat="43.6728817" lon="12.5159567"><ele>290.0</ele><time>2026-04-25T08:59:13.937Z</time></trkpt><trkpt lat="43.672935" lon="12.5158883"><ele>290.0</ele><time>2026-04-25T08:59:14.936Z</time></trkpt><trkpt lat="43.672995" lon="12.5158133"><ele>290.0</ele><time>2026-04-25T08:59:15.936Z</time></trkpt><trkpt lat="43.67306" lon="12.5157317"><ele>290.0</ele><time>2026-04-25T08:59:16.936Z</time></trkpt><trkpt lat="43.673135" lon="12.5156517"><ele>290.0</ele><time>2026-04-25T08:59:17.937Z</time></trkpt><trkpt lat="43.67321" lon="12.5155583"><ele>290.0</ele><time>2026-04-25T08:59:18.937Z</time></trkpt><trkpt lat="43.6732883" lon="12.51546"><ele>290.5</ele><time>2026-04-25T08:59:19.937Z</time></trkpt><trkpt lat="43.67337" lon="12.5153617"><ele>291.0</ele><time>2026-04-25T08:59:20.937Z</time></trkpt><trkpt lat="43.6734617" lon="12.5152617"><ele>291.5</ele><time>2026-04-25T08:59:21.937Z</time></trkpt><trkpt lat="43.6735583" lon="12.5151583"><ele>292.0</ele><time>2026-04-25T08:59:22.937Z</time></trkpt><trkpt lat="43.6736617" lon="12.515055"><ele>292.0</ele><time>2026-04-25T08:59:23.937Z</time></trkpt><trkpt lat="43.67377" lon="12.5149583"><ele>292.0</ele><time>2026-04-25T08:59:24.936Z</time></trkpt><trkpt lat="43.6738817" lon="12.51486"><ele>292.0</ele><time>2026-04-25T08:59:25.937Z</time></trkpt><trkpt lat="43.6739833" lon="12.51475"><ele>292.0</ele><time>2026-04-25T08:59:26.936Z</time></trkpt><trkpt lat="43.67409" lon="12.5146567"><ele>292.0</ele><time>2026-04-25T08:59:27.937Z</time></trkpt><trkpt lat="43.6741967" lon="12.5145683"><ele>292.0</ele><time>2026-04-25T08:59:28.937Z</time></trkpt><trkpt lat="43.6743" lon="12.5144733"><ele>292.0</ele><time>2026-04-25T08:59:29.937Z</time></trkpt><trkpt lat="43.6744" lon="12.514375"><ele>292.0</ele><time>2026-04-25T08:59:30.937Z</time></trkpt><trkpt lat="43.6744983" lon="12.514275"><ele>292.0</ele><time>2026-04-25T08:59:31.937Z</time></trkpt><trkpt lat="43.6746033" lon="12.5141833"><ele>292.0</ele><time>2026-04-25T08:59:32.936Z</time></trkpt><trkpt lat="43.6747" lon="12.514095"><ele>292.0</ele><time>2026-04-25T08:59:33.937Z</time></trkpt><trkpt lat="43.6747883" lon="12.514005"><ele>292.0</ele><time>2026-04-25T08:59:34.937Z</time></trkpt><trkpt lat="43.674865" lon="12.513935"><ele>292.0</ele><time>2026-04-25T08:59:35.937Z</time></trkpt><trkpt lat="43.6749233" lon="12.5138817"><ele>292.0</ele><time>2026-04-25T08:59:36.937Z</time></trkpt><trkpt lat="43.6749933" lon="12.5138267"><ele>292.0</ele><time>2026-04-25T08:59:38.937Z</time></trkpt><trkpt lat="43.67495" lon="12.5137"><ele>292.0</ele><time>2026-04-25T08:59:41.937Z</time></trkpt><trkpt lat="43.6748483" lon="12.5135917"><ele>292.0</ele><time>2026-04-25T08:59:43.937Z</time></trkpt><trkpt lat="43.6747817" lon="12.5135333"><ele>292.0</ele><time>2026-04-25T08:59:44.937Z</time></trkpt><trkpt lat="43.67472" lon="12.5134617"><ele>292.0</ele><time>2026-04-25T08:59:45.937Z</time></trkpt><trkpt lat="43.6746667" lon="12.5133717"><ele>292.0</ele><time>2026-04-25T08:59:46.937Z</time></trkpt><trkpt lat="43.6746217" lon="12.5132633"><ele>292.0</ele><time>2026-04-25T08:59:47.937Z</time></trkpt><trkpt lat="43.6745833" lon="12.5131367"><ele>292.0</ele><time>2026-04-25T08:59:48.936Z</time></trkpt><trkpt lat="43.6745433" lon="12.5130017"><ele>292.0</ele><time>2026-04-25T08:59:49.936Z</time></trkpt><trkpt lat="43.6744933" lon="12.5128633"><ele>292.75</ele><time>2026-04-25T08:59:50.937Z</time></trkpt><trkpt lat="43.674445" lon="12.5127233"><ele>293.5</ele><time>2026-04-25T08:59:51.937Z</time></trkpt><trkpt lat="43.6743967" lon="12.5125767"><ele>294.25</ele><time>2026-04-25T08:59:52.937Z</time></trkpt><trkpt lat="43.6743433" lon="12.5124283"><ele>295.0</ele><time>2026-04-25T08:59:53.937Z</time></trkpt><trkpt lat="43.67429" lon="12.5122833"><ele>295.0</ele><time>2026-04-25T08:59:54.937Z</time></trkpt><trkpt lat="43.6742383" lon="12.5121367"><ele>295.0</ele><time>2026-04-25T08:59:55.937Z</time></trkpt><trkpt lat="43.67419" lon="12.51199"><ele>295.0</ele><time>2026-04-25T08:59:56.937Z</time></trkpt><trkpt lat="43.6741383" lon="12.51185"><ele>295.0</ele><time>2026-04-25T08:59:57.937Z</time></trkpt><trkpt lat="43.6740883" lon="12.5117083"><ele>295.0</ele><time>2026-04-25T08:59:58.937Z</time></trkpt><trkpt lat="43.6740417" lon="12.5115733"><ele>295.0</ele><time>2026-04-25T08:59:59.937Z</time></trkpt><trkpt lat="43.6739967" lon="12.5114517"><ele>295.0</ele><time>2026-04-25T09:00:00.937Z</time></trkpt><trkpt lat="43.6739517" lon="12.51134"><ele>295.0</ele><time>2026-04-25T09:00:01.936Z</time></trkpt><trkpt lat="43.6738917" lon="12.5112633"><ele>295.0</ele><time>2026-04-25T09:00:02.937Z</time></trkpt><trkpt lat="43.67381" lon="12.511235"><ele>294.8</ele><time>2026-04-25T09:00:03.937Z</time></trkpt><trkpt lat="43.6737183" lon="12.51125"><ele>294.6</ele><time>2026-04-25T09:00:04.937Z</time></trkpt><trkpt lat="43.673615" lon="12.5112767"><ele>294.4</ele><time>2026-04-25T09:00:05.937Z</time></trkpt><trkpt lat="43.6734983" lon="12.51131"><ele>294.2</ele><time>2026-04-25T09:00:06.937Z</time></trkpt><trkpt lat="43.6733767" lon="12.511345"><ele>294.0</ele><time>2026-04-25T09:00:07.937Z</time></trkpt><trkpt lat="43.6732517" lon="12.51137"><ele>295.5</ele><time>2026-04-25T09:00:08.937Z</time></trkpt><trkpt lat="43.6731283" lon="12.51139"><ele>297.0</ele><time>2026-04-25T09:00:09.937Z</time></trkpt><trkpt lat="43.6730017" lon="12.5114167"><ele>298.5</ele><time>2026-04-25T09:00:10.937Z</time></trkpt><trkpt lat="43.67288" lon="12.511465"><ele>300.0</ele><time>2026-04-25T09:00:11.936Z</time></trkpt><trkpt lat="43.6727633" lon="12.5115417"><ele>300.25</ele><time>2026-04-25T09:00:12.937Z</time></trkpt><trkpt lat="43.6726533" lon="12.5116433"><ele>300.5</ele><time>2026-04-25T09:00:13.937Z</time></trkpt><trkpt lat="43.672555" lon="12.511765"><ele>300.75</ele><time>2026-04-25T09:00:14.937Z</time></trkpt><trkpt lat="43.6724633" lon="12.5119017"><ele>301.0</ele><time>2026-04-25T09:00:15.937Z</time></trkpt><trkpt lat="43.6723783" lon="12.5120467"><ele>300.25</ele><time>2026-04-25T09:00:16.936Z</time></trkpt><trkpt lat="43.672295" lon="12.5121967"><ele>299.5</ele><time>2026-04-25T09:00:17.937Z</time></trkpt><trkpt lat="43.6722167" lon="12.51235"><ele>298.75</ele><time>2026-04-25T09:00:18.937Z</time></trkpt><trkpt lat="43.6721367" lon="12.5125033"><ele>298.0</ele><time>2026-04-25T09:00:19.936Z</time></trkpt><trkpt lat="43.672055" lon="12.51266"><ele>298.0</ele><time>2026-04-25T09:00:20.937Z</time></trkpt><trkpt lat="43.6719767" lon="12.5128133"><ele>298.0</ele><time>2026-04-25T09:00:21.937Z</time></trkpt><trkpt lat="43.671905" lon="12.5129533"><ele>298.0</ele><time>2026-04-25T09:00:22.936Z</time></trkpt><trkpt lat="43.671835" lon="12.5130883"><ele>298.0</ele><time>2026-04-25T09:00:23.936Z</time></trkpt><trkpt lat="43.6717717" lon="12.5132167"><ele>297.4</ele><time>2026-04-25T09:00:24.936Z</time></trkpt><trkpt lat="43.6717067" lon="12.5133383"><ele>296.8</ele><time>2026-04-25T09:00:25.937Z</time></trkpt><trkpt lat="43.6716417" lon="12.5134567"><ele>296.2</ele><time>2026-04-25T09:00:26.936Z</time></trkpt><trkpt lat="43.6715817" lon="12.5135783"><ele>295.6</ele><time>2026-04-25T09:00:27.937Z</time></trkpt><trkpt lat="43.6715217" lon="12.513695"><ele>295.0</ele><time>2026-04-25T09:00:28.937Z</time></trkpt><trkpt lat="43.6714617" lon="12.5138083"><ele>294.0</ele><time>2026-04-25T09:00:29.937Z</time></trkpt><trkpt lat="43.6714033" lon="12.5139267"><ele>293.0</ele><time>2026-04-25T09:00:30.936Z</time></trkpt><trkpt lat="43.6713483" lon="12.5140417"><ele>292.0</ele><time>2026-04-25T09:00:31.936Z</time></trkpt><trkpt lat="43.6712883" lon="12.5141533"><ele>291.0</ele><time>2026-04-25T09:00:32.937Z</time></trkpt><trkpt lat="43.671225" lon="12.514265"><ele>290.0</ele><time>2026-04-25T09:00:33.937Z</time></trkpt><trkpt lat="43.6711567" lon="12.5143767"><ele>290.4</ele><time>2026-04-25T09:00:34.937Z</time></trkpt><trkpt lat="43.671095" lon="12.5144967"><ele>290.8</ele><time>2026-04-25T09:00:35.937Z</time></trkpt><trkpt lat="43.671035" lon="12.5146167"><ele>291.2</ele><time>2026-04-25T09:00:36.937Z</time></trkpt><trkpt lat="43.670975" lon="12.5147367"><ele>291.6</ele><time>2026-04-25T09:00:37.937Z</time></trkpt><trkpt lat="43.67091" lon="12.5148533"><ele>292.0</ele><time>2026-04-25T09:00:38.937Z</time></trkpt><trkpt lat="43.670845" lon="12.5149683"><ele>292.0</ele><time>2026-04-25T09:00:39.937Z</time></trkpt><trkpt lat="43.670785" lon="12.5150833"><ele>292.0</ele><time>2026-04-25T09:00:40.936Z</time></trkpt><trkpt lat="43.6707167" lon="12.5151917"><ele>292.0</ele><time>2026-04-25T09:00:41.937Z</time></trkpt><trkpt lat="43.670645" lon="12.5152933"><ele>292.0</ele><time>2026-04-25T09:00:42.937Z</time></trkpt><trkpt lat="43.67057" lon="12.5153917"><ele>292.0</ele><time>2026-04-25T09:00:43.937Z</time></trkpt><trkpt lat="43.6704867" lon="12.5154883"><ele>292.0</ele><time>2026-04-25T09:00:44.937Z</time></trkpt><trkpt lat="43.6704" lon="12.5155833"><ele>292.0</ele><time>2026-04-25T09:00:45.936Z</time></trkpt><trkpt lat="43.670305" lon="12.5156867"><ele>292.0</ele><time>2026-04-25T09:00:46.937Z</time></trkpt><trkpt lat="43.6702083" lon="12.5157933"><ele>292.0</ele><time>2026-04-25T09:00:47.937Z</time></trkpt><trkpt lat="43.67011" lon="12.5159033"><ele>292.0</ele><time>2026-04-25T09:00:48.936Z</time></trkpt><trkpt lat="43.67001" lon="12.516015"><ele>292.0</ele><time>2026-04-25T09:00:49.937Z</time></trkpt><trkpt lat="43.669905" lon="12.5161217"><ele>292.0</ele><time>2026-04-25T09:00:50.937Z</time></trkpt><trkpt lat="43.6697983" lon="12.5162267"><ele>292.0</ele><time>2026-04-25T09:00:51.937Z</time></trkpt><trkpt lat="43.6696917" lon="12.5163317"><ele>291.0</ele><time>2026-04-25T09:00:52.936Z</time></trkpt><trkpt lat="43.6695833" lon="12.51642"><ele>290.0</ele><time>2026-04-25T09:00:53.937Z</time></trkpt><trkpt lat="43.6694817" lon="12.516505"><ele>289.0</ele><time>2026-04-25T09:00:54.937Z</time></trkpt><trkpt lat="43.6693783" lon="12.516575"><ele>288.0</ele><time>2026-04-25T09:00:55.936Z</time></trkpt><trkpt lat="43.6692683" lon="12.516625"><ele>288.0</ele><time>2026-04-25T09:00:56.937Z</time></trkpt><trkpt lat="43.6691617" lon="12.5166767"><ele>288.0</ele><time>2026-04-25T09:00:57.937Z</time></trkpt><trkpt lat="43.669055" lon="12.5167217"><ele>288.0</ele><time>2026-04-25T09:00:58.937Z</time></trkpt><trkpt lat="43.6689483" lon="12.5167717"><ele>288.0</ele><time>2026-04-25T09:00:59.937Z</time></trkpt><trkpt lat="43.6688433" lon="12.5168233"><ele>288.0</ele><time>2026-04-25T09:01:00.937Z</time></trkpt><trkpt lat="43.6687433" lon="12.5168667"><ele>288.0</ele><time>2026-04-25T09:01:01.937Z</time></trkpt><trkpt lat="43.6686533" lon="12.5169033"><ele>288.0</ele><time>2026-04-25T09:01:02.937Z</time></trkpt><trkpt lat="43.668575" lon="12.51694"><ele>288.0</ele><time>2026-04-25T09:01:03.937Z</time></trkpt><trkpt lat="43.66851" lon="12.5169683"><ele>288.0</ele><time>2026-04-25T09:01:04.937Z</time></trkpt><trkpt lat="43.66839" lon="12.5170183"><ele>288.0</ele><time>2026-04-25T09:01:06.937Z</time></trkpt><trkpt lat="43.6683267" lon="12.5170667"><ele>288.0</ele><time>2026-04-25T09:01:07.937Z</time></trkpt><trkpt lat="43.6682517" lon="12.5171167"><ele>287.6</ele><time>2026-04-25T09:01:08.937Z</time></trkpt><trkpt lat="43.66816" lon="12.5171533"><ele>287.20000000000005</ele><time>2026-04-25T09:01:09.937Z</time></trkpt><trkpt lat="43.668055" lon="12.51719"><ele>286.8</ele><time>2026-04-25T09:01:10.937Z</time></trkpt><trkpt lat="43.66794" lon="12.51722"><ele>286.40000000000003</ele><time>2026-04-25T09:01:11.937Z</time></trkpt><trkpt lat="43.6678217" lon="12.5172517"><ele>286.0</ele><time>2026-04-25T09:01:12.937Z</time></trkpt><trkpt lat="43.6677017" lon="12.5173067"><ele>286.0</ele><time>2026-04-25T09:01:13.936Z</time></trkpt><trkpt lat="43.66758" lon="12.51736"><ele>286.0</ele><time>2026-04-25T09:01:14.936Z</time></trkpt><trkpt lat="43.6674567" lon="12.5174233"><ele>286.0</ele><time>2026-04-25T09:01:15.937Z</time></trkpt><trkpt lat="43.66733" lon="12.51749"><ele>286.0</ele><time>2026-04-25T09:01:16.937Z</time></trkpt><trkpt lat="43.6672033" lon="12.5175567"><ele>286.0</ele><time>2026-04-25T09:01:17.937Z</time></trkpt><trkpt lat="43.6670791" lon="12.5176274"><ele>286.0</ele><time>2026-04-25T09:01:18.937Z</time></trkpt><trkpt lat="43.6669647" lon="12.5177104"><ele>286.0</ele><time>2026-04-25T09:01:19.937Z</time></trkpt><trkpt lat="43.6668675" lon="12.5177935"><ele>286.0</ele><time>2026-04-25T09:01:20.937Z</time></trkpt><trkpt lat="43.6667986" lon="12.517853"><ele>286.2</ele><time>2026-04-25T09:01:21.937Z</time></trkpt><trkpt lat="43.6667264" lon="12.5178508"><ele>286.40000000000003</ele><time>2026-04-25T09:01:23.937Z</time></trkpt><trkpt lat="43.6667115" lon="12.517762"><ele>286.6</ele><time>2026-04-25T09:01:25.936Z</time></trkpt><trkpt lat="43.6667342" lon="12.5176196"><ele>286.8</ele><time>2026-04-25T09:01:27.937Z</time></trkpt><trkpt lat="43.666709" lon="12.517479"><ele>287.0</ele><time>2026-04-25T09:01:29.937Z</time></trkpt><trkpt lat="43.6666644" lon="12.5173418"><ele>287.0</ele><time>2026-04-25T09:01:31.937Z</time></trkpt><trkpt lat="43.6666467" lon="12.5171881"><ele>287.0</ele><time>2026-04-25T09:01:33.937Z</time></trkpt><trkpt lat="43.6666232" lon="12.5170262"><ele>287.0</ele><time>2026-04-25T09:01:35.937Z</time></trkpt><trkpt lat="43.6666097" lon="12.5168909"><ele>287.0</ele><time>2026-04-25T09:01:37.937Z</time></trkpt><trkpt lat="43.6665922" lon="12.516733"><ele>287.0</ele><time>2026-04-25T09:01:39.937Z</time></trkpt><trkpt lat="43.6665687" lon="12.5166431"><ele>287.1666666666667</ele><time>2026-04-25T09:01:40.937Z</time></trkpt><trkpt lat="43.6665433" lon="12.5165508"><ele>287.33333333333337</ele><time>2026-04-25T09:01:41.936Z</time></trkpt><trkpt lat="43.6665113" lon="12.5164648"><ele>287.5</ele><time>2026-04-25T09:01:42.937Z</time></trkpt><trkpt lat="43.6664678" lon="12.5163859"><ele>287.6666666666667</ele><time>2026-04-25T09:01:43.937Z</time></trkpt><trkpt lat="43.6664183" lon="12.5163041"><ele>287.8333333333333</ele><time>2026-04-25T09:01:44.936Z</time></trkpt><trkpt lat="43.6663632" lon="12.5162162"><ele>288.0</ele><time>2026-04-25T09:01:45.936Z</time></trkpt><trkpt lat="43.6663035" lon="12.5161207"><ele>288.0</ele><time>2026-04-25T09:01:46.937Z</time></trkpt><trkpt lat="43.6662436" lon="12.5160131"><ele>288.0</ele><time>2026-04-25T09:01:47.937Z</time></trkpt><trkpt lat="43.6661921" lon="12.5159006"><ele>288.0</ele><time>2026-04-25T09:01:48.937Z</time></trkpt><trkpt lat="43.6661485" lon="12.5157803"><ele>288.0</ele><time>2026-04-25T09:01:49.937Z</time></trkpt><trkpt lat="43.6661107" lon="12.5156523"><ele>288.0</ele><time>2026-04-25T09:01:50.936Z</time></trkpt><trkpt lat="43.6660767" lon="12.5155133"><ele>288.8</ele><time>2026-04-25T09:01:51.936Z</time></trkpt><trkpt lat="43.6660517" lon="12.51537"><ele>289.6</ele><time>2026-04-25T09:01:52.936Z</time></trkpt><trkpt lat="43.6660367" lon="12.5152217"><ele>290.4</ele><time>2026-04-25T09:01:53.937Z</time></trkpt><trkpt lat="43.6660283" lon="12.51507"><ele>291.2</ele><time>2026-04-25T09:01:54.936Z</time></trkpt><trkpt lat="43.6660267" lon="12.51492"><ele>292.0</ele><time>2026-04-25T09:01:55.937Z</time></trkpt><trkpt lat="43.6660317" lon="12.5147683"><ele>292.0</ele><time>2026-04-25T09:01:56.937Z</time></trkpt><trkpt lat="43.6660417" lon="12.5146117"><ele>292.0</ele><time>2026-04-25T09:01:57.937Z</time></trkpt><trkpt lat="43.6660583" lon="12.51445"><ele>292.0</ele><time>2026-04-25T09:01:58.937Z</time></trkpt><trkpt lat="43.66607" lon="12.51428"><ele>292.0</ele><time>2026-04-25T09:01:59.937Z</time></trkpt><trkpt lat="43.666075" lon="12.514115"><ele>293.25</ele><time>2026-04-25T09:02:00.936Z</time></trkpt><trkpt lat="43.666065" lon="12.5139517"><ele>294.5</ele><time>2026-04-25T09:02:01.937Z</time></trkpt><trkpt lat="43.6660333" lon="12.5137867"><ele>295.75</ele><time>2026-04-25T09:02:02.937Z</time></trkpt><trkpt lat="43.666005" lon="12.5136267"><ele>297.0</ele><time>2026-04-25T09:02:03.937Z</time></trkpt><trkpt lat="43.6659783" lon="12.5134717"><ele>298.0</ele><time>2026-04-25T09:02:04.937Z</time></trkpt><trkpt lat="43.6659533" lon="12.5133167"><ele>299.0</ele><time>2026-04-25T09:02:05.937Z</time></trkpt><trkpt lat="43.66591" lon="12.5131583"><ele>300.0</ele><time>2026-04-25T09:02:06.937Z</time></trkpt><trkpt lat="43.6658383" lon="12.5130017"><ele>301.0</ele><time>2026-04-25T09:02:07.937Z</time></trkpt><trkpt lat="43.66576" lon="12.512845"><ele>302.75</ele><time>2026-04-25T09:02:08.937Z</time></trkpt><trkpt lat="43.6656833" lon="12.5126917"><ele>304.5</ele><time>2026-04-25T09:02:09.937Z</time></trkpt><trkpt lat="43.6656217" lon="12.51254"><ele>306.25</ele><time>2026-04-25T09:02:10.937Z</time></trkpt><trkpt lat="43.6655883" lon="12.51238"><ele>308.0</ele><time>2026-04-25T09:02:11.937Z</time></trkpt><trkpt lat="43.665565" lon="12.51221"><ele>310.25</ele><time>2026-04-25T09:02:12.937Z</time></trkpt><trkpt lat="43.6655517" lon="12.5120317"><ele>312.5</ele><time>2026-04-25T09:02:13.937Z</time></trkpt><trkpt lat="43.6655467" lon="12.511855"><ele>314.75</ele><time>2026-04-25T09:02:14.936Z</time></trkpt><trkpt lat="43.6655183" lon="12.5116883"><ele>317.0</ele><time>2026-04-25T09:02:15.937Z</time></trkpt><trkpt lat="43.6654783" lon="12.511525"><ele>317.0</ele><time>2026-04-25T09:02:16.937Z</time></trkpt><trkpt lat="43.6654383" lon="12.5113617"><ele>317.0</ele><time>2026-04-25T09:02:17.937Z</time></trkpt><trkpt lat="43.665385" lon="12.51121"><ele>317.0</ele><time>2026-04-25T09:02:18.937Z</time></trkpt><trkpt lat="43.6653283" lon="12.5110617"><ele>317.0</ele><time>2026-04-25T09:02:19.937Z</time></trkpt><trkpt lat="43.6652683" lon="12.5109133"><ele>314.5</ele><time>2026-04-25T09:02:20.937Z</time></trkpt><trkpt lat="43.6652083" lon="12.51076"><ele>312.0</ele><time>2026-04-25T09:02:21.937Z</time></trkpt><trkpt lat="43.6651533" lon="12.5105933"><ele>309.5</ele><time>2026-04-25T09:02:22.937Z</time></trkpt><trkpt lat="43.6651083" lon="12.5104183"><ele>307.0</ele><time>2026-04-25T09:02:23.937Z</time></trkpt><trkpt lat="43.6650717" lon="12.5102417"><ele>307.0</ele><time>2026-04-25T09:02:24.937Z</time></trkpt><trkpt lat="43.6650467" lon="12.5100733"><ele>307.0</ele><time>2026-04-25T09:02:25.937Z</time></trkpt><trkpt lat="43.665025" lon="12.5099133"><ele>307.0</ele><time>2026-04-25T09:02:26.937Z</time></trkpt><trkpt lat="43.6649917" lon="12.509765"><ele>307.0</ele><time>2026-04-25T09:02:27.937Z</time></trkpt><trkpt lat="43.6649433" lon="12.50963"><ele>309.0</ele><time>2026-04-25T09:02:28.936Z</time></trkpt><trkpt lat="43.664875" lon="12.509515"><ele>311.0</ele><time>2026-04-25T09:02:29.937Z</time></trkpt><trkpt lat="43.664795" lon="12.5094117"><ele>313.0</ele><time>2026-04-25T09:02:30.937Z</time></trkpt><trkpt lat="43.6647" lon="12.5093233"><ele>315.0</ele><time>2026-04-25T09:02:31.937Z</time></trkpt><trkpt lat="43.6646117" lon="12.5092267"><ele>317.0</ele><time>2026-04-25T09:02:32.937Z</time></trkpt><trkpt lat="43.664525" lon="12.5091283"><ele>314.0</ele><time>2026-04-25T09:02:33.937Z</time></trkpt><trkpt lat="43.66444" lon="12.509035"><ele>311.0</ele><time>2026-04-25T09:02:34.937Z</time></trkpt><trkpt lat="43.664345" lon="12.5089517"><ele>308.0</ele><time>2026-04-25T09:02:35.937Z</time></trkpt><trkpt lat="43.6642417" lon="12.50888"><ele>305.0</ele><time>2026-04-25T09:02:36.937Z</time></trkpt><trkpt lat="43.6641367" lon="12.508805"><ele>308.25</ele><time>2026-04-25T09:02:37.937Z</time></trkpt><trkpt lat="43.66404" lon="12.508705"><ele>311.5</ele><time>2026-04-25T09:02:38.937Z</time></trkpt><trkpt lat="43.6639483" lon="12.5085867"><ele>314.75</ele><time>2026-04-25T09:02:39.937Z</time></trkpt><trkpt lat="43.6638733" lon="12.5084533"><ele>318.0</ele><time>2026-04-25T09:02:40.937Z</time></trkpt><trkpt lat="43.6638117" lon="12.5083117"><ele>318.0</ele><time>2026-04-25T09:02:41.937Z</time></trkpt><trkpt lat="43.6637567" lon="12.508165"><ele>318.0</ele><time>2026-04-25T09:02:42.937Z</time></trkpt><trkpt lat="43.66371" lon="12.508015"><ele>318.0</ele><time>2026-04-25T09:02:43.937Z</time></trkpt><trkpt lat="43.6636617" lon="12.5078583"><ele>318.0</ele><time>2026-04-25T09:02:44.936Z</time></trkpt><trkpt lat="43.6636067" lon="12.5076883"><ele>316.0</ele><time>2026-04-25T09:02:45.936Z</time></trkpt><trkpt lat="43.6635433" lon="12.50751"><ele>314.0</ele><time>2026-04-25T09:02:46.937Z</time></trkpt><trkpt lat="43.66347" lon="12.5073267"><ele>312.0</ele><time>2026-04-25T09:02:47.936Z</time></trkpt><trkpt lat="43.66339" lon="12.5071333"><ele>312.6666666666667</ele><time>2026-04-25T09:02:48.937Z</time></trkpt><trkpt lat="43.6632967" lon="12.5069267"><ele>313.33333333333337</ele><time>2026-04-25T09:02:49.937Z</time></trkpt><trkpt lat="43.6632017" lon="12.5067133"><ele>314.0</ele><time>2026-04-25T09:02:50.936Z</time></trkpt><trkpt lat="43.6631" lon="12.5064817"><ele>314.33333333333337</ele><time>2026-04-25T09:02:51.936Z</time></trkpt><trkpt lat="43.6630033" lon="12.50623"><ele>314.6666666666667</ele><time>2026-04-25T09:02:52.937Z</time></trkpt><trkpt lat="43.6629067" lon="12.5059583"><ele>315.0</ele><time>2026-04-25T09:02:53.937Z</time></trkpt><trkpt lat="43.66281" lon="12.5056833"><ele>316.0</ele><time>2026-04-25T09:02:54.936Z</time></trkpt><trkpt lat="43.6627133" lon="12.5054133"><ele>317.0</ele><time>2026-04-25T09:02:55.937Z</time></trkpt><trkpt lat="43.66261" lon="12.5051583"><ele>318.0</ele><time>2026-04-25T09:02:56.937Z</time></trkpt><trkpt lat="43.662485" lon="12.5049133"><ele>318.0</ele><time>2026-04-25T09:02:57.937Z</time></trkpt><trkpt lat="43.6623383" lon="12.504675"><ele>318.0</ele><time>2026-04-25T09:02:58.937Z</time></trkpt><trkpt lat="43.6621783" lon="12.5044333"><ele>321.0</ele><time>2026-04-25T09:02:59.937Z</time></trkpt><trkpt lat="43.6620183" lon="12.5041917"><ele>324.0</ele><time>2026-04-25T09:03:00.937Z</time></trkpt><trkpt lat="43.661865" lon="12.5039517"><ele>326.3333333333333</ele><time>2026-04-25T09:03:01.937Z</time></trkpt><trkpt lat="43.6617183" lon="12.5037183"><ele>328.66666666666663</ele><time>2026-04-25T09:03:02.937Z</time></trkpt><trkpt lat="43.6615717" lon="12.503495"><ele>331.0</ele><time>2026-04-25T09:03:03.937Z</time></trkpt><trkpt lat="43.6614183" lon="12.5032783"><ele>331.0</ele><time>2026-04-25T09:03:04.936Z</time></trkpt><trkpt lat="43.66126" lon="12.5030667"><ele>331.0</ele><time>2026-04-25T09:03:05.937Z</time></trkpt><trkpt lat="43.6611017" lon="12.5028633"><ele>331.0</ele><time>2026-04-25T09:03:06.937Z</time></trkpt><trkpt lat="43.6609517" lon="12.5026733"><ele>334.3333333333333</ele><time>2026-04-25T09:03:07.937Z</time></trkpt><trkpt lat="43.66082" lon="12.5024883"><ele>337.6666666666667</ele><time>2026-04-25T09:03:08.938Z</time></trkpt><trkpt lat="43.6607183" lon="12.5022867"><ele>341.0</ele><time>2026-04-25T09:03:09.938Z</time></trkpt><trkpt lat="43.660635" lon="12.5020667"><ele>342.6666666666667</ele><time>2026-04-25T09:03:10.938Z</time></trkpt><trkpt lat="43.660565" lon="12.5018333"><ele>344.3333333333333</ele><time>2026-04-25T09:03:11.938Z</time></trkpt><trkpt lat="43.6604933" lon="12.5015883"><ele>346.0</ele><time>2026-04-25T09:03:12.937Z</time></trkpt><trkpt lat="43.6604217" lon="12.5013383"><ele>349.3333333333333</ele><time>2026-04-25T09:03:13.938Z</time></trkpt><trkpt lat="43.6603467" lon="12.5010767"><ele>352.6666666666667</ele><time>2026-04-25T09:03:14.937Z</time></trkpt><trkpt lat="43.6602783" lon="12.5008117"><ele>356.0</ele><time>2026-04-25T09:03:15.937Z</time></trkpt><trkpt lat="43.6602117" lon="12.5005383"><ele>360.33333333333337</ele><time>2026-04-25T09:03:16.938Z</time></trkpt><trkpt lat="43.6601483" lon="12.500255"><ele>364.6666666666667</ele><time>2026-04-25T09:03:17.938Z</time></trkpt><trkpt lat="43.6600983" lon="12.49997"><ele>369.0</ele><time>2026-04-25T09:03:18.938Z</time></trkpt><trkpt lat="43.6600483" lon="12.4996817"><ele>373.0</ele><time>2026-04-25T09:03:19.938Z</time></trkpt><trkpt lat="43.65999" lon="12.49941"><ele>377.0</ele><time>2026-04-25T09:03:20.938Z</time></trkpt><trkpt lat="43.65993" lon="12.4991717"><ele>381.0</ele><time>2026-04-25T09:03:21.938Z</time></trkpt><trkpt lat="43.6598733" lon="12.4989517"><ele>380.25</ele><time>2026-04-25T09:03:22.937Z</time></trkpt><trkpt lat="43.65983" lon="12.4987467"><ele>379.5</ele><time>2026-04-25T09:03:23.938Z</time></trkpt><trkpt lat="43.6597933" lon="12.4985833"><ele>378.75</ele><time>2026-04-25T09:03:24.938Z</time></trkpt><trkpt lat="43.65975" lon="12.4984583"><ele>378.0</ele><time>2026-04-25T09:03:25.938Z</time></trkpt><trkpt lat="43.659685" lon="12.49835"><ele>378.0</ele><time>2026-04-25T09:03:26.938Z</time></trkpt><trkpt lat="43.659605" lon="12.49824"><ele>378.0</ele><time>2026-04-25T09:03:27.938Z</time></trkpt><trkpt lat="43.659525" lon="12.498125"><ele>378.0</ele><time>2026-04-25T09:03:28.938Z</time></trkpt><trkpt lat="43.6594467" lon="12.498015"><ele>378.0</ele><time>2026-04-25T09:03:29.938Z</time></trkpt><trkpt lat="43.65938" lon="12.49791"><ele>378.0</ele><time>2026-04-25T09:03:30.938Z</time></trkpt><trkpt lat="43.65932" lon="12.4978067"><ele>379.0</ele><time>2026-04-25T09:03:31.938Z</time></trkpt><trkpt lat="43.6592633" lon="12.4977017"><ele>380.0</ele><time>2026-04-25T09:03:32.938Z</time></trkpt><trkpt lat="43.6592033" lon="12.4976083"><ele>381.0</ele><time>2026-04-25T09:03:33.938Z</time></trkpt><trkpt lat="43.6591367" lon="12.4975283"><ele>382.0</ele><time>2026-04-25T09:03:34.937Z</time></trkpt><trkpt lat="43.6590617" lon="12.4974483"><ele>383.0</ele><time>2026-04-25T09:03:35.938Z</time></trkpt><trkpt lat="43.658975" lon="12.4973717"><ele>383.0</ele><time>2026-04-25T09:03:36.938Z</time></trkpt><trkpt lat="43.6588767" lon="12.4973017"><ele>383.0</ele><time>2026-04-25T09:03:37.938Z</time></trkpt><trkpt lat="43.6587617" lon="12.49724"><ele>383.0</ele><time>2026-04-25T09:03:38.938Z</time></trkpt><trkpt lat="43.6586333" lon="12.497175"><ele>383.0</ele><time>2026-04-25T09:03:39.937Z</time></trkpt><trkpt lat="43.65849" lon="12.4971017"><ele>380.6666666666667</ele><time>2026-04-25T09:03:40.937Z</time></trkpt><trkpt lat="43.6583383" lon="12.49702"><ele>378.3333333333333</ele><time>2026-04-25T09:03:41.938Z</time></trkpt><trkpt lat="43.65818" lon="12.4969367"><ele>376.0</ele><time>2026-04-25T09:03:42.938Z</time></trkpt><trkpt lat="43.658015" lon="12.4968483"><ele>376.0</ele><time>2026-04-25T09:03:43.937Z</time></trkpt><trkpt lat="43.65785" lon="12.4967583"><ele>376.0</ele><time>2026-04-25T09:03:44.938Z</time></trkpt><trkpt lat="43.657685" lon="12.4966567"><ele>376.0</ele><time>2026-04-25T09:03:45.937Z</time></trkpt><trkpt lat="43.6575183" lon="12.4965417"><ele>376.0</ele><time>2026-04-25T09:03:46.938Z</time></trkpt><trkpt lat="43.6573583" lon="12.4964167"><ele>376.0</ele><time>2026-04-25T09:03:47.937Z</time></trkpt><trkpt lat="43.6571983" lon="12.4962917"><ele>376.0</ele><time>2026-04-25T09:03:48.938Z</time></trkpt><trkpt lat="43.6570483" lon="12.4961767"><ele>380.75</ele><time>2026-04-25T09:03:49.937Z</time></trkpt><trkpt lat="43.6569017" lon="12.4960817"><ele>385.5</ele><time>2026-04-25T09:03:50.938Z</time></trkpt><trkpt lat="43.6567617" lon="12.496015"><ele>390.25</ele><time>2026-04-25T09:03:51.937Z</time></trkpt><trkpt lat="43.6566283" lon="12.495985"><ele>395.0</ele><time>2026-04-25T09:03:52.937Z</time></trkpt><trkpt lat="43.6564967" lon="12.4959867"><ele>395.0</ele><time>2026-04-25T09:03:53.937Z</time></trkpt><trkpt lat="43.65636" lon="12.49599"><ele>395.0</ele><time>2026-04-25T09:03:54.938Z</time></trkpt><trkpt lat="43.6562167" lon="12.4959817"><ele>395.0</ele><time>2026-04-25T09:03:55.937Z</time></trkpt><trkpt lat="43.65607" lon="12.4959483"><ele>395.0</ele><time>2026-04-25T09:03:56.938Z</time></trkpt><trkpt lat="43.65592" lon="12.4959067"><ele>398.3333333333333</ele><time>2026-04-25T09:03:57.938Z</time></trkpt><trkpt lat="43.65577" lon="12.4958633"><ele>401.66666666666663</ele><time>2026-04-25T09:03:58.937Z</time></trkpt><trkpt lat="43.65562" lon="12.4958183"><ele>405.0</ele><time>2026-04-25T09:03:59.938Z</time></trkpt><trkpt lat="43.6554783" lon="12.49578"><ele>405.0</ele><time>2026-04-25T09:04:00.938Z</time></trkpt><trkpt lat="43.6553433" lon="12.4957467"><ele>405.0</ele><time>2026-04-25T09:04:01.938Z</time></trkpt><trkpt lat="43.6552" lon="12.49572"><ele>405.0</ele><time>2026-04-25T09:04:02.938Z</time></trkpt><trkpt lat="43.6550483" lon="12.495705"><ele>405.0</ele><time>2026-04-25T09:04:03.938Z</time></trkpt><trkpt lat="43.6548917" lon="12.4956967"><ele>408.0</ele><time>2026-04-25T09:04:04.938Z</time></trkpt><trkpt lat="43.65474" lon="12.495685"><ele>411.0</ele><time>2026-04-25T09:04:05.938Z</time></trkpt><trkpt lat="43.65461" lon="12.4956617"><ele>414.0</ele><time>2026-04-25T09:04:06.937Z</time></trkpt><trkpt lat="43.6544967" lon="12.49562"><ele>417.0</ele><time>2026-04-25T09:04:07.937Z</time></trkpt><trkpt lat="43.6544017" lon="12.4955583"><ele>420.1666666666667</ele><time>2026-04-25T09:04:08.938Z</time></trkpt><trkpt lat="43.6543183" lon="12.495485"><ele>423.33333333333337</ele><time>2026-04-25T09:04:09.938Z</time></trkpt><trkpt lat="43.6542467" lon="12.4954267"><ele>426.5</ele><time>2026-04-25T09:04:10.937Z</time></trkpt><trkpt lat="43.65417" lon="12.4954017"><ele>429.6666666666667</ele><time>2026-04-25T09:04:11.938Z</time></trkpt><trkpt lat="43.654085" lon="12.495405"><ele>432.83333333333337</ele><time>2026-04-25T09:04:12.938Z</time></trkpt><trkpt lat="43.6539883" lon="12.49543"><ele>436.0</ele><time>2026-04-25T09:04:13.938Z</time></trkpt><trkpt lat="43.6538783" lon="12.4954617"><ele>436.75</ele><time>2026-04-25T09:04:14.938Z</time></trkpt><trkpt lat="43.6537583" lon="12.49549"><ele>437.5</ele><time>2026-04-25T09:04:15.938Z</time></trkpt><trkpt lat="43.653635" lon="12.4955083"><ele>438.25</ele><time>2026-04-25T09:04:16.938Z</time></trkpt><trkpt lat="43.6535133" lon="12.4955183"><ele>439.0</ele><time>2026-04-25T09:04:17.938Z</time></trkpt><trkpt lat="43.6534083" lon="12.495525"><ele>443.83333333333337</ele><time>2026-04-25T09:04:18.938Z</time></trkpt><trkpt lat="43.6533217" lon="12.495525"><ele>448.6666666666667</ele><time>2026-04-25T09:04:19.937Z</time></trkpt><trkpt lat="43.653225" lon="12.495515"><ele>453.5</ele><time>2026-04-25T09:04:21.938Z</time></trkpt><trkpt lat="43.6532567" lon="12.4953617"><ele>458.33333333333337</ele><time>2026-04-25T09:04:24.938Z</time></trkpt><trkpt lat="43.6532883" lon="12.495275"><ele>463.1666666666667</ele><time>2026-04-25T09:04:25.938Z</time></trkpt><trkpt lat="43.6533033" lon="12.4951783"><ele>468.0</ele><time>2026-04-25T09:04:26.937Z</time></trkpt><trkpt lat="43.653295" lon="12.4950717"><ele>468.3333333333333</ele><time>2026-04-25T09:04:27.938Z</time></trkpt><trkpt lat="43.653285" lon="12.4949633"><ele>468.66666666666663</ele><time>2026-04-25T09:04:28.938Z</time></trkpt><trkpt lat="43.653275" lon="12.4948617"><ele>469.0</ele><time>2026-04-25T09:04:29.938Z</time></trkpt><trkpt lat="43.6532483" lon="12.4947683"><ele>469.3333333333333</ele><time>2026-04-25T09:04:30.937Z</time></trkpt><trkpt lat="43.653205" lon="12.4947"><ele>469.66666666666663</ele><time>2026-04-25T09:04:31.938Z</time></trkpt><trkpt lat="43.6531383" lon="12.494645"><ele>470.0</ele><time>2026-04-25T09:04:32.938Z</time></trkpt><trkpt lat="43.653055" lon="12.4946067"><ele>472.2</ele><time>2026-04-25T09:04:33.938Z</time></trkpt><trkpt lat="43.65296" lon="12.4945833"><ele>474.4</ele><time>2026-04-25T09:04:34.938Z</time></trkpt><trkpt lat="43.6528633" lon="12.49456"><ele>476.6</ele><time>2026-04-25T09:04:35.936Z</time></trkpt><trkpt lat="43.6527717" lon="12.4945267"><ele>478.8</ele><time>2026-04-25T09:04:36.937Z</time></trkpt><trkpt lat="43.6526833" lon="12.4944917"><ele>481.0</ele><time>2026-04-25T09:04:37.937Z</time></trkpt><trkpt lat="43.65259" lon="12.4944683"><ele>481.0</ele><time>2026-04-25T09:04:38.937Z</time></trkpt><trkpt lat="43.6524883" lon="12.4944683"><ele>481.0</ele><time>2026-04-25T09:04:39.937Z</time></trkpt><trkpt lat="43.652385" lon="12.494485"><ele>481.0</ele><time>2026-04-25T09:04:40.937Z</time></trkpt><trkpt lat="43.65229" lon="12.4945"><ele>481.0</ele><time>2026-04-25T09:04:41.936Z</time></trkpt><trkpt lat="43.652205" lon="12.4945117"><ele>481.0</ele><time>2026-04-25T09:04:42.937Z</time></trkpt><trkpt lat="43.652125" lon="12.4945167"><ele>481.00000000000006</ele><time>2026-04-25T09:04:43.937Z</time></trkpt><trkpt lat="43.6520617" lon="12.49453"><ele>481.0</ele><time>2026-04-25T09:04:44.936Z</time></trkpt><trkpt lat="43.65198" lon="12.4945717"><ele>481.0</ele><time>2026-04-25T09:04:46.937Z</time></trkpt><trkpt lat="43.6519133" lon="12.4946"><ele>481.0</ele><time>2026-04-25T09:04:48.937Z</time></trkpt><trkpt lat="43.6519917" lon="12.4945733"><ele>481.00000000000006</ele><time>2026-04-25T09:05:08.936Z</time></trkpt><trkpt lat="43.6521183" lon="12.4945383"><ele>481.0</ele><time>2026-04-25T09:05:10.936Z</time></trkpt><trkpt lat="43.6521883" lon="12.494525"><ele>481.00000000000006</ele><time>2026-04-25T09:05:11.937Z</time></trkpt><trkpt lat="43.652255" lon="12.4945133"><ele>481.0</ele><time>2026-04-25T09:05:12.936Z</time></trkpt><trkpt lat="43.6523317" lon="12.4944633"><ele>481.0</ele><time>2026-04-25T09:05:14.937Z</time></trkpt><trkpt lat="43.6523233" lon="12.494365"><ele>481.0</ele><time>2026-04-25T09:05:16.936Z</time></trkpt><trkpt lat="43.6523" lon="12.4942783"><ele>481.00000000000006</ele><time>2026-04-25T09:05:17.937Z</time></trkpt><trkpt lat="43.65227" lon="12.494175"><ele>481.0</ele><time>2026-04-25T09:05:18.937Z</time></trkpt><trkpt lat="43.6522433" lon="12.4940633"><ele>481.00000000000006</ele><time>2026-04-25T09:05:19.936Z</time></trkpt><trkpt lat="43.6522217" lon="12.4939467"><ele>481.0</ele><time>2026-04-25T09:05:20.936Z</time></trkpt><trkpt lat="43.6522117" lon="12.493835"><ele>481.0</ele><time>2026-04-25T09:05:21.936Z</time></trkpt><trkpt lat="43.6522167" lon="12.4937317"><ele>481.0</ele><time>2026-04-25T09:05:22.937Z</time></trkpt><trkpt lat="43.6522267" lon="12.4936167"><ele>481.00000000000006</ele><time>2026-04-25T09:05:23.937Z</time></trkpt><trkpt lat="43.6522267" lon="12.49348"><ele>481.0</ele><time>2026-04-25T09:05:24.937Z</time></trkpt><trkpt lat="43.6522133" lon="12.4933267"><ele>481.0</ele><time>2026-04-25T09:05:25.937Z</time></trkpt><trkpt lat="43.6521983" lon="12.4931833"><ele>481.0</ele><time>2026-04-25T09:05:26.937Z</time></trkpt><trkpt lat="43.65218" lon="12.493055"><ele>481.0</ele><time>2026-04-25T09:05:27.937Z</time></trkpt><trkpt lat="43.6521767" lon="12.49294"><ele>481.0</ele><time>2026-04-25T09:05:28.937Z</time></trkpt><trkpt lat="43.652185" lon="12.4928517"><ele>481.0</ele><time>2026-04-25T09:05:29.937Z</time></trkpt><trkpt lat="43.6522817" lon="12.4927317"><ele>481.0</ele><time>2026-04-25T09:05:31.937Z</time></trkpt><trkpt lat="43.6523533" lon="12.49268"><ele>481.0</ele><time>2026-04-25T09:05:32.937Z</time></trkpt><trkpt lat="43.6524383" lon="12.4926383"><ele>481.0</ele><time>2026-04-25T09:05:33.937Z</time></trkpt><trkpt lat="43.6525333" lon="12.4926067"><ele>481.0</ele><time>2026-04-25T09:05:34.937Z</time></trkpt><trkpt lat="43.6526317" lon="12.4925717"><ele>481.0</ele><time>2026-04-25T09:05:35.937Z</time></trkpt><trkpt lat="43.65272" lon="12.4925183"><ele>476.5</ele><time>2026-04-25T09:05:36.937Z</time></trkpt><trkpt lat="43.6528017" lon="12.492435"><ele>472.0</ele><time>2026-04-25T09:05:37.937Z</time></trkpt><trkpt lat="43.652885" lon="12.4923233"><ele>467.5</ele><time>2026-04-25T09:05:38.937Z</time></trkpt><trkpt lat="43.6529733" lon="12.492205"><ele>463.0</ele><time>2026-04-25T09:05:39.937Z</time></trkpt><trkpt lat="43.6530667" lon="12.4920933"><ele>464.4</ele><time>2026-04-25T09:05:40.937Z</time></trkpt><trkpt lat="43.6531583" lon="12.4919883"><ele>465.79999999999995</ele><time>2026-04-25T09:05:41.937Z</time></trkpt><trkpt lat="43.6532533" lon="12.491885"><ele>467.2</ele><time>2026-04-25T09:05:42.937Z</time></trkpt><trkpt lat="43.6533383" lon="12.4917917"><ele>468.6</ele><time>2026-04-25T09:05:43.937Z</time></trkpt><trkpt lat="43.65341" lon="12.4917117"><ele>470.0</ele><time>2026-04-25T09:05:44.937Z</time></trkpt><trkpt lat="43.6534633" lon="12.4916367"><ele>469.99999999999994</ele><time>2026-04-25T09:05:45.937Z</time></trkpt><trkpt lat="43.6534917" lon="12.4914783"><ele>470.0</ele><time>2026-04-25T09:05:47.937Z</time></trkpt><trkpt lat="43.6534933" lon="12.4913883"><ele>470.0</ele><time>2026-04-25T09:05:48.937Z</time></trkpt><trkpt lat="43.6535067" lon="12.4912983"><ele>470.0</ele><time>2026-04-25T09:05:49.937Z</time></trkpt><trkpt lat="43.6535417" lon="12.4912133"><ele>469.99999999999994</ele><time>2026-04-25T09:05:50.936Z</time></trkpt><trkpt lat="43.653595" lon="12.4911267"><ele>470.0</ele><time>2026-04-25T09:05:51.936Z</time></trkpt><trkpt lat="43.6536633" lon="12.491035"><ele>467.5</ele><time>2026-04-25T09:05:52.936Z</time></trkpt><trkpt lat="43.65375" lon="12.490945"><ele>465.0</ele><time>2026-04-25T09:05:53.936Z</time></trkpt><trkpt lat="43.6538467" lon="12.490855"><ele>462.5</ele><time>2026-04-25T09:05:54.936Z</time></trkpt><trkpt lat="43.6539467" lon="12.49077"><ele>460.0</ele><time>2026-04-25T09:05:55.937Z</time></trkpt><trkpt lat="43.6540467" lon="12.4906867"><ele>460.0</ele><time>2026-04-25T09:05:56.937Z</time></trkpt><trkpt lat="43.654145" lon="12.49061"><ele>460.0</ele><time>2026-04-25T09:05:57.937Z</time></trkpt><trkpt lat="43.6542417" lon="12.4905333"><ele>460.0</ele><time>2026-04-25T09:05:58.937Z</time></trkpt><trkpt lat="43.65433" lon="12.4904583"><ele>460.0</ele><time>2026-04-25T09:05:59.937Z</time></trkpt><trkpt lat="43.6544083" lon="12.4903767"><ele>460.0</ele><time>2026-04-25T09:06:00.936Z</time></trkpt><trkpt lat="43.654465" lon="12.4902817"><ele>457.4</ele><time>2026-04-25T09:06:01.937Z</time></trkpt><trkpt lat="43.654505" lon="12.490165"><ele>454.8</ele><time>2026-04-25T09:06:02.937Z</time></trkpt><trkpt lat="43.6545333" lon="12.4900367"><ele>452.20000000000005</ele><time>2026-04-25T09:06:03.937Z</time></trkpt><trkpt lat="43.6545583" lon="12.4898983"><ele>449.6</ele><time>2026-04-25T09:06:04.937Z</time></trkpt><trkpt lat="43.6545767" lon="12.4897517"><ele>447.0</ele><time>2026-04-25T09:06:05.937Z</time></trkpt><trkpt lat="43.65459" lon="12.4896133"><ele>447.8</ele><time>2026-04-25T09:06:06.937Z</time></trkpt><trkpt lat="43.6546033" lon="12.4894917"><ele>448.6</ele><time>2026-04-25T09:06:07.936Z</time></trkpt><trkpt lat="43.65461" lon="12.4893883"><ele>449.40000000000003</ele><time>2026-04-25T09:06:08.936Z</time></trkpt><trkpt lat="43.654565" lon="12.4892367"><ele>450.20000000000005</ele><time>2026-04-25T09:06:10.937Z</time></trkpt><trkpt lat="43.6544683" lon="12.4891233"><ele>451.0</ele><time>2026-04-25T09:06:12.937Z</time></trkpt><trkpt lat="43.6544033" lon="12.4890617"><ele>453.6666666666667</ele><time>2026-04-25T09:06:13.937Z</time></trkpt><trkpt lat="43.6543283" lon="12.4890067"><ele>456.33333333333337</ele><time>2026-04-25T09:06:14.937Z</time></trkpt><trkpt lat="43.6542533" lon="12.4889633"><ele>459.0</ele><time>2026-04-25T09:06:15.937Z</time></trkpt><trkpt lat="43.6541783" lon="12.488925"><ele>461.66666666666663</ele><time>2026-04-25T09:06:16.937Z</time></trkpt><trkpt lat="43.65411" lon="12.4888867"><ele>464.3333333333333</ele><time>2026-04-25T09:06:17.937Z</time></trkpt><trkpt lat="43.6540433" lon="12.4888467"><ele>467.0</ele><time>2026-04-25T09:06:18.937Z</time></trkpt><trkpt lat="43.65398" lon="12.488805"><ele>466.99999999999994</ele><time>2026-04-25T09:06:19.936Z</time></trkpt><trkpt lat="43.653915" lon="12.4887633"><ele>467.0</ele><time>2026-04-25T09:06:20.937Z</time></trkpt><trkpt lat="43.6538467" lon="12.4887217"><ele>467.0</ele><time>2026-04-25T09:06:21.937Z</time></trkpt><trkpt lat="43.653775" lon="12.488675"><ele>467.0</ele><time>2026-04-25T09:06:22.937Z</time></trkpt><trkpt lat="43.6537033" lon="12.48863"><ele>466.99999999999994</ele><time>2026-04-25T09:06:23.937Z</time></trkpt><trkpt lat="43.6536317" lon="12.4885767"><ele>467.0</ele><time>2026-04-25T09:06:24.936Z</time></trkpt><trkpt lat="43.6535617" lon="12.48852"><ele>466.0</ele><time>2026-04-25T09:06:25.937Z</time></trkpt><trkpt lat="43.653495" lon="12.4884533"><ele>465.00000000000006</ele><time>2026-04-25T09:06:26.937Z</time></trkpt><trkpt lat="43.65343" lon="12.4883683"><ele>464.00000000000006</ele><time>2026-04-25T09:06:27.937Z</time></trkpt><trkpt lat="43.6533683" lon="12.4882717"><ele>463.0</ele><time>2026-04-25T09:06:28.937Z</time></trkpt><trkpt lat="43.6533233" lon="12.4881517"><ele>462.0</ele><time>2026-04-25T09:06:29.937Z</time></trkpt><trkpt lat="43.6532867" lon="12.4880183"><ele>457.6</ele><time>2026-04-25T09:06:30.937Z</time></trkpt><trkpt lat="43.6532717" lon="12.4878783"><ele>453.20000000000005</ele><time>2026-04-25T09:06:31.937Z</time></trkpt><trkpt lat="43.6532717" lon="12.4877333"><ele>448.8</ele><time>2026-04-25T09:06:32.937Z</time></trkpt><trkpt lat="43.6532733" lon="12.4875883"><ele>444.4</ele><time>2026-04-25T09:06:33.936Z</time></trkpt><trkpt lat="43.6532683" lon="12.4874467"><ele>440.0</ele><time>2026-04-25T09:06:34.937Z</time></trkpt><trkpt lat="43.6532683" lon="12.4873067"><ele>440.0</ele><time>2026-04-25T09:06:35.936Z</time></trkpt><trkpt lat="43.6532633" lon="12.48717"><ele>440.0</ele><time>2026-04-25T09:06:36.937Z</time></trkpt><trkpt lat="43.65325" lon="12.4870317"><ele>440.0</ele><time>2026-04-25T09:06:37.937Z</time></trkpt><trkpt lat="43.6532383" lon="12.486895"><ele>440.0</ele><time>2026-04-25T09:06:38.937Z</time></trkpt><trkpt lat="43.65322" lon="12.486765"><ele>440.0</ele><time>2026-04-25T09:06:39.937Z</time></trkpt><trkpt lat="43.6531933" lon="12.4866417"><ele>438.16666666666663</ele><time>2026-04-25T09:06:40.937Z</time></trkpt><trkpt lat="43.653165" lon="12.4865317"><ele>436.3333333333333</ele><time>2026-04-25T09:06:41.937Z</time></trkpt><trkpt lat="43.653115" lon="12.4864533"><ele>434.5</ele><time>2026-04-25T09:06:42.937Z</time></trkpt><trkpt lat="43.653045" lon="12.4864167"><ele>432.66666666666663</ele><time>2026-04-25T09:06:43.936Z</time></trkpt><trkpt lat="43.652975" lon="12.4864233"><ele>430.8333333333333</ele><time>2026-04-25T09:06:44.937Z</time></trkpt><trkpt lat="43.6529183" lon="12.4864783"><ele>429.0</ele><time>2026-04-25T09:06:45.936Z</time></trkpt><trkpt lat="43.6528667" lon="12.48656"><ele>429.0</ele><time>2026-04-25T09:06:46.937Z</time></trkpt><trkpt lat="43.6528133" lon="12.486665"><ele>429.0</ele><time>2026-04-25T09:06:47.937Z</time></trkpt><trkpt lat="43.652765" lon="12.4867833"><ele>429.0</ele><time>2026-04-25T09:06:48.937Z</time></trkpt><trkpt lat="43.6527167" lon="12.4868933"><ele>429.0</ele><time>2026-04-25T09:06:49.937Z</time></trkpt><trkpt lat="43.6526417" lon="12.486975"><ele>429.0</ele><time>2026-04-25T09:06:50.937Z</time></trkpt><trkpt lat="43.6525533" lon="12.487015"><ele>428.25</ele><time>2026-04-25T09:06:51.937Z</time></trkpt><trkpt lat="43.6524533" lon="12.4870017"><ele>427.5</ele><time>2026-04-25T09:06:52.937Z</time></trkpt><trkpt lat="43.6523433" lon="12.486955"><ele>426.75</ele><time>2026-04-25T09:06:53.937Z</time></trkpt><trkpt lat="43.6522317" lon="12.486895"><ele>426.0</ele><time>2026-04-25T09:06:54.937Z</time></trkpt><trkpt lat="43.65212" lon="12.4868367"><ele>426.0</ele><time>2026-04-25T09:06:55.937Z</time></trkpt><trkpt lat="43.65201" lon="12.4867783"><ele>426.0</ele><time>2026-04-25T09:06:56.937Z</time></trkpt><trkpt lat="43.6519083" lon="12.4867133"><ele>426.0</ele><time>2026-04-25T09:06:57.937Z</time></trkpt><trkpt lat="43.6518233" lon="12.4866483"><ele>426.0</ele><time>2026-04-25T09:06:58.936Z</time></trkpt><trkpt lat="43.6517617" lon="12.486585"><ele>426.0</ele><time>2026-04-25T09:06:59.937Z</time></trkpt><trkpt lat="43.6517233" lon="12.4864417"><ele>426.0</ele><time>2026-04-25T09:07:01.937Z</time></trkpt><trkpt lat="43.65184" lon="12.48635"><ele>426.0</ele><time>2026-04-25T09:07:03.937Z</time></trkpt><trkpt lat="43.651945" lon="12.48632"><ele>426.0</ele><time>2026-04-25T09:07:04.936Z</time></trkpt><trkpt lat="43.6520617" lon="12.4862833"><ele>426.0</ele><time>2026-04-25T09:07:05.937Z</time></trkpt><trkpt lat="43.6521833" lon="12.4862267"><ele>423.75</ele><time>2026-04-25T09:07:06.937Z</time></trkpt><trkpt lat="43.6522983" lon="12.4861583"><ele>421.5</ele><time>2026-04-25T09:07:07.937Z</time></trkpt><trkpt lat="43.6524033" lon="12.4860767"><ele>419.25</ele><time>2026-04-25T09:07:08.937Z</time></trkpt><trkpt lat="43.6525" lon="12.4859733"><ele>417.0</ele><time>2026-04-25T09:07:09.936Z</time></trkpt><trkpt lat="43.6525783" lon="12.485845"><ele>417.0</ele><time>2026-04-25T09:07:10.937Z</time></trkpt><trkpt lat="43.6526433" lon="12.4857017"><ele>417.0</ele><time>2026-04-25T09:07:11.937Z</time></trkpt><trkpt lat="43.6527033" lon="12.4855583"><ele>417.0</ele><time>2026-04-25T09:07:12.936Z</time></trkpt><trkpt lat="43.6527733" lon="12.485425"><ele>417.0</ele><time>2026-04-25T09:07:13.937Z</time></trkpt><trkpt lat="43.6528617" lon="12.4853"><ele>412.5</ele><time>2026-04-25T09:07:14.936Z</time></trkpt><trkpt lat="43.6529567" lon="12.4851933"><ele>408.0</ele><time>2026-04-25T09:07:15.937Z</time></trkpt><trkpt lat="43.6530517" lon="12.485095"><ele>403.5</ele><time>2026-04-25T09:07:16.937Z</time></trkpt><trkpt lat="43.6531433" lon="12.4850083"><ele>399.0</ele><time>2026-04-25T09:07:17.936Z</time></trkpt><trkpt lat="43.6532233" lon="12.4849283"><ele>399.0</ele><time>2026-04-25T09:07:18.936Z</time></trkpt><trkpt lat="43.653285" lon="12.4848533"><ele>399.0</ele><time>2026-04-25T09:07:19.937Z</time></trkpt><trkpt lat="43.65333" lon="12.4847717"><ele>399.0</ele><time>2026-04-25T09:07:20.937Z</time></trkpt><trkpt lat="43.6533733" lon="12.484675"><ele>399.0</ele><time>2026-04-25T09:07:21.937Z</time></trkpt><trkpt lat="43.653435" lon="12.484565"><ele>399.0</ele><time>2026-04-25T09:07:22.936Z</time></trkpt><trkpt lat="43.6535183" lon="12.48445"><ele>396.79999999999995</ele><time>2026-04-25T09:07:23.937Z</time></trkpt><trkpt lat="43.6535967" lon="12.4843283"><ele>394.59999999999997</ele><time>2026-04-25T09:07:24.937Z</time></trkpt><trkpt lat="43.653655" lon="12.4841967"><ele>392.4</ele><time>2026-04-25T09:07:25.936Z</time></trkpt><trkpt lat="43.6536967" lon="12.4840583"><ele>390.2</ele><time>2026-04-25T09:07:26.937Z</time></trkpt><trkpt lat="43.6537183" lon="12.4839133"><ele>388.0</ele><time>2026-04-25T09:07:27.937Z</time></trkpt><trkpt lat="43.65373" lon="12.4837733"><ele>391.33333333333337</ele><time>2026-04-25T09:07:28.937Z</time></trkpt><trkpt lat="43.6537567" lon="12.48366"><ele>394.6666666666667</ele><time>2026-04-25T09:07:29.937Z</time></trkpt><trkpt lat="43.653805" lon="12.48357"><ele>398.0</ele><time>2026-04-25T09:07:30.937Z</time></trkpt><trkpt lat="43.653875" lon="12.4835217"><ele>401.33333333333337</ele><time>2026-04-25T09:07:31.937Z</time></trkpt><trkpt lat="43.653955" lon="12.4835117"><ele>404.6666666666667</ele><time>2026-04-25T09:07:32.937Z</time></trkpt><trkpt lat="43.6540333" lon="12.4835333"><ele>408.0</ele><time>2026-04-25T09:07:33.937Z</time></trkpt><trkpt lat="43.6541083" lon="12.4835717"><ele>408.0</ele><time>2026-04-25T09:07:34.937Z</time></trkpt><trkpt lat="43.6541867" lon="12.483615"><ele>408.0</ele><time>2026-04-25T09:07:35.937Z</time></trkpt><trkpt lat="43.654275" lon="12.4836567"><ele>408.0</ele><time>2026-04-25T09:07:36.937Z</time></trkpt><trkpt lat="43.6543783" lon="12.4836983"><ele>408.0</ele><time>2026-04-25T09:07:37.937Z</time></trkpt><trkpt lat="43.6544783" lon="12.4837767"><ele>408.0</ele><time>2026-04-25T09:07:38.937Z</time></trkpt><trkpt lat="43.6545817" lon="12.4838683"><ele>405.75</ele><time>2026-04-25T09:07:39.937Z</time></trkpt><trkpt lat="43.6546867" lon="12.483985"><ele>403.5</ele><time>2026-04-25T09:07:40.937Z</time></trkpt><trkpt lat="43.6547917" lon="12.4841267"><ele>401.25</ele><time>2026-04-25T09:07:41.937Z</time></trkpt><trkpt lat="43.65489" lon="12.4842783"><ele>399.0</ele><time>2026-04-25T09:07:42.937Z</time></trkpt><trkpt lat="43.654985" lon="12.48443"><ele>399.0</ele><time>2026-04-25T09:07:43.937Z</time></trkpt><trkpt lat="43.6550717" lon="12.484585"><ele>399.0</ele><time>2026-04-25T09:07:44.936Z</time></trkpt><trkpt lat="43.6551517" lon="12.48472"><ele>399.0</ele><time>2026-04-25T09:07:45.936Z</time></trkpt><trkpt lat="43.6552217" lon="12.4848283"><ele>399.0</ele><time>2026-04-25T09:07:46.937Z</time></trkpt><trkpt lat="43.6552817" lon="12.4849183"><ele>399.14285714285717</ele><time>2026-04-25T09:07:47.936Z</time></trkpt><trkpt lat="43.6553483" lon="12.4849817"><ele>399.2857142857143</ele><time>2026-04-25T09:07:48.936Z</time></trkpt><trkpt lat="43.65542" lon="12.4850267"><ele>399.42857142857144</ele><time>2026-04-25T09:07:49.936Z</time></trkpt><trkpt lat="43.6554833" lon="12.485075"><ele>399.57142857142856</ele><time>2026-04-25T09:07:50.937Z</time></trkpt><trkpt lat="43.6555333" lon="12.4851383"><ele>399.7142857142857</ele><time>2026-04-25T09:07:51.936Z</time></trkpt><trkpt lat="43.6555783" lon="12.48521"><ele>399.8571428571429</ele><time>2026-04-25T09:07:52.937Z</time></trkpt><trkpt lat="43.6556317" lon="12.4852817"><ele>400.0</ele><time>2026-04-25T09:07:53.937Z</time></trkpt><trkpt lat="43.6557033" lon="12.4853483"><ele>400.0</ele><time>2026-04-25T09:07:54.936Z</time></trkpt><trkpt lat="43.6557933" lon="12.4854017"><ele>400.0</ele><time>2026-04-25T09:07:55.937Z</time></trkpt><trkpt lat="43.6558983" lon="12.4854433"><ele>400.0</ele><time>2026-04-25T09:07:56.936Z</time></trkpt><trkpt lat="43.6560083" lon="12.4854833"><ele>400.0</ele><time>2026-04-25T09:07:57.937Z</time></trkpt><trkpt lat="43.6561183" lon="12.485515"><ele>400.0</ele><time>2026-04-25T09:07:58.937Z</time></trkpt><trkpt lat="43.6562333" lon="12.4855433"><ele>399.5</ele><time>2026-04-25T09:07:59.937Z</time></trkpt><trkpt lat="43.6563517" lon="12.4855917"><ele>399.0</ele><time>2026-04-25T09:08:00.936Z</time></trkpt><trkpt lat="43.6564783" lon="12.4856533"><ele>398.5</ele><time>2026-04-25T09:08:01.937Z</time></trkpt><trkpt lat="43.6566067" lon="12.4857167"><ele>398.0</ele><time>2026-04-25T09:08:02.936Z</time></trkpt><trkpt lat="43.6567367" lon="12.48577"><ele>398.0</ele><time>2026-04-25T09:08:03.937Z</time></trkpt><trkpt lat="43.65686" lon="12.4858067"><ele>398.0</ele><time>2026-04-25T09:08:04.937Z</time></trkpt><trkpt lat="43.65697" lon="12.48582"><ele>398.0</ele><time>2026-04-25T09:08:05.937Z</time></trkpt><trkpt lat="43.657075" lon="12.4858117"><ele>398.0</ele><time>2026-04-25T09:08:06.937Z</time></trkpt><trkpt lat="43.6571817" lon="12.4857817"><ele>398.79999999999995</ele><time>2026-04-25T09:08:07.937Z</time></trkpt><trkpt lat="43.657295" lon="12.485735"><ele>399.6</ele><time>2026-04-25T09:08:08.937Z</time></trkpt><trkpt lat="43.6573983" lon="12.485675"><ele>400.4</ele><time>2026-04-25T09:08:09.937Z</time></trkpt><trkpt lat="43.6574933" lon="12.485615"><ele>401.20000000000005</ele><time>2026-04-25T09:08:10.936Z</time></trkpt><trkpt lat="43.6575833" lon="12.4855533"><ele>402.0</ele><time>2026-04-25T09:08:11.937Z</time></trkpt><trkpt lat="43.6576617" lon="12.4854883"><ele>404.6</ele><time>2026-04-25T09:08:12.937Z</time></trkpt><trkpt lat="43.657735" lon="12.4854183"><ele>407.20000000000005</ele><time>2026-04-25T09:08:13.936Z</time></trkpt><trkpt lat="43.6578033" lon="12.48534"><ele>409.8</ele><time>2026-04-25T09:08:14.937Z</time></trkpt><trkpt lat="43.657875" lon="12.485265"><ele>412.4</ele><time>2026-04-25T09:08:15.937Z</time></trkpt><trkpt lat="43.6579517" lon="12.4851933"><ele>415.0</ele><time>2026-04-25T09:08:16.936Z</time></trkpt><trkpt lat="43.658025" lon="12.48512"><ele>415.0</ele><time>2026-04-25T09:08:17.936Z</time></trkpt><trkpt lat="43.658085" lon="12.4850483"><ele>415.0</ele><time>2026-04-25T09:08:18.937Z</time></trkpt><trkpt lat="43.6581217" lon="12.4849033"><ele>415.0</ele><time>2026-04-25T09:08:20.937Z</time></trkpt><trkpt lat="43.6580367" lon="12.484845"><ele>415.0</ele><time>2026-04-25T09:08:22.937Z</time></trkpt><trkpt lat="43.657955" lon="12.4848717"><ele>415.0</ele><time>2026-04-25T09:08:23.937Z</time></trkpt><trkpt lat="43.65785" lon="12.4849183"><ele>416.33333333333337</ele><time>2026-04-25T09:08:24.937Z</time></trkpt><trkpt lat="43.65771" lon="12.4849683"><ele>417.66666666666663</ele><time>2026-04-25T09:08:25.937Z</time></trkpt><trkpt lat="43.6575633" lon="12.485015"><ele>419.0</ele><time>2026-04-25T09:08:26.937Z</time></trkpt><trkpt lat="43.6574133" lon="12.485075"><ele>419.0</ele><time>2026-04-25T09:08:27.936Z</time></trkpt><trkpt lat="43.6572817" lon="12.4851333"><ele>419.0</ele><time>2026-04-25T09:08:28.937Z</time></trkpt><trkpt lat="43.657175" lon="12.4851817"><ele>419.0</ele><time>2026-04-25T09:08:29.937Z</time></trkpt><trkpt lat="43.6571" lon="12.4851933"><ele>419.0</ele><time>2026-04-25T09:08:30.937Z</time></trkpt><trkpt lat="43.6570367" lon="12.4851067"><ele>419.0</ele><time>2026-04-25T09:08:32.937Z</time></trkpt><trkpt lat="43.6570833" lon="12.4850433"><ele>419.0</ele><time>2026-04-25T09:08:33.937Z</time></trkpt><trkpt lat="43.6571533" lon="12.4849883"><ele>419.0</ele><time>2026-04-25T09:08:34.937Z</time></trkpt><trkpt lat="43.657245" lon="12.4849167"><ele>419.0</ele><time>2026-04-25T09:08:35.936Z</time></trkpt><trkpt lat="43.6573333" lon="12.4848233"><ele>419.0</ele><time>2026-04-25T09:08:36.937Z</time></trkpt><trkpt lat="43.6574233" lon="12.48471"><ele>419.0</ele><time>2026-04-25T09:08:37.937Z</time></trkpt><trkpt lat="43.6575133" lon="12.4845883"><ele>421.75</ele><time>2026-04-25T09:08:38.937Z</time></trkpt><trkpt lat="43.6576183" lon="12.4844717"><ele>424.5</ele><time>2026-04-25T09:08:39.937Z</time></trkpt><trkpt lat="43.65774" lon="12.48438"><ele>427.25</ele><time>2026-04-25T09:08:40.937Z</time></trkpt><trkpt lat="43.6578617" lon="12.4843083"><ele>430.0</ele><time>2026-04-25T09:08:41.937Z</time></trkpt><trkpt lat="43.6579783" lon="12.4842267"><ele>430.0</ele><time>2026-04-25T09:08:42.937Z</time></trkpt><trkpt lat="43.658085" lon="12.4841283"><ele>430.0</ele><time>2026-04-25T09:08:43.936Z</time></trkpt><trkpt lat="43.65818" lon="12.4840433"><ele>430.0</ele><time>2026-04-25T09:08:44.936Z</time></trkpt><trkpt lat="43.6582517" lon="12.48397"><ele>430.0</ele><time>2026-04-25T09:08:45.936Z</time></trkpt><trkpt lat="43.65829" lon="12.4839"><ele>430.0</ele><time>2026-04-25T09:08:46.936Z</time></trkpt><trkpt lat="43.6582483" lon="12.4837817"><ele>430.0</ele><time>2026-04-25T09:08:48.937Z</time></trkpt><trkpt lat="43.65811" lon="12.4838367"><ele>430.0</ele><time>2026-04-25T09:08:50.937Z</time></trkpt><trkpt lat="43.6580167" lon="12.4839083"><ele>430.0</ele><time>2026-04-25T09:08:51.936Z</time></trkpt><trkpt lat="43.6579" lon="12.4839767"><ele>430.0</ele><time>2026-04-25T09:08:52.937Z</time></trkpt><trkpt lat="43.6577567" lon="12.4840383"><ele>432.25</ele><time>2026-04-25T09:08:53.937Z</time></trkpt><trkpt lat="43.6576" lon="12.4840933"><ele>434.5</ele><time>2026-04-25T09:08:54.937Z</time></trkpt><trkpt lat="43.657455" lon="12.4841367"><ele>436.75</ele><time>2026-04-25T09:08:55.936Z</time></trkpt><trkpt lat="43.6573233" lon="12.48418"><ele>439.0</ele><time>2026-04-25T09:08:56.937Z</time></trkpt><trkpt lat="43.6572067" lon="12.4842017"><ele>439.00000000000006</ele><time>2026-04-25T09:08:57.937Z</time></trkpt><trkpt lat="43.657105" lon="12.4841967"><ele>439.0</ele><time>2026-04-25T09:08:58.936Z</time></trkpt><trkpt lat="43.65703" lon="12.4841617"><ele>439.0</ele><time>2026-04-25T09:08:59.937Z</time></trkpt><trkpt lat="43.657005" lon="12.4840467"><ele>439.0</ele><time>2026-04-25T09:09:01.936Z</time></trkpt><trkpt lat="43.6571133" lon="12.4840167"><ele>439.00000000000006</ele><time>2026-04-25T09:09:03.936Z</time></trkpt><trkpt lat="43.6571817" lon="12.4840217"><ele>439.0</ele><time>2026-04-25T09:09:04.937Z</time></trkpt><trkpt lat="43.6572583" lon="12.483985"><ele>439.0</ele><time>2026-04-25T09:09:05.936Z</time></trkpt><trkpt lat="43.657345" lon="12.4839017"><ele>439.0</ele><time>2026-04-25T09:09:06.937Z</time></trkpt><trkpt lat="43.65744" lon="12.4837767"><ele>439.0</ele><time>2026-04-25T09:09:07.937Z</time></trkpt><trkpt lat="43.65754" lon="12.4836317"><ele>439.0</ele><time>2026-04-25T09:09:08.937Z</time></trkpt><trkpt lat="43.657645" lon="12.4834883"><ele>441.6666666666667</ele><time>2026-04-25T09:09:09.936Z</time></trkpt><trkpt lat="43.6577633" lon="12.483355"><ele>444.33333333333337</ele><time>2026-04-25T09:09:10.937Z</time></trkpt><trkpt lat="43.6579033" lon="12.4832333"><ele>447.0</ele><time>2026-04-25T09:09:11.937Z</time></trkpt><trkpt lat="43.6580517" lon="12.4831333"><ele>447.0</ele><time>2026-04-25T09:09:12.937Z</time></trkpt><trkpt lat="43.65818" lon="12.48306"><ele>447.00000000000006</ele><time>2026-04-25T09:09:13.937Z</time></trkpt><trkpt lat="43.6582833" lon="12.4830033"><ele>447.00000000000006</ele><time>2026-04-25T09:09:14.936Z</time></trkpt><trkpt lat="43.6583567" lon="12.48294"><ele>447.0</ele><time>2026-04-25T09:09:15.936Z</time></trkpt><trkpt lat="43.6584" lon="12.4828633"><ele>447.0</ele><time>2026-04-25T09:09:16.937Z</time></trkpt><trkpt lat="43.6583783" lon="12.48276"><ele>447.0</ele><time>2026-04-25T09:09:18.937Z</time></trkpt><trkpt lat="43.658295" lon="12.4827867"><ele>447.0</ele><time>2026-04-25T09:09:19.936Z</time></trkpt><trkpt lat="43.6582017" lon="12.48285"><ele>447.0</ele><time>2026-04-25T09:09:20.936Z</time></trkpt><trkpt lat="43.6580817" lon="12.48291"><ele>447.0</ele><time>2026-04-25T09:09:21.936Z</time></trkpt><trkpt lat="43.6579317" lon="12.4829583"><ele>452.0</ele><time>2026-04-25T09:09:22.937Z</time></trkpt><trkpt lat="43.657765" lon="12.4830083"><ele>457.0</ele><time>2026-04-25T09:09:23.936Z</time></trkpt><trkpt lat="43.6575917" lon="12.4830717"><ele>462.0</ele><time>2026-04-25T09:09:24.937Z</time></trkpt><trkpt lat="43.6574383" lon="12.48314"><ele>462.0</ele><time>2026-04-25T09:09:25.937Z</time></trkpt><trkpt lat="43.6573133" lon="12.4831967"><ele>462.00000000000006</ele><time>2026-04-25T09:09:26.937Z</time></trkpt><trkpt lat="43.657215" lon="12.48323"><ele>462.00000000000006</ele><time>2026-04-25T09:09:27.937Z</time></trkpt><trkpt lat="43.65714" lon="12.483235"><ele>462.0</ele><time>2026-04-25T09:09:28.936Z</time></trkpt><trkpt lat="43.6570933" lon="12.4831283"><ele>462.0</ele><time>2026-04-25T09:09:30.936Z</time></trkpt><trkpt lat="43.657185" lon="12.4830483"><ele>462.0</ele><time>2026-04-25T09:09:32.937Z</time></trkpt><trkpt lat="43.657255" lon="12.4830283"><ele>462.00000000000006</ele><time>2026-04-25T09:09:33.937Z</time></trkpt><trkpt lat="43.6573267" lon="12.482975"><ele>462.00000000000006</ele><time>2026-04-25T09:09:34.937Z</time></trkpt><trkpt lat="43.6574083" lon="12.4828783"><ele>462.0</ele><time>2026-04-25T09:09:35.937Z</time></trkpt><trkpt lat="43.65751" lon="12.4827617"><ele>462.0</ele><time>2026-04-25T09:09:36.937Z</time></trkpt><trkpt lat="43.65763" lon="12.4826383"><ele>465.25</ele><time>2026-04-25T09:09:37.937Z</time></trkpt><trkpt lat="43.6577533" lon="12.4825267"><ele>468.5</ele><time>2026-04-25T09:09:38.937Z</time></trkpt><trkpt lat="43.6578633" lon="12.4824183"><ele>471.75</ele><time>2026-04-25T09:09:39.937Z</time></trkpt><trkpt lat="43.6579517" lon="12.4823"><ele>475.0</ele><time>2026-04-25T09:09:40.937Z</time></trkpt><trkpt lat="43.65802" lon="12.48218"><ele>478.2</ele><time>2026-04-25T09:09:41.937Z</time></trkpt><trkpt lat="43.65807" lon="12.482055"><ele>481.4</ele><time>2026-04-25T09:09:42.937Z</time></trkpt><trkpt lat="43.6581183" lon="12.4819317"><ele>484.6</ele><time>2026-04-25T09:09:43.936Z</time></trkpt><trkpt lat="43.6581833" lon="12.4818283"><ele>487.8</ele><time>2026-04-25T09:09:44.937Z</time></trkpt><trkpt lat="43.658265" lon="12.481735"><ele>491.0</ele><time>2026-04-25T09:09:45.937Z</time></trkpt><trkpt lat="43.658355" lon="12.4816417"><ele>491.0</ele><time>2026-04-25T09:09:46.937Z</time></trkpt><trkpt lat="43.658455" lon="12.4815417"><ele>491.0</ele><time>2026-04-25T09:09:47.937Z</time></trkpt><trkpt lat="43.6585517" lon="12.4814467"><ele>491.0</ele><time>2026-04-25T09:09:48.937Z</time></trkpt><trkpt lat="43.6586333" lon="12.4813717"><ele>491.0</ele><time>2026-04-25T09:09:49.937Z</time></trkpt><trkpt lat="43.6586967" lon="12.4813"><ele>491.0</ele><time>2026-04-25T09:09:50.937Z</time></trkpt><trkpt lat="43.6587317" lon="12.48122"><ele>494.20000000000005</ele><time>2026-04-25T09:09:51.937Z</time></trkpt><trkpt lat="43.658695" lon="12.4810967"><ele>497.40000000000003</ele><time>2026-04-25T09:09:53.937Z</time></trkpt><trkpt lat="43.65862" lon="12.48109"><ele>500.6</ele><time>2026-04-25T09:09:54.937Z</time></trkpt><trkpt lat="43.6585333" lon="12.4810933"><ele>503.8</ele><time>2026-04-25T09:09:55.937Z</time></trkpt><trkpt lat="43.6584183" lon="12.4811283"><ele>507.0</ele><time>2026-04-25T09:09:56.937Z</time></trkpt><trkpt lat="43.65829" lon="12.4811717"><ele>508.25</ele><time>2026-04-25T09:09:57.936Z</time></trkpt><trkpt lat="43.6581667" lon="12.48122"><ele>509.5</ele><time>2026-04-25T09:09:58.937Z</time></trkpt><trkpt lat="43.658045" lon="12.4812867"><ele>510.75</ele><time>2026-04-25T09:09:59.937Z</time></trkpt><trkpt lat="43.6579317" lon="12.4813817"><ele>512.0</ele><time>2026-04-25T09:10:00.937Z</time></trkpt><trkpt lat="43.6578267" lon="12.4814967"><ele>510.75</ele><time>2026-04-25T09:10:01.936Z</time></trkpt><trkpt lat="43.6577117" lon="12.48161"><ele>509.5</ele><time>2026-04-25T09:10:02.936Z</time></trkpt><trkpt lat="43.6575983" lon="12.481695"><ele>508.25</ele><time>2026-04-25T09:10:03.937Z</time></trkpt><trkpt lat="43.6574883" lon="12.4817617"><ele>507.0</ele><time>2026-04-25T09:10:04.937Z</time></trkpt><trkpt lat="43.6573867" lon="12.4817983"><ele>507.0</ele><time>2026-04-25T09:10:05.937Z</time></trkpt><trkpt lat="43.657295" lon="12.4817967"><ele>507.00000000000006</ele><time>2026-04-25T09:10:06.937Z</time></trkpt><trkpt lat="43.6572083" lon="12.4817517"><ele>507.00000000000006</ele><time>2026-04-25T09:10:07.936Z</time></trkpt><trkpt lat="43.6571333" lon="12.4816733"><ele>507.0</ele><time>2026-04-25T09:10:08.938Z</time></trkpt><trkpt lat="43.6570833" lon="12.4815717"><ele>507.0</ele><time>2026-04-25T09:10:09.938Z</time></trkpt><trkpt lat="43.6570617" lon="12.4814617"><ele>507.0</ele><time>2026-04-25T09:10:10.938Z</time></trkpt><trkpt lat="43.65707" lon="12.4813583"><ele>507.0</ele><time>2026-04-25T09:10:11.937Z</time></trkpt><trkpt lat="43.65711" lon="12.4812683"><ele>507.0</ele><time>2026-04-25T09:10:12.938Z</time></trkpt><trkpt lat="43.6571833" lon="12.4812017"><ele>507.0</ele><time>2026-04-25T09:10:13.938Z</time></trkpt><trkpt lat="43.6572717" lon="12.4811517"><ele>507.0</ele><time>2026-04-25T09:10:14.938Z</time></trkpt><trkpt lat="43.657365" lon="12.4810967"><ele>507.0</ele><time>2026-04-25T09:10:15.938Z</time></trkpt><trkpt lat="43.6574467" lon="12.4810117"><ele>508.0</ele><time>2026-04-25T09:10:16.937Z</time></trkpt><trkpt lat="43.6575083" lon="12.4808883"><ele>509.00000000000006</ele><time>2026-04-25T09:10:17.938Z</time></trkpt><trkpt lat="43.6575617" lon="12.4807533"><ele>510.00000000000006</ele><time>2026-04-25T09:10:18.938Z</time></trkpt><trkpt lat="43.6576267" lon="12.480635"><ele>511.0</ele><time>2026-04-25T09:10:19.938Z</time></trkpt><trkpt lat="43.6577117" lon="12.480545"><ele>512.0</ele><time>2026-04-25T09:10:20.938Z</time></trkpt><trkpt lat="43.657815" lon="12.48047"><ele>517.0</ele><time>2026-04-25T09:10:21.938Z</time></trkpt><trkpt lat="43.65792" lon="12.4803917"><ele>522.0</ele><time>2026-04-25T09:10:22.938Z</time></trkpt><trkpt lat="43.6580133" lon="12.4803033"><ele>527.0</ele><time>2026-04-25T09:10:23.938Z</time></trkpt><trkpt lat="43.6580933" lon="12.4801867"><ele>532.0</ele><time>2026-04-25T09:10:24.938Z</time></trkpt><trkpt lat="43.6581683" lon="12.4800433"><ele>532.0</ele><time>2026-04-25T09:10:25.938Z</time></trkpt><trkpt lat="43.6582417" lon="12.4799017"><ele>532.0</ele><time>2026-04-25T09:10:26.938Z</time></trkpt><trkpt lat="43.6583083" lon="12.4797767"><ele>532.0</ele><time>2026-04-25T09:10:27.938Z</time></trkpt><trkpt lat="43.6583567" lon="12.4796667"><ele>532.0</ele><time>2026-04-25T09:10:28.938Z</time></trkpt><trkpt lat="43.6583783" lon="12.4795733"><ele>532.0</ele><time>2026-04-25T09:10:29.937Z</time></trkpt><trkpt lat="43.6583067" lon="12.4794933"><ele>532.0</ele><time>2026-04-25T09:10:31.938Z</time></trkpt><trkpt lat="43.6582333" lon="12.4795583"><ele>532.0</ele><time>2026-04-25T09:10:32.938Z</time></trkpt><trkpt lat="43.6581583" lon="12.4796367"><ele>532.0</ele><time>2026-04-25T09:10:33.938Z</time></trkpt><trkpt lat="43.6580683" lon="12.479725"><ele>532.0</ele><time>2026-04-25T09:10:34.938Z</time></trkpt><trkpt lat="43.6579617" lon="12.479815"><ele>532.0</ele><time>2026-04-25T09:10:35.937Z</time></trkpt><trkpt lat="43.6578483" lon="12.4799033"><ele>534.6</ele><time>2026-04-25T09:10:36.938Z</time></trkpt><trkpt lat="43.6577433" lon="12.4799933"><ele>537.2</ele><time>2026-04-25T09:10:37.938Z</time></trkpt><trkpt lat="43.6576533" lon="12.4800583"><ele>539.8</ele><time>2026-04-25T09:10:38.938Z</time></trkpt><trkpt lat="43.6575733" lon="12.4800783"><ele>542.4</ele><time>2026-04-25T09:10:39.938Z</time></trkpt><trkpt lat="43.6574783" lon="12.4799733"><ele>545.0</ele><time>2026-04-25T09:10:41.938Z</time></trkpt><trkpt lat="43.6574567" lon="12.4798667"><ele>545.0</ele><time>2026-04-25T09:10:42.938Z</time></trkpt><trkpt lat="43.6574517" lon="12.479735"><ele>545.0</ele><time>2026-04-25T09:10:43.938Z</time></trkpt><trkpt lat="43.65747" lon="12.479595"><ele>545.0</ele><time>2026-04-25T09:10:44.937Z</time></trkpt><trkpt lat="43.6575117" lon="12.4794517"><ele>545.0</ele><time>2026-04-25T09:10:45.937Z</time></trkpt><trkpt lat="43.6575617" lon="12.4793133"><ele>545.0</ele><time>2026-04-25T09:10:46.937Z</time></trkpt><trkpt lat="43.6576283" lon="12.47919"><ele>545.0</ele><time>2026-04-25T09:10:47.938Z</time></trkpt><trkpt lat="43.6577183" lon="12.4790783"><ele>545.0</ele><time>2026-04-25T09:10:48.938Z</time></trkpt><trkpt lat="43.657825" lon="12.4789733"><ele>545.0</ele><time>2026-04-25T09:10:49.938Z</time></trkpt><trkpt lat="43.65793" lon="12.4788567"><ele>545.0</ele><time>2026-04-25T09:10:50.938Z</time></trkpt><trkpt lat="43.658035" lon="12.47873"><ele>550.25</ele><time>2026-04-25T09:10:51.938Z</time></trkpt><trkpt lat="43.658145" lon="12.478605"><ele>555.5</ele><time>2026-04-25T09:10:52.937Z</time></trkpt><trkpt lat="43.65826" lon="12.4784983"><ele>560.75</ele><time>2026-04-25T09:10:53.938Z</time></trkpt><trkpt lat="43.658385" lon="12.478425"><ele>566.0</ele><time>2026-04-25T09:10:54.937Z</time></trkpt><trkpt lat="43.6585217" lon="12.47839"><ele>565.25</ele><time>2026-04-25T09:10:55.938Z</time></trkpt><trkpt lat="43.6586733" lon="12.4783767"><ele>564.5</ele><time>2026-04-25T09:10:56.938Z</time></trkpt><trkpt lat="43.65882" lon="12.478375"><ele>563.75</ele><time>2026-04-25T09:10:57.938Z</time></trkpt><trkpt lat="43.6589383" lon="12.478375"><ele>563.0</ele><time>2026-04-25T09:10:58.938Z</time></trkpt><trkpt lat="43.65902" lon="12.4783683"><ele>563.0</ele><time>2026-04-25T09:10:59.938Z</time></trkpt><trkpt lat="43.659085" lon="12.4783283"><ele>563.0</ele><time>2026-04-25T09:11:01.938Z</time></trkpt><trkpt lat="43.6590283" lon="12.47828"><ele>563.0</ele><time>2026-04-25T09:11:03.937Z</time></trkpt><trkpt lat="43.658895" lon="12.478265"><ele>563.0</ele><time>2026-04-25T09:11:05.938Z</time></trkpt><trkpt lat="43.658795" lon="12.4782467"><ele>563.0</ele><time>2026-04-25T09:11:06.937Z</time></trkpt><trkpt lat="43.65868" lon="12.4782183"><ele>563.6</ele><time>2026-04-25T09:11:07.937Z</time></trkpt><trkpt lat="43.6585767" lon="12.4781767"><ele>564.1999999999999</ele><time>2026-04-25T09:11:08.938Z</time></trkpt><trkpt lat="43.6585017" lon="12.478115"><ele>564.8</ele><time>2026-04-25T09:11:09.938Z</time></trkpt><trkpt lat="43.6584533" lon="12.4780283"><ele>565.4</ele><time>2026-04-25T09:11:10.937Z</time></trkpt><trkpt lat="43.6584233" lon="12.4779117"><ele>566.0</ele><time>2026-04-25T09:11:11.938Z</time></trkpt><trkpt lat="43.6583933" lon="12.47779"><ele>566.6</ele><time>2026-04-25T09:11:12.938Z</time></trkpt><trkpt lat="43.658345" lon="12.47768"><ele>567.2</ele><time>2026-04-25T09:11:13.938Z</time></trkpt><trkpt lat="43.6582667" lon="12.4775633"><ele>567.8</ele><time>2026-04-25T09:11:14.937Z</time></trkpt><trkpt lat="43.6581817" lon="12.477455"><ele>568.4</ele><time>2026-04-25T09:11:15.937Z</time></trkpt><trkpt lat="43.6581067" lon="12.4773933"><ele>569.0</ele><time>2026-04-25T09:11:16.938Z</time></trkpt><trkpt lat="43.6580067" lon="12.4774667"><ele>569.0</ele><time>2026-04-25T09:11:18.938Z</time></trkpt><trkpt lat="43.65798" lon="12.4775767"><ele>569.0</ele><time>2026-04-25T09:11:19.938Z</time></trkpt><trkpt lat="43.657965" lon="12.4777017"><ele>569.0</ele><time>2026-04-25T09:11:20.938Z</time></trkpt><trkpt lat="43.657955" lon="12.47784"><ele>569.0</ele><time>2026-04-25T09:11:21.937Z</time></trkpt><trkpt lat="43.65791" lon="12.4779767"><ele>569.0</ele><time>2026-04-25T09:11:22.938Z</time></trkpt><trkpt lat="43.657825" lon="12.4781067"><ele>571.0</ele><time>2026-04-25T09:11:23.938Z</time></trkpt><trkpt lat="43.6577217" lon="12.478225"><ele>573.0</ele><time>2026-04-25T09:11:24.936Z</time></trkpt><trkpt lat="43.6576183" lon="12.478325"><ele>575.0</ele><time>2026-04-25T09:11:25.937Z</time></trkpt><trkpt lat="43.6575067" lon="12.47838"><ele>577.0</ele><time>2026-04-25T09:11:26.937Z</time></trkpt><trkpt lat="43.6573933" lon="12.478405"><ele>577.0</ele><time>2026-04-25T09:11:27.937Z</time></trkpt><trkpt lat="43.6572833" lon="12.4784033"><ele>577.0</ele><time>2026-04-25T09:11:28.937Z</time></trkpt><trkpt lat="43.6571717" lon="12.4783767"><ele>577.0</ele><time>2026-04-25T09:11:29.937Z</time></trkpt><trkpt lat="43.657065" lon="12.478325"><ele>577.0</ele><time>2026-04-25T09:11:30.937Z</time></trkpt><trkpt lat="43.6569583" lon="12.47824"><ele>578.0</ele><time>2026-04-25T09:11:31.937Z</time></trkpt><trkpt lat="43.6568417" lon="12.4781267"><ele>579.0</ele><time>2026-04-25T09:11:32.937Z</time></trkpt><trkpt lat="43.656715" lon="12.4780117"><ele>580.0</ele><time>2026-04-25T09:11:33.937Z</time></trkpt><trkpt lat="43.65659" lon="12.477915"><ele>581.0</ele><time>2026-04-25T09:11:34.937Z</time></trkpt><trkpt lat="43.6564733" lon="12.4778483"><ele>583.75</ele><time>2026-04-25T09:11:35.937Z</time></trkpt><trkpt lat="43.6563517" lon="12.4778217"><ele>586.5</ele><time>2026-04-25T09:11:36.936Z</time></trkpt><trkpt lat="43.6562217" lon="12.47782"><ele>589.25</ele><time>2026-04-25T09:11:37.937Z</time></trkpt><trkpt lat="43.656095" lon="12.4778183"><ele>592.0</ele><time>2026-04-25T09:11:38.936Z</time></trkpt><trkpt lat="43.6559783" lon="12.4778"><ele>592.0</ele><time>2026-04-25T09:11:39.937Z</time></trkpt><trkpt lat="43.655865" lon="12.4777583"><ele>592.0</ele><time>2026-04-25T09:11:40.937Z</time></trkpt><trkpt lat="43.6557467" lon="12.4776867"><ele>592.0</ele><time>2026-04-25T09:11:41.937Z</time></trkpt><trkpt lat="43.6556217" lon="12.477585"><ele>592.0</ele><time>2026-04-25T09:11:42.936Z</time></trkpt><trkpt lat="43.6554933" lon="12.477465"><ele>592.0</ele><time>2026-04-25T09:11:43.936Z</time></trkpt><trkpt lat="43.65538" lon="12.4773433"><ele>592.0</ele><time>2026-04-25T09:11:44.937Z</time></trkpt><trkpt lat="43.6552833" lon="12.477235"><ele>592.0</ele><time>2026-04-25T09:11:45.937Z</time></trkpt><trkpt lat="43.6551933" lon="12.4771633"><ele>592.0</ele><time>2026-04-25T09:11:46.937Z</time></trkpt><trkpt lat="43.6551083" lon="12.4771367"><ele>592.0</ele><time>2026-04-25T09:11:47.937Z</time></trkpt><trkpt lat="43.6550367" lon="12.477155"><ele>592.0</ele><time>2026-04-25T09:11:48.936Z</time></trkpt><trkpt lat="43.654965" lon="12.4772183"><ele>592.0</ele><time>2026-04-25T09:11:49.937Z</time></trkpt><trkpt lat="43.6548867" lon="12.47728"><ele>592.0</ele><time>2026-04-25T09:11:50.936Z</time></trkpt><trkpt lat="43.654795" lon="12.4773067"><ele>592.0</ele><time>2026-04-25T09:11:51.937Z</time></trkpt><trkpt lat="43.6546917" lon="12.4772867"><ele>592.0</ele><time>2026-04-25T09:11:52.937Z</time></trkpt><trkpt lat="43.6545917" lon="12.4772283"><ele>592.0</ele><time>2026-04-25T09:11:53.937Z</time></trkpt><trkpt lat="43.654515" lon="12.4771433"><ele>592.0</ele><time>2026-04-25T09:11:54.937Z</time></trkpt><trkpt lat="43.65446" lon="12.4770383"><ele>592.0</ele><time>2026-04-25T09:11:55.937Z</time></trkpt><trkpt lat="43.6544217" lon="12.4769217"><ele>592.0</ele><time>2026-04-25T09:11:56.936Z</time></trkpt><trkpt lat="43.6543983" lon="12.4768017"><ele>592.0</ele><time>2026-04-25T09:11:57.937Z</time></trkpt><trkpt lat="43.65439" lon="12.476675"><ele>593.8000000000001</ele><time>2026-04-25T09:11:58.937Z</time></trkpt><trkpt lat="43.6544017" lon="12.4765517"><ele>595.6</ele><time>2026-04-25T09:11:59.937Z</time></trkpt><trkpt lat="43.6544217" lon="12.4764317"><ele>597.4000000000001</ele><time>2026-04-25T09:12:00.937Z</time></trkpt><trkpt lat="43.65444" lon="12.4763083"><ele>599.2</ele><time>2026-04-25T09:12:01.936Z</time></trkpt><trkpt lat="43.6544467" lon="12.476185"><ele>601.0</ele><time>2026-04-25T09:12:02.937Z</time></trkpt><trkpt lat="43.654435" lon="12.4760617"><ele>601.4</ele><time>2026-04-25T09:12:03.937Z</time></trkpt><trkpt lat="43.6544133" lon="12.4759383"><ele>601.8</ele><time>2026-04-25T09:12:04.937Z</time></trkpt><trkpt lat="43.6543917" lon="12.4758117"><ele>602.1999999999999</ele><time>2026-04-25T09:12:05.937Z</time></trkpt><trkpt lat="43.6543667" lon="12.4756833"><ele>602.6</ele><time>2026-04-25T09:12:06.937Z</time></trkpt><trkpt lat="43.6543344" lon="12.4755582"><ele>603.0</ele><time>2026-04-25T09:12:07.937Z</time></trkpt><trkpt lat="43.6542877" lon="12.475439"><ele>606.0</ele><time>2026-04-25T09:12:08.937Z</time></trkpt><trkpt lat="43.6542316" lon="12.4753215"><ele>609.0</ele><time>2026-04-25T09:12:09.937Z</time></trkpt><trkpt lat="43.6541654" lon="12.4751987"><ele>612.0</ele><time>2026-04-25T09:12:10.937Z</time></trkpt><trkpt lat="43.6540864" lon="12.4750609"><ele>615.0</ele><time>2026-04-25T09:12:11.937Z</time></trkpt><trkpt lat="43.6539949" lon="12.4749163"><ele>615.0</ele><time>2026-04-25T09:12:12.937Z</time></trkpt><trkpt lat="43.6538919" lon="12.4747659"><ele>615.0</ele><time>2026-04-25T09:12:13.937Z</time></trkpt><trkpt lat="43.6537891" lon="12.4746076"><ele>615.0</ele><time>2026-04-25T09:12:14.937Z</time></trkpt><trkpt lat="43.6537035" lon="12.4744618"><ele>615.0</ele><time>2026-04-25T09:12:15.936Z</time></trkpt><trkpt lat="43.653647" lon="12.4743236"><ele>616.0</ele><time>2026-04-25T09:12:16.937Z</time></trkpt><trkpt lat="43.6536222" lon="12.4741861"><ele>617.0</ele><time>2026-04-25T09:12:17.937Z</time></trkpt><trkpt lat="43.6536285" lon="12.474049"><ele>618.0</ele><time>2026-04-25T09:12:18.937Z</time></trkpt><trkpt lat="43.6536579" lon="12.4739039"><ele>619.0</ele><time>2026-04-25T09:12:19.937Z</time></trkpt><trkpt lat="43.6536943" lon="12.4737294"><ele>620.0</ele><time>2026-04-25T09:12:20.937Z</time></trkpt><trkpt lat="43.653728" lon="12.4735301"><ele>620.0</ele><time>2026-04-25T09:12:21.936Z</time></trkpt><trkpt lat="43.653754" lon="12.4733263"><ele>620.0</ele><time>2026-04-25T09:12:22.937Z</time></trkpt><trkpt lat="43.6537791" lon="12.4731305"><ele>620.0</ele><time>2026-04-25T09:12:23.937Z</time></trkpt><trkpt lat="43.6538174" lon="12.4729367"><ele>620.0</ele><time>2026-04-25T09:12:24.937Z</time></trkpt><trkpt lat="43.6538723" lon="12.4727562"><ele>621.5</ele><time>2026-04-25T09:12:25.937Z</time></trkpt><trkpt lat="43.6539257" lon="12.4725871"><ele>623.0</ele><time>2026-04-25T09:12:26.937Z</time></trkpt><trkpt lat="43.6539652" lon="12.4724303"><ele>624.5</ele><time>2026-04-25T09:12:27.937Z</time></trkpt><trkpt lat="43.6539862" lon="12.4722914"><ele>626.0</ele><time>2026-04-25T09:12:28.936Z</time></trkpt><trkpt lat="43.6539877" lon="12.4721502"><ele>625.5</ele><time>2026-04-25T09:12:29.936Z</time></trkpt><trkpt lat="43.6539847" lon="12.4719944"><ele>625.0</ele><time>2026-04-25T09:12:30.937Z</time></trkpt><trkpt lat="43.6539764" lon="12.4718196"><ele>624.5</ele><time>2026-04-25T09:12:31.937Z</time></trkpt><trkpt lat="43.6539698" lon="12.4716189"><ele>624.0</ele><time>2026-04-25T09:12:32.937Z</time></trkpt><trkpt lat="43.6539631" lon="12.4714052"><ele>622.6666666666666</ele><time>2026-04-25T09:12:33.937Z</time></trkpt><trkpt lat="43.653947" lon="12.4711957"><ele>621.3333333333333</ele><time>2026-04-25T09:12:34.936Z</time></trkpt><trkpt lat="43.6539279" lon="12.4709935"><ele>620.0</ele><time>2026-04-25T09:12:35.937Z</time></trkpt><trkpt lat="43.6539064" lon="12.4707861"><ele>620.0</ele><time>2026-04-25T09:12:36.937Z</time></trkpt><trkpt lat="43.6538756" lon="12.4705703"><ele>620.0</ele><time>2026-04-25T09:12:37.937Z</time></trkpt><trkpt lat="43.6538462" lon="12.4703516"><ele>620.0</ele><time>2026-04-25T09:12:38.936Z</time></trkpt><trkpt lat="43.6538279" lon="12.4701329"><ele>619.75</ele><time>2026-04-25T09:12:39.937Z</time></trkpt><trkpt lat="43.6538221" lon="12.4699252"><ele>619.5</ele><time>2026-04-25T09:12:40.937Z</time></trkpt><trkpt lat="43.6538265" lon="12.4697443"><ele>619.25</ele><time>2026-04-25T09:12:41.937Z</time></trkpt><trkpt lat="43.6538352" lon="12.4696011"><ele>619.0</ele><time>2026-04-25T09:12:42.937Z</time></trkpt><trkpt lat="43.6538483" lon="12.4694769"><ele>619.4</ele><time>2026-04-25T09:12:43.937Z</time></trkpt><trkpt lat="43.6538724" lon="12.4693601"><ele>619.8</ele><time>2026-04-25T09:12:44.937Z</time></trkpt><trkpt lat="43.653906" lon="12.4692382"><ele>620.2</ele><time>2026-04-25T09:12:45.937Z</time></trkpt><trkpt lat="43.6539474" lon="12.4690963"><ele>620.6</ele><time>2026-04-25T09:12:46.936Z</time></trkpt><trkpt lat="43.6540033" lon="12.4689253"><ele>621.0</ele><time>2026-04-25T09:12:47.937Z</time></trkpt><trkpt lat="43.6540652" lon="12.468735"><ele>621.0</ele><time>2026-04-25T09:12:48.936Z</time></trkpt><trkpt lat="43.6541179" lon="12.4685443"><ele>621.0</ele><time>2026-04-25T09:12:49.937Z</time></trkpt><trkpt lat="43.6541649" lon="12.4683719"><ele>621.0</ele><time>2026-04-25T09:12:50.937Z</time></trkpt><trkpt lat="43.6542276" lon="12.4682181"><ele>621.0</ele><time>2026-04-25T09:12:51.937Z</time></trkpt><trkpt lat="43.6543009" lon="12.4680697"><ele>620.75</ele><time>2026-04-25T09:12:52.936Z</time></trkpt><trkpt lat="43.6543555" lon="12.4679184"><ele>620.5</ele><time>2026-04-25T09:12:53.937Z</time></trkpt><trkpt lat="43.6543799" lon="12.4677671"><ele>620.25</ele><time>2026-04-25T09:12:54.937Z</time></trkpt><trkpt lat="43.6543817" lon="12.4676082"><ele>620.0</ele><time>2026-04-25T09:12:55.937Z</time></trkpt><trkpt lat="43.6543719" lon="12.4674422"><ele>620.0</ele><time>2026-04-25T09:12:56.937Z</time></trkpt><trkpt lat="43.654357" lon="12.4672809"><ele>620.0</ele><time>2026-04-25T09:12:57.937Z</time></trkpt><trkpt lat="43.6543297" lon="12.4671323"><ele>620.0</ele><time>2026-04-25T09:12:58.937Z</time></trkpt><trkpt lat="43.6542827" lon="12.4669935"><ele>620.0</ele><time>2026-04-25T09:12:59.937Z</time></trkpt><trkpt lat="43.6542135" lon="12.4668591"><ele>621.25</ele><time>2026-04-25T09:13:00.937Z</time></trkpt><trkpt lat="43.6541293" lon="12.4667281"><ele>622.5</ele><time>2026-04-25T09:13:01.937Z</time></trkpt><trkpt lat="43.6540392" lon="12.4666131"><ele>623.75</ele><time>2026-04-25T09:13:02.937Z</time></trkpt><trkpt lat="43.6539423" lon="12.4665173"><ele>625.0</ele><time>2026-04-25T09:13:03.937Z</time></trkpt><trkpt lat="43.6538317" lon="12.4664385"><ele>625.0</ele><time>2026-04-25T09:13:04.936Z</time></trkpt><trkpt lat="43.6537105" lon="12.466368"><ele>625.0</ele><time>2026-04-25T09:13:05.937Z</time></trkpt><trkpt lat="43.6535917" lon="12.4662981"><ele>625.0</ele><time>2026-04-25T09:13:06.937Z</time></trkpt><trkpt lat="43.6534712" lon="12.4662261"><ele>625.0</ele><time>2026-04-25T09:13:07.936Z</time></trkpt><trkpt lat="43.6533478" lon="12.4661556"><ele>622.0</ele><time>2026-04-25T09:13:08.936Z</time></trkpt><trkpt lat="43.6532243" lon="12.4660934"><ele>619.0</ele><time>2026-04-25T09:13:09.937Z</time></trkpt><trkpt lat="43.6530992" lon="12.4660296"><ele>616.0</ele><time>2026-04-25T09:13:10.936Z</time></trkpt><trkpt lat="43.6529736" lon="12.4659536"><ele>613.0</ele><time>2026-04-25T09:13:11.937Z</time></trkpt><trkpt lat="43.6528455" lon="12.4658619"><ele>614.0</ele><time>2026-04-25T09:13:12.937Z</time></trkpt><trkpt lat="43.6527159" lon="12.4657583"><ele>615.0</ele><time>2026-04-25T09:13:13.937Z</time></trkpt><trkpt lat="43.6525983" lon="12.4656633"><ele>616.0</ele><time>2026-04-25T09:13:14.937Z</time></trkpt><trkpt lat="43.6524983" lon="12.4656017"><ele>617.0</ele><time>2026-04-25T09:13:15.937Z</time></trkpt><trkpt lat="43.6524117" lon="12.4655933"><ele>617.0</ele><time>2026-04-25T09:13:16.936Z</time></trkpt><trkpt lat="43.6523233" lon="12.46563"><ele>617.0</ele><time>2026-04-25T09:13:17.937Z</time></trkpt><trkpt lat="43.6522167" lon="12.4656833"><ele>617.0</ele><time>2026-04-25T09:13:18.937Z</time></trkpt><trkpt lat="43.6521133" lon="12.465735"><ele>617.0</ele><time>2026-04-25T09:13:19.937Z</time></trkpt><trkpt lat="43.6520283" lon="12.4657683"><ele>617.0</ele><time>2026-04-25T09:13:20.936Z</time></trkpt><trkpt lat="43.651965" lon="12.4657733"><ele>619.0</ele><time>2026-04-25T09:13:21.937Z</time></trkpt><trkpt lat="43.651855" lon="12.46572"><ele>621.0</ele><time>2026-04-25T09:13:23.937Z</time></trkpt><trkpt lat="43.6517883" lon="12.4656833"><ele>623.0</ele><time>2026-04-25T09:13:24.936Z</time></trkpt><trkpt lat="43.6517167" lon="12.4656417"><ele>625.0</ele><time>2026-04-25T09:13:25.937Z</time></trkpt><trkpt lat="43.651645" lon="12.4655883"><ele>627.0</ele><time>2026-04-25T09:13:26.936Z</time></trkpt><trkpt lat="43.6515867" lon="12.4655217"><ele>629.0</ele><time>2026-04-25T09:13:27.937Z</time></trkpt><trkpt lat="43.6515433" lon="12.4654467"><ele>629.2</ele><time>2026-04-25T09:13:28.936Z</time></trkpt><trkpt lat="43.6514967" lon="12.4653"><ele>629.4</ele><time>2026-04-25T09:13:30.936Z</time></trkpt><trkpt lat="43.6514133" lon="12.4652117"><ele>629.6</ele><time>2026-04-25T09:13:32.936Z</time></trkpt><trkpt lat="43.65134" lon="12.465185"><ele>629.8</ele><time>2026-04-25T09:13:33.937Z</time></trkpt><trkpt lat="43.6512617" lon="12.4651667"><ele>630.0</ele><time>2026-04-25T09:13:34.937Z</time></trkpt><trkpt lat="43.65118" lon="12.4651383"><ele>632.8333333333334</ele><time>2026-04-25T09:13:35.937Z</time></trkpt><trkpt lat="43.6511033" lon="12.4650783"><ele>635.6666666666666</ele><time>2026-04-25T09:13:36.937Z</time></trkpt><trkpt lat="43.6510317" lon="12.464995"><ele>638.5</ele><time>2026-04-25T09:13:37.936Z</time></trkpt><trkpt lat="43.6509617" lon="12.4649117"><ele>641.3333333333333</ele><time>2026-04-25T09:13:38.936Z</time></trkpt><trkpt lat="43.650895" lon="12.4648383"><ele>644.1666666666666</ele><time>2026-04-25T09:13:39.937Z</time></trkpt><trkpt lat="43.650835" lon="12.4647717"><ele>647.0</ele><time>2026-04-25T09:13:40.937Z</time></trkpt><trkpt lat="43.6507617" lon="12.4647017"><ele>647.0</ele><time>2026-04-25T09:13:41.937Z</time></trkpt><trkpt lat="43.6506733" lon="12.464625"><ele>647.0</ele><time>2026-04-25T09:13:42.937Z</time></trkpt><trkpt lat="43.6505783" lon="12.46455"><ele>647.0</ele><time>2026-04-25T09:13:43.937Z</time></trkpt><trkpt lat="43.6504933" lon="12.4644867"><ele>647.0</ele><time>2026-04-25T09:13:44.937Z</time></trkpt><trkpt lat="43.6504333" lon="12.4644217"><ele>647.0</ele><time>2026-04-25T09:13:45.937Z</time></trkpt><trkpt lat="43.6504017" lon="12.4643433"><ele>645.5</ele><time>2026-04-25T09:13:46.936Z</time></trkpt><trkpt lat="43.6503917" lon="12.4642433"><ele>644.0</ele><time>2026-04-25T09:13:47.937Z</time></trkpt><trkpt lat="43.6503817" lon="12.4641467"><ele>642.5</ele><time>2026-04-25T09:13:48.937Z</time></trkpt><trkpt lat="43.6503467" lon="12.4640667"><ele>641.0</ele><time>2026-04-25T09:13:50.936Z</time></trkpt><trkpt lat="43.6502917" lon="12.4641467"><ele>639.5</ele><time>2026-04-25T09:13:54.937Z</time></trkpt><trkpt lat="43.6502583" lon="12.4642867"><ele>638.0</ele><time>2026-04-25T09:13:56.937Z</time></trkpt><trkpt lat="43.65024" lon="12.4643717"><ele>640.8333333333333</ele><time>2026-04-25T09:13:57.936Z</time></trkpt><trkpt lat="43.650225" lon="12.4644567"><ele>643.6666666666666</ele><time>2026-04-25T09:13:58.937Z</time></trkpt><trkpt lat="43.6502467" lon="12.46457"><ele>646.5</ele><time>2026-04-25T09:14:00.937Z</time></trkpt><trkpt lat="43.6502167" lon="12.4646633"><ele>649.3333333333334</ele><time>2026-04-25T09:14:05.937Z</time></trkpt><trkpt lat="43.6501533" lon="12.4646767"><ele>652.1666666666667</ele><time>2026-04-25T09:14:07.937Z</time></trkpt><trkpt lat="43.6500667" lon="12.4647517"><ele>655.0</ele><time>2026-04-25T09:14:10.937Z</time></trkpt><trkpt lat="43.649975" lon="12.4648783"><ele>655.0</ele><time>2026-04-25T09:14:12.936Z</time></trkpt><trkpt lat="43.6499217" lon="12.46495"><ele>655.0</ele><time>2026-04-25T09:14:13.937Z</time></trkpt><trkpt lat="43.6498683" lon="12.4650117"><ele>655.0</ele><time>2026-04-25T09:14:14.936Z</time></trkpt><trkpt lat="43.64982" lon="12.4650683"><ele>655.0</ele><time>2026-04-25T09:14:15.936Z</time></trkpt><trkpt lat="43.6497717" lon="12.465125"><ele>655.0</ele><time>2026-04-25T09:14:16.937Z</time></trkpt><trkpt lat="43.6496917" lon="12.465205"><ele>655.0</ele><time>2026-04-25T09:14:18.937Z</time></trkpt><trkpt lat="43.6496383" lon="12.4652583"><ele>655.0</ele><time>2026-04-25T09:14:20.937Z</time></trkpt><trkpt lat="43.6495717" lon="12.4653333"><ele>654.5</ele><time>2026-04-25T09:14:23.937Z</time></trkpt><trkpt lat="43.6495317" lon="12.4654533"><ele>654.0</ele><time>2026-04-25T09:14:26.937Z</time></trkpt><trkpt lat="43.6495083" lon="12.4655467"><ele>653.5</ele><time>2026-04-25T09:14:28.937Z</time></trkpt><trkpt lat="43.6494867" lon="12.465655"><ele>653.0</ele><time>2026-04-25T09:14:31.937Z</time></trkpt><trkpt lat="43.6494967" lon="12.4657433"><ele>652.5</ele><time>2026-04-25T09:14:33.937Z</time></trkpt><trkpt lat="43.6495017" lon="12.46585"><ele>652.0</ele><time>2026-04-25T09:14:35.936Z</time></trkpt><trkpt lat="43.6494533" lon="12.4659367"><ele>652.0</ele><time>2026-04-25T09:14:37.937Z</time></trkpt><trkpt lat="43.6493533" lon="12.466055"><ele>652.0</ele><time>2026-04-25T09:14:39.937Z</time></trkpt><trkpt lat="43.6493133" lon="12.4661317"><ele>652.0</ele><time>2026-04-25T09:14:40.937Z</time></trkpt><trkpt lat="43.6492667" lon="12.4662083"><ele>652.0</ele><time>2026-04-25T09:14:41.937Z</time></trkpt><trkpt lat="43.6492167" lon="12.4662683"><ele>652.0</ele><time>2026-04-25T09:14:42.936Z</time></trkpt><trkpt lat="43.6491333" lon="12.46634"><ele>652.0</ele><time>2026-04-25T09:14:44.937Z</time></trkpt><trkpt lat="43.6490133" lon="12.46636"><ele>645.4</ele><time>2026-04-25T09:14:46.937Z</time></trkpt><trkpt lat="43.6489" lon="12.4663967"><ele>638.8000000000001</ele><time>2026-04-25T09:14:48.937Z</time></trkpt><trkpt lat="43.648785" lon="12.4664683"><ele>632.2</ele><time>2026-04-25T09:14:50.936Z</time></trkpt><trkpt lat="43.648735" lon="12.466525"><ele>625.6</ele><time>2026-04-25T09:14:51.937Z</time></trkpt><trkpt lat="43.6487" lon="12.4666117"><ele>619.0</ele><time>2026-04-25T09:14:52.937Z</time></trkpt><trkpt lat="43.648655" lon="12.4667083"><ele>620.0</ele><time>2026-04-25T09:14:53.936Z</time></trkpt><trkpt lat="43.6486033" lon="12.4668"><ele>621.0</ele><time>2026-04-25T09:14:54.937Z</time></trkpt><trkpt lat="43.6485567" lon="12.4668833"><ele>622.0</ele><time>2026-04-25T09:14:55.937Z</time></trkpt><trkpt lat="43.648515" lon="12.4669583"><ele>623.0</ele><time>2026-04-25T09:14:56.937Z</time></trkpt><trkpt lat="43.6484833" lon="12.4670533"><ele>624.0</ele><time>2026-04-25T09:14:57.936Z</time></trkpt><trkpt lat="43.6484567" lon="12.4671633"><ele>625.0</ele><time>2026-04-25T09:14:58.937Z</time></trkpt><trkpt lat="43.6484433" lon="12.4672883"><ele>625.0</ele><time>2026-04-25T09:14:59.936Z</time></trkpt><trkpt lat="43.64844" lon="12.4674067"><ele>625.0</ele><time>2026-04-25T09:15:00.937Z</time></trkpt><trkpt lat="43.64843" lon="12.4675133"><ele>625.0</ele><time>2026-04-25T09:15:01.936Z</time></trkpt><trkpt lat="43.6484" lon="12.4676083"><ele>625.0</ele><time>2026-04-25T09:15:02.937Z</time></trkpt><trkpt lat="43.6483533" lon="12.46772"><ele>625.0</ele><time>2026-04-25T09:15:03.937Z</time></trkpt><trkpt lat="43.6482967" lon="12.467825"><ele>625.0</ele><time>2026-04-25T09:15:04.936Z</time></trkpt><trkpt lat="43.6482233" lon="12.4679083"><ele>624.1666666666667</ele><time>2026-04-25T09:15:05.937Z</time></trkpt><trkpt lat="43.6481467" lon="12.4679717"><ele>623.3333333333334</ele><time>2026-04-25T09:15:06.937Z</time></trkpt><trkpt lat="43.6480817" lon="12.4680317"><ele>622.5</ele><time>2026-04-25T09:15:07.936Z</time></trkpt><trkpt lat="43.6480217" lon="12.4680817"><ele>621.6666666666666</ele><time>2026-04-25T09:15:08.937Z</time></trkpt><trkpt lat="43.6479583" lon="12.4681317"><ele>620.8333333333333</ele><time>2026-04-25T09:15:09.937Z</time></trkpt><trkpt lat="43.6478883" lon="12.468195"><ele>620.0</ele><time>2026-04-25T09:15:10.937Z</time></trkpt><trkpt lat="43.64782" lon="12.4682433"><ele>622.1428571428571</ele><time>2026-04-25T09:15:11.937Z</time></trkpt><trkpt lat="43.6477517" lon="12.4682767"><ele>624.2857142857142</ele><time>2026-04-25T09:15:12.937Z</time></trkpt><trkpt lat="43.647675" lon="12.4683133"><ele>626.4285714285713</ele><time>2026-04-25T09:15:13.936Z</time></trkpt><trkpt lat="43.6476017" lon="12.46835"><ele>628.5714285714286</ele><time>2026-04-25T09:15:14.937Z</time></trkpt><trkpt lat="43.6475367" lon="12.4683933"><ele>630.7142857142857</ele><time>2026-04-25T09:15:15.936Z</time></trkpt><trkpt lat="43.6474767" lon="12.4684433"><ele>632.8571428571428</ele><time>2026-04-25T09:15:16.937Z</time></trkpt><trkpt lat="43.6474167" lon="12.4684883"><ele>635.0</ele><time>2026-04-25T09:15:17.937Z</time></trkpt><trkpt lat="43.647315" lon="12.4685667"><ele>635.0</ele><time>2026-04-25T09:15:19.937Z</time></trkpt><trkpt lat="43.6472383" lon="12.4686317"><ele>635.0</ele><time>2026-04-25T09:15:21.937Z</time></trkpt><trkpt lat="43.6471783" lon="12.4686683"><ele>635.0</ele><time>2026-04-25T09:15:23.937Z</time></trkpt><trkpt lat="43.647105" lon="12.468685"><ele>635.0</ele><time>2026-04-25T09:15:26.937Z</time></trkpt><trkpt lat="43.64703" lon="12.4686983"><ele>635.0</ele><time>2026-04-25T09:15:29.937Z</time></trkpt><trkpt lat="43.6469683" lon="12.4686683"><ele>635.0</ele><time>2026-04-25T09:15:31.936Z</time></trkpt><trkpt lat="43.6468783" lon="12.4685983"><ele>633.9999999999999</ele><time>2026-04-25T09:15:33.937Z</time></trkpt><trkpt lat="43.6468233" lon="12.4685467"><ele>633.0</ele><time>2026-04-25T09:15:34.937Z</time></trkpt><trkpt lat="43.64677" lon="12.4685"><ele>632.0</ele><time>2026-04-25T09:15:35.937Z</time></trkpt><trkpt lat="43.6467067" lon="12.4684783"><ele>631.0</ele><time>2026-04-25T09:15:37.937Z</time></trkpt><trkpt lat="43.6466617" lon="12.4685433"><ele>630.0</ele><time>2026-04-25T09:16:07.937Z</time></trkpt><trkpt lat="43.646585" lon="12.4685883"><ele>628.9999999999999</ele><time>2026-04-25T09:16:11.937Z</time></trkpt><trkpt lat="43.6465217" lon="12.468635"><ele>628.0</ele><time>2026-04-25T09:16:14.937Z</time></trkpt><trkpt lat="43.64644" lon="12.4687"><ele>628.0</ele><time>2026-04-25T09:16:17.937Z</time></trkpt><trkpt lat="43.64638" lon="12.4687417"><ele>628.0</ele><time>2026-04-25T09:16:19.937Z</time></trkpt><trkpt lat="43.6463083" lon="12.468765"><ele>628.0</ele><time>2026-04-25T09:16:21.936Z</time></trkpt><trkpt lat="43.6462417" lon="12.4687883"><ele>628.0</ele><time>2026-04-25T09:16:23.936Z</time></trkpt><trkpt lat="43.64616" lon="12.46882"><ele>628.0</ele><time>2026-04-25T09:16:25.937Z</time></trkpt><trkpt lat="43.6460417" lon="12.4688667"><ele>628.0</ele><time>2026-04-25T09:16:27.937Z</time></trkpt><trkpt lat="43.6459783" lon="12.46889"><ele>624.1666666666667</ele><time>2026-04-25T09:16:28.937Z</time></trkpt><trkpt lat="43.64591" lon="12.468905"><ele>620.3333333333334</ele><time>2026-04-25T09:16:29.937Z</time></trkpt><trkpt lat="43.645845" lon="12.4689117"><ele>616.5</ele><time>2026-04-25T09:16:30.937Z</time></trkpt><trkpt lat="43.6457083" lon="12.4689317"><ele>612.6666666666666</ele><time>2026-04-25T09:16:32.937Z</time></trkpt><trkpt lat="43.6456317" lon="12.4689367"><ele>608.8333333333333</ele><time>2026-04-25T09:16:33.937Z</time></trkpt><trkpt lat="43.6455617" lon="12.4689317"><ele>605.0</ele><time>2026-04-25T09:16:34.937Z</time></trkpt><trkpt lat="43.6454425" lon="12.4689043"><ele>605.0</ele><time>2026-04-25T09:16:36.937Z</time></trkpt><trkpt lat="43.6453796" lon="12.4688953"><ele>605.0</ele><time>2026-04-25T09:16:37.937Z</time></trkpt><trkpt lat="43.6453068" lon="12.4688807"><ele>605.0</ele><time>2026-04-25T09:16:38.936Z</time></trkpt><trkpt lat="43.6452321" lon="12.4688691"><ele>605.0</ele><time>2026-04-25T09:16:39.936Z</time></trkpt><trkpt lat="43.645167" lon="12.468869"><ele>605.0</ele><time>2026-04-25T09:16:40.937Z</time></trkpt><trkpt lat="43.6450443" lon="12.4688571"><ele>605.0</ele><time>2026-04-25T09:16:42.937Z</time></trkpt><trkpt lat="43.6449711" lon="12.4688599"><ele>604.4285714285714</ele><time>2026-04-25T09:16:43.937Z</time></trkpt><trkpt lat="43.6448998" lon="12.4688582"><ele>603.8571428571429</ele><time>2026-04-25T09:16:44.937Z</time></trkpt><trkpt lat="43.6448356" lon="12.4688509"><ele>603.2857142857142</ele><time>2026-04-25T09:16:45.936Z</time></trkpt><trkpt lat="43.6447741" lon="12.4688301"><ele>602.7142857142858</ele><time>2026-04-25T09:16:46.937Z</time></trkpt><trkpt lat="43.6447101" lon="12.4687872"><ele>602.1428571428572</ele><time>2026-04-25T09:16:47.937Z</time></trkpt><trkpt lat="43.6446408" lon="12.4687309"><ele>601.5714285714286</ele><time>2026-04-25T09:16:48.937Z</time></trkpt><trkpt lat="43.644575" lon="12.4686708"><ele>601.0</ele><time>2026-04-25T09:16:49.937Z</time></trkpt><trkpt lat="43.6445097" lon="12.4686037"><ele>596.4</ele><time>2026-04-25T09:16:50.937Z</time></trkpt><trkpt lat="43.6444405" lon="12.4685256"><ele>591.8</ele><time>2026-04-25T09:16:51.937Z</time></trkpt><trkpt lat="43.6443601" lon="12.468429"><ele>587.1999999999999</ele><time>2026-04-25T09:16:52.936Z</time></trkpt><trkpt lat="43.6442657" lon="12.4683251"><ele>582.6</ele><time>2026-04-25T09:16:53.937Z</time></trkpt><trkpt lat="43.6441686" lon="12.4682268"><ele>578.0</ele><time>2026-04-25T09:16:54.938Z</time></trkpt><trkpt lat="43.6440785" lon="12.468139"><ele>578.0</ele><time>2026-04-25T09:16:55.938Z</time></trkpt><trkpt lat="43.6439896" lon="12.4680611"><ele>578.0</ele><time>2026-04-25T09:16:56.938Z</time></trkpt><trkpt lat="43.6438973" lon="12.4680036"><ele>578.0</ele><time>2026-04-25T09:16:57.938Z</time></trkpt><trkpt lat="43.6438077" lon="12.4679691"><ele>578.0</ele><time>2026-04-25T09:16:58.938Z</time></trkpt><trkpt lat="43.6437229" lon="12.4679471"><ele>578.0</ele><time>2026-04-25T09:16:59.937Z</time></trkpt><trkpt lat="43.6436499" lon="12.4679186"><ele>577.1666666666666</ele><time>2026-04-25T09:17:00.938Z</time></trkpt><trkpt lat="43.6435826" lon="12.4678703"><ele>576.3333333333333</ele><time>2026-04-25T09:17:01.937Z</time></trkpt><trkpt lat="43.6435309" lon="12.4677851"><ele>575.5</ele><time>2026-04-25T09:17:02.938Z</time></trkpt><trkpt lat="43.6434982" lon="12.4676741"><ele>574.6666666666666</ele><time>2026-04-25T09:17:03.937Z</time></trkpt><trkpt lat="43.6434741" lon="12.4675452"><ele>573.8333333333334</ele><time>2026-04-25T09:17:04.937Z</time></trkpt><trkpt lat="43.6434523" lon="12.4674125"><ele>573.0</ele><time>2026-04-25T09:17:05.938Z</time></trkpt><trkpt lat="43.6434179" lon="12.4672965"><ele>573.0</ele><time>2026-04-25T09:17:06.937Z</time></trkpt><trkpt lat="43.6433636" lon="12.4671888"><ele>573.0</ele><time>2026-04-25T09:17:07.937Z</time></trkpt><trkpt lat="43.6432867" lon="12.467085"><ele>573.0</ele><time>2026-04-25T09:17:08.938Z</time></trkpt><trkpt lat="43.6432183" lon="12.4669983"><ele>573.0</ele><time>2026-04-25T09:17:09.938Z</time></trkpt><trkpt lat="43.643145" lon="12.466925"><ele>573.0</ele><time>2026-04-25T09:17:10.938Z</time></trkpt><trkpt lat="43.6430583" lon="12.4668583"><ele>569.0</ele><time>2026-04-25T09:17:11.938Z</time></trkpt><trkpt lat="43.6429717" lon="12.46679"><ele>565.0</ele><time>2026-04-25T09:17:12.938Z</time></trkpt><trkpt lat="43.64289" lon="12.4667133"><ele>561.0</ele><time>2026-04-25T09:17:13.938Z</time></trkpt><trkpt lat="43.6427967" lon="12.4666167"><ele>557.0</ele><time>2026-04-25T09:17:14.938Z</time></trkpt><trkpt lat="43.64269" lon="12.466495"><ele>557.0</ele><time>2026-04-25T09:17:15.937Z</time></trkpt><trkpt lat="43.6425833" lon="12.4663717"><ele>557.0</ele><time>2026-04-25T09:17:16.938Z</time></trkpt><trkpt lat="43.64249" lon="12.466255"><ele>557.0</ele><time>2026-04-25T09:17:17.938Z</time></trkpt><trkpt lat="43.6424317" lon="12.4661533"><ele>557.0</ele><time>2026-04-25T09:17:18.938Z</time></trkpt><trkpt lat="43.6423967" lon="12.46606"><ele>557.0</ele><time>2026-04-25T09:17:19.938Z</time></trkpt><trkpt lat="43.6423733" lon="12.4659717"><ele>559.0</ele><time>2026-04-25T09:17:20.938Z</time></trkpt><trkpt lat="43.642355" lon="12.465885"><ele>561.0</ele><time>2026-04-25T09:17:21.938Z</time></trkpt><trkpt lat="43.6422967" lon="12.4657783"><ele>563.0</ele><time>2026-04-25T09:17:23.938Z</time></trkpt><trkpt lat="43.6422317" lon="12.4657383"><ele>565.0</ele><time>2026-04-25T09:17:24.938Z</time></trkpt><trkpt lat="43.6421333" lon="12.46572"><ele>567.0</ele><time>2026-04-25T09:17:25.937Z</time></trkpt><trkpt lat="43.6420067" lon="12.4657"><ele>562.5</ele><time>2026-04-25T09:17:26.938Z</time></trkpt><trkpt lat="43.6418617" lon="12.4656833"><ele>558.0</ele><time>2026-04-25T09:17:27.938Z</time></trkpt><trkpt lat="43.6417233" lon="12.4656567"><ele>553.5</ele><time>2026-04-25T09:17:28.937Z</time></trkpt><trkpt lat="43.64159" lon="12.4656233"><ele>549.0</ele><time>2026-04-25T09:17:29.937Z</time></trkpt><trkpt lat="43.64148" lon="12.4655883"><ele>549.0</ele><time>2026-04-25T09:17:30.938Z</time></trkpt><trkpt lat="43.6413983" lon="12.4655667"><ele>549.0</ele><time>2026-04-25T09:17:31.937Z</time></trkpt><trkpt lat="43.6413183" lon="12.4655767"><ele>549.0</ele><time>2026-04-25T09:17:33.938Z</time></trkpt><trkpt lat="43.6413733" lon="12.4657017"><ele>549.0</ele><time>2026-04-25T09:18:13.937Z</time></trkpt><trkpt lat="43.6414483" lon="12.4658517"><ele>549.0</ele><time>2026-04-25T09:18:15.937Z</time></trkpt><trkpt lat="43.641495" lon="12.4659433"><ele>549.0</ele><time>2026-04-25T09:18:16.937Z</time></trkpt><trkpt lat="43.641555" lon="12.4660267"><ele>549.0</ele><time>2026-04-25T09:18:17.936Z</time></trkpt><trkpt lat="43.64162" lon="12.4661117"><ele>549.0</ele><time>2026-04-25T09:18:18.937Z</time></trkpt><trkpt lat="43.6416817" lon="12.466205"><ele>549.0</ele><time>2026-04-25T09:18:19.937Z</time></trkpt><trkpt lat="43.6417317" lon="12.4663117"><ele>549.0</ele><time>2026-04-25T09:18:20.937Z</time></trkpt><trkpt lat="43.6417667" lon="12.4664283"><ele>549.0</ele><time>2026-04-25T09:18:21.937Z</time></trkpt><trkpt lat="43.6418117" lon="12.4665333"><ele>550.6</ele><time>2026-04-25T09:18:22.937Z</time></trkpt><trkpt lat="43.6418767" lon="12.466615"><ele>552.2</ele><time>2026-04-25T09:18:23.937Z</time></trkpt><trkpt lat="43.6419567" lon="12.4666683"><ele>553.8000000000001</ele><time>2026-04-25T09:18:24.937Z</time></trkpt><trkpt lat="43.6420333" lon="12.466745"><ele>555.4</ele><time>2026-04-25T09:18:25.937Z</time></trkpt><trkpt lat="43.64211" lon="12.4668433"><ele>557.0</ele><time>2026-04-25T09:18:26.937Z</time></trkpt><trkpt lat="43.6421767" lon="12.4669667"><ele>557.0</ele><time>2026-04-25T09:18:27.937Z</time></trkpt><trkpt lat="43.6422333" lon="12.4671033"><ele>557.0</ele><time>2026-04-25T09:18:28.937Z</time></trkpt><trkpt lat="43.6422783" lon="12.4672483"><ele>557.0</ele><time>2026-04-25T09:18:29.937Z</time></trkpt><trkpt lat="43.6423017" lon="12.4674"><ele>557.0</ele><time>2026-04-25T09:18:30.937Z</time></trkpt><trkpt lat="43.6423" lon="12.46755"><ele>557.0</ele><time>2026-04-25T09:18:31.936Z</time></trkpt><trkpt lat="43.6422717" lon="12.4676967"><ele>553.75</ele><time>2026-04-25T09:18:32.936Z</time></trkpt><trkpt lat="43.642225" lon="12.4678317"><ele>550.5</ele><time>2026-04-25T09:18:33.937Z</time></trkpt><trkpt lat="43.642155" lon="12.4679417"><ele>547.25</ele><time>2026-04-25T09:18:34.937Z</time></trkpt><trkpt lat="43.6420533" lon="12.4680217"><ele>544.0</ele><time>2026-04-25T09:18:35.937Z</time></trkpt><trkpt lat="43.6419283" lon="12.4680917"><ele>538.3333333333334</ele><time>2026-04-25T09:18:36.937Z</time></trkpt><trkpt lat="43.6417883" lon="12.4681533"><ele>532.6666666666666</ele><time>2026-04-25T09:18:37.937Z</time></trkpt><trkpt lat="43.64163" lon="12.4682183"><ele>527.0</ele><time>2026-04-25T09:18:38.936Z</time></trkpt><trkpt lat="43.6414633" lon="12.4682833"><ele>527.0</ele><time>2026-04-25T09:18:39.937Z</time></trkpt><trkpt lat="43.641295" lon="12.4683483"><ele>527.0</ele><time>2026-04-25T09:18:40.937Z</time></trkpt><trkpt lat="43.6411267" lon="12.46842"><ele>527.0</ele><time>2026-04-25T09:18:41.937Z</time></trkpt><trkpt lat="43.6409617" lon="12.468495"><ele>523.3333333333333</ele><time>2026-04-25T09:18:42.936Z</time></trkpt><trkpt lat="43.6408017" lon="12.4685717"><ele>519.6666666666666</ele><time>2026-04-25T09:18:43.937Z</time></trkpt><trkpt lat="43.6406483" lon="12.4686433"><ele>516.0</ele><time>2026-04-25T09:18:44.936Z</time></trkpt><trkpt lat="43.6404933" lon="12.4687167"><ele>515.0</ele><time>2026-04-25T09:18:45.937Z</time></trkpt><trkpt lat="43.640345" lon="12.4687867"><ele>514.0</ele><time>2026-04-25T09:18:46.937Z</time></trkpt><trkpt lat="43.6402083" lon="12.46886"><ele>513.0</ele><time>2026-04-25T09:18:47.937Z</time></trkpt><trkpt lat="43.6400767" lon="12.46893"><ele>512.0</ele><time>2026-04-25T09:18:48.937Z</time></trkpt><trkpt lat="43.639945" lon="12.4689833"><ele>510.0</ele><time>2026-04-25T09:18:49.936Z</time></trkpt><trkpt lat="43.639805" lon="12.46901"><ele>508.0</ele><time>2026-04-25T09:18:50.936Z</time></trkpt><trkpt lat="43.6396567" lon="12.4690033"><ele>506.0</ele><time>2026-04-25T09:18:51.937Z</time></trkpt><trkpt lat="43.63951" lon="12.46897"><ele>504.0</ele><time>2026-04-25T09:18:52.937Z</time></trkpt><trkpt lat="43.6393733" lon="12.468935"><ele>503.1666666666667</ele><time>2026-04-25T09:18:53.937Z</time></trkpt><trkpt lat="43.6392533" lon="12.4689067"><ele>502.33333333333337</ele><time>2026-04-25T09:18:54.936Z</time></trkpt><trkpt lat="43.6391583" lon="12.468895"><ele>501.5</ele><time>2026-04-25T09:18:55.937Z</time></trkpt><trkpt lat="43.639085" lon="12.46891"><ele>500.6666666666667</ele><time>2026-04-25T09:18:56.937Z</time></trkpt><trkpt lat="43.6390333" lon="12.4689667"><ele>499.83333333333337</ele><time>2026-04-25T09:18:57.937Z</time></trkpt><trkpt lat="43.6390017" lon="12.4690683"><ele>499.0</ele><time>2026-04-25T09:18:58.937Z</time></trkpt><trkpt lat="43.63899" lon="12.4691917"><ele>499.0</ele><time>2026-04-25T09:18:59.937Z</time></trkpt><trkpt lat="43.6389833" lon="12.4693183"><ele>499.0</ele><time>2026-04-25T09:19:00.937Z</time></trkpt><trkpt lat="43.638985" lon="12.4694467"><ele>499.0</ele><time>2026-04-25T09:19:01.937Z</time></trkpt><trkpt lat="43.638985" lon="12.4695783"><ele>499.0</ele><time>2026-04-25T09:19:02.937Z</time></trkpt><trkpt lat="43.6389867" lon="12.46971"><ele>499.0</ele><time>2026-04-25T09:19:03.937Z</time></trkpt><trkpt lat="43.6389867" lon="12.4698467"><ele>496.79999999999995</ele><time>2026-04-25T09:19:04.937Z</time></trkpt><trkpt lat="43.6389867" lon="12.4699883"><ele>494.59999999999997</ele><time>2026-04-25T09:19:05.937Z</time></trkpt><trkpt lat="43.6389833" lon="12.47013"><ele>492.4</ele><time>2026-04-25T09:19:06.937Z</time></trkpt><trkpt lat="43.6389783" lon="12.4702767"><ele>490.2</ele><time>2026-04-25T09:19:07.937Z</time></trkpt><trkpt lat="43.638975" lon="12.4704267"><ele>488.0</ele><time>2026-04-25T09:19:08.937Z</time></trkpt><trkpt lat="43.638975" lon="12.470585"><ele>485.25</ele><time>2026-04-25T09:19:09.937Z</time></trkpt><trkpt lat="43.638975" lon="12.47076"><ele>482.5</ele><time>2026-04-25T09:19:10.937Z</time></trkpt><trkpt lat="43.63898" lon="12.470945"><ele>479.75</ele><time>2026-04-25T09:19:11.937Z</time></trkpt><trkpt lat="43.63899" lon="12.47113"><ele>477.0</ele><time>2026-04-25T09:19:12.937Z</time></trkpt><trkpt lat="43.639" lon="12.4713133"><ele>475.5</ele><time>2026-04-25T09:19:13.937Z</time></trkpt><trkpt lat="43.6390067" lon="12.4714867"><ele>474.0</ele><time>2026-04-25T09:19:14.937Z</time></trkpt><trkpt lat="43.6390217" lon="12.4716567"><ele>472.5</ele><time>2026-04-25T09:19:15.937Z</time></trkpt><trkpt lat="43.639045" lon="12.4718067"><ele>471.0</ele><time>2026-04-25T09:19:16.937Z</time></trkpt><trkpt lat="43.6390833" lon="12.4719333"><ele>471.0</ele><time>2026-04-25T09:19:17.936Z</time></trkpt><trkpt lat="43.6391467" lon="12.4720317"><ele>471.0</ele><time>2026-04-25T09:19:18.937Z</time></trkpt><trkpt lat="43.63923" lon="12.4721"><ele>471.0</ele><time>2026-04-25T09:19:19.937Z</time></trkpt><trkpt lat="43.639335" lon="12.4721333"><ele>471.0</ele><time>2026-04-25T09:19:20.937Z</time></trkpt><trkpt lat="43.6394567" lon="12.47214"><ele>471.0</ele><time>2026-04-25T09:19:21.936Z</time></trkpt><trkpt lat="43.6395833" lon="12.4721233"><ele>469.1666666666667</ele><time>2026-04-25T09:19:22.936Z</time></trkpt><trkpt lat="43.6397033" lon="12.4721083"><ele>467.33333333333337</ele><time>2026-04-25T09:19:23.937Z</time></trkpt><trkpt lat="43.6398017" lon="12.47211"><ele>465.5</ele><time>2026-04-25T09:19:24.937Z</time></trkpt><trkpt lat="43.6398783" lon="12.4721383"><ele>463.6666666666667</ele><time>2026-04-25T09:19:25.937Z</time></trkpt><trkpt lat="43.639935" lon="12.472205"><ele>461.83333333333337</ele><time>2026-04-25T09:19:26.937Z</time></trkpt><trkpt lat="43.639965" lon="12.4723017"><ele>460.0</ele><time>2026-04-25T09:19:27.937Z</time></trkpt><trkpt lat="43.639995" lon="12.47243"><ele>460.0</ele><time>2026-04-25T09:19:28.937Z</time></trkpt><trkpt lat="43.6400433" lon="12.4725833"><ele>460.0</ele><time>2026-04-25T09:19:29.937Z</time></trkpt><trkpt lat="43.64011" lon="12.4727467"><ele>460.0</ele><time>2026-04-25T09:19:30.937Z</time></trkpt><trkpt lat="43.64019" lon="12.4729233"><ele>460.0</ele><time>2026-04-25T09:19:31.937Z</time></trkpt><trkpt lat="43.6402733" lon="12.4731017"><ele>458.6</ele><time>2026-04-25T09:19:32.937Z</time></trkpt><trkpt lat="43.640355" lon="12.4732533"><ele>457.2</ele><time>2026-04-25T09:19:33.937Z</time></trkpt><trkpt lat="43.64043" lon="12.473375"><ele>455.79999999999995</ele><time>2026-04-25T09:19:34.937Z</time></trkpt><trkpt lat="43.6404883" lon="12.4734817"><ele>454.4</ele><time>2026-04-25T09:19:35.936Z</time></trkpt><trkpt lat="43.6405383" lon="12.4735683"><ele>453.0</ele><time>2026-04-25T09:19:36.937Z</time></trkpt><trkpt lat="43.640575" lon="12.473645"><ele>453.0</ele><time>2026-04-25T09:19:37.936Z</time></trkpt><trkpt lat="43.6406" lon="12.47373"><ele>453.0</ele><time>2026-04-25T09:19:39.937Z</time></trkpt><trkpt lat="43.64054" lon="12.4737733"><ele>453.0</ele><time>2026-04-25T09:19:43.936Z</time></trkpt><trkpt lat="43.640465" lon="12.4736917"><ele>453.0</ele><time>2026-04-25T09:19:45.937Z</time></trkpt><trkpt lat="43.6404067" lon="12.4736133"><ele>453.0</ele><time>2026-04-25T09:19:46.937Z</time></trkpt><trkpt lat="43.6403217" lon="12.4735"><ele>453.0</ele><time>2026-04-25T09:19:47.936Z</time></trkpt><trkpt lat="43.6402283" lon="12.4733783"><ele>457.75</ele><time>2026-04-25T09:19:48.937Z</time></trkpt><trkpt lat="43.6401267" lon="12.473255"><ele>462.5</ele><time>2026-04-25T09:19:49.937Z</time></trkpt><trkpt lat="43.64002" lon="12.4731367"><ele>467.25</ele><time>2026-04-25T09:19:50.936Z</time></trkpt><trkpt lat="43.6399067" lon="12.47303"><ele>472.0</ele><time>2026-04-25T09:19:51.937Z</time></trkpt><trkpt lat="43.6397833" lon="12.472955"><ele>471.5</ele><time>2026-04-25T09:19:52.936Z</time></trkpt><trkpt lat="43.6396433" lon="12.472925"><ele>471.0</ele><time>2026-04-25T09:19:53.936Z</time></trkpt><trkpt lat="43.6394967" lon="12.47291"><ele>470.5</ele><time>2026-04-25T09:19:54.937Z</time></trkpt><trkpt lat="43.63935" lon="12.4728917"><ele>470.0</ele><time>2026-04-25T09:19:55.937Z</time></trkpt><trkpt lat="43.6391983" lon="12.4728767"><ele>470.0</ele><time>2026-04-25T09:19:56.937Z</time></trkpt><trkpt lat="43.6390383" lon="12.4728567"><ele>470.0</ele><time>2026-04-25T09:19:57.937Z</time></trkpt><trkpt lat="43.6388867" lon="12.47282"><ele>470.0</ele><time>2026-04-25T09:19:58.937Z</time></trkpt><trkpt lat="43.6387467" lon="12.4727783"><ele>476.0</ele><time>2026-04-25T09:19:59.937Z</time></trkpt><trkpt lat="43.6386233" lon="12.4726783"><ele>482.0</ele><time>2026-04-25T09:20:00.936Z</time></trkpt><trkpt lat="43.63851" lon="12.4725333"><ele>488.0</ele><time>2026-04-25T09:20:01.937Z</time></trkpt><trkpt lat="43.6384017" lon="12.4723633"><ele>488.0</ele><time>2026-04-25T09:20:02.937Z</time></trkpt><trkpt lat="43.63829" lon="12.4721917"><ele>488.0</ele><time>2026-04-25T09:20:03.936Z</time></trkpt><trkpt lat="43.63816" lon="12.4720417"><ele>488.0</ele><time>2026-04-25T09:20:04.937Z</time></trkpt><trkpt lat="43.638015" lon="12.4719183"><ele>490.3333333333333</ele><time>2026-04-25T09:20:05.937Z</time></trkpt><trkpt lat="43.6378583" lon="12.471815"><ele>492.66666666666663</ele><time>2026-04-25T09:20:06.937Z</time></trkpt><trkpt lat="43.637695" lon="12.4717333"><ele>495.0</ele><time>2026-04-25T09:20:07.936Z</time></trkpt><trkpt lat="43.6375217" lon="12.4716583"><ele>495.0</ele><time>2026-04-25T09:20:08.937Z</time></trkpt><trkpt lat="43.637355" lon="12.471575"><ele>495.0</ele><time>2026-04-25T09:20:09.937Z</time></trkpt><trkpt lat="43.6372" lon="12.4714883"><ele>495.0</ele><time>2026-04-25T09:20:10.937Z</time></trkpt><trkpt lat="43.6370633" lon="12.4713767"><ele>500.33333333333337</ele><time>2026-04-25T09:20:11.937Z</time></trkpt><trkpt lat="43.6369517" lon="12.4712283"><ele>505.6666666666667</ele><time>2026-04-25T09:20:12.936Z</time></trkpt><trkpt lat="43.63687" lon="12.471045"><ele>511.0</ele><time>2026-04-25T09:20:13.937Z</time></trkpt><trkpt lat="43.6368033" lon="12.4708517"><ele>511.0</ele><time>2026-04-25T09:20:14.936Z</time></trkpt><trkpt lat="43.6367867" lon="12.4706317"><ele>511.0</ele><time>2026-04-25T09:20:15.936Z</time></trkpt><trkpt lat="43.63677" lon="12.47042"><ele>511.0</ele><time>2026-04-25T09:20:16.937Z</time></trkpt><trkpt lat="43.636735" lon="12.47024"><ele>511.0</ele><time>2026-04-25T09:20:17.936Z</time></trkpt><trkpt lat="43.636675" lon="12.4700983"><ele>508.25</ele><time>2026-04-25T09:20:18.937Z</time></trkpt><trkpt lat="43.6365767" lon="12.4700217"><ele>505.5</ele><time>2026-04-25T09:20:19.937Z</time></trkpt><trkpt lat="43.636465" lon="12.470005"><ele>502.75</ele><time>2026-04-25T09:20:20.937Z</time></trkpt><trkpt lat="43.6363467" lon="12.47006"><ele>500.0</ele><time>2026-04-25T09:20:21.937Z</time></trkpt><trkpt lat="43.63623" lon="12.470165"><ele>502.75</ele><time>2026-04-25T09:20:22.937Z</time></trkpt><trkpt lat="43.636115" lon="12.4702933"><ele>505.5</ele><time>2026-04-25T09:20:23.937Z</time></trkpt><trkpt lat="43.636005" lon="12.4704083"><ele>508.25</ele><time>2026-04-25T09:20:24.937Z</time></trkpt><trkpt lat="43.6358983" lon="12.4705"><ele>511.0</ele><time>2026-04-25T09:20:25.937Z</time></trkpt><trkpt lat="43.6357833" lon="12.4705317"><ele>511.0</ele><time>2026-04-25T09:20:26.937Z</time></trkpt><trkpt lat="43.635655" lon="12.4705067"><ele>511.0</ele><time>2026-04-25T09:20:27.937Z</time></trkpt><trkpt lat="43.6355217" lon="12.470435"><ele>511.0</ele><time>2026-04-25T09:20:28.937Z</time></trkpt><trkpt lat="43.6353817" lon="12.4703583"><ele>511.0</ele><time>2026-04-25T09:20:29.937Z</time></trkpt><trkpt lat="43.635245" lon="12.4703067"><ele>511.75</ele><time>2026-04-25T09:20:30.936Z</time></trkpt><trkpt lat="43.6351117" lon="12.4702867"><ele>512.5</ele><time>2026-04-25T09:20:31.937Z</time></trkpt><trkpt lat="43.634985" lon="12.4703233"><ele>513.25</ele><time>2026-04-25T09:20:32.937Z</time></trkpt><trkpt lat="43.6348783" lon="12.470425"><ele>514.0</ele><time>2026-04-25T09:20:33.937Z</time></trkpt><trkpt lat="43.63478" lon="12.4705667"><ele>515.5</ele><time>2026-04-25T09:20:34.937Z</time></trkpt><trkpt lat="43.6346783" lon="12.4707167"><ele>517.0</ele><time>2026-04-25T09:20:35.937Z</time></trkpt><trkpt lat="43.63457" lon="12.47086"><ele>518.5</ele><time>2026-04-25T09:20:36.937Z</time></trkpt><trkpt lat="43.6344567" lon="12.470995"><ele>520.0</ele><time>2026-04-25T09:20:37.937Z</time></trkpt><trkpt lat="43.63434" lon="12.4711233"><ele>520.0</ele><time>2026-04-25T09:20:38.936Z</time></trkpt><trkpt lat="43.63421" lon="12.4712367"><ele>520.0</ele><time>2026-04-25T09:20:39.936Z</time></trkpt><trkpt lat="43.634065" lon="12.4713217"><ele>520.0</ele><time>2026-04-25T09:20:40.937Z</time></trkpt><trkpt lat="43.6339117" lon="12.4713767"><ele>524.6666666666667</ele><time>2026-04-25T09:20:41.936Z</time></trkpt><trkpt lat="43.633755" lon="12.4714083"><ele>529.3333333333334</ele><time>2026-04-25T09:20:42.936Z</time></trkpt><trkpt lat="43.6336" lon="12.4714267"><ele>534.0</ele><time>2026-04-25T09:20:43.937Z</time></trkpt><trkpt lat="43.6334533" lon="12.4714817"><ele>534.0</ele><time>2026-04-25T09:20:44.937Z</time></trkpt><trkpt lat="43.6333233" lon="12.47159"><ele>534.0</ele><time>2026-04-25T09:20:45.936Z</time></trkpt><trkpt lat="43.6332117" lon="12.4717283"><ele>534.0</ele><time>2026-04-25T09:20:46.937Z</time></trkpt><trkpt lat="43.6331167" lon="12.4718783"><ele>534.0</ele><time>2026-04-25T09:20:47.937Z</time></trkpt><trkpt lat="43.6330283" lon="12.4720133"><ele>533.5</ele><time>2026-04-25T09:20:48.937Z</time></trkpt><trkpt lat="43.63293" lon="12.472115"><ele>533.0</ele><time>2026-04-25T09:20:49.937Z</time></trkpt><trkpt lat="43.6328233" lon="12.4721717"><ele>532.5</ele><time>2026-04-25T09:20:50.937Z</time></trkpt><trkpt lat="43.6327117" lon="12.47215"><ele>532.0</ele><time>2026-04-25T09:20:51.936Z</time></trkpt><trkpt lat="43.6326083" lon="12.47206"><ele>532.0</ele><time>2026-04-25T09:20:52.937Z</time></trkpt><trkpt lat="43.6325167" lon="12.4719533"><ele>532.0</ele><time>2026-04-25T09:20:53.936Z</time></trkpt><trkpt lat="43.6324317" lon="12.4718617"><ele>532.0</ele><time>2026-04-25T09:20:54.937Z</time></trkpt><trkpt lat="43.6323433" lon="12.4718033"><ele>532.0</ele><time>2026-04-25T09:20:55.937Z</time></trkpt><trkpt lat="43.632255" lon="12.4717717"><ele>532.0</ele><time>2026-04-25T09:20:56.936Z</time></trkpt><trkpt lat="43.6321633" lon="12.4717917"><ele>532.0</ele><time>2026-04-25T09:20:57.937Z</time></trkpt><trkpt lat="43.6320733" lon="12.47186"><ele>532.0</ele><time>2026-04-25T09:20:58.937Z</time></trkpt><trkpt lat="43.6319967" lon="12.47197"><ele>532.0</ele><time>2026-04-25T09:20:59.937Z</time></trkpt><trkpt lat="43.6319333" lon="12.4721217"><ele>532.0</ele><time>2026-04-25T09:21:00.937Z</time></trkpt><trkpt lat="43.6318683" lon="12.4722867"><ele>532.6666666666667</ele><time>2026-04-25T09:21:01.937Z</time></trkpt><trkpt lat="43.6317917" lon="12.4724617"><ele>533.3333333333334</ele><time>2026-04-25T09:21:02.937Z</time></trkpt><trkpt lat="43.6317067" lon="12.472635"><ele>534.0</ele><time>2026-04-25T09:21:03.936Z</time></trkpt><trkpt lat="43.6316133" lon="12.4728033"><ele>535.75</ele><time>2026-04-25T09:21:04.937Z</time></trkpt><trkpt lat="43.6315217" lon="12.47296"><ele>537.5</ele><time>2026-04-25T09:21:05.937Z</time></trkpt><trkpt lat="43.6314167" lon="12.4730983"><ele>539.25</ele><time>2026-04-25T09:21:06.937Z</time></trkpt><trkpt lat="43.6313" lon="12.473225"><ele>541.0</ele><time>2026-04-25T09:21:07.937Z</time></trkpt><trkpt lat="43.6311767" lon="12.4733517"><ele>540.0</ele><time>2026-04-25T09:21:08.937Z</time></trkpt><trkpt lat="43.631055" lon="12.4734817"><ele>539.0</ele><time>2026-04-25T09:21:09.937Z</time></trkpt><trkpt lat="43.6309383" lon="12.47361"><ele>538.0</ele><time>2026-04-25T09:21:10.936Z</time></trkpt><trkpt lat="43.6308217" lon="12.47373"><ele>537.0</ele><time>2026-04-25T09:21:11.937Z</time></trkpt><trkpt lat="43.6307083" lon="12.47385"><ele>537.0</ele><time>2026-04-25T09:21:12.937Z</time></trkpt><trkpt lat="43.6305933" lon="12.4739717"><ele>537.0</ele><time>2026-04-25T09:21:13.937Z</time></trkpt><trkpt lat="43.6304817" lon="12.474105"><ele>537.0</ele><time>2026-04-25T09:21:14.937Z</time></trkpt><trkpt lat="43.6303767" lon="12.4742367"><ele>537.0</ele><time>2026-04-25T09:21:15.937Z</time></trkpt><trkpt lat="43.6302817" lon="12.4743833"><ele>535.5</ele><time>2026-04-25T09:21:16.937Z</time></trkpt><trkpt lat="43.6301933" lon="12.474525"><ele>534.0</ele><time>2026-04-25T09:21:17.937Z</time></trkpt><trkpt lat="43.6301117" lon="12.4746583"><ele>532.5</ele><time>2026-04-25T09:21:18.936Z</time></trkpt><trkpt lat="43.6300333" lon="12.474765"><ele>531.0</ele><time>2026-04-25T09:21:19.937Z</time></trkpt><trkpt lat="43.62996" lon="12.47484"><ele>531.0</ele><time>2026-04-25T09:21:20.936Z</time></trkpt><trkpt lat="43.6298733" lon="12.4748683"><ele>531.0</ele><time>2026-04-25T09:21:21.937Z</time></trkpt><trkpt lat="43.6297733" lon="12.47486"><ele>531.0</ele><time>2026-04-25T09:21:22.937Z</time></trkpt><trkpt lat="43.6296683" lon="12.4748433"><ele>531.0</ele><time>2026-04-25T09:21:23.936Z</time></trkpt><trkpt lat="43.6295483" lon="12.4748183"><ele>531.0</ele><time>2026-04-25T09:21:24.937Z</time></trkpt><trkpt lat="43.629425" lon="12.4747883"><ele>528.8</ele><time>2026-04-25T09:21:25.937Z</time></trkpt><trkpt lat="43.6293033" lon="12.47476"><ele>526.6</ele><time>2026-04-25T09:21:26.937Z</time></trkpt><trkpt lat="43.62919" lon="12.4747317"><ele>524.4</ele><time>2026-04-25T09:21:27.937Z</time></trkpt><trkpt lat="43.629085" lon="12.4747067"><ele>522.2</ele><time>2026-04-25T09:21:28.937Z</time></trkpt><trkpt lat="43.6289883" lon="12.4747017"><ele>520.0</ele><time>2026-04-25T09:21:29.937Z</time></trkpt><trkpt lat="43.6288983" lon="12.4747333"><ele>520.0</ele><time>2026-04-25T09:21:30.937Z</time></trkpt><trkpt lat="43.6288133" lon="12.4748217"><ele>520.0</ele><time>2026-04-25T09:21:31.936Z</time></trkpt><trkpt lat="43.6287267" lon="12.4749533"><ele>520.0</ele><time>2026-04-25T09:21:32.936Z</time></trkpt><trkpt lat="43.6286367" lon="12.4751067"><ele>520.0</ele><time>2026-04-25T09:21:33.937Z</time></trkpt><trkpt lat="43.6285433" lon="12.4752567"><ele>519.0</ele><time>2026-04-25T09:21:34.936Z</time></trkpt><trkpt lat="43.6284317" lon="12.4753867"><ele>518.0</ele><time>2026-04-25T09:21:35.937Z</time></trkpt><trkpt lat="43.628295" lon="12.47548"><ele>517.0</ele><time>2026-04-25T09:21:36.937Z</time></trkpt><trkpt lat="43.6281417" lon="12.47555"><ele>517.0</ele><time>2026-04-25T09:21:37.937Z</time></trkpt><trkpt lat="43.6279783" lon="12.4756183"><ele>517.0</ele><time>2026-04-25T09:21:38.937Z</time></trkpt><trkpt lat="43.6278067" lon="12.4756833"><ele>517.0</ele><time>2026-04-25T09:21:39.937Z</time></trkpt><trkpt lat="43.6276317" lon="12.4757533"><ele>513.0</ele><time>2026-04-25T09:21:40.936Z</time></trkpt><trkpt lat="43.6274583" lon="12.47582"><ele>509.0</ele><time>2026-04-25T09:21:41.936Z</time></trkpt><trkpt lat="43.6272867" lon="12.4758867"><ele>505.0</ele><time>2026-04-25T09:21:42.937Z</time></trkpt><trkpt lat="43.6271167" lon="12.4759517"><ele>502.33333333333337</ele><time>2026-04-25T09:21:43.937Z</time></trkpt><trkpt lat="43.626955" lon="12.4760117"><ele>499.66666666666663</ele><time>2026-04-25T09:21:44.937Z</time></trkpt><trkpt lat="43.6267967" lon="12.4760817"><ele>497.0</ele><time>2026-04-25T09:21:45.936Z</time></trkpt><trkpt lat="43.6266467" lon="12.4761367"><ele>497.0</ele><time>2026-04-25T09:21:46.937Z</time></trkpt><trkpt lat="43.6265083" lon="12.4761683"><ele>497.0</ele><time>2026-04-25T09:21:47.937Z</time></trkpt><trkpt lat="43.6263767" lon="12.4761533"><ele>497.0</ele><time>2026-04-25T09:21:48.937Z</time></trkpt><trkpt lat="43.6262617" lon="12.476075"><ele>497.0</ele><time>2026-04-25T09:21:49.937Z</time></trkpt><trkpt lat="43.6261767" lon="12.4759217"><ele>494.0</ele><time>2026-04-25T09:21:50.937Z</time></trkpt><trkpt lat="43.626095" lon="12.4757483"><ele>491.0</ele><time>2026-04-25T09:21:51.936Z</time></trkpt><trkpt lat="43.626015" lon="12.4755733"><ele>488.0</ele><time>2026-04-25T09:21:52.937Z</time></trkpt><trkpt lat="43.62595" lon="12.4754"><ele>485.0</ele><time>2026-04-25T09:21:53.937Z</time></trkpt><trkpt lat="43.6259233" lon="12.4752183"><ele>484.8</ele><time>2026-04-25T09:21:54.937Z</time></trkpt><trkpt lat="43.6259367" lon="12.475045"><ele>484.6</ele><time>2026-04-25T09:21:55.937Z</time></trkpt><trkpt lat="43.62592" lon="12.4748917"><ele>484.4</ele><time>2026-04-25T09:21:56.937Z</time></trkpt><trkpt lat="43.625855" lon="12.4747817"><ele>484.2</ele><time>2026-04-25T09:21:57.937Z</time></trkpt><trkpt lat="43.625765" lon="12.474735"><ele>484.0</ele><time>2026-04-25T09:21:58.936Z</time></trkpt><trkpt lat="43.6256717" lon="12.47476"><ele>484.0</ele><time>2026-04-25T09:21:59.937Z</time></trkpt><trkpt lat="43.625605" lon="12.4748483"><ele>484.0</ele><time>2026-04-25T09:22:00.937Z</time></trkpt><trkpt lat="43.6255767" lon="12.4749933"><ele>484.0</ele><time>2026-04-25T09:22:01.937Z</time></trkpt><trkpt lat="43.6255833" lon="12.4751583"><ele>484.0</ele><time>2026-04-25T09:22:02.936Z</time></trkpt><trkpt lat="43.62562" lon="12.475335"><ele>484.33333333333337</ele><time>2026-04-25T09:22:03.937Z</time></trkpt><trkpt lat="43.6256733" lon="12.4755233"><ele>484.66666666666663</ele><time>2026-04-25T09:22:04.936Z</time></trkpt><trkpt lat="43.625735" lon="12.4757183"><ele>485.0</ele><time>2026-04-25T09:22:05.936Z</time></trkpt><trkpt lat="43.6257983" lon="12.4759283"><ele>485.0</ele><time>2026-04-25T09:22:06.937Z</time></trkpt><trkpt lat="43.6258583" lon="12.476145"><ele>485.0</ele><time>2026-04-25T09:22:07.937Z</time></trkpt><trkpt lat="43.6259183" lon="12.47636"><ele>485.0</ele><time>2026-04-25T09:22:08.937Z</time></trkpt><trkpt lat="43.6259717" lon="12.4765633"><ele>482.5</ele><time>2026-04-25T09:22:09.937Z</time></trkpt><trkpt lat="43.626025" lon="12.476745"><ele>480.0</ele><time>2026-04-25T09:22:10.936Z</time></trkpt><trkpt lat="43.626055" lon="12.4769083"><ele>477.5</ele><time>2026-04-25T09:22:11.937Z</time></trkpt><trkpt lat="43.6260517" lon="12.4770517"><ele>475.0</ele><time>2026-04-25T09:22:12.937Z</time></trkpt><trkpt lat="43.6259933" lon="12.477145"><ele>475.0</ele><time>2026-04-25T09:22:13.937Z</time></trkpt><trkpt lat="43.6259083" lon="12.4771917"><ele>475.0</ele><time>2026-04-25T09:22:14.937Z</time></trkpt><trkpt lat="43.6258283" lon="12.4772017"><ele>475.0</ele><time>2026-04-25T09:22:15.937Z</time></trkpt><trkpt lat="43.62576" lon="12.4771"><ele>475.0</ele><time>2026-04-25T09:22:16.937Z</time></trkpt><trkpt lat="43.62572" lon="12.4769617"><ele>475.0</ele><time>2026-04-25T09:22:17.937Z</time></trkpt><trkpt lat="43.625695" lon="12.4767667"><ele>475.0</ele><time>2026-04-25T09:22:18.937Z</time></trkpt><trkpt lat="43.6256617" lon="12.4765583"><ele>475.0</ele><time>2026-04-25T09:22:19.937Z</time></trkpt><trkpt lat="43.6256083" lon="12.476345"><ele>475.0</ele><time>2026-04-25T09:22:20.937Z</time></trkpt><trkpt lat="43.625545" lon="12.4761267"><ele>478.33333333333337</ele><time>2026-04-25T09:22:21.937Z</time></trkpt><trkpt lat="43.6254733" lon="12.47591"><ele>481.66666666666663</ele><time>2026-04-25T09:22:22.937Z</time></trkpt><trkpt lat="43.6253733" lon="12.4757033"><ele>485.0</ele><time>2026-04-25T09:22:23.937Z</time></trkpt><trkpt lat="43.6252517" lon="12.4755267"><ele>477.0</ele><time>2026-04-25T09:22:24.937Z</time></trkpt><trkpt lat="43.625125" lon="12.47537"><ele>469.0</ele><time>2026-04-25T09:22:25.937Z</time></trkpt><trkpt lat="43.6250283" lon="12.4752017"><ele>461.0</ele><time>2026-04-25T09:22:26.937Z</time></trkpt><trkpt lat="43.624965" lon="12.4750183"><ele>461.0</ele><time>2026-04-25T09:22:27.937Z</time></trkpt><trkpt lat="43.6249567" lon="12.4748183"><ele>461.0</ele><time>2026-04-25T09:22:28.937Z</time></trkpt><trkpt lat="43.6249283" lon="12.4746517"><ele>461.0</ele><time>2026-04-25T09:22:29.937Z</time></trkpt><trkpt lat="43.6248567" lon="12.4745567"><ele>461.0</ele><time>2026-04-25T09:22:30.936Z</time></trkpt><trkpt lat="43.6247583" lon="12.4745467"><ele>461.0</ele><time>2026-04-25T09:22:31.937Z</time></trkpt><trkpt lat="43.6246683" lon="12.47461"><ele>461.0</ele><time>2026-04-25T09:22:32.937Z</time></trkpt><trkpt lat="43.6246183" lon="12.4747317"><ele>461.0</ele><time>2026-04-25T09:22:33.937Z</time></trkpt><trkpt lat="43.62459" lon="12.47485"><ele>461.0</ele><time>2026-04-25T09:22:34.937Z</time></trkpt><trkpt lat="43.6245717" lon="12.474955"><ele>461.0</ele><time>2026-04-25T09:22:35.937Z</time></trkpt><trkpt lat="43.6246183" lon="12.4751183"><ele>461.0</ele><time>2026-04-25T09:22:36.937Z</time></trkpt><trkpt lat="43.624735" lon="12.4753383"><ele>461.0</ele><time>2026-04-25T09:22:37.936Z</time></trkpt><trkpt lat="43.624835" lon="12.4755417"><ele>461.0</ele><time>2026-04-25T09:22:38.936Z</time></trkpt><trkpt lat="43.624915" lon="12.47574"><ele>459.5</ele><time>2026-04-25T09:22:39.937Z</time></trkpt><trkpt lat="43.624975" lon="12.4759233"><ele>458.0</ele><time>2026-04-25T09:22:40.937Z</time></trkpt><trkpt lat="43.624985" lon="12.4761033"><ele>456.5</ele><time>2026-04-25T09:22:41.937Z</time></trkpt><trkpt lat="43.6249517" lon="12.4762667"><ele>455.0</ele><time>2026-04-25T09:22:42.936Z</time></trkpt><trkpt lat="43.6248767" lon="12.4764017"><ele>454.0</ele><time>2026-04-25T09:22:43.937Z</time></trkpt><trkpt lat="43.6247683" lon="12.4765033"><ele>453.0</ele><time>2026-04-25T09:22:44.937Z</time></trkpt><trkpt lat="43.6246433" lon="12.4765767"><ele>452.0</ele><time>2026-04-25T09:22:45.937Z</time></trkpt><trkpt lat="43.6245283" lon="12.4766533"><ele>451.0</ele><time>2026-04-25T09:22:46.937Z</time></trkpt><trkpt lat="43.6244233" lon="12.4767283"><ele>449.75</ele><time>2026-04-25T09:22:47.937Z</time></trkpt><trkpt lat="43.6243117" lon="12.476745"><ele>448.5</ele><time>2026-04-25T09:22:48.937Z</time></trkpt><trkpt lat="43.6242067" lon="12.4766833"><ele>447.25</ele><time>2026-04-25T09:22:49.937Z</time></trkpt><trkpt lat="43.6241167" lon="12.476575"><ele>446.0</ele><time>2026-04-25T09:22:50.937Z</time></trkpt><trkpt lat="43.62403" lon="12.476455"><ele>446.0</ele><time>2026-04-25T09:22:51.937Z</time></trkpt><trkpt lat="43.6239417" lon="12.4763333"><ele>446.0</ele><time>2026-04-25T09:22:52.937Z</time></trkpt><trkpt lat="43.62385" lon="12.4762233"><ele>446.0</ele><time>2026-04-25T09:22:53.937Z</time></trkpt><trkpt lat="43.6237517" lon="12.476115"><ele>446.0</ele><time>2026-04-25T09:22:54.937Z</time></trkpt><trkpt lat="43.6236567" lon="12.4760067"><ele>444.0</ele><time>2026-04-25T09:22:55.937Z</time></trkpt><trkpt lat="43.6235683" lon="12.475895"><ele>442.0</ele><time>2026-04-25T09:22:56.937Z</time></trkpt><trkpt lat="43.6234783" lon="12.475785"><ele>440.0</ele><time>2026-04-25T09:22:57.937Z</time></trkpt><trkpt lat="43.6233833" lon="12.475685"><ele>438.0</ele><time>2026-04-25T09:22:58.937Z</time></trkpt><trkpt lat="43.6232783" lon="12.4756033"><ele>438.0</ele><time>2026-04-25T09:22:59.936Z</time></trkpt><trkpt lat="43.623155" lon="12.4755433"><ele>438.0</ele><time>2026-04-25T09:23:00.937Z</time></trkpt><trkpt lat="43.6230233" lon="12.4755"><ele>438.0</ele><time>2026-04-25T09:23:01.937Z</time></trkpt><trkpt lat="43.6228983" lon="12.475435"><ele>438.0</ele><time>2026-04-25T09:23:02.937Z</time></trkpt><trkpt lat="43.6227883" lon="12.4753267"><ele>434.75</ele><time>2026-04-25T09:23:03.936Z</time></trkpt><trkpt lat="43.6226933" lon="12.4751883"><ele>431.5</ele><time>2026-04-25T09:23:04.936Z</time></trkpt><trkpt lat="43.6225983" lon="12.4750483"><ele>428.25</ele><time>2026-04-25T09:23:05.937Z</time></trkpt><trkpt lat="43.6224917" lon="12.474925"><ele>425.0</ele><time>2026-04-25T09:23:06.937Z</time></trkpt><trkpt lat="43.6223633" lon="12.4748483"><ele>425.0</ele><time>2026-04-25T09:23:07.937Z</time></trkpt><trkpt lat="43.6222283" lon="12.4748033"><ele>425.0</ele><time>2026-04-25T09:23:08.937Z</time></trkpt><trkpt lat="43.6220917" lon="12.4748133"><ele>425.0</ele><time>2026-04-25T09:23:09.937Z</time></trkpt><trkpt lat="43.6219517" lon="12.4748517"><ele>425.0</ele><time>2026-04-25T09:23:10.937Z</time></trkpt><trkpt lat="43.6218133" lon="12.474915"><ele>421.0</ele><time>2026-04-25T09:23:11.937Z</time></trkpt><trkpt lat="43.6216833" lon="12.4750167"><ele>417.0</ele><time>2026-04-25T09:23:12.936Z</time></trkpt><trkpt lat="43.6215717" lon="12.4751517"><ele>413.0</ele><time>2026-04-25T09:23:13.937Z</time></trkpt><trkpt lat="43.6214717" lon="12.4753167"><ele>412.0</ele><time>2026-04-25T09:23:14.937Z</time></trkpt><trkpt lat="43.621385" lon="12.4754933"><ele>411.0</ele><time>2026-04-25T09:23:15.937Z</time></trkpt><trkpt lat="43.621295" lon="12.4756517"><ele>410.0</ele><time>2026-04-25T09:23:16.937Z</time></trkpt><trkpt lat="43.621195" lon="12.4757967"><ele>409.0</ele><time>2026-04-25T09:23:17.937Z</time></trkpt><trkpt lat="43.62108" lon="12.4759"><ele>409.0</ele><time>2026-04-25T09:23:18.936Z</time></trkpt><trkpt lat="43.6209417" lon="12.47593"><ele>409.0</ele><time>2026-04-25T09:23:19.937Z</time></trkpt><trkpt lat="43.6207933" lon="12.475905"><ele>409.0</ele><time>2026-04-25T09:23:20.936Z</time></trkpt><trkpt lat="43.6206467" lon="12.4758467"><ele>409.0</ele><time>2026-04-25T09:23:21.937Z</time></trkpt><trkpt lat="43.620495" lon="12.47577"><ele>409.0</ele><time>2026-04-25T09:23:22.937Z</time></trkpt><trkpt lat="43.6203367" lon="12.4756833"><ele>409.0</ele><time>2026-04-25T09:23:23.937Z</time></trkpt><trkpt lat="43.62017" lon="12.4756167"><ele>409.0</ele><time>2026-04-25T09:23:24.937Z</time></trkpt><trkpt lat="43.6199983" lon="12.47555"><ele>409.33333333333337</ele><time>2026-04-25T09:23:25.937Z</time></trkpt><trkpt lat="43.61983" lon="12.4754867"><ele>409.66666666666663</ele><time>2026-04-25T09:23:26.937Z</time></trkpt><trkpt lat="43.6196683" lon="12.4754167"><ele>410.0</ele><time>2026-04-25T09:23:27.937Z</time></trkpt><trkpt lat="43.6195033" lon="12.47534"><ele>406.66666666666663</ele><time>2026-04-25T09:23:28.937Z</time></trkpt><trkpt lat="43.6193317" lon="12.4752583"><ele>403.33333333333337</ele><time>2026-04-25T09:23:29.937Z</time></trkpt><trkpt lat="43.6191617" lon="12.47515"><ele>400.0</ele><time>2026-04-25T09:23:30.937Z</time></trkpt><trkpt lat="43.6190067" lon="12.4750083"><ele>400.0</ele><time>2026-04-25T09:23:31.937Z</time></trkpt><trkpt lat="43.6188667" lon="12.4748467"><ele>400.0</ele><time>2026-04-25T09:23:32.937Z</time></trkpt><trkpt lat="43.6187317" lon="12.474685"><ele>400.0</ele><time>2026-04-25T09:23:33.937Z</time></trkpt><trkpt lat="43.6186" lon="12.4745233"><ele>397.6666666666667</ele><time>2026-04-25T09:23:34.937Z</time></trkpt><trkpt lat="43.61847" lon="12.4743617"><ele>395.33333333333337</ele><time>2026-04-25T09:23:35.936Z</time></trkpt><trkpt lat="43.6183367" lon="12.4742017"><ele>393.0</ele><time>2026-04-25T09:23:36.936Z</time></trkpt><trkpt lat="43.618205" lon="12.4740417"><ele>393.0</ele><time>2026-04-25T09:23:37.937Z</time></trkpt><trkpt lat="43.6180733" lon="12.4738833"><ele>393.0</ele><time>2026-04-25T09:23:38.936Z</time></trkpt><trkpt lat="43.6179383" lon="12.4737367"><ele>393.0</ele><time>2026-04-25T09:23:39.937Z</time></trkpt><trkpt lat="43.6177983" lon="12.4736067"><ele>391.33333333333337</ele><time>2026-04-25T09:23:40.937Z</time></trkpt><trkpt lat="43.6176533" lon="12.4734933"><ele>389.6666666666667</ele><time>2026-04-25T09:23:41.937Z</time></trkpt><trkpt lat="43.6175017" lon="12.4734"><ele>388.0</ele><time>2026-04-25T09:23:42.938Z</time></trkpt><trkpt lat="43.617345" lon="12.473325"><ele>388.0</ele><time>2026-04-25T09:23:43.938Z</time></trkpt><trkpt lat="43.61718" lon="12.4732783"><ele>388.0</ele><time>2026-04-25T09:23:44.938Z</time></trkpt><trkpt lat="43.6170117" lon="12.4732583"><ele>388.0</ele><time>2026-04-25T09:23:45.938Z</time></trkpt><trkpt lat="43.6168433" lon="12.4732633"><ele>387.0</ele><time>2026-04-25T09:23:46.938Z</time></trkpt><trkpt lat="43.616675" lon="12.47329"><ele>386.0</ele><time>2026-04-25T09:23:47.937Z</time></trkpt><trkpt lat="43.6165083" lon="12.4733317"><ele>385.0</ele><time>2026-04-25T09:23:48.937Z</time></trkpt><trkpt lat="43.6163417" lon="12.473375"><ele>385.0</ele><time>2026-04-25T09:23:49.938Z</time></trkpt><trkpt lat="43.616175" lon="12.4734183"><ele>385.0</ele><time>2026-04-25T09:23:50.938Z</time></trkpt><trkpt lat="43.61601" lon="12.4734633"><ele>385.0</ele><time>2026-04-25T09:23:51.938Z</time></trkpt><trkpt lat="43.6158433" lon="12.473505"><ele>383.0</ele><time>2026-04-25T09:23:52.938Z</time></trkpt><trkpt lat="43.61568" lon="12.473535"><ele>381.0</ele><time>2026-04-25T09:23:53.938Z</time></trkpt><trkpt lat="43.615515" lon="12.4735733"><ele>379.0</ele><time>2026-04-25T09:23:54.938Z</time></trkpt><trkpt lat="43.6153517" lon="12.47361"><ele>377.0</ele><time>2026-04-25T09:23:55.938Z</time></trkpt><trkpt lat="43.6151867" lon="12.4736517"><ele>375.0</ele><time>2026-04-25T09:23:56.938Z</time></trkpt><trkpt lat="43.6150217" lon="12.4736967"><ele>373.0</ele><time>2026-04-25T09:23:57.938Z</time></trkpt><trkpt lat="43.6148567" lon="12.4737367"><ele>371.66666666666663</ele><time>2026-04-25T09:23:58.938Z</time></trkpt><trkpt lat="43.614695" lon="12.4737817"><ele>370.3333333333333</ele><time>2026-04-25T09:23:59.938Z</time></trkpt><trkpt lat="43.614545" lon="12.4738617"><ele>369.0</ele><time>2026-04-25T09:24:00.938Z</time></trkpt><trkpt lat="43.6144167" lon="12.47399"><ele>369.0</ele><time>2026-04-25T09:24:01.937Z</time></trkpt><trkpt lat="43.61431" lon="12.4741633"><ele>369.0</ele><time>2026-04-25T09:24:02.937Z</time></trkpt><trkpt lat="43.6142267" lon="12.474365"><ele>369.0</ele><time>2026-04-25T09:24:03.938Z</time></trkpt><trkpt lat="43.6141433" lon="12.4745717"><ele>371.6666666666667</ele><time>2026-04-25T09:24:04.938Z</time></trkpt><trkpt lat="43.614055" lon="12.474775"><ele>374.33333333333337</ele><time>2026-04-25T09:24:05.938Z</time></trkpt><trkpt lat="43.613965" lon="12.474975"><ele>377.0</ele><time>2026-04-25T09:24:06.938Z</time></trkpt><trkpt lat="43.6138717" lon="12.4751667"><ele>377.0</ele><time>2026-04-25T09:24:07.938Z</time></trkpt><trkpt lat="43.6137817" lon="12.4753583"><ele>377.0</ele><time>2026-04-25T09:24:08.938Z</time></trkpt><trkpt lat="43.6136933" lon="12.47555"><ele>377.0</ele><time>2026-04-25T09:24:09.938Z</time></trkpt><trkpt lat="43.6136067" lon="12.4757433"><ele>376.33333333333337</ele><time>2026-04-25T09:24:10.938Z</time></trkpt><trkpt lat="43.613525" lon="12.4759383"><ele>375.6666666666667</ele><time>2026-04-25T09:24:11.937Z</time></trkpt><trkpt lat="43.6134483" lon="12.4761367"><ele>375.0</ele><time>2026-04-25T09:24:12.938Z</time></trkpt><trkpt lat="43.61337" lon="12.4763317"><ele>374.6666666666667</ele><time>2026-04-25T09:24:13.938Z</time></trkpt><trkpt lat="43.613285" lon="12.476525"><ele>374.33333333333337</ele><time>2026-04-25T09:24:14.938Z</time></trkpt><trkpt lat="43.6131967" lon="12.476715"><ele>374.0</ele><time>2026-04-25T09:24:15.938Z</time></trkpt><trkpt lat="43.6131083" lon="12.4769067"><ele>374.0</ele><time>2026-04-25T09:24:16.937Z</time></trkpt><trkpt lat="43.6130233" lon="12.4771017"><ele>374.0</ele><time>2026-04-25T09:24:17.938Z</time></trkpt><trkpt lat="43.6129417" lon="12.4773033"><ele>374.0</ele><time>2026-04-25T09:24:18.938Z</time></trkpt><trkpt lat="43.6128683" lon="12.4775117"><ele>373.6666666666667</ele><time>2026-04-25T09:24:19.938Z</time></trkpt><trkpt lat="43.6127967" lon="12.4777233"><ele>373.3333333333333</ele><time>2026-04-25T09:24:20.938Z</time></trkpt><trkpt lat="43.6127283" lon="12.47794"><ele>373.0</ele><time>2026-04-25T09:24:21.938Z</time></trkpt><trkpt lat="43.6126583" lon="12.478155"><ele>374.66666666666663</ele><time>2026-04-25T09:24:22.938Z</time></trkpt><trkpt lat="43.61259" lon="12.4783683"><ele>376.3333333333333</ele><time>2026-04-25T09:24:23.938Z</time></trkpt><trkpt lat="43.6125283" lon="12.4785833"><ele>378.0</ele><time>2026-04-25T09:24:24.937Z</time></trkpt><trkpt lat="43.6124567" lon="12.478795"><ele>378.3333333333333</ele><time>2026-04-25T09:24:25.938Z</time></trkpt><trkpt lat="43.6123867" lon="12.4790067"><ele>378.66666666666663</ele><time>2026-04-25T09:24:26.937Z</time></trkpt><trkpt lat="43.6123167" lon="12.4792117"><ele>379.0</ele><time>2026-04-25T09:24:27.938Z</time></trkpt><trkpt lat="43.61225" lon="12.479415"><ele>380.66666666666663</ele><time>2026-04-25T09:24:28.938Z</time></trkpt><trkpt lat="43.6121817" lon="12.4796117"><ele>382.3333333333333</ele><time>2026-04-25T09:24:29.937Z</time></trkpt><trkpt lat="43.6121133" lon="12.4798083"><ele>384.0</ele><time>2026-04-25T09:24:30.937Z</time></trkpt><trkpt lat="43.6120383" lon="12.4800067"><ele>382.6666666666667</ele><time>2026-04-25T09:24:31.938Z</time></trkpt><trkpt lat="43.61196" lon="12.4802"><ele>381.33333333333337</ele><time>2026-04-25T09:24:32.937Z</time></trkpt><trkpt lat="43.611875" lon="12.4803883"><ele>380.0</ele><time>2026-04-25T09:24:33.937Z</time></trkpt><trkpt lat="43.6117833" lon="12.48057"><ele>380.0</ele><time>2026-04-25T09:24:34.937Z</time></trkpt><trkpt lat="43.6116867" lon="12.480745"><ele>380.0</ele><time>2026-04-25T09:24:35.938Z</time></trkpt><trkpt lat="43.6115867" lon="12.4809167"><ele>380.0</ele><time>2026-04-25T09:24:36.938Z</time></trkpt><trkpt lat="43.61148" lon="12.4810883"><ele>380.0</ele><time>2026-04-25T09:24:37.938Z</time></trkpt><trkpt lat="43.6113733" lon="12.4812567"><ele>380.0</ele><time>2026-04-25T09:24:38.938Z</time></trkpt><trkpt lat="43.6112667" lon="12.4814217"><ele>380.0</ele><time>2026-04-25T09:24:39.938Z</time></trkpt><trkpt lat="43.6111583" lon="12.4815867"><ele>378.6666666666667</ele><time>2026-04-25T09:24:40.938Z</time></trkpt><trkpt lat="43.6110517" lon="12.4817467"><ele>377.3333333333333</ele><time>2026-04-25T09:24:41.938Z</time></trkpt><trkpt lat="43.610945" lon="12.4819067"><ele>376.0</ele><time>2026-04-25T09:24:42.937Z</time></trkpt><trkpt lat="43.610845" lon="12.48207"><ele>378.3333333333333</ele><time>2026-04-25T09:24:43.938Z</time></trkpt><trkpt lat="43.61076" lon="12.4822417"><ele>380.6666666666667</ele><time>2026-04-25T09:24:44.938Z</time></trkpt><trkpt lat="43.610695" lon="12.4824317"><ele>383.0</ele><time>2026-04-25T09:24:45.937Z</time></trkpt><trkpt lat="43.610655" lon="12.482635"><ele>383.0</ele><time>2026-04-25T09:24:46.937Z</time></trkpt><trkpt lat="43.61063" lon="12.4828517"><ele>383.0</ele><time>2026-04-25T09:24:47.938Z</time></trkpt><trkpt lat="43.6106033" lon="12.4830767"><ele>383.0</ele><time>2026-04-25T09:24:48.937Z</time></trkpt><trkpt lat="43.610565" lon="12.4833017"><ele>382.33333333333337</ele><time>2026-04-25T09:24:49.937Z</time></trkpt><trkpt lat="43.6105067" lon="12.4835167"><ele>381.6666666666667</ele><time>2026-04-25T09:24:50.937Z</time></trkpt><trkpt lat="43.61042" lon="12.48371"><ele>381.0</ele><time>2026-04-25T09:24:51.936Z</time></trkpt><trkpt lat="43.6103117" lon="12.4838783"><ele>378.6666666666667</ele><time>2026-04-25T09:24:52.937Z</time></trkpt><trkpt lat="43.6101917" lon="12.4840233"><ele>376.33333333333337</ele><time>2026-04-25T09:24:53.936Z</time></trkpt><trkpt lat="43.6100667" lon="12.484155"><ele>374.0</ele><time>2026-04-25T09:24:54.936Z</time></trkpt><trkpt lat="43.6099433" lon="12.48428"><ele>374.0</ele><time>2026-04-25T09:24:55.937Z</time></trkpt><trkpt lat="43.6098167" lon="12.4844033"><ele>374.0</ele><time>2026-04-25T09:24:56.936Z</time></trkpt><trkpt lat="43.609685" lon="12.48453"><ele>374.0</ele><time>2026-04-25T09:24:57.936Z</time></trkpt><trkpt lat="43.6095583" lon="12.4846633"><ele>375.0</ele><time>2026-04-25T09:24:58.937Z</time></trkpt><trkpt lat="43.6094333" lon="12.4848017"><ele>376.0</ele><time>2026-04-25T09:24:59.937Z</time></trkpt><trkpt lat="43.6093067" lon="12.4849333"><ele>377.0</ele><time>2026-04-25T09:25:00.937Z</time></trkpt><trkpt lat="43.6091817" lon="12.4850633"><ele>377.0</ele><time>2026-04-25T09:25:01.936Z</time></trkpt><trkpt lat="43.60906" lon="12.4852017"><ele>377.0</ele><time>2026-04-25T09:25:02.937Z</time></trkpt><trkpt lat="43.608945" lon="12.48535"><ele>377.0</ele><time>2026-04-25T09:25:03.937Z</time></trkpt><trkpt lat="43.6088383" lon="12.4855117"><ele>375.33333333333337</ele><time>2026-04-25T09:25:04.937Z</time></trkpt><trkpt lat="43.6087533" lon="12.4857017"><ele>373.6666666666667</ele><time>2026-04-25T09:25:05.936Z</time></trkpt><trkpt lat="43.6086783" lon="12.4859083"><ele>372.0</ele><time>2026-04-25T09:25:06.936Z</time></trkpt><trkpt lat="43.6086017" lon="12.486115"><ele>373.3333333333333</ele><time>2026-04-25T09:25:07.936Z</time></trkpt><trkpt lat="43.6085083" lon="12.48631"><ele>374.66666666666663</ele><time>2026-04-25T09:25:08.936Z</time></trkpt><trkpt lat="43.6084033" lon="12.486495"><ele>376.0</ele><time>2026-04-25T09:25:09.936Z</time></trkpt><trkpt lat="43.6082867" lon="12.48667"><ele>376.0</ele><time>2026-04-25T09:25:10.937Z</time></trkpt><trkpt lat="43.6081683" lon="12.48684"><ele>376.0</ele><time>2026-04-25T09:25:11.937Z</time></trkpt><trkpt lat="43.6080483" lon="12.487005"><ele>376.0</ele><time>2026-04-25T09:25:12.937Z</time></trkpt><trkpt lat="43.6079317" lon="12.487175"><ele>373.66666666666663</ele><time>2026-04-25T09:25:13.937Z</time></trkpt><trkpt lat="43.6078167" lon="12.4873467"><ele>371.3333333333333</ele><time>2026-04-25T09:25:14.937Z</time></trkpt><trkpt lat="43.6077017" lon="12.4875167"><ele>369.0</ele><time>2026-04-25T09:25:15.937Z</time></trkpt><trkpt lat="43.607585" lon="12.4876867"><ele>369.0</ele><time>2026-04-25T09:25:16.937Z</time></trkpt><trkpt lat="43.60747" lon="12.4878567"><ele>369.0</ele><time>2026-04-25T09:25:17.936Z</time></trkpt><trkpt lat="43.607355" lon="12.4880217"><ele>369.0</ele><time>2026-04-25T09:25:18.937Z</time></trkpt><trkpt lat="43.6072433" lon="12.4881867"><ele>367.0</ele><time>2026-04-25T09:25:19.936Z</time></trkpt><trkpt lat="43.6071317" lon="12.4883517"><ele>365.0</ele><time>2026-04-25T09:25:20.937Z</time></trkpt><trkpt lat="43.6070233" lon="12.48851"><ele>363.0</ele><time>2026-04-25T09:25:21.937Z</time></trkpt><trkpt lat="43.6069133" lon="12.4886633"><ele>366.6666666666667</ele><time>2026-04-25T09:25:22.937Z</time></trkpt><trkpt lat="43.6068" lon="12.4888067"><ele>370.33333333333337</ele><time>2026-04-25T09:25:23.937Z</time></trkpt><trkpt lat="43.6066783" lon="12.4889383"><ele>374.0</ele><time>2026-04-25T09:25:24.936Z</time></trkpt><trkpt lat="43.6065533" lon="12.489055"><ele>374.0</ele><time>2026-04-25T09:25:25.936Z</time></trkpt><trkpt lat="43.6064217" lon="12.4891533"><ele>374.0</ele><time>2026-04-25T09:25:26.937Z</time></trkpt><trkpt lat="43.6062867" lon="12.48924"><ele>374.0</ele><time>2026-04-25T09:25:27.936Z</time></trkpt><trkpt lat="43.6061467" lon="12.4893183"><ele>370.6666666666667</ele><time>2026-04-25T09:25:28.936Z</time></trkpt><trkpt lat="43.6060017" lon="12.4893967"><ele>367.3333333333333</ele><time>2026-04-25T09:25:29.937Z</time></trkpt><trkpt lat="43.6058533" lon="12.489475"><ele>364.0</ele><time>2026-04-25T09:25:30.937Z</time></trkpt><trkpt lat="43.6057017" lon="12.4895617"><ele>363.3333333333333</ele><time>2026-04-25T09:25:31.936Z</time></trkpt><trkpt lat="43.6055517" lon="12.4896467"><ele>362.6666666666667</ele><time>2026-04-25T09:25:32.937Z</time></trkpt><trkpt lat="43.6054" lon="12.4897383"><ele>362.0</ele><time>2026-04-25T09:25:33.937Z</time></trkpt><trkpt lat="43.6052533" lon="12.4898317"><ele>362.0</ele><time>2026-04-25T09:25:34.937Z</time></trkpt><trkpt lat="43.60511" lon="12.4899333"><ele>362.0</ele><time>2026-04-25T09:25:35.937Z</time></trkpt><trkpt lat="43.6049733" lon="12.490045"><ele>362.0</ele><time>2026-04-25T09:25:36.937Z</time></trkpt><trkpt lat="43.6048467" lon="12.4901783"><ele>362.0</ele><time>2026-04-25T09:25:37.936Z</time></trkpt><trkpt lat="43.604735" lon="12.4903367"><ele>362.0</ele><time>2026-04-25T09:25:38.937Z</time></trkpt><trkpt lat="43.6046367" lon="12.49051"><ele>362.0</ele><time>2026-04-25T09:25:39.937Z</time></trkpt><trkpt lat="43.6045467" lon="12.490695"><ele>361.6666666666667</ele><time>2026-04-25T09:25:40.937Z</time></trkpt><trkpt lat="43.60446" lon="12.4908817"><ele>361.3333333333333</ele><time>2026-04-25T09:25:41.937Z</time></trkpt><trkpt lat="43.6043667" lon="12.4910717"><ele>361.0</ele><time>2026-04-25T09:25:42.936Z</time></trkpt><trkpt lat="43.6042733" lon="12.4912583"><ele>361.0</ele><time>2026-04-25T09:25:43.937Z</time></trkpt><trkpt lat="43.6041783" lon="12.4914467"><ele>361.0</ele><time>2026-04-25T09:25:44.937Z</time></trkpt><trkpt lat="43.604085" lon="12.4916383"><ele>361.0</ele><time>2026-04-25T09:25:45.937Z</time></trkpt><trkpt lat="43.6039917" lon="12.49183"><ele>361.0</ele><time>2026-04-25T09:25:46.937Z</time></trkpt><trkpt lat="43.6038967" lon="12.492015"><ele>361.0</ele><time>2026-04-25T09:25:47.936Z</time></trkpt><trkpt lat="43.6037967" lon="12.4921767"><ele>361.0</ele><time>2026-04-25T09:25:48.936Z</time></trkpt><trkpt lat="43.60369" lon="12.4923183"><ele>360.75</ele><time>2026-04-25T09:25:49.936Z</time></trkpt><trkpt lat="43.6035833" lon="12.4924483"><ele>360.5</ele><time>2026-04-25T09:25:50.937Z</time></trkpt><trkpt lat="43.6034867" lon="12.492575"><ele>360.25</ele><time>2026-04-25T09:25:51.937Z</time></trkpt><trkpt lat="43.6033983" lon="12.4926967"><ele>360.0</ele><time>2026-04-25T09:25:52.937Z</time></trkpt><trkpt lat="43.60332" lon="12.492815"><ele>360.4</ele><time>2026-04-25T09:25:53.936Z</time></trkpt><trkpt lat="43.603255" lon="12.4929267"><ele>360.8</ele><time>2026-04-25T09:25:54.936Z</time></trkpt><trkpt lat="43.6032133" lon="12.493025"><ele>361.20000000000005</ele><time>2026-04-25T09:25:55.937Z</time></trkpt><trkpt lat="43.6032333" lon="12.4931817"><ele>361.6</ele><time>2026-04-25T09:25:57.937Z</time></trkpt><trkpt lat="43.6032917" lon="12.4932433"><ele>362.0</ele><time>2026-04-25T09:25:58.937Z</time></trkpt><trkpt lat="43.603375" lon="12.4933017"><ele>362.0</ele><time>2026-04-25T09:25:59.937Z</time></trkpt><trkpt lat="43.6034583" lon="12.4933817"><ele>362.0</ele><time>2026-04-25T09:26:00.937Z</time></trkpt><trkpt lat="43.6035517" lon="12.493455"><ele>362.0</ele><time>2026-04-25T09:26:01.937Z</time></trkpt><trkpt lat="43.60365" lon="12.4935117"><ele>362.0</ele><time>2026-04-25T09:26:02.936Z</time></trkpt><trkpt lat="43.6037483" lon="12.493535"><ele>362.0</ele><time>2026-04-25T09:26:03.937Z</time></trkpt><trkpt lat="43.603845" lon="12.4935417"><ele>363.8</ele><time>2026-04-25T09:26:04.937Z</time></trkpt><trkpt lat="43.6039417" lon="12.4935517"><ele>365.6</ele><time>2026-04-25T09:26:05.937Z</time></trkpt><trkpt lat="43.6040317" lon="12.4936"><ele>367.40000000000003</ele><time>2026-04-25T09:26:06.937Z</time></trkpt><trkpt lat="43.6041067" lon="12.493695"><ele>369.20000000000005</ele><time>2026-04-25T09:26:07.937Z</time></trkpt><trkpt lat="43.6041767" lon="12.49381"><ele>371.0</ele><time>2026-04-25T09:26:08.936Z</time></trkpt><trkpt lat="43.604255" lon="12.49392"><ele>371.0</ele><time>2026-04-25T09:26:09.937Z</time></trkpt><trkpt lat="43.604345" lon="12.4940233"><ele>371.0</ele><time>2026-04-25T09:26:10.937Z</time></trkpt><trkpt lat="43.6044383" lon="12.4941383"><ele>371.0</ele><time>2026-04-25T09:26:11.937Z</time></trkpt><trkpt lat="43.6045367" lon="12.494255"><ele>371.0</ele><time>2026-04-25T09:26:12.937Z</time></trkpt><trkpt lat="43.604645" lon="12.49437"><ele>373.5</ele><time>2026-04-25T09:26:13.937Z</time></trkpt><trkpt lat="43.604745" lon="12.4944967"><ele>376.0</ele><time>2026-04-25T09:26:14.937Z</time></trkpt><trkpt lat="43.60484" lon="12.4946367"><ele>378.5</ele><time>2026-04-25T09:26:15.936Z</time></trkpt><trkpt lat="43.604935" lon="12.4947833"><ele>381.0</ele><time>2026-04-25T09:26:16.936Z</time></trkpt><trkpt lat="43.6050167" lon="12.49493"><ele>381.8</ele><time>2026-04-25T09:26:17.936Z</time></trkpt><trkpt lat="43.6051017" lon="12.4950533"><ele>382.6</ele><time>2026-04-25T09:26:18.936Z</time></trkpt><trkpt lat="43.605175" lon="12.4951667"><ele>383.4</ele><time>2026-04-25T09:26:19.937Z</time></trkpt><trkpt lat="43.6052167" lon="12.4952817"><ele>384.2</ele><time>2026-04-25T09:26:20.937Z</time></trkpt><trkpt lat="43.6052083" lon="12.4954067"><ele>385.0</ele><time>2026-04-25T09:26:21.936Z</time></trkpt><trkpt lat="43.6051817" lon="12.4955267"><ele>387.6</ele><time>2026-04-25T09:26:22.937Z</time></trkpt><trkpt lat="43.605155" lon="12.4956483"><ele>390.2</ele><time>2026-04-25T09:26:23.937Z</time></trkpt><trkpt lat="43.6051333" lon="12.4957917"><ele>392.79999999999995</ele><time>2026-04-25T09:26:24.937Z</time></trkpt><trkpt lat="43.6051367" lon="12.4959533"><ele>395.4</ele><time>2026-04-25T09:26:25.937Z</time></trkpt><trkpt lat="43.6051517" lon="12.4961333"><ele>398.0</ele><time>2026-04-25T09:26:26.936Z</time></trkpt><trkpt lat="43.6051833" lon="12.4963167"><ele>400.75</ele><time>2026-04-25T09:26:27.937Z</time></trkpt><trkpt lat="43.60523" lon="12.49649"><ele>403.5</ele><time>2026-04-25T09:26:28.937Z</time></trkpt><trkpt lat="43.605285" lon="12.4966683"><ele>406.25</ele><time>2026-04-25T09:26:29.937Z</time></trkpt><trkpt lat="43.6053433" lon="12.496855"><ele>409.0</ele><time>2026-04-25T09:26:30.937Z</time></trkpt><trkpt lat="43.6053983" lon="12.4970533"><ele>409.0</ele><time>2026-04-25T09:26:31.937Z</time></trkpt><trkpt lat="43.60544" lon="12.49726"><ele>409.0</ele><time>2026-04-25T09:26:32.936Z</time></trkpt><trkpt lat="43.6054783" lon="12.4974667"><ele>409.0</ele><time>2026-04-25T09:26:33.937Z</time></trkpt><trkpt lat="43.6055267" lon="12.4976633"><ele>409.0</ele><time>2026-04-25T09:26:34.937Z</time></trkpt><trkpt lat="43.6055767" lon="12.4978517"><ele>409.0</ele><time>2026-04-25T09:26:35.937Z</time></trkpt><trkpt lat="43.6056533" lon="12.4980217"><ele>409.0</ele><time>2026-04-25T09:26:36.937Z</time></trkpt><trkpt lat="43.6057283" lon="12.49818"><ele>409.0</ele><time>2026-04-25T09:26:37.937Z</time></trkpt><trkpt lat="43.6057783" lon="12.4983433"><ele>412.0</ele><time>2026-04-25T09:26:38.936Z</time></trkpt><trkpt lat="43.6058183" lon="12.4985017"><ele>415.0</ele><time>2026-04-25T09:26:39.937Z</time></trkpt><trkpt lat="43.6058283" lon="12.4986617"><ele>418.0</ele><time>2026-04-25T09:26:40.937Z</time></trkpt><trkpt lat="43.6058217" lon="12.498825"><ele>421.0</ele><time>2026-04-25T09:26:41.936Z</time></trkpt><trkpt lat="43.6058433" lon="12.4989733"><ele>423.5</ele><time>2026-04-25T09:26:42.937Z</time></trkpt><trkpt lat="43.6058983" lon="12.4991083"><ele>426.0</ele><time>2026-04-25T09:26:43.937Z</time></trkpt><trkpt lat="43.6059567" lon="12.4992483"><ele>428.5</ele><time>2026-04-25T09:26:44.937Z</time></trkpt><trkpt lat="43.60598" lon="12.4994033"><ele>431.0</ele><time>2026-04-25T09:26:45.937Z</time></trkpt><trkpt lat="43.6059783" lon="12.4995617"><ele>433.49999999999994</ele><time>2026-04-25T09:26:46.937Z</time></trkpt><trkpt lat="43.6059483" lon="12.4997017"><ele>436.0</ele><time>2026-04-25T09:26:47.937Z</time></trkpt><trkpt lat="43.6059217" lon="12.4998217"><ele>438.5</ele><time>2026-04-25T09:26:48.937Z</time></trkpt><trkpt lat="43.6059617" lon="12.4999117"><ele>441.0</ele><time>2026-04-25T09:26:49.936Z</time></trkpt><trkpt lat="43.6060183" lon="12.49999"><ele>443.49999999999994</ele><time>2026-04-25T09:26:50.937Z</time></trkpt><trkpt lat="43.6060633" lon="12.500065"><ele>446.0</ele><time>2026-04-25T09:26:51.937Z</time></trkpt><trkpt lat="43.606025" lon="12.5001983"><ele>446.0</ele><time>2026-04-25T09:26:53.936Z</time></trkpt><trkpt lat="43.605885" lon="12.50025"><ele>446.0</ele><time>2026-04-25T09:26:55.937Z</time></trkpt><trkpt lat="43.605785" lon="12.5002783"><ele>446.0</ele><time>2026-04-25T09:26:56.937Z</time></trkpt><trkpt lat="43.6056833" lon="12.500335"><ele>446.0</ele><time>2026-04-25T09:26:57.937Z</time></trkpt><trkpt lat="43.60558" lon="12.5004117"><ele>449.0</ele><time>2026-04-25T09:26:58.937Z</time></trkpt><trkpt lat="43.60548" lon="12.5004967"><ele>452.0</ele><time>2026-04-25T09:26:59.937Z</time></trkpt><trkpt lat="43.6053917" lon="12.500605"><ele>455.0</ele><time>2026-04-25T09:27:00.937Z</time></trkpt><trkpt lat="43.6053133" lon="12.50074"><ele>458.0</ele><time>2026-04-25T09:27:01.936Z</time></trkpt><trkpt lat="43.6052283" lon="12.5008683"><ele>458.0</ele><time>2026-04-25T09:27:02.937Z</time></trkpt><trkpt lat="43.6051283" lon="12.50096"><ele>458.0</ele><time>2026-04-25T09:27:03.936Z</time></trkpt><trkpt lat="43.60502" lon="12.5010217"><ele>458.0</ele><time>2026-04-25T09:27:04.936Z</time></trkpt><trkpt lat="43.6049067" lon="12.501075"><ele>458.0</ele><time>2026-04-25T09:27:05.937Z</time></trkpt><trkpt lat="43.6047933" lon="12.5011283"><ele>458.0</ele><time>2026-04-25T09:27:06.937Z</time></trkpt><trkpt lat="43.604685" lon="12.5011767"><ele>458.0</ele><time>2026-04-25T09:27:07.937Z</time></trkpt><trkpt lat="43.6045717" lon="12.5012133"><ele>458.0</ele><time>2026-04-25T09:27:08.937Z</time></trkpt><trkpt lat="43.6044533" lon="12.5012333"><ele>458.0</ele><time>2026-04-25T09:27:09.937Z</time></trkpt><trkpt lat="43.60433" lon="12.5012383"><ele>460.2</ele><time>2026-04-25T09:27:10.937Z</time></trkpt><trkpt lat="43.6042067" lon="12.5012417"><ele>462.4</ele><time>2026-04-25T09:27:11.937Z</time></trkpt><trkpt lat="43.604095" lon="12.50125"><ele>464.59999999999997</ele><time>2026-04-25T09:27:12.937Z</time></trkpt><trkpt lat="43.6040033" lon="12.5012667"><ele>466.79999999999995</ele><time>2026-04-25T09:27:13.936Z</time></trkpt><trkpt lat="43.603925" lon="12.501305"><ele>469.0</ele><time>2026-04-25T09:27:14.937Z</time></trkpt><trkpt lat="43.6038683" lon="12.5013783"><ele>469.6</ele><time>2026-04-25T09:27:15.937Z</time></trkpt><trkpt lat="43.603835" lon="12.5015"><ele>470.2</ele><time>2026-04-25T09:27:16.937Z</time></trkpt><trkpt lat="43.6038083" lon="12.50163"><ele>470.80000000000007</ele><time>2026-04-25T09:27:17.936Z</time></trkpt><trkpt lat="43.60379" lon="12.5017567"><ele>471.40000000000003</ele><time>2026-04-25T09:27:18.937Z</time></trkpt><trkpt lat="43.6037783" lon="12.5018733"><ele>472.0</ele><time>2026-04-25T09:27:19.937Z</time></trkpt><trkpt lat="43.6037717" lon="12.5019817"><ele>471.6666666666667</ele><time>2026-04-25T09:27:20.936Z</time></trkpt><trkpt lat="43.603765" lon="12.5020833"><ele>471.33333333333337</ele><time>2026-04-25T09:27:21.937Z</time></trkpt><trkpt lat="43.60375" lon="12.5021883"><ele>471.0</ele><time>2026-04-25T09:27:22.937Z</time></trkpt><trkpt lat="43.6037217" lon="12.5023033"><ele>470.66666666666663</ele><time>2026-04-25T09:27:23.937Z</time></trkpt><trkpt lat="43.6036883" lon="12.502425"><ele>470.3333333333333</ele><time>2026-04-25T09:27:24.937Z</time></trkpt><trkpt lat="43.603645" lon="12.50255"><ele>470.0</ele><time>2026-04-25T09:27:25.937Z</time></trkpt><trkpt lat="43.6036033" lon="12.5026833"><ele>470.0</ele><time>2026-04-25T09:27:26.937Z</time></trkpt><trkpt lat="43.6035617" lon="12.50282"><ele>470.0</ele><time>2026-04-25T09:27:27.937Z</time></trkpt><trkpt lat="43.603515" lon="12.5029567"><ele>470.0</ele><time>2026-04-25T09:27:28.937Z</time></trkpt><trkpt lat="43.603465" lon="12.5030867"><ele>470.0</ele><time>2026-04-25T09:27:29.937Z</time></trkpt><trkpt lat="43.6034117" lon="12.5032133"><ele>470.0</ele><time>2026-04-25T09:27:30.937Z</time></trkpt><trkpt lat="43.603355" lon="12.5033417"><ele>470.6</ele><time>2026-04-25T09:27:31.937Z</time></trkpt><trkpt lat="43.6033" lon="12.5034633"><ele>471.2</ele><time>2026-04-25T09:27:32.937Z</time></trkpt><trkpt lat="43.6032367" lon="12.50357"><ele>471.79999999999995</ele><time>2026-04-25T09:27:33.937Z</time></trkpt><trkpt lat="43.6031567" lon="12.5036517"><ele>472.4</ele><time>2026-04-25T09:27:34.937Z</time></trkpt><trkpt lat="43.603055" lon="12.5037167"><ele>473.0</ele><time>2026-04-25T09:27:35.936Z</time></trkpt><trkpt lat="43.6029383" lon="12.5037667"><ele>471.75</ele><time>2026-04-25T09:27:36.937Z</time></trkpt><trkpt lat="43.6028233" lon="12.5038083"><ele>470.5</ele><time>2026-04-25T09:27:37.937Z</time></trkpt><trkpt lat="43.6027133" lon="12.50386"><ele>469.25</ele><time>2026-04-25T09:27:38.936Z</time></trkpt><trkpt lat="43.6026117" lon="12.5039233"><ele>468.0</ele><time>2026-04-25T09:27:39.936Z</time></trkpt><trkpt lat="43.6025233" lon="12.5040083"><ele>468.0</ele><time>2026-04-25T09:27:40.937Z</time></trkpt><trkpt lat="43.6024483" lon="12.5041133"><ele>468.0</ele><time>2026-04-25T09:27:41.936Z</time></trkpt><trkpt lat="43.602375" lon="12.5042417"><ele>468.0</ele><time>2026-04-25T09:27:42.936Z</time></trkpt><trkpt lat="43.6022917" lon="12.5043683"><ele>468.0</ele><time>2026-04-25T09:27:43.937Z</time></trkpt><trkpt lat="43.6021983" lon="12.50448"><ele>468.0</ele><time>2026-04-25T09:27:44.937Z</time></trkpt><trkpt lat="43.6020983" lon="12.5045617"><ele>468.0</ele><time>2026-04-25T09:27:45.937Z</time></trkpt><trkpt lat="43.6019917" lon="12.504635"><ele>468.0</ele><time>2026-04-25T09:27:46.936Z</time></trkpt><trkpt lat="43.60189" lon="12.5047"><ele>468.0</ele><time>2026-04-25T09:27:47.937Z</time></trkpt><trkpt lat="43.6017817" lon="12.5047417"><ele>468.1666666666667</ele><time>2026-04-25T09:27:48.937Z</time></trkpt><trkpt lat="43.6016767" lon="12.5047633"><ele>468.33333333333337</ele><time>2026-04-25T09:27:49.937Z</time></trkpt><trkpt lat="43.6015867" lon="12.5047883"><ele>468.5</ele><time>2026-04-25T09:27:50.937Z</time></trkpt><trkpt lat="43.6015267" lon="12.5048267"><ele>468.6666666666667</ele><time>2026-04-25T09:27:51.937Z</time></trkpt><trkpt lat="43.6014917" lon="12.504955"><ele>468.83333333333337</ele><time>2026-04-25T09:27:53.937Z</time></trkpt><trkpt lat="43.6015117" lon="12.5050567"><ele>469.0</ele><time>2026-04-25T09:27:54.937Z</time></trkpt><trkpt lat="43.601525" lon="12.50516"><ele>469.0</ele><time>2026-04-25T09:27:55.936Z</time></trkpt><trkpt lat="43.6015083" lon="12.5052583"><ele>469.0</ele><time>2026-04-25T09:27:56.937Z</time></trkpt><trkpt lat="43.60146" lon="12.5053683"><ele>469.0</ele><time>2026-04-25T09:27:57.936Z</time></trkpt><trkpt lat="43.6013883" lon="12.50549"><ele>469.0</ele><time>2026-04-25T09:27:58.936Z</time></trkpt><trkpt lat="43.6013367" lon="12.5056117"><ele>469.0</ele><time>2026-04-25T09:27:59.937Z</time></trkpt><trkpt lat="43.6012683" lon="12.505695"><ele>468.6</ele><time>2026-04-25T09:28:00.937Z</time></trkpt><trkpt lat="43.6011817" lon="12.50572"><ele>468.2</ele><time>2026-04-25T09:28:01.937Z</time></trkpt><trkpt lat="43.6010817" lon="12.50571"><ele>467.80000000000007</ele><time>2026-04-25T09:28:02.937Z</time></trkpt><trkpt lat="43.6009733" lon="12.5056967"><ele>467.40000000000003</ele><time>2026-04-25T09:28:03.937Z</time></trkpt><trkpt lat="43.6008633" lon="12.505675"><ele>467.0</ele><time>2026-04-25T09:28:04.937Z</time></trkpt><trkpt lat="43.6007533" lon="12.5056417"><ele>467.0</ele><time>2026-04-25T09:28:05.936Z</time></trkpt><trkpt lat="43.6006417" lon="12.5055917"><ele>467.00000000000006</ele><time>2026-04-25T09:28:06.937Z</time></trkpt><trkpt lat="43.600545" lon="12.5055333"><ele>467.00000000000006</ele><time>2026-04-25T09:28:07.937Z</time></trkpt><trkpt lat="43.6004667" lon="12.5054667"><ele>467.0</ele><time>2026-04-25T09:28:08.937Z</time></trkpt><trkpt lat="43.60041" lon="12.5054267"><ele>467.0</ele><time>2026-04-25T09:28:09.937Z</time></trkpt><trkpt lat="43.6003067" lon="12.5054417"><ele>463.40000000000003</ele><time>2026-04-25T09:28:11.936Z</time></trkpt><trkpt lat="43.600255" lon="12.5054933"><ele>459.80000000000007</ele><time>2026-04-25T09:28:12.937Z</time></trkpt><trkpt lat="43.600205" lon="12.5055833"><ele>456.2</ele><time>2026-04-25T09:28:13.937Z</time></trkpt><trkpt lat="43.6001483" lon="12.5056967"><ele>452.6</ele><time>2026-04-25T09:28:14.937Z</time></trkpt><trkpt lat="43.6000783" lon="12.50581"><ele>449.0</ele><time>2026-04-25T09:28:15.937Z</time></trkpt><trkpt lat="43.6" lon="12.505925"><ele>449.0</ele><time>2026-04-25T09:28:16.937Z</time></trkpt><trkpt lat="43.5999117" lon="12.506035"><ele>449.0</ele><time>2026-04-25T09:28:17.937Z</time></trkpt><trkpt lat="43.5998133" lon="12.5061333"><ele>449.0</ele><time>2026-04-25T09:28:18.937Z</time></trkpt><trkpt lat="43.599715" lon="12.5062217"><ele>449.0</ele><time>2026-04-25T09:28:19.936Z</time></trkpt><trkpt lat="43.5996267" lon="12.506305"><ele>450.0</ele><time>2026-04-25T09:28:20.937Z</time></trkpt><trkpt lat="43.5995567" lon="12.506395"><ele>451.0</ele><time>2026-04-25T09:28:21.937Z</time></trkpt><trkpt lat="43.599505" lon="12.506515"><ele>452.0</ele><time>2026-04-25T09:28:22.937Z</time></trkpt><trkpt lat="43.5994833" lon="12.5066717"><ele>453.0</ele><time>2026-04-25T09:28:23.937Z</time></trkpt><trkpt lat="43.5994683" lon="12.5068283"><ele>454.0</ele><time>2026-04-25T09:28:24.937Z</time></trkpt><trkpt lat="43.5994667" lon="12.506975"><ele>448.5</ele><time>2026-04-25T09:28:25.937Z</time></trkpt><trkpt lat="43.5994783" lon="12.50712"><ele>443.0</ele><time>2026-04-25T09:28:26.937Z</time></trkpt><trkpt lat="43.5994767" lon="12.5072683"><ele>437.5</ele><time>2026-04-25T09:28:27.937Z</time></trkpt><trkpt lat="43.5994417" lon="12.50743"><ele>432.0</ele><time>2026-04-25T09:28:28.937Z</time></trkpt><trkpt lat="43.5994133" lon="12.5075983"><ele>432.0</ele><time>2026-04-25T09:28:29.937Z</time></trkpt><trkpt lat="43.5994083" lon="12.5077633"><ele>432.00000000000006</ele><time>2026-04-25T09:28:30.937Z</time></trkpt><trkpt lat="43.599395" lon="12.5079083"><ele>432.00000000000006</ele><time>2026-04-25T09:28:31.937Z</time></trkpt><trkpt lat="43.5993967" lon="12.508025"><ele>432.0</ele><time>2026-04-25T09:28:32.937Z</time></trkpt><trkpt lat="43.5994583" lon="12.5081483"><ele>432.0</ele><time>2026-04-25T09:28:34.937Z</time></trkpt><trkpt lat="43.59953" lon="12.508135"><ele>437.0</ele><time>2026-04-25T09:28:35.937Z</time></trkpt><trkpt lat="43.5996067" lon="12.5081133"><ele>442.0</ele><time>2026-04-25T09:28:36.937Z</time></trkpt><trkpt lat="43.5997233" lon="12.5080667"><ele>447.0</ele><time>2026-04-25T09:28:37.937Z</time></trkpt><trkpt lat="43.5998417" lon="12.5080517"><ele>452.0</ele><time>2026-04-25T09:28:38.937Z</time></trkpt><trkpt lat="43.5999717" lon="12.5080867"><ele>452.0</ele><time>2026-04-25T09:28:39.936Z</time></trkpt><trkpt lat="43.6001083" lon="12.5081433"><ele>452.0</ele><time>2026-04-25T09:28:40.937Z</time></trkpt><trkpt lat="43.6002317" lon="12.5082"><ele>452.0</ele><time>2026-04-25T09:28:41.936Z</time></trkpt><trkpt lat="43.60034" lon="12.508285"><ele>452.0</ele><time>2026-04-25T09:28:42.936Z</time></trkpt><trkpt lat="43.60044" lon="12.5084017"><ele>456.25</ele><time>2026-04-25T09:28:43.937Z</time></trkpt><trkpt lat="43.6005367" lon="12.5085333"><ele>460.5</ele><time>2026-04-25T09:28:44.937Z</time></trkpt><trkpt lat="43.6006183" lon="12.5086733"><ele>464.75</ele><time>2026-04-25T09:28:45.937Z</time></trkpt><trkpt lat="43.600705" lon="12.5087933"><ele>469.0</ele><time>2026-04-25T09:28:46.936Z</time></trkpt><trkpt lat="43.6007983" lon="12.5089017"><ele>469.00000000000006</ele><time>2026-04-25T09:28:47.937Z</time></trkpt><trkpt lat="43.600885" lon="12.5089967"><ele>469.0</ele><time>2026-04-25T09:28:48.937Z</time></trkpt><trkpt lat="43.60095" lon="12.5090867"><ele>469.0</ele><time>2026-04-25T09:28:49.937Z</time></trkpt><trkpt lat="43.6009883" lon="12.5091733"><ele>469.0</ele><time>2026-04-25T09:28:50.937Z</time></trkpt><trkpt lat="43.6009733" lon="12.5092667"><ele>469.00000000000006</ele><time>2026-04-25T09:28:51.936Z</time></trkpt><trkpt lat="43.6009267" lon="12.5093333"><ele>469.0</ele><time>2026-04-25T09:28:52.937Z</time></trkpt><trkpt lat="43.6008567" lon="12.5093717"><ele>469.0</ele><time>2026-04-25T09:28:53.937Z</time></trkpt><trkpt lat="43.6007667" lon="12.5093867"><ele>469.0</ele><time>2026-04-25T09:28:54.936Z</time></trkpt><trkpt lat="43.6006617" lon="12.5094033"><ele>469.0</ele><time>2026-04-25T09:28:55.937Z</time></trkpt><trkpt lat="43.600555" lon="12.5094367"><ele>469.0</ele><time>2026-04-25T09:28:56.936Z</time></trkpt><trkpt lat="43.600455" lon="12.5094733"><ele>469.0</ele><time>2026-04-25T09:28:57.936Z</time></trkpt><trkpt lat="43.6003667" lon="12.50949"><ele>467.4</ele><time>2026-04-25T09:28:58.937Z</time></trkpt><trkpt lat="43.6002817" lon="12.5094667"><ele>465.79999999999995</ele><time>2026-04-25T09:28:59.937Z</time></trkpt><trkpt lat="43.6002083" lon="12.5093883"><ele>464.20000000000005</ele><time>2026-04-25T09:29:00.936Z</time></trkpt><trkpt lat="43.600135" lon="12.5092983"><ele>462.6</ele><time>2026-04-25T09:29:01.936Z</time></trkpt><trkpt lat="43.60005" lon="12.5092333"><ele>461.0</ele><time>2026-04-25T09:29:02.936Z</time></trkpt><trkpt lat="43.5999467" lon="12.5091933"><ele>461.0</ele><time>2026-04-25T09:29:03.937Z</time></trkpt><trkpt lat="43.5998283" lon="12.5091783"><ele>461.0</ele><time>2026-04-25T09:29:04.937Z</time></trkpt><trkpt lat="43.5996917" lon="12.509185"><ele>461.0</ele><time>2026-04-25T09:29:05.937Z</time></trkpt><trkpt lat="43.5995483" lon="12.5092017"><ele>461.0</ele><time>2026-04-25T09:29:06.936Z</time></trkpt><trkpt lat="43.59941" lon="12.5092383"><ele>462.25</ele><time>2026-04-25T09:29:07.936Z</time></trkpt><trkpt lat="43.5992717" lon="12.5092767"><ele>463.5</ele><time>2026-04-25T09:29:08.937Z</time></trkpt><trkpt lat="43.5991333" lon="12.5093067"><ele>464.75</ele><time>2026-04-25T09:29:09.936Z</time></trkpt><trkpt lat="43.5989933" lon="12.5093133"><ele>466.0</ele><time>2026-04-25T09:29:10.936Z</time></trkpt><trkpt lat="43.5988733" lon="12.5092967"><ele>466.00000000000006</ele><time>2026-04-25T09:29:11.936Z</time></trkpt><trkpt lat="43.59878" lon="12.5092783"><ele>466.0</ele><time>2026-04-25T09:29:12.937Z</time></trkpt><trkpt lat="43.59871" lon="12.50928"><ele>466.0</ele><time>2026-04-25T09:29:13.937Z</time></trkpt><trkpt lat="43.5986467" lon="12.5093567"><ele>466.0</ele><time>2026-04-25T09:29:15.937Z</time></trkpt><trkpt lat="43.5987017" lon="12.50943"><ele>466.00000000000006</ele><time>2026-04-25T09:29:17.937Z</time></trkpt><trkpt lat="43.5988" lon="12.50945"><ele>466.0</ele><time>2026-04-25T09:29:18.936Z</time></trkpt><trkpt lat="43.5989267" lon="12.5094783"><ele>466.0</ele><time>2026-04-25T09:29:19.936Z</time></trkpt><trkpt lat="43.5990617" lon="12.5095083"><ele>466.0</ele><time>2026-04-25T09:29:20.937Z</time></trkpt><trkpt lat="43.5991967" lon="12.5095267"><ele>466.0</ele><time>2026-04-25T09:29:21.937Z</time></trkpt><trkpt lat="43.5993283" lon="12.509545"><ele>466.0</ele><time>2026-04-25T09:29:22.936Z</time></trkpt><trkpt lat="43.599455" lon="12.509585"><ele>471.25</ele><time>2026-04-25T09:29:23.937Z</time></trkpt><trkpt lat="43.5995833" lon="12.50965"><ele>476.5</ele><time>2026-04-25T09:29:24.938Z</time></trkpt><trkpt lat="43.5997067" lon="12.5097267"><ele>481.75</ele><time>2026-04-25T09:29:25.937Z</time></trkpt><trkpt lat="43.5998233" lon="12.509805"><ele>487.0</ele><time>2026-04-25T09:29:26.938Z</time></trkpt><trkpt lat="43.5999267" lon="12.5099017"><ele>487.0</ele><time>2026-04-25T09:29:27.938Z</time></trkpt><trkpt lat="43.6000217" lon="12.51002"><ele>487.0</ele><time>2026-04-25T09:29:28.938Z</time></trkpt><trkpt lat="43.6001067" lon="12.5101483"><ele>487.0</ele><time>2026-04-25T09:29:29.937Z</time></trkpt><trkpt lat="43.6001983" lon="12.5102617"><ele>487.0</ele><time>2026-04-25T09:29:30.938Z</time></trkpt><trkpt lat="43.6002967" lon="12.5103517"><ele>494.5</ele><time>2026-04-25T09:29:31.938Z</time></trkpt><trkpt lat="43.60041" lon="12.510415"><ele>502.0</ele><time>2026-04-25T09:29:32.938Z</time></trkpt><trkpt lat="43.6005283" lon="12.5104517"><ele>509.5</ele><time>2026-04-25T09:29:33.938Z</time></trkpt><trkpt lat="43.60064" lon="12.510455"><ele>517.0</ele><time>2026-04-25T09:29:34.938Z</time></trkpt><trkpt lat="43.6007583" lon="12.510425"><ele>511.75</ele><time>2026-04-25T09:29:35.938Z</time></trkpt><trkpt lat="43.6008833" lon="12.5103967"><ele>506.5</ele><time>2026-04-25T09:29:36.937Z</time></trkpt><trkpt lat="43.6010117" lon="12.51038"><ele>501.25</ele><time>2026-04-25T09:29:37.938Z</time></trkpt><trkpt lat="43.601145" lon="12.51038"><ele>496.0</ele><time>2026-04-25T09:29:38.938Z</time></trkpt><trkpt lat="43.6012817" lon="12.5103967"><ele>502.5</ele><time>2026-04-25T09:29:39.938Z</time></trkpt><trkpt lat="43.60142" lon="12.5104233"><ele>509.0</ele><time>2026-04-25T09:29:40.938Z</time></trkpt><trkpt lat="43.6015583" lon="12.51045"><ele>515.5</ele><time>2026-04-25T09:29:41.937Z</time></trkpt><trkpt lat="43.601685" lon="12.5104583"><ele>522.0</ele><time>2026-04-25T09:29:42.937Z</time></trkpt><trkpt lat="43.601785" lon="12.5104683"><ele>522.0</ele><time>2026-04-25T09:29:43.938Z</time></trkpt><trkpt lat="43.6018583" lon="12.51049"><ele>522.0</ele><time>2026-04-25T09:29:44.937Z</time></trkpt><trkpt lat="43.601915" lon="12.5105767"><ele>522.0</ele><time>2026-04-25T09:29:46.938Z</time></trkpt><trkpt lat="43.60182" lon="12.5106717"><ele>522.0</ele><time>2026-04-25T09:29:48.938Z</time></trkpt><trkpt lat="43.60173" lon="12.51068"><ele>522.0</ele><time>2026-04-25T09:29:49.938Z</time></trkpt><trkpt lat="43.6016133" lon="12.5106767"><ele>522.0</ele><time>2026-04-25T09:29:50.937Z</time></trkpt><trkpt lat="43.60148" lon="12.51068"><ele>522.0</ele><time>2026-04-25T09:29:51.938Z</time></trkpt><trkpt lat="43.6013417" lon="12.5106883"><ele>522.0</ele><time>2026-04-25T09:29:52.938Z</time></trkpt><trkpt lat="43.6012" lon="12.5107017"><ele>522.0</ele><time>2026-04-25T09:29:53.938Z</time></trkpt><trkpt lat="43.6010817" lon="12.51072"><ele>521.0</ele><time>2026-04-25T09:29:54.938Z</time></trkpt><trkpt lat="43.60099" lon="12.510755"><ele>520.0</ele><time>2026-04-25T09:29:55.938Z</time></trkpt><trkpt lat="43.6009167" lon="12.5108183"><ele>519.0</ele><time>2026-04-25T09:29:56.937Z</time></trkpt><trkpt lat="43.6008533" lon="12.51091"><ele>518.0</ele><time>2026-04-25T09:29:57.937Z</time></trkpt><trkpt lat="43.6007867" lon="12.510995"><ele>517.0</ele><time>2026-04-25T09:29:58.938Z</time></trkpt><trkpt lat="43.6007033" lon="12.5110433"><ele>517.0</ele><time>2026-04-25T09:29:59.937Z</time></trkpt><trkpt lat="43.600605" lon="12.5110583"><ele>517.0</ele><time>2026-04-25T09:30:00.938Z</time></trkpt><trkpt lat="43.6005067" lon="12.5110467"><ele>517.0</ele><time>2026-04-25T09:30:01.938Z</time></trkpt><trkpt lat="43.6004233" lon="12.5110217"><ele>517.0</ele><time>2026-04-25T09:30:02.938Z</time></trkpt><trkpt lat="43.6003317" lon="12.5110283"><ele>517.0</ele><time>2026-04-25T09:30:04.938Z</time></trkpt><trkpt lat="43.6003667" lon="12.51113"><ele>517.0</ele><time>2026-04-25T09:30:07.938Z</time></trkpt><trkpt lat="43.6004267" lon="12.511175"><ele>517.0</ele><time>2026-04-25T09:30:08.938Z</time></trkpt><trkpt lat="43.6005017" lon="12.51122"><ele>517.0</ele><time>2026-04-25T09:30:09.938Z</time></trkpt><trkpt lat="43.6005883" lon="12.5112667"><ele>517.0</ele><time>2026-04-25T09:30:10.938Z</time></trkpt><trkpt lat="43.6006817" lon="12.5113117"><ele>517.0</ele><time>2026-04-25T09:30:11.938Z</time></trkpt><trkpt lat="43.600775" lon="12.5113467"><ele>517.0</ele><time>2026-04-25T09:30:12.938Z</time></trkpt><trkpt lat="43.600865" lon="12.5113633"><ele>517.0</ele><time>2026-04-25T09:30:13.937Z</time></trkpt><trkpt lat="43.6009467" lon="12.5113483"><ele>517.0</ele><time>2026-04-25T09:30:14.938Z</time></trkpt><trkpt lat="43.601015" lon="12.5112933"><ele>517.0</ele><time>2026-04-25T09:30:15.937Z</time></trkpt><trkpt lat="43.6010817" lon="12.5112333"><ele>517.0</ele><time>2026-04-25T09:30:16.938Z</time></trkpt><trkpt lat="43.6011483" lon="12.5112"><ele>517.0</ele><time>2026-04-25T09:30:17.937Z</time></trkpt><trkpt lat="43.6012267" lon="12.5112033"><ele>517.0</ele><time>2026-04-25T09:30:18.938Z</time></trkpt><trkpt lat="43.6013217" lon="12.5112283"><ele>526.75</ele><time>2026-04-25T09:30:19.938Z</time></trkpt><trkpt lat="43.601435" lon="12.511265"><ele>536.5</ele><time>2026-04-25T09:30:20.938Z</time></trkpt><trkpt lat="43.6015567" lon="12.5113033"><ele>546.25</ele><time>2026-04-25T09:30:21.938Z</time></trkpt><trkpt lat="43.6016733" lon="12.511365"><ele>556.0</ele><time>2026-04-25T09:30:22.938Z</time></trkpt><trkpt lat="43.6017783" lon="12.51145"><ele>556.0</ele><time>2026-04-25T09:30:23.938Z</time></trkpt><trkpt lat="43.6018767" lon="12.5115417"><ele>556.0</ele><time>2026-04-25T09:30:24.938Z</time></trkpt><trkpt lat="43.6019583" lon="12.51164"><ele>556.0</ele><time>2026-04-25T09:30:25.938Z</time></trkpt><trkpt lat="43.6020283" lon="12.5117533"><ele>556.0</ele><time>2026-04-25T09:30:26.938Z</time></trkpt><trkpt lat="43.6020817" lon="12.5118817"><ele>556.0</ele><time>2026-04-25T09:30:27.938Z</time></trkpt><trkpt lat="43.6021333" lon="12.5120233"><ele>559.6</ele><time>2026-04-25T09:30:28.938Z</time></trkpt><trkpt lat="43.6021733" lon="12.5121683"><ele>563.2</ele><time>2026-04-25T09:30:29.938Z</time></trkpt><trkpt lat="43.6022083" lon="12.5122817"><ele>566.8</ele><time>2026-04-25T09:30:30.938Z</time></trkpt><trkpt lat="43.6023" lon="12.512385"><ele>570.4</ele><time>2026-04-25T09:30:32.937Z</time></trkpt><trkpt lat="43.6023767" lon="12.51238"><ele>574.0</ele><time>2026-04-25T09:30:33.936Z</time></trkpt><trkpt lat="43.602465" lon="12.51236"><ele>574.0</ele><time>2026-04-25T09:30:34.937Z</time></trkpt><trkpt lat="43.60254" lon="12.5123633"><ele>574.0</ele><time>2026-04-25T09:30:35.936Z</time></trkpt><trkpt lat="43.60261" lon="12.5123983"><ele>574.0</ele><time>2026-04-25T09:30:36.937Z</time></trkpt><trkpt lat="43.6026583" lon="12.5124717"><ele>574.0</ele><time>2026-04-25T09:30:37.936Z</time></trkpt><trkpt lat="43.6026667" lon="12.51257"><ele>574.0</ele><time>2026-04-25T09:30:38.937Z</time></trkpt><trkpt lat="43.6026383" lon="12.51267"><ele>574.0</ele><time>2026-04-25T09:30:39.937Z</time></trkpt><trkpt lat="43.602575" lon="12.5127533"><ele>574.0</ele><time>2026-04-25T09:30:40.937Z</time></trkpt><trkpt lat="43.602495" lon="12.512815"><ele>574.0</ele><time>2026-04-25T09:30:41.936Z</time></trkpt><trkpt lat="43.6024133" lon="12.512865"><ele>574.0</ele><time>2026-04-25T09:30:42.936Z</time></trkpt><trkpt lat="43.6023417" lon="12.5129183"><ele>574.0</ele><time>2026-04-25T09:30:43.937Z</time></trkpt><trkpt lat="43.6023" lon="12.513045"><ele>574.0</ele><time>2026-04-25T09:30:45.937Z</time></trkpt><trkpt lat="43.6023983" lon="12.5131633"><ele>577.4</ele><time>2026-04-25T09:30:47.937Z</time></trkpt><trkpt lat="43.60248" lon="12.5132033"><ele>580.8</ele><time>2026-04-25T09:30:48.937Z</time></trkpt><trkpt lat="43.6025733" lon="12.5132567"><ele>584.2</ele><time>2026-04-25T09:30:49.937Z</time></trkpt><trkpt lat="43.602665" lon="12.5133133"><ele>587.6</ele><time>2026-04-25T09:30:50.937Z</time></trkpt><trkpt lat="43.6027483" lon="12.5133417"><ele>591.0</ele><time>2026-04-25T09:30:51.937Z</time></trkpt><trkpt lat="43.6028233" lon="12.5133217"><ele>592.0</ele><time>2026-04-25T09:30:52.937Z</time></trkpt><trkpt lat="43.602885" lon="12.5132467"><ele>593.0</ele><time>2026-04-25T09:30:53.937Z</time></trkpt><trkpt lat="43.6029417" lon="12.5131383"><ele>594.0</ele><time>2026-04-25T09:30:54.937Z</time></trkpt><trkpt lat="43.6029983" lon="12.5130067"><ele>595.0</ele><time>2026-04-25T09:30:55.936Z</time></trkpt><trkpt lat="43.60306" lon="12.5128583"><ele>596.0</ele><time>2026-04-25T09:30:56.937Z</time></trkpt><trkpt lat="43.6031317" lon="12.5127067"><ele>596.0</ele><time>2026-04-25T09:30:57.937Z</time></trkpt><trkpt lat="43.6032017" lon="12.5125533"><ele>596.0</ele><time>2026-04-25T09:30:58.937Z</time></trkpt><trkpt lat="43.6032767" lon="12.5124333"><ele>596.0</ele><time>2026-04-25T09:30:59.936Z</time></trkpt><trkpt lat="43.6033667" lon="12.5123433"><ele>596.0</ele><time>2026-04-25T09:31:00.937Z</time></trkpt><trkpt lat="43.6034733" lon="12.51227"><ele>596.0</ele><time>2026-04-25T09:31:01.936Z</time></trkpt><trkpt lat="43.6035933" lon="12.5122033"><ele>596.0</ele><time>2026-04-25T09:31:02.936Z</time></trkpt><trkpt lat="43.6037283" lon="12.5121333"><ele>596.0</ele><time>2026-04-25T09:31:03.937Z</time></trkpt><trkpt lat="43.6038717" lon="12.512065"><ele>596.0</ele><time>2026-04-25T09:31:04.937Z</time></trkpt><trkpt lat="43.6040183" lon="12.512"><ele>597.25</ele><time>2026-04-25T09:31:05.937Z</time></trkpt><trkpt lat="43.6041583" lon="12.5119467"><ele>598.5</ele><time>2026-04-25T09:31:06.937Z</time></trkpt><trkpt lat="43.6042967" lon="12.5119133"><ele>599.75</ele><time>2026-04-25T09:31:07.936Z</time></trkpt><trkpt lat="43.60444" lon="12.5119033"><ele>601.0</ele><time>2026-04-25T09:31:08.936Z</time></trkpt><trkpt lat="43.604585" lon="12.511905"><ele>603.0</ele><time>2026-04-25T09:31:09.937Z</time></trkpt><trkpt lat="43.6047333" lon="12.51191"><ele>605.0</ele><time>2026-04-25T09:31:10.937Z</time></trkpt><trkpt lat="43.6048783" lon="12.5119167"><ele>607.0</ele><time>2026-04-25T09:31:11.937Z</time></trkpt><trkpt lat="43.6050267" lon="12.5119367"><ele>609.0</ele><time>2026-04-25T09:31:12.936Z</time></trkpt><trkpt lat="43.605165" lon="12.5119683"><ele>609.0</ele><time>2026-04-25T09:31:13.937Z</time></trkpt><trkpt lat="43.6053017" lon="12.5120133"><ele>609.0</ele><time>2026-04-25T09:31:14.936Z</time></trkpt><trkpt lat="43.6054433" lon="12.512075"><ele>609.0</ele><time>2026-04-25T09:31:15.937Z</time></trkpt><trkpt lat="43.6055833" lon="12.51215"><ele>609.0</ele><time>2026-04-25T09:31:16.937Z</time></trkpt><trkpt lat="43.6057183" lon="12.5122267"><ele>615.5</ele><time>2026-04-25T09:31:17.937Z</time></trkpt><trkpt lat="43.60585" lon="12.5123017"><ele>622.0</ele><time>2026-04-25T09:31:18.936Z</time></trkpt><trkpt lat="43.6059767" lon="12.5123683"><ele>628.5</ele><time>2026-04-25T09:31:19.937Z</time></trkpt><trkpt lat="43.6061033" lon="12.5124217"><ele>635.0</ele><time>2026-04-25T09:31:20.937Z</time></trkpt><trkpt lat="43.606215" lon="12.5124717"><ele>635.0</ele><time>2026-04-25T09:31:21.936Z</time></trkpt><trkpt lat="43.6063" lon="12.5125417"><ele>635.0</ele><time>2026-04-25T09:31:22.937Z</time></trkpt><trkpt lat="43.6063717" lon="12.5126417"><ele>635.0</ele><time>2026-04-25T09:31:23.936Z</time></trkpt><trkpt lat="43.60643" lon="12.5127667"><ele>635.0</ele><time>2026-04-25T09:31:24.937Z</time></trkpt><trkpt lat="43.60648" lon="12.5128867"><ele>635.0</ele><time>2026-04-25T09:31:25.937Z</time></trkpt><trkpt lat="43.6065417" lon="12.5129833"><ele>642.25</ele><time>2026-04-25T09:31:26.937Z</time></trkpt><trkpt lat="43.6066317" lon="12.5130383"><ele>649.5</ele><time>2026-04-25T09:31:27.936Z</time></trkpt><trkpt lat="43.6067417" lon="12.513065"><ele>656.75</ele><time>2026-04-25T09:31:28.937Z</time></trkpt><trkpt lat="43.606865" lon="12.5130667"><ele>664.0</ele><time>2026-04-25T09:31:29.936Z</time></trkpt><trkpt lat="43.607" lon="12.5130533"><ele>665.75</ele><time>2026-04-25T09:31:30.936Z</time></trkpt><trkpt lat="43.6071417" lon="12.5130383"><ele>667.5</ele><time>2026-04-25T09:31:31.937Z</time></trkpt><trkpt lat="43.6072867" lon="12.5130533"><ele>669.25</ele><time>2026-04-25T09:31:32.937Z</time></trkpt><trkpt lat="43.6074333" lon="12.5130833"><ele>671.0</ele><time>2026-04-25T09:31:33.936Z</time></trkpt><trkpt lat="43.6075717" lon="12.51313"><ele>671.0</ele><time>2026-04-25T09:31:34.937Z</time></trkpt><trkpt lat="43.6077083" lon="12.5131767"><ele>671.0</ele><time>2026-04-25T09:31:35.937Z</time></trkpt><trkpt lat="43.607835" lon="12.5132217"><ele>671.0</ele><time>2026-04-25T09:31:36.937Z</time></trkpt><trkpt lat="43.60795" lon="12.51328"><ele>671.0</ele><time>2026-04-25T09:31:37.936Z</time></trkpt><trkpt lat="43.60806" lon="12.513365"><ele>670.25</ele><time>2026-04-25T09:31:38.937Z</time></trkpt><trkpt lat="43.6081717" lon="12.5134733"><ele>669.5</ele><time>2026-04-25T09:31:39.937Z</time></trkpt><trkpt lat="43.6082883" lon="12.5136"><ele>668.75</ele><time>2026-04-25T09:31:40.936Z</time></trkpt><trkpt lat="43.6084133" lon="12.5137267"><ele>668.0</ele><time>2026-04-25T09:31:41.937Z</time></trkpt><trkpt lat="43.6085433" lon="12.513845"><ele>672.25</ele><time>2026-04-25T09:31:42.936Z</time></trkpt><trkpt lat="43.60867" lon="12.51395"><ele>676.5</ele><time>2026-04-25T09:31:43.937Z</time></trkpt><trkpt lat="43.6087833" lon="12.5140467"><ele>680.75</ele><time>2026-04-25T09:31:44.937Z</time></trkpt><trkpt lat="43.6088833" lon="12.51413"><ele>685.0</ele><time>2026-04-25T09:31:45.937Z</time></trkpt><trkpt lat="43.6089717" lon="12.5141983"><ele>685.0</ele><time>2026-04-25T09:31:46.937Z</time></trkpt><trkpt lat="43.6090467" lon="12.5142433"><ele>685.0</ele><time>2026-04-25T09:31:47.937Z</time></trkpt><trkpt lat="43.609135" lon="12.5143133"><ele>685.0</ele><time>2026-04-25T09:31:49.937Z</time></trkpt><trkpt lat="43.609035" lon="12.5142817"><ele>685.0</ele><time>2026-04-25T09:32:16.937Z</time></trkpt><trkpt lat="43.6089833" lon="12.5142033"><ele>685.0</ele><time>2026-04-25T09:32:18.937Z</time></trkpt><trkpt lat="43.609065" lon="12.5141483"><ele>685.0</ele><time>2026-04-25T09:32:21.937Z</time></trkpt><trkpt lat="43.60918" lon="12.5141633"><ele>685.0</ele><time>2026-04-25T09:32:23.936Z</time></trkpt><trkpt lat="43.60925" lon="12.5141633"><ele>685.0</ele><time>2026-04-25T09:32:24.937Z</time></trkpt><trkpt lat="43.60933" lon="12.5141567"><ele>685.0</ele><time>2026-04-25T09:32:25.937Z</time></trkpt><trkpt lat="43.60941" lon="12.5141467"><ele>685.0</ele><time>2026-04-25T09:32:26.937Z</time></trkpt><trkpt lat="43.6094883" lon="12.514125"><ele>685.0</ele><time>2026-04-25T09:32:27.937Z</time></trkpt><trkpt lat="43.6095667" lon="12.5140883"><ele>684.2</ele><time>2026-04-25T09:32:28.937Z</time></trkpt><trkpt lat="43.6096517" lon="12.514035"><ele>683.4</ele><time>2026-04-25T09:32:29.936Z</time></trkpt><trkpt lat="43.6097383" lon="12.51396"><ele>682.5999999999999</ele><time>2026-04-25T09:32:30.936Z</time></trkpt><trkpt lat="43.6098317" lon="12.513875"><ele>681.8</ele><time>2026-04-25T09:32:31.937Z</time></trkpt><trkpt lat="43.60993" lon="12.5137917"><ele>681.0</ele><time>2026-04-25T09:32:32.936Z</time></trkpt><trkpt lat="43.61003" lon="12.5137233"><ele>681.0</ele><time>2026-04-25T09:32:33.937Z</time></trkpt><trkpt lat="43.610135" lon="12.5136833"><ele>681.0</ele><time>2026-04-25T09:32:34.937Z</time></trkpt><trkpt lat="43.6102433" lon="12.513665"><ele>681.0</ele><time>2026-04-25T09:32:35.937Z</time></trkpt><trkpt lat="43.6103617" lon="12.5136717"><ele>681.0</ele><time>2026-04-25T09:32:36.937Z</time></trkpt><trkpt lat="43.6104933" lon="12.5136983"><ele>681.0</ele><time>2026-04-25T09:32:37.937Z</time></trkpt><trkpt lat="43.6106333" lon="12.513735"><ele>681.0</ele><time>2026-04-25T09:32:38.937Z</time></trkpt><trkpt lat="43.61077" lon="12.51377"><ele>681.0</ele><time>2026-04-25T09:32:39.937Z</time></trkpt><trkpt lat="43.6108983" lon="12.5138033"><ele>681.0</ele><time>2026-04-25T09:32:40.937Z</time></trkpt><trkpt lat="43.61102" lon="12.51383"><ele>681.5</ele><time>2026-04-25T09:32:41.936Z</time></trkpt><trkpt lat="43.6111517" lon="12.51385"><ele>682.0</ele><time>2026-04-25T09:32:42.937Z</time></trkpt><trkpt lat="43.6112833" lon="12.5138717"><ele>682.5</ele><time>2026-04-25T09:32:43.937Z</time></trkpt><trkpt lat="43.6114067" lon="12.5138883"><ele>683.0</ele><time>2026-04-25T09:32:44.937Z</time></trkpt><trkpt lat="43.611535" lon="12.5139033"><ele>683.0</ele><time>2026-04-25T09:32:45.937Z</time></trkpt><trkpt lat="43.6116683" lon="12.5139233"><ele>683.0</ele><time>2026-04-25T09:32:46.937Z</time></trkpt><trkpt lat="43.6117967" lon="12.51396"><ele>683.0</ele><time>2026-04-25T09:32:47.937Z</time></trkpt><trkpt lat="43.6119183" lon="12.5140033"><ele>683.0</ele><time>2026-04-25T09:32:48.937Z</time></trkpt><trkpt lat="43.6120433" lon="12.5140517"><ele>685.75</ele><time>2026-04-25T09:32:49.937Z</time></trkpt><trkpt lat="43.6121783" lon="12.5140933"><ele>688.5</ele><time>2026-04-25T09:32:50.936Z</time></trkpt><trkpt lat="43.612305" lon="12.5141283"><ele>691.25</ele><time>2026-04-25T09:32:51.937Z</time></trkpt><trkpt lat="43.6124233" lon="12.514155"><ele>694.0</ele><time>2026-04-25T09:32:52.937Z</time></trkpt><trkpt lat="43.6125483" lon="12.5141683"><ele>694.0</ele><time>2026-04-25T09:32:53.937Z</time></trkpt><trkpt lat="43.61268" lon="12.5141683"><ele>694.0</ele><time>2026-04-25T09:32:54.936Z</time></trkpt><trkpt lat="43.6128167" lon="12.5141517"><ele>694.0</ele><time>2026-04-25T09:32:55.937Z</time></trkpt><trkpt lat="43.6129583" lon="12.5141383"><ele>694.0</ele><time>2026-04-25T09:32:56.937Z</time></trkpt><trkpt lat="43.6130967" lon="12.5141317"><ele>696.25</ele><time>2026-04-25T09:32:57.937Z</time></trkpt><trkpt lat="43.61323" lon="12.5141233"><ele>698.5</ele><time>2026-04-25T09:32:58.937Z</time></trkpt><trkpt lat="43.613355" lon="12.5141217"><ele>700.75</ele><time>2026-04-25T09:32:59.937Z</time></trkpt><trkpt lat="43.6134795" lon="12.5141167"><ele>703.0</ele><time>2026-04-25T09:33:00.937Z</time></trkpt><trkpt lat="43.6136032" lon="12.5140995"><ele>704.75</ele><time>2026-04-25T09:33:01.937Z</time></trkpt><trkpt lat="43.6137181" lon="12.5140671"><ele>706.5</ele><time>2026-04-25T09:33:02.936Z</time></trkpt><trkpt lat="43.6138321" lon="12.514014"><ele>708.25</ele><time>2026-04-25T09:33:03.937Z</time></trkpt><trkpt lat="43.6139466" lon="12.5139564"><ele>710.0</ele><time>2026-04-25T09:33:04.937Z</time></trkpt><trkpt lat="43.6140639" lon="12.5139067"><ele>710.0</ele><time>2026-04-25T09:33:05.937Z</time></trkpt><trkpt lat="43.6141807" lon="12.5138729"><ele>710.0</ele><time>2026-04-25T09:33:06.936Z</time></trkpt><trkpt lat="43.6142916" lon="12.5138532"><ele>710.0</ele><time>2026-04-25T09:33:07.936Z</time></trkpt><trkpt lat="43.6143988" lon="12.513841"><ele>710.0</ele><time>2026-04-25T09:33:08.937Z</time></trkpt><trkpt lat="43.614501" lon="12.5138223"><ele>710.0</ele><time>2026-04-25T09:33:09.937Z</time></trkpt><trkpt lat="43.6145871" lon="12.5137859"><ele>706.5</ele><time>2026-04-25T09:33:10.937Z</time></trkpt><trkpt lat="43.614654" lon="12.5137264"><ele>703.0</ele><time>2026-04-25T09:33:11.937Z</time></trkpt><trkpt lat="43.6147042" lon="12.513644"><ele>699.5</ele><time>2026-04-25T09:33:12.937Z</time></trkpt><trkpt lat="43.614732" lon="12.5135559"><ele>696.0</ele><time>2026-04-25T09:33:13.936Z</time></trkpt><trkpt lat="43.6147385" lon="12.5134582"><ele>692.5</ele><time>2026-04-25T09:33:14.936Z</time></trkpt><trkpt lat="43.6147235" lon="12.513332"><ele>689.0</ele><time>2026-04-25T09:33:15.936Z</time></trkpt><trkpt lat="43.6147015" lon="12.5131995"><ele>689.0</ele><time>2026-04-25T09:33:16.936Z</time></trkpt><trkpt lat="43.6146775" lon="12.5130609"><ele>689.0</ele><time>2026-04-25T09:33:17.937Z</time></trkpt><trkpt lat="43.6146432" lon="12.5129173"><ele>689.0</ele><time>2026-04-25T09:33:18.937Z</time></trkpt><trkpt lat="43.6146013" lon="12.5127724"><ele>689.0</ele><time>2026-04-25T09:33:19.937Z</time></trkpt><trkpt lat="43.6145585" lon="12.5126146"><ele>689.0</ele><time>2026-04-25T09:33:20.937Z</time></trkpt><trkpt lat="43.6145174" lon="12.5124432"><ele>691.5</ele><time>2026-04-25T09:33:21.937Z</time></trkpt><trkpt lat="43.614477" lon="12.5122622"><ele>694.0</ele><time>2026-04-25T09:33:22.937Z</time></trkpt><trkpt lat="43.6144382" lon="12.5120786"><ele>696.5</ele><time>2026-04-25T09:33:23.937Z</time></trkpt><trkpt lat="43.6144013" lon="12.5119011"><ele>699.0</ele><time>2026-04-25T09:33:24.936Z</time></trkpt><trkpt lat="43.6143611" lon="12.511716"><ele>699.0</ele><time>2026-04-25T09:33:25.937Z</time></trkpt><trkpt lat="43.6143249" lon="12.5115279"><ele>699.0</ele><time>2026-04-25T09:33:26.936Z</time></trkpt><trkpt lat="43.6142872" lon="12.5113361"><ele>699.0</ele><time>2026-04-25T09:33:27.937Z</time></trkpt><trkpt lat="43.6142487" lon="12.5111412"><ele>699.0</ele><time>2026-04-25T09:33:28.936Z</time></trkpt><trkpt lat="43.614213" lon="12.5109572"><ele>694.5</ele><time>2026-04-25T09:33:29.937Z</time></trkpt><trkpt lat="43.6141764" lon="12.5107741"><ele>690.0</ele><time>2026-04-25T09:33:30.937Z</time></trkpt><trkpt lat="43.6141318" lon="12.5105805"><ele>685.5</ele><time>2026-04-25T09:33:31.936Z</time></trkpt><trkpt lat="43.6140888" lon="12.510385"><ele>681.0</ele><time>2026-04-25T09:33:32.937Z</time></trkpt><trkpt lat="43.6140471" lon="12.5101895"><ele>677.25</ele><time>2026-04-25T09:33:33.937Z</time></trkpt><trkpt lat="43.6140019" lon="12.5100045"><ele>673.5</ele><time>2026-04-25T09:33:34.937Z</time></trkpt><trkpt lat="43.6139578" lon="12.5098359"><ele>669.75</ele><time>2026-04-25T09:33:35.937Z</time></trkpt><trkpt lat="43.6139109" lon="12.5096819"><ele>666.0</ele><time>2026-04-25T09:33:36.937Z</time></trkpt><trkpt lat="43.6138626" lon="12.5095338"><ele>664.5999999999999</ele><time>2026-04-25T09:33:37.937Z</time></trkpt><trkpt lat="43.6138134" lon="12.5093916"><ele>663.2</ele><time>2026-04-25T09:33:38.937Z</time></trkpt><trkpt lat="43.6137625" lon="12.5092479"><ele>661.8</ele><time>2026-04-25T09:33:39.937Z</time></trkpt><trkpt lat="43.6137208" lon="12.5091102"><ele>660.4000000000001</ele><time>2026-04-25T09:33:40.936Z</time></trkpt><trkpt lat="43.6136991" lon="12.5089932"><ele>659.0</ele><time>2026-04-25T09:33:41.936Z</time></trkpt><trkpt lat="43.6137089" lon="12.508893"><ele>659.0</ele><time>2026-04-25T09:33:42.937Z</time></trkpt><trkpt lat="43.6137487" lon="12.5087969"><ele>659.0</ele><time>2026-04-25T09:33:43.937Z</time></trkpt><trkpt lat="43.6137851" lon="12.5087055"><ele>659.0</ele><time>2026-04-25T09:33:44.937Z</time></trkpt><trkpt lat="43.6137997" lon="12.5086197"><ele>659.0</ele><time>2026-04-25T09:33:45.937Z</time></trkpt><trkpt lat="43.6138112" lon="12.5084831"><ele>659.0</ele><time>2026-04-25T09:33:47.937Z</time></trkpt><trkpt lat="43.613823" lon="12.5083506"><ele>659.0</ele><time>2026-04-25T09:33:49.937Z</time></trkpt><trkpt lat="43.6138124" lon="12.5082628"><ele>658.5</ele><time>2026-04-25T09:33:50.937Z</time></trkpt><trkpt lat="43.6137981" lon="12.5081655"><ele>658.0</ele><time>2026-04-25T09:33:51.937Z</time></trkpt><trkpt lat="43.6137869" lon="12.5080637"><ele>657.5</ele><time>2026-04-25T09:33:52.937Z</time></trkpt><trkpt lat="43.6137901" lon="12.5079581"><ele>657.0</ele><time>2026-04-25T09:33:53.936Z</time></trkpt><trkpt lat="43.6138095" lon="12.5078515"><ele>656.5</ele><time>2026-04-25T09:33:54.937Z</time></trkpt><trkpt lat="43.6138302" lon="12.5077488"><ele>656.0</ele><time>2026-04-25T09:33:55.937Z</time></trkpt><trkpt lat="43.613846" lon="12.5076507"><ele>657.5</ele><time>2026-04-25T09:33:56.937Z</time></trkpt><trkpt lat="43.6138632" lon="12.507549"><ele>659.0</ele><time>2026-04-25T09:33:57.936Z</time></trkpt><trkpt lat="43.6138912" lon="12.5074499"><ele>660.5</ele><time>2026-04-25T09:33:58.937Z</time></trkpt><trkpt lat="43.6139371" lon="12.507371"><ele>662.0</ele><time>2026-04-25T09:33:59.937Z</time></trkpt><trkpt lat="43.614005" lon="12.50732"><ele>663.5</ele><time>2026-04-25T09:34:00.937Z</time></trkpt><trkpt lat="43.6140915" lon="12.5072933"><ele>665.0</ele><time>2026-04-25T09:34:01.937Z</time></trkpt><trkpt lat="43.6141955" lon="12.5072873"><ele>665.0</ele><time>2026-04-25T09:34:02.937Z</time></trkpt><trkpt lat="43.6143078" lon="12.5072885"><ele>665.0</ele><time>2026-04-25T09:34:03.937Z</time></trkpt><trkpt lat="43.6144222" lon="12.5072947"><ele>665.0</ele><time>2026-04-25T09:34:04.937Z</time></trkpt><trkpt lat="43.6145324" lon="12.5073056"><ele>665.0</ele><time>2026-04-25T09:34:05.937Z</time></trkpt><trkpt lat="43.6146367" lon="12.5073303"><ele>665.0</ele><time>2026-04-25T09:34:06.937Z</time></trkpt><trkpt lat="43.614739" lon="12.5073544"><ele>662.4</ele><time>2026-04-25T09:34:07.936Z</time></trkpt><trkpt lat="43.6148406" lon="12.5073751"><ele>659.8</ele><time>2026-04-25T09:34:08.936Z</time></trkpt><trkpt lat="43.6149416" lon="12.5073948"><ele>657.2</ele><time>2026-04-25T09:34:09.937Z</time></trkpt><trkpt lat="43.6150359" lon="12.5074088"><ele>654.6</ele><time>2026-04-25T09:34:10.937Z</time></trkpt><trkpt lat="43.6151242" lon="12.50741"><ele>652.0</ele><time>2026-04-25T09:34:11.937Z</time></trkpt><trkpt lat="43.6152005" lon="12.5073936"><ele>652.0</ele><time>2026-04-25T09:34:12.937Z</time></trkpt><trkpt lat="43.6152757" lon="12.5072829"><ele>652.0</ele><time>2026-04-25T09:34:14.937Z</time></trkpt><trkpt lat="43.6152932" lon="12.5071868"><ele>652.0</ele><time>2026-04-25T09:34:15.937Z</time></trkpt><trkpt lat="43.6153102" lon="12.5070707"><ele>652.0</ele><time>2026-04-25T09:34:16.937Z</time></trkpt><trkpt lat="43.615335" lon="12.506955"><ele>652.0</ele><time>2026-04-25T09:34:17.936Z</time></trkpt><trkpt lat="43.6153653" lon="12.5068518"><ele>652.0</ele><time>2026-04-25T09:34:18.937Z</time></trkpt><trkpt lat="43.615401" lon="12.5067776"><ele>654.1666666666667</ele><time>2026-04-25T09:34:19.937Z</time></trkpt><trkpt lat="43.6154715" lon="12.5067635"><ele>656.3333333333334</ele><time>2026-04-25T09:34:21.937Z</time></trkpt><trkpt lat="43.615489" lon="12.5068694"><ele>658.5</ele><time>2026-04-25T09:34:23.937Z</time></trkpt><trkpt lat="43.6154447" lon="12.5070008"><ele>660.6666666666666</ele><time>2026-04-25T09:34:25.937Z</time></trkpt><trkpt lat="43.6154095" lon="12.5070903"><ele>662.8333333333333</ele><time>2026-04-25T09:34:26.937Z</time></trkpt><trkpt lat="43.6153825" lon="12.5071988"><ele>665.0</ele><time>2026-04-25T09:34:27.937Z</time></trkpt><trkpt lat="43.6153697" lon="12.5073242"><ele>662.4</ele><time>2026-04-25T09:34:28.937Z</time></trkpt><trkpt lat="43.6153768" lon="12.5074588"><ele>659.8</ele><time>2026-04-25T09:34:29.937Z</time></trkpt><trkpt lat="43.6153885" lon="12.5075852"><ele>657.2</ele><time>2026-04-25T09:34:30.937Z</time></trkpt><trkpt lat="43.6153901" lon="12.50769"><ele>654.6</ele><time>2026-04-25T09:34:31.937Z</time></trkpt><trkpt lat="43.6153437" lon="12.5078194"><ele>652.0</ele><time>2026-04-25T09:34:33.937Z</time></trkpt><trkpt lat="43.6152219" lon="12.5078717"><ele>652.0</ele><time>2026-04-25T09:34:35.937Z</time></trkpt><trkpt lat="43.6151459" lon="12.5078712"><ele>652.0</ele><time>2026-04-25T09:34:36.937Z</time></trkpt><trkpt lat="43.6150653" lon="12.5078462"><ele>652.0</ele><time>2026-04-25T09:34:37.937Z</time></trkpt><trkpt lat="43.6149794" lon="12.5078174"><ele>652.0</ele><time>2026-04-25T09:34:38.937Z</time></trkpt><trkpt lat="43.6148903" lon="12.5077944"><ele>652.0</ele><time>2026-04-25T09:34:39.936Z</time></trkpt><trkpt lat="43.6148017" lon="12.5077783"><ele>652.0</ele><time>2026-04-25T09:34:40.937Z</time></trkpt><trkpt lat="43.614715" lon="12.5077683"><ele>652.0</ele><time>2026-04-25T09:34:41.937Z</time></trkpt><trkpt lat="43.6146317" lon="12.50776"><ele>652.0</ele><time>2026-04-25T09:34:42.937Z</time></trkpt><trkpt lat="43.6145567" lon="12.5077667"><ele>652.0</ele><time>2026-04-25T09:34:43.936Z</time></trkpt><trkpt lat="43.6144517" lon="12.5078217"><ele>652.0</ele><time>2026-04-25T09:34:45.938Z</time></trkpt><trkpt lat="43.614435" lon="12.5079717"><ele>652.0</ele><time>2026-04-25T09:34:47.938Z</time></trkpt><trkpt lat="43.614455" lon="12.5080717"><ele>647.3333333333334</ele><time>2026-04-25T09:34:48.937Z</time></trkpt><trkpt lat="43.614505" lon="12.5081783"><ele>642.6666666666667</ele><time>2026-04-25T09:34:49.937Z</time></trkpt><trkpt lat="43.6145617" lon="12.5082833"><ele>638.0</ele><time>2026-04-25T09:34:50.938Z</time></trkpt><trkpt lat="43.6146067" lon="12.5083783"><ele>633.3333333333334</ele><time>2026-04-25T09:34:51.938Z</time></trkpt><trkpt lat="43.614635" lon="12.508465"><ele>628.6666666666666</ele><time>2026-04-25T09:34:52.938Z</time></trkpt><trkpt lat="43.6146183" lon="12.5086117"><ele>624.0</ele><time>2026-04-25T09:34:54.937Z</time></trkpt><trkpt lat="43.6145383" lon="12.5087233"><ele>621.0</ele><time>2026-04-25T09:34:56.937Z</time></trkpt><trkpt lat="43.6144533" lon="12.5088033"><ele>618.0</ele><time>2026-04-25T09:34:58.938Z</time></trkpt><trkpt lat="43.614415" lon="12.5089067"><ele>615.0</ele><time>2026-04-25T09:35:00.938Z</time></trkpt><trkpt lat="43.6144733" lon="12.5090167"><ele>612.0</ele><time>2026-04-25T09:35:02.938Z</time></trkpt><trkpt lat="43.6145383" lon="12.5090733"><ele>609.0</ele><time>2026-04-25T09:35:03.938Z</time></trkpt><trkpt lat="43.6146133" lon="12.5091417"><ele>609.0</ele><time>2026-04-25T09:35:04.938Z</time></trkpt><trkpt lat="43.6146767" lon="12.5092167"><ele>609.0</ele><time>2026-04-25T09:35:05.937Z</time></trkpt><trkpt lat="43.614725" lon="12.5093067"><ele>609.0</ele><time>2026-04-25T09:35:06.937Z</time></trkpt><trkpt lat="43.61477" lon="12.5094217"><ele>609.0</ele><time>2026-04-25T09:35:07.938Z</time></trkpt><trkpt lat="43.6148083" lon="12.5095683"><ele>609.0</ele><time>2026-04-25T09:35:08.938Z</time></trkpt><trkpt lat="43.61487" lon="12.5097017"><ele>611.0</ele><time>2026-04-25T09:35:09.937Z</time></trkpt><trkpt lat="43.6149317" lon="12.50983"><ele>613.0</ele><time>2026-04-25T09:35:10.937Z</time></trkpt><trkpt lat="43.614995" lon="12.5099467"><ele>615.0</ele><time>2026-04-25T09:35:11.938Z</time></trkpt><trkpt lat="43.6150567" lon="12.5100483"><ele>617.0</ele><time>2026-04-25T09:35:12.938Z</time></trkpt><trkpt lat="43.61512" lon="12.5101533"><ele>619.0</ele><time>2026-04-25T09:35:13.938Z</time></trkpt><trkpt lat="43.6151833" lon="12.51026"><ele>619.0</ele><time>2026-04-25T09:35:14.937Z</time></trkpt><trkpt lat="43.6152533" lon="12.5103683"><ele>619.0</ele><time>2026-04-25T09:35:15.938Z</time></trkpt><trkpt lat="43.61532" lon="12.5104767"><ele>619.0</ele><time>2026-04-25T09:35:16.938Z</time></trkpt><trkpt lat="43.61538" lon="12.510585"><ele>619.0</ele><time>2026-04-25T09:35:17.938Z</time></trkpt><trkpt lat="43.615445" lon="12.5106933"><ele>619.0</ele><time>2026-04-25T09:35:18.938Z</time></trkpt><trkpt lat="43.6155083" lon="12.5108083"><ele>614.6</ele><time>2026-04-25T09:35:19.938Z</time></trkpt><trkpt lat="43.61558" lon="12.5109233"><ele>610.2</ele><time>2026-04-25T09:35:20.938Z</time></trkpt><trkpt lat="43.6156483" lon="12.5110317"><ele>605.8000000000001</ele><time>2026-04-25T09:35:21.937Z</time></trkpt><trkpt lat="43.6156933" lon="12.5111317"><ele>601.4</ele><time>2026-04-25T09:35:22.937Z</time></trkpt><trkpt lat="43.6157267" lon="12.5112317"><ele>597.0</ele><time>2026-04-25T09:35:23.938Z</time></trkpt><trkpt lat="43.6157533" lon="12.5113333"><ele>597.0</ele><time>2026-04-25T09:35:24.938Z</time></trkpt><trkpt lat="43.6157717" lon="12.5114167"><ele>597.0</ele><time>2026-04-25T09:35:25.937Z</time></trkpt><trkpt lat="43.615765" lon="12.5115367"><ele>597.0</ele><time>2026-04-25T09:35:27.937Z</time></trkpt><trkpt lat="43.6157367" lon="12.51168"><ele>597.0</ele><time>2026-04-25T09:35:29.938Z</time></trkpt><trkpt lat="43.61579" lon="12.5118433"><ele>597.0</ele><time>2026-04-25T09:35:31.938Z</time></trkpt><trkpt lat="43.6158467" lon="12.511915"><ele>597.0</ele><time>2026-04-25T09:35:32.938Z</time></trkpt><trkpt lat="43.615915" lon="12.5119783"><ele>597.0</ele><time>2026-04-25T09:35:33.937Z</time></trkpt><trkpt lat="43.6159833" lon="12.5120483"><ele>597.0</ele><time>2026-04-25T09:35:34.937Z</time></trkpt><trkpt lat="43.6160417" lon="12.5121283"><ele>597.0</ele><time>2026-04-25T09:35:35.938Z</time></trkpt><trkpt lat="43.6161017" lon="12.512235"><ele>597.0</ele><time>2026-04-25T09:35:36.937Z</time></trkpt><trkpt lat="43.6161583" lon="12.5123667"><ele>592.75</ele><time>2026-04-25T09:35:37.937Z</time></trkpt><trkpt lat="43.616225" lon="12.51251"><ele>588.5</ele><time>2026-04-25T09:35:38.938Z</time></trkpt><trkpt lat="43.616295" lon="12.5126583"><ele>584.25</ele><time>2026-04-25T09:35:39.938Z</time></trkpt><trkpt lat="43.616365" lon="12.5127983"><ele>580.0</ele><time>2026-04-25T09:35:40.938Z</time></trkpt><trkpt lat="43.616425" lon="12.51293"><ele>580.0</ele><time>2026-04-25T09:35:41.938Z</time></trkpt><trkpt lat="43.61647" lon="12.5130517"><ele>580.0</ele><time>2026-04-25T09:35:42.938Z</time></trkpt><trkpt lat="43.61651" lon="12.5131633"><ele>580.0</ele><time>2026-04-25T09:35:43.937Z</time></trkpt><trkpt lat="43.616535" lon="12.51328"><ele>580.0</ele><time>2026-04-25T09:35:44.938Z</time></trkpt><trkpt lat="43.6165467" lon="12.5133967"><ele>580.0</ele><time>2026-04-25T09:35:45.938Z</time></trkpt><trkpt lat="43.616555" lon="12.513505"><ele>580.0</ele><time>2026-04-25T09:35:46.937Z</time></trkpt><trkpt lat="43.6165867" lon="12.5135983"><ele>580.0</ele><time>2026-04-25T09:35:47.936Z</time></trkpt><trkpt lat="43.6166517" lon="12.513645"><ele>580.0</ele><time>2026-04-25T09:35:48.936Z</time></trkpt><trkpt lat="43.6167183" lon="12.51368"><ele>580.0</ele><time>2026-04-25T09:35:49.936Z</time></trkpt><trkpt lat="43.61678" lon="12.5137217"><ele>580.0</ele><time>2026-04-25T09:35:50.937Z</time></trkpt><trkpt lat="43.6168383" lon="12.513795"><ele>580.0</ele><time>2026-04-25T09:35:51.936Z</time></trkpt><trkpt lat="43.6169017" lon="12.5139033"><ele>580.0</ele><time>2026-04-25T09:35:52.937Z</time></trkpt><trkpt lat="43.616965" lon="12.5140317"><ele>572.0</ele><time>2026-04-25T09:35:53.937Z</time></trkpt><trkpt lat="43.6170333" lon="12.5141583"><ele>564.0</ele><time>2026-04-25T09:35:54.937Z</time></trkpt><trkpt lat="43.617105" lon="12.5142883"><ele>556.0</ele><time>2026-04-25T09:35:55.936Z</time></trkpt><trkpt lat="43.6171783" lon="12.51442"><ele>548.0</ele><time>2026-04-25T09:35:56.937Z</time></trkpt><trkpt lat="43.6172517" lon="12.5145533"><ele>554.0</ele><time>2026-04-25T09:35:57.936Z</time></trkpt><trkpt lat="43.6173317" lon="12.5146867"><ele>560.0</ele><time>2026-04-25T09:35:58.937Z</time></trkpt><trkpt lat="43.6174183" lon="12.51482"><ele>566.0</ele><time>2026-04-25T09:35:59.937Z</time></trkpt><trkpt lat="43.6175033" lon="12.5149567"><ele>572.0</ele><time>2026-04-25T09:36:00.937Z</time></trkpt><trkpt lat="43.6175967" lon="12.5151017"><ele>572.0</ele><time>2026-04-25T09:36:01.937Z</time></trkpt><trkpt lat="43.61768" lon="12.51525"><ele>572.0</ele><time>2026-04-25T09:36:02.937Z</time></trkpt><trkpt lat="43.617755" lon="12.5154017"><ele>572.0</ele><time>2026-04-25T09:36:03.936Z</time></trkpt><trkpt lat="43.617825" lon="12.5155467"><ele>572.0</ele><time>2026-04-25T09:36:04.936Z</time></trkpt><trkpt lat="43.61788" lon="12.5156767"><ele>567.8333333333333</ele><time>2026-04-25T09:36:05.937Z</time></trkpt><trkpt lat="43.617925" lon="12.5157933"><ele>563.6666666666666</ele><time>2026-04-25T09:36:06.937Z</time></trkpt><trkpt lat="43.6179483" lon="12.515905"><ele>559.5</ele><time>2026-04-25T09:36:07.937Z</time></trkpt><trkpt lat="43.617965" lon="12.516005"><ele>555.3333333333334</ele><time>2026-04-25T09:36:08.937Z</time></trkpt><trkpt lat="43.6180017" lon="12.516095"><ele>551.1666666666667</ele><time>2026-04-25T09:36:09.937Z</time></trkpt><trkpt lat="43.61806" lon="12.516195"><ele>547.0</ele><time>2026-04-25T09:36:10.937Z</time></trkpt><trkpt lat="43.6181283" lon="12.51631"><ele>547.0</ele><time>2026-04-25T09:36:11.937Z</time></trkpt><trkpt lat="43.618195" lon="12.516435"><ele>547.0</ele><time>2026-04-25T09:36:12.937Z</time></trkpt><trkpt lat="43.6182567" lon="12.5165633"><ele>547.0</ele><time>2026-04-25T09:36:13.937Z</time></trkpt><trkpt lat="43.618305" lon="12.516695"><ele>547.0</ele><time>2026-04-25T09:36:14.937Z</time></trkpt><trkpt lat="43.6183417" lon="12.5168283"><ele>547.0</ele><time>2026-04-25T09:36:15.937Z</time></trkpt><trkpt lat="43.618375" lon="12.51697"><ele>544.6</ele><time>2026-04-25T09:36:16.937Z</time></trkpt><trkpt lat="43.6184033" lon="12.5171117"><ele>542.2</ele><time>2026-04-25T09:36:17.937Z</time></trkpt><trkpt lat="43.61842" lon="12.517235"><ele>539.8</ele><time>2026-04-25T09:36:18.936Z</time></trkpt><trkpt lat="43.6184167" lon="12.5173283"><ele>537.4</ele><time>2026-04-25T09:36:19.936Z</time></trkpt><trkpt lat="43.618365" lon="12.5174117"><ele>535.0</ele><time>2026-04-25T09:36:21.937Z</time></trkpt><trkpt lat="43.6182367" lon="12.5174167"><ele>535.0</ele><time>2026-04-25T09:36:23.936Z</time></trkpt><trkpt lat="43.6181467" lon="12.517405"><ele>535.0</ele><time>2026-04-25T09:36:24.937Z</time></trkpt><trkpt lat="43.61805" lon="12.5173967"><ele>535.0</ele><time>2026-04-25T09:36:25.937Z</time></trkpt><trkpt lat="43.61795" lon="12.5173883"><ele>535.0</ele><time>2026-04-25T09:36:26.937Z</time></trkpt><trkpt lat="43.6178533" lon="12.5173717"><ele>535.0</ele><time>2026-04-25T09:36:27.937Z</time></trkpt><trkpt lat="43.6177633" lon="12.5173517"><ele>537.0</ele><time>2026-04-25T09:36:28.937Z</time></trkpt><trkpt lat="43.6176783" lon="12.5173367"><ele>539.0</ele><time>2026-04-25T09:36:29.937Z</time></trkpt><trkpt lat="43.6176067" lon="12.5173383"><ele>541.0</ele><time>2026-04-25T09:36:30.937Z</time></trkpt><trkpt lat="43.6175083" lon="12.5174017"><ele>543.0</ele><time>2026-04-25T09:36:32.936Z</time></trkpt><trkpt lat="43.6174333" lon="12.5175317"><ele>545.0</ele><time>2026-04-25T09:36:34.937Z</time></trkpt><trkpt lat="43.6173683" lon="12.517605"><ele>545.0</ele><time>2026-04-25T09:36:35.937Z</time></trkpt><trkpt lat="43.617305" lon="12.5176833"><ele>545.0</ele><time>2026-04-25T09:36:36.936Z</time></trkpt><trkpt lat="43.61726" lon="12.517775"><ele>545.0</ele><time>2026-04-25T09:36:37.936Z</time></trkpt><trkpt lat="43.6172333" lon="12.5178883"><ele>545.0</ele><time>2026-04-25T09:36:38.937Z</time></trkpt><trkpt lat="43.6172183" lon="12.51801"><ele>545.0</ele><time>2026-04-25T09:36:39.936Z</time></trkpt><trkpt lat="43.617205" lon="12.51813"><ele>545.0</ele><time>2026-04-25T09:36:40.937Z</time></trkpt><trkpt lat="43.6171933" lon="12.5182267"><ele>545.0</ele><time>2026-04-25T09:36:41.936Z</time></trkpt><trkpt lat="43.6171983" lon="12.5183367"><ele>545.0</ele><time>2026-04-25T09:36:43.936Z</time></trkpt><trkpt lat="43.6172633" lon="12.5183383"><ele>545.0</ele><time>2026-04-25T09:36:45.937Z</time></trkpt><trkpt lat="43.61731" lon="12.5182217"><ele>545.0</ele><time>2026-04-25T09:36:47.936Z</time></trkpt><trkpt lat="43.6173217" lon="12.518125"><ele>545.0</ele><time>2026-04-25T09:36:48.937Z</time></trkpt><trkpt lat="43.6173317" lon="12.5180117"><ele>545.0</ele><time>2026-04-25T09:36:49.936Z</time></trkpt><trkpt lat="43.6173483" lon="12.5179017"><ele>545.0</ele><time>2026-04-25T09:36:50.937Z</time></trkpt><trkpt lat="43.6173817" lon="12.5178117"><ele>545.0</ele><time>2026-04-25T09:36:51.937Z</time></trkpt><trkpt lat="43.6174367" lon="12.51774"><ele>545.0</ele><time>2026-04-25T09:36:52.936Z</time></trkpt><trkpt lat="43.6175083" lon="12.5176833"><ele>545.0</ele><time>2026-04-25T09:36:53.937Z</time></trkpt><trkpt lat="43.6175817" lon="12.5176317"><ele>545.0</ele><time>2026-04-25T09:36:54.937Z</time></trkpt><trkpt lat="43.6176533" lon="12.5176033"><ele>545.0</ele><time>2026-04-25T09:36:55.937Z</time></trkpt><trkpt lat="43.6177167" lon="12.51761"><ele>543.0</ele><time>2026-04-25T09:36:56.937Z</time></trkpt><trkpt lat="43.617825" lon="12.5177117"><ele>541.0</ele><time>2026-04-25T09:36:58.937Z</time></trkpt><trkpt lat="43.6178867" lon="12.517755"><ele>539.0</ele><time>2026-04-25T09:36:59.936Z</time></trkpt><trkpt lat="43.6179617" lon="12.5177933"><ele>537.0</ele><time>2026-04-25T09:37:00.936Z</time></trkpt><trkpt lat="43.618055" lon="12.5178433"><ele>535.0</ele><time>2026-04-25T09:37:01.937Z</time></trkpt><trkpt lat="43.61815" lon="12.5179067"><ele>528.6</ele><time>2026-04-25T09:37:02.936Z</time></trkpt><trkpt lat="43.6182417" lon="12.5179883"><ele>522.2</ele><time>2026-04-25T09:37:03.937Z</time></trkpt><trkpt lat="43.618325" lon="12.5180717"><ele>515.8</ele><time>2026-04-25T09:37:04.937Z</time></trkpt><trkpt lat="43.6184067" lon="12.51814"><ele>509.4</ele><time>2026-04-25T09:37:05.937Z</time></trkpt><trkpt lat="43.6185067" lon="12.5181883"><ele>503.0</ele><time>2026-04-25T09:37:06.937Z</time></trkpt><trkpt lat="43.6186133" lon="12.5182333"><ele>501.2</ele><time>2026-04-25T09:37:07.936Z</time></trkpt><trkpt lat="43.6187167" lon="12.5182867"><ele>499.4</ele><time>2026-04-25T09:37:08.937Z</time></trkpt><trkpt lat="43.6188117" lon="12.51835"><ele>497.59999999999997</ele><time>2026-04-25T09:37:09.937Z</time></trkpt><trkpt lat="43.6188967" lon="12.518435"><ele>495.79999999999995</ele><time>2026-04-25T09:37:10.937Z</time></trkpt><trkpt lat="43.61897" lon="12.5185217"><ele>494.0</ele><time>2026-04-25T09:37:11.936Z</time></trkpt><trkpt lat="43.619035" lon="12.5185967"><ele>493.99999999999994</ele><time>2026-04-25T09:37:12.937Z</time></trkpt><trkpt lat="43.6190967" lon="12.51865"><ele>494.0</ele><time>2026-04-25T09:37:13.937Z</time></trkpt><trkpt lat="43.6191567" lon="12.5186833"><ele>494.0</ele><time>2026-04-25T09:37:14.937Z</time></trkpt><trkpt lat="43.6192533" lon="12.518675"><ele>494.0</ele><time>2026-04-25T09:37:16.937Z</time></trkpt><trkpt lat="43.6193" lon="12.5185833"><ele>493.99999999999994</ele><time>2026-04-25T09:37:18.937Z</time></trkpt><trkpt lat="43.6193217" lon="12.5184467"><ele>494.0</ele><time>2026-04-25T09:37:20.937Z</time></trkpt><trkpt lat="43.6193333" lon="12.5183467"><ele>493.99999999999994</ele><time>2026-04-25T09:37:21.937Z</time></trkpt><trkpt lat="43.61935" lon="12.5182333"><ele>494.0</ele><time>2026-04-25T09:37:22.937Z</time></trkpt><trkpt lat="43.6193617" lon="12.51811"><ele>494.0</ele><time>2026-04-25T09:37:23.936Z</time></trkpt><trkpt lat="43.6193683" lon="12.5179867"><ele>494.0</ele><time>2026-04-25T09:37:24.936Z</time></trkpt><trkpt lat="43.6193617" lon="12.5178683"><ele>493.99999999999994</ele><time>2026-04-25T09:37:25.937Z</time></trkpt><trkpt lat="43.6193583" lon="12.5177567"><ele>494.0</ele><time>2026-04-25T09:37:26.936Z</time></trkpt><trkpt lat="43.619345" lon="12.5176467"><ele>494.16666666666663</ele><time>2026-04-25T09:37:27.936Z</time></trkpt><trkpt lat="43.6193267" lon="12.5175283"><ele>494.3333333333333</ele><time>2026-04-25T09:37:28.937Z</time></trkpt><trkpt lat="43.6193133" lon="12.51741"><ele>494.5</ele><time>2026-04-25T09:37:29.937Z</time></trkpt><trkpt lat="43.6192983" lon="12.5173033"><ele>494.66666666666663</ele><time>2026-04-25T09:37:30.937Z</time></trkpt><trkpt lat="43.6192867" lon="12.5172133"><ele>494.8333333333333</ele><time>2026-04-25T09:37:31.937Z</time></trkpt><trkpt lat="43.6193167" lon="12.517095"><ele>495.0</ele><time>2026-04-25T09:37:33.936Z</time></trkpt><trkpt lat="43.6193817" lon="12.51713"><ele>495.0</ele><time>2026-04-25T09:37:35.937Z</time></trkpt><trkpt lat="43.6194" lon="12.51725"><ele>495.0</ele><time>2026-04-25T09:37:37.937Z</time></trkpt><trkpt lat="43.6194167" lon="12.517335"><ele>495.0</ele><time>2026-04-25T09:37:38.936Z</time></trkpt><trkpt lat="43.6194483" lon="12.5174267"><ele>495.0</ele><time>2026-04-25T09:37:39.937Z</time></trkpt><trkpt lat="43.6194917" lon="12.517525"><ele>495.0</ele><time>2026-04-25T09:37:40.937Z</time></trkpt><trkpt lat="43.6195367" lon="12.5176317"><ele>495.0</ele><time>2026-04-25T09:37:41.937Z</time></trkpt><trkpt lat="43.619575" lon="12.51775"><ele>488.0</ele><time>2026-04-25T09:37:42.937Z</time></trkpt><trkpt lat="43.6196083" lon="12.517875"><ele>481.0</ele><time>2026-04-25T09:37:43.937Z</time></trkpt><trkpt lat="43.61964" lon="12.517995"><ele>474.0</ele><time>2026-04-25T09:37:44.937Z</time></trkpt><trkpt lat="43.619675" lon="12.5181033"><ele>467.0</ele><time>2026-04-25T09:37:45.937Z</time></trkpt><trkpt lat="43.6197" lon="12.518215"><ele>460.0</ele><time>2026-04-25T09:37:46.936Z</time></trkpt><trkpt lat="43.6197333" lon="12.5183267"><ele>453.0</ele><time>2026-04-25T09:37:47.936Z</time></trkpt><trkpt lat="43.6197833" lon="12.5184317"><ele>451.79999999999995</ele><time>2026-04-25T09:37:48.937Z</time></trkpt><trkpt lat="43.6198383" lon="12.5185317"><ele>450.59999999999997</ele><time>2026-04-25T09:37:49.936Z</time></trkpt><trkpt lat="43.6199" lon="12.5186217"><ele>449.40000000000003</ele><time>2026-04-25T09:37:50.937Z</time></trkpt><trkpt lat="43.6199583" lon="12.5187083"><ele>448.20000000000005</ele><time>2026-04-25T09:37:51.936Z</time></trkpt><trkpt lat="43.620005" lon="12.51879"><ele>447.0</ele><time>2026-04-25T09:37:52.937Z</time></trkpt><trkpt lat="43.6200533" lon="12.5189333"><ele>447.0</ele><time>2026-04-25T09:37:54.937Z</time></trkpt><trkpt lat="43.6200683" lon="12.5191283"><ele>447.00000000000006</ele><time>2026-04-25T09:37:56.936Z</time></trkpt><trkpt lat="43.6200733" lon="12.5192483"><ele>447.00000000000006</ele><time>2026-04-25T09:37:57.936Z</time></trkpt><trkpt lat="43.6200817" lon="12.5193617"><ele>447.0</ele><time>2026-04-25T09:37:58.936Z</time></trkpt><trkpt lat="43.6200867" lon="12.5194617"><ele>447.0</ele><time>2026-04-25T09:37:59.937Z</time></trkpt><trkpt lat="43.6201067" lon="12.5196083"><ele>447.0</ele><time>2026-04-25T09:38:01.937Z</time></trkpt><trkpt lat="43.6201733" lon="12.5196617"><ele>447.0</ele><time>2026-04-25T09:38:03.937Z</time></trkpt><trkpt lat="43.62023" lon="12.51962"><ele>447.0</ele><time>2026-04-25T09:38:05.937Z</time></trkpt><trkpt lat="43.6203" lon="12.5195483"><ele>447.0</ele><time>2026-04-25T09:38:07.936Z</time></trkpt><trkpt lat="43.620395" lon="12.5196"><ele>447.0</ele><time>2026-04-25T09:38:09.937Z</time></trkpt><trkpt lat="43.6204467" lon="12.519655"><ele>447.0</ele><time>2026-04-25T09:38:10.937Z</time></trkpt><trkpt lat="43.6205" lon="12.51971"><ele>446.40000000000003</ele><time>2026-04-25T09:38:11.936Z</time></trkpt><trkpt lat="43.6205417" lon="12.5197833"><ele>445.80000000000007</ele><time>2026-04-25T09:38:12.937Z</time></trkpt><trkpt lat="43.6205783" lon="12.5198767"><ele>445.2</ele><time>2026-04-25T09:38:13.937Z</time></trkpt><trkpt lat="43.62062" lon="12.5199967"><ele>444.6</ele><time>2026-04-25T09:38:14.937Z</time></trkpt><trkpt lat="43.620675" lon="12.5201383"><ele>444.0</ele><time>2026-04-25T09:38:15.937Z</time></trkpt><trkpt lat="43.6207317" lon="12.5202783"><ele>441.25</ele><time>2026-04-25T09:38:16.937Z</time></trkpt><trkpt lat="43.6207933" lon="12.52041"><ele>438.5</ele><time>2026-04-25T09:38:17.937Z</time></trkpt><trkpt lat="43.620865" lon="12.5205433"><ele>435.75</ele><time>2026-04-25T09:38:18.937Z</time></trkpt><trkpt lat="43.62094" lon="12.5206717"><ele>433.0</ele><time>2026-04-25T09:38:19.937Z</time></trkpt><trkpt lat="43.6210067" lon="12.5207983"><ele>433.0</ele><time>2026-04-25T09:38:20.937Z</time></trkpt><trkpt lat="43.6210617" lon="12.52093"><ele>433.0</ele><time>2026-04-25T09:38:21.937Z</time></trkpt><trkpt lat="43.6211167" lon="12.5210667"><ele>433.0</ele><time>2026-04-25T09:38:22.937Z</time></trkpt><trkpt lat="43.6211817" lon="12.5211983"><ele>433.0</ele><time>2026-04-25T09:38:23.937Z</time></trkpt><trkpt lat="43.6212517" lon="12.52133"><ele>432.0</ele><time>2026-04-25T09:38:24.937Z</time></trkpt><trkpt lat="43.621325" lon="12.5214567"><ele>431.0</ele><time>2026-04-25T09:38:25.937Z</time></trkpt><trkpt lat="43.6213983" lon="12.5215717"><ele>430.0</ele><time>2026-04-25T09:38:26.937Z</time></trkpt><trkpt lat="43.6214733" lon="12.5216833"><ele>429.0</ele><time>2026-04-25T09:38:27.937Z</time></trkpt><trkpt lat="43.621555" lon="12.5217917"><ele>429.0</ele><time>2026-04-25T09:38:28.937Z</time></trkpt><trkpt lat="43.6216333" lon="12.52189"><ele>429.0</ele><time>2026-04-25T09:38:29.936Z</time></trkpt><trkpt lat="43.6216933" lon="12.5219983"><ele>429.0</ele><time>2026-04-25T09:38:30.937Z</time></trkpt><trkpt lat="43.6217317" lon="12.52212"><ele>429.0</ele><time>2026-04-25T09:38:31.937Z</time></trkpt><trkpt lat="43.62176" lon="12.5222467"><ele>429.0</ele><time>2026-04-25T09:38:32.937Z</time></trkpt><trkpt lat="43.6217933" lon="12.5223733"><ele>428.79999999999995</ele><time>2026-04-25T09:38:33.936Z</time></trkpt><trkpt lat="43.6218333" lon="12.5224917"><ele>428.59999999999997</ele><time>2026-04-25T09:38:34.937Z</time></trkpt><trkpt lat="43.6218883" lon="12.5226217"><ele>428.4</ele><time>2026-04-25T09:38:35.936Z</time></trkpt><trkpt lat="43.6219567" lon="12.52276"><ele>428.2</ele><time>2026-04-25T09:38:36.937Z</time></trkpt><trkpt lat="43.6220317" lon="12.5228933"><ele>428.0</ele><time>2026-04-25T09:38:37.937Z</time></trkpt><trkpt lat="43.622105" lon="12.5230083"><ele>424.59999999999997</ele><time>2026-04-25T09:38:38.936Z</time></trkpt><trkpt lat="43.62218" lon="12.5230983"><ele>421.19999999999993</ele><time>2026-04-25T09:38:39.937Z</time></trkpt><trkpt lat="43.622265" lon="12.52316"><ele>417.8</ele><time>2026-04-25T09:38:40.937Z</time></trkpt><trkpt lat="43.6223667" lon="12.5231983"><ele>414.4</ele><time>2026-04-25T09:38:41.937Z</time></trkpt><trkpt lat="43.62248" lon="12.5232133"><ele>411.0</ele><time>2026-04-25T09:38:42.937Z</time></trkpt><trkpt lat="43.6226067" lon="12.5232067"><ele>411.0</ele><time>2026-04-25T09:38:43.937Z</time></trkpt><trkpt lat="43.6227517" lon="12.5231933"><ele>411.0</ele><time>2026-04-25T09:38:44.937Z</time></trkpt><trkpt lat="43.6229067" lon="12.5231883"><ele>411.0</ele><time>2026-04-25T09:38:45.937Z</time></trkpt><trkpt lat="43.6230633" lon="12.5231967"><ele>412.25</ele><time>2026-04-25T09:38:46.937Z</time></trkpt><trkpt lat="43.6232133" lon="12.5232117"><ele>413.5</ele><time>2026-04-25T09:38:47.937Z</time></trkpt><trkpt lat="43.6233533" lon="12.5232333"><ele>414.75</ele><time>2026-04-25T09:38:48.937Z</time></trkpt><trkpt lat="43.6234783" lon="12.523265"><ele>416.0</ele><time>2026-04-25T09:38:49.937Z</time></trkpt><trkpt lat="43.6235883" lon="12.52331"><ele>415.25</ele><time>2026-04-25T09:38:50.936Z</time></trkpt><trkpt lat="43.62369" lon="12.5233883"><ele>414.5</ele><time>2026-04-25T09:38:51.937Z</time></trkpt><trkpt lat="43.6237917" lon="12.5235033"><ele>413.75</ele><time>2026-04-25T09:38:52.937Z</time></trkpt><trkpt lat="43.6238883" lon="12.5236333"><ele>413.0</ele><time>2026-04-25T09:38:53.937Z</time></trkpt><trkpt lat="43.6239683" lon="12.5237617"><ele>413.0</ele><time>2026-04-25T09:38:54.937Z</time></trkpt><trkpt lat="43.6240367" lon="12.5238883"><ele>413.0</ele><time>2026-04-25T09:38:55.937Z</time></trkpt><trkpt lat="43.6241133" lon="12.5240083"><ele>413.0</ele><time>2026-04-25T09:38:56.937Z</time></trkpt><trkpt lat="43.6242017" lon="12.524115"><ele>413.0</ele><time>2026-04-25T09:38:57.937Z</time></trkpt><trkpt lat="43.6243017" lon="12.5242117"><ele>413.0</ele><time>2026-04-25T09:38:58.937Z</time></trkpt><trkpt lat="43.6243983" lon="12.52429"><ele>413.0</ele><time>2026-04-25T09:38:59.937Z</time></trkpt><trkpt lat="43.6244983" lon="12.5243433"><ele>413.0</ele><time>2026-04-25T09:39:00.937Z</time></trkpt><trkpt lat="43.6246167" lon="12.5243867"><ele>413.0</ele><time>2026-04-25T09:39:01.937Z</time></trkpt><trkpt lat="43.6247433" lon="12.52444"><ele>415.75</ele><time>2026-04-25T09:39:02.937Z</time></trkpt><trkpt lat="43.6248717" lon="12.524505"><ele>418.5</ele><time>2026-04-25T09:39:03.937Z</time></trkpt><trkpt lat="43.625" lon="12.5245783"><ele>421.25</ele><time>2026-04-25T09:39:04.936Z</time></trkpt><trkpt lat="43.62512" lon="12.52465"><ele>424.0</ele><time>2026-04-25T09:39:05.936Z</time></trkpt><trkpt lat="43.6252367" lon="12.5247083"><ele>417.5</ele><time>2026-04-25T09:39:06.937Z</time></trkpt><trkpt lat="43.6253517" lon="12.52475"><ele>411.0</ele><time>2026-04-25T09:39:07.937Z</time></trkpt><trkpt lat="43.6254667" lon="12.5247983"><ele>404.5</ele><time>2026-04-25T09:39:08.937Z</time></trkpt><trkpt lat="43.6255883" lon="12.524875"><ele>398.0</ele><time>2026-04-25T09:39:09.937Z</time></trkpt><trkpt lat="43.6257167" lon="12.5249683"><ele>398.0</ele><time>2026-04-25T09:39:10.937Z</time></trkpt><trkpt lat="43.6258533" lon="12.5250583"><ele>398.0</ele><time>2026-04-25T09:39:11.937Z</time></trkpt><trkpt lat="43.6259917" lon="12.5251433"><ele>398.0</ele><time>2026-04-25T09:39:12.937Z</time></trkpt><trkpt lat="43.62612" lon="12.5252033"><ele>398.0</ele><time>2026-04-25T09:39:13.937Z</time></trkpt><trkpt lat="43.62623" lon="12.52524"><ele>399.5</ele><time>2026-04-25T09:39:14.937Z</time></trkpt><trkpt lat="43.626335" lon="12.5252533"><ele>401.0</ele><time>2026-04-25T09:39:15.936Z</time></trkpt><trkpt lat="43.6264567" lon="12.525265"><ele>402.5</ele><time>2026-04-25T09:39:16.937Z</time></trkpt><trkpt lat="43.6265917" lon="12.5252783"><ele>404.0</ele><time>2026-04-25T09:39:17.936Z</time></trkpt><trkpt lat="43.6267333" lon="12.5252883"><ele>404.0</ele><time>2026-04-25T09:39:18.936Z</time></trkpt><trkpt lat="43.626875" lon="12.52529"><ele>404.0</ele><time>2026-04-25T09:39:19.937Z</time></trkpt><trkpt lat="43.6270133" lon="12.525285"><ele>404.0</ele><time>2026-04-25T09:39:20.936Z</time></trkpt><trkpt lat="43.6271517" lon="12.5252717"><ele>404.0</ele><time>2026-04-25T09:39:21.937Z</time></trkpt><trkpt lat="43.6272883" lon="12.525255"><ele>404.0</ele><time>2026-04-25T09:39:22.937Z</time></trkpt><trkpt lat="43.6274217" lon="12.52524"><ele>404.0</ele><time>2026-04-25T09:39:23.936Z</time></trkpt><trkpt lat="43.6275533" lon="12.5252367"><ele>404.0</ele><time>2026-04-25T09:39:24.937Z</time></trkpt><trkpt lat="43.62768" lon="12.5252517"><ele>404.0</ele><time>2026-04-25T09:39:25.937Z</time></trkpt><trkpt lat="43.6277917" lon="12.5252767"><ele>403.16666666666663</ele><time>2026-04-25T09:39:26.937Z</time></trkpt><trkpt lat="43.6278883" lon="12.5253033"><ele>402.3333333333333</ele><time>2026-04-25T09:39:27.937Z</time></trkpt><trkpt lat="43.6279767" lon="12.52532"><ele>401.5</ele><time>2026-04-25T09:39:28.937Z</time></trkpt><trkpt lat="43.6280533" lon="12.5253417"><ele>400.66666666666663</ele><time>2026-04-25T09:39:29.937Z</time></trkpt><trkpt lat="43.6281267" lon="12.5253817"><ele>399.8333333333333</ele><time>2026-04-25T09:39:30.937Z</time></trkpt><trkpt lat="43.6282083" lon="12.5254283"><ele>399.0</ele><time>2026-04-25T09:39:31.937Z</time></trkpt><trkpt lat="43.6282933" lon="12.5254767"><ele>399.0</ele><time>2026-04-25T09:39:32.937Z</time></trkpt><trkpt lat="43.6283817" lon="12.52552"><ele>399.0</ele><time>2026-04-25T09:39:33.936Z</time></trkpt><trkpt lat="43.6284667" lon="12.5255667"><ele>399.0</ele><time>2026-04-25T09:39:34.936Z</time></trkpt><trkpt lat="43.6285433" lon="12.5256317"><ele>399.0</ele><time>2026-04-25T09:39:35.936Z</time></trkpt><trkpt lat="43.6286017" lon="12.5257217"><ele>399.0</ele><time>2026-04-25T09:39:36.937Z</time></trkpt><trkpt lat="43.6286233" lon="12.525835"><ele>399.0</ele><time>2026-04-25T09:39:37.937Z</time></trkpt><trkpt lat="43.6285983" lon="12.5259417"><ele>399.0</ele><time>2026-04-25T09:39:38.937Z</time></trkpt><trkpt lat="43.6285433" lon="12.52603"><ele>399.0</ele><time>2026-04-25T09:39:39.937Z</time></trkpt><trkpt lat="43.6284717" lon="12.5260933"><ele>399.0</ele><time>2026-04-25T09:39:40.937Z</time></trkpt><trkpt lat="43.6283833" lon="12.5261433"><ele>399.0</ele><time>2026-04-25T09:39:41.937Z</time></trkpt><trkpt lat="43.628285" lon="12.5261867"><ele>399.0</ele><time>2026-04-25T09:39:42.936Z</time></trkpt><trkpt lat="43.62818" lon="12.5262217"><ele>397.4</ele><time>2026-04-25T09:39:43.936Z</time></trkpt><trkpt lat="43.6280767" lon="12.5262567"><ele>395.79999999999995</ele><time>2026-04-25T09:39:44.937Z</time></trkpt><trkpt lat="43.62799" lon="12.5263017"><ele>394.20000000000005</ele><time>2026-04-25T09:39:45.937Z</time></trkpt><trkpt lat="43.6279183" lon="12.526365"><ele>392.6</ele><time>2026-04-25T09:39:46.937Z</time></trkpt><trkpt lat="43.6278667" lon="12.5264617"><ele>391.0</ele><time>2026-04-25T09:39:47.936Z</time></trkpt><trkpt lat="43.6278383" lon="12.5266"><ele>391.0</ele><time>2026-04-25T09:39:48.936Z</time></trkpt><trkpt lat="43.62782" lon="12.5267817"><ele>391.0</ele><time>2026-04-25T09:39:49.937Z</time></trkpt><trkpt lat="43.6278033" lon="12.52698"><ele>391.0</ele><time>2026-04-25T09:39:50.937Z</time></trkpt><trkpt lat="43.6277867" lon="12.5271933"><ele>391.0</ele><time>2026-04-25T09:39:51.937Z</time></trkpt><trkpt lat="43.627765" lon="12.5273917"><ele>389.0</ele><time>2026-04-25T09:39:52.936Z</time></trkpt><trkpt lat="43.6277533" lon="12.52757"><ele>387.0</ele><time>2026-04-25T09:39:53.937Z</time></trkpt><trkpt lat="43.6277467" lon="12.52772"><ele>385.0</ele><time>2026-04-25T09:39:54.937Z</time></trkpt><trkpt lat="43.627755" lon="12.5278517"><ele>383.0</ele><time>2026-04-25T09:39:55.937Z</time></trkpt><trkpt lat="43.6277783" lon="12.5279583"><ele>381.0</ele><time>2026-04-25T09:39:56.936Z</time></trkpt><trkpt lat="43.6278133" lon="12.5280433"><ele>380.85714285714283</ele><time>2026-04-25T09:39:57.937Z</time></trkpt><trkpt lat="43.6278617" lon="12.5281083"><ele>380.7142857142857</ele><time>2026-04-25T09:39:58.937Z</time></trkpt><trkpt lat="43.6279167" lon="12.5281583"><ele>380.57142857142856</ele><time>2026-04-25T09:39:59.937Z</time></trkpt><trkpt lat="43.6279767" lon="12.5281967"><ele>380.42857142857144</ele><time>2026-04-25T09:40:00.937Z</time></trkpt><trkpt lat="43.6280433" lon="12.5282283"><ele>380.28571428571433</ele><time>2026-04-25T09:40:01.936Z</time></trkpt><trkpt lat="43.628115" lon="12.5282567"><ele>380.14285714285717</ele><time>2026-04-25T09:40:02.937Z</time></trkpt><trkpt lat="43.6281883" lon="12.5282917"><ele>380.0</ele><time>2026-04-25T09:40:03.937Z</time></trkpt><trkpt lat="43.6282617" lon="12.528335"><ele>380.0</ele><time>2026-04-25T09:40:04.936Z</time></trkpt><trkpt lat="43.62833" lon="12.52839"><ele>380.0</ele><time>2026-04-25T09:40:05.937Z</time></trkpt><trkpt lat="43.6283917" lon="12.5284617"><ele>380.0</ele><time>2026-04-25T09:40:06.937Z</time></trkpt><trkpt lat="43.6284367" lon="12.5285517"><ele>380.0</ele><time>2026-04-25T09:40:07.937Z</time></trkpt><trkpt lat="43.62846" lon="12.5286567"><ele>380.0</ele><time>2026-04-25T09:40:08.937Z</time></trkpt><trkpt lat="43.6284617" lon="12.5287717"><ele>380.0</ele><time>2026-04-25T09:40:09.936Z</time></trkpt><trkpt lat="43.62845" lon="12.5288917"><ele>379.6</ele><time>2026-04-25T09:40:10.937Z</time></trkpt><trkpt lat="43.6284333" lon="12.5290233"><ele>379.2</ele><time>2026-04-25T09:40:11.937Z</time></trkpt><trkpt lat="43.628415" lon="12.5291617"><ele>378.79999999999995</ele><time>2026-04-25T09:40:12.937Z</time></trkpt><trkpt lat="43.6284" lon="12.52931"><ele>378.4</ele><time>2026-04-25T09:40:13.938Z</time></trkpt><trkpt lat="43.628395" lon="12.5294683"><ele>378.0</ele><time>2026-04-25T09:40:14.937Z</time></trkpt><trkpt lat="43.628405" lon="12.52963"><ele>378.0</ele><time>2026-04-25T09:40:15.938Z</time></trkpt><trkpt lat="43.628455" lon="12.5297983"><ele>378.0</ele><time>2026-04-25T09:40:16.937Z</time></trkpt><trkpt lat="43.62852" lon="12.5299767"><ele>378.0</ele><time>2026-04-25T09:40:17.938Z</time></trkpt><trkpt lat="43.628575" lon="12.530175"><ele>378.0</ele><time>2026-04-25T09:40:18.938Z</time></trkpt><trkpt lat="43.6286333" lon="12.5303867"><ele>373.6666666666667</ele><time>2026-04-25T09:40:19.937Z</time></trkpt><trkpt lat="43.6286883" lon="12.5305983"><ele>369.33333333333337</ele><time>2026-04-25T09:40:20.938Z</time></trkpt><trkpt lat="43.6287417" lon="12.5308"><ele>365.0</ele><time>2026-04-25T09:40:21.938Z</time></trkpt><trkpt lat="43.62879" lon="12.530995"><ele>365.0</ele><time>2026-04-25T09:40:22.938Z</time></trkpt><trkpt lat="43.6288417" lon="12.5311817"><ele>365.0</ele><time>2026-04-25T09:40:23.938Z</time></trkpt><trkpt lat="43.62889" lon="12.5313617"><ele>365.0</ele><time>2026-04-25T09:40:24.937Z</time></trkpt><trkpt lat="43.6289533" lon="12.5315283"><ele>365.0</ele><time>2026-04-25T09:40:25.938Z</time></trkpt><trkpt lat="43.6290333" lon="12.5316717"><ele>369.0</ele><time>2026-04-25T09:40:26.938Z</time></trkpt><trkpt lat="43.6291233" lon="12.53179"><ele>373.0</ele><time>2026-04-25T09:40:27.938Z</time></trkpt><trkpt lat="43.629215" lon="12.531885"><ele>377.0</ele><time>2026-04-25T09:40:28.938Z</time></trkpt><trkpt lat="43.6293133" lon="12.5319733"><ele>381.0</ele><time>2026-04-25T09:40:29.938Z</time></trkpt><trkpt lat="43.6294" lon="12.5320717"><ele>381.6</ele><time>2026-04-25T09:40:30.938Z</time></trkpt><trkpt lat="43.6294667" lon="12.5321933"><ele>382.20000000000005</ele><time>2026-04-25T09:40:31.938Z</time></trkpt><trkpt lat="43.629515" lon="12.5323283"><ele>382.79999999999995</ele><time>2026-04-25T09:40:32.938Z</time></trkpt><trkpt lat="43.629545" lon="12.532465"><ele>383.4</ele><time>2026-04-25T09:40:33.938Z</time></trkpt><trkpt lat="43.6295483" lon="12.5326067"><ele>384.0</ele><time>2026-04-25T09:40:34.938Z</time></trkpt><trkpt lat="43.6295317" lon="12.5327367"><ele>384.0</ele><time>2026-04-25T09:40:35.938Z</time></trkpt><trkpt lat="43.6294933" lon="12.5328367"><ele>384.0</ele><time>2026-04-25T09:40:36.938Z</time></trkpt><trkpt lat="43.6294433" lon="12.53291"><ele>384.0</ele><time>2026-04-25T09:40:37.938Z</time></trkpt><trkpt lat="43.62939" lon="12.532965"><ele>384.0</ele><time>2026-04-25T09:40:38.938Z</time></trkpt><trkpt lat="43.6293317" lon="12.5330167"><ele>384.0</ele><time>2026-04-25T09:40:39.938Z</time></trkpt><trkpt lat="43.6292583" lon="12.5330617"><ele>384.0</ele><time>2026-04-25T09:40:40.937Z</time></trkpt><trkpt lat="43.629175" lon="12.5331067"><ele>385.75</ele><time>2026-04-25T09:40:41.938Z</time></trkpt><trkpt lat="43.6290783" lon="12.5331533"><ele>387.5</ele><time>2026-04-25T09:40:42.938Z</time></trkpt><trkpt lat="43.6289717" lon="12.533205"><ele>389.25</ele><time>2026-04-25T09:40:43.938Z</time></trkpt><trkpt lat="43.6288633" lon="12.53326"><ele>391.0</ele><time>2026-04-25T09:40:44.938Z</time></trkpt><trkpt lat="43.6287483" lon="12.5333183"><ele>390.0</ele><time>2026-04-25T09:40:45.938Z</time></trkpt><trkpt lat="43.6286367" lon="12.5333867"><ele>389.0</ele><time>2026-04-25T09:40:46.938Z</time></trkpt><trkpt lat="43.6285333" lon="12.5334733"><ele>388.0</ele><time>2026-04-25T09:40:47.938Z</time></trkpt><trkpt lat="43.6284433" lon="12.533575"><ele>387.0</ele><time>2026-04-25T09:40:48.938Z</time></trkpt><trkpt lat="43.6283767" lon="12.5337"><ele>382.75</ele><time>2026-04-25T09:40:49.938Z</time></trkpt><trkpt lat="43.62832" lon="12.5338383"><ele>378.5</ele><time>2026-04-25T09:40:50.938Z</time></trkpt><trkpt lat="43.6282617" lon="12.5339783"><ele>374.25</ele><time>2026-04-25T09:40:51.937Z</time></trkpt><trkpt lat="43.6281867" lon="12.5341017"><ele>370.0</ele><time>2026-04-25T09:40:52.938Z</time></trkpt><trkpt lat="43.6280967" lon="12.5341983"><ele>370.0</ele><time>2026-04-25T09:40:53.938Z</time></trkpt><trkpt lat="43.6280117" lon="12.5342783"><ele>370.0</ele><time>2026-04-25T09:40:54.937Z</time></trkpt><trkpt lat="43.62795" lon="12.53436"><ele>370.0</ele><time>2026-04-25T09:40:55.937Z</time></trkpt><trkpt lat="43.6279167" lon="12.5344533"><ele>370.0</ele><time>2026-04-25T09:40:56.937Z</time></trkpt><trkpt lat="43.6279133" lon="12.5345517"><ele>370.0</ele><time>2026-04-25T09:40:57.937Z</time></trkpt><trkpt lat="43.62795" lon="12.5346567"><ele>370.0</ele><time>2026-04-25T09:40:58.938Z</time></trkpt><trkpt lat="43.628035" lon="12.534775"><ele>367.75</ele><time>2026-04-25T09:40:59.937Z</time></trkpt><trkpt lat="43.6281283" lon="12.5348983"><ele>365.5</ele><time>2026-04-25T09:41:00.937Z</time></trkpt><trkpt lat="43.628235" lon="12.535025"><ele>363.25</ele><time>2026-04-25T09:41:01.938Z</time></trkpt><trkpt lat="43.628345" lon="12.5351533"><ele>361.0</ele><time>2026-04-25T09:41:02.938Z</time></trkpt><trkpt lat="43.6284517" lon="12.5352767"><ele>361.0</ele><time>2026-04-25T09:41:03.937Z</time></trkpt><trkpt lat="43.628545" lon="12.5353817"><ele>361.0</ele><time>2026-04-25T09:41:04.937Z</time></trkpt><trkpt lat="43.6286083" lon="12.5354567"><ele>361.0</ele><time>2026-04-25T09:41:05.937Z</time></trkpt><trkpt lat="43.6286383" lon="12.53556"><ele>361.0</ele><time>2026-04-25T09:41:07.938Z</time></trkpt><trkpt lat="43.62858" lon="12.53562"><ele>361.0</ele><time>2026-04-25T09:41:09.938Z</time></trkpt><trkpt lat="43.6284883" lon="12.5356683"><ele>361.3333333333333</ele><time>2026-04-25T09:41:11.937Z</time></trkpt><trkpt lat="43.628425" lon="12.5357083"><ele>361.66666666666663</ele><time>2026-04-25T09:41:12.938Z</time></trkpt><trkpt lat="43.6283633" lon="12.5357633"><ele>362.0</ele><time>2026-04-25T09:41:13.938Z</time></trkpt><trkpt lat="43.6282967" lon="12.5358283"><ele>362.3333333333333</ele><time>2026-04-25T09:41:14.938Z</time></trkpt><trkpt lat="43.6282283" lon="12.5359133"><ele>362.6666666666667</ele><time>2026-04-25T09:41:15.938Z</time></trkpt><trkpt lat="43.62815" lon="12.53602"><ele>363.0</ele><time>2026-04-25T09:41:16.937Z</time></trkpt><trkpt lat="43.6280567" lon="12.5361533"><ele>366.0</ele><time>2026-04-25T09:41:17.938Z</time></trkpt><trkpt lat="43.62797" lon="12.5362917"><ele>369.0</ele><time>2026-04-25T09:41:18.937Z</time></trkpt><trkpt lat="43.6278917" lon="12.5364367"><ele>372.0</ele><time>2026-04-25T09:41:19.938Z</time></trkpt><trkpt lat="43.6278183" lon="12.5365933"><ele>375.0</ele><time>2026-04-25T09:41:20.938Z</time></trkpt><trkpt lat="43.6277517" lon="12.5367483"><ele>375.0</ele><time>2026-04-25T09:41:21.938Z</time></trkpt><trkpt lat="43.6276717" lon="12.536905"><ele>375.0</ele><time>2026-04-25T09:41:22.938Z</time></trkpt><trkpt lat="43.6275917" lon="12.53705"><ele>375.0</ele><time>2026-04-25T09:41:23.938Z</time></trkpt><trkpt lat="43.62751" lon="12.537205"><ele>375.0</ele><time>2026-04-25T09:41:24.937Z</time></trkpt><trkpt lat="43.6274317" lon="12.53737"><ele>377.6666666666667</ele><time>2026-04-25T09:41:25.938Z</time></trkpt><trkpt lat="43.6273517" lon="12.5375417"><ele>380.33333333333337</ele><time>2026-04-25T09:41:26.937Z</time></trkpt><trkpt lat="43.627275" lon="12.53772"><ele>383.0</ele><time>2026-04-25T09:41:27.938Z</time></trkpt><trkpt lat="43.6272033" lon="12.5379067"><ele>383.0</ele><time>2026-04-25T09:41:28.937Z</time></trkpt><trkpt lat="43.6271417" lon="12.5380967"><ele>383.0</ele><time>2026-04-25T09:41:29.937Z</time></trkpt><trkpt lat="43.6270817" lon="12.5382917"><ele>383.0</ele><time>2026-04-25T09:41:30.937Z</time></trkpt><trkpt lat="43.6270117" lon="12.53848"><ele>384.25</ele><time>2026-04-25T09:41:31.936Z</time></trkpt><trkpt lat="43.6269583" lon="12.538655"><ele>385.5</ele><time>2026-04-25T09:41:32.937Z</time></trkpt><trkpt lat="43.6269033" lon="12.5387967"><ele>386.75</ele><time>2026-04-25T09:41:33.936Z</time></trkpt><trkpt lat="43.6268333" lon="12.5389133"><ele>388.0</ele><time>2026-04-25T09:41:34.937Z</time></trkpt><trkpt lat="43.6267433" lon="12.53901"><ele>389.75</ele><time>2026-04-25T09:41:35.937Z</time></trkpt><trkpt lat="43.626635" lon="12.5390967"><ele>391.5</ele><time>2026-04-25T09:41:36.937Z</time></trkpt><trkpt lat="43.626515" lon="12.5391967"><ele>393.25</ele><time>2026-04-25T09:41:37.937Z</time></trkpt><trkpt lat="43.6264" lon="12.5393117"><ele>395.0</ele><time>2026-04-25T09:41:38.937Z</time></trkpt><trkpt lat="43.6262933" lon="12.539435"><ele>395.3333333333333</ele><time>2026-04-25T09:41:39.937Z</time></trkpt><trkpt lat="43.6261833" lon="12.5395717"><ele>395.66666666666663</ele><time>2026-04-25T09:41:40.937Z</time></trkpt><trkpt lat="43.6260567" lon="12.5397217"><ele>396.0</ele><time>2026-04-25T09:41:41.937Z</time></trkpt><trkpt lat="43.625925" lon="12.5398767"><ele>399.66666666666663</ele><time>2026-04-25T09:41:42.937Z</time></trkpt><trkpt lat="43.625795" lon="12.5400233"><ele>403.3333333333333</ele><time>2026-04-25T09:41:43.937Z</time></trkpt><trkpt lat="43.6256683" lon="12.5401533"><ele>407.0</ele><time>2026-04-25T09:41:44.937Z</time></trkpt><trkpt lat="43.625545" lon="12.54026"><ele>407.0</ele><time>2026-04-25T09:41:45.937Z</time></trkpt><trkpt lat="43.6254317" lon="12.540355"><ele>407.0</ele><time>2026-04-25T09:41:46.937Z</time></trkpt><trkpt lat="43.6253433" lon="12.5404533"><ele>407.0</ele><time>2026-04-25T09:41:47.937Z</time></trkpt><trkpt lat="43.625275" lon="12.5405667"><ele>407.0</ele><time>2026-04-25T09:41:48.937Z</time></trkpt><trkpt lat="43.6252183" lon="12.540705"><ele>412.75</ele><time>2026-04-25T09:41:49.937Z</time></trkpt><trkpt lat="43.6251667" lon="12.54086"><ele>418.5</ele><time>2026-04-25T09:41:50.937Z</time></trkpt><trkpt lat="43.6251033" lon="12.5410333"><ele>424.25</ele><time>2026-04-25T09:41:51.936Z</time></trkpt><trkpt lat="43.6250217" lon="12.5412117"><ele>430.0</ele><time>2026-04-25T09:41:52.937Z</time></trkpt><trkpt lat="43.62493" lon="12.5413967"><ele>434.0</ele><time>2026-04-25T09:41:53.937Z</time></trkpt><trkpt lat="43.624815" lon="12.5415883"><ele>438.0</ele><time>2026-04-25T09:41:54.937Z</time></trkpt><trkpt lat="43.6246867" lon="12.54178"><ele>442.0</ele><time>2026-04-25T09:41:55.937Z</time></trkpt><trkpt lat="43.62456" lon="12.5419533"><ele>446.6666666666667</ele><time>2026-04-25T09:41:56.937Z</time></trkpt><trkpt lat="43.6244383" lon="12.5421067"><ele>451.33333333333337</ele><time>2026-04-25T09:41:57.937Z</time></trkpt><trkpt lat="43.62432" lon="12.5422433"><ele>456.0</ele><time>2026-04-25T09:41:58.937Z</time></trkpt><trkpt lat="43.624205" lon="12.542365"><ele>456.0</ele><time>2026-04-25T09:41:59.936Z</time></trkpt><trkpt lat="43.6240833" lon="12.5424567"><ele>456.0</ele><time>2026-04-25T09:42:00.936Z</time></trkpt><trkpt lat="43.6239583" lon="12.5425033"><ele>456.0</ele><time>2026-04-25T09:42:01.937Z</time></trkpt><trkpt lat="43.623835" lon="12.5425233"><ele>456.0</ele><time>2026-04-25T09:42:02.937Z</time></trkpt><trkpt lat="43.623735" lon="12.5425417"><ele>456.0</ele><time>2026-04-25T09:42:03.937Z</time></trkpt><trkpt lat="43.6236583" lon="12.5425783"><ele>456.0</ele><time>2026-04-25T09:42:04.936Z</time></trkpt><trkpt lat="43.6236017" lon="12.5426433"><ele>456.0</ele><time>2026-04-25T09:42:05.937Z</time></trkpt><trkpt lat="43.6235567" lon="12.5427467"><ele>456.0</ele><time>2026-04-25T09:42:06.936Z</time></trkpt><trkpt lat="43.6235167" lon="12.5428767"><ele>456.0</ele><time>2026-04-25T09:42:07.937Z</time></trkpt><trkpt lat="43.6234617" lon="12.5430383"><ele>456.66666666666663</ele><time>2026-04-25T09:42:08.936Z</time></trkpt><trkpt lat="43.62339" lon="12.5432117"><ele>457.3333333333333</ele><time>2026-04-25T09:42:09.937Z</time></trkpt><trkpt lat="43.6233033" lon="12.543405"><ele>458.0</ele><time>2026-04-25T09:42:10.937Z</time></trkpt><trkpt lat="43.623205" lon="12.543615"><ele>456.66666666666663</ele><time>2026-04-25T09:42:11.937Z</time></trkpt><trkpt lat="43.623105" lon="12.5438467"><ele>455.33333333333337</ele><time>2026-04-25T09:42:12.937Z</time></trkpt><trkpt lat="43.6229983" lon="12.544085"><ele>454.0</ele><time>2026-04-25T09:42:13.937Z</time></trkpt><trkpt lat="43.622895" lon="12.5443167"><ele>449.6666666666667</ele><time>2026-04-25T09:42:14.937Z</time></trkpt><trkpt lat="43.62279" lon="12.544545"><ele>445.33333333333337</ele><time>2026-04-25T09:42:15.937Z</time></trkpt><trkpt lat="43.6227033" lon="12.54477"><ele>441.0</ele><time>2026-04-25T09:42:16.937Z</time></trkpt><trkpt lat="43.6226033" lon="12.5449717"><ele>441.0</ele><time>2026-04-25T09:42:17.937Z</time></trkpt><trkpt lat="43.6225167" lon="12.5451667"><ele>441.0</ele><time>2026-04-25T09:42:18.937Z</time></trkpt><trkpt lat="43.622435" lon="12.5453533"><ele>441.0</ele><time>2026-04-25T09:42:19.937Z</time></trkpt><trkpt lat="43.622335" lon="12.545515"><ele>439.0</ele><time>2026-04-25T09:42:20.936Z</time></trkpt><trkpt lat="43.6222167" lon="12.5456433"><ele>437.0</ele><time>2026-04-25T09:42:21.937Z</time></trkpt><trkpt lat="43.6220817" lon="12.5457217"><ele>435.0</ele><time>2026-04-25T09:42:22.937Z</time></trkpt><trkpt lat="43.62195" lon="12.545775"><ele>433.0</ele><time>2026-04-25T09:42:23.936Z</time></trkpt><trkpt lat="43.621835" lon="12.5458517"><ele>429.75</ele><time>2026-04-25T09:42:24.937Z</time></trkpt><trkpt lat="43.621725" lon="12.5459433"><ele>426.5</ele><time>2026-04-25T09:42:25.936Z</time></trkpt><trkpt lat="43.621615" lon="12.5460533"><ele>423.25</ele><time>2026-04-25T09:42:26.937Z</time></trkpt><trkpt lat="43.62151" lon="12.5461667"><ele>420.0</ele><time>2026-04-25T09:42:27.936Z</time></trkpt><trkpt lat="43.6214117" lon="12.5462733"><ele>419.4</ele><time>2026-04-25T09:42:28.937Z</time></trkpt><trkpt lat="43.6213183" lon="12.5463667"><ele>418.8</ele><time>2026-04-25T09:42:29.937Z</time></trkpt><trkpt lat="43.621225" lon="12.546425"><ele>418.20000000000005</ele><time>2026-04-25T09:42:30.937Z</time></trkpt><trkpt lat="43.62113" lon="12.546425"><ele>417.6</ele><time>2026-04-25T09:42:31.937Z</time></trkpt><trkpt lat="43.6210283" lon="12.5463683"><ele>417.0</ele><time>2026-04-25T09:42:32.936Z</time></trkpt><trkpt lat="43.6209167" lon="12.546265"><ele>415.0</ele><time>2026-04-25T09:42:33.936Z</time></trkpt><trkpt lat="43.6207917" lon="12.5461317"><ele>413.0</ele><time>2026-04-25T09:42:34.937Z</time></trkpt><trkpt lat="43.6206617" lon="12.5459883"><ele>411.0</ele><time>2026-04-25T09:42:35.936Z</time></trkpt><trkpt lat="43.620535" lon="12.5458483"><ele>411.0</ele><time>2026-04-25T09:42:36.937Z</time></trkpt><trkpt lat="43.6204167" lon="12.5457167"><ele>411.0</ele><time>2026-04-25T09:42:37.937Z</time></trkpt><trkpt lat="43.6203067" lon="12.5456"><ele>411.0</ele><time>2026-04-25T09:42:38.937Z</time></trkpt><trkpt lat="43.62021" lon="12.5455067"><ele>411.0</ele><time>2026-04-25T09:42:39.937Z</time></trkpt><trkpt lat="43.6201133" lon="12.5454483"><ele>410.5</ele><time>2026-04-25T09:42:40.937Z</time></trkpt><trkpt lat="43.6200083" lon="12.54543"><ele>410.0</ele><time>2026-04-25T09:42:41.937Z</time></trkpt><trkpt lat="43.6198883" lon="12.54544"><ele>409.5</ele><time>2026-04-25T09:42:42.937Z</time></trkpt><trkpt lat="43.619755" lon="12.5454733"><ele>409.0</ele><time>2026-04-25T09:42:43.937Z</time></trkpt><trkpt lat="43.6196117" lon="12.5455317"><ele>411.0</ele><time>2026-04-25T09:42:44.937Z</time></trkpt><trkpt lat="43.61947" lon="12.5456133"><ele>413.0</ele><time>2026-04-25T09:42:45.936Z</time></trkpt><trkpt lat="43.6193233" lon="12.5457217"><ele>415.0</ele><time>2026-04-25T09:42:46.937Z</time></trkpt><trkpt lat="43.61918" lon="12.5458367"><ele>415.0</ele><time>2026-04-25T09:42:47.936Z</time></trkpt><trkpt lat="43.6190383" lon="12.5459383"><ele>415.0</ele><time>2026-04-25T09:42:48.937Z</time></trkpt><trkpt lat="43.618905" lon="12.546045"><ele>415.0</ele><time>2026-04-25T09:42:49.936Z</time></trkpt><trkpt lat="43.6187733" lon="12.5461633"><ele>411.6666666666667</ele><time>2026-04-25T09:42:50.936Z</time></trkpt><trkpt lat="43.618645" lon="12.5462967"><ele>408.33333333333337</ele><time>2026-04-25T09:42:51.937Z</time></trkpt><trkpt lat="43.61852" lon="12.5464383"><ele>405.0</ele><time>2026-04-25T09:42:52.936Z</time></trkpt><trkpt lat="43.6183967" lon="12.5465817"><ele>405.0</ele><time>2026-04-25T09:42:53.937Z</time></trkpt><trkpt lat="43.6182817" lon="12.5467333"><ele>405.0</ele><time>2026-04-25T09:42:54.937Z</time></trkpt><trkpt lat="43.6181767" lon="12.54689"><ele>405.0</ele><time>2026-04-25T09:42:55.937Z</time></trkpt><trkpt lat="43.61809" lon="12.5470367"><ele>401.6</ele><time>2026-04-25T09:42:56.937Z</time></trkpt><trkpt lat="43.618025" lon="12.5471783"><ele>398.2</ele><time>2026-04-25T09:42:57.937Z</time></trkpt><trkpt lat="43.61798" lon="12.5473167"><ele>394.79999999999995</ele><time>2026-04-25T09:42:58.937Z</time></trkpt><trkpt lat="43.6179483" lon="12.5474483"><ele>391.4</ele><time>2026-04-25T09:42:59.937Z</time></trkpt><trkpt lat="43.6179133" lon="12.5475767"><ele>388.0</ele><time>2026-04-25T09:43:00.936Z</time></trkpt><trkpt lat="43.6178733" lon="12.5476917"><ele>388.00000000000006</ele><time>2026-04-25T09:43:01.937Z</time></trkpt><trkpt lat="43.6178217" lon="12.5477733"><ele>388.0</ele><time>2026-04-25T09:43:02.937Z</time></trkpt><trkpt lat="43.6177617" lon="12.5478283"><ele>388.0</ele><time>2026-04-25T09:43:03.936Z</time></trkpt><trkpt lat="43.6176817" lon="12.5478383"><ele>388.0</ele><time>2026-04-25T09:43:05.937Z</time></trkpt><trkpt lat="43.6176033" lon="12.54774"><ele>388.00000000000006</ele><time>2026-04-25T09:43:07.936Z</time></trkpt><trkpt lat="43.617545" lon="12.547705"><ele>388.0</ele><time>2026-04-25T09:43:08.937Z</time></trkpt><trkpt lat="43.6174733" lon="12.5476833"><ele>389.59999999999997</ele><time>2026-04-25T09:43:09.937Z</time></trkpt><trkpt lat="43.617385" lon="12.5476617"><ele>391.2</ele><time>2026-04-25T09:43:10.937Z</time></trkpt><trkpt lat="43.6172933" lon="12.5476183"><ele>392.8</ele><time>2026-04-25T09:43:11.937Z</time></trkpt><trkpt lat="43.6172083" lon="12.547565"><ele>394.4</ele><time>2026-04-25T09:43:12.936Z</time></trkpt><trkpt lat="43.61714" lon="12.5475133"><ele>396.0</ele><time>2026-04-25T09:43:13.937Z</time></trkpt><trkpt lat="43.617035" lon="12.5474433"><ele>396.0</ele><time>2026-04-25T09:43:15.937Z</time></trkpt><trkpt lat="43.61697" lon="12.5474933"><ele>396.0</ele><time>2026-04-25T09:43:17.937Z</time></trkpt><trkpt lat="43.6170017" lon="12.5476783"><ele>396.0</ele><time>2026-04-25T09:43:19.937Z</time></trkpt><trkpt lat="43.61704" lon="12.547845"><ele>396.0</ele><time>2026-04-25T09:43:20.937Z</time></trkpt><trkpt lat="43.617075" lon="12.5480317"><ele>393.0</ele><time>2026-04-25T09:43:21.937Z</time></trkpt><trkpt lat="43.6171017" lon="12.5482283"><ele>390.0</ele><time>2026-04-25T09:43:22.937Z</time></trkpt><trkpt lat="43.6171167" lon="12.5484267"><ele>387.0</ele><time>2026-04-25T09:43:23.937Z</time></trkpt><trkpt lat="43.6171233" lon="12.5486183"><ele>384.0</ele><time>2026-04-25T09:43:24.936Z</time></trkpt><trkpt lat="43.6171217" lon="12.5488033"><ele>381.75</ele><time>2026-04-25T09:43:25.937Z</time></trkpt><trkpt lat="43.6171117" lon="12.5489833"><ele>379.5</ele><time>2026-04-25T09:43:26.936Z</time></trkpt><trkpt lat="43.6170983" lon="12.5491567"><ele>377.25</ele><time>2026-04-25T09:43:27.937Z</time></trkpt><trkpt lat="43.6170833" lon="12.5493283"><ele>375.0</ele><time>2026-04-25T09:43:28.936Z</time></trkpt><trkpt lat="43.6170767" lon="12.54951"><ele>373.0</ele><time>2026-04-25T09:43:29.937Z</time></trkpt><trkpt lat="43.6170733" lon="12.54969"><ele>371.0</ele><time>2026-04-25T09:43:30.937Z</time></trkpt><trkpt lat="43.6170683" lon="12.5498633"><ele>369.0</ele><time>2026-04-25T09:43:31.936Z</time></trkpt><trkpt lat="43.61706" lon="12.5500283"><ele>367.0</ele><time>2026-04-25T09:43:32.937Z</time></trkpt><trkpt lat="43.6170583" lon="12.5501883"><ele>367.0</ele><time>2026-04-25T09:43:33.937Z</time></trkpt><trkpt lat="43.6170617" lon="12.5503483"><ele>367.0</ele><time>2026-04-25T09:43:34.937Z</time></trkpt><trkpt lat="43.6170733" lon="12.5505117"><ele>367.0</ele><time>2026-04-25T09:43:35.937Z</time></trkpt><trkpt lat="43.6171033" lon="12.55068"><ele>367.0</ele><time>2026-04-25T09:43:36.937Z</time></trkpt><trkpt lat="43.6171433" lon="12.5508483"><ele>363.5</ele><time>2026-04-25T09:43:37.936Z</time></trkpt><trkpt lat="43.6171917" lon="12.5510183"><ele>360.0</ele><time>2026-04-25T09:43:38.937Z</time></trkpt><trkpt lat="43.617245" lon="12.55119"><ele>356.5</ele><time>2026-04-25T09:43:39.936Z</time></trkpt><trkpt lat="43.6172933" lon="12.551365"><ele>353.0</ele><time>2026-04-25T09:43:40.937Z</time></trkpt><trkpt lat="43.6173267" lon="12.5515567"><ele>352.0</ele><time>2026-04-25T09:43:41.937Z</time></trkpt><trkpt lat="43.6173533" lon="12.551775"><ele>351.0</ele><time>2026-04-25T09:43:42.936Z</time></trkpt><trkpt lat="43.61737" lon="12.5520083"><ele>350.0</ele><time>2026-04-25T09:43:43.937Z</time></trkpt><trkpt lat="43.6173867" lon="12.5522333"><ele>350.0</ele><time>2026-04-25T09:43:44.936Z</time></trkpt><trkpt lat="43.6174033" lon="12.5524333"><ele>350.0</ele><time>2026-04-25T09:43:45.937Z</time></trkpt><trkpt lat="43.6174217" lon="12.552595"><ele>350.0</ele><time>2026-04-25T09:43:46.937Z</time></trkpt><trkpt lat="43.6174467" lon="12.552725"><ele>350.0</ele><time>2026-04-25T09:43:47.936Z</time></trkpt><trkpt lat="43.6174833" lon="12.55283"><ele>350.0</ele><time>2026-04-25T09:43:48.937Z</time></trkpt><trkpt lat="43.617525" lon="12.5529083"><ele>351.0</ele><time>2026-04-25T09:43:49.937Z</time></trkpt><trkpt lat="43.6175867" lon="12.5529583"><ele>352.0</ele><time>2026-04-25T09:43:50.937Z</time></trkpt><trkpt lat="43.6176617" lon="12.552985"><ele>353.0</ele><time>2026-04-25T09:43:51.937Z</time></trkpt><trkpt lat="43.6177467" lon="12.5529917"><ele>354.0</ele><time>2026-04-25T09:43:52.937Z</time></trkpt><trkpt lat="43.6178567" lon="12.5529967"><ele>355.0</ele><time>2026-04-25T09:43:53.937Z</time></trkpt><trkpt lat="43.6179917" lon="12.5530183"><ele>355.75</ele><time>2026-04-25T09:43:54.936Z</time></trkpt><trkpt lat="43.6181317" lon="12.5530567"><ele>356.5</ele><time>2026-04-25T09:43:55.937Z</time></trkpt><trkpt lat="43.6182733" lon="12.5531167"><ele>357.25</ele><time>2026-04-25T09:43:56.937Z</time></trkpt><trkpt lat="43.6184117" lon="12.553195"><ele>358.0</ele><time>2026-04-25T09:43:57.936Z</time></trkpt><trkpt lat="43.6185417" lon="12.5532833"><ele>360.0</ele><time>2026-04-25T09:43:58.937Z</time></trkpt><trkpt lat="43.6186717" lon="12.5533633"><ele>362.0</ele><time>2026-04-25T09:43:59.937Z</time></trkpt><trkpt lat="43.6188" lon="12.5534533"><ele>364.0</ele><time>2026-04-25T09:44:00.937Z</time></trkpt><trkpt lat="43.6189183" lon="12.5535633"><ele>366.0</ele><time>2026-04-25T09:44:01.936Z</time></trkpt><trkpt lat="43.6190167" lon="12.5536833"><ele>366.20000000000005</ele><time>2026-04-25T09:44:02.936Z</time></trkpt><trkpt lat="43.6190883" lon="12.5538083"><ele>366.40000000000003</ele><time>2026-04-25T09:44:03.937Z</time></trkpt><trkpt lat="43.6191317" lon="12.5539433"><ele>366.6</ele><time>2026-04-25T09:44:04.937Z</time></trkpt><trkpt lat="43.61916" lon="12.5540867"><ele>366.8</ele><time>2026-04-25T09:44:05.937Z</time></trkpt><trkpt lat="43.6191833" lon="12.55423"><ele>367.0</ele><time>2026-04-25T09:44:06.937Z</time></trkpt><trkpt lat="43.619205" lon="12.55437"><ele>367.0</ele><time>2026-04-25T09:44:07.937Z</time></trkpt><trkpt lat="43.6192133" lon="12.554495"><ele>367.0</ele><time>2026-04-25T09:44:08.937Z</time></trkpt><trkpt lat="43.6191983" lon="12.554615"><ele>367.0</ele><time>2026-04-25T09:44:09.936Z</time></trkpt><trkpt lat="43.61915" lon="12.55473"><ele>367.0</ele><time>2026-04-25T09:44:10.937Z</time></trkpt><trkpt lat="43.6190767" lon="12.5548417"><ele>367.0</ele><time>2026-04-25T09:44:11.937Z</time></trkpt><trkpt lat="43.6189817" lon="12.5549467"><ele>367.0</ele><time>2026-04-25T09:44:12.937Z</time></trkpt><trkpt lat="43.618875" lon="12.555045"><ele>367.0</ele><time>2026-04-25T09:44:13.936Z</time></trkpt><trkpt lat="43.6187617" lon="12.5551583"><ele>367.0</ele><time>2026-04-25T09:44:14.937Z</time></trkpt><trkpt lat="43.6186517" lon="12.5552867"><ele>367.0</ele><time>2026-04-25T09:44:15.936Z</time></trkpt><trkpt lat="43.61855" lon="12.5554367"><ele>367.0</ele><time>2026-04-25T09:44:16.937Z</time></trkpt><trkpt lat="43.6184483" lon="12.5556033"><ele>367.0</ele><time>2026-04-25T09:44:17.937Z</time></trkpt><trkpt lat="43.61835" lon="12.55577"><ele>367.0</ele><time>2026-04-25T09:44:18.937Z</time></trkpt><trkpt lat="43.6182567" lon="12.5559467"><ele>367.0</ele><time>2026-04-25T09:44:19.936Z</time></trkpt><trkpt lat="43.6181733" lon="12.5561317"><ele>367.0</ele><time>2026-04-25T09:44:20.937Z</time></trkpt><trkpt lat="43.6181067" lon="12.5563067"><ele>367.0</ele><time>2026-04-25T09:44:21.936Z</time></trkpt><trkpt lat="43.6180483" lon="12.5564633"><ele>367.0</ele><time>2026-04-25T09:44:22.937Z</time></trkpt><trkpt lat="43.6179817" lon="12.5565983"><ele>367.8</ele><time>2026-04-25T09:44:23.936Z</time></trkpt><trkpt lat="43.6179067" lon="12.5567183"><ele>368.6</ele><time>2026-04-25T09:44:24.937Z</time></trkpt><trkpt lat="43.6178283" lon="12.5568233"><ele>369.40000000000003</ele><time>2026-04-25T09:44:25.937Z</time></trkpt><trkpt lat="43.6177517" lon="12.556905"><ele>370.20000000000005</ele><time>2026-04-25T09:44:26.936Z</time></trkpt><trkpt lat="43.61767" lon="12.556945"><ele>371.0</ele><time>2026-04-25T09:44:27.937Z</time></trkpt><trkpt lat="43.61758" lon="12.5569433"><ele>371.0</ele><time>2026-04-25T09:44:28.937Z</time></trkpt><trkpt lat="43.6174783" lon="12.556915"><ele>371.0</ele><time>2026-04-25T09:44:29.937Z</time></trkpt><trkpt lat="43.6173617" lon="12.5568817"><ele>371.0</ele><time>2026-04-25T09:44:30.937Z</time></trkpt><trkpt lat="43.6172367" lon="12.5568533"><ele>371.0</ele><time>2026-04-25T09:44:31.936Z</time></trkpt><trkpt lat="43.6171083" lon="12.5568467"><ele>371.0</ele><time>2026-04-25T09:44:32.937Z</time></trkpt><trkpt lat="43.6169867" lon="12.5568717"><ele>371.0</ele><time>2026-04-25T09:44:33.937Z</time></trkpt><trkpt lat="43.6168733" lon="12.5569267"><ele>371.0</ele><time>2026-04-25T09:44:34.936Z</time></trkpt><trkpt lat="43.6167667" lon="12.5570167"><ele>371.0</ele><time>2026-04-25T09:44:35.937Z</time></trkpt><trkpt lat="43.6166633" lon="12.5571367"><ele>368.75</ele><time>2026-04-25T09:44:36.937Z</time></trkpt><trkpt lat="43.6165583" lon="12.5572733"><ele>366.5</ele><time>2026-04-25T09:44:37.937Z</time></trkpt><trkpt lat="43.6164583" lon="12.5574283"><ele>364.25</ele><time>2026-04-25T09:44:38.937Z</time></trkpt><trkpt lat="43.6163617" lon="12.5575933"><ele>362.0</ele><time>2026-04-25T09:44:39.936Z</time></trkpt><trkpt lat="43.6162683" lon="12.55776"><ele>359.5</ele><time>2026-04-25T09:44:40.937Z</time></trkpt><trkpt lat="43.6161783" lon="12.5579183"><ele>357.0</ele><time>2026-04-25T09:44:41.937Z</time></trkpt><trkpt lat="43.61609" lon="12.5580533"><ele>354.5</ele><time>2026-04-25T09:44:42.937Z</time></trkpt><trkpt lat="43.6160033" lon="12.558165"><ele>352.0</ele><time>2026-04-25T09:44:43.937Z</time></trkpt><trkpt lat="43.6159267" lon="12.5582817"><ele>352.0</ele><time>2026-04-25T09:44:44.936Z</time></trkpt><trkpt lat="43.6158683" lon="12.5584117"><ele>352.0</ele><time>2026-04-25T09:44:45.937Z</time></trkpt><trkpt lat="43.615825" lon="12.5585583"><ele>352.0</ele><time>2026-04-25T09:44:46.937Z</time></trkpt><trkpt lat="43.6157883" lon="12.5587217"><ele>352.0</ele><time>2026-04-25T09:44:47.937Z</time></trkpt><trkpt lat="43.6157517" lon="12.5588883"><ele>352.5</ele><time>2026-04-25T09:44:48.937Z</time></trkpt><trkpt lat="43.615715" lon="12.559055"><ele>353.0</ele><time>2026-04-25T09:44:49.937Z</time></trkpt><trkpt lat="43.615675" lon="12.559225"><ele>353.5</ele><time>2026-04-25T09:44:50.937Z</time></trkpt><trkpt lat="43.6156333" lon="12.5593983"><ele>354.0</ele><time>2026-04-25T09:44:51.937Z</time></trkpt><trkpt lat="43.6155917" lon="12.5595733"><ele>352.25</ele><time>2026-04-25T09:44:52.937Z</time></trkpt><trkpt lat="43.6155433" lon="12.5597467"><ele>350.5</ele><time>2026-04-25T09:44:53.936Z</time></trkpt><trkpt lat="43.6154883" lon="12.559915"><ele>348.75</ele><time>2026-04-25T09:44:54.937Z</time></trkpt><trkpt lat="43.61543" lon="12.560075"><ele>347.0</ele><time>2026-04-25T09:44:55.937Z</time></trkpt><trkpt lat="43.6153583" lon="12.5602233"><ele>343.5</ele><time>2026-04-25T09:44:56.937Z</time></trkpt><trkpt lat="43.6152733" lon="12.5603517"><ele>340.0</ele><time>2026-04-25T09:44:57.937Z</time></trkpt><trkpt lat="43.6151733" lon="12.5604533"><ele>336.5</ele><time>2026-04-25T09:44:58.937Z</time></trkpt><trkpt lat="43.6150617" lon="12.560525"><ele>333.0</ele><time>2026-04-25T09:44:59.937Z</time></trkpt><trkpt lat="43.6149417" lon="12.5605717"><ele>333.0</ele><time>2026-04-25T09:45:00.936Z</time></trkpt><trkpt lat="43.6148167" lon="12.5606033"><ele>333.0</ele><time>2026-04-25T09:45:01.936Z</time></trkpt><trkpt lat="43.61469" lon="12.560635"><ele>333.0</ele><time>2026-04-25T09:45:02.936Z</time></trkpt><trkpt lat="43.6145633" lon="12.5606667"><ele>333.0</ele><time>2026-04-25T09:45:03.937Z</time></trkpt><trkpt lat="43.61444" lon="12.5606983"><ele>330.75</ele><time>2026-04-25T09:45:04.937Z</time></trkpt><trkpt lat="43.6143167" lon="12.5607333"><ele>328.5</ele><time>2026-04-25T09:45:05.936Z</time></trkpt><trkpt lat="43.6141933" lon="12.5607667"><ele>326.25</ele><time>2026-04-25T09:45:06.937Z</time></trkpt><trkpt lat="43.6140733" lon="12.5608017"><ele>324.0</ele><time>2026-04-25T09:45:07.937Z</time></trkpt><trkpt lat="43.613955" lon="12.5608467"><ele>324.0</ele><time>2026-04-25T09:45:08.937Z</time></trkpt><trkpt lat="43.61384" lon="12.5609017"><ele>324.0</ele><time>2026-04-25T09:45:09.936Z</time></trkpt><trkpt lat="43.6137233" lon="12.5609567"><ele>324.0</ele><time>2026-04-25T09:45:10.937Z</time></trkpt><trkpt lat="43.6136117" lon="12.561015"><ele>324.0</ele><time>2026-04-25T09:45:11.937Z</time></trkpt><trkpt lat="43.6135033" lon="12.561075"><ele>323.4</ele><time>2026-04-25T09:45:12.936Z</time></trkpt><trkpt lat="43.6134" lon="12.5611317"><ele>322.79999999999995</ele><time>2026-04-25T09:45:13.937Z</time></trkpt><trkpt lat="43.6133033" lon="12.561185"><ele>322.20000000000005</ele><time>2026-04-25T09:45:14.937Z</time></trkpt><trkpt lat="43.6132133" lon="12.5612367"><ele>321.6</ele><time>2026-04-25T09:45:15.937Z</time></trkpt><trkpt lat="43.6131267" lon="12.56129"><ele>321.0</ele><time>2026-04-25T09:45:16.936Z</time></trkpt><trkpt lat="43.613045" lon="12.5613167"><ele>320.99999999999994</ele><time>2026-04-25T09:45:17.936Z</time></trkpt><trkpt lat="43.6129683" lon="12.5613283"><ele>321.0</ele><time>2026-04-25T09:45:18.937Z</time></trkpt><trkpt lat="43.6129" lon="12.5613183"><ele>321.0</ele><time>2026-04-25T09:45:19.936Z</time></trkpt><trkpt lat="43.6128467" lon="12.5612633"><ele>321.0</ele><time>2026-04-25T09:45:20.937Z</time></trkpt><trkpt lat="43.6128083" lon="12.561175"><ele>321.0</ele><time>2026-04-25T09:45:21.936Z</time></trkpt><trkpt lat="43.612785" lon="12.56107"><ele>320.99999999999994</ele><time>2026-04-25T09:45:22.937Z</time></trkpt><trkpt lat="43.6127617" lon="12.5609717"><ele>321.0</ele><time>2026-04-25T09:45:23.937Z</time></trkpt><trkpt lat="43.6127333" lon="12.5608883"><ele>317.0</ele><time>2026-04-25T09:45:24.937Z</time></trkpt><trkpt lat="43.6126367" lon="12.5607967"><ele>313.0</ele><time>2026-04-25T09:45:26.937Z</time></trkpt><trkpt lat="43.6124967" lon="12.560815"><ele>309.0</ele><time>2026-04-25T09:45:28.936Z</time></trkpt><trkpt lat="43.6124067" lon="12.5608433"><ele>305.0</ele><time>2026-04-25T09:45:29.937Z</time></trkpt><trkpt lat="43.61231" lon="12.560875"><ele>301.0</ele><time>2026-04-25T09:45:30.936Z</time></trkpt><trkpt lat="43.612205" lon="12.560905"><ele>301.0</ele><time>2026-04-25T09:45:31.937Z</time></trkpt><trkpt lat="43.6120967" lon="12.5609267"><ele>301.0</ele><time>2026-04-25T09:45:32.937Z</time></trkpt><trkpt lat="43.6119883" lon="12.56094"><ele>301.0</ele><time>2026-04-25T09:45:33.937Z</time></trkpt><trkpt lat="43.6118833" lon="12.5609467"><ele>301.0</ele><time>2026-04-25T09:45:34.937Z</time></trkpt><trkpt lat="43.6117817" lon="12.560945"><ele>301.0</ele><time>2026-04-25T09:45:35.936Z</time></trkpt><trkpt lat="43.6116883" lon="12.560945"><ele>301.0</ele><time>2026-04-25T09:45:36.937Z</time></trkpt><trkpt lat="43.6115933" lon="12.5609567"><ele>301.0</ele><time>2026-04-25T09:45:37.937Z</time></trkpt><trkpt lat="43.6115" lon="12.5609783"><ele>301.0</ele><time>2026-04-25T09:45:38.936Z</time></trkpt><trkpt lat="43.6114017" lon="12.5610233"><ele>301.0</ele><time>2026-04-25T09:45:39.936Z</time></trkpt><trkpt lat="43.611305" lon="12.5610933"><ele>301.0</ele><time>2026-04-25T09:45:40.937Z</time></trkpt><trkpt lat="43.611205" lon="12.5611683"><ele>296.5</ele><time>2026-04-25T09:45:41.937Z</time></trkpt><trkpt lat="43.6111033" lon="12.5612417"><ele>292.0</ele><time>2026-04-25T09:45:42.937Z</time></trkpt><trkpt lat="43.6110017" lon="12.5613233"><ele>287.5</ele><time>2026-04-25T09:45:43.937Z</time></trkpt><trkpt lat="43.610905" lon="12.561405"><ele>283.0</ele><time>2026-04-25T09:45:44.937Z</time></trkpt><trkpt lat="43.6108133" lon="12.5614833"><ele>283.0</ele><time>2026-04-25T09:45:45.937Z</time></trkpt><trkpt lat="43.6107367" lon="12.5615517"><ele>283.0</ele><time>2026-04-25T09:45:46.937Z</time></trkpt><trkpt lat="43.6106783" lon="12.561615"><ele>283.0</ele><time>2026-04-25T09:45:47.937Z</time></trkpt><trkpt lat="43.6106333" lon="12.5616917"><ele>283.0</ele><time>2026-04-25T09:45:48.937Z</time></trkpt><trkpt lat="43.6106067" lon="12.5617867"><ele>283.0</ele><time>2026-04-25T09:45:49.937Z</time></trkpt><trkpt lat="43.6106017" lon="12.561915"><ele>283.0</ele><time>2026-04-25T09:45:50.936Z</time></trkpt><trkpt lat="43.61062" lon="12.562055"><ele>283.0</ele><time>2026-04-25T09:45:51.937Z</time></trkpt><trkpt lat="43.6106617" lon="12.5621883"><ele>283.0</ele><time>2026-04-25T09:45:52.937Z</time></trkpt><trkpt lat="43.6107217" lon="12.56232"><ele>283.0</ele><time>2026-04-25T09:45:53.937Z</time></trkpt><trkpt lat="43.6107933" lon="12.562445"><ele>283.0</ele><time>2026-04-25T09:45:54.937Z</time></trkpt><trkpt lat="43.6108717" lon="12.5625617"><ele>283.0</ele><time>2026-04-25T09:45:55.937Z</time></trkpt><trkpt lat="43.6109567" lon="12.562675"><ele>283.0</ele><time>2026-04-25T09:45:56.937Z</time></trkpt><trkpt lat="43.6110483" lon="12.5627833"><ele>283.0</ele><time>2026-04-25T09:45:57.937Z</time></trkpt><trkpt lat="43.6111533" lon="12.562885"><ele>283.0</ele><time>2026-04-25T09:45:58.937Z</time></trkpt><trkpt lat="43.61126" lon="12.56299"><ele>283.0</ele><time>2026-04-25T09:45:59.937Z</time></trkpt><trkpt lat="43.6113683" lon="12.5631"><ele>284.75</ele><time>2026-04-25T09:46:00.937Z</time></trkpt><trkpt lat="43.6114767" lon="12.5632117"><ele>286.5</ele><time>2026-04-25T09:46:01.937Z</time></trkpt><trkpt lat="43.611585" lon="12.5633183"><ele>288.25</ele><time>2026-04-25T09:46:02.937Z</time></trkpt><trkpt lat="43.6116933" lon="12.5634083"><ele>290.0</ele><time>2026-04-25T09:46:03.937Z</time></trkpt><trkpt lat="43.611805" lon="12.563485"><ele>290.0</ele><time>2026-04-25T09:46:04.936Z</time></trkpt><trkpt lat="43.6119217" lon="12.5635467"><ele>290.0</ele><time>2026-04-25T09:46:05.937Z</time></trkpt><trkpt lat="43.6120417" lon="12.5635933"><ele>290.0</ele><time>2026-04-25T09:46:06.937Z</time></trkpt><trkpt lat="43.6121617" lon="12.563635"><ele>290.0</ele><time>2026-04-25T09:46:07.936Z</time></trkpt><trkpt lat="43.612285" lon="12.5636667"><ele>290.75</ele><time>2026-04-25T09:46:08.936Z</time></trkpt><trkpt lat="43.6124133" lon="12.563675"><ele>291.5</ele><time>2026-04-25T09:46:09.937Z</time></trkpt><trkpt lat="43.6125467" lon="12.5636633"><ele>292.25</ele><time>2026-04-25T09:46:10.937Z</time></trkpt><trkpt lat="43.61268" lon="12.5636267"><ele>293.0</ele><time>2026-04-25T09:46:11.937Z</time></trkpt><trkpt lat="43.6128117" lon="12.563575"><ele>294.75</ele><time>2026-04-25T09:46:12.937Z</time></trkpt><trkpt lat="43.6129517" lon="12.5635133"><ele>296.5</ele><time>2026-04-25T09:46:13.937Z</time></trkpt><trkpt lat="43.6130917" lon="12.563465"><ele>298.25</ele><time>2026-04-25T09:46:14.936Z</time></trkpt><trkpt lat="43.613225" lon="12.563445"><ele>300.0</ele><time>2026-04-25T09:46:15.937Z</time></trkpt><trkpt lat="43.613345" lon="12.5634333"><ele>300.0</ele><time>2026-04-25T09:46:16.937Z</time></trkpt><trkpt lat="43.6134417" lon="12.5634233"><ele>300.0</ele><time>2026-04-25T09:46:17.936Z</time></trkpt><trkpt lat="43.6135183" lon="12.5634317"><ele>300.0</ele><time>2026-04-25T09:46:18.937Z</time></trkpt><trkpt lat="43.61357" lon="12.5634817"><ele>300.0</ele><time>2026-04-25T09:46:19.937Z</time></trkpt><trkpt lat="43.6135917" lon="12.5635683"><ele>300.0</ele><time>2026-04-25T09:46:20.937Z</time></trkpt><trkpt lat="43.6135883" lon="12.5636717"><ele>300.0</ele><time>2026-04-25T09:46:21.937Z</time></trkpt><trkpt lat="43.6135383" lon="12.5637783"><ele>301.6</ele><time>2026-04-25T09:46:22.937Z</time></trkpt><trkpt lat="43.6134733" lon="12.563875"><ele>303.2</ele><time>2026-04-25T09:46:23.936Z</time></trkpt><trkpt lat="43.6133867" lon="12.563955"><ele>304.8</ele><time>2026-04-25T09:46:24.937Z</time></trkpt><trkpt lat="43.613295" lon="12.5640417"><ele>306.4</ele><time>2026-04-25T09:46:25.937Z</time></trkpt><trkpt lat="43.61321" lon="12.5641417"><ele>308.0</ele><time>2026-04-25T09:46:26.937Z</time></trkpt><trkpt lat="43.6131317" lon="12.564275"><ele>308.0</ele><time>2026-04-25T09:46:27.937Z</time></trkpt><trkpt lat="43.6130583" lon="12.56442"><ele>308.0</ele><time>2026-04-25T09:46:28.937Z</time></trkpt><trkpt lat="43.6129883" lon="12.5645683"><ele>308.0</ele><time>2026-04-25T09:46:29.937Z</time></trkpt><trkpt lat="43.6129283" lon="12.5647133"><ele>308.0</ele><time>2026-04-25T09:46:30.937Z</time></trkpt><trkpt lat="43.6128817" lon="12.5648633"><ele>305.5</ele><time>2026-04-25T09:46:31.937Z</time></trkpt><trkpt lat="43.6128467" lon="12.5650183"><ele>303.0</ele><time>2026-04-25T09:46:32.937Z</time></trkpt><trkpt lat="43.6128117" lon="12.5651783"><ele>300.5</ele><time>2026-04-25T09:46:33.937Z</time></trkpt><trkpt lat="43.612785" lon="12.5653467"><ele>298.0</ele><time>2026-04-25T09:46:34.937Z</time></trkpt><trkpt lat="43.612765" lon="12.5655217"><ele>298.0</ele><time>2026-04-25T09:46:35.938Z</time></trkpt><trkpt lat="43.6127567" lon="12.5656967"><ele>298.0</ele><time>2026-04-25T09:46:36.938Z</time></trkpt><trkpt lat="43.6127467" lon="12.5658867"><ele>298.0</ele><time>2026-04-25T09:46:37.938Z</time></trkpt><trkpt lat="43.612745" lon="12.566095"><ele>298.0</ele><time>2026-04-25T09:46:38.938Z</time></trkpt><trkpt lat="43.612725" lon="12.5662983"><ele>297.75</ele><time>2026-04-25T09:46:39.938Z</time></trkpt><trkpt lat="43.6126867" lon="12.56649"><ele>297.5</ele><time>2026-04-25T09:46:40.938Z</time></trkpt><trkpt lat="43.6126283" lon="12.5666717"><ele>297.25</ele><time>2026-04-25T09:46:41.938Z</time></trkpt><trkpt lat="43.6125533" lon="12.5668383"><ele>297.0</ele><time>2026-04-25T09:46:42.937Z</time></trkpt><trkpt lat="43.6124783" lon="12.566985"><ele>299.5</ele><time>2026-04-25T09:46:43.937Z</time></trkpt><trkpt lat="43.61241" lon="12.56714"><ele>302.0</ele><time>2026-04-25T09:46:44.938Z</time></trkpt><trkpt lat="43.6123433" lon="12.5673067"><ele>304.5</ele><time>2026-04-25T09:46:45.937Z</time></trkpt><trkpt lat="43.61228" lon="12.5674683"><ele>307.0</ele><time>2026-04-25T09:46:46.938Z</time></trkpt><trkpt lat="43.6122067" lon="12.56762"><ele>307.0</ele><time>2026-04-25T09:46:47.938Z</time></trkpt><trkpt lat="43.6121117" lon="12.567745"><ele>307.0</ele><time>2026-04-25T09:46:48.938Z</time></trkpt><trkpt lat="43.6120067" lon="12.5678683"><ele>307.0</ele><time>2026-04-25T09:46:49.938Z</time></trkpt><trkpt lat="43.6118967" lon="12.567995"><ele>307.0</ele><time>2026-04-25T09:46:50.938Z</time></trkpt><trkpt lat="43.6117783" lon="12.5681267"><ele>306.0</ele><time>2026-04-25T09:46:51.938Z</time></trkpt><trkpt lat="43.61166" lon="12.5682483"><ele>305.0</ele><time>2026-04-25T09:46:52.938Z</time></trkpt><trkpt lat="43.61155" lon="12.5683717"><ele>304.0</ele><time>2026-04-25T09:46:53.937Z</time></trkpt><trkpt lat="43.61145" lon="12.5685117"><ele>303.0</ele><time>2026-04-25T09:46:54.938Z</time></trkpt><trkpt lat="43.611365" lon="12.56866"><ele>307.5</ele><time>2026-04-25T09:46:55.938Z</time></trkpt><trkpt lat="43.611295" lon="12.56881"><ele>312.0</ele><time>2026-04-25T09:46:56.938Z</time></trkpt><trkpt lat="43.6112467" lon="12.5689683"><ele>316.5</ele><time>2026-04-25T09:46:57.937Z</time></trkpt><trkpt lat="43.61121" lon="12.56912"><ele>321.0</ele><time>2026-04-25T09:46:58.938Z</time></trkpt><trkpt lat="43.611185" lon="12.5692883"><ele>321.0</ele><time>2026-04-25T09:46:59.938Z</time></trkpt><trkpt lat="43.611165" lon="12.56947"><ele>321.0</ele><time>2026-04-25T09:47:00.938Z</time></trkpt><trkpt lat="43.6111317" lon="12.5696533"><ele>321.0</ele><time>2026-04-25T09:47:01.938Z</time></trkpt><trkpt lat="43.6110883" lon="12.5698383"><ele>321.0</ele><time>2026-04-25T09:47:02.937Z</time></trkpt><trkpt lat="43.611055" lon="12.5700283"><ele>314.0</ele><time>2026-04-25T09:47:03.938Z</time></trkpt><trkpt lat="43.61103" lon="12.570225"><ele>307.0</ele><time>2026-04-25T09:47:04.938Z</time></trkpt><trkpt lat="43.61101" lon="12.5704233"><ele>300.0</ele><time>2026-04-25T09:47:05.937Z</time></trkpt><trkpt lat="43.6109983" lon="12.5706267"><ele>293.0</ele><time>2026-04-25T09:47:06.938Z</time></trkpt><trkpt lat="43.610995" lon="12.5708283"><ele>293.0</ele><time>2026-04-25T09:47:07.937Z</time></trkpt><trkpt lat="43.6109883" lon="12.5710233"><ele>293.0</ele><time>2026-04-25T09:47:08.937Z</time></trkpt><trkpt lat="43.61098" lon="12.5712083"><ele>293.0</ele><time>2026-04-25T09:47:09.938Z</time></trkpt><trkpt lat="43.61097" lon="12.5713833"><ele>293.0</ele><time>2026-04-25T09:47:10.937Z</time></trkpt><trkpt lat="43.6109517" lon="12.5715633"><ele>291.5</ele><time>2026-04-25T09:47:11.938Z</time></trkpt><trkpt lat="43.6109233" lon="12.5717467"><ele>290.0</ele><time>2026-04-25T09:47:12.937Z</time></trkpt><trkpt lat="43.6108917" lon="12.5719283"><ele>288.5</ele><time>2026-04-25T09:47:13.938Z</time></trkpt><trkpt lat="43.61086" lon="12.5721083"><ele>287.0</ele><time>2026-04-25T09:47:14.938Z</time></trkpt><trkpt lat="43.6108333" lon="12.5722817"><ele>286.8</ele><time>2026-04-25T09:47:15.938Z</time></trkpt><trkpt lat="43.6108117" lon="12.572445"><ele>286.6</ele><time>2026-04-25T09:47:16.938Z</time></trkpt><trkpt lat="43.61079" lon="12.572595"><ele>286.40000000000003</ele><time>2026-04-25T09:47:17.938Z</time></trkpt><trkpt lat="43.6107733" lon="12.5727317"><ele>286.2</ele><time>2026-04-25T09:47:18.938Z</time></trkpt><trkpt lat="43.61077" lon="12.5728533"><ele>286.0</ele><time>2026-04-25T09:47:19.938Z</time></trkpt><trkpt lat="43.6107833" lon="12.5729633"><ele>285.0</ele><time>2026-04-25T09:47:20.938Z</time></trkpt><trkpt lat="43.6108167" lon="12.5730633"><ele>284.0</ele><time>2026-04-25T09:47:21.938Z</time></trkpt><trkpt lat="43.6108683" lon="12.5731683"><ele>283.0</ele><time>2026-04-25T09:47:22.938Z</time></trkpt><trkpt lat="43.61092" lon="12.5732983"><ele>282.0</ele><time>2026-04-25T09:47:23.937Z</time></trkpt><trkpt lat="43.6109633" lon="12.57344"><ele>281.0</ele><time>2026-04-25T09:47:24.938Z</time></trkpt><trkpt lat="43.6110117" lon="12.573585"><ele>279.0</ele><time>2026-04-25T09:47:25.938Z</time></trkpt><trkpt lat="43.6110717" lon="12.5737233"><ele>277.0</ele><time>2026-04-25T09:47:26.938Z</time></trkpt><trkpt lat="43.61115" lon="12.5738567"><ele>275.0</ele><time>2026-04-25T09:47:27.937Z</time></trkpt><trkpt lat="43.61123" lon="12.5739883"><ele>273.0</ele><time>2026-04-25T09:47:28.938Z</time></trkpt><trkpt lat="43.6113067" lon="12.5741183"><ele>275.5</ele><time>2026-04-25T09:47:29.938Z</time></trkpt><trkpt lat="43.611385" lon="12.57425"><ele>278.0</ele><time>2026-04-25T09:47:30.937Z</time></trkpt><trkpt lat="43.61147" lon="12.5743783"><ele>280.5</ele><time>2026-04-25T09:47:31.938Z</time></trkpt><trkpt lat="43.6115533" lon="12.5744983"><ele>283.0</ele><time>2026-04-25T09:47:32.938Z</time></trkpt><trkpt lat="43.6116317" lon="12.57461"><ele>283.0</ele><time>2026-04-25T09:47:33.937Z</time></trkpt><trkpt lat="43.6116933" lon="12.5747233"><ele>283.0</ele><time>2026-04-25T09:47:34.937Z</time></trkpt><trkpt lat="43.6117233" lon="12.5748417"><ele>283.0</ele><time>2026-04-25T09:47:35.938Z</time></trkpt><trkpt lat="43.611725" lon="12.57495"><ele>283.0</ele><time>2026-04-25T09:47:36.938Z</time></trkpt><trkpt lat="43.61171" lon="12.5750633"><ele>283.0</ele><time>2026-04-25T09:47:37.938Z</time></trkpt><trkpt lat="43.6117033" lon="12.5751833"><ele>283.0</ele><time>2026-04-25T09:47:38.938Z</time></trkpt><trkpt lat="43.6117167" lon="12.575315"><ele>282.0</ele><time>2026-04-25T09:47:39.938Z</time></trkpt><trkpt lat="43.611745" lon="12.5754667"><ele>281.0</ele><time>2026-04-25T09:47:40.938Z</time></trkpt><trkpt lat="43.61178" lon="12.57564"><ele>280.0</ele><time>2026-04-25T09:47:41.937Z</time></trkpt><trkpt lat="43.6118217" lon="12.57583"><ele>279.0</ele><time>2026-04-25T09:47:42.937Z</time></trkpt><trkpt lat="43.61187" lon="12.5760217"><ele>279.75</ele><time>2026-04-25T09:47:43.938Z</time></trkpt><trkpt lat="43.611925" lon="12.5762"><ele>280.5</ele><time>2026-04-25T09:47:44.938Z</time></trkpt><trkpt lat="43.6119817" lon="12.5763467"><ele>281.25</ele><time>2026-04-25T09:47:45.937Z</time></trkpt><trkpt lat="43.612025" lon="12.5764717"><ele>282.0</ele><time>2026-04-25T09:47:46.938Z</time></trkpt><trkpt lat="43.61205" lon="12.5766"><ele>288.5</ele><time>2026-04-25T09:47:47.938Z</time></trkpt><trkpt lat="43.612055" lon="12.5767417"><ele>295.0</ele><time>2026-04-25T09:47:48.937Z</time></trkpt><trkpt lat="43.6120583" lon="12.5769017"><ele>301.5</ele><time>2026-04-25T09:47:49.938Z</time></trkpt><trkpt lat="43.6120733" lon="12.57708"><ele>308.0</ele><time>2026-04-25T09:47:50.938Z</time></trkpt><trkpt lat="43.6120933" lon="12.5772567"><ele>308.0</ele><time>2026-04-25T09:47:51.938Z</time></trkpt><trkpt lat="43.6121117" lon="12.5774333"><ele>308.0</ele><time>2026-04-25T09:47:52.938Z</time></trkpt><trkpt lat="43.6121383" lon="12.5776017"><ele>308.0</ele><time>2026-04-25T09:47:53.938Z</time></trkpt><trkpt lat="43.6121417" lon="12.5777733"><ele>308.0</ele><time>2026-04-25T09:47:54.937Z</time></trkpt><trkpt lat="43.6121417" lon="12.5779467"><ele>305.75</ele><time>2026-04-25T09:47:55.937Z</time></trkpt><trkpt lat="43.6121567" lon="12.5781183"><ele>303.5</ele><time>2026-04-25T09:47:56.937Z</time></trkpt><trkpt lat="43.612155" lon="12.5782917"><ele>301.25</ele><time>2026-04-25T09:47:57.937Z</time></trkpt><trkpt lat="43.6121533" lon="12.5784567"><ele>299.0</ele><time>2026-04-25T09:47:58.937Z</time></trkpt><trkpt lat="43.6121517" lon="12.5786033"><ele>296.8</ele><time>2026-04-25T09:47:59.937Z</time></trkpt><trkpt lat="43.6121517" lon="12.5787333"><ele>294.59999999999997</ele><time>2026-04-25T09:48:00.937Z</time></trkpt><trkpt lat="43.6121383" lon="12.5788567"><ele>292.4</ele><time>2026-04-25T09:48:01.937Z</time></trkpt><trkpt lat="43.6120867" lon="12.57896"><ele>290.2</ele><time>2026-04-25T09:48:02.936Z</time></trkpt><trkpt lat="43.61202" lon="12.579035"><ele>288.0</ele><time>2026-04-25T09:48:03.937Z</time></trkpt><trkpt lat="43.611925" lon="12.5790817"><ele>285.8</ele><time>2026-04-25T09:48:04.937Z</time></trkpt><trkpt lat="43.6118167" lon="12.57912"><ele>283.6</ele><time>2026-04-25T09:48:05.937Z</time></trkpt><trkpt lat="43.611695" lon="12.5791417"><ele>281.4</ele><time>2026-04-25T09:48:06.937Z</time></trkpt><trkpt lat="43.61158" lon="12.579145"><ele>279.2</ele><time>2026-04-25T09:48:07.937Z</time></trkpt><trkpt lat="43.6114817" lon="12.5791417"><ele>277.0</ele><time>2026-04-25T09:48:08.936Z</time></trkpt><trkpt lat="43.6114083" lon="12.5791383"><ele>277.0</ele><time>2026-04-25T09:48:09.937Z</time></trkpt><trkpt lat="43.6113233" lon="12.57913"><ele>277.0</ele><time>2026-04-25T09:48:11.937Z</time></trkpt><trkpt lat="43.6113617" lon="12.5792267"><ele>277.0</ele><time>2026-04-25T09:48:16.937Z</time></trkpt><trkpt lat="43.6114967" lon="12.5792583"><ele>277.0</ele><time>2026-04-25T09:48:18.936Z</time></trkpt><trkpt lat="43.6115833" lon="12.579285"><ele>277.0</ele><time>2026-04-25T09:48:19.937Z</time></trkpt><trkpt lat="43.611675" lon="12.5793417"><ele>277.0</ele><time>2026-04-25T09:48:20.937Z</time></trkpt><trkpt lat="43.6117783" lon="12.5794133"><ele>277.0</ele><time>2026-04-25T09:48:21.937Z</time></trkpt><trkpt lat="43.61189" lon="12.5794883"><ele>277.0</ele><time>2026-04-25T09:48:22.937Z</time></trkpt><trkpt lat="43.6120117" lon="12.5795483"><ele>277.0</ele><time>2026-04-25T09:48:23.937Z</time></trkpt><trkpt lat="43.6121483" lon="12.5795817"><ele>279.5</ele><time>2026-04-25T09:48:24.937Z</time></trkpt><trkpt lat="43.6122833" lon="12.5796383"><ele>282.0</ele><time>2026-04-25T09:48:25.937Z</time></trkpt><trkpt lat="43.61242" lon="12.5797083"><ele>284.5</ele><time>2026-04-25T09:48:26.936Z</time></trkpt><trkpt lat="43.6125617" lon="12.5797567"><ele>287.0</ele><time>2026-04-25T09:48:27.937Z</time></trkpt><trkpt lat="43.6127017" lon="12.5798033"><ele>289.5</ele><time>2026-04-25T09:48:28.936Z</time></trkpt><trkpt lat="43.61284" lon="12.5798333"><ele>292.0</ele><time>2026-04-25T09:48:29.937Z</time></trkpt><trkpt lat="43.6129717" lon="12.57984"><ele>294.5</ele><time>2026-04-25T09:48:30.936Z</time></trkpt><trkpt lat="43.6130833" lon="12.5798333"><ele>297.0</ele><time>2026-04-25T09:48:31.937Z</time></trkpt><trkpt lat="43.6131867" lon="12.57981"><ele>297.0</ele><time>2026-04-25T09:48:32.937Z</time></trkpt><trkpt lat="43.6132933" lon="12.5797983"><ele>297.0</ele><time>2026-04-25T09:48:33.937Z</time></trkpt><trkpt lat="43.6134033" lon="12.5797567"><ele>297.0</ele><time>2026-04-25T09:48:34.937Z</time></trkpt><trkpt lat="43.61351" lon="12.5796883"><ele>297.0</ele><time>2026-04-25T09:48:35.936Z</time></trkpt><trkpt lat="43.6136117" lon="12.5796067"><ele>297.5</ele><time>2026-04-25T09:48:36.936Z</time></trkpt><trkpt lat="43.613715" lon="12.5795333"><ele>298.0</ele><time>2026-04-25T09:48:37.936Z</time></trkpt><trkpt lat="43.6138267" lon="12.5794833"><ele>298.5</ele><time>2026-04-25T09:48:38.936Z</time></trkpt><trkpt lat="43.61394" lon="12.5794633"><ele>299.0</ele><time>2026-04-25T09:48:39.937Z</time></trkpt><trkpt lat="43.614055" lon="12.579465"><ele>299.0</ele><time>2026-04-25T09:48:40.937Z</time></trkpt><trkpt lat="43.6141667" lon="12.579475"><ele>299.0</ele><time>2026-04-25T09:48:41.937Z</time></trkpt><trkpt lat="43.6142683" lon="12.5795117"><ele>299.0</ele><time>2026-04-25T09:48:42.937Z</time></trkpt><trkpt lat="43.6143533" lon="12.5795867"><ele>299.0</ele><time>2026-04-25T09:48:43.937Z</time></trkpt><trkpt lat="43.6144267" lon="12.579695"><ele>299.0</ele><time>2026-04-25T09:48:44.936Z</time></trkpt><trkpt lat="43.6144883" lon="12.5798117"><ele>300.4</ele><time>2026-04-25T09:48:45.936Z</time></trkpt><trkpt lat="43.614555" lon="12.5799183"><ele>301.79999999999995</ele><time>2026-04-25T09:48:46.937Z</time></trkpt><trkpt lat="43.614635" lon="12.5800167"><ele>303.20000000000005</ele><time>2026-04-25T09:48:47.937Z</time></trkpt><trkpt lat="43.6147367" lon="12.580095"><ele>304.6</ele><time>2026-04-25T09:48:48.937Z</time></trkpt><trkpt lat="43.6148533" lon="12.5801483"><ele>306.0</ele><time>2026-04-25T09:48:49.937Z</time></trkpt><trkpt lat="43.614975" lon="12.5801817"><ele>306.0</ele><time>2026-04-25T09:48:50.937Z</time></trkpt><trkpt lat="43.6150633" lon="12.5802783"><ele>306.0</ele><time>2026-04-25T09:48:51.936Z</time></trkpt><trkpt lat="43.6151333" lon="12.5804117"><ele>306.0</ele><time>2026-04-25T09:48:52.937Z</time></trkpt><trkpt lat="43.6151917" lon="12.58057"><ele>306.0</ele><time>2026-04-25T09:48:53.937Z</time></trkpt><trkpt lat="43.6152517" lon="12.580735"><ele>309.5</ele><time>2026-04-25T09:48:54.937Z</time></trkpt><trkpt lat="43.6153217" lon="12.5808983"><ele>313.0</ele><time>2026-04-25T09:48:55.936Z</time></trkpt><trkpt lat="43.6154083" lon="12.581055"><ele>316.5</ele><time>2026-04-25T09:48:56.937Z</time></trkpt><trkpt lat="43.6154967" lon="12.5811883"><ele>320.0</ele><time>2026-04-25T09:48:57.937Z</time></trkpt><trkpt lat="43.6155867" lon="12.581295"><ele>321.5</ele><time>2026-04-25T09:48:58.937Z</time></trkpt><trkpt lat="43.6156833" lon="12.5813783"><ele>323.0</ele><time>2026-04-25T09:48:59.936Z</time></trkpt><trkpt lat="43.6158" lon="12.5814333"><ele>324.5</ele><time>2026-04-25T09:49:00.936Z</time></trkpt><trkpt lat="43.61592" lon="12.5814483"><ele>326.0</ele><time>2026-04-25T09:49:01.936Z</time></trkpt><trkpt lat="43.616035" lon="12.5814617"><ele>326.0</ele><time>2026-04-25T09:49:02.937Z</time></trkpt><trkpt lat="43.61614" lon="12.5815"><ele>326.0</ele><time>2026-04-25T09:49:03.937Z</time></trkpt><trkpt lat="43.6162383" lon="12.5815633"><ele>326.0</ele><time>2026-04-25T09:49:04.937Z</time></trkpt><trkpt lat="43.6163383" lon="12.5816283"><ele>326.0</ele><time>2026-04-25T09:49:05.936Z</time></trkpt><trkpt lat="43.6164483" lon="12.5816533"><ele>326.0</ele><time>2026-04-25T09:49:06.936Z</time></trkpt><trkpt lat="43.6165617" lon="12.58163"><ele>329.25</ele><time>2026-04-25T09:49:07.937Z</time></trkpt><trkpt lat="43.616675" lon="12.5815833"><ele>332.5</ele><time>2026-04-25T09:49:08.937Z</time></trkpt><trkpt lat="43.6167867" lon="12.5815333"><ele>335.75</ele><time>2026-04-25T09:49:09.937Z</time></trkpt><trkpt lat="43.6169017" lon="12.58148"><ele>339.0</ele><time>2026-04-25T09:49:10.936Z</time></trkpt><trkpt lat="43.6170317" lon="12.5814283"><ele>341.5</ele><time>2026-04-25T09:49:11.937Z</time></trkpt><trkpt lat="43.6171633" lon="12.5813817"><ele>344.0</ele><time>2026-04-25T09:49:12.937Z</time></trkpt><trkpt lat="43.61729" lon="12.5813433"><ele>346.5</ele><time>2026-04-25T09:49:13.937Z</time></trkpt><trkpt lat="43.61741" lon="12.5813083"><ele>349.0</ele><time>2026-04-25T09:49:14.937Z</time></trkpt><trkpt lat="43.61753" lon="12.581285"><ele>349.0</ele><time>2026-04-25T09:49:15.937Z</time></trkpt><trkpt lat="43.6176533" lon="12.581275"><ele>349.0</ele><time>2026-04-25T09:49:16.937Z</time></trkpt><trkpt lat="43.6177817" lon="12.5812733"><ele>349.0</ele><time>2026-04-25T09:49:17.937Z</time></trkpt><trkpt lat="43.6179117" lon="12.58128"><ele>349.0</ele><time>2026-04-25T09:49:18.937Z</time></trkpt><trkpt lat="43.6180417" lon="12.5812933"><ele>352.0</ele><time>2026-04-25T09:49:19.937Z</time></trkpt><trkpt lat="43.61817" lon="12.58131"><ele>355.0</ele><time>2026-04-25T09:49:20.936Z</time></trkpt><trkpt lat="43.618295" lon="12.58131"><ele>358.0</ele><time>2026-04-25T09:49:21.937Z</time></trkpt><trkpt lat="43.6184183" lon="12.581315"><ele>361.0</ele><time>2026-04-25T09:49:22.937Z</time></trkpt><trkpt lat="43.6185383" lon="12.5813233"><ele>364.20000000000005</ele><time>2026-04-25T09:49:23.937Z</time></trkpt><trkpt lat="43.618655" lon="12.58133"><ele>367.40000000000003</ele><time>2026-04-25T09:49:24.937Z</time></trkpt><trkpt lat="43.6187583" lon="12.5813417"><ele>370.6</ele><time>2026-04-25T09:49:25.937Z</time></trkpt><trkpt lat="43.6188483" lon="12.5813533"><ele>373.8</ele><time>2026-04-25T09:49:26.937Z</time></trkpt><trkpt lat="43.6189117" lon="12.5813833"><ele>377.0</ele><time>2026-04-25T09:49:27.937Z</time></trkpt><trkpt lat="43.6189217" lon="12.5815367"><ele>377.0</ele><time>2026-04-25T09:49:29.937Z</time></trkpt><trkpt lat="43.61888" lon="12.5816217"><ele>377.0</ele><time>2026-04-25T09:49:30.937Z</time></trkpt><trkpt lat="43.618845" lon="12.5817233"><ele>377.0</ele><time>2026-04-25T09:49:31.936Z</time></trkpt><trkpt lat="43.6188267" lon="12.58184"><ele>377.0</ele><time>2026-04-25T09:49:32.937Z</time></trkpt><trkpt lat="43.618835" lon="12.5819667"><ele>377.0</ele><time>2026-04-25T09:49:33.937Z</time></trkpt><trkpt lat="43.618865" lon="12.5820733"><ele>377.0</ele><time>2026-04-25T09:49:34.937Z</time></trkpt><trkpt lat="43.6188967" lon="12.5821533"><ele>377.0</ele><time>2026-04-25T09:49:35.937Z</time></trkpt><trkpt lat="43.6189883" lon="12.5821483"><ele>377.0</ele><time>2026-04-25T09:49:37.937Z</time></trkpt><trkpt lat="43.6190567" lon="12.5819733"><ele>377.0</ele><time>2026-04-25T09:49:39.937Z</time></trkpt><trkpt lat="43.6191117" lon="12.581875"><ele>377.0</ele><time>2026-04-25T09:49:40.936Z</time></trkpt><trkpt lat="43.6191883" lon="12.5818217"><ele>377.0</ele><time>2026-04-25T09:49:41.937Z</time></trkpt><trkpt lat="43.6192617" lon="12.5818117"><ele>377.0</ele><time>2026-04-25T09:49:42.937Z</time></trkpt><trkpt lat="43.61932" lon="12.58186"><ele>377.0</ele><time>2026-04-25T09:49:43.937Z</time></trkpt><trkpt lat="43.6193517" lon="12.5819517"><ele>377.0</ele><time>2026-04-25T09:49:44.937Z</time></trkpt><trkpt lat="43.61936" lon="12.582065"><ele>377.0</ele><time>2026-04-25T09:49:45.937Z</time></trkpt><trkpt lat="43.61936" lon="12.5822"><ele>377.0</ele><time>2026-04-25T09:49:46.936Z</time></trkpt><trkpt lat="43.6193633" lon="12.5823483"><ele>377.0</ele><time>2026-04-25T09:49:47.937Z</time></trkpt><trkpt lat="43.6193683" lon="12.58251"><ele>380.25</ele><time>2026-04-25T09:49:48.937Z</time></trkpt><trkpt lat="43.6193733" lon="12.5826733"><ele>383.5</ele><time>2026-04-25T09:49:49.936Z</time></trkpt><trkpt lat="43.6193767" lon="12.5828383"><ele>386.75</ele><time>2026-04-25T09:49:50.937Z</time></trkpt><trkpt lat="43.619385" lon="12.5830033"><ele>390.0</ele><time>2026-04-25T09:49:51.937Z</time></trkpt><trkpt lat="43.6194133" lon="12.5831667"><ele>391.75</ele><time>2026-04-25T09:49:52.937Z</time></trkpt><trkpt lat="43.6194517" lon="12.583325"><ele>393.5</ele><time>2026-04-25T09:49:53.937Z</time></trkpt><trkpt lat="43.6194983" lon="12.58348"><ele>395.25</ele><time>2026-04-25T09:49:54.937Z</time></trkpt><trkpt lat="43.61955" lon="12.5836317"><ele>397.0</ele><time>2026-04-25T09:49:55.936Z</time></trkpt><trkpt lat="43.6196017" lon="12.583785"><ele>399.0</ele><time>2026-04-25T09:49:56.936Z</time></trkpt><trkpt lat="43.619645" lon="12.5839433"><ele>401.0</ele><time>2026-04-25T09:49:57.937Z</time></trkpt><trkpt lat="43.6196667" lon="12.5840983"><ele>403.0</ele><time>2026-04-25T09:49:58.937Z</time></trkpt><trkpt lat="43.61967" lon="12.5842483"><ele>405.0</ele><time>2026-04-25T09:49:59.937Z</time></trkpt><trkpt lat="43.6196533" lon="12.5843917"><ele>405.75</ele><time>2026-04-25T09:50:00.937Z</time></trkpt><trkpt lat="43.6196067" lon="12.5845267"><ele>406.5</ele><time>2026-04-25T09:50:01.937Z</time></trkpt><trkpt lat="43.6195383" lon="12.5846517"><ele>407.25</ele><time>2026-04-25T09:50:02.937Z</time></trkpt><trkpt lat="43.619455" lon="12.58477"><ele>408.0</ele><time>2026-04-25T09:50:03.937Z</time></trkpt><trkpt lat="43.6193633" lon="12.5848933"><ele>408.5</ele><time>2026-04-25T09:50:04.937Z</time></trkpt><trkpt lat="43.6192733" lon="12.5850167"><ele>409.0</ele><time>2026-04-25T09:50:05.937Z</time></trkpt><trkpt lat="43.6191867" lon="12.5851417"><ele>409.5</ele><time>2026-04-25T09:50:06.937Z</time></trkpt><trkpt lat="43.619115" lon="12.58527"><ele>410.0</ele><time>2026-04-25T09:50:07.937Z</time></trkpt><trkpt lat="43.619075" lon="12.5854033"><ele>413.0</ele><time>2026-04-25T09:50:08.937Z</time></trkpt><trkpt lat="43.619075" lon="12.5855383"><ele>416.0</ele><time>2026-04-25T09:50:09.937Z</time></trkpt><trkpt lat="43.6191067" lon="12.5856783"><ele>419.0</ele><time>2026-04-25T09:50:10.936Z</time></trkpt><trkpt lat="43.61916" lon="12.5858267"><ele>422.0</ele><time>2026-04-25T09:50:11.937Z</time></trkpt><trkpt lat="43.6192183" lon="12.5859833"><ele>422.0</ele><time>2026-04-25T09:50:12.937Z</time></trkpt><trkpt lat="43.6192767" lon="12.5861483"><ele>422.0</ele><time>2026-04-25T09:50:13.937Z</time></trkpt><trkpt lat="43.6193317" lon="12.5863217"><ele>422.0</ele><time>2026-04-25T09:50:14.937Z</time></trkpt><trkpt lat="43.6193933" lon="12.586495"><ele>422.0</ele><time>2026-04-25T09:50:15.937Z</time></trkpt><trkpt lat="43.619465" lon="12.5866633"><ele>421.5</ele><time>2026-04-25T09:50:16.937Z</time></trkpt><trkpt lat="43.6195383" lon="12.5868317"><ele>421.0</ele><time>2026-04-25T09:50:17.937Z</time></trkpt><trkpt lat="43.61961" lon="12.58699"><ele>420.5</ele><time>2026-04-25T09:50:18.937Z</time></trkpt><trkpt lat="43.6196917" lon="12.5871433"><ele>420.0</ele><time>2026-04-25T09:50:19.937Z</time></trkpt><trkpt lat="43.6197883" lon="12.5873"><ele>420.0</ele><time>2026-04-25T09:50:20.936Z</time></trkpt><trkpt lat="43.6198933" lon="12.5874633"><ele>420.0</ele><time>2026-04-25T09:50:21.937Z</time></trkpt><trkpt lat="43.6199933" lon="12.5876217"><ele>420.0</ele><time>2026-04-25T09:50:22.937Z</time></trkpt><trkpt lat="43.6200933" lon="12.587765"><ele>419.0</ele><time>2026-04-25T09:50:23.937Z</time></trkpt><trkpt lat="43.620195" lon="12.5879067"><ele>418.0</ele><time>2026-04-25T09:50:24.936Z</time></trkpt><trkpt lat="43.6202917" lon="12.5880467"><ele>417.0</ele><time>2026-04-25T09:50:25.937Z</time></trkpt><trkpt lat="43.62038" lon="12.5881883"><ele>416.0</ele><time>2026-04-25T09:50:26.937Z</time></trkpt><trkpt lat="43.6204567" lon="12.5883167"><ele>415.49999999999994</ele><time>2026-04-25T09:50:27.937Z</time></trkpt><trkpt lat="43.6205233" lon="12.5884333"><ele>415.0</ele><time>2026-04-25T09:50:28.936Z</time></trkpt><trkpt lat="43.62058" lon="12.5885317"><ele>414.5</ele><time>2026-04-25T09:50:29.937Z</time></trkpt><trkpt lat="43.6206283" lon="12.5886183"><ele>414.0</ele><time>2026-04-25T09:50:30.936Z</time></trkpt><trkpt lat="43.6206633" lon="12.5887"><ele>413.49999999999994</ele><time>2026-04-25T09:50:31.937Z</time></trkpt><trkpt lat="43.6206683" lon="12.5887867"><ele>413.0</ele><time>2026-04-25T09:50:32.937Z</time></trkpt><trkpt lat="43.6205833" lon="12.5889333"><ele>411.59999999999997</ele><time>2026-04-25T09:50:34.937Z</time></trkpt><trkpt lat="43.620495" lon="12.5889667"><ele>410.2</ele><time>2026-04-25T09:50:35.937Z</time></trkpt><trkpt lat="43.620385" lon="12.588985"><ele>408.8</ele><time>2026-04-25T09:50:36.937Z</time></trkpt><trkpt lat="43.6202667" lon="12.5889983"><ele>407.4</ele><time>2026-04-25T09:50:37.937Z</time></trkpt><trkpt lat="43.6201467" lon="12.589015"><ele>406.0</ele><time>2026-04-25T09:50:38.937Z</time></trkpt><trkpt lat="43.620025" lon="12.5890383"><ele>405.0</ele><time>2026-04-25T09:50:39.936Z</time></trkpt><trkpt lat="43.6199083" lon="12.589065"><ele>404.0</ele><time>2026-04-25T09:50:40.937Z</time></trkpt><trkpt lat="43.61979" lon="12.5890967"><ele>403.0</ele><time>2026-04-25T09:50:41.937Z</time></trkpt><trkpt lat="43.61967" lon="12.5891367"><ele>402.0</ele><time>2026-04-25T09:50:42.936Z</time></trkpt><trkpt lat="43.6195517" lon="12.589195"><ele>403.25</ele><time>2026-04-25T09:50:43.937Z</time></trkpt><trkpt lat="43.6194417" lon="12.5892733"><ele>404.5</ele><time>2026-04-25T09:50:44.937Z</time></trkpt><trkpt lat="43.61935" lon="12.5893833"><ele>405.75</ele><time>2026-04-25T09:50:45.936Z</time></trkpt><trkpt lat="43.61928" lon="12.5895183"><ele>407.0</ele><time>2026-04-25T09:50:46.936Z</time></trkpt><trkpt lat="43.61922" lon="12.58966"><ele>403.25</ele><time>2026-04-25T09:50:47.937Z</time></trkpt><trkpt lat="43.6191583" lon="12.5898033"><ele>399.5</ele><time>2026-04-25T09:50:48.937Z</time></trkpt><trkpt lat="43.6190917" lon="12.5899583"><ele>395.75</ele><time>2026-04-25T09:50:49.937Z</time></trkpt><trkpt lat="43.6190283" lon="12.590115"><ele>392.0</ele><time>2026-04-25T09:50:50.937Z</time></trkpt><trkpt lat="43.618975" lon="12.5902733"><ele>390.0</ele><time>2026-04-25T09:50:51.936Z</time></trkpt><trkpt lat="43.6189417" lon="12.5904333"><ele>388.0</ele><time>2026-04-25T09:50:52.937Z</time></trkpt><trkpt lat="43.61894" lon="12.590595"><ele>386.0</ele><time>2026-04-25T09:50:53.937Z</time></trkpt><trkpt lat="43.6189717" lon="12.5907533"><ele>384.0</ele><time>2026-04-25T09:50:54.937Z</time></trkpt><trkpt lat="43.6190217" lon="12.5909133"><ele>384.0</ele><time>2026-04-25T09:50:55.937Z</time></trkpt><trkpt lat="43.6190833" lon="12.5910767"><ele>384.0</ele><time>2026-04-25T09:50:56.937Z</time></trkpt><trkpt lat="43.619155" lon="12.5912233"><ele>384.0</ele><time>2026-04-25T09:50:57.937Z</time></trkpt><trkpt lat="43.619235" lon="12.59134"><ele>384.0</ele><time>2026-04-25T09:50:58.937Z</time></trkpt><trkpt lat="43.61933" lon="12.5914167"><ele>385.4</ele><time>2026-04-25T09:50:59.937Z</time></trkpt><trkpt lat="43.619435" lon="12.591445"><ele>386.79999999999995</ele><time>2026-04-25T09:51:00.937Z</time></trkpt><trkpt lat="43.6195433" lon="12.591435"><ele>388.20000000000005</ele><time>2026-04-25T09:51:01.937Z</time></trkpt><trkpt lat="43.6196533" lon="12.5914183"><ele>389.6</ele><time>2026-04-25T09:51:02.937Z</time></trkpt><trkpt lat="43.6197517" lon="12.5914183"><ele>391.0</ele><time>2026-04-25T09:51:03.937Z</time></trkpt><trkpt lat="43.6198233" lon="12.5914517"><ele>391.0</ele><time>2026-04-25T09:51:04.936Z</time></trkpt><trkpt lat="43.61986" lon="12.59159"><ele>391.0</ele><time>2026-04-25T09:51:06.937Z</time></trkpt><trkpt lat="43.619825" lon="12.5916767"><ele>391.0</ele><time>2026-04-25T09:51:07.937Z</time></trkpt><trkpt lat="43.6197617" lon="12.5917633"><ele>391.0</ele><time>2026-04-25T09:51:08.937Z</time></trkpt><trkpt lat="43.61968" lon="12.5918683"><ele>391.0</ele><time>2026-04-25T09:51:09.937Z</time></trkpt><trkpt lat="43.6195983" lon="12.5919833"><ele>391.0</ele><time>2026-04-25T09:51:10.937Z</time></trkpt><trkpt lat="43.6195233" lon="12.5921117"><ele>391.0</ele><time>2026-04-25T09:51:11.936Z</time></trkpt><trkpt lat="43.6194633" lon="12.592245"><ele>391.0</ele><time>2026-04-25T09:51:12.937Z</time></trkpt><trkpt lat="43.6194333" lon="12.5923917"><ele>391.0</ele><time>2026-04-25T09:51:13.937Z</time></trkpt><trkpt lat="43.619435" lon="12.5925567"><ele>391.5</ele><time>2026-04-25T09:51:14.937Z</time></trkpt><trkpt lat="43.61946" lon="12.5927283"><ele>392.0</ele><time>2026-04-25T09:51:15.937Z</time></trkpt><trkpt lat="43.619505" lon="12.5929033"><ele>392.5</ele><time>2026-04-25T09:51:16.937Z</time></trkpt><trkpt lat="43.61956" lon="12.5930783"><ele>393.0</ele><time>2026-04-25T09:51:17.936Z</time></trkpt><trkpt lat="43.61961" lon="12.593245"><ele>393.0</ele><time>2026-04-25T09:51:18.937Z</time></trkpt><trkpt lat="43.6196417" lon="12.5934167"><ele>393.0</ele><time>2026-04-25T09:51:19.937Z</time></trkpt><trkpt lat="43.6196517" lon="12.593595"><ele>393.0</ele><time>2026-04-25T09:51:20.937Z</time></trkpt><trkpt lat="43.6196483" lon="12.59378"><ele>393.0</ele><time>2026-04-25T09:51:21.937Z</time></trkpt><trkpt lat="43.6196367" lon="12.5939667"><ele>392.5</ele><time>2026-04-25T09:51:22.937Z</time></trkpt><trkpt lat="43.619615" lon="12.5941483"><ele>392.0</ele><time>2026-04-25T09:51:23.937Z</time></trkpt><trkpt lat="43.6195933" lon="12.5943267"><ele>391.5</ele><time>2026-04-25T09:51:24.937Z</time></trkpt><trkpt lat="43.6195867" lon="12.5945117"><ele>391.0</ele><time>2026-04-25T09:51:25.937Z</time></trkpt><trkpt lat="43.6195967" lon="12.5947"><ele>391.0</ele><time>2026-04-25T09:51:26.937Z</time></trkpt><trkpt lat="43.6196283" lon="12.5948767"><ele>391.0</ele><time>2026-04-25T09:51:27.937Z</time></trkpt><trkpt lat="43.6196717" lon="12.5950433"><ele>391.0</ele><time>2026-04-25T09:51:28.937Z</time></trkpt><trkpt lat="43.61972" lon="12.5952033"><ele>391.0</ele><time>2026-04-25T09:51:29.936Z</time></trkpt><trkpt lat="43.6197733" lon="12.5953533"><ele>390.20000000000005</ele><time>2026-04-25T09:51:30.936Z</time></trkpt><trkpt lat="43.6198133" lon="12.5954983"><ele>389.40000000000003</ele><time>2026-04-25T09:51:31.937Z</time></trkpt><trkpt lat="43.6198517" lon="12.5956317"><ele>388.6</ele><time>2026-04-25T09:51:32.937Z</time></trkpt><trkpt lat="43.6198883" lon="12.5957383"><ele>387.8</ele><time>2026-04-25T09:51:33.936Z</time></trkpt><trkpt lat="43.61992" lon="12.5958317"><ele>387.0</ele><time>2026-04-25T09:51:34.937Z</time></trkpt><trkpt lat="43.6199783" lon="12.5958933"><ele>387.0</ele><time>2026-04-25T09:51:35.937Z</time></trkpt><trkpt lat="43.620055" lon="12.5959367"><ele>387.0</ele><time>2026-04-25T09:51:36.937Z</time></trkpt><trkpt lat="43.62015" lon="12.5959633"><ele>387.0</ele><time>2026-04-25T09:51:37.937Z</time></trkpt><trkpt lat="43.6202517" lon="12.5959867"><ele>387.0</ele><time>2026-04-25T09:51:38.936Z</time></trkpt><trkpt lat="43.6203633" lon="12.5959917"><ele>387.0</ele><time>2026-04-25T09:51:39.937Z</time></trkpt><trkpt lat="43.6204717" lon="12.5959883"><ele>386.40000000000003</ele><time>2026-04-25T09:51:40.937Z</time></trkpt><trkpt lat="43.6205717" lon="12.5959867"><ele>385.8</ele><time>2026-04-25T09:51:41.936Z</time></trkpt><trkpt lat="43.6206717" lon="12.5959933"><ele>385.2</ele><time>2026-04-25T09:51:42.937Z</time></trkpt><trkpt lat="43.62077" lon="12.5960233"><ele>384.6</ele><time>2026-04-25T09:51:43.937Z</time></trkpt><trkpt lat="43.6208583" lon="12.5960717"><ele>384.0</ele><time>2026-04-25T09:51:44.937Z</time></trkpt><trkpt lat="43.62094" lon="12.59614"><ele>384.0</ele><time>2026-04-25T09:51:45.937Z</time></trkpt><trkpt lat="43.6210183" lon="12.5962283"><ele>384.0</ele><time>2026-04-25T09:51:46.937Z</time></trkpt><trkpt lat="43.6211017" lon="12.5963467"><ele>384.0</ele><time>2026-04-25T09:51:47.937Z</time></trkpt><trkpt lat="43.6211883" lon="12.5964733"><ele>384.0</ele><time>2026-04-25T09:51:48.937Z</time></trkpt><trkpt lat="43.6212817" lon="12.5966033"><ele>384.0</ele><time>2026-04-25T09:51:49.937Z</time></trkpt><trkpt lat="43.6213817" lon="12.5967233"><ele>384.0</ele><time>2026-04-25T09:51:50.937Z</time></trkpt><trkpt lat="43.6214867" lon="12.5968367"><ele>384.0</ele><time>2026-04-25T09:51:51.937Z</time></trkpt><trkpt lat="43.62159" lon="12.5969533"><ele>384.0</ele><time>2026-04-25T09:51:52.937Z</time></trkpt><trkpt lat="43.6216833" lon="12.5970767"><ele>384.25</ele><time>2026-04-25T09:51:53.937Z</time></trkpt><trkpt lat="43.6217617" lon="12.597205"><ele>384.5</ele><time>2026-04-25T09:51:54.937Z</time></trkpt><trkpt lat="43.6218267" lon="12.59734"><ele>384.75</ele><time>2026-04-25T09:51:55.937Z</time></trkpt><trkpt lat="43.6218833" lon="12.5974733"><ele>385.0</ele><time>2026-04-25T09:51:56.937Z</time></trkpt><trkpt lat="43.621945" lon="12.5976167"><ele>385.0</ele><time>2026-04-25T09:51:57.937Z</time></trkpt><trkpt lat="43.6220133" lon="12.5977617"><ele>385.0</ele><time>2026-04-25T09:51:58.937Z</time></trkpt><trkpt lat="43.6220883" lon="12.5979017"><ele>385.0</ele><time>2026-04-25T09:51:59.937Z</time></trkpt><trkpt lat="43.622165" lon="12.5980283"><ele>385.0</ele><time>2026-04-25T09:52:00.937Z</time></trkpt><trkpt lat="43.622245" lon="12.5981333"><ele>385.0</ele><time>2026-04-25T09:52:01.937Z</time></trkpt><trkpt lat="43.622325" lon="12.5982117"><ele>385.0</ele><time>2026-04-25T09:52:02.937Z</time></trkpt><trkpt lat="43.6224067" lon="12.598255"><ele>385.0</ele><time>2026-04-25T09:52:03.937Z</time></trkpt><trkpt lat="43.6224983" lon="12.5982683"><ele>385.0</ele><time>2026-04-25T09:52:04.937Z</time></trkpt><trkpt lat="43.6226117" lon="12.5982467"><ele>385.0</ele><time>2026-04-25T09:52:05.937Z</time></trkpt><trkpt lat="43.622735" lon="12.5982067"><ele>384.75</ele><time>2026-04-25T09:52:06.937Z</time></trkpt><trkpt lat="43.6228617" lon="12.598155"><ele>384.5</ele><time>2026-04-25T09:52:07.937Z</time></trkpt><trkpt lat="43.622985" lon="12.5980967"><ele>384.25</ele><time>2026-04-25T09:52:08.937Z</time></trkpt><trkpt lat="43.6230967" lon="12.5980217"><ele>384.0</ele><time>2026-04-25T09:52:09.937Z</time></trkpt><trkpt lat="43.6231983" lon="12.5979333"><ele>380.25</ele><time>2026-04-25T09:52:10.937Z</time></trkpt><trkpt lat="43.6233" lon="12.597825"><ele>376.5</ele><time>2026-04-25T09:52:11.937Z</time></trkpt><trkpt lat="43.6234017" lon="12.59771"><ele>372.75</ele><time>2026-04-25T09:52:12.937Z</time></trkpt><trkpt lat="43.6234983" lon="12.5975933"><ele>369.0</ele><time>2026-04-25T09:52:13.937Z</time></trkpt><trkpt lat="43.6235867" lon="12.59748"><ele>367.6</ele><time>2026-04-25T09:52:14.937Z</time></trkpt><trkpt lat="43.623665" lon="12.5973767"><ele>366.2</ele><time>2026-04-25T09:52:15.937Z</time></trkpt><trkpt lat="43.6237417" lon="12.5972883"><ele>364.8</ele><time>2026-04-25T09:52:16.937Z</time></trkpt><trkpt lat="43.6238133" lon="12.5972183"><ele>363.40000000000003</ele><time>2026-04-25T09:52:17.937Z</time></trkpt><trkpt lat="43.6238817" lon="12.5971667"><ele>362.0</ele><time>2026-04-25T09:52:18.936Z</time></trkpt><trkpt lat="43.6239583" lon="12.5971433"><ele>362.0</ele><time>2026-04-25T09:52:19.937Z</time></trkpt><trkpt lat="43.6240333" lon="12.5971583"><ele>362.0</ele><time>2026-04-25T09:52:20.937Z</time></trkpt><trkpt lat="43.6240917" lon="12.59721"><ele>362.0</ele><time>2026-04-25T09:52:21.937Z</time></trkpt><trkpt lat="43.624135" lon="12.597285"><ele>362.0</ele><time>2026-04-25T09:52:22.936Z</time></trkpt><trkpt lat="43.6241533" lon="12.597385"><ele>362.0</ele><time>2026-04-25T09:52:23.937Z</time></trkpt><trkpt lat="43.6241383" lon="12.5975117"><ele>362.0</ele><time>2026-04-25T09:52:24.936Z</time></trkpt><trkpt lat="43.6241117" lon="12.597655"><ele>362.0</ele><time>2026-04-25T09:52:25.937Z</time></trkpt><trkpt lat="43.6240767" lon="12.59781"><ele>362.0</ele><time>2026-04-25T09:52:26.937Z</time></trkpt><trkpt lat="43.6240483" lon="12.5979767"><ele>362.0</ele><time>2026-04-25T09:52:27.936Z</time></trkpt><trkpt lat="43.6240383" lon="12.5981483"><ele>362.0</ele><time>2026-04-25T09:52:28.937Z</time></trkpt><trkpt lat="43.6240517" lon="12.5983083"><ele>363.6</ele><time>2026-04-25T09:52:29.937Z</time></trkpt><trkpt lat="43.6240867" lon="12.59845"><ele>365.20000000000005</ele><time>2026-04-25T09:52:30.937Z</time></trkpt><trkpt lat="43.62414" lon="12.5985817"><ele>366.8</ele><time>2026-04-25T09:52:31.936Z</time></trkpt><trkpt lat="43.6242067" lon="12.598705"><ele>368.4</ele><time>2026-04-25T09:52:32.936Z</time></trkpt><trkpt lat="43.6242767" lon="12.59883"><ele>370.0</ele><time>2026-04-25T09:52:33.936Z</time></trkpt><trkpt lat="43.6243567" lon="12.5989717"><ele>371.0</ele><time>2026-04-25T09:52:34.937Z</time></trkpt><trkpt lat="43.6244317" lon="12.5991183"><ele>372.0</ele><time>2026-04-25T09:52:35.937Z</time></trkpt><trkpt lat="43.6245033" lon="12.5992667"><ele>373.0</ele><time>2026-04-25T09:52:36.936Z</time></trkpt><trkpt lat="43.6245717" lon="12.59941"><ele>374.0</ele><time>2026-04-25T09:52:37.937Z</time></trkpt><trkpt lat="43.6246317" lon="12.5995533"><ele>370.25</ele><time>2026-04-25T09:52:38.937Z</time></trkpt><trkpt lat="43.6246867" lon="12.5997"><ele>366.5</ele><time>2026-04-25T09:52:39.936Z</time></trkpt><trkpt lat="43.6247367" lon="12.599865"><ele>362.75</ele><time>2026-04-25T09:52:40.936Z</time></trkpt><trkpt lat="43.6247767" lon="12.6000367"><ele>359.0</ele><time>2026-04-25T09:52:41.937Z</time></trkpt><trkpt lat="43.6248017" lon="12.6002217"><ele>359.75</ele><time>2026-04-25T09:52:42.937Z</time></trkpt><trkpt lat="43.6248267" lon="12.6004"><ele>360.5</ele><time>2026-04-25T09:52:43.937Z</time></trkpt><trkpt lat="43.6248483" lon="12.6005683"><ele>361.25</ele><time>2026-04-25T09:52:44.936Z</time></trkpt><trkpt lat="43.6248617" lon="12.6007267"><ele>362.0</ele><time>2026-04-25T09:52:45.937Z</time></trkpt><trkpt lat="43.6248733" lon="12.6008617"><ele>362.0</ele><time>2026-04-25T09:52:46.937Z</time></trkpt><trkpt lat="43.624905" lon="12.600965"><ele>362.0</ele><time>2026-04-25T09:52:47.937Z</time></trkpt><trkpt lat="43.6249583" lon="12.6010433"><ele>362.0</ele><time>2026-04-25T09:52:48.937Z</time></trkpt><trkpt lat="43.6250283" lon="12.6010917"><ele>362.0</ele><time>2026-04-25T09:52:49.937Z</time></trkpt><trkpt lat="43.6251067" lon="12.6011183"><ele>362.0</ele><time>2026-04-25T09:52:50.937Z</time></trkpt><trkpt lat="43.6251967" lon="12.60112"><ele>362.0</ele><time>2026-04-25T09:52:51.936Z</time></trkpt><trkpt lat="43.6252833" lon="12.601115"><ele>361.6666666666667</ele><time>2026-04-25T09:52:52.936Z</time></trkpt><trkpt lat="43.6253567" lon="12.6011317"><ele>361.33333333333337</ele><time>2026-04-25T09:52:53.937Z</time></trkpt><trkpt lat="43.6254133" lon="12.601185"><ele>361.0</ele><time>2026-04-25T09:52:54.937Z</time></trkpt><trkpt lat="43.62546" lon="12.60127"><ele>360.6666666666667</ele><time>2026-04-25T09:52:55.936Z</time></trkpt><trkpt lat="43.6255017" lon="12.6013867"><ele>360.3333333333333</ele><time>2026-04-25T09:52:56.937Z</time></trkpt><trkpt lat="43.6255483" lon="12.601525"><ele>360.0</ele><time>2026-04-25T09:52:57.937Z</time></trkpt><trkpt lat="43.6256" lon="12.6016733"><ele>360.0</ele><time>2026-04-25T09:52:58.936Z</time></trkpt><trkpt lat="43.6256567" lon="12.6018183"><ele>360.0</ele><time>2026-04-25T09:52:59.937Z</time></trkpt><trkpt lat="43.6257233" lon="12.601945"><ele>360.0</ele><time>2026-04-25T09:53:00.936Z</time></trkpt><trkpt lat="43.6258117" lon="12.6020517"><ele>360.0</ele><time>2026-04-25T09:53:01.937Z</time></trkpt><trkpt lat="43.6259083" lon="12.6021317"><ele>359.2</ele><time>2026-04-25T09:53:02.937Z</time></trkpt><trkpt lat="43.6259917" lon="12.602195"><ele>358.4</ele><time>2026-04-25T09:53:03.937Z</time></trkpt><trkpt lat="43.6260683" lon="12.6022583"><ele>357.6</ele><time>2026-04-25T09:53:04.937Z</time></trkpt><trkpt lat="43.6261483" lon="12.6023167"><ele>356.8</ele><time>2026-04-25T09:53:05.937Z</time></trkpt><trkpt lat="43.6262317" lon="12.6023833"><ele>356.0</ele><time>2026-04-25T09:53:06.937Z</time></trkpt><trkpt lat="43.6263117" lon="12.602465"><ele>355.8</ele><time>2026-04-25T09:53:07.937Z</time></trkpt><trkpt lat="43.626385" lon="12.6025617"><ele>355.6</ele><time>2026-04-25T09:53:08.937Z</time></trkpt><trkpt lat="43.6264567" lon="12.60266"><ele>355.4</ele><time>2026-04-25T09:53:09.936Z</time></trkpt><trkpt lat="43.62654" lon="12.60275"><ele>355.2</ele><time>2026-04-25T09:53:10.937Z</time></trkpt><trkpt lat="43.6266283" lon="12.6028267"><ele>355.0</ele><time>2026-04-25T09:53:11.937Z</time></trkpt><trkpt lat="43.6267233" lon="12.6028967"><ele>352.75</ele><time>2026-04-25T09:53:12.936Z</time></trkpt><trkpt lat="43.6268233" lon="12.60296"><ele>350.5</ele><time>2026-04-25T09:53:13.936Z</time></trkpt><trkpt lat="43.6269283" lon="12.6030133"><ele>348.25</ele><time>2026-04-25T09:53:14.936Z</time></trkpt><trkpt lat="43.62704" lon="12.6030533"><ele>346.0</ele><time>2026-04-25T09:53:15.937Z</time></trkpt><trkpt lat="43.6271533" lon="12.603085"><ele>345.75</ele><time>2026-04-25T09:53:16.936Z</time></trkpt><trkpt lat="43.6272667" lon="12.6031067"><ele>345.5</ele><time>2026-04-25T09:53:17.937Z</time></trkpt><trkpt lat="43.62738" lon="12.603135"><ele>345.25</ele><time>2026-04-25T09:53:18.937Z</time></trkpt><trkpt lat="43.6274883" lon="12.6031817"><ele>345.0</ele><time>2026-04-25T09:53:19.937Z</time></trkpt><trkpt lat="43.6275867" lon="12.603265"><ele>345.0</ele><time>2026-04-25T09:53:20.937Z</time></trkpt><trkpt lat="43.6276767" lon="12.6033783"><ele>345.0</ele><time>2026-04-25T09:53:21.937Z</time></trkpt><trkpt lat="43.62776" lon="12.603515"><ele>345.0</ele><time>2026-04-25T09:53:22.937Z</time></trkpt><trkpt lat="43.62784" lon="12.6036683"><ele>345.0</ele><time>2026-04-25T09:53:23.936Z</time></trkpt><trkpt lat="43.627905" lon="12.60384"><ele>342.25</ele><time>2026-04-25T09:53:24.936Z</time></trkpt><trkpt lat="43.6279517" lon="12.6040217"><ele>339.5</ele><time>2026-04-25T09:53:25.936Z</time></trkpt><trkpt lat="43.6279833" lon="12.6042133"><ele>336.75</ele><time>2026-04-25T09:53:26.937Z</time></trkpt><trkpt lat="43.6279983" lon="12.6044133"><ele>334.0</ele><time>2026-04-25T09:53:27.937Z</time></trkpt><trkpt lat="43.6279917" lon="12.6046117"><ele>334.0</ele><time>2026-04-25T09:53:28.937Z</time></trkpt><trkpt lat="43.62797" lon="12.6048067"><ele>334.0</ele><time>2026-04-25T09:53:29.937Z</time></trkpt><trkpt lat="43.6279417" lon="12.604985"><ele>334.0</ele><time>2026-04-25T09:53:30.936Z</time></trkpt><trkpt lat="43.6279183" lon="12.6051433"><ele>334.0</ele><time>2026-04-25T09:53:31.937Z</time></trkpt><trkpt lat="43.627915" lon="12.6052783"><ele>333.0</ele><time>2026-04-25T09:53:32.936Z</time></trkpt><trkpt lat="43.627935" lon="12.6054"><ele>332.0</ele><time>2026-04-25T09:53:33.937Z</time></trkpt><trkpt lat="43.6279817" lon="12.6055233"><ele>331.0</ele><time>2026-04-25T09:53:34.936Z</time></trkpt><trkpt lat="43.6280433" lon="12.6056517"><ele>330.0</ele><time>2026-04-25T09:53:35.937Z</time></trkpt><trkpt lat="43.6281117" lon="12.60578"><ele>329.0</ele><time>2026-04-25T09:53:36.937Z</time></trkpt><trkpt lat="43.6281883" lon="12.6059033"><ele>329.0</ele><time>2026-04-25T09:53:37.936Z</time></trkpt><trkpt lat="43.6282667" lon="12.6060233"><ele>329.0</ele><time>2026-04-25T09:53:38.937Z</time></trkpt><trkpt lat="43.628345" lon="12.6061383"><ele>329.0</ele><time>2026-04-25T09:53:39.937Z</time></trkpt><trkpt lat="43.6284233" lon="12.6062467"><ele>329.0</ele><time>2026-04-25T09:53:40.937Z</time></trkpt><trkpt lat="43.6284983" lon="12.6063433"><ele>329.0</ele><time>2026-04-25T09:53:41.937Z</time></trkpt><trkpt lat="43.62856" lon="12.6064167"><ele>329.6</ele><time>2026-04-25T09:53:42.936Z</time></trkpt><trkpt lat="43.6286183" lon="12.6064633"><ele>330.2</ele><time>2026-04-25T09:53:43.937Z</time></trkpt><trkpt lat="43.62868" lon="12.606495"><ele>330.8</ele><time>2026-04-25T09:53:45.937Z</time></trkpt><trkpt lat="43.6287733" lon="12.6064567"><ele>331.40000000000003</ele><time>2026-04-25T09:53:48.937Z</time></trkpt><trkpt lat="43.6288517" lon="12.6063"><ele>332.0</ele><time>2026-04-25T09:53:50.937Z</time></trkpt><trkpt lat="43.6288967" lon="12.6062017"><ele>331.20000000000005</ele><time>2026-04-25T09:53:51.937Z</time></trkpt><trkpt lat="43.6289433" lon="12.606095"><ele>330.4</ele><time>2026-04-25T09:53:52.936Z</time></trkpt><trkpt lat="43.6289917" lon="12.6059833"><ele>329.6</ele><time>2026-04-25T09:53:53.937Z</time></trkpt><trkpt lat="43.6290433" lon="12.6058667"><ele>328.79999999999995</ele><time>2026-04-25T09:53:54.936Z</time></trkpt><trkpt lat="43.6290933" lon="12.6057433"><ele>328.0</ele><time>2026-04-25T09:53:55.937Z</time></trkpt><trkpt lat="43.62914" lon="12.6056183"><ele>328.0</ele><time>2026-04-25T09:53:56.937Z</time></trkpt><trkpt lat="43.6291883" lon="12.6055017"><ele>328.0</ele><time>2026-04-25T09:53:57.936Z</time></trkpt><trkpt lat="43.629235" lon="12.6054033"><ele>328.0</ele><time>2026-04-25T09:53:58.937Z</time></trkpt><trkpt lat="43.62929" lon="12.6053283"><ele>328.0</ele><time>2026-04-25T09:53:59.936Z</time></trkpt><trkpt lat="43.6293617" lon="12.6052767"><ele>328.0</ele><time>2026-04-25T09:54:00.936Z</time></trkpt><trkpt lat="43.6294533" lon="12.6052533"><ele>328.0</ele><time>2026-04-25T09:54:01.937Z</time></trkpt><trkpt lat="43.629565" lon="12.6052583"><ele>327.25</ele><time>2026-04-25T09:54:02.936Z</time></trkpt><trkpt lat="43.629685" lon="12.6052817"><ele>326.5</ele><time>2026-04-25T09:54:03.937Z</time></trkpt><trkpt lat="43.629815" lon="12.6053133"><ele>325.75</ele><time>2026-04-25T09:54:04.936Z</time></trkpt><trkpt lat="43.6299467" lon="12.6053483"><ele>325.0</ele><time>2026-04-25T09:54:05.936Z</time></trkpt><trkpt lat="43.6300817" lon="12.605385"><ele>325.0</ele><time>2026-04-25T09:54:06.936Z</time></trkpt><trkpt lat="43.6302117" lon="12.605415"><ele>325.0</ele><time>2026-04-25T09:54:07.937Z</time></trkpt><trkpt lat="43.6303333" lon="12.6054567"><ele>325.0</ele><time>2026-04-25T09:54:08.937Z</time></trkpt><trkpt lat="43.6304517" lon="12.6054983"><ele>325.0</ele><time>2026-04-25T09:54:09.936Z</time></trkpt><trkpt lat="43.6305633" lon="12.6055533"><ele>324.0</ele><time>2026-04-25T09:54:10.937Z</time></trkpt><trkpt lat="43.630675" lon="12.6056083"><ele>323.0</ele><time>2026-04-25T09:54:11.937Z</time></trkpt><trkpt lat="43.6307983" lon="12.6056583"><ele>322.0</ele><time>2026-04-25T09:54:12.937Z</time></trkpt><trkpt lat="43.6309333" lon="12.6057117"><ele>321.0</ele><time>2026-04-25T09:54:13.936Z</time></trkpt><trkpt lat="43.63107" lon="12.605765"><ele>320.2</ele><time>2026-04-25T09:54:14.937Z</time></trkpt><trkpt lat="43.6311983" lon="12.605815"><ele>319.40000000000003</ele><time>2026-04-25T09:54:15.936Z</time></trkpt><trkpt lat="43.6313083" lon="12.60586"><ele>318.6</ele><time>2026-04-25T09:54:16.936Z</time></trkpt><trkpt lat="43.631405" lon="12.6058967"><ele>317.8</ele><time>2026-04-25T09:54:17.937Z</time></trkpt><trkpt lat="43.63148" lon="12.6059333"><ele>317.0</ele><time>2026-04-25T09:54:18.937Z</time></trkpt><trkpt lat="43.6315533" lon="12.6060467"><ele>318.5</ele><time>2026-04-25T09:54:20.936Z</time></trkpt><trkpt lat="43.63152" lon="12.6062133"><ele>320.0</ele><time>2026-04-25T09:54:22.937Z</time></trkpt><trkpt lat="43.6314767" lon="12.6063283"><ele>321.5</ele><time>2026-04-25T09:54:23.937Z</time></trkpt><trkpt lat="43.6314167" lon="12.6064817"><ele>323.0</ele><time>2026-04-25T09:54:24.936Z</time></trkpt><trkpt lat="43.6313567" lon="12.6066517"><ele>323.0</ele><time>2026-04-25T09:54:25.936Z</time></trkpt><trkpt lat="43.6312883" lon="12.6068417"><ele>323.0</ele><time>2026-04-25T09:54:26.937Z</time></trkpt><trkpt lat="43.6312167" lon="12.6070467"><ele>323.0</ele><time>2026-04-25T09:54:27.937Z</time></trkpt><trkpt lat="43.6311417" lon="12.6072383"><ele>327.5</ele><time>2026-04-25T09:54:28.937Z</time></trkpt><trkpt lat="43.6310583" lon="12.607405"><ele>332.0</ele><time>2026-04-25T09:54:29.936Z</time></trkpt><trkpt lat="43.6309583" lon="12.6075367"><ele>336.5</ele><time>2026-04-25T09:54:30.937Z</time></trkpt><trkpt lat="43.63084" lon="12.6076433"><ele>341.0</ele><time>2026-04-25T09:54:31.938Z</time></trkpt><trkpt lat="43.6307117" lon="12.6077333"><ele>341.0</ele><time>2026-04-25T09:54:32.938Z</time></trkpt><trkpt lat="43.6305917" lon="12.607815"><ele>341.0</ele><time>2026-04-25T09:54:33.938Z</time></trkpt><trkpt lat="43.630485" lon="12.6079"><ele>341.0</ele><time>2026-04-25T09:54:34.938Z</time></trkpt><trkpt lat="43.6303867" lon="12.6080117"><ele>341.0</ele><time>2026-04-25T09:54:35.938Z</time></trkpt><trkpt lat="43.6302917" lon="12.60815"><ele>342.5</ele><time>2026-04-25T09:54:36.938Z</time></trkpt><trkpt lat="43.630195" lon="12.6083083"><ele>344.0</ele><time>2026-04-25T09:54:37.937Z</time></trkpt><trkpt lat="43.63011" lon="12.608465"><ele>345.5</ele><time>2026-04-25T09:54:38.937Z</time></trkpt><trkpt lat="43.63004" lon="12.6086117"><ele>347.0</ele><time>2026-04-25T09:54:39.938Z</time></trkpt><trkpt lat="43.6299983" lon="12.6087483"><ele>349.6</ele><time>2026-04-25T09:54:40.937Z</time></trkpt><trkpt lat="43.6299983" lon="12.6088833"><ele>352.20000000000005</ele><time>2026-04-25T09:54:41.938Z</time></trkpt><trkpt lat="43.630035" lon="12.60901"><ele>354.8</ele><time>2026-04-25T09:54:42.938Z</time></trkpt><trkpt lat="43.630095" lon="12.6091417"><ele>357.4</ele><time>2026-04-25T09:54:43.937Z</time></trkpt><trkpt lat="43.6301783" lon="12.60928"><ele>360.0</ele><time>2026-04-25T09:54:44.938Z</time></trkpt><trkpt lat="43.6302717" lon="12.6094333"><ele>362.25</ele><time>2026-04-25T09:54:45.937Z</time></trkpt><trkpt lat="43.6303633" lon="12.6095983"><ele>364.5</ele><time>2026-04-25T09:54:46.938Z</time></trkpt><trkpt lat="43.6304583" lon="12.60976"><ele>366.75</ele><time>2026-04-25T09:54:47.937Z</time></trkpt><trkpt lat="43.6305583" lon="12.6099033"><ele>369.0</ele><time>2026-04-25T09:54:48.938Z</time></trkpt><trkpt lat="43.6306717" lon="12.61002"><ele>369.0</ele><time>2026-04-25T09:54:49.937Z</time></trkpt><trkpt lat="43.6307917" lon="12.6100933"><ele>369.0</ele><time>2026-04-25T09:54:50.938Z</time></trkpt><trkpt lat="43.6308983" lon="12.6101417"><ele>369.0</ele><time>2026-04-25T09:54:51.938Z</time></trkpt><trkpt lat="43.6309717" lon="12.6101883"><ele>369.0</ele><time>2026-04-25T09:54:52.938Z</time></trkpt><trkpt lat="43.6310367" lon="12.610305"><ele>369.0</ele><time>2026-04-25T09:54:54.938Z</time></trkpt><trkpt lat="43.6310783" lon="12.6104617"><ele>368.25</ele><time>2026-04-25T09:54:56.938Z</time></trkpt><trkpt lat="43.6311167" lon="12.61057"><ele>367.5</ele><time>2026-04-25T09:54:57.938Z</time></trkpt><trkpt lat="43.631175" lon="12.6107067"><ele>366.75</ele><time>2026-04-25T09:54:58.938Z</time></trkpt><trkpt lat="43.631245" lon="12.61087"><ele>366.0</ele><time>2026-04-25T09:54:59.938Z</time></trkpt><trkpt lat="43.6313117" lon="12.611045"><ele>364.0</ele><time>2026-04-25T09:55:00.938Z</time></trkpt><trkpt lat="43.631375" lon="12.61122"><ele>362.0</ele><time>2026-04-25T09:55:01.938Z</time></trkpt><trkpt lat="43.6314383" lon="12.6113983"><ele>360.0</ele><time>2026-04-25T09:55:02.938Z</time></trkpt><trkpt lat="43.6314983" lon="12.6115683"><ele>358.0</ele><time>2026-04-25T09:55:03.938Z</time></trkpt><trkpt lat="43.6315517" lon="12.6117317"><ele>358.0</ele><time>2026-04-25T09:55:04.938Z</time></trkpt><trkpt lat="43.6316017" lon="12.6118933"><ele>358.0</ele><time>2026-04-25T09:55:05.938Z</time></trkpt><trkpt lat="43.6316533" lon="12.612055"><ele>358.0</ele><time>2026-04-25T09:55:06.938Z</time></trkpt><trkpt lat="43.6317117" lon="12.6122167"><ele>358.0</ele><time>2026-04-25T09:55:07.937Z</time></trkpt><trkpt lat="43.63177" lon="12.6123767"><ele>358.5</ele><time>2026-04-25T09:55:08.938Z</time></trkpt><trkpt lat="43.63183" lon="12.6125417"><ele>359.0</ele><time>2026-04-25T09:55:09.938Z</time></trkpt><trkpt lat="43.6318983" lon="12.6127117"><ele>359.5</ele><time>2026-04-25T09:55:10.937Z</time></trkpt><trkpt lat="43.6319733" lon="12.61289"><ele>360.0</ele><time>2026-04-25T09:55:11.938Z</time></trkpt><trkpt lat="43.6320517" lon="12.613075"><ele>354.3333333333333</ele><time>2026-04-25T09:55:12.937Z</time></trkpt><trkpt lat="43.632135" lon="12.613265"><ele>348.66666666666663</ele><time>2026-04-25T09:55:13.937Z</time></trkpt><trkpt lat="43.63222" lon="12.6134517"><ele>343.0</ele><time>2026-04-25T09:55:14.938Z</time></trkpt><trkpt lat="43.632305" lon="12.61362"><ele>344.75</ele><time>2026-04-25T09:55:15.938Z</time></trkpt><trkpt lat="43.6323967" lon="12.6137783"><ele>346.5</ele><time>2026-04-25T09:55:16.937Z</time></trkpt><trkpt lat="43.6324933" lon="12.6139317"><ele>348.25</ele><time>2026-04-25T09:55:17.937Z</time></trkpt><trkpt lat="43.6325983" lon="12.6140783"><ele>350.0</ele><time>2026-04-25T09:55:18.937Z</time></trkpt><trkpt lat="43.6326967" lon="12.614215"><ele>350.0</ele><time>2026-04-25T09:55:19.938Z</time></trkpt><trkpt lat="43.6327817" lon="12.61435"><ele>350.0</ele><time>2026-04-25T09:55:20.938Z</time></trkpt><trkpt lat="43.6328483" lon="12.61449"><ele>350.0</ele><time>2026-04-25T09:55:21.938Z</time></trkpt><trkpt lat="43.6328983" lon="12.6146417"><ele>350.0</ele><time>2026-04-25T09:55:22.938Z</time></trkpt><trkpt lat="43.63294" lon="12.6147933"><ele>347.8</ele><time>2026-04-25T09:55:23.938Z</time></trkpt><trkpt lat="43.6329833" lon="12.6149283"><ele>345.6</ele><time>2026-04-25T09:55:24.938Z</time></trkpt><trkpt lat="43.6330417" lon="12.61503"><ele>343.4</ele><time>2026-04-25T09:55:25.937Z</time></trkpt><trkpt lat="43.63311" lon="12.6150967"><ele>341.2</ele><time>2026-04-25T09:55:26.937Z</time></trkpt><trkpt lat="43.6331933" lon="12.6151217"><ele>339.0</ele><time>2026-04-25T09:55:27.938Z</time></trkpt><trkpt lat="43.633295" lon="12.615105"><ele>339.0</ele><time>2026-04-25T09:55:28.938Z</time></trkpt><trkpt lat="43.6333883" lon="12.6151433"><ele>339.0</ele><time>2026-04-25T09:55:29.938Z</time></trkpt><trkpt lat="43.6334767" lon="12.615235"><ele>339.0</ele><time>2026-04-25T09:55:30.937Z</time></trkpt><trkpt lat="43.6335533" lon="12.615375"><ele>339.0</ele><time>2026-04-25T09:55:31.937Z</time></trkpt><trkpt lat="43.633635" lon="12.6155317"><ele>334.6666666666667</ele><time>2026-04-25T09:55:32.938Z</time></trkpt><trkpt lat="43.6337133" lon="12.6157117"><ele>330.33333333333337</ele><time>2026-04-25T09:55:33.937Z</time></trkpt><trkpt lat="43.6337933" lon="12.6159083"><ele>326.0</ele><time>2026-04-25T09:55:34.938Z</time></trkpt><trkpt lat="43.63387" lon="12.6161167"><ele>328.33333333333337</ele><time>2026-04-25T09:55:35.938Z</time></trkpt><trkpt lat="43.6339417" lon="12.6163317"><ele>330.6666666666667</ele><time>2026-04-25T09:55:36.938Z</time></trkpt><trkpt lat="43.6340233" lon="12.6165467"><ele>333.0</ele><time>2026-04-25T09:55:37.938Z</time></trkpt><trkpt lat="43.6341233" lon="12.6167533"><ele>333.0</ele><time>2026-04-25T09:55:38.938Z</time></trkpt><trkpt lat="43.6342383" lon="12.61694"><ele>333.0</ele><time>2026-04-25T09:55:39.938Z</time></trkpt><trkpt lat="43.63437" lon="12.6171133"><ele>333.0</ele><time>2026-04-25T09:55:40.937Z</time></trkpt><trkpt lat="43.634515" lon="12.6172783"><ele>332.6666666666667</ele><time>2026-04-25T09:55:41.938Z</time></trkpt><trkpt lat="43.6346667" lon="12.617445"><ele>332.33333333333337</ele><time>2026-04-25T09:55:42.938Z</time></trkpt><trkpt lat="43.6348233" lon="12.617615"><ele>332.0</ele><time>2026-04-25T09:55:43.938Z</time></trkpt><trkpt lat="43.634975" lon="12.6177867"><ele>334.0</ele><time>2026-04-25T09:55:44.938Z</time></trkpt><trkpt lat="43.6351233" lon="12.6179583"><ele>336.0</ele><time>2026-04-25T09:55:45.938Z</time></trkpt><trkpt lat="43.6352733" lon="12.61814"><ele>338.0</ele><time>2026-04-25T09:55:46.938Z</time></trkpt><trkpt lat="43.6354233" lon="12.6183317"><ele>338.0</ele><time>2026-04-25T09:55:47.938Z</time></trkpt><trkpt lat="43.6355683" lon="12.6185283"><ele>338.0</ele><time>2026-04-25T09:55:48.938Z</time></trkpt><trkpt lat="43.6357117" lon="12.6187233"><ele>338.0</ele><time>2026-04-25T09:55:49.938Z</time></trkpt><trkpt lat="43.6358417" lon="12.6189083"><ele>338.6666666666667</ele><time>2026-04-25T09:55:50.938Z</time></trkpt><trkpt lat="43.635965" lon="12.619085"><ele>339.3333333333333</ele><time>2026-04-25T09:55:51.938Z</time></trkpt><trkpt lat="43.6360867" lon="12.619255"><ele>340.0</ele><time>2026-04-25T09:55:52.938Z</time></trkpt><trkpt lat="43.6362083" lon="12.6194133"><ele>340.66666666666663</ele><time>2026-04-25T09:55:53.938Z</time></trkpt><trkpt lat="43.63633" lon="12.6195583"><ele>341.3333333333333</ele><time>2026-04-25T09:55:54.938Z</time></trkpt><trkpt lat="43.6364633" lon="12.6196767"><ele>342.0</ele><time>2026-04-25T09:55:55.938Z</time></trkpt><trkpt lat="43.6366017" lon="12.6197833"><ele>342.0</ele><time>2026-04-25T09:55:56.938Z</time></trkpt><trkpt lat="43.6367417" lon="12.619885"><ele>342.0</ele><time>2026-04-25T09:55:57.938Z</time></trkpt><trkpt lat="43.63687" lon="12.6199817"><ele>342.0</ele><time>2026-04-25T09:55:58.937Z</time></trkpt><trkpt lat="43.6369833" lon="12.6200833"><ele>342.0</ele><time>2026-04-25T09:55:59.938Z</time></trkpt><trkpt lat="43.6370767" lon="12.62022"><ele>340.25</ele><time>2026-04-25T09:56:00.938Z</time></trkpt><trkpt lat="43.6371433" lon="12.6203733"><ele>338.5</ele><time>2026-04-25T09:56:01.938Z</time></trkpt><trkpt lat="43.6371917" lon="12.6205217"><ele>336.75</ele><time>2026-04-25T09:56:02.938Z</time></trkpt><trkpt lat="43.6372333" lon="12.620665"><ele>335.0</ele><time>2026-04-25T09:56:03.938Z</time></trkpt><trkpt lat="43.637265" lon="12.6208117"><ele>335.0</ele><time>2026-04-25T09:56:04.937Z</time></trkpt><trkpt lat="43.6372917" lon="12.6209667"><ele>335.0</ele><time>2026-04-25T09:56:05.937Z</time></trkpt><trkpt lat="43.6373067" lon="12.6211333"><ele>335.0</ele><time>2026-04-25T09:56:06.937Z</time></trkpt><trkpt lat="43.6373067" lon="12.6213133"><ele>335.0</ele><time>2026-04-25T09:56:07.938Z</time></trkpt><trkpt lat="43.6372967" lon="12.6215017"><ele>334.75</ele><time>2026-04-25T09:56:08.937Z</time></trkpt><trkpt lat="43.6372917" lon="12.6216933"><ele>334.5</ele><time>2026-04-25T09:56:09.936Z</time></trkpt><trkpt lat="43.6372917" lon="12.6218833"><ele>334.25</ele><time>2026-04-25T09:56:10.937Z</time></trkpt><trkpt lat="43.6372983" lon="12.6220633"><ele>334.0</ele><time>2026-04-25T09:56:11.937Z</time></trkpt><trkpt lat="43.6373083" lon="12.6222367"><ele>334.75</ele><time>2026-04-25T09:56:12.936Z</time></trkpt><trkpt lat="43.63733" lon="12.622405"><ele>335.5</ele><time>2026-04-25T09:56:13.937Z</time></trkpt><trkpt lat="43.6373717" lon="12.622565"><ele>336.25</ele><time>2026-04-25T09:56:14.936Z</time></trkpt><trkpt lat="43.6374283" lon="12.6227267"><ele>337.0</ele><time>2026-04-25T09:56:15.937Z</time></trkpt><trkpt lat="43.6374933" lon="12.6228917"><ele>337.25</ele><time>2026-04-25T09:56:16.937Z</time></trkpt><trkpt lat="43.6375617" lon="12.62305"><ele>337.5</ele><time>2026-04-25T09:56:17.937Z</time></trkpt><trkpt lat="43.6376317" lon="12.6232"><ele>337.75</ele><time>2026-04-25T09:56:18.936Z</time></trkpt><trkpt lat="43.6376933" lon="12.62335"><ele>338.0</ele><time>2026-04-25T09:56:19.936Z</time></trkpt><trkpt lat="43.637765" lon="12.6234867"><ele>337.0</ele><time>2026-04-25T09:56:20.937Z</time></trkpt><trkpt lat="43.6378267" lon="12.623635"><ele>336.0</ele><time>2026-04-25T09:56:21.937Z</time></trkpt><trkpt lat="43.6378833" lon="12.6237917"><ele>335.0</ele><time>2026-04-25T09:56:22.937Z</time></trkpt><trkpt lat="43.6379217" lon="12.6239633"><ele>334.0</ele><time>2026-04-25T09:56:23.937Z</time></trkpt><trkpt lat="43.6379383" lon="12.6241467"><ele>336.75</ele><time>2026-04-25T09:56:24.937Z</time></trkpt><trkpt lat="43.637935" lon="12.62434"><ele>339.5</ele><time>2026-04-25T09:56:25.937Z</time></trkpt><trkpt lat="43.6379167" lon="12.624535"><ele>342.25</ele><time>2026-04-25T09:56:26.937Z</time></trkpt><trkpt lat="43.6378967" lon="12.6247233"><ele>345.0</ele><time>2026-04-25T09:56:27.937Z</time></trkpt><trkpt lat="43.6378867" lon="12.6249117"><ele>344.25</ele><time>2026-04-25T09:56:28.937Z</time></trkpt><trkpt lat="43.6378917" lon="12.6251"><ele>343.5</ele><time>2026-04-25T09:56:29.937Z</time></trkpt><trkpt lat="43.6379133" lon="12.6252833"><ele>342.75</ele><time>2026-04-25T09:56:30.937Z</time></trkpt><trkpt lat="43.63795" lon="12.62546"><ele>342.0</ele><time>2026-04-25T09:56:31.937Z</time></trkpt><trkpt lat="43.637995" lon="12.6256367"><ele>342.0</ele><time>2026-04-25T09:56:32.936Z</time></trkpt><trkpt lat="43.6380617" lon="12.6258167"><ele>342.0</ele><time>2026-04-25T09:56:33.937Z</time></trkpt><trkpt lat="43.6381317" lon="12.626015"><ele>342.0</ele><time>2026-04-25T09:56:34.937Z</time></trkpt><trkpt lat="43.6382083" lon="12.6262183"><ele>339.6666666666667</ele><time>2026-04-25T09:56:35.937Z</time></trkpt><trkpt lat="43.6382883" lon="12.6264217"><ele>337.33333333333337</ele><time>2026-04-25T09:56:36.937Z</time></trkpt><trkpt lat="43.6383767" lon="12.6266283"><ele>335.0</ele><time>2026-04-25T09:56:37.937Z</time></trkpt><trkpt lat="43.6384783" lon="12.6268183"><ele>335.0</ele><time>2026-04-25T09:56:38.937Z</time></trkpt><trkpt lat="43.6385617" lon="12.6270133"><ele>335.0</ele><time>2026-04-25T09:56:39.937Z</time></trkpt><trkpt lat="43.63863" lon="12.6272067"><ele>335.0</ele><time>2026-04-25T09:56:40.937Z</time></trkpt><trkpt lat="43.6386667" lon="12.627415"><ele>335.33333333333337</ele><time>2026-04-25T09:56:41.937Z</time></trkpt><trkpt lat="43.6386733" lon="12.6276367"><ele>335.6666666666667</ele><time>2026-04-25T09:56:42.937Z</time></trkpt><trkpt lat="43.6386617" lon="12.62787"><ele>336.0</ele><time>2026-04-25T09:56:43.936Z</time></trkpt><trkpt lat="43.6386383" lon="12.62811"><ele>338.0</ele><time>2026-04-25T09:56:44.937Z</time></trkpt><trkpt lat="43.63862" lon="12.6283617"><ele>340.0</ele><time>2026-04-25T09:56:45.936Z</time></trkpt><trkpt lat="43.63862" lon="12.6286233"><ele>342.0</ele><time>2026-04-25T09:56:46.937Z</time></trkpt><trkpt lat="43.6386217" lon="12.628895"><ele>343.3333333333333</ele><time>2026-04-25T09:56:47.936Z</time></trkpt><trkpt lat="43.6386583" lon="12.6291733"><ele>344.66666666666663</ele><time>2026-04-25T09:56:48.937Z</time></trkpt><trkpt lat="43.6386933" lon="12.6294433"><ele>346.0</ele><time>2026-04-25T09:56:49.937Z</time></trkpt><trkpt lat="43.6387333" lon="12.6297017"><ele>347.66666666666663</ele><time>2026-04-25T09:56:50.937Z</time></trkpt><trkpt lat="43.63877" lon="12.62995"><ele>349.3333333333333</ele><time>2026-04-25T09:56:51.937Z</time></trkpt><trkpt lat="43.6387917" lon="12.630185"><ele>351.0</ele><time>2026-04-25T09:56:52.937Z</time></trkpt><trkpt lat="43.638795" lon="12.6304233"><ele>352.6666666666667</ele><time>2026-04-25T09:56:53.936Z</time></trkpt><trkpt lat="43.6387817" lon="12.6306633"><ele>354.33333333333337</ele><time>2026-04-25T09:56:54.936Z</time></trkpt><trkpt lat="43.63875" lon="12.630905"><ele>356.0</ele><time>2026-04-25T09:56:55.937Z</time></trkpt><trkpt lat="43.6387083" lon="12.63116"><ele>356.6666666666667</ele><time>2026-04-25T09:56:56.937Z</time></trkpt><trkpt lat="43.6386617" lon="12.6314167"><ele>357.3333333333333</ele><time>2026-04-25T09:56:57.937Z</time></trkpt><trkpt lat="43.638615" lon="12.6316533"><ele>358.0</ele><time>2026-04-25T09:56:58.937Z</time></trkpt><trkpt lat="43.6385683" lon="12.631875"><ele>361.0</ele><time>2026-04-25T09:56:59.937Z</time></trkpt><trkpt lat="43.638525" lon="12.6320783"><ele>364.0</ele><time>2026-04-25T09:57:00.937Z</time></trkpt><trkpt lat="43.6384833" lon="12.632265"><ele>367.0</ele><time>2026-04-25T09:57:01.937Z</time></trkpt><trkpt lat="43.6384517" lon="12.6324433"><ele>370.0</ele><time>2026-04-25T09:57:02.936Z</time></trkpt><trkpt lat="43.6384317" lon="12.632615"><ele>370.0</ele><time>2026-04-25T09:57:03.937Z</time></trkpt><trkpt lat="43.6384167" lon="12.63277"><ele>370.0</ele><time>2026-04-25T09:57:04.936Z</time></trkpt><trkpt lat="43.6383967" lon="12.6329233"><ele>370.0</ele><time>2026-04-25T09:57:05.936Z</time></trkpt><trkpt lat="43.6383717" lon="12.6330767"><ele>370.0</ele><time>2026-04-25T09:57:06.937Z</time></trkpt><trkpt lat="43.63835" lon="12.6332317"><ele>370.75</ele><time>2026-04-25T09:57:07.937Z</time></trkpt><trkpt lat="43.638335" lon="12.6333967"><ele>371.5</ele><time>2026-04-25T09:57:08.937Z</time></trkpt><trkpt lat="43.63832" lon="12.6335583"><ele>372.25</ele><time>2026-04-25T09:57:09.937Z</time></trkpt><trkpt lat="43.638295" lon="12.633715"><ele>373.0</ele><time>2026-04-25T09:57:10.937Z</time></trkpt><trkpt lat="43.6382567" lon="12.6338767"><ele>373.5</ele><time>2026-04-25T09:57:11.937Z</time></trkpt><trkpt lat="43.638215" lon="12.6340467"><ele>374.0</ele><time>2026-04-25T09:57:12.936Z</time></trkpt><trkpt lat="43.6381767" lon="12.6342267"><ele>374.5</ele><time>2026-04-25T09:57:13.937Z</time></trkpt><trkpt lat="43.6381367" lon="12.6344167"><ele>375.0</ele><time>2026-04-25T09:57:14.937Z</time></trkpt><trkpt lat="43.6380883" lon="12.6346133"><ele>376.0</ele><time>2026-04-25T09:57:15.937Z</time></trkpt><trkpt lat="43.6380383" lon="12.634815"><ele>377.0</ele><time>2026-04-25T09:57:16.936Z</time></trkpt><trkpt lat="43.6379883" lon="12.63502"><ele>378.0</ele><time>2026-04-25T09:57:17.937Z</time></trkpt><trkpt lat="43.6379417" lon="12.635215"><ele>379.5</ele><time>2026-04-25T09:57:18.936Z</time></trkpt><trkpt lat="43.637895" lon="12.6354"><ele>381.0</ele><time>2026-04-25T09:57:19.937Z</time></trkpt><trkpt lat="43.6378483" lon="12.63558"><ele>382.5</ele><time>2026-04-25T09:57:20.937Z</time></trkpt><trkpt lat="43.6378" lon="12.6357667"><ele>384.0</ele><time>2026-04-25T09:57:21.936Z</time></trkpt><trkpt lat="43.6377483" lon="12.6359567"><ele>386.75</ele><time>2026-04-25T09:57:22.937Z</time></trkpt><trkpt lat="43.6376883" lon="12.6361517"><ele>389.5</ele><time>2026-04-25T09:57:23.936Z</time></trkpt><trkpt lat="43.6376267" lon="12.636345"><ele>392.25</ele><time>2026-04-25T09:57:24.937Z</time></trkpt><trkpt lat="43.63757" lon="12.6365167"><ele>395.0</ele><time>2026-04-25T09:57:25.937Z</time></trkpt><trkpt lat="43.6375233" lon="12.6366617"><ele>394.99999999999994</ele><time>2026-04-25T09:57:26.937Z</time></trkpt><trkpt lat="43.6374983" lon="12.6367817"><ele>395.0</ele><time>2026-04-25T09:57:27.936Z</time></trkpt><trkpt lat="43.6375" lon="12.636885"><ele>395.0</ele><time>2026-04-25T09:57:28.937Z</time></trkpt><trkpt lat="43.6375317" lon="12.6369683"><ele>395.0</ele><time>2026-04-25T09:57:29.936Z</time></trkpt><trkpt lat="43.6375883" lon="12.6370267"><ele>394.99999999999994</ele><time>2026-04-25T09:57:30.937Z</time></trkpt><trkpt lat="43.6376667" lon="12.6370717"><ele>395.0</ele><time>2026-04-25T09:57:31.937Z</time></trkpt><trkpt lat="43.637765" lon="12.63711"><ele>401.5</ele><time>2026-04-25T09:57:32.937Z</time></trkpt><trkpt lat="43.6378767" lon="12.637145"><ele>408.0</ele><time>2026-04-25T09:57:33.937Z</time></trkpt><trkpt lat="43.63799" lon="12.6371833"><ele>414.5</ele><time>2026-04-25T09:57:34.936Z</time></trkpt><trkpt lat="43.6380967" lon="12.6372367"><ele>421.0</ele><time>2026-04-25T09:57:35.936Z</time></trkpt><trkpt lat="43.6381967" lon="12.6373067"><ele>421.0</ele><time>2026-04-25T09:57:36.937Z</time></trkpt><trkpt lat="43.63829" lon="12.6373983"><ele>421.0</ele><time>2026-04-25T09:57:37.936Z</time></trkpt><trkpt lat="43.6383683" lon="12.6374967"><ele>421.0</ele><time>2026-04-25T09:57:38.936Z</time></trkpt><trkpt lat="43.63842" lon="12.6375833"><ele>421.0</ele><time>2026-04-25T09:57:39.937Z</time></trkpt><trkpt lat="43.6384883" lon="12.6377183"><ele>421.0</ele><time>2026-04-25T09:57:41.937Z</time></trkpt><trkpt lat="43.638595" lon="12.637815"><ele>426.20000000000005</ele><time>2026-04-25T09:57:43.937Z</time></trkpt><trkpt lat="43.638675" lon="12.63784"><ele>431.40000000000003</ele><time>2026-04-25T09:57:44.936Z</time></trkpt><trkpt lat="43.638775" lon="12.6378517"><ele>436.6</ele><time>2026-04-25T09:57:45.937Z</time></trkpt><trkpt lat="43.63889" lon="12.6378517"><ele>441.8</ele><time>2026-04-25T09:57:46.937Z</time></trkpt><trkpt lat="43.6390183" lon="12.6378417"><ele>447.0</ele><time>2026-04-25T09:57:47.937Z</time></trkpt><trkpt lat="43.6391533" lon="12.637825"><ele>441.75</ele><time>2026-04-25T09:57:48.937Z</time></trkpt><trkpt lat="43.63929" lon="12.6378"><ele>436.5</ele><time>2026-04-25T09:57:49.937Z</time></trkpt><trkpt lat="43.6394283" lon="12.6377633"><ele>431.25</ele><time>2026-04-25T09:57:50.937Z</time></trkpt><trkpt lat="43.6395683" lon="12.6377167"><ele>426.0</ele><time>2026-04-25T09:57:51.936Z</time></trkpt><trkpt lat="43.6397033" lon="12.637675"><ele>426.0</ele><time>2026-04-25T09:57:52.936Z</time></trkpt><trkpt lat="43.639835" lon="12.6376333"><ele>426.0</ele><time>2026-04-25T09:57:53.937Z</time></trkpt><trkpt lat="43.63997" lon="12.6376017"><ele>426.0</ele><time>2026-04-25T09:57:54.937Z</time></trkpt><trkpt lat="43.640105" lon="12.637585"><ele>426.0</ele><time>2026-04-25T09:57:55.937Z</time></trkpt><trkpt lat="43.6402367" lon="12.6375833"><ele>425.5</ele><time>2026-04-25T09:57:56.937Z</time></trkpt><trkpt lat="43.64035" lon="12.637595"><ele>425.0</ele><time>2026-04-25T09:57:57.937Z</time></trkpt><trkpt lat="43.6404333" lon="12.6376167"><ele>424.5</ele><time>2026-04-25T09:57:58.937Z</time></trkpt><trkpt lat="43.6404933" lon="12.6377183"><ele>424.0</ele><time>2026-04-25T09:58:00.937Z</time></trkpt><trkpt lat="43.6404267" lon="12.637795"><ele>423.5</ele><time>2026-04-25T09:58:02.936Z</time></trkpt><trkpt lat="43.6403583" lon="12.6378067"><ele>423.0</ele><time>2026-04-25T09:58:03.936Z</time></trkpt><trkpt lat="43.6402633" lon="12.6378167"><ele>430.0</ele><time>2026-04-25T09:58:04.937Z</time></trkpt><trkpt lat="43.6401433" lon="12.63784"><ele>437.0</ele><time>2026-04-25T09:58:05.937Z</time></trkpt><trkpt lat="43.6400183" lon="12.6378717"><ele>444.0</ele><time>2026-04-25T09:58:06.937Z</time></trkpt><trkpt lat="43.639895" lon="12.6378933"><ele>451.0</ele><time>2026-04-25T09:58:07.937Z</time></trkpt><trkpt lat="43.63978" lon="12.63792"><ele>451.0</ele><time>2026-04-25T09:58:08.937Z</time></trkpt><trkpt lat="43.63967" lon="12.6379717"><ele>451.0</ele><time>2026-04-25T09:58:09.937Z</time></trkpt><trkpt lat="43.6395717" lon="12.6380667"><ele>451.0</ele><time>2026-04-25T09:58:10.936Z</time></trkpt><trkpt lat="43.63948" lon="12.63819"><ele>451.0</ele><time>2026-04-25T09:58:11.937Z</time></trkpt><trkpt lat="43.639385" lon="12.638325"><ele>450.0</ele><time>2026-04-25T09:58:12.937Z</time></trkpt><trkpt lat="43.6392717" lon="12.6384517"><ele>449.0</ele><time>2026-04-25T09:58:13.937Z</time></trkpt><trkpt lat="43.6391583" lon="12.63858"><ele>448.0</ele><time>2026-04-25T09:58:14.937Z</time></trkpt><trkpt lat="43.63904" lon="12.6386967"><ele>447.0</ele><time>2026-04-25T09:58:15.937Z</time></trkpt><trkpt lat="43.638905" lon="12.638775"><ele>453.0</ele><time>2026-04-25T09:58:16.937Z</time></trkpt><trkpt lat="43.638765" lon="12.638825"><ele>459.0</ele><time>2026-04-25T09:58:17.937Z</time></trkpt><trkpt lat="43.6386167" lon="12.63887"><ele>465.0</ele><time>2026-04-25T09:58:18.937Z</time></trkpt><trkpt lat="43.63847" lon="12.6389317"><ele>465.0</ele><time>2026-04-25T09:58:19.936Z</time></trkpt><trkpt lat="43.6383283" lon="12.6390133"><ele>465.0</ele><time>2026-04-25T09:58:20.936Z</time></trkpt><trkpt lat="43.63819" lon="12.63912"><ele>465.0</ele><time>2026-04-25T09:58:21.937Z</time></trkpt><trkpt lat="43.638065" lon="12.6392433"><ele>465.0</ele><time>2026-04-25T09:58:22.937Z</time></trkpt><trkpt lat="43.63795" lon="12.6393833"><ele>465.0</ele><time>2026-04-25T09:58:23.937Z</time></trkpt><trkpt lat="43.6378417" lon="12.6395433"><ele>465.0</ele><time>2026-04-25T09:58:24.937Z</time></trkpt><trkpt lat="43.637735" lon="12.6397233"><ele>464.66666666666663</ele><time>2026-04-25T09:58:25.937Z</time></trkpt><trkpt lat="43.63762" lon="12.6399083"><ele>464.3333333333333</ele><time>2026-04-25T09:58:26.936Z</time></trkpt><trkpt lat="43.6375" lon="12.6400833"><ele>464.0</ele><time>2026-04-25T09:58:27.937Z</time></trkpt><trkpt lat="43.6373783" lon="12.64024"><ele>464.66666666666663</ele><time>2026-04-25T09:58:28.937Z</time></trkpt><trkpt lat="43.6372517" lon="12.640365"><ele>465.33333333333337</ele><time>2026-04-25T09:58:29.937Z</time></trkpt><trkpt lat="43.6371133" lon="12.64046"><ele>466.0</ele><time>2026-04-25T09:58:30.936Z</time></trkpt><trkpt lat="43.6369633" lon="12.6405367"><ele>469.33333333333337</ele><time>2026-04-25T09:58:31.936Z</time></trkpt><trkpt lat="43.6368017" lon="12.640585"><ele>472.66666666666663</ele><time>2026-04-25T09:58:32.937Z</time></trkpt><trkpt lat="43.6366417" lon="12.640625"><ele>476.0</ele><time>2026-04-25T09:58:33.937Z</time></trkpt><trkpt lat="43.6364867" lon="12.6406683"><ele>476.0</ele><time>2026-04-25T09:58:34.936Z</time></trkpt><trkpt lat="43.6363367" lon="12.640725"><ele>476.0</ele><time>2026-04-25T09:58:35.937Z</time></trkpt><trkpt lat="43.6361933" lon="12.6408067"><ele>476.0</ele><time>2026-04-25T09:58:36.936Z</time></trkpt><trkpt lat="43.636055" lon="12.6409133"><ele>474.3333333333333</ele><time>2026-04-25T09:58:37.937Z</time></trkpt><trkpt lat="43.6359233" lon="12.6410433"><ele>472.66666666666663</ele><time>2026-04-25T09:58:38.937Z</time></trkpt><trkpt lat="43.6357933" lon="12.6411783"><ele>471.0</ele><time>2026-04-25T09:58:39.937Z</time></trkpt><trkpt lat="43.6356717" lon="12.6413"><ele>474.25</ele><time>2026-04-25T09:58:40.937Z</time></trkpt><trkpt lat="43.6355467" lon="12.6413967"><ele>477.5</ele><time>2026-04-25T09:58:41.937Z</time></trkpt><trkpt lat="43.6354083" lon="12.6414633"><ele>480.75</ele><time>2026-04-25T09:58:42.937Z</time></trkpt><trkpt lat="43.6352667" lon="12.641505"><ele>484.0</ele><time>2026-04-25T09:58:43.937Z</time></trkpt><trkpt lat="43.63512" lon="12.6415517"><ele>485.25</ele><time>2026-04-25T09:58:44.937Z</time></trkpt><trkpt lat="43.6349717" lon="12.6415883"><ele>486.5</ele><time>2026-04-25T09:58:45.937Z</time></trkpt><trkpt lat="43.63483" lon="12.6416383"><ele>487.75</ele><time>2026-04-25T09:58:46.937Z</time></trkpt><trkpt lat="43.634715" lon="12.641705"><ele>489.0</ele><time>2026-04-25T09:58:47.937Z</time></trkpt><trkpt lat="43.6346267" lon="12.641795"><ele>489.0</ele><time>2026-04-25T09:58:48.937Z</time></trkpt><trkpt lat="43.6345667" lon="12.6419133"><ele>489.0</ele><time>2026-04-25T09:58:49.937Z</time></trkpt><trkpt lat="43.6345267" lon="12.642065"><ele>489.0</ele><time>2026-04-25T09:58:50.937Z</time></trkpt><trkpt lat="43.634505" lon="12.6422483"><ele>489.0</ele><time>2026-04-25T09:58:51.936Z</time></trkpt><trkpt lat="43.63449" lon="12.6424483"><ele>489.33333333333337</ele><time>2026-04-25T09:58:52.937Z</time></trkpt><trkpt lat="43.6344767" lon="12.64267"><ele>489.6666666666667</ele><time>2026-04-25T09:58:53.937Z</time></trkpt><trkpt lat="43.6344567" lon="12.6428917"><ele>490.0</ele><time>2026-04-25T09:58:54.936Z</time></trkpt><trkpt lat="43.6344267" lon="12.6431033"><ele>493.6666666666667</ele><time>2026-04-25T09:58:55.937Z</time></trkpt><trkpt lat="43.6343833" lon="12.643315"><ele>497.33333333333337</ele><time>2026-04-25T09:58:56.936Z</time></trkpt><trkpt lat="43.634325" lon="12.6435333"><ele>501.0</ele><time>2026-04-25T09:58:57.937Z</time></trkpt><trkpt lat="43.634255" lon="12.6437533"><ele>501.0</ele><time>2026-04-25T09:58:58.937Z</time></trkpt><trkpt lat="43.6341717" lon="12.643965"><ele>501.0</ele><time>2026-04-25T09:58:59.937Z</time></trkpt><trkpt lat="43.6340733" lon="12.6441683"><ele>501.0</ele><time>2026-04-25T09:59:00.937Z</time></trkpt><trkpt lat="43.6339767" lon="12.6443667"><ele>499.33333333333337</ele><time>2026-04-25T09:59:01.937Z</time></trkpt><trkpt lat="43.6338867" lon="12.64456"><ele>497.6666666666667</ele><time>2026-04-25T09:59:02.937Z</time></trkpt><trkpt lat="43.6338117" lon="12.6447633"><ele>496.0</ele><time>2026-04-25T09:59:03.937Z</time></trkpt><trkpt lat="43.63376" lon="12.6449833"><ele>496.0</ele><time>2026-04-25T09:59:04.937Z</time></trkpt><trkpt lat="43.633725" lon="12.6452083"><ele>496.0</ele><time>2026-04-25T09:59:05.937Z</time></trkpt><trkpt lat="43.6336967" lon="12.6454217"><ele>496.0</ele><time>2026-04-25T09:59:06.937Z</time></trkpt><trkpt lat="43.6336783" lon="12.64562"><ele>497.25</ele><time>2026-04-25T09:59:07.937Z</time></trkpt><trkpt lat="43.6336817" lon="12.645805"><ele>498.5</ele><time>2026-04-25T09:59:08.937Z</time></trkpt><trkpt lat="43.63371" lon="12.6459733"><ele>499.75</ele><time>2026-04-25T09:59:09.937Z</time></trkpt><trkpt lat="43.6337683" lon="12.646125"><ele>501.0</ele><time>2026-04-25T09:59:10.937Z</time></trkpt><trkpt lat="43.6338467" lon="12.6462733"><ele>501.75</ele><time>2026-04-25T09:59:11.936Z</time></trkpt><trkpt lat="43.63393" lon="12.64643"><ele>502.5</ele><time>2026-04-25T09:59:12.937Z</time></trkpt><trkpt lat="43.634005" lon="12.6465883"><ele>503.25</ele><time>2026-04-25T09:59:13.937Z</time></trkpt><trkpt lat="43.6340667" lon="12.6467417"><ele>504.0</ele><time>2026-04-25T09:59:14.937Z</time></trkpt><trkpt lat="43.6341017" lon="12.6469033"><ele>504.0</ele><time>2026-04-25T09:59:15.937Z</time></trkpt><trkpt lat="43.6341217" lon="12.6470867"><ele>504.0</ele><time>2026-04-25T09:59:16.936Z</time></trkpt><trkpt lat="43.6341333" lon="12.6472967"><ele>504.0</ele><time>2026-04-25T09:59:17.937Z</time></trkpt><trkpt lat="43.63414" lon="12.647525"><ele>504.0</ele><time>2026-04-25T09:59:18.937Z</time></trkpt><trkpt lat="43.634145" lon="12.6477717"><ele>504.0</ele><time>2026-04-25T09:59:19.937Z</time></trkpt><trkpt lat="43.634155" lon="12.648025"><ele>504.0</ele><time>2026-04-25T09:59:20.937Z</time></trkpt><trkpt lat="43.6341683" lon="12.6482883"><ele>503.0</ele><time>2026-04-25T09:59:21.937Z</time></trkpt><trkpt lat="43.6341833" lon="12.64855"><ele>502.0</ele><time>2026-04-25T09:59:22.937Z</time></trkpt><trkpt lat="43.6341917" lon="12.6488033"><ele>501.0</ele><time>2026-04-25T09:59:23.936Z</time></trkpt><trkpt lat="43.634195" lon="12.64906"><ele>501.0</ele><time>2026-04-25T09:59:24.937Z</time></trkpt><trkpt lat="43.6341967" lon="12.6493067"><ele>501.0</ele><time>2026-04-25T09:59:25.937Z</time></trkpt><trkpt lat="43.6342033" lon="12.6495467"><ele>501.0</ele><time>2026-04-25T09:59:26.937Z</time></trkpt><trkpt lat="43.6342333" lon="12.6497967"><ele>502.0</ele><time>2026-04-25T09:59:27.937Z</time></trkpt><trkpt lat="43.6342783" lon="12.6500583"><ele>503.0</ele><time>2026-04-25T09:59:28.937Z</time></trkpt><trkpt lat="43.6343283" lon="12.6503317"><ele>504.0</ele><time>2026-04-25T09:59:29.936Z</time></trkpt><trkpt lat="43.6343817" lon="12.6506083"><ele>504.33333333333337</ele><time>2026-04-25T09:59:30.937Z</time></trkpt><trkpt lat="43.6344317" lon="12.6508867"><ele>504.6666666666667</ele><time>2026-04-25T09:59:31.937Z</time></trkpt><trkpt lat="43.6344733" lon="12.651155"><ele>505.0</ele><time>2026-04-25T09:59:32.936Z</time></trkpt><trkpt lat="43.63451" lon="12.6514067"><ele>505.6666666666667</ele><time>2026-04-25T09:59:33.937Z</time></trkpt><trkpt lat="43.6345483" lon="12.651645"><ele>506.33333333333337</ele><time>2026-04-25T09:59:34.937Z</time></trkpt><trkpt lat="43.6345933" lon="12.651865"><ele>507.0</ele><time>2026-04-25T09:59:35.936Z</time></trkpt><trkpt lat="43.6346433" lon="12.652065"><ele>507.0</ele><time>2026-04-25T09:59:36.936Z</time></trkpt><trkpt lat="43.634695" lon="12.6522483"><ele>507.0</ele><time>2026-04-25T09:59:37.937Z</time></trkpt><trkpt lat="43.6347467" lon="12.6524317"><ele>507.0</ele><time>2026-04-25T09:59:38.936Z</time></trkpt><trkpt lat="43.6347967" lon="12.6526317"><ele>507.0</ele><time>2026-04-25T09:59:39.937Z</time></trkpt><trkpt lat="43.6348417" lon="12.6528383"><ele>507.33333333333337</ele><time>2026-04-25T09:59:40.937Z</time></trkpt><trkpt lat="43.6348817" lon="12.6530533"><ele>507.6666666666667</ele><time>2026-04-25T09:59:41.937Z</time></trkpt><trkpt lat="43.6349167" lon="12.6532583"><ele>508.0</ele><time>2026-04-25T09:59:42.937Z</time></trkpt><trkpt lat="43.634935" lon="12.6534467"><ele>510.25</ele><time>2026-04-25T09:59:43.937Z</time></trkpt><trkpt lat="43.63493" lon="12.6536267"><ele>512.5</ele><time>2026-04-25T09:59:44.937Z</time></trkpt><trkpt lat="43.634895" lon="12.6537917"><ele>514.75</ele><time>2026-04-25T09:59:45.937Z</time></trkpt><trkpt lat="43.6348267" lon="12.653945"><ele>517.0</ele><time>2026-04-25T09:59:46.937Z</time></trkpt><trkpt lat="43.634735" lon="12.6540733"><ele>517.0</ele><time>2026-04-25T09:59:47.937Z</time></trkpt><trkpt lat="43.6346367" lon="12.6541833"><ele>517.0</ele><time>2026-04-25T09:59:48.937Z</time></trkpt><trkpt lat="43.6345517" lon="12.65428"><ele>517.0</ele><time>2026-04-25T09:59:49.936Z</time></trkpt><trkpt lat="43.6344867" lon="12.6543733"><ele>517.0</ele><time>2026-04-25T09:59:50.937Z</time></trkpt><trkpt lat="43.6344467" lon="12.65447"><ele>517.0</ele><time>2026-04-25T09:59:51.937Z</time></trkpt><trkpt lat="43.63443" lon="12.6545683"><ele>515.0</ele><time>2026-04-25T09:59:52.937Z</time></trkpt><trkpt lat="43.634405" lon="12.6546567"><ele>513.0</ele><time>2026-04-25T09:59:53.937Z</time></trkpt><trkpt lat="43.63436" lon="12.6547183"><ele>511.0</ele><time>2026-04-25T09:59:54.936Z</time></trkpt><trkpt lat="43.634295" lon="12.6547533"><ele>509.0</ele><time>2026-04-25T09:59:55.937Z</time></trkpt><trkpt lat="43.6342117" lon="12.6547683"><ele>507.00000000000006</ele><time>2026-04-25T09:59:56.937Z</time></trkpt><trkpt lat="43.6341083" lon="12.6547733"><ele>505.0</ele><time>2026-04-25T09:59:57.936Z</time></trkpt><trkpt lat="43.6339917" lon="12.6547867"><ele>505.0</ele><time>2026-04-25T09:59:58.937Z</time></trkpt><trkpt lat="43.6338733" lon="12.6548067"><ele>505.0</ele><time>2026-04-25T09:59:59.936Z</time></trkpt><trkpt lat="43.633765" lon="12.6548217"><ele>505.0</ele><time>2026-04-25T10:00:00.937Z</time></trkpt><trkpt lat="43.6336667" lon="12.6548383"><ele>505.0</ele><time>2026-04-25T10:00:01.937Z</time></trkpt><trkpt lat="43.63358" lon="12.6548167"><ele>505.0</ele><time>2026-04-25T10:00:02.936Z</time></trkpt><trkpt lat="43.6335017" lon="12.65477"><ele>505.50000000000006</ele><time>2026-04-25T10:00:03.937Z</time></trkpt><trkpt lat="43.6334483" lon="12.6546933"><ele>506.0</ele><time>2026-04-25T10:00:04.936Z</time></trkpt><trkpt lat="43.6334433" lon="12.654585"><ele>506.5</ele><time>2026-04-25T10:00:05.937Z</time></trkpt><trkpt lat="43.6334683" lon="12.654485"><ele>507.0</ele><time>2026-04-25T10:00:06.936Z</time></trkpt><trkpt lat="43.633525" lon="12.654395"><ele>507.50000000000006</ele><time>2026-04-25T10:00:07.937Z</time></trkpt><trkpt lat="43.63359" lon="12.6543033"><ele>508.0</ele><time>2026-04-25T10:00:08.937Z</time></trkpt><trkpt lat="43.6336633" lon="12.6542217"><ele>508.0</ele><time>2026-04-25T10:00:09.937Z</time></trkpt><trkpt lat="43.63375" lon="12.6541483"><ele>507.99999999999994</ele><time>2026-04-25T10:00:10.937Z</time></trkpt><trkpt lat="43.6338467" lon="12.6540867"><ele>507.99999999999994</ele><time>2026-04-25T10:00:11.937Z</time></trkpt><trkpt lat="43.6339467" lon="12.6540267"><ele>508.0</ele><time>2026-04-25T10:00:12.937Z</time></trkpt><trkpt lat="43.63405" lon="12.65396"><ele>508.0</ele><time>2026-04-25T10:00:13.937Z</time></trkpt><trkpt lat="43.6341433" lon="12.6538867"><ele>508.0</ele><time>2026-04-25T10:00:14.937Z</time></trkpt><trkpt lat="43.6342183" lon="12.6537933"><ele>507.99999999999994</ele><time>2026-04-25T10:00:15.936Z</time></trkpt><trkpt lat="43.6342733" lon="12.65368"><ele>507.99999999999994</ele><time>2026-04-25T10:00:16.936Z</time></trkpt><trkpt lat="43.63431" lon="12.65356"><ele>508.0</ele><time>2026-04-25T10:00:17.937Z</time></trkpt><trkpt lat="43.6343183" lon="12.6534433"><ele>508.0</ele><time>2026-04-25T10:00:18.937Z</time></trkpt><trkpt lat="43.634295" lon="12.6533283"><ele>506.4</ele><time>2026-04-25T10:00:19.937Z</time></trkpt><trkpt lat="43.63424" lon="12.6532183"><ele>504.79999999999995</ele><time>2026-04-25T10:00:20.937Z</time></trkpt><trkpt lat="43.6341733" lon="12.6531083"><ele>503.2</ele><time>2026-04-25T10:00:21.937Z</time></trkpt><trkpt lat="43.6341017" lon="12.6529767"><ele>501.6</ele><time>2026-04-25T10:00:22.937Z</time></trkpt><trkpt lat="43.634035" lon="12.6528283"><ele>500.0</ele><time>2026-04-25T10:00:23.937Z</time></trkpt><trkpt lat="43.6339733" lon="12.6526767"><ele>500.0</ele><time>2026-04-25T10:00:24.937Z</time></trkpt><trkpt lat="43.6339067" lon="12.652525"><ele>500.0</ele><time>2026-04-25T10:00:25.937Z</time></trkpt><trkpt lat="43.6338367" lon="12.65238"><ele>500.0</ele><time>2026-04-25T10:00:26.937Z</time></trkpt><trkpt lat="43.63377" lon="12.6522417"><ele>500.0</ele><time>2026-04-25T10:00:27.937Z</time></trkpt><trkpt lat="43.633715" lon="12.6521133"><ele>500.0</ele><time>2026-04-25T10:00:28.937Z</time></trkpt><trkpt lat="43.63367" lon="12.65201"><ele>500.0</ele><time>2026-04-25T10:00:29.936Z</time></trkpt><trkpt lat="43.633625" lon="12.65194"><ele>500.0</ele><time>2026-04-25T10:00:30.937Z</time></trkpt><trkpt lat="43.633545" lon="12.6519717"><ele>500.0</ele><time>2026-04-25T10:00:32.936Z</time></trkpt><trkpt lat="43.6335217" lon="12.6521733"><ele>500.0</ele><time>2026-04-25T10:00:34.936Z</time></trkpt><trkpt lat="43.6335267" lon="12.6523417"><ele>496.75</ele><time>2026-04-25T10:00:35.937Z</time></trkpt><trkpt lat="43.633515" lon="12.6525283"><ele>493.5</ele><time>2026-04-25T10:00:36.937Z</time></trkpt><trkpt lat="43.633475" lon="12.6527117"><ele>490.25</ele><time>2026-04-25T10:00:37.937Z</time></trkpt><trkpt lat="43.63341" lon="12.65289"><ele>487.0</ele><time>2026-04-25T10:00:38.937Z</time></trkpt><trkpt lat="43.6333317" lon="12.6530533"><ele>487.0</ele><time>2026-04-25T10:00:39.937Z</time></trkpt><trkpt lat="43.633245" lon="12.6532067"><ele>487.0</ele><time>2026-04-25T10:00:40.937Z</time></trkpt><trkpt lat="43.6331483" lon="12.6533433"><ele>487.0</ele><time>2026-04-25T10:00:41.936Z</time></trkpt><trkpt lat="43.6330383" lon="12.6534583"><ele>487.0</ele><time>2026-04-25T10:00:42.936Z</time></trkpt><trkpt lat="43.6329167" lon="12.6535483"><ele>485.75</ele><time>2026-04-25T10:00:43.937Z</time></trkpt><trkpt lat="43.6327967" lon="12.653635"><ele>484.5</ele><time>2026-04-25T10:00:44.937Z</time></trkpt><trkpt lat="43.6326767" lon="12.6537233"><ele>483.25</ele><time>2026-04-25T10:00:45.936Z</time></trkpt><trkpt lat="43.6325583" lon="12.653815"><ele>482.0</ele><time>2026-04-25T10:00:46.937Z</time></trkpt><trkpt lat="43.6324417" lon="12.6538983"><ele>482.0</ele><time>2026-04-25T10:00:47.936Z</time></trkpt><trkpt lat="43.6323233" lon="12.6539667"><ele>482.0</ele><time>2026-04-25T10:00:48.937Z</time></trkpt><trkpt lat="43.6321967" lon="12.65401"><ele>482.0</ele><time>2026-04-25T10:00:49.936Z</time></trkpt><trkpt lat="43.632055" lon="12.6539983"><ele>482.0</ele><time>2026-04-25T10:00:50.937Z</time></trkpt><trkpt lat="43.6319" lon="12.6539467"><ele>478.0</ele><time>2026-04-25T10:00:51.936Z</time></trkpt><trkpt lat="43.631745" lon="12.653875"><ele>474.0</ele><time>2026-04-25T10:00:52.936Z</time></trkpt><trkpt lat="43.6315883" lon="12.6538117"><ele>470.0</ele><time>2026-04-25T10:00:53.937Z</time></trkpt><trkpt lat="43.6314367" lon="12.653735"><ele>470.0</ele><time>2026-04-25T10:00:54.936Z</time></trkpt><trkpt lat="43.6312917" lon="12.65369"><ele>470.0</ele><time>2026-04-25T10:00:55.937Z</time></trkpt><trkpt lat="43.6311517" lon="12.6536767"><ele>470.0</ele><time>2026-04-25T10:00:56.937Z</time></trkpt><trkpt lat="43.63101" lon="12.6536883"><ele>470.0</ele><time>2026-04-25T10:00:57.937Z</time></trkpt><trkpt lat="43.6308617" lon="12.6536967"><ele>470.75</ele><time>2026-04-25T10:00:58.937Z</time></trkpt><trkpt lat="43.6307117" lon="12.6537167"><ele>471.5</ele><time>2026-04-25T10:00:59.937Z</time></trkpt><trkpt lat="43.6305733" lon="12.6537433"><ele>472.25</ele><time>2026-04-25T10:01:00.937Z</time></trkpt><trkpt lat="43.6304417" lon="12.6537783"><ele>473.0</ele><time>2026-04-25T10:01:01.937Z</time></trkpt><trkpt lat="43.6303067" lon="12.653815"><ele>475.0</ele><time>2026-04-25T10:01:02.937Z</time></trkpt><trkpt lat="43.6301683" lon="12.6538417"><ele>477.0</ele><time>2026-04-25T10:01:03.937Z</time></trkpt><trkpt lat="43.63003" lon="12.6538567"><ele>479.0</ele><time>2026-04-25T10:01:04.937Z</time></trkpt><trkpt lat="43.6298883" lon="12.65386"><ele>481.0</ele><time>2026-04-25T10:01:05.936Z</time></trkpt><trkpt lat="43.6297483" lon="12.6538567"><ele>481.0</ele><time>2026-04-25T10:01:06.936Z</time></trkpt><trkpt lat="43.629615" lon="12.6538467"><ele>481.0</ele><time>2026-04-25T10:01:07.937Z</time></trkpt><trkpt lat="43.6294933" lon="12.6538417"><ele>481.0</ele><time>2026-04-25T10:01:08.937Z</time></trkpt><trkpt lat="43.6293917" lon="12.6538467"><ele>481.0</ele><time>2026-04-25T10:01:09.936Z</time></trkpt><trkpt lat="43.6293133" lon="12.6538733"><ele>481.0</ele><time>2026-04-25T10:01:10.937Z</time></trkpt><trkpt lat="43.6292533" lon="12.6539333"><ele>478.6</ele><time>2026-04-25T10:01:11.937Z</time></trkpt><trkpt lat="43.6292033" lon="12.6540283"><ele>476.20000000000005</ele><time>2026-04-25T10:01:12.936Z</time></trkpt><trkpt lat="43.629185" lon="12.6541567"><ele>473.79999999999995</ele><time>2026-04-25T10:01:13.937Z</time></trkpt><trkpt lat="43.6291983" lon="12.654335"><ele>471.4</ele><time>2026-04-25T10:01:14.937Z</time></trkpt><trkpt lat="43.6292033" lon="12.6545183"><ele>469.0</ele><time>2026-04-25T10:01:15.936Z</time></trkpt><trkpt lat="43.6291967" lon="12.6547"><ele>468.75</ele><time>2026-04-25T10:01:16.937Z</time></trkpt><trkpt lat="43.6291733" lon="12.6548667"><ele>468.5</ele><time>2026-04-25T10:01:17.937Z</time></trkpt><trkpt lat="43.6291417" lon="12.655025"><ele>468.25</ele><time>2026-04-25T10:01:18.937Z</time></trkpt><trkpt lat="43.6291" lon="12.6551883"><ele>468.0</ele><time>2026-04-25T10:01:19.936Z</time></trkpt><trkpt lat="43.629045" lon="12.65537"><ele>467.33333333333337</ele><time>2026-04-25T10:01:20.937Z</time></trkpt><trkpt lat="43.62898" lon="12.655555"><ele>466.6666666666667</ele><time>2026-04-25T10:01:21.937Z</time></trkpt><trkpt lat="43.62891" lon="12.6557483"><ele>466.0</ele><time>2026-04-25T10:01:22.936Z</time></trkpt><trkpt lat="43.6288383" lon="12.65596"><ele>464.6666666666667</ele><time>2026-04-25T10:01:23.937Z</time></trkpt><trkpt lat="43.6287667" lon="12.65617"><ele>463.33333333333337</ele><time>2026-04-25T10:01:24.937Z</time></trkpt><trkpt lat="43.6286967" lon="12.6563733"><ele>462.0</ele><time>2026-04-25T10:01:25.936Z</time></trkpt><trkpt lat="43.62863" lon="12.6565717"><ele>462.33333333333337</ele><time>2026-04-25T10:01:26.936Z</time></trkpt><trkpt lat="43.628555" lon="12.65677"><ele>462.6666666666667</ele><time>2026-04-25T10:01:27.937Z</time></trkpt><trkpt lat="43.6284683" lon="12.65697"><ele>463.0</ele><time>2026-04-25T10:01:28.936Z</time></trkpt><trkpt lat="43.62837" lon="12.6571683"><ele>463.0</ele><time>2026-04-25T10:01:29.937Z</time></trkpt><trkpt lat="43.62826" lon="12.6573683"><ele>463.0</ele><time>2026-04-25T10:01:30.937Z</time></trkpt><trkpt lat="43.6281483" lon="12.6575617"><ele>463.0</ele><time>2026-04-25T10:01:31.937Z</time></trkpt><trkpt lat="43.628045" lon="12.65775"><ele>460.0</ele><time>2026-04-25T10:01:32.937Z</time></trkpt><trkpt lat="43.6279467" lon="12.65793"><ele>457.0</ele><time>2026-04-25T10:01:33.937Z</time></trkpt><trkpt lat="43.6278483" lon="12.6581067"><ele>454.0</ele><time>2026-04-25T10:01:34.937Z</time></trkpt><trkpt lat="43.62774" lon="12.65828"><ele>456.0</ele><time>2026-04-25T10:01:35.937Z</time></trkpt><trkpt lat="43.6276233" lon="12.65844"><ele>458.0</ele><time>2026-04-25T10:01:36.937Z</time></trkpt><trkpt lat="43.6275" lon="12.6585833"><ele>460.0</ele><time>2026-04-25T10:01:37.937Z</time></trkpt><trkpt lat="43.627375" lon="12.658725"><ele>460.0</ele><time>2026-04-25T10:01:38.937Z</time></trkpt><trkpt lat="43.6272467" lon="12.6588733"><ele>460.0</ele><time>2026-04-25T10:01:39.937Z</time></trkpt><trkpt lat="43.62712" lon="12.6590183"><ele>460.0</ele><time>2026-04-25T10:01:40.936Z</time></trkpt><trkpt lat="43.6269867" lon="12.659165"><ele>462.33333333333337</ele><time>2026-04-25T10:01:41.937Z</time></trkpt><trkpt lat="43.626845" lon="12.6593017"><ele>464.66666666666663</ele><time>2026-04-25T10:01:42.937Z</time></trkpt><trkpt lat="43.6266967" lon="12.65943"><ele>467.0</ele><time>2026-04-25T10:01:43.936Z</time></trkpt><trkpt lat="43.6265467" lon="12.6595583"><ele>467.0</ele><time>2026-04-25T10:01:44.936Z</time></trkpt><trkpt lat="43.6264" lon="12.6596867"><ele>467.0</ele><time>2026-04-25T10:01:45.937Z</time></trkpt><trkpt lat="43.6262567" lon="12.6598083"><ele>467.0</ele><time>2026-04-25T10:01:46.937Z</time></trkpt><trkpt lat="43.62612" lon="12.6599217"><ele>464.3333333333333</ele><time>2026-04-25T10:01:47.936Z</time></trkpt><trkpt lat="43.6259817" lon="12.6600133"><ele>461.66666666666663</ele><time>2026-04-25T10:01:48.937Z</time></trkpt><trkpt lat="43.62584" lon="12.66009"><ele>459.0</ele><time>2026-04-25T10:01:49.937Z</time></trkpt><trkpt lat="43.6256967" lon="12.6601667"><ele>459.0</ele><time>2026-04-25T10:01:50.936Z</time></trkpt><trkpt lat="43.6255567" lon="12.660265"><ele>459.0</ele><time>2026-04-25T10:01:51.937Z</time></trkpt><trkpt lat="43.625425" lon="12.6603833"><ele>459.0</ele><time>2026-04-25T10:01:52.937Z</time></trkpt><trkpt lat="43.6253" lon="12.6605183"><ele>458.0</ele><time>2026-04-25T10:01:53.936Z</time></trkpt><trkpt lat="43.6251817" lon="12.6606583"><ele>457.0</ele><time>2026-04-25T10:01:54.937Z</time></trkpt><trkpt lat="43.62508" lon="12.6607933"><ele>456.0</ele><time>2026-04-25T10:01:55.937Z</time></trkpt><trkpt lat="43.6250067" lon="12.660915"><ele>455.0</ele><time>2026-04-25T10:01:56.937Z</time></trkpt><trkpt lat="43.6249617" lon="12.6610117"><ele>454.0</ele><time>2026-04-25T10:01:57.936Z</time></trkpt><trkpt lat="43.62496" lon="12.6611483"><ele>453.0</ele><time>2026-04-25T10:01:59.937Z</time></trkpt><trkpt lat="43.625075" lon="12.66124"><ele>452.0</ele><time>2026-04-25T10:02:01.937Z</time></trkpt><trkpt lat="43.62518" lon="12.6612933"><ele>451.0</ele><time>2026-04-25T10:02:02.938Z</time></trkpt><trkpt lat="43.6253083" lon="12.6613567"><ele>450.75</ele><time>2026-04-25T10:02:03.938Z</time></trkpt><trkpt lat="43.6254417" lon="12.6614317"><ele>450.5</ele><time>2026-04-25T10:02:04.937Z</time></trkpt><trkpt lat="43.6255767" lon="12.66152"><ele>450.25</ele><time>2026-04-25T10:02:05.938Z</time></trkpt><trkpt lat="43.62571" lon="12.6616167"><ele>450.0</ele><time>2026-04-25T10:02:06.938Z</time></trkpt><trkpt lat="43.6258433" lon="12.661715"><ele>450.0</ele><time>2026-04-25T10:02:07.937Z</time></trkpt><trkpt lat="43.6259783" lon="12.6618133"><ele>450.0</ele><time>2026-04-25T10:02:08.938Z</time></trkpt><trkpt lat="43.626115" lon="12.6619083"><ele>450.0</ele><time>2026-04-25T10:02:09.938Z</time></trkpt><trkpt lat="43.626255" lon="12.662005"><ele>446.5</ele><time>2026-04-25T10:02:10.938Z</time></trkpt><trkpt lat="43.6263917" lon="12.6620983"><ele>443.0</ele><time>2026-04-25T10:02:11.938Z</time></trkpt><trkpt lat="43.6265183" lon="12.66218"><ele>439.5</ele><time>2026-04-25T10:02:12.938Z</time></trkpt><trkpt lat="43.626645" lon="12.66224"><ele>436.0</ele><time>2026-04-25T10:02:13.938Z</time></trkpt><trkpt lat="43.6267633" lon="12.6622817"><ele>436.0</ele><time>2026-04-25T10:02:14.938Z</time></trkpt><trkpt lat="43.6268767" lon="12.6622767"><ele>436.0</ele><time>2026-04-25T10:02:15.938Z</time></trkpt><trkpt lat="43.6269833" lon="12.6622283"><ele>436.0</ele><time>2026-04-25T10:02:16.938Z</time></trkpt><trkpt lat="43.62708" lon="12.66214"><ele>436.0</ele><time>2026-04-25T10:02:17.938Z</time></trkpt><trkpt lat="43.62717" lon="12.6620217"><ele>434.5</ele><time>2026-04-25T10:02:18.937Z</time></trkpt><trkpt lat="43.62726" lon="12.66188"><ele>433.0</ele><time>2026-04-25T10:02:19.938Z</time></trkpt><trkpt lat="43.627345" lon="12.6617233"><ele>431.5</ele><time>2026-04-25T10:02:20.938Z</time></trkpt><trkpt lat="43.6274317" lon="12.6615667"><ele>430.0</ele><time>2026-04-25T10:02:21.937Z</time></trkpt><trkpt lat="43.6255567" lon="12.660265"><ele>438.33333333333337</ele><time>2026-04-25T10:01:51.937Z</time></trkpt><trkpt lat="43.625425" lon="12.6603833"><ele>446.66666666666663</ele><time>2026-04-25T10:01:52.937Z</time></trkpt><trkpt lat="43.6253" lon="12.6605183"><ele>455.0</ele><time>2026-04-25T10:01:53.936Z</time></trkpt><trkpt lat="43.6251817" lon="12.6606583"><ele>455.0</ele><time>2026-04-25T10:01:54.937Z</time></trkpt><trkpt lat="43.62508" lon="12.6607933"><ele>455.0</ele><time>2026-04-25T10:01:55.937Z</time></trkpt><trkpt lat="43.6250067" lon="12.660915"><ele>455.0</ele><time>2026-04-25T10:01:56.937Z</time></trkpt><trkpt lat="43.6249617" lon="12.6610117"><ele>455.0</ele><time>2026-04-25T10:01:57.936Z</time></trkpt><trkpt lat="43.62496" lon="12.6611483"><ele>455.0</ele><time>2026-04-25T10:01:59.937Z</time></trkpt><trkpt lat="43.625075" lon="12.66124"><ele>454.0</ele><time>2026-04-25T10:02:01.937Z</time></trkpt><trkpt lat="43.62518" lon="12.6612933"><ele>453.0</ele><time>2026-04-25T10:02:02.938Z</time></trkpt><trkpt lat="43.6253083" lon="12.6613567"><ele>452.0</ele><time>2026-04-25T10:02:03.938Z</time></trkpt><trkpt lat="43.6254417" lon="12.6614317"><ele>451.0</ele><time>2026-04-25T10:02:04.937Z</time></trkpt><trkpt lat="43.6255767" lon="12.66152"><ele>450.6666666666667</ele><time>2026-04-25T10:02:05.938Z</time></trkpt><trkpt lat="43.62571" lon="12.6616167"><ele>450.33333333333337</ele><time>2026-04-25T10:02:06.938Z</time></trkpt><trkpt lat="43.6258433" lon="12.661715"><ele>450.0</ele><time>2026-04-25T10:02:07.937Z</time></trkpt><trkpt lat="43.6259783" lon="12.6618133"><ele>450.0</ele><time>2026-04-25T10:02:08.938Z</time></trkpt><trkpt lat="43.626115" lon="12.6619083"><ele>450.0</ele><time>2026-04-25T10:02:09.938Z</time></trkpt><trkpt lat="43.626255" lon="12.662005"><ele>450.0</ele><time>2026-04-25T10:02:10.938Z</time></trkpt><trkpt lat="43.6263917" lon="12.6620983"><ele>446.5</ele><time>2026-04-25T10:02:11.938Z</time></trkpt><trkpt lat="43.6265183" lon="12.66218"><ele>443.0</ele><time>2026-04-25T10:02:12.938Z</time></trkpt><trkpt lat="43.626645" lon="12.66224"><ele>439.5</ele><time>2026-04-25T10:02:13.938Z</time></trkpt><trkpt lat="43.6267633" lon="12.6622817"><ele>436.0</ele><time>2026-04-25T10:02:14.938Z</time></trkpt><trkpt lat="43.6268767" lon="12.6622767"><ele>434.5</ele><time>2026-04-25T10:02:15.938Z</time></trkpt><trkpt lat="43.6269833" lon="12.6622283"><ele>433.0</ele><time>2026-04-25T10:02:16.938Z</time></trkpt><trkpt lat="43.62708" lon="12.66214"><ele>431.5</ele><time>2026-04-25T10:02:17.938Z</time></trkpt><trkpt lat="43.62717" lon="12.6620217"><ele>430.0</ele><time>2026-04-25T10:02:18.937Z</time></trkpt><trkpt lat="43.62726" lon="12.66188"><ele>430.0</ele><time>2026-04-25T10:02:19.938Z</time></trkpt><trkpt lat="43.627345" lon="12.6617233"><ele>430.0</ele><time>2026-04-25T10:02:20.938Z</time></trkpt><trkpt lat="43.6274317" lon="12.6615667"><ele>430.0</ele><time>2026-04-25T10:02:21.937Z</time></trkpt><trkpt lat="43.6275217" lon="12.66142"><ele>430.0</ele><time>2026-04-25T10:02:22.937Z</time></trkpt><trkpt lat="43.6276067" lon="12.6612867"><ele>430.00000000000006</ele><time>2026-04-25T10:02:23.938Z</time></trkpt><trkpt lat="43.62768" lon="12.6611733"><ele>430.0</ele><time>2026-04-25T10:02:24.938Z</time></trkpt><trkpt lat="43.6277483" lon="12.66108"><ele>430.0</ele><time>2026-04-25T10:02:25.938Z</time></trkpt><trkpt lat="43.6278133" lon="12.66102"><ele>430.0</ele><time>2026-04-25T10:02:26.938Z</time></trkpt><trkpt lat="43.6278783" lon="12.6609917"><ele>430.00000000000006</ele><time>2026-04-25T10:02:27.938Z</time></trkpt><trkpt lat="43.6279533" lon="12.6610733"><ele>430.0</ele><time>2026-04-25T10:02:29.938Z</time></trkpt><trkpt lat="43.6279217" lon="12.6611883"><ele>430.0</ele><time>2026-04-25T10:02:30.938Z</time></trkpt><trkpt lat="43.627875" lon="12.6612983"><ele>430.0</ele><time>2026-04-25T10:02:31.938Z</time></trkpt><trkpt lat="43.6278167" lon="12.6614267"><ele>430.0</ele><time>2026-04-25T10:02:32.938Z</time></trkpt><trkpt lat="43.6277717" lon="12.6615733"><ele>430.0</ele><time>2026-04-25T10:02:33.938Z</time></trkpt><trkpt lat="43.627745" lon="12.6617317"><ele>430.0</ele><time>2026-04-25T10:02:34.938Z</time></trkpt><trkpt lat="43.62773" lon="12.6618917"><ele>426.25</ele><time>2026-04-25T10:02:35.938Z</time></trkpt><trkpt lat="43.627705" lon="12.6620367"><ele>422.5</ele><time>2026-04-25T10:02:36.938Z</time></trkpt><trkpt lat="43.6276583" lon="12.6621633"><ele>418.75</ele><time>2026-04-25T10:02:37.938Z</time></trkpt><trkpt lat="43.6275717" lon="12.66227"><ele>415.0</ele><time>2026-04-25T10:02:38.938Z</time></trkpt><trkpt lat="43.627465" lon="12.662365"><ele>415.0</ele><time>2026-04-25T10:02:39.937Z</time></trkpt><trkpt lat="43.62736" lon="12.66247"><ele>415.0</ele><time>2026-04-25T10:02:40.937Z</time></trkpt><trkpt lat="43.627265" lon="12.662605"><ele>415.0</ele><time>2026-04-25T10:02:41.937Z</time></trkpt><trkpt lat="43.6271833" lon="12.6627617"><ele>415.0</ele><time>2026-04-25T10:02:42.938Z</time></trkpt><trkpt lat="43.6271133" lon="12.66293"><ele>413.0</ele><time>2026-04-25T10:02:43.938Z</time></trkpt><trkpt lat="43.6270483" lon="12.6630967"><ele>411.0</ele><time>2026-04-25T10:02:44.938Z</time></trkpt><trkpt lat="43.626975" lon="12.6632417"><ele>409.0</ele><time>2026-04-25T10:02:45.938Z</time></trkpt><trkpt lat="43.6268883" lon="12.6633417"><ele>407.0</ele><time>2026-04-25T10:02:46.938Z</time></trkpt><trkpt lat="43.6267833" lon="12.6633933"><ele>407.0</ele><time>2026-04-25T10:02:47.937Z</time></trkpt><trkpt lat="43.6266633" lon="12.6634133"><ele>407.0</ele><time>2026-04-25T10:02:48.938Z</time></trkpt><trkpt lat="43.6265333" lon="12.66342"><ele>407.0</ele><time>2026-04-25T10:02:49.938Z</time></trkpt><trkpt lat="43.6263967" lon="12.6634267"><ele>407.0</ele><time>2026-04-25T10:02:50.938Z</time></trkpt><trkpt lat="43.6262633" lon="12.663425"><ele>406.0</ele><time>2026-04-25T10:02:51.938Z</time></trkpt><trkpt lat="43.6261367" lon="12.6634033"><ele>405.0</ele><time>2026-04-25T10:02:52.938Z</time></trkpt><trkpt lat="43.6260233" lon="12.66336"><ele>404.0</ele><time>2026-04-25T10:02:53.937Z</time></trkpt><trkpt lat="43.6259167" lon="12.6633167"><ele>403.0</ele><time>2026-04-25T10:02:54.938Z</time></trkpt><trkpt lat="43.62582" lon="12.6633"><ele>403.0</ele><time>2026-04-25T10:02:55.938Z</time></trkpt><trkpt lat="43.62572" lon="12.6633217"><ele>403.0</ele><time>2026-04-25T10:02:56.937Z</time></trkpt><trkpt lat="43.6256117" lon="12.663375"><ele>403.0</ele><time>2026-04-25T10:02:57.938Z</time></trkpt><trkpt lat="43.6255" lon="12.6634633"><ele>403.0</ele><time>2026-04-25T10:02:58.938Z</time></trkpt><trkpt lat="43.6253967" lon="12.6635783"><ele>400.5</ele><time>2026-04-25T10:02:59.937Z</time></trkpt><trkpt lat="43.6253067" lon="12.663715"><ele>398.0</ele><time>2026-04-25T10:03:00.938Z</time></trkpt><trkpt lat="43.6252383" lon="12.663855"><ele>395.5</ele><time>2026-04-25T10:03:01.938Z</time></trkpt><trkpt lat="43.6251817" lon="12.66399"><ele>393.0</ele><time>2026-04-25T10:03:02.937Z</time></trkpt><trkpt lat="43.6251217" lon="12.66412"><ele>393.0</ele><time>2026-04-25T10:03:03.938Z</time></trkpt><trkpt lat="43.6250367" lon="12.6642533"><ele>393.0</ele><time>2026-04-25T10:03:04.937Z</time></trkpt><trkpt lat="43.62494" lon="12.6643967"><ele>393.0</ele><time>2026-04-25T10:03:05.938Z</time></trkpt><trkpt lat="43.6248483" lon="12.6645567"><ele>393.0</ele><time>2026-04-25T10:03:06.938Z</time></trkpt><trkpt lat="43.6247683" lon="12.6647383"><ele>385.0</ele><time>2026-04-25T10:03:07.937Z</time></trkpt><trkpt lat="43.624695" lon="12.66493"><ele>377.0</ele><time>2026-04-25T10:03:08.937Z</time></trkpt><trkpt lat="43.62463" lon="12.6651233"><ele>369.0</ele><time>2026-04-25T10:03:09.938Z</time></trkpt><trkpt lat="43.62457" lon="12.66531"><ele>369.6666666666667</ele><time>2026-04-25T10:03:10.938Z</time></trkpt><trkpt lat="43.6245067" lon="12.665505"><ele>370.33333333333337</ele><time>2026-04-25T10:03:11.937Z</time></trkpt><trkpt lat="43.6244317" lon="12.6657033"><ele>371.0</ele><time>2026-04-25T10:03:12.938Z</time></trkpt><trkpt lat="43.624355" lon="12.6658983"><ele>371.0</ele><time>2026-04-25T10:03:13.938Z</time></trkpt><trkpt lat="43.62428" lon="12.6660733"><ele>371.0</ele><time>2026-04-25T10:03:14.937Z</time></trkpt><trkpt lat="43.62421" lon="12.666225"><ele>371.0</ele><time>2026-04-25T10:03:15.937Z</time></trkpt><trkpt lat="43.624145" lon="12.666355"><ele>371.0</ele><time>2026-04-25T10:03:16.938Z</time></trkpt><trkpt lat="43.6240633" lon="12.6664517"><ele>367.75</ele><time>2026-04-25T10:03:17.938Z</time></trkpt><trkpt lat="43.6239683" lon="12.6665067"><ele>364.5</ele><time>2026-04-25T10:03:18.937Z</time></trkpt><trkpt lat="43.6238633" lon="12.6665233"><ele>361.25</ele><time>2026-04-25T10:03:19.937Z</time></trkpt><trkpt lat="43.623745" lon="12.6665"><ele>358.0</ele><time>2026-04-25T10:03:20.938Z</time></trkpt><trkpt lat="43.623625" lon="12.6664567"><ele>356.25</ele><time>2026-04-25T10:03:21.938Z</time></trkpt><trkpt lat="43.6235067" lon="12.6664083"><ele>354.5</ele><time>2026-04-25T10:03:22.938Z</time></trkpt><trkpt lat="43.6233883" lon="12.66637"><ele>352.75</ele><time>2026-04-25T10:03:23.937Z</time></trkpt><trkpt lat="43.62327" lon="12.666345"><ele>351.0</ele><time>2026-04-25T10:03:24.936Z</time></trkpt><trkpt lat="43.6231533" lon="12.6663417"><ele>351.0</ele><time>2026-04-25T10:03:25.937Z</time></trkpt><trkpt lat="43.6230383" lon="12.6663617"><ele>351.0</ele><time>2026-04-25T10:03:26.937Z</time></trkpt><trkpt lat="43.622935" lon="12.6663833"><ele>351.0</ele><time>2026-04-25T10:03:27.936Z</time></trkpt><trkpt lat="43.6228433" lon="12.6664033"><ele>351.0</ele><time>2026-04-25T10:03:28.937Z</time></trkpt><trkpt lat="43.6227667" lon="12.6664217"><ele>351.0</ele><time>2026-04-25T10:03:29.936Z</time></trkpt><trkpt lat="43.6227033" lon="12.6664267"><ele>351.0</ele><time>2026-04-25T10:03:30.937Z</time></trkpt><trkpt lat="43.6226583" lon="12.6663517"><ele>351.0</ele><time>2026-04-25T10:03:32.937Z</time></trkpt><trkpt lat="43.6227367" lon="12.6662383"><ele>351.0</ele><time>2026-04-25T10:03:34.936Z</time></trkpt><trkpt lat="43.62281" lon="12.6661767"><ele>351.0</ele><time>2026-04-25T10:03:35.937Z</time></trkpt><trkpt lat="43.62288" lon="12.66612"><ele>351.0</ele><time>2026-04-25T10:03:36.936Z</time></trkpt><trkpt lat="43.622915" lon="12.6659933"><ele>351.0</ele><time>2026-04-25T10:03:38.937Z</time></trkpt><trkpt lat="43.6228167" lon="12.6659667"><ele>349.6</ele><time>2026-04-25T10:03:40.936Z</time></trkpt><trkpt lat="43.622745" lon="12.666005"><ele>348.20000000000005</ele><time>2026-04-25T10:03:41.937Z</time></trkpt><trkpt lat="43.6226517" lon="12.6660717"><ele>346.79999999999995</ele><time>2026-04-25T10:03:42.937Z</time></trkpt><trkpt lat="43.62254" lon="12.66613"><ele>345.4</ele><time>2026-04-25T10:03:43.937Z</time></trkpt><trkpt lat="43.6224167" lon="12.666195"><ele>344.0</ele><time>2026-04-25T10:03:44.937Z</time></trkpt><trkpt lat="43.62229" lon="12.6662667"><ele>343.75</ele><time>2026-04-25T10:03:45.936Z</time></trkpt><trkpt lat="43.6221717" lon="12.6663633"><ele>343.5</ele><time>2026-04-25T10:03:46.937Z</time></trkpt><trkpt lat="43.6220567" lon="12.6664767"><ele>343.25</ele><time>2026-04-25T10:03:47.937Z</time></trkpt><trkpt lat="43.6219467" lon="12.6665917"><ele>343.0</ele><time>2026-04-25T10:03:48.936Z</time></trkpt><trkpt lat="43.6218383" lon="12.66671"><ele>339.0</ele><time>2026-04-25T10:03:49.937Z</time></trkpt><trkpt lat="43.6217317" lon="12.6668217"><ele>335.0</ele><time>2026-04-25T10:03:50.937Z</time></trkpt><trkpt lat="43.6216267" lon="12.6669367"><ele>331.0</ele><time>2026-04-25T10:03:51.937Z</time></trkpt><trkpt lat="43.6215267" lon="12.6670633"><ele>327.0</ele><time>2026-04-25T10:03:52.937Z</time></trkpt><trkpt lat="43.6214333" lon="12.6672067"><ele>327.0</ele><time>2026-04-25T10:03:53.937Z</time></trkpt><trkpt lat="43.6213433" lon="12.66735"><ele>327.0</ele><time>2026-04-25T10:03:54.937Z</time></trkpt><trkpt lat="43.6212567" lon="12.6674933"><ele>327.0</ele><time>2026-04-25T10:03:55.937Z</time></trkpt><trkpt lat="43.6211717" lon="12.667645"><ele>327.0</ele><time>2026-04-25T10:03:56.937Z</time></trkpt><trkpt lat="43.6211" lon="12.6678233"><ele>317.0</ele><time>2026-04-25T10:03:57.937Z</time></trkpt><trkpt lat="43.6210283" lon="12.668"><ele>307.0</ele><time>2026-04-25T10:03:58.936Z</time></trkpt><trkpt lat="43.620965" lon="12.6681833"><ele>297.0</ele><time>2026-04-25T10:03:59.937Z</time></trkpt><trkpt lat="43.6209033" lon="12.66837"><ele>287.0</ele><time>2026-04-25T10:04:00.937Z</time></trkpt><trkpt lat="43.6208467" lon="12.6685633"><ele>286.5</ele><time>2026-04-25T10:04:01.937Z</time></trkpt><trkpt lat="43.6207717" lon="12.66875"><ele>286.0</ele><time>2026-04-25T10:04:02.937Z</time></trkpt><trkpt lat="43.62071" lon="12.66893"><ele>285.5</ele><time>2026-04-25T10:04:03.937Z</time></trkpt><trkpt lat="43.6206483" lon="12.6690983"><ele>285.0</ele><time>2026-04-25T10:04:04.936Z</time></trkpt><trkpt lat="43.62058" lon="12.6692467"><ele>285.0</ele><time>2026-04-25T10:04:05.937Z</time></trkpt><trkpt lat="43.62052" lon="12.6693817"><ele>285.0</ele><time>2026-04-25T10:04:06.937Z</time></trkpt><trkpt lat="43.62046" lon="12.6695067"><ele>285.0</ele><time>2026-04-25T10:04:07.937Z</time></trkpt><trkpt lat="43.6204033" lon="12.66962"><ele>285.0</ele><time>2026-04-25T10:04:08.937Z</time></trkpt><trkpt lat="43.6203567" lon="12.669735"><ele>285.0</ele><time>2026-04-25T10:04:09.937Z</time></trkpt><trkpt lat="43.62032" lon="12.6698483"><ele>279.3333333333333</ele><time>2026-04-25T10:04:10.937Z</time></trkpt><trkpt lat="43.6202833" lon="12.6699533"><ele>273.6666666666667</ele><time>2026-04-25T10:04:11.937Z</time></trkpt><trkpt lat="43.6202467" lon="12.6700267"><ele>268.0</ele><time>2026-04-25T10:04:12.936Z</time></trkpt><trkpt lat="43.6201833" lon="12.6700233"><ele>262.33333333333337</ele><time>2026-04-25T10:04:14.936Z</time></trkpt><trkpt lat="43.6202" lon="12.6698717"><ele>256.6666666666667</ele><time>2026-04-25T10:04:16.936Z</time></trkpt><trkpt lat="43.620235" lon="12.6697433"><ele>251.0</ele><time>2026-04-25T10:04:17.937Z</time></trkpt><trkpt lat="43.620265" lon="12.6695783"><ele>253.0</ele><time>2026-04-25T10:04:18.936Z</time></trkpt><trkpt lat="43.6202883" lon="12.6694033"><ele>255.0</ele><time>2026-04-25T10:04:19.937Z</time></trkpt><trkpt lat="43.6203117" lon="12.6692267"><ele>257.0</ele><time>2026-04-25T10:04:20.937Z</time></trkpt><trkpt lat="43.6203367" lon="12.6690633"><ele>259.0</ele><time>2026-04-25T10:04:21.937Z</time></trkpt><trkpt lat="43.620355" lon="12.668905"><ele>259.0</ele><time>2026-04-25T10:04:22.937Z</time></trkpt><trkpt lat="43.6203683" lon="12.6687683"><ele>259.0</ele><time>2026-04-25T10:04:23.937Z</time></trkpt><trkpt lat="43.6203683" lon="12.6686517"><ele>259.0</ele><time>2026-04-25T10:04:24.937Z</time></trkpt><trkpt lat="43.62032" lon="12.668575"><ele>259.0</ele><time>2026-04-25T10:04:25.937Z</time></trkpt><trkpt lat="43.6202567" lon="12.6685383"><ele>259.0</ele><time>2026-04-25T10:04:26.937Z</time></trkpt><trkpt lat="43.6201333" lon="12.66861"><ele>259.0</ele><time>2026-04-25T10:04:28.937Z</time></trkpt><trkpt lat="43.6200817" lon="12.6687183"><ele>259.0</ele><time>2026-04-25T10:04:29.937Z</time></trkpt><trkpt lat="43.6200267" lon="12.6688517"><ele>259.0</ele><time>2026-04-25T10:04:30.937Z</time></trkpt><trkpt lat="43.6199567" lon="12.6689983"><ele>259.0</ele><time>2026-04-25T10:04:31.937Z</time></trkpt><trkpt lat="43.619885" lon="12.6691467"><ele>259.0</ele><time>2026-04-25T10:04:32.937Z</time></trkpt><trkpt lat="43.619815" lon="12.6693033"><ele>259.0</ele><time>2026-04-25T10:04:33.937Z</time></trkpt><trkpt lat="43.61976" lon="12.6694617"><ele>259.0</ele><time>2026-04-25T10:04:34.937Z</time></trkpt><trkpt lat="43.6197133" lon="12.6696217"><ele>259.0</ele><time>2026-04-25T10:04:35.936Z</time></trkpt><trkpt lat="43.61968" lon="12.6697833"><ele>257.0</ele><time>2026-04-25T10:04:36.937Z</time></trkpt><trkpt lat="43.619655" lon="12.6699417"><ele>255.0</ele><time>2026-04-25T10:04:37.937Z</time></trkpt><trkpt lat="43.619675" lon="12.6701"><ele>253.0</ele><time>2026-04-25T10:04:38.937Z</time></trkpt><trkpt lat="43.619735" lon="12.67025"><ele>251.0</ele><time>2026-04-25T10:04:39.937Z</time></trkpt><trkpt lat="43.6198" lon="12.6704033"><ele>247.5</ele><time>2026-04-25T10:04:40.937Z</time></trkpt><trkpt lat="43.6198783" lon="12.6705433"><ele>244.0</ele><time>2026-04-25T10:04:41.937Z</time></trkpt><trkpt lat="43.6199733" lon="12.6706583"><ele>240.5</ele><time>2026-04-25T10:04:42.937Z</time></trkpt><trkpt lat="43.620045" lon="12.6707783"><ele>237.0</ele><time>2026-04-25T10:04:43.937Z</time></trkpt><trkpt lat="43.62008" lon="12.6709033"><ele>237.0</ele><time>2026-04-25T10:04:44.937Z</time></trkpt><trkpt lat="43.6200683" lon="12.6710117"><ele>237.0</ele><time>2026-04-25T10:04:45.937Z</time></trkpt><trkpt lat="43.62002" lon="12.6710933"><ele>237.0</ele><time>2026-04-25T10:04:46.937Z</time></trkpt><trkpt lat="43.6199417" lon="12.67113"><ele>237.0</ele><time>2026-04-25T10:04:47.936Z</time></trkpt><trkpt lat="43.619845" lon="12.6710983"><ele>237.0</ele><time>2026-04-25T10:04:48.936Z</time></trkpt><trkpt lat="43.6197483" lon="12.67107"><ele>237.0</ele><time>2026-04-25T10:04:49.937Z</time></trkpt><trkpt lat="43.6196433" lon="12.6710433"><ele>237.0</ele><time>2026-04-25T10:04:50.937Z</time></trkpt><trkpt lat="43.6195417" lon="12.6710117"><ele>237.0</ele><time>2026-04-25T10:04:51.937Z</time></trkpt><trkpt lat="43.6194433" lon="12.6710317"><ele>237.0</ele><time>2026-04-25T10:04:52.937Z</time></trkpt><trkpt lat="43.6193433" lon="12.6710667"><ele>237.0</ele><time>2026-04-25T10:04:53.937Z</time></trkpt><trkpt lat="43.6192367" lon="12.6711033"><ele>237.0</ele><time>2026-04-25T10:04:54.937Z</time></trkpt><trkpt lat="43.6191183" lon="12.6711283"><ele>230.25</ele><time>2026-04-25T10:04:55.936Z</time></trkpt><trkpt lat="43.6189833" lon="12.6711533"><ele>223.5</ele><time>2026-04-25T10:04:56.937Z</time></trkpt><trkpt lat="43.6188383" lon="12.6711633"><ele>216.75</ele><time>2026-04-25T10:04:57.936Z</time></trkpt><trkpt lat="43.6186883" lon="12.6711717"><ele>210.0</ele><time>2026-04-25T10:04:58.937Z</time></trkpt><trkpt lat="43.6185383" lon="12.6711833"><ele>209.0</ele><time>2026-04-25T10:04:59.937Z</time></trkpt><trkpt lat="43.6183933" lon="12.671195"><ele>208.0</ele><time>2026-04-25T10:05:00.937Z</time></trkpt><trkpt lat="43.6182517" lon="12.671215"><ele>207.0</ele><time>2026-04-25T10:05:01.937Z</time></trkpt><trkpt lat="43.61811" lon="12.67122"><ele>206.0</ele><time>2026-04-25T10:05:02.937Z</time></trkpt><trkpt lat="43.6179833" lon="12.671235"><ele>206.0</ele><time>2026-04-25T10:05:03.937Z</time></trkpt><trkpt lat="43.6178733" lon="12.67126"><ele>206.0</ele><time>2026-04-25T10:05:04.937Z</time></trkpt><trkpt lat="43.6177783" lon="12.671285"><ele>206.0</ele><time>2026-04-25T10:05:05.937Z</time></trkpt><trkpt lat="43.6176933" lon="12.6713067"><ele>206.0</ele><time>2026-04-25T10:05:06.937Z</time></trkpt><trkpt lat="43.6176267" lon="12.6713133"><ele>206.0</ele><time>2026-04-25T10:05:07.937Z</time></trkpt><trkpt lat="43.6175333" lon="12.6712767"><ele>205.60000000000002</ele><time>2026-04-25T10:05:09.937Z</time></trkpt><trkpt lat="43.61746" lon="12.6711967"><ele>205.2</ele><time>2026-04-25T10:05:11.937Z</time></trkpt><trkpt lat="43.6173817" lon="12.6710583"><ele>204.8</ele><time>2026-04-25T10:05:13.936Z</time></trkpt><trkpt lat="43.6173333" lon="12.6709733"><ele>204.39999999999998</ele><time>2026-04-25T10:05:14.936Z</time></trkpt><trkpt lat="43.61728" lon="12.6708833"><ele>204.0</ele><time>2026-04-25T10:05:15.937Z</time></trkpt><trkpt lat="43.6172267" lon="12.6707933"><ele>204.16666666666666</ele><time>2026-04-25T10:05:16.937Z</time></trkpt><trkpt lat="43.6171733" lon="12.6707033"><ele>204.33333333333331</ele><time>2026-04-25T10:05:17.937Z</time></trkpt><trkpt lat="43.617125" lon="12.67062"><ele>204.5</ele><time>2026-04-25T10:05:18.937Z</time></trkpt><trkpt lat="43.6170767" lon="12.67054"><ele>204.66666666666666</ele><time>2026-04-25T10:05:19.937Z</time></trkpt><trkpt lat="43.6170267" lon="12.670465"><ele>204.83333333333331</ele><time>2026-04-25T10:05:20.937Z</time></trkpt><trkpt lat="43.6169367" lon="12.6703817"><ele>205.0</ele><time>2026-04-25T10:05:22.937Z</time></trkpt><trkpt lat="43.6168767" lon="12.6704367"><ele>205.0</ele><time>2026-04-25T10:05:24.937Z</time></trkpt><trkpt lat="43.616865" lon="12.6705417"><ele>205.0</ele><time>2026-04-25T10:05:26.937Z</time></trkpt><trkpt lat="43.616855" lon="12.6706317"><ele>205.0</ele><time>2026-04-25T10:05:29.937Z</time></trkpt><trkpt lat="43.6168483" lon="12.670735"><ele>205.0</ele><time>2026-04-25T10:05:42.937Z</time></trkpt><trkpt lat="43.616845" lon="12.67083"><ele>205.0</ele><time>2026-04-25T10:05:47.937Z</time></trkpt><trkpt lat="43.616835" lon="12.6709417"><ele>205.0</ele><time>2026-04-25T10:06:53.937Z</time></trkpt><trkpt lat="43.61682" lon="12.6710283"><ele>205.0</ele><time>2026-04-25T10:07:01.936Z</time></trkpt><trkpt lat="43.6167933" lon="12.6711117"><ele>204.0</ele><time>2026-04-25T10:07:08.937Z</time></trkpt><trkpt lat="43.6168473" lon="12.6711878"><ele>204.0</ele><time>2026-04-25T10:11:44.207Z</time></trkpt></trkseg></trk></gpx>